<?xml version='1.0' encoding='UTF-8'?><gpx version="1.1" creator="JPX - https://github.com/jenetics/jpx" xmlns="http://www.topografix.com/GPX/1/1"><trk><trkseg><trkpt lat="45.576678" lon="10.7542465"><ele>210.0</ele><time>2026-04-26T06:43:48.082Z</time></trkpt><trkpt lat="45.576691" lon="10.754363"><ele>210.0</ele><time>2026-04-26T06:43:55.082Z</time></trkpt><trkpt lat="45.5768175" lon="10.7544779"><ele>210.0</ele><time>2026-04-26T06:45:36.081Z</time></trkpt><trkpt lat="45.5768788" lon="10.754437"><ele>210.0</ele><time>2026-04-26T06:45:38.081Z</time></trkpt><trkpt lat="45.5769281" lon="10.7543447"><ele>210.0</ele><time>2026-04-26T06:45:41.08Z</time></trkpt><trkpt lat="45.5769306" lon="10.7542348"><ele>210.0</ele><time>2026-04-26T06:45:44.081Z</time></trkpt><trkpt lat="45.5769977" lon="10.7542579"><ele>210.0</ele><time>2026-04-26T06:45:57.081Z</time></trkpt><trkpt lat="45.5770284" lon="10.7543849"><ele>210.0</ele><time>2026-04-26T06:45:59.081Z</time></trkpt><trkpt lat="45.5770601" lon="10.7545263"><ele>210.0</ele><time>2026-04-26T06:46:01.081Z</time></trkpt><trkpt lat="45.5770893" lon="10.7546647"><ele>210.0</ele><time>2026-04-26T06:46:03.08Z</time></trkpt><trkpt lat="45.5771324" lon="10.7547994"><ele>209.57142857142858</ele><time>2026-04-26T06:46:05.08Z</time></trkpt><trkpt lat="45.5771547" lon="10.7549178"><ele>209.14285714285714</ele><time>2026-04-26T06:46:07.081Z</time></trkpt><trkpt lat="45.5771663" lon="10.7550276"><ele>208.71428571428572</ele><time>2026-04-26T06:46:09.081Z</time></trkpt><trkpt lat="45.577175" lon="10.7551184"><ele>208.28571428571428</ele><time>2026-04-26T06:46:11.081Z</time></trkpt><trkpt lat="45.5771767" lon="10.7552199"><ele>207.85714285714286</ele><time>2026-04-26T06:46:14.081Z</time></trkpt><trkpt lat="45.5771966" lon="10.7553315"><ele>207.42857142857144</ele><time>2026-04-26T06:46:19.081Z</time></trkpt><trkpt lat="45.5772158" lon="10.7554225"><ele>207.0</ele><time>2026-04-26T06:46:23.081Z</time></trkpt><trkpt lat="45.577227" lon="10.7555168"><ele>206.83333333333334</ele><time>2026-04-26T06:46:27.081Z</time></trkpt><trkpt lat="45.5772286" lon="10.7556163"><ele>206.66666666666669</ele><time>2026-04-26T06:46:30.08Z</time></trkpt><trkpt lat="45.5772364" lon="10.7557171"><ele>206.5</ele><time>2026-04-26T06:46:33.081Z</time></trkpt><trkpt lat="45.577231" lon="10.7558202"><ele>206.33333333333334</ele><time>2026-04-26T06:46:36.081Z</time></trkpt><trkpt lat="45.5772131" lon="10.7559128"><ele>206.16666666666669</ele><time>2026-04-26T06:46:46.08Z</time></trkpt><trkpt lat="45.5771948" lon="10.7560571"><ele>206.0</ele><time>2026-04-26T06:47:32.081Z</time></trkpt><trkpt lat="45.5771389" lon="10.7561338"><ele>206.00000000000003</ele><time>2026-04-26T06:47:45.081Z</time></trkpt><trkpt lat="45.5771155" lon="10.75623"><ele>206.0</ele><time>2026-04-26T06:47:49.081Z</time></trkpt><trkpt lat="45.5770936" lon="10.7563284"><ele>206.0</ele><time>2026-04-26T06:48:21.08Z</time></trkpt><trkpt lat="45.5770559" lon="10.7564041"><ele>206.0</ele><time>2026-04-26T06:48:32.081Z</time></trkpt><trkpt lat="45.577029" lon="10.7564987"><ele>206.00000000000003</ele><time>2026-04-26T06:48:40.081Z</time></trkpt><trkpt lat="45.5769683" lon="10.7565968"><ele>206.0</ele><time>2026-04-26T06:48:42.081Z</time></trkpt><trkpt lat="45.576915" lon="10.7566822"><ele>206.0</ele><time>2026-04-26T06:48:45.081Z</time></trkpt><trkpt lat="45.5768595" lon="10.756738"><ele>206.0</ele><time>2026-04-26T06:48:47.081Z</time></trkpt><trkpt lat="45.5767111" lon="10.7568107"><ele>206.0</ele><time>2026-04-26T06:48:49.081Z</time></trkpt><trkpt lat="45.5766171" lon="10.7568461"><ele>206.0</ele><time>2026-04-26T06:48:50.081Z</time></trkpt><trkpt lat="45.5765192" lon="10.7568815"><ele>206.0</ele><time>2026-04-26T06:48:51.08Z</time></trkpt><trkpt lat="45.5764087" lon="10.756921"><ele>206.0</ele><time>2026-04-26T06:48:52.08Z</time></trkpt><trkpt lat="45.5762903" lon="10.7569553"><ele>206.0</ele><time>2026-04-26T06:48:53.081Z</time></trkpt><trkpt lat="45.5761724" lon="10.7569881"><ele>206.0</ele><time>2026-04-26T06:48:54.081Z</time></trkpt><trkpt lat="45.576044" lon="10.7570241"><ele>206.0</ele><time>2026-04-26T06:48:55.081Z</time></trkpt><trkpt lat="45.5759115" lon="10.7570632"><ele>206.5</ele><time>2026-04-26T06:48:56.08Z</time></trkpt><trkpt lat="45.5757747" lon="10.7571206"><ele>207.0</ele><time>2026-04-26T06:48:57.081Z</time></trkpt><trkpt lat="45.5756394" lon="10.7571788"><ele>207.5</ele><time>2026-04-26T06:48:58.081Z</time></trkpt><trkpt lat="45.5754964" lon="10.7572308"><ele>208.0</ele><time>2026-04-26T06:48:59.081Z</time></trkpt><trkpt lat="45.5753567" lon="10.7572824"><ele>207.75</ele><time>2026-04-26T06:49:00.081Z</time></trkpt><trkpt lat="45.5752241" lon="10.7573207"><ele>207.5</ele><time>2026-04-26T06:49:01.08Z</time></trkpt><trkpt lat="45.5750865" lon="10.757365"><ele>207.25</ele><time>2026-04-26T06:49:02.081Z</time></trkpt><trkpt lat="45.5749586" lon="10.7574058"><ele>207.0</ele><time>2026-04-26T06:49:03.08Z</time></trkpt><trkpt lat="45.5748322" lon="10.7574513"><ele>207.0</ele><time>2026-04-26T06:49:04.081Z</time></trkpt><trkpt lat="45.5747023" lon="10.7574945"><ele>207.0</ele><time>2026-04-26T06:49:05.08Z</time></trkpt><trkpt lat="45.5745736" lon="10.7575298"><ele>207.0</ele><time>2026-04-26T06:49:06.081Z</time></trkpt><trkpt lat="45.5744464" lon="10.7575685"><ele>207.0</ele><time>2026-04-26T06:49:07.08Z</time></trkpt><trkpt lat="45.5743184" lon="10.757613"><ele>206.5</ele><time>2026-04-26T06:49:08.08Z</time></trkpt><trkpt lat="45.574193" lon="10.7576524"><ele>206.0</ele><time>2026-04-26T06:49:09.08Z</time></trkpt><trkpt lat="45.5740713" lon="10.7576881"><ele>205.5</ele><time>2026-04-26T06:49:10.081Z</time></trkpt><trkpt lat="45.5739582" lon="10.7577324"><ele>205.0</ele><time>2026-04-26T06:49:11.081Z</time></trkpt><trkpt lat="45.5738502" lon="10.757768"><ele>204.8</ele><time>2026-04-26T06:49:12.081Z</time></trkpt><trkpt lat="45.573742" lon="10.7577986"><ele>204.6</ele><time>2026-04-26T06:49:13.081Z</time></trkpt><trkpt lat="45.5736368" lon="10.7578271"><ele>204.39999999999998</ele><time>2026-04-26T06:49:14.08Z</time></trkpt><trkpt lat="45.5735333" lon="10.7578597"><ele>204.2</ele><time>2026-04-26T06:49:15.08Z</time></trkpt><trkpt lat="45.5734393" lon="10.7578865"><ele>204.0</ele><time>2026-04-26T06:49:16.081Z</time></trkpt><trkpt lat="45.5733508" lon="10.7579174"><ele>204.33333333333334</ele><time>2026-04-26T06:49:17.081Z</time></trkpt><trkpt lat="45.5732648" lon="10.7579375"><ele>204.66666666666669</ele><time>2026-04-26T06:49:18.081Z</time></trkpt><trkpt lat="45.5731797" lon="10.757953"><ele>205.0</ele><time>2026-04-26T06:49:19.08Z</time></trkpt><trkpt lat="45.5730868" lon="10.757972"><ele>205.33333333333334</ele><time>2026-04-26T06:49:20.081Z</time></trkpt><trkpt lat="45.5729939" lon="10.7579958"><ele>205.66666666666669</ele><time>2026-04-26T06:49:21.08Z</time></trkpt><trkpt lat="45.5729089" lon="10.7580145"><ele>206.0</ele><time>2026-04-26T06:49:22.08Z</time></trkpt><trkpt lat="45.5728288" lon="10.7580432"><ele>206.20000000000002</ele><time>2026-04-26T06:49:23.08Z</time></trkpt><trkpt lat="45.5727537" lon="10.758067"><ele>206.4</ele><time>2026-04-26T06:49:24.08Z</time></trkpt><trkpt lat="45.5726861" lon="10.7580962"><ele>206.6</ele><time>2026-04-26T06:49:25.08Z</time></trkpt><trkpt lat="45.5725671" lon="10.7581302"><ele>206.8</ele><time>2026-04-26T06:49:27.08Z</time></trkpt><trkpt lat="45.5724512" lon="10.7581687"><ele>207.0</ele><time>2026-04-26T06:49:29.079Z</time></trkpt><trkpt lat="45.5723343" lon="10.7582126"><ele>207.00000000000003</ele><time>2026-04-26T06:49:31.079Z</time></trkpt><trkpt lat="45.5722723" lon="10.7582307"><ele>207.0</ele><time>2026-04-26T06:49:32.08Z</time></trkpt><trkpt lat="45.5722072" lon="10.7582515"><ele>207.0</ele><time>2026-04-26T06:49:33.079Z</time></trkpt><trkpt lat="45.5721303" lon="10.7582768"><ele>207.0</ele><time>2026-04-26T06:49:34.08Z</time></trkpt><trkpt lat="45.572053" lon="10.7582996"><ele>207.0</ele><time>2026-04-26T06:49:35.079Z</time></trkpt><trkpt lat="45.571981" lon="10.7583337"><ele>207.00000000000003</ele><time>2026-04-26T06:49:36.079Z</time></trkpt><trkpt lat="45.5719117" lon="10.7583962"><ele>207.0</ele><time>2026-04-26T06:49:37.079Z</time></trkpt><trkpt lat="45.5718418" lon="10.7584796"><ele>206.39999999999998</ele><time>2026-04-26T06:49:38.079Z</time></trkpt><trkpt lat="45.5717688" lon="10.7585643"><ele>205.79999999999998</ele><time>2026-04-26T06:49:39.08Z</time></trkpt><trkpt lat="45.5716855" lon="10.7586515"><ele>205.2</ele><time>2026-04-26T06:49:40.08Z</time></trkpt><trkpt lat="45.571595" lon="10.7587384"><ele>204.6</ele><time>2026-04-26T06:49:41.079Z</time></trkpt><trkpt lat="45.5715027" lon="10.7588154"><ele>204.0</ele><time>2026-04-26T06:49:42.08Z</time></trkpt><trkpt lat="45.5714127" lon="10.7588811"><ele>204.0</ele><time>2026-04-26T06:49:43.079Z</time></trkpt><trkpt lat="45.5713281" lon="10.7589489"><ele>204.0</ele><time>2026-04-26T06:49:44.079Z</time></trkpt><trkpt lat="45.5712338" lon="10.7590245"><ele>204.0</ele><time>2026-04-26T06:49:45.079Z</time></trkpt><trkpt lat="45.5711287" lon="10.7590986"><ele>204.0</ele><time>2026-04-26T06:49:46.08Z</time></trkpt><trkpt lat="45.5710164" lon="10.7591788"><ele>204.0</ele><time>2026-04-26T06:49:47.08Z</time></trkpt><trkpt lat="45.5709068" lon="10.7592669"><ele>203.75</ele><time>2026-04-26T06:49:48.08Z</time></trkpt><trkpt lat="45.5707931" lon="10.7593509"><ele>203.5</ele><time>2026-04-26T06:49:49.079Z</time></trkpt><trkpt lat="45.570673" lon="10.7594415"><ele>203.25</ele><time>2026-04-26T06:49:50.079Z</time></trkpt><trkpt lat="45.5705529" lon="10.7595322"><ele>203.0</ele><time>2026-04-26T06:49:51.079Z</time></trkpt><trkpt lat="45.5704376" lon="10.7596228"><ele>202.75</ele><time>2026-04-26T06:49:52.079Z</time></trkpt><trkpt lat="45.5703245" lon="10.7597161"><ele>202.5</ele><time>2026-04-26T06:49:53.079Z</time></trkpt><trkpt lat="45.570212" lon="10.7598155"><ele>202.25</ele><time>2026-04-26T06:49:54.08Z</time></trkpt><trkpt lat="45.5700922" lon="10.7599202"><ele>202.0</ele><time>2026-04-26T06:49:55.08Z</time></trkpt><trkpt lat="45.5699654" lon="10.760023"><ele>202.0</ele><time>2026-04-26T06:49:56.08Z</time></trkpt><trkpt lat="45.5698258" lon="10.7601298"><ele>202.0</ele><time>2026-04-26T06:49:57.079Z</time></trkpt><trkpt lat="45.5696701" lon="10.7602499"><ele>202.0</ele><time>2026-04-26T06:49:58.08Z</time></trkpt><trkpt lat="45.5695124" lon="10.7603774"><ele>202.0</ele><time>2026-04-26T06:49:59.079Z</time></trkpt><trkpt lat="45.5693483" lon="10.7605063"><ele>202.0</ele><time>2026-04-26T06:50:00.079Z</time></trkpt><trkpt lat="45.5691856" lon="10.7606282"><ele>202.0</ele><time>2026-04-26T06:50:01.08Z</time></trkpt><trkpt lat="45.5690209" lon="10.7607562"><ele>202.0</ele><time>2026-04-26T06:50:02.079Z</time></trkpt><trkpt lat="45.5688594" lon="10.7608902"><ele>202.0</ele><time>2026-04-26T06:50:03.08Z</time></trkpt><trkpt lat="45.5687039" lon="10.7610133"><ele>202.0</ele><time>2026-04-26T06:50:04.079Z</time></trkpt><trkpt lat="45.5685542" lon="10.7611414"><ele>201.33333333333331</ele><time>2026-04-26T06:50:05.08Z</time></trkpt><trkpt lat="45.568412" lon="10.7612746"><ele>200.66666666666669</ele><time>2026-04-26T06:50:06.08Z</time></trkpt><trkpt lat="45.5682592" lon="10.7613977"><ele>200.0</ele><time>2026-04-26T06:50:07.08Z</time></trkpt><trkpt lat="45.5680986" lon="10.761514"><ele>200.0</ele><time>2026-04-26T06:50:08.08Z</time></trkpt><trkpt lat="45.5679372" lon="10.7616463"><ele>200.0</ele><time>2026-04-26T06:50:09.08Z</time></trkpt><trkpt lat="45.5677804" lon="10.7617639"><ele>200.0</ele><time>2026-04-26T06:50:10.079Z</time></trkpt><trkpt lat="45.5676238" lon="10.7618846"><ele>199.33333333333334</ele><time>2026-04-26T06:50:11.08Z</time></trkpt><trkpt lat="45.5674739" lon="10.7620026"><ele>198.66666666666669</ele><time>2026-04-26T06:50:12.08Z</time></trkpt><trkpt lat="45.5673239" lon="10.7621216"><ele>198.0</ele><time>2026-04-26T06:50:13.079Z</time></trkpt><trkpt lat="45.5671766" lon="10.7622356"><ele>198.0</ele><time>2026-04-26T06:50:14.08Z</time></trkpt><trkpt lat="45.5670352" lon="10.762337"><ele>198.0</ele><time>2026-04-26T06:50:15.08Z</time></trkpt><trkpt lat="45.5668962" lon="10.7624401"><ele>198.0</ele><time>2026-04-26T06:50:16.08Z</time></trkpt><trkpt lat="45.5667677" lon="10.7625435"><ele>198.0</ele><time>2026-04-26T06:50:17.08Z</time></trkpt><trkpt lat="45.5666322" lon="10.7626379"><ele>198.0</ele><time>2026-04-26T06:50:18.08Z</time></trkpt><trkpt lat="45.5664959" lon="10.762731"><ele>198.0</ele><time>2026-04-26T06:50:19.079Z</time></trkpt><trkpt lat="45.5663621" lon="10.7628126"><ele>198.0</ele><time>2026-04-26T06:50:20.08Z</time></trkpt><trkpt lat="45.5662277" lon="10.7628872"><ele>198.5</ele><time>2026-04-26T06:50:21.079Z</time></trkpt><trkpt lat="45.5660902" lon="10.7629516"><ele>199.0</ele><time>2026-04-26T06:50:22.079Z</time></trkpt><trkpt lat="45.5659494" lon="10.7630004"><ele>199.5</ele><time>2026-04-26T06:50:23.079Z</time></trkpt><trkpt lat="45.5658007" lon="10.7630357"><ele>200.0</ele><time>2026-04-26T06:50:24.08Z</time></trkpt><trkpt lat="45.5656514" lon="10.7630676"><ele>200.0</ele><time>2026-04-26T06:50:25.079Z</time></trkpt><trkpt lat="45.5655011" lon="10.7631013"><ele>200.0</ele><time>2026-04-26T06:50:26.08Z</time></trkpt><trkpt lat="45.5653644" lon="10.7631185"><ele>200.0</ele><time>2026-04-26T06:50:27.079Z</time></trkpt><trkpt lat="45.5652284" lon="10.7631408"><ele>200.0</ele><time>2026-04-26T06:50:28.08Z</time></trkpt><trkpt lat="45.5650954" lon="10.7631673"><ele>200.5</ele><time>2026-04-26T06:50:29.08Z</time></trkpt><trkpt lat="45.5649702" lon="10.7631882"><ele>201.0</ele><time>2026-04-26T06:50:30.08Z</time></trkpt><trkpt lat="45.5648408" lon="10.7632209"><ele>201.5</ele><time>2026-04-26T06:50:31.08Z</time></trkpt><trkpt lat="45.5647063" lon="10.7632628"><ele>202.0</ele><time>2026-04-26T06:50:32.079Z</time></trkpt><trkpt lat="45.5645677" lon="10.7633065"><ele>202.0</ele><time>2026-04-26T06:50:33.08Z</time></trkpt><trkpt lat="45.5644327" lon="10.7633603"><ele>202.0</ele><time>2026-04-26T06:50:34.08Z</time></trkpt><trkpt lat="45.5643036" lon="10.7634268"><ele>202.0</ele><time>2026-04-26T06:50:35.079Z</time></trkpt><trkpt lat="45.5641749" lon="10.7634948"><ele>202.0</ele><time>2026-04-26T06:50:36.079Z</time></trkpt><trkpt lat="45.5640413" lon="10.7635665"><ele>201.5</ele><time>2026-04-26T06:50:37.08Z</time></trkpt><trkpt lat="45.5639059" lon="10.7636393"><ele>201.0</ele><time>2026-04-26T06:50:38.08Z</time></trkpt><trkpt lat="45.5637615" lon="10.7637062"><ele>200.5</ele><time>2026-04-26T06:50:39.08Z</time></trkpt><trkpt lat="45.5636198" lon="10.7637757"><ele>200.0</ele><time>2026-04-26T06:50:40.08Z</time></trkpt><trkpt lat="45.563478" lon="10.7638401"><ele>199.66666666666669</ele><time>2026-04-26T06:50:41.08Z</time></trkpt><trkpt lat="45.5633367" lon="10.7639031"><ele>199.33333333333331</ele><time>2026-04-26T06:50:42.08Z</time></trkpt><trkpt lat="45.5631954" lon="10.7639702"><ele>199.0</ele><time>2026-04-26T06:50:43.079Z</time></trkpt><trkpt lat="45.563049" lon="10.7640421"><ele>199.0</ele><time>2026-04-26T06:50:44.08Z</time></trkpt><trkpt lat="45.5629021" lon="10.7641079"><ele>199.0</ele><time>2026-04-26T06:50:45.079Z</time></trkpt><trkpt lat="45.5627575" lon="10.7641736"><ele>199.0</ele><time>2026-04-26T06:50:46.08Z</time></trkpt><trkpt lat="45.5626281" lon="10.7642377"><ele>199.0</ele><time>2026-04-26T06:50:47.08Z</time></trkpt><trkpt lat="45.5625079" lon="10.7643049"><ele>198.79999999999998</ele><time>2026-04-26T06:50:48.08Z</time></trkpt><trkpt lat="45.5624039" lon="10.7643682"><ele>198.6</ele><time>2026-04-26T06:50:49.079Z</time></trkpt><trkpt lat="45.5623066" lon="10.7644347"><ele>198.4</ele><time>2026-04-26T06:50:50.079Z</time></trkpt><trkpt lat="45.562222" lon="10.7644863"><ele>198.2</ele><time>2026-04-26T06:50:51.08Z</time></trkpt><trkpt lat="45.5621387" lon="10.7645371"><ele>198.0</ele><time>2026-04-26T06:50:52.08Z</time></trkpt><trkpt lat="45.5620591" lon="10.7645913"><ele>198.5</ele><time>2026-04-26T06:50:53.08Z</time></trkpt><trkpt lat="45.5619836" lon="10.7646452"><ele>199.0</ele><time>2026-04-26T06:50:54.08Z</time></trkpt><trkpt lat="45.5619164" lon="10.7647013"><ele>199.5</ele><time>2026-04-26T06:50:55.079Z</time></trkpt><trkpt lat="45.5618471" lon="10.7647555"><ele>200.0</ele><time>2026-04-26T06:50:56.079Z</time></trkpt><trkpt lat="45.5617754" lon="10.7648109"><ele>200.5</ele><time>2026-04-26T06:50:57.079Z</time></trkpt><trkpt lat="45.5617128" lon="10.7648738"><ele>201.0</ele><time>2026-04-26T06:50:58.079Z</time></trkpt><trkpt lat="45.561653" lon="10.7649409"><ele>201.0</ele><time>2026-04-26T06:50:59.08Z</time></trkpt><trkpt lat="45.5615474" lon="10.7650221"><ele>201.0</ele><time>2026-04-26T06:51:01.08Z</time></trkpt><trkpt lat="45.5614646" lon="10.7650054"><ele>201.0</ele><time>2026-04-26T06:51:03.08Z</time></trkpt><trkpt lat="45.561458" lon="10.7647964"><ele>201.0</ele><time>2026-04-26T06:51:05.08Z</time></trkpt><trkpt lat="45.5614564" lon="10.7646164"><ele>201.0</ele><time>2026-04-26T06:51:06.08Z</time></trkpt><trkpt lat="45.5614565" lon="10.7644219"><ele>201.0</ele><time>2026-04-26T06:51:07.08Z</time></trkpt><trkpt lat="45.5614689" lon="10.7642225"><ele>201.0</ele><time>2026-04-26T06:51:08.08Z</time></trkpt><trkpt lat="45.5614772" lon="10.7640253"><ele>201.0</ele><time>2026-04-26T06:51:09.08Z</time></trkpt><trkpt lat="45.5614901" lon="10.7638361"><ele>201.25</ele><time>2026-04-26T06:51:10.079Z</time></trkpt><trkpt lat="45.5614865" lon="10.7636372"><ele>201.5</ele><time>2026-04-26T06:51:11.079Z</time></trkpt><trkpt lat="45.5614785" lon="10.763446"><ele>201.75</ele><time>2026-04-26T06:51:12.08Z</time></trkpt><trkpt lat="45.5614713" lon="10.7632654"><ele>202.0</ele><time>2026-04-26T06:51:13.079Z</time></trkpt><trkpt lat="45.5614576" lon="10.763092"><ele>202.25</ele><time>2026-04-26T06:51:14.079Z</time></trkpt><trkpt lat="45.5614401" lon="10.7629257"><ele>202.5</ele><time>2026-04-26T06:51:15.079Z</time></trkpt><trkpt lat="45.561412" lon="10.7627589"><ele>202.75</ele><time>2026-04-26T06:51:16.079Z</time></trkpt><trkpt lat="45.5613782" lon="10.762581"><ele>203.0</ele><time>2026-04-26T06:51:17.079Z</time></trkpt><trkpt lat="45.5613431" lon="10.7624201"><ele>203.5</ele><time>2026-04-26T06:51:18.079Z</time></trkpt><trkpt lat="45.561309" lon="10.7622634"><ele>204.0</ele><time>2026-04-26T06:51:19.08Z</time></trkpt><trkpt lat="45.561283" lon="10.7621058"><ele>204.5</ele><time>2026-04-26T06:51:20.079Z</time></trkpt><trkpt lat="45.5612509" lon="10.7619464"><ele>205.0</ele><time>2026-04-26T06:51:21.079Z</time></trkpt><trkpt lat="45.5612008" lon="10.7617867"><ele>211.25</ele><time>2026-04-26T06:51:22.079Z</time></trkpt><trkpt lat="45.5611491" lon="10.7616282"><ele>217.5</ele><time>2026-04-26T06:51:23.079Z</time></trkpt><trkpt lat="45.5611024" lon="10.7614712"><ele>223.75</ele><time>2026-04-26T06:51:24.08Z</time></trkpt><trkpt lat="45.5610663" lon="10.7613119"><ele>230.0</ele><time>2026-04-26T06:51:25.08Z</time></trkpt><trkpt lat="45.5610257" lon="10.7611569"><ele>229.2</ele><time>2026-04-26T06:51:26.079Z</time></trkpt><trkpt lat="45.5609829" lon="10.761015"><ele>228.4</ele><time>2026-04-26T06:51:27.08Z</time></trkpt><trkpt lat="45.5609454" lon="10.7608683"><ele>227.60000000000002</ele><time>2026-04-26T06:51:28.079Z</time></trkpt><trkpt lat="45.560913" lon="10.7607195"><ele>226.8</ele><time>2026-04-26T06:51:29.08Z</time></trkpt><trkpt lat="45.5608905" lon="10.7605734"><ele>226.0</ele><time>2026-04-26T06:51:30.08Z</time></trkpt><trkpt lat="45.5608781" lon="10.7604361"><ele>226.0</ele><time>2026-04-26T06:51:31.08Z</time></trkpt><trkpt lat="45.5608661" lon="10.7602941"><ele>226.00000000000003</ele><time>2026-04-26T06:51:32.079Z</time></trkpt><trkpt lat="45.560844" lon="10.7601458"><ele>226.00000000000003</ele><time>2026-04-26T06:51:33.08Z</time></trkpt><trkpt lat="45.5607901" lon="10.7600072"><ele>226.0</ele><time>2026-04-26T06:51:34.079Z</time></trkpt><trkpt lat="45.5607267" lon="10.7598645"><ele>226.0</ele><time>2026-04-26T06:51:35.08Z</time></trkpt><trkpt lat="45.5606582" lon="10.7597332"><ele>226.5</ele><time>2026-04-26T06:51:36.079Z</time></trkpt><trkpt lat="45.5605896" lon="10.759598"><ele>227.0</ele><time>2026-04-26T06:51:37.079Z</time></trkpt><trkpt lat="45.5604946" lon="10.759447"><ele>227.5</ele><time>2026-04-26T06:51:38.079Z</time></trkpt><trkpt lat="45.560404" lon="10.7593007"><ele>228.0</ele><time>2026-04-26T06:51:39.079Z</time></trkpt><trkpt lat="45.5603128" lon="10.7591587"><ele>228.0</ele><time>2026-04-26T06:51:40.08Z</time></trkpt><trkpt lat="45.5602205" lon="10.7590124"><ele>228.0</ele><time>2026-04-26T06:51:41.079Z</time></trkpt><trkpt lat="45.5601243" lon="10.7588578"><ele>228.0</ele><time>2026-04-26T06:51:42.08Z</time></trkpt><trkpt lat="45.5600236" lon="10.7587114"><ele>228.0</ele><time>2026-04-26T06:51:43.08Z</time></trkpt><trkpt lat="45.5599226" lon="10.7585571"><ele>224.75</ele><time>2026-04-26T06:51:44.08Z</time></trkpt><trkpt lat="45.5598265" lon="10.7584082"><ele>221.5</ele><time>2026-04-26T06:51:45.08Z</time></trkpt><trkpt lat="45.5597258" lon="10.7582524"><ele>218.25</ele><time>2026-04-26T06:51:46.079Z</time></trkpt><trkpt lat="45.5596305" lon="10.7581109"><ele>215.0</ele><time>2026-04-26T06:51:47.08Z</time></trkpt><trkpt lat="45.559524" lon="10.7579537"><ele>217.75</ele><time>2026-04-26T06:51:48.079Z</time></trkpt><trkpt lat="45.5594299" lon="10.7577902"><ele>220.5</ele><time>2026-04-26T06:51:49.079Z</time></trkpt><trkpt lat="45.5593383" lon="10.7576345"><ele>223.25</ele><time>2026-04-26T06:51:50.08Z</time></trkpt><trkpt lat="45.559241" lon="10.757485"><ele>226.0</ele><time>2026-04-26T06:51:51.079Z</time></trkpt><trkpt lat="45.559163" lon="10.7573361"><ele>226.0</ele><time>2026-04-26T06:51:52.079Z</time></trkpt><trkpt lat="45.5590774" lon="10.757188"><ele>226.0</ele><time>2026-04-26T06:51:53.08Z</time></trkpt><trkpt lat="45.5589926" lon="10.7570269"><ele>226.0</ele><time>2026-04-26T06:51:54.08Z</time></trkpt><trkpt lat="45.5589188" lon="10.75685"><ele>226.0</ele><time>2026-04-26T06:51:55.079Z</time></trkpt><trkpt lat="45.5588576" lon="10.7566653"><ele>226.25</ele><time>2026-04-26T06:51:56.08Z</time></trkpt><trkpt lat="45.5588034" lon="10.7564826"><ele>226.5</ele><time>2026-04-26T06:51:57.08Z</time></trkpt><trkpt lat="45.558738" lon="10.7563007"><ele>226.75</ele><time>2026-04-26T06:51:58.08Z</time></trkpt><trkpt lat="45.5586752" lon="10.7561299"><ele>227.0</ele><time>2026-04-26T06:51:59.08Z</time></trkpt><trkpt lat="45.5586042" lon="10.7559678"><ele>227.0</ele><time>2026-04-26T06:52:00.08Z</time></trkpt><trkpt lat="45.5585345" lon="10.7558175"><ele>227.0</ele><time>2026-04-26T06:52:01.079Z</time></trkpt><trkpt lat="45.5584659" lon="10.7556624"><ele>227.0</ele><time>2026-04-26T06:52:02.079Z</time></trkpt><trkpt lat="45.5583987" lon="10.7554822"><ele>227.0</ele><time>2026-04-26T06:52:03.08Z</time></trkpt><trkpt lat="45.5583262" lon="10.7553063"><ele>227.5</ele><time>2026-04-26T06:52:04.079Z</time></trkpt><trkpt lat="45.5582557" lon="10.7551346"><ele>228.0</ele><time>2026-04-26T06:52:05.08Z</time></trkpt><trkpt lat="45.5581805" lon="10.7549778"><ele>228.5</ele><time>2026-04-26T06:52:06.079Z</time></trkpt><trkpt lat="45.5581151" lon="10.7548176"><ele>229.0</ele><time>2026-04-26T06:52:07.079Z</time></trkpt><trkpt lat="45.5580609" lon="10.7546509"><ele>229.0</ele><time>2026-04-26T06:52:08.08Z</time></trkpt><trkpt lat="45.5580068" lon="10.7544943"><ele>229.0</ele><time>2026-04-26T06:52:09.079Z</time></trkpt><trkpt lat="45.5579688" lon="10.7543335"><ele>229.0</ele><time>2026-04-26T06:52:10.08Z</time></trkpt><trkpt lat="45.5579588" lon="10.7541621"><ele>229.0</ele><time>2026-04-26T06:52:11.08Z</time></trkpt><trkpt lat="45.557952" lon="10.7539906"><ele>228.5</ele><time>2026-04-26T06:52:12.079Z</time></trkpt><trkpt lat="45.5579292" lon="10.7538259"><ele>228.0</ele><time>2026-04-26T06:52:13.079Z</time></trkpt><trkpt lat="45.557876" lon="10.7536586"><ele>227.5</ele><time>2026-04-26T06:52:14.08Z</time></trkpt><trkpt lat="45.5577931" lon="10.7535013"><ele>227.0</ele><time>2026-04-26T06:52:15.079Z</time></trkpt><trkpt lat="45.5576861" lon="10.7533542"><ele>227.0</ele><time>2026-04-26T06:52:16.08Z</time></trkpt><trkpt lat="45.5575577" lon="10.7532109"><ele>227.0</ele><time>2026-04-26T06:52:17.079Z</time></trkpt><trkpt lat="45.5574266" lon="10.7530534"><ele>227.0</ele><time>2026-04-26T06:52:18.079Z</time></trkpt><trkpt lat="45.5572825" lon="10.7528996"><ele>227.0</ele><time>2026-04-26T06:52:19.079Z</time></trkpt><trkpt lat="45.5571483" lon="10.7527743"><ele>227.0</ele><time>2026-04-26T06:52:20.08Z</time></trkpt><trkpt lat="45.5570145" lon="10.7526565"><ele>227.0</ele><time>2026-04-26T06:52:21.08Z</time></trkpt><trkpt lat="45.5568861" lon="10.7525409"><ele>227.5</ele><time>2026-04-26T06:52:22.08Z</time></trkpt><trkpt lat="45.5567667" lon="10.752442"><ele>228.0</ele><time>2026-04-26T06:52:23.079Z</time></trkpt><trkpt lat="45.5566434" lon="10.7523526"><ele>228.5</ele><time>2026-04-26T06:52:24.08Z</time></trkpt><trkpt lat="45.5565096" lon="10.7522925"><ele>229.0</ele><time>2026-04-26T06:52:25.079Z</time></trkpt><trkpt lat="45.556368" lon="10.7522393"><ele>229.0</ele><time>2026-04-26T06:52:26.079Z</time></trkpt><trkpt lat="45.5562331" lon="10.7522049"><ele>229.0</ele><time>2026-04-26T06:52:27.08Z</time></trkpt><trkpt lat="45.5561125" lon="10.7521702"><ele>229.0</ele><time>2026-04-26T06:52:28.079Z</time></trkpt><trkpt lat="45.5560089" lon="10.7521391"><ele>229.0</ele><time>2026-04-26T06:52:29.079Z</time></trkpt><trkpt lat="45.5559131" lon="10.7520978"><ele>229.66666666666666</ele><time>2026-04-26T06:52:30.08Z</time></trkpt><trkpt lat="45.5558276" lon="10.7520428"><ele>230.33333333333331</ele><time>2026-04-26T06:52:31.079Z</time></trkpt><trkpt lat="45.5557536" lon="10.7519892"><ele>231.0</ele><time>2026-04-26T06:52:32.079Z</time></trkpt><trkpt lat="45.5556939" lon="10.7519434"><ele>231.66666666666669</ele><time>2026-04-26T06:52:33.08Z</time></trkpt><trkpt lat="45.5556001" lon="10.7518619"><ele>232.33333333333334</ele><time>2026-04-26T06:52:35.079Z</time></trkpt><trkpt lat="45.5555596" lon="10.7517621"><ele>233.0</ele><time>2026-04-26T06:52:37.08Z</time></trkpt><trkpt lat="45.5555643" lon="10.7516563"><ele>233.8</ele><time>2026-04-26T06:52:39.08Z</time></trkpt><trkpt lat="45.5556279" lon="10.7516057"><ele>234.60000000000002</ele><time>2026-04-26T06:52:42.08Z</time></trkpt><trkpt lat="45.5557129" lon="10.7516438"><ele>235.39999999999998</ele><time>2026-04-26T06:52:45.08Z</time></trkpt><trkpt lat="45.5558138" lon="10.7516695"><ele>236.2</ele><time>2026-04-26T06:52:47.079Z</time></trkpt><trkpt lat="45.5559395" lon="10.7516631"><ele>237.0</ele><time>2026-04-26T06:52:49.08Z</time></trkpt><trkpt lat="45.5560073" lon="10.7516501"><ele>236.99999999999997</ele><time>2026-04-26T06:52:50.079Z</time></trkpt><trkpt lat="45.5560722" lon="10.7516275"><ele>237.0</ele><time>2026-04-26T06:52:51.08Z</time></trkpt><trkpt lat="45.5561434" lon="10.7515812"><ele>236.99999999999997</ele><time>2026-04-26T06:52:52.08Z</time></trkpt><trkpt lat="45.5562087" lon="10.7515374"><ele>236.99999999999997</ele><time>2026-04-26T06:52:53.079Z</time></trkpt><trkpt lat="45.5562653" lon="10.7514965"><ele>237.0</ele><time>2026-04-26T06:52:54.079Z</time></trkpt><trkpt lat="45.5563301" lon="10.7514651"><ele>236.99999999999997</ele><time>2026-04-26T06:52:55.079Z</time></trkpt><trkpt lat="45.5564123" lon="10.751447"><ele>236.99999999999997</ele><time>2026-04-26T06:52:56.08Z</time></trkpt><trkpt lat="45.5565007" lon="10.7514298"><ele>236.6</ele><time>2026-04-26T06:52:57.08Z</time></trkpt><trkpt lat="45.5565992" lon="10.7514159"><ele>236.2</ele><time>2026-04-26T06:52:58.079Z</time></trkpt><trkpt lat="45.5566979" lon="10.7514025"><ele>235.8</ele><time>2026-04-26T06:52:59.08Z</time></trkpt><trkpt lat="45.5568106" lon="10.7513877"><ele>235.4</ele><time>2026-04-26T06:53:00.08Z</time></trkpt><trkpt lat="45.5569168" lon="10.7513679"><ele>235.0</ele><time>2026-04-26T06:53:01.079Z</time></trkpt><trkpt lat="45.5570146" lon="10.7513478"><ele>234.49999999999997</ele><time>2026-04-26T06:53:02.08Z</time></trkpt><trkpt lat="45.5571008" lon="10.7513277"><ele>234.0</ele><time>2026-04-26T06:53:03.08Z</time></trkpt><trkpt lat="45.5571856" lon="10.7513127"><ele>233.5</ele><time>2026-04-26T06:53:04.08Z</time></trkpt><trkpt lat="45.557268" lon="10.7512923"><ele>233.0</ele><time>2026-04-26T06:53:05.079Z</time></trkpt><trkpt lat="45.5573527" lon="10.7512766"><ele>232.49999999999997</ele><time>2026-04-26T06:53:06.079Z</time></trkpt><trkpt lat="45.5574364" lon="10.751263"><ele>232.0</ele><time>2026-04-26T06:53:07.08Z</time></trkpt><trkpt lat="45.557521" lon="10.7512563"><ele>232.0</ele><time>2026-04-26T06:53:08.08Z</time></trkpt><trkpt lat="45.5576169" lon="10.7512591"><ele>232.0</ele><time>2026-04-26T06:53:09.08Z</time></trkpt><trkpt lat="45.5577138" lon="10.7512744"><ele>232.0</ele><time>2026-04-26T06:53:10.08Z</time></trkpt><trkpt lat="45.5578083" lon="10.7513013"><ele>232.0</ele><time>2026-04-26T06:53:11.08Z</time></trkpt><trkpt lat="45.5579044" lon="10.7513328"><ele>232.0</ele><time>2026-04-26T06:53:12.079Z</time></trkpt><trkpt lat="45.5580039" lon="10.7513715"><ele>233.2</ele><time>2026-04-26T06:53:13.079Z</time></trkpt><trkpt lat="45.5581015" lon="10.7514069"><ele>234.39999999999998</ele><time>2026-04-26T06:53:14.079Z</time></trkpt><trkpt lat="45.5581969" lon="10.7514562"><ele>235.60000000000002</ele><time>2026-04-26T06:53:15.08Z</time></trkpt><trkpt lat="45.5582876" lon="10.7515036"><ele>236.8</ele><time>2026-04-26T06:53:16.079Z</time></trkpt><trkpt lat="45.558376" lon="10.7515596"><ele>238.0</ele><time>2026-04-26T06:53:17.078Z</time></trkpt><trkpt lat="45.5584547" lon="10.7516212"><ele>237.99999999999997</ele><time>2026-04-26T06:53:18.078Z</time></trkpt><trkpt lat="45.5585223" lon="10.7516928"><ele>238.0</ele><time>2026-04-26T06:53:19.079Z</time></trkpt><trkpt lat="45.5585932" lon="10.7517619"><ele>238.0</ele><time>2026-04-26T06:53:20.078Z</time></trkpt><trkpt lat="45.5586628" lon="10.7518288"><ele>238.0</ele><time>2026-04-26T06:53:21.079Z</time></trkpt><trkpt lat="45.5587351" lon="10.7518957"><ele>237.99999999999997</ele><time>2026-04-26T06:53:22.078Z</time></trkpt><trkpt lat="45.5588143" lon="10.7519658"><ele>238.0</ele><time>2026-04-26T06:53:23.078Z</time></trkpt><trkpt lat="45.5588939" lon="10.7520369"><ele>237.49999999999997</ele><time>2026-04-26T06:53:24.078Z</time></trkpt><trkpt lat="45.5589703" lon="10.7521093"><ele>237.0</ele><time>2026-04-26T06:53:25.078Z</time></trkpt><trkpt lat="45.559046" lon="10.7521696"><ele>236.5</ele><time>2026-04-26T06:53:26.078Z</time></trkpt><trkpt lat="45.5591095" lon="10.7522215"><ele>236.0</ele><time>2026-04-26T06:53:27.078Z</time></trkpt><trkpt lat="45.5591692" lon="10.7522713"><ele>235.49999999999997</ele><time>2026-04-26T06:53:28.078Z</time></trkpt><trkpt lat="45.5592267" lon="10.7523285"><ele>235.0</ele><time>2026-04-26T06:53:29.079Z</time></trkpt><trkpt lat="45.5592841" lon="10.7523922"><ele>234.99999999999997</ele><time>2026-04-26T06:53:30.079Z</time></trkpt><trkpt lat="45.5593447" lon="10.7524651"><ele>235.0</ele><time>2026-04-26T06:53:31.079Z</time></trkpt><trkpt lat="45.5594143" lon="10.7525393"><ele>235.0</ele><time>2026-04-26T06:53:32.078Z</time></trkpt><trkpt lat="45.5594849" lon="10.7526093"><ele>235.0</ele><time>2026-04-26T06:53:33.079Z</time></trkpt><trkpt lat="45.5595594" lon="10.7526705"><ele>234.99999999999997</ele><time>2026-04-26T06:53:34.078Z</time></trkpt><trkpt lat="45.5596335" lon="10.7527251"><ele>235.0</ele><time>2026-04-26T06:53:35.079Z</time></trkpt><trkpt lat="45.5597121" lon="10.7527774"><ele>234.33333333333331</ele><time>2026-04-26T06:53:36.078Z</time></trkpt><trkpt lat="45.5597941" lon="10.7528245"><ele>233.66666666666666</ele><time>2026-04-26T06:53:37.078Z</time></trkpt><trkpt lat="45.5598623" lon="10.7528666"><ele>233.0</ele><time>2026-04-26T06:53:38.079Z</time></trkpt><trkpt lat="45.5599367" lon="10.7529112"><ele>232.33333333333331</ele><time>2026-04-26T06:53:39.078Z</time></trkpt><trkpt lat="45.5600094" lon="10.7529517"><ele>231.66666666666666</ele><time>2026-04-26T06:53:40.079Z</time></trkpt><trkpt lat="45.5600954" lon="10.7529889"><ele>231.0</ele><time>2026-04-26T06:53:41.079Z</time></trkpt><trkpt lat="45.5601902" lon="10.7530157"><ele>231.0</ele><time>2026-04-26T06:53:42.078Z</time></trkpt><trkpt lat="45.5602889" lon="10.7530397"><ele>231.00000000000003</ele><time>2026-04-26T06:53:43.078Z</time></trkpt><trkpt lat="45.5603881" lon="10.7530551"><ele>231.00000000000003</ele><time>2026-04-26T06:53:44.078Z</time></trkpt><trkpt lat="45.5604823" lon="10.7530607"><ele>231.0</ele><time>2026-04-26T06:53:45.079Z</time></trkpt><trkpt lat="45.5605781" lon="10.7530629"><ele>231.0</ele><time>2026-04-26T06:53:46.078Z</time></trkpt><trkpt lat="45.5606682" lon="10.7530636"><ele>231.83333333333334</ele><time>2026-04-26T06:53:47.079Z</time></trkpt><trkpt lat="45.5607543" lon="10.75306"><ele>232.66666666666669</ele><time>2026-04-26T06:53:48.078Z</time></trkpt><trkpt lat="45.5608379" lon="10.7530675"><ele>233.5</ele><time>2026-04-26T06:53:49.079Z</time></trkpt><trkpt lat="45.560928" lon="10.7530877"><ele>234.33333333333334</ele><time>2026-04-26T06:53:50.079Z</time></trkpt><trkpt lat="45.5610075" lon="10.753133"><ele>235.16666666666669</ele><time>2026-04-26T06:53:51.079Z</time></trkpt><trkpt lat="45.5610805" lon="10.7531871"><ele>236.0</ele><time>2026-04-26T06:53:52.078Z</time></trkpt><trkpt lat="45.5611521" lon="10.7532267"><ele>234.83333333333334</ele><time>2026-04-26T06:53:53.079Z</time></trkpt><trkpt lat="45.5612158" lon="10.7532526"><ele>233.66666666666669</ele><time>2026-04-26T06:53:54.078Z</time></trkpt><trkpt lat="45.5612821" lon="10.7532914"><ele>232.5</ele><time>2026-04-26T06:53:55.079Z</time></trkpt><trkpt lat="45.5613471" lon="10.7533525"><ele>231.33333333333331</ele><time>2026-04-26T06:53:56.079Z</time></trkpt><trkpt lat="45.5614173" lon="10.753429"><ele>230.16666666666666</ele><time>2026-04-26T06:53:57.079Z</time></trkpt><trkpt lat="45.5614919" lon="10.7535033"><ele>229.0</ele><time>2026-04-26T06:53:58.079Z</time></trkpt><trkpt lat="45.5615801" lon="10.7535669"><ele>228.99999999999997</ele><time>2026-04-26T06:53:59.079Z</time></trkpt><trkpt lat="45.5616679" lon="10.7536138"><ele>229.0</ele><time>2026-04-26T06:54:00.078Z</time></trkpt><trkpt lat="45.5617535" lon="10.7536361"><ele>229.0</ele><time>2026-04-26T06:54:01.079Z</time></trkpt><trkpt lat="45.5618282" lon="10.753648"><ele>229.0</ele><time>2026-04-26T06:54:02.079Z</time></trkpt><trkpt lat="45.5619008" lon="10.7536585"><ele>228.99999999999997</ele><time>2026-04-26T06:54:03.079Z</time></trkpt><trkpt lat="45.5619779" lon="10.753663"><ele>229.0</ele><time>2026-04-26T06:54:04.079Z</time></trkpt><trkpt lat="45.5620577" lon="10.7536652"><ele>229.66666666666666</ele><time>2026-04-26T06:54:05.079Z</time></trkpt><trkpt lat="45.5621319" lon="10.7536848"><ele>230.33333333333331</ele><time>2026-04-26T06:54:06.078Z</time></trkpt><trkpt lat="45.5622127" lon="10.7536726"><ele>231.0</ele><time>2026-04-26T06:54:07.079Z</time></trkpt><trkpt lat="45.5622901" lon="10.7536509"><ele>231.66666666666669</ele><time>2026-04-26T06:54:08.078Z</time></trkpt><trkpt lat="45.5623642" lon="10.7536372"><ele>232.33333333333334</ele><time>2026-04-26T06:54:09.078Z</time></trkpt><trkpt lat="45.562441" lon="10.753635"><ele>233.0</ele><time>2026-04-26T06:54:10.078Z</time></trkpt><trkpt lat="45.5625292" lon="10.7536521"><ele>233.0</ele><time>2026-04-26T06:54:11.078Z</time></trkpt><trkpt lat="45.5626062" lon="10.7536837"><ele>233.0</ele><time>2026-04-26T06:54:12.078Z</time></trkpt><trkpt lat="45.5626763" lon="10.7537149"><ele>233.0</ele><time>2026-04-26T06:54:13.079Z</time></trkpt><trkpt lat="45.5627504" lon="10.7537441"><ele>233.0</ele><time>2026-04-26T06:54:14.079Z</time></trkpt><trkpt lat="45.5628223" lon="10.7537636"><ele>233.0</ele><time>2026-04-26T06:54:15.079Z</time></trkpt><trkpt lat="45.5628902" lon="10.7537752"><ele>233.0</ele><time>2026-04-26T06:54:16.079Z</time></trkpt><trkpt lat="45.5629552" lon="10.7537754"><ele>233.0</ele><time>2026-04-26T06:54:17.079Z</time></trkpt><trkpt lat="45.5630818" lon="10.7537287"><ele>233.66666666666669</ele><time>2026-04-26T06:54:19.079Z</time></trkpt><trkpt lat="45.563153" lon="10.7536736"><ele>234.33333333333334</ele><time>2026-04-26T06:54:20.079Z</time></trkpt><trkpt lat="45.563217" lon="10.7536124"><ele>235.0</ele><time>2026-04-26T06:54:21.079Z</time></trkpt><trkpt lat="45.5632684" lon="10.7535436"><ele>235.66666666666669</ele><time>2026-04-26T06:54:22.078Z</time></trkpt><trkpt lat="45.563316" lon="10.7534821"><ele>236.33333333333334</ele><time>2026-04-26T06:54:23.078Z</time></trkpt><trkpt lat="45.5633927" lon="10.753361"><ele>237.0</ele><time>2026-04-26T06:54:25.079Z</time></trkpt><trkpt lat="45.5634454" lon="10.7532437"><ele>239.6</ele><time>2026-04-26T06:54:27.078Z</time></trkpt><trkpt lat="45.5635168" lon="10.7531577"><ele>242.2</ele><time>2026-04-26T06:54:29.079Z</time></trkpt><trkpt lat="45.563565" lon="10.7530409"><ele>244.8</ele><time>2026-04-26T06:54:31.078Z</time></trkpt><trkpt lat="45.5635762" lon="10.7529011"><ele>247.4</ele><time>2026-04-26T06:54:33.079Z</time></trkpt><trkpt lat="45.5635708" lon="10.7527601"><ele>250.0</ele><time>2026-04-26T06:54:35.079Z</time></trkpt><trkpt lat="45.5636198" lon="10.7527"><ele>250.0</ele><time>2026-04-26T06:54:38.079Z</time></trkpt><trkpt lat="45.5636765" lon="10.7527965"><ele>250.0</ele><time>2026-04-26T06:54:40.079Z</time></trkpt><trkpt lat="45.5637455" lon="10.7529849"><ele>250.0</ele><time>2026-04-26T06:54:42.079Z</time></trkpt><trkpt lat="45.5637852" lon="10.7530862"><ele>250.0</ele><time>2026-04-26T06:54:43.078Z</time></trkpt><trkpt lat="45.5638634" lon="10.7531568"><ele>250.0</ele><time>2026-04-26T06:54:45.079Z</time></trkpt><trkpt lat="45.563919" lon="10.7530793"><ele>251.5</ele><time>2026-04-26T06:54:47.079Z</time></trkpt><trkpt lat="45.5638853" lon="10.7528086"><ele>253.0</ele><time>2026-04-26T06:54:49.078Z</time></trkpt><trkpt lat="45.563865" lon="10.7526264"><ele>254.5</ele><time>2026-04-26T06:54:50.079Z</time></trkpt><trkpt lat="45.5638464" lon="10.7524586"><ele>256.0</ele><time>2026-04-26T06:54:51.079Z</time></trkpt><trkpt lat="45.5638418" lon="10.7522992"><ele>257.0</ele><time>2026-04-26T06:54:52.079Z</time></trkpt><trkpt lat="45.5638538" lon="10.7521549"><ele>258.0</ele><time>2026-04-26T06:54:53.079Z</time></trkpt><trkpt lat="45.5638854" lon="10.752022"><ele>259.0</ele><time>2026-04-26T06:54:54.079Z</time></trkpt><trkpt lat="45.5639235" lon="10.7519113"><ele>260.0</ele><time>2026-04-26T06:54:55.079Z</time></trkpt><trkpt lat="45.5639731" lon="10.7518119"><ele>261.0</ele><time>2026-04-26T06:54:56.079Z</time></trkpt><trkpt lat="45.5640495" lon="10.7517453"><ele>263.6666666666667</ele><time>2026-04-26T06:54:57.078Z</time></trkpt><trkpt lat="45.5642034" lon="10.7516649"><ele>266.33333333333337</ele><time>2026-04-26T06:54:58.079Z</time></trkpt><trkpt lat="45.5643909" lon="10.751585"><ele>269.0</ele><time>2026-04-26T06:54:59.079Z</time></trkpt><trkpt lat="45.5645579" lon="10.7514856"><ele>270.75</ele><time>2026-04-26T06:55:00.079Z</time></trkpt><trkpt lat="45.5646941" lon="10.7513871"><ele>272.5</ele><time>2026-04-26T06:55:01.079Z</time></trkpt><trkpt lat="45.5647885" lon="10.7512778"><ele>274.25</ele><time>2026-04-26T06:55:02.079Z</time></trkpt><trkpt lat="45.564856" lon="10.7511596"><ele>276.0</ele><time>2026-04-26T06:55:03.079Z</time></trkpt><trkpt lat="45.5649161" lon="10.7510411"><ele>275.8</ele><time>2026-04-26T06:55:04.078Z</time></trkpt><trkpt lat="45.5649807" lon="10.7509376"><ele>275.6</ele><time>2026-04-26T06:55:05.079Z</time></trkpt><trkpt lat="45.5650589" lon="10.7508537"><ele>275.4</ele><time>2026-04-26T06:55:06.078Z</time></trkpt><trkpt lat="45.5651607" lon="10.7508095"><ele>275.2</ele><time>2026-04-26T06:55:07.079Z</time></trkpt><trkpt lat="45.5652623" lon="10.7507718"><ele>275.0</ele><time>2026-04-26T06:55:08.078Z</time></trkpt><trkpt lat="45.5653606" lon="10.7507308"><ele>274.6666666666667</ele><time>2026-04-26T06:55:09.078Z</time></trkpt><trkpt lat="45.5654474" lon="10.7506823"><ele>274.33333333333337</ele><time>2026-04-26T06:55:10.079Z</time></trkpt><trkpt lat="45.5655242" lon="10.7506246"><ele>274.0</ele><time>2026-04-26T06:55:11.079Z</time></trkpt><trkpt lat="45.565586" lon="10.7505646"><ele>273.6666666666667</ele><time>2026-04-26T06:55:12.079Z</time></trkpt><trkpt lat="45.5656388" lon="10.7505132"><ele>273.3333333333333</ele><time>2026-04-26T06:55:13.079Z</time></trkpt><trkpt lat="45.5657336" lon="10.7504032"><ele>273.0</ele><time>2026-04-26T06:55:15.079Z</time></trkpt><trkpt lat="45.5657826" lon="10.7503451"><ele>273.0</ele><time>2026-04-26T06:55:16.078Z</time></trkpt><trkpt lat="45.5658325" lon="10.7502794"><ele>273.0</ele><time>2026-04-26T06:55:17.078Z</time></trkpt><trkpt lat="45.5658902" lon="10.7502185"><ele>273.0</ele><time>2026-04-26T06:55:18.078Z</time></trkpt><trkpt lat="45.5659575" lon="10.7501551"><ele>273.0</ele><time>2026-04-26T06:55:19.079Z</time></trkpt><trkpt lat="45.5660337" lon="10.7500901"><ele>273.0</ele><time>2026-04-26T06:55:20.078Z</time></trkpt><trkpt lat="45.5661075" lon="10.7500225"><ele>273.0</ele><time>2026-04-26T06:55:21.079Z</time></trkpt><trkpt lat="45.5661715" lon="10.7499544"><ele>272.8333333333333</ele><time>2026-04-26T06:55:22.078Z</time></trkpt><trkpt lat="45.5662301" lon="10.7498825"><ele>272.6666666666667</ele><time>2026-04-26T06:55:23.078Z</time></trkpt><trkpt lat="45.5662921" lon="10.7498146"><ele>272.5</ele><time>2026-04-26T06:55:24.079Z</time></trkpt><trkpt lat="45.5663549" lon="10.7497494"><ele>272.33333333333337</ele><time>2026-04-26T06:55:25.079Z</time></trkpt><trkpt lat="45.5664203" lon="10.7496912"><ele>272.1666666666667</ele><time>2026-04-26T06:55:26.078Z</time></trkpt><trkpt lat="45.5664864" lon="10.7496311"><ele>272.0</ele><time>2026-04-26T06:55:27.079Z</time></trkpt><trkpt lat="45.5665436" lon="10.7495729"><ele>272.0</ele><time>2026-04-26T06:55:28.078Z</time></trkpt><trkpt lat="45.5665929" lon="10.7495138"><ele>272.0</ele><time>2026-04-26T06:55:29.079Z</time></trkpt><trkpt lat="45.5666723" lon="10.7494034"><ele>272.0</ele><time>2026-04-26T06:55:31.079Z</time></trkpt><trkpt lat="45.5667261" lon="10.7492967"><ele>272.0</ele><time>2026-04-26T06:55:33.079Z</time></trkpt><trkpt lat="45.5667487" lon="10.7491812"><ele>272.0</ele><time>2026-04-26T06:55:35.078Z</time></trkpt><trkpt lat="45.5667375" lon="10.7490784"><ele>272.0</ele><time>2026-04-26T06:55:37.079Z</time></trkpt><trkpt lat="45.5666977" lon="10.7489633"><ele>271.1666666666667</ele><time>2026-04-26T06:55:39.079Z</time></trkpt><trkpt lat="45.5666511" lon="10.748848"><ele>270.33333333333337</ele><time>2026-04-26T06:55:41.079Z</time></trkpt><trkpt lat="45.566606" lon="10.748744"><ele>269.5</ele><time>2026-04-26T06:55:43.078Z</time></trkpt><trkpt lat="45.5665822" lon="10.7486486"><ele>268.6666666666667</ele><time>2026-04-26T06:55:45.078Z</time></trkpt><trkpt lat="45.5665378" lon="10.7485322"><ele>267.8333333333333</ele><time>2026-04-26T06:55:47.079Z</time></trkpt><trkpt lat="45.5664911" lon="10.7484057"><ele>267.0</ele><time>2026-04-26T06:55:49.078Z</time></trkpt><trkpt lat="45.5664394" lon="10.7482922"><ele>264.4</ele><time>2026-04-26T06:55:51.079Z</time></trkpt><trkpt lat="45.5663812" lon="10.748146"><ele>261.79999999999995</ele><time>2026-04-26T06:55:53.079Z</time></trkpt><trkpt lat="45.5663373" lon="10.7480059"><ele>259.2</ele><time>2026-04-26T06:55:55.079Z</time></trkpt><trkpt lat="45.566326" lon="10.7478874"><ele>256.59999999999997</ele><time>2026-04-26T06:55:57.078Z</time></trkpt><trkpt lat="45.5663679" lon="10.7477861"><ele>254.0</ele><time>2026-04-26T06:56:00.079Z</time></trkpt><trkpt lat="45.5664357" lon="10.7477169"><ele>253.00000000000003</ele><time>2026-04-26T06:56:04.079Z</time></trkpt><trkpt lat="45.566497" lon="10.7476784"><ele>252.0</ele><time>2026-04-26T06:56:07.079Z</time></trkpt><trkpt lat="45.5665551" lon="10.7476155"><ele>251.0</ele><time>2026-04-26T06:56:11.079Z</time></trkpt><trkpt lat="45.5666096" lon="10.7475574"><ele>250.0</ele><time>2026-04-26T06:56:18.078Z</time></trkpt><trkpt lat="45.5666922" lon="10.7474856"><ele>249.00000000000003</ele><time>2026-04-26T06:56:34.078Z</time></trkpt><trkpt lat="45.5668022" lon="10.747434"><ele>248.0</ele><time>2026-04-26T06:56:36.079Z</time></trkpt><trkpt lat="45.5669099" lon="10.7474088"><ele>248.00000000000003</ele><time>2026-04-26T06:56:38.078Z</time></trkpt><trkpt lat="45.5670231" lon="10.7474253"><ele>248.0</ele><time>2026-04-26T06:56:40.079Z</time></trkpt><trkpt lat="45.5670955" lon="10.7474403"><ele>248.0</ele><time>2026-04-26T06:56:41.079Z</time></trkpt><trkpt lat="45.5671738" lon="10.7474401"><ele>248.0</ele><time>2026-04-26T06:56:42.078Z</time></trkpt><trkpt lat="45.5672543" lon="10.7474234"><ele>248.00000000000003</ele><time>2026-04-26T06:56:43.079Z</time></trkpt><trkpt lat="45.5673348" lon="10.7473979"><ele>248.0</ele><time>2026-04-26T06:56:44.079Z</time></trkpt><trkpt lat="45.5674139" lon="10.7473714"><ele>246.00000000000003</ele><time>2026-04-26T06:56:45.079Z</time></trkpt><trkpt lat="45.5674872" lon="10.7473527"><ele>244.0</ele><time>2026-04-26T06:56:46.079Z</time></trkpt><trkpt lat="45.5675569" lon="10.7473441"><ele>242.0</ele><time>2026-04-26T06:56:47.079Z</time></trkpt><trkpt lat="45.567635" lon="10.7473371"><ele>240.0</ele><time>2026-04-26T06:56:48.078Z</time></trkpt><trkpt lat="45.5677176" lon="10.7473273"><ele>238.00000000000003</ele><time>2026-04-26T06:56:49.078Z</time></trkpt><trkpt lat="45.5677946" lon="10.7473204"><ele>236.0</ele><time>2026-04-26T06:56:50.079Z</time></trkpt><trkpt lat="45.5678752" lon="10.7473226"><ele>235.16666666666669</ele><time>2026-04-26T06:56:51.079Z</time></trkpt><trkpt lat="45.5679582" lon="10.7473259"><ele>234.33333333333334</ele><time>2026-04-26T06:56:52.079Z</time></trkpt><trkpt lat="45.5680425" lon="10.7473266"><ele>233.5</ele><time>2026-04-26T06:56:53.079Z</time></trkpt><trkpt lat="45.5681173" lon="10.7473231"><ele>232.66666666666669</ele><time>2026-04-26T06:56:54.078Z</time></trkpt><trkpt lat="45.5681896" lon="10.7473282"><ele>231.83333333333334</ele><time>2026-04-26T06:56:55.078Z</time></trkpt><trkpt lat="45.5682577" lon="10.7473315"><ele>231.0</ele><time>2026-04-26T06:56:56.078Z</time></trkpt><trkpt lat="45.5683325" lon="10.7473411"><ele>231.0</ele><time>2026-04-26T06:56:57.079Z</time></trkpt><trkpt lat="45.5684117" lon="10.7473603"><ele>231.0</ele><time>2026-04-26T06:56:58.078Z</time></trkpt><trkpt lat="45.5684897" lon="10.7474003"><ele>231.0</ele><time>2026-04-26T06:56:59.079Z</time></trkpt><trkpt lat="45.5685649" lon="10.7474539"><ele>231.0</ele><time>2026-04-26T06:57:00.079Z</time></trkpt><trkpt lat="45.5686302" lon="10.7474916"><ele>231.0</ele><time>2026-04-26T06:57:01.077Z</time></trkpt><trkpt lat="45.5687468" lon="10.7475608"><ele>231.0</ele><time>2026-04-26T06:57:03.078Z</time></trkpt><trkpt lat="45.5688157" lon="10.7476237"><ele>229.75</ele><time>2026-04-26T06:57:04.078Z</time></trkpt><trkpt lat="45.568894" lon="10.747709"><ele>228.5</ele><time>2026-04-26T06:57:05.077Z</time></trkpt><trkpt lat="45.5689868" lon="10.7478154"><ele>227.25</ele><time>2026-04-26T06:57:06.077Z</time></trkpt><trkpt lat="45.5690801" lon="10.7479333"><ele>226.0</ele><time>2026-04-26T06:57:07.077Z</time></trkpt><trkpt lat="45.5691668" lon="10.7480459"><ele>226.0</ele><time>2026-04-26T06:57:08.077Z</time></trkpt><trkpt lat="45.5692429" lon="10.7481407"><ele>226.00000000000003</ele><time>2026-04-26T06:57:09.077Z</time></trkpt><trkpt lat="45.5693064" lon="10.7482145"><ele>226.00000000000003</ele><time>2026-04-26T06:57:10.077Z</time></trkpt><trkpt lat="45.5693823" lon="10.7483404"><ele>226.0</ele><time>2026-04-26T06:57:12.077Z</time></trkpt><trkpt lat="45.5694019" lon="10.7484491"><ele>226.0</ele><time>2026-04-26T06:57:13.078Z</time></trkpt><trkpt lat="45.569404" lon="10.7485803"><ele>226.0</ele><time>2026-04-26T06:57:14.077Z</time></trkpt><trkpt lat="45.569404" lon="10.7487559"><ele>226.0</ele><time>2026-04-26T06:57:15.078Z</time></trkpt><trkpt lat="45.5694078" lon="10.7489499"><ele>226.0</ele><time>2026-04-26T06:57:16.077Z</time></trkpt><trkpt lat="45.5694273" lon="10.7491503"><ele>226.0</ele><time>2026-04-26T06:57:17.078Z</time></trkpt><trkpt lat="45.5694556" lon="10.7493646"><ele>226.25</ele><time>2026-04-26T06:57:18.078Z</time></trkpt><trkpt lat="45.5694882" lon="10.7495708"><ele>226.5</ele><time>2026-04-26T06:57:19.078Z</time></trkpt><trkpt lat="45.5695321" lon="10.7497704"><ele>226.75</ele><time>2026-04-26T06:57:20.077Z</time></trkpt><trkpt lat="45.5695848" lon="10.7499672"><ele>227.0</ele><time>2026-04-26T06:57:21.077Z</time></trkpt><trkpt lat="45.5696354" lon="10.7501387"><ele>227.00000000000003</ele><time>2026-04-26T06:57:22.078Z</time></trkpt><trkpt lat="45.5696764" lon="10.7502585"><ele>227.0</ele><time>2026-04-26T06:57:23.078Z</time></trkpt><trkpt lat="45.5697028" lon="10.7503528"><ele>227.0</ele><time>2026-04-26T06:57:24.078Z</time></trkpt><trkpt lat="45.5697213" lon="10.7504536"><ele>227.0</ele><time>2026-04-26T06:57:26.077Z</time></trkpt><trkpt lat="45.5697729" lon="10.7503971"><ele>227.00000000000003</ele><time>2026-04-26T06:57:30.077Z</time></trkpt><trkpt lat="45.5698313" lon="10.7502667"><ele>227.0</ele><time>2026-04-26T06:57:32.078Z</time></trkpt><trkpt lat="45.5698807" lon="10.7501588"><ele>227.0</ele><time>2026-04-26T06:57:33.078Z</time></trkpt><trkpt lat="45.569937" lon="10.7500418"><ele>227.0</ele><time>2026-04-26T06:57:34.078Z</time></trkpt><trkpt lat="45.5699924" lon="10.7499248"><ele>227.0</ele><time>2026-04-26T06:57:35.078Z</time></trkpt><trkpt lat="45.5700485" lon="10.749803"><ele>227.0</ele><time>2026-04-26T06:57:36.077Z</time></trkpt><trkpt lat="45.5700845" lon="10.7496704"><ele>227.0</ele><time>2026-04-26T06:57:37.078Z</time></trkpt><trkpt lat="45.5701087" lon="10.7495211"><ele>226.39999999999998</ele><time>2026-04-26T06:57:38.077Z</time></trkpt><trkpt lat="45.5701247" lon="10.7493688"><ele>225.79999999999998</ele><time>2026-04-26T06:57:39.078Z</time></trkpt><trkpt lat="45.5701471" lon="10.7492302"><ele>225.2</ele><time>2026-04-26T06:57:40.077Z</time></trkpt><trkpt lat="45.5701667" lon="10.7490783"><ele>224.6</ele><time>2026-04-26T06:57:41.078Z</time></trkpt><trkpt lat="45.5701892" lon="10.748914"><ele>224.0</ele><time>2026-04-26T06:57:42.078Z</time></trkpt><trkpt lat="45.5702259" lon="10.7487437"><ele>224.0</ele><time>2026-04-26T06:57:43.077Z</time></trkpt><trkpt lat="45.5702739" lon="10.748581"><ele>224.0</ele><time>2026-04-26T06:57:44.077Z</time></trkpt><trkpt lat="45.57033" lon="10.7484418"><ele>224.0</ele><time>2026-04-26T06:57:45.078Z</time></trkpt><trkpt lat="45.5704" lon="10.7483206"><ele>224.0</ele><time>2026-04-26T06:57:46.078Z</time></trkpt><trkpt lat="45.5704862" lon="10.748205"><ele>220.6</ele><time>2026-04-26T06:57:47.077Z</time></trkpt><trkpt lat="45.5705722" lon="10.7481166"><ele>217.2</ele><time>2026-04-26T06:57:48.078Z</time></trkpt><trkpt lat="45.5706492" lon="10.7480407"><ele>213.79999999999998</ele><time>2026-04-26T06:57:49.078Z</time></trkpt><trkpt lat="45.5707197" lon="10.7479953"><ele>210.39999999999998</ele><time>2026-04-26T06:57:50.077Z</time></trkpt><trkpt lat="45.5707862" lon="10.7479684"><ele>207.0</ele><time>2026-04-26T06:57:51.078Z</time></trkpt><trkpt lat="45.570908" lon="10.7480027"><ele>207.0</ele><time>2026-04-26T06:57:53.078Z</time></trkpt><trkpt lat="45.5709645" lon="10.7480591"><ele>207.0</ele><time>2026-04-26T06:57:54.078Z</time></trkpt><trkpt lat="45.5710186" lon="10.748111"><ele>207.0</ele><time>2026-04-26T06:57:55.078Z</time></trkpt><trkpt lat="45.5710976" lon="10.7481499"><ele>207.0</ele><time>2026-04-26T06:57:57.078Z</time></trkpt><trkpt lat="45.5711419" lon="10.7480628"><ele>207.0</ele><time>2026-04-26T06:57:59.078Z</time></trkpt><trkpt lat="45.571165" lon="10.7479707"><ele>207.0</ele><time>2026-04-26T06:58:00.077Z</time></trkpt><trkpt lat="45.5711839" lon="10.7478427"><ele>207.5</ele><time>2026-04-26T06:58:01.078Z</time></trkpt><trkpt lat="45.571207" lon="10.7476808"><ele>208.0</ele><time>2026-04-26T06:58:02.077Z</time></trkpt><trkpt lat="45.5712358" lon="10.7474531"><ele>208.5</ele><time>2026-04-26T06:58:03.077Z</time></trkpt><trkpt lat="45.5712749" lon="10.7472203"><ele>209.0</ele><time>2026-04-26T06:58:04.078Z</time></trkpt><trkpt lat="45.5713209" lon="10.7469866"><ele>209.0</ele><time>2026-04-26T06:58:05.078Z</time></trkpt><trkpt lat="45.5713678" lon="10.7467613"><ele>209.0</ele><time>2026-04-26T06:58:06.078Z</time></trkpt><trkpt lat="45.571403" lon="10.7465427"><ele>209.0</ele><time>2026-04-26T06:58:07.077Z</time></trkpt><trkpt lat="45.5714325" lon="10.7463299"><ele>209.0</ele><time>2026-04-26T06:58:08.077Z</time></trkpt><trkpt lat="45.5714575" lon="10.7461243"><ele>209.0</ele><time>2026-04-26T06:58:09.078Z</time></trkpt><trkpt lat="45.5714745" lon="10.7459233"><ele>209.0</ele><time>2026-04-26T06:58:10.078Z</time></trkpt><trkpt lat="45.5715001" lon="10.7457287"><ele>209.0</ele><time>2026-04-26T06:58:11.077Z</time></trkpt><trkpt lat="45.5715356" lon="10.7455487"><ele>209.2</ele><time>2026-04-26T06:58:12.078Z</time></trkpt><trkpt lat="45.571581" lon="10.7453792"><ele>209.39999999999998</ele><time>2026-04-26T06:58:13.078Z</time></trkpt><trkpt lat="45.5716182" lon="10.7452273"><ele>209.6</ele><time>2026-04-26T06:58:14.078Z</time></trkpt><trkpt lat="45.571656" lon="10.7450917"><ele>209.8</ele><time>2026-04-26T06:58:15.077Z</time></trkpt><trkpt lat="45.5716963" lon="10.7449693"><ele>210.0</ele><time>2026-04-26T06:58:16.078Z</time></trkpt><trkpt lat="45.571739" lon="10.7448635"><ele>210.0</ele><time>2026-04-26T06:58:17.078Z</time></trkpt><trkpt lat="45.5717798" lon="10.7447584"><ele>210.0</ele><time>2026-04-26T06:58:18.077Z</time></trkpt><trkpt lat="45.5718156" lon="10.7446722"><ele>210.0</ele><time>2026-04-26T06:58:19.077Z</time></trkpt><trkpt lat="45.5718522" lon="10.7445331"><ele>210.0</ele><time>2026-04-26T06:58:21.077Z</time></trkpt><trkpt lat="45.5718434" lon="10.7444273"><ele>210.0</ele><time>2026-04-26T06:58:23.077Z</time></trkpt><trkpt lat="45.5718186" lon="10.7443347"><ele>210.0</ele><time>2026-04-26T06:58:25.078Z</time></trkpt><trkpt lat="45.571791" lon="10.7442531"><ele>210.4</ele><time>2026-04-26T06:58:29.078Z</time></trkpt><trkpt lat="45.5717985" lon="10.7441403"><ele>210.8</ele><time>2026-04-26T06:58:33.078Z</time></trkpt><trkpt lat="45.5718209" lon="10.7440319"><ele>211.2</ele><time>2026-04-26T06:58:35.077Z</time></trkpt><trkpt lat="45.5718519" lon="10.7438856"><ele>211.6</ele><time>2026-04-26T06:58:37.077Z</time></trkpt><trkpt lat="45.5718867" lon="10.7437578"><ele>212.0</ele><time>2026-04-26T06:58:39.077Z</time></trkpt><trkpt lat="45.5719066" lon="10.7436132"><ele>212.0</ele><time>2026-04-26T06:58:41.077Z</time></trkpt><trkpt lat="45.5719165" lon="10.7434713"><ele>212.0</ele><time>2026-04-26T06:58:43.077Z</time></trkpt><trkpt lat="45.5719304" lon="10.7433507"><ele>212.0</ele><time>2026-04-26T06:58:45.078Z</time></trkpt><trkpt lat="45.5719563" lon="10.7432261"><ele>212.0</ele><time>2026-04-26T06:58:47.078Z</time></trkpt><trkpt lat="45.5719851" lon="10.7431057"><ele>212.0</ele><time>2026-04-26T06:58:49.077Z</time></trkpt><trkpt lat="45.5720105" lon="10.7429904"><ele>213.00000000000003</ele><time>2026-04-26T06:58:51.078Z</time></trkpt><trkpt lat="45.57204" lon="10.742889"><ele>214.0</ele><time>2026-04-26T06:58:53.077Z</time></trkpt><trkpt lat="45.572071" lon="10.742771"><ele>215.0</ele><time>2026-04-26T06:58:55.078Z</time></trkpt><trkpt lat="45.5721065" lon="10.7426622"><ele>216.0</ele><time>2026-04-26T06:58:57.078Z</time></trkpt><trkpt lat="45.5721415" lon="10.7425529"><ele>217.00000000000003</ele><time>2026-04-26T06:59:00.078Z</time></trkpt><trkpt lat="45.5722164" lon="10.7425378"><ele>218.0</ele><time>2026-04-26T06:59:03.077Z</time></trkpt><trkpt lat="45.5722896" lon="10.7425831"><ele>218.0</ele><time>2026-04-26T06:59:05.077Z</time></trkpt><trkpt lat="45.5723752" lon="10.7426524"><ele>218.0</ele><time>2026-04-26T06:59:07.077Z</time></trkpt><trkpt lat="45.5724745" lon="10.7427407"><ele>218.0</ele><time>2026-04-26T06:59:09.077Z</time></trkpt><trkpt lat="45.5725696" lon="10.7428404"><ele>218.0</ele><time>2026-04-26T06:59:11.077Z</time></trkpt><trkpt lat="45.5726257" lon="10.742893"><ele>218.0</ele><time>2026-04-26T06:59:12.078Z</time></trkpt><trkpt lat="45.572681" lon="10.7429426"><ele>218.00000000000003</ele><time>2026-04-26T06:59:13.078Z</time></trkpt><trkpt lat="45.5727432" lon="10.7429956"><ele>218.0</ele><time>2026-04-26T06:59:14.078Z</time></trkpt><trkpt lat="45.5728086" lon="10.743057"><ele>218.0</ele><time>2026-04-26T06:59:15.078Z</time></trkpt><trkpt lat="45.5728607" lon="10.7431117"><ele>218.0</ele><time>2026-04-26T06:59:16.078Z</time></trkpt><trkpt lat="45.5729212" lon="10.7431726"><ele>218.00000000000003</ele><time>2026-04-26T06:59:17.078Z</time></trkpt><trkpt lat="45.5729853" lon="10.7432425"><ele>218.0</ele><time>2026-04-26T06:59:18.077Z</time></trkpt><trkpt lat="45.5730478" lon="10.7433189"><ele>218.57142857142858</ele><time>2026-04-26T06:59:19.078Z</time></trkpt><trkpt lat="45.5731011" lon="10.743389"><ele>219.14285714285717</ele><time>2026-04-26T06:59:20.078Z</time></trkpt><trkpt lat="45.5731539" lon="10.743455"><ele>219.71428571428572</ele><time>2026-04-26T06:59:21.078Z</time></trkpt><trkpt lat="45.5732126" lon="10.7435166"><ele>220.28571428571428</ele><time>2026-04-26T06:59:22.077Z</time></trkpt><trkpt lat="45.5732696" lon="10.7435726"><ele>220.85714285714286</ele><time>2026-04-26T06:59:23.078Z</time></trkpt><trkpt lat="45.5733288" lon="10.7436292"><ele>221.42857142857142</ele><time>2026-04-26T06:59:24.078Z</time></trkpt><trkpt lat="45.5733825" lon="10.7437016"><ele>222.0</ele><time>2026-04-26T06:59:25.078Z</time></trkpt><trkpt lat="45.5734355" lon="10.7437837"><ele>222.0</ele><time>2026-04-26T06:59:26.077Z</time></trkpt><trkpt lat="45.5734885" lon="10.7438625"><ele>222.0</ele><time>2026-04-26T06:59:27.077Z</time></trkpt><trkpt lat="45.5735342" lon="10.7439267"><ele>222.0</ele><time>2026-04-26T06:59:28.078Z</time></trkpt><trkpt lat="45.5736314" lon="10.744035"><ele>222.0</ele><time>2026-04-26T06:59:30.078Z</time></trkpt><trkpt lat="45.5737347" lon="10.7440923"><ele>222.0</ele><time>2026-04-26T06:59:32.077Z</time></trkpt><trkpt lat="45.5738089" lon="10.7441272"><ele>222.16666666666666</ele><time>2026-04-26T06:59:34.078Z</time></trkpt><trkpt lat="45.5738757" lon="10.7441684"><ele>222.33333333333331</ele><time>2026-04-26T06:59:37.077Z</time></trkpt><trkpt lat="45.5739241" lon="10.7442335"><ele>222.5</ele><time>2026-04-26T06:59:39.078Z</time></trkpt><trkpt lat="45.573998" lon="10.744366"><ele>222.66666666666666</ele><time>2026-04-26T06:59:41.077Z</time></trkpt><trkpt lat="45.57404" lon="10.7444374"><ele>222.83333333333331</ele><time>2026-04-26T06:59:42.077Z</time></trkpt><trkpt lat="45.5740862" lon="10.744523"><ele>223.0</ele><time>2026-04-26T06:59:43.078Z</time></trkpt><trkpt lat="45.5741501" lon="10.744609"><ele>223.0</ele><time>2026-04-26T06:59:44.077Z</time></trkpt><trkpt lat="45.5742244" lon="10.7446959"><ele>223.0</ele><time>2026-04-26T06:59:45.077Z</time></trkpt><trkpt lat="45.5743001" lon="10.7447814"><ele>223.0</ele><time>2026-04-26T06:59:46.077Z</time></trkpt><trkpt lat="45.5743737" lon="10.7448723"><ele>223.0</ele><time>2026-04-26T06:59:47.078Z</time></trkpt><trkpt lat="45.5744514" lon="10.7449618"><ele>223.0</ele><time>2026-04-26T06:59:48.077Z</time></trkpt><trkpt lat="45.5745262" lon="10.745054"><ele>223.16666666666666</ele><time>2026-04-26T06:59:49.078Z</time></trkpt><trkpt lat="45.5745925" lon="10.7451376"><ele>223.33333333333331</ele><time>2026-04-26T06:59:50.077Z</time></trkpt><trkpt lat="45.5746622" lon="10.745215"><ele>223.5</ele><time>2026-04-26T06:59:51.077Z</time></trkpt><trkpt lat="45.5747276" lon="10.7452844"><ele>223.66666666666669</ele><time>2026-04-26T06:59:52.077Z</time></trkpt><trkpt lat="45.5747869" lon="10.7453443"><ele>223.83333333333334</ele><time>2026-04-26T06:59:53.077Z</time></trkpt><trkpt lat="45.5748367" lon="10.745402"><ele>224.0</ele><time>2026-04-26T06:59:54.078Z</time></trkpt><trkpt lat="45.574902" lon="10.7455272"><ele>224.0</ele><time>2026-04-26T06:59:56.077Z</time></trkpt><trkpt lat="45.5749534" lon="10.7457066"><ele>223.99999999999997</ele><time>2026-04-26T06:59:58.078Z</time></trkpt><trkpt lat="45.5749907" lon="10.7457966"><ele>223.99999999999997</ele><time>2026-04-26T06:59:59.078Z</time></trkpt><trkpt lat="45.57505" lon="10.7458787"><ele>224.0</ele><time>2026-04-26T07:00:00.077Z</time></trkpt><trkpt lat="45.5751333" lon="10.7459449"><ele>224.0</ele><time>2026-04-26T07:00:01.077Z</time></trkpt><trkpt lat="45.5752245" lon="10.7460058"><ele>225.79999999999998</ele><time>2026-04-26T07:00:02.078Z</time></trkpt><trkpt lat="45.5753192" lon="10.746065"><ele>227.59999999999997</ele><time>2026-04-26T07:00:03.077Z</time></trkpt><trkpt lat="45.5754065" lon="10.7461174"><ele>229.4</ele><time>2026-04-26T07:00:04.077Z</time></trkpt><trkpt lat="45.5754928" lon="10.7461637"><ele>231.2</ele><time>2026-04-26T07:00:05.077Z</time></trkpt><trkpt lat="45.5755748" lon="10.7461965"><ele>233.0</ele><time>2026-04-26T07:00:06.078Z</time></trkpt><trkpt lat="45.5756553" lon="10.7462331"><ele>233.00000000000003</ele><time>2026-04-26T07:00:07.077Z</time></trkpt><trkpt lat="45.575733" lon="10.7462599"><ele>233.0</ele><time>2026-04-26T07:00:08.078Z</time></trkpt><trkpt lat="45.575811" lon="10.7462736"><ele>233.0</ele><time>2026-04-26T07:00:09.078Z</time></trkpt><trkpt lat="45.5758965" lon="10.7462884"><ele>233.0</ele><time>2026-04-26T07:00:10.077Z</time></trkpt><trkpt lat="45.5759807" lon="10.7462864"><ele>233.00000000000003</ele><time>2026-04-26T07:00:11.078Z</time></trkpt><trkpt lat="45.576064" lon="10.7462798"><ele>233.0</ele><time>2026-04-26T07:00:12.078Z</time></trkpt><trkpt lat="45.5761356" lon="10.7462652"><ele>233.4</ele><time>2026-04-26T07:00:13.077Z</time></trkpt><trkpt lat="45.576257" lon="10.7462783"><ele>233.8</ele><time>2026-04-26T07:00:15.078Z</time></trkpt><trkpt lat="45.5763234" lon="10.7462725"><ele>234.2</ele><time>2026-04-26T07:00:16.077Z</time></trkpt><trkpt lat="45.5763942" lon="10.7462746"><ele>234.6</ele><time>2026-04-26T07:00:17.077Z</time></trkpt><trkpt lat="45.5765131" lon="10.74628"><ele>235.0</ele><time>2026-04-26T07:00:19.078Z</time></trkpt><trkpt lat="45.5766142" lon="10.7463421"><ele>234.99999999999997</ele><time>2026-04-26T07:00:21.077Z</time></trkpt><trkpt lat="45.5766516" lon="10.7464462"><ele>235.0</ele><time>2026-04-26T07:00:23.077Z</time></trkpt><trkpt lat="45.5766674" lon="10.746575"><ele>235.0</ele><time>2026-04-26T07:00:25.077Z</time></trkpt><trkpt lat="45.5766904" lon="10.7466679"><ele>235.0</ele><time>2026-04-26T07:00:26.077Z</time></trkpt><trkpt lat="45.5767323" lon="10.7467734"><ele>234.99999999999997</ele><time>2026-04-26T07:00:27.078Z</time></trkpt><trkpt lat="45.5767903" lon="10.7468498"><ele>235.0</ele><time>2026-04-26T07:00:28.078Z</time></trkpt><trkpt lat="45.576863" lon="10.7468943"><ele>234.8</ele><time>2026-04-26T07:00:29.077Z</time></trkpt><trkpt lat="45.57695" lon="10.7469119"><ele>234.6</ele><time>2026-04-26T07:00:30.076Z</time></trkpt><trkpt lat="45.5770571" lon="10.7468793"><ele>234.39999999999998</ele><time>2026-04-26T07:00:31.077Z</time></trkpt><trkpt lat="45.577166" lon="10.7468295"><ele>234.2</ele><time>2026-04-26T07:00:32.077Z</time></trkpt><trkpt lat="45.5772664" lon="10.746783"><ele>234.0</ele><time>2026-04-26T07:00:33.076Z</time></trkpt><trkpt lat="45.5773589" lon="10.7467294"><ele>234.0</ele><time>2026-04-26T07:00:34.077Z</time></trkpt><trkpt lat="45.5774508" lon="10.7466567"><ele>233.99999999999997</ele><time>2026-04-26T07:00:35.077Z</time></trkpt><trkpt lat="45.5775418" lon="10.7465864"><ele>233.99999999999997</ele><time>2026-04-26T07:00:36.077Z</time></trkpt><trkpt lat="45.5776239" lon="10.746508"><ele>234.0</ele><time>2026-04-26T07:00:37.077Z</time></trkpt><trkpt lat="45.5776948" lon="10.7464223"><ele>234.0</ele><time>2026-04-26T07:00:38.076Z</time></trkpt><trkpt lat="45.5777663" lon="10.7463398"><ele>234.0</ele><time>2026-04-26T07:00:39.077Z</time></trkpt><trkpt lat="45.5778412" lon="10.7462614"><ele>233.99999999999997</ele><time>2026-04-26T07:00:40.076Z</time></trkpt><trkpt lat="45.577915" lon="10.7461808"><ele>233.99999999999997</ele><time>2026-04-26T07:00:41.077Z</time></trkpt><trkpt lat="45.5779911" lon="10.746105"><ele>234.0</ele><time>2026-04-26T07:00:42.077Z</time></trkpt><trkpt lat="45.5780655" lon="10.7460271"><ele>234.0</ele><time>2026-04-26T07:00:43.077Z</time></trkpt><trkpt lat="45.5781446" lon="10.745957"><ele>232.6</ele><time>2026-04-26T07:00:44.076Z</time></trkpt><trkpt lat="45.5782324" lon="10.7458859"><ele>231.2</ele><time>2026-04-26T07:00:45.077Z</time></trkpt><trkpt lat="45.5783214" lon="10.7458171"><ele>229.79999999999998</ele><time>2026-04-26T07:00:46.076Z</time></trkpt><trkpt lat="45.5784117" lon="10.7457519"><ele>228.39999999999998</ele><time>2026-04-26T07:00:47.076Z</time></trkpt><trkpt lat="45.5785046" lon="10.7456847"><ele>227.0</ele><time>2026-04-26T07:00:48.077Z</time></trkpt><trkpt lat="45.5785988" lon="10.7456121"><ele>227.0</ele><time>2026-04-26T07:00:49.076Z</time></trkpt><trkpt lat="45.5786844" lon="10.7455399"><ele>227.0</ele><time>2026-04-26T07:00:50.076Z</time></trkpt><trkpt lat="45.5787573" lon="10.7454624"><ele>227.0</ele><time>2026-04-26T07:00:51.076Z</time></trkpt><trkpt lat="45.5788296" lon="10.7453781"><ele>227.0</ele><time>2026-04-26T07:00:52.077Z</time></trkpt><trkpt lat="45.5789011" lon="10.745277"><ele>227.0</ele><time>2026-04-26T07:00:53.076Z</time></trkpt><trkpt lat="45.5789722" lon="10.7451613"><ele>225.6</ele><time>2026-04-26T07:00:54.077Z</time></trkpt><trkpt lat="45.5790418" lon="10.7450381"><ele>224.2</ele><time>2026-04-26T07:00:55.076Z</time></trkpt><trkpt lat="45.5791025" lon="10.7449186"><ele>222.8</ele><time>2026-04-26T07:00:56.076Z</time></trkpt><trkpt lat="45.5791633" lon="10.7448134"><ele>221.4</ele><time>2026-04-26T07:00:57.077Z</time></trkpt><trkpt lat="45.5792232" lon="10.7447197"><ele>220.0</ele><time>2026-04-26T07:00:58.076Z</time></trkpt><trkpt lat="45.5792903" lon="10.744653"><ele>219.99999999999997</ele><time>2026-04-26T07:00:59.076Z</time></trkpt><trkpt lat="45.57936" lon="10.7446033"><ele>220.0</ele><time>2026-04-26T07:01:00.077Z</time></trkpt><trkpt lat="45.5794391" lon="10.7446095"><ele>220.0</ele><time>2026-04-26T07:01:01.077Z</time></trkpt><trkpt lat="45.5795221" lon="10.7446517"><ele>220.0</ele><time>2026-04-26T07:01:02.077Z</time></trkpt><trkpt lat="45.5796054" lon="10.7447134"><ele>219.99999999999997</ele><time>2026-04-26T07:01:03.077Z</time></trkpt><trkpt lat="45.5796992" lon="10.7447937"><ele>220.0</ele><time>2026-04-26T07:01:04.077Z</time></trkpt><trkpt lat="45.5797972" lon="10.7448856"><ele>219.25</ele><time>2026-04-26T07:01:05.077Z</time></trkpt><trkpt lat="45.5798954" lon="10.7449751"><ele>218.5</ele><time>2026-04-26T07:01:06.077Z</time></trkpt><trkpt lat="45.5799937" lon="10.7450672"><ele>217.75</ele><time>2026-04-26T07:01:07.077Z</time></trkpt><trkpt lat="45.5800912" lon="10.7451627"><ele>217.0</ele><time>2026-04-26T07:01:08.076Z</time></trkpt><trkpt lat="45.5802001" lon="10.7452536"><ele>218.75</ele><time>2026-04-26T07:01:09.077Z</time></trkpt><trkpt lat="45.5803114" lon="10.745337"><ele>220.5</ele><time>2026-04-26T07:01:10.076Z</time></trkpt><trkpt lat="45.5804294" lon="10.7453943"><ele>222.25</ele><time>2026-04-26T07:01:11.076Z</time></trkpt><trkpt lat="45.5805524" lon="10.7454242"><ele>224.0</ele><time>2026-04-26T07:01:12.077Z</time></trkpt><trkpt lat="45.5806674" lon="10.7454495"><ele>224.0</ele><time>2026-04-26T07:01:13.077Z</time></trkpt><trkpt lat="45.5807797" lon="10.7454793"><ele>223.99999999999997</ele><time>2026-04-26T07:01:14.076Z</time></trkpt><trkpt lat="45.5808885" lon="10.7455214"><ele>223.99999999999997</ele><time>2026-04-26T07:01:15.076Z</time></trkpt><trkpt lat="45.5809932" lon="10.7455679"><ele>224.0</ele><time>2026-04-26T07:01:16.077Z</time></trkpt><trkpt lat="45.5810928" lon="10.7456076"><ele>224.0</ele><time>2026-04-26T07:01:17.077Z</time></trkpt><trkpt lat="45.5811835" lon="10.7456218"><ele>224.0</ele><time>2026-04-26T07:01:18.077Z</time></trkpt><trkpt lat="45.581257" lon="10.7456111"><ele>223.99999999999997</ele><time>2026-04-26T07:01:19.076Z</time></trkpt><trkpt lat="45.5813346" lon="10.7455545"><ele>223.99999999999997</ele><time>2026-04-26T07:01:20.076Z</time></trkpt><trkpt lat="45.5813894" lon="10.7454488"><ele>224.0</ele><time>2026-04-26T07:01:21.077Z</time></trkpt><trkpt lat="45.581424" lon="10.7453112"><ele>224.0</ele><time>2026-04-26T07:01:22.076Z</time></trkpt><trkpt lat="45.5814443" lon="10.7451561"><ele>223.6</ele><time>2026-04-26T07:01:23.077Z</time></trkpt><trkpt lat="45.581464" lon="10.7450072"><ele>223.2</ele><time>2026-04-26T07:01:24.076Z</time></trkpt><trkpt lat="45.5814915" lon="10.7448749"><ele>222.79999999999998</ele><time>2026-04-26T07:01:25.076Z</time></trkpt><trkpt lat="45.5815379" lon="10.7447661"><ele>222.39999999999998</ele><time>2026-04-26T07:01:26.077Z</time></trkpt><trkpt lat="45.5816045" lon="10.7446966"><ele>222.0</ele><time>2026-04-26T07:01:27.077Z</time></trkpt><trkpt lat="45.5816841" lon="10.7446591"><ele>222.0</ele><time>2026-04-26T07:01:28.077Z</time></trkpt><trkpt lat="45.5817898" lon="10.7446934"><ele>222.0</ele><time>2026-04-26T07:01:29.077Z</time></trkpt><trkpt lat="45.5819085" lon="10.744741"><ele>222.0</ele><time>2026-04-26T07:01:30.076Z</time></trkpt><trkpt lat="45.5820323" lon="10.7447838"><ele>222.0</ele><time>2026-04-26T07:01:31.077Z</time></trkpt><trkpt lat="45.5821566" lon="10.7448114"><ele>223.0</ele><time>2026-04-26T07:01:32.076Z</time></trkpt><trkpt lat="45.5822832" lon="10.7448167"><ele>224.0</ele><time>2026-04-26T07:01:33.076Z</time></trkpt><trkpt lat="45.5824161" lon="10.7448016"><ele>225.0</ele><time>2026-04-26T07:01:34.077Z</time></trkpt><trkpt lat="45.5825516" lon="10.7447735"><ele>226.0</ele><time>2026-04-26T07:01:35.077Z</time></trkpt><trkpt lat="45.5826868" lon="10.744735"><ele>226.0</ele><time>2026-04-26T07:01:36.077Z</time></trkpt><trkpt lat="45.5828151" lon="10.7446779"><ele>226.0</ele><time>2026-04-26T07:01:37.077Z</time></trkpt><trkpt lat="45.5829248" lon="10.7446366"><ele>226.0</ele><time>2026-04-26T07:01:38.076Z</time></trkpt><trkpt lat="45.583027" lon="10.7446024"><ele>226.0</ele><time>2026-04-26T07:01:39.077Z</time></trkpt><trkpt lat="45.583128" lon="10.7445719"><ele>226.4</ele><time>2026-04-26T07:01:40.076Z</time></trkpt><trkpt lat="45.583235" lon="10.7445824"><ele>226.8</ele><time>2026-04-26T07:01:41.077Z</time></trkpt><trkpt lat="45.5833397" lon="10.7446301"><ele>227.20000000000002</ele><time>2026-04-26T07:01:42.076Z</time></trkpt><trkpt lat="45.5834403" lon="10.7446969"><ele>227.60000000000002</ele><time>2026-04-26T07:01:43.077Z</time></trkpt><trkpt lat="45.5835378" lon="10.7447602"><ele>228.0</ele><time>2026-04-26T07:01:44.077Z</time></trkpt><trkpt lat="45.5836375" lon="10.7448013"><ele>228.8</ele><time>2026-04-26T07:01:45.077Z</time></trkpt><trkpt lat="45.5837379" lon="10.7448077"><ele>229.60000000000002</ele><time>2026-04-26T07:01:46.076Z</time></trkpt><trkpt lat="45.5838461" lon="10.7447939"><ele>230.39999999999998</ele><time>2026-04-26T07:01:47.077Z</time></trkpt><trkpt lat="45.5839593" lon="10.7447637"><ele>231.2</ele><time>2026-04-26T07:01:48.077Z</time></trkpt><trkpt lat="45.584075" lon="10.7447226"><ele>232.0</ele><time>2026-04-26T07:01:49.077Z</time></trkpt><trkpt lat="45.5841959" lon="10.7446703"><ele>232.0</ele><time>2026-04-26T07:01:50.077Z</time></trkpt><trkpt lat="45.5843129" lon="10.744603"><ele>232.0</ele><time>2026-04-26T07:01:51.077Z</time></trkpt><trkpt lat="45.5844319" lon="10.7445116"><ele>232.0</ele><time>2026-04-26T07:01:52.077Z</time></trkpt><trkpt lat="45.5845514" lon="10.7444249"><ele>232.0</ele><time>2026-04-26T07:01:53.077Z</time></trkpt><trkpt lat="45.5846711" lon="10.7443457"><ele>232.75</ele><time>2026-04-26T07:01:54.077Z</time></trkpt><trkpt lat="45.5847921" lon="10.744269"><ele>233.5</ele><time>2026-04-26T07:01:55.076Z</time></trkpt><trkpt lat="45.5849167" lon="10.7441877"><ele>234.25</ele><time>2026-04-26T07:01:56.077Z</time></trkpt><trkpt lat="45.5850416" lon="10.7441081"><ele>235.0</ele><time>2026-04-26T07:01:57.077Z</time></trkpt><trkpt lat="45.5851482" lon="10.7440244"><ele>235.0</ele><time>2026-04-26T07:01:58.077Z</time></trkpt><trkpt lat="45.5852407" lon="10.7439393"><ele>235.0</ele><time>2026-04-26T07:01:59.077Z</time></trkpt><trkpt lat="45.5853116" lon="10.7438464"><ele>235.0</ele><time>2026-04-26T07:02:00.077Z</time></trkpt><trkpt lat="45.5853726" lon="10.743763"><ele>235.0</ele><time>2026-04-26T07:02:01.076Z</time></trkpt><trkpt lat="45.5854255" lon="10.7436835"><ele>235.0</ele><time>2026-04-26T07:02:02.077Z</time></trkpt><trkpt lat="45.5854911" lon="10.7435732"><ele>235.66666666666666</ele><time>2026-04-26T07:02:04.076Z</time></trkpt><trkpt lat="45.5855439" lon="10.7434931"><ele>236.33333333333331</ele><time>2026-04-26T07:02:07.077Z</time></trkpt><trkpt lat="45.5855971" lon="10.7434442"><ele>237.0</ele><time>2026-04-26T07:02:09.076Z</time></trkpt><trkpt lat="45.5856672" lon="10.7433861"><ele>237.66666666666669</ele><time>2026-04-26T07:02:11.077Z</time></trkpt><trkpt lat="45.5857377" lon="10.7433393"><ele>238.33333333333334</ele><time>2026-04-26T07:02:14.077Z</time></trkpt><trkpt lat="45.5858034" lon="10.7432446"><ele>239.0</ele><time>2026-04-26T07:02:18.076Z</time></trkpt><trkpt lat="45.5858493" lon="10.7430719"><ele>239.0</ele><time>2026-04-26T07:02:20.076Z</time></trkpt><trkpt lat="45.5858638" lon="10.742944"><ele>238.99999999999997</ele><time>2026-04-26T07:02:21.077Z</time></trkpt><trkpt lat="45.585877" lon="10.7428126"><ele>238.99999999999997</ele><time>2026-04-26T07:02:22.077Z</time></trkpt><trkpt lat="45.5858832" lon="10.742659"><ele>239.0</ele><time>2026-04-26T07:02:23.077Z</time></trkpt><trkpt lat="45.5858899" lon="10.742516"><ele>239.0</ele><time>2026-04-26T07:02:24.076Z</time></trkpt><trkpt lat="45.585893" lon="10.7423842"><ele>238.28571428571433</ele><time>2026-04-26T07:02:25.077Z</time></trkpt><trkpt lat="45.58589" lon="10.7422653"><ele>237.57142857142858</ele><time>2026-04-26T07:02:26.077Z</time></trkpt><trkpt lat="45.5858833" lon="10.7421603"><ele>236.8571428571429</ele><time>2026-04-26T07:02:27.076Z</time></trkpt><trkpt lat="45.5858723" lon="10.7420657"><ele>236.14285714285717</ele><time>2026-04-26T07:02:28.077Z</time></trkpt><trkpt lat="45.5858645" lon="10.7419702"><ele>235.42857142857144</ele><time>2026-04-26T07:02:29.077Z</time></trkpt><trkpt lat="45.5858623" lon="10.7418706"><ele>234.71428571428572</ele><time>2026-04-26T07:02:30.077Z</time></trkpt><trkpt lat="45.5858613" lon="10.7417707"><ele>234.0</ele><time>2026-04-26T07:02:31.076Z</time></trkpt><trkpt lat="45.5858524" lon="10.7416562"><ele>232.79999999999998</ele><time>2026-04-26T07:02:32.076Z</time></trkpt><trkpt lat="45.5858503" lon="10.7415344"><ele>231.59999999999997</ele><time>2026-04-26T07:02:33.077Z</time></trkpt><trkpt lat="45.5858517" lon="10.7414027"><ele>230.4</ele><time>2026-04-26T07:02:34.077Z</time></trkpt><trkpt lat="45.5858494" lon="10.7412618"><ele>229.2</ele><time>2026-04-26T07:02:35.076Z</time></trkpt><trkpt lat="45.5858404" lon="10.7411104"><ele>228.0</ele><time>2026-04-26T07:02:36.076Z</time></trkpt><trkpt lat="45.5858263" lon="10.7409631"><ele>227.60000000000002</ele><time>2026-04-26T07:02:37.076Z</time></trkpt><trkpt lat="45.5858149" lon="10.7408217"><ele>227.20000000000002</ele><time>2026-04-26T07:02:38.077Z</time></trkpt><trkpt lat="45.5858083" lon="10.740686"><ele>226.8</ele><time>2026-04-26T07:02:39.077Z</time></trkpt><trkpt lat="45.5857993" lon="10.7405494"><ele>226.4</ele><time>2026-04-26T07:02:40.077Z</time></trkpt><trkpt lat="45.585787" lon="10.7404271"><ele>226.0</ele><time>2026-04-26T07:02:41.077Z</time></trkpt><trkpt lat="45.5857732" lon="10.740316"><ele>226.16666666666666</ele><time>2026-04-26T07:02:42.077Z</time></trkpt><trkpt lat="45.5857704" lon="10.7401945"><ele>226.33333333333331</ele><time>2026-04-26T07:02:43.077Z</time></trkpt><trkpt lat="45.5857833" lon="10.7400737"><ele>226.5</ele><time>2026-04-26T07:02:44.077Z</time></trkpt><trkpt lat="45.5857951" lon="10.7399484"><ele>226.66666666666669</ele><time>2026-04-26T07:02:45.077Z</time></trkpt><trkpt lat="45.5857903" lon="10.7398275"><ele>226.83333333333334</ele><time>2026-04-26T07:02:46.076Z</time></trkpt><trkpt lat="45.5857708" lon="10.7397121"><ele>227.0</ele><time>2026-04-26T07:02:47.076Z</time></trkpt><trkpt lat="45.5857517" lon="10.7395898"><ele>227.0</ele><time>2026-04-26T07:02:48.076Z</time></trkpt><trkpt lat="45.585735" lon="10.739463"><ele>227.0</ele><time>2026-04-26T07:02:49.077Z</time></trkpt><trkpt lat="45.5857219" lon="10.739334"><ele>227.0</ele><time>2026-04-26T07:02:50.077Z</time></trkpt><trkpt lat="45.5857059" lon="10.7392026"><ele>227.0</ele><time>2026-04-26T07:02:51.076Z</time></trkpt><trkpt lat="45.5856783" lon="10.7390717"><ele>227.0</ele><time>2026-04-26T07:02:52.076Z</time></trkpt><trkpt lat="45.5856383" lon="10.7389413"><ele>227.0</ele><time>2026-04-26T07:02:53.077Z</time></trkpt><trkpt lat="45.5855931" lon="10.7388107"><ele>227.0</ele><time>2026-04-26T07:02:54.077Z</time></trkpt><trkpt lat="45.5855472" lon="10.7386748"><ele>227.0</ele><time>2026-04-26T07:02:55.076Z</time></trkpt><trkpt lat="45.5854996" lon="10.7385291"><ele>227.0</ele><time>2026-04-26T07:02:56.077Z</time></trkpt><trkpt lat="45.5854553" lon="10.7383864"><ele>227.0</ele><time>2026-04-26T07:02:57.077Z</time></trkpt><trkpt lat="45.5854117" lon="10.7382341"><ele>226.6</ele><time>2026-04-26T07:02:58.077Z</time></trkpt><trkpt lat="45.5853767" lon="10.7380977"><ele>226.2</ele><time>2026-04-26T07:02:59.076Z</time></trkpt><trkpt lat="45.585336" lon="10.7379456"><ele>225.8</ele><time>2026-04-26T07:03:00.077Z</time></trkpt><trkpt lat="45.5853038" lon="10.7377989"><ele>225.4</ele><time>2026-04-26T07:03:01.077Z</time></trkpt><trkpt lat="45.5852671" lon="10.7376535"><ele>225.0</ele><time>2026-04-26T07:03:02.077Z</time></trkpt><trkpt lat="45.5852521" lon="10.7375036"><ele>221.25</ele><time>2026-04-26T07:03:03.077Z</time></trkpt><trkpt lat="45.5852348" lon="10.7373495"><ele>217.5</ele><time>2026-04-26T07:03:04.076Z</time></trkpt><trkpt lat="45.5852209" lon="10.7371923"><ele>213.75</ele><time>2026-04-26T07:03:05.076Z</time></trkpt><trkpt lat="45.5852219" lon="10.7370205"><ele>210.0</ele><time>2026-04-26T07:03:06.077Z</time></trkpt><trkpt lat="45.585233" lon="10.7368463"><ele>208.75</ele><time>2026-04-26T07:03:07.076Z</time></trkpt><trkpt lat="45.5852536" lon="10.7366816"><ele>207.5</ele><time>2026-04-26T07:03:08.076Z</time></trkpt><trkpt lat="45.5852876" lon="10.7365144"><ele>206.25</ele><time>2026-04-26T07:03:09.077Z</time></trkpt><trkpt lat="45.5853322" lon="10.7363559"><ele>205.0</ele><time>2026-04-26T07:03:10.077Z</time></trkpt><trkpt lat="45.5853871" lon="10.7361862"><ele>207.0</ele><time>2026-04-26T07:03:11.077Z</time></trkpt><trkpt lat="45.5854337" lon="10.736025"><ele>209.0</ele><time>2026-04-26T07:03:12.076Z</time></trkpt><trkpt lat="45.5854801" lon="10.7358729"><ele>211.0</ele><time>2026-04-26T07:03:13.077Z</time></trkpt><trkpt lat="45.585532" lon="10.7357112"><ele>213.0</ele><time>2026-04-26T07:03:14.077Z</time></trkpt><trkpt lat="45.5855894" lon="10.735548"><ele>213.0</ele><time>2026-04-26T07:03:15.077Z</time></trkpt><trkpt lat="45.5856407" lon="10.7353835"><ele>213.0</ele><time>2026-04-26T07:03:16.076Z</time></trkpt><trkpt lat="45.5856729" lon="10.7352158"><ele>213.0</ele><time>2026-04-26T07:03:17.077Z</time></trkpt><trkpt lat="45.5856965" lon="10.7350444"><ele>213.0</ele><time>2026-04-26T07:03:18.076Z</time></trkpt><trkpt lat="45.5857106" lon="10.7348764"><ele>211.5</ele><time>2026-04-26T07:03:19.076Z</time></trkpt><trkpt lat="45.5857147" lon="10.7347012"><ele>210.0</ele><time>2026-04-26T07:03:20.077Z</time></trkpt><trkpt lat="45.5857241" lon="10.7345253"><ele>208.5</ele><time>2026-04-26T07:03:21.076Z</time></trkpt><trkpt lat="45.5857369" lon="10.7343549"><ele>207.0</ele><time>2026-04-26T07:03:22.077Z</time></trkpt><trkpt lat="45.5857437" lon="10.7341857"><ele>205.25</ele><time>2026-04-26T07:03:23.077Z</time></trkpt><trkpt lat="45.5857426" lon="10.7340163"><ele>203.5</ele><time>2026-04-26T07:03:24.076Z</time></trkpt><trkpt lat="45.5857472" lon="10.7338436"><ele>201.75</ele><time>2026-04-26T07:03:25.077Z</time></trkpt><trkpt lat="45.5857492" lon="10.733681"><ele>200.0</ele><time>2026-04-26T07:03:26.077Z</time></trkpt><trkpt lat="45.5857441" lon="10.7335273"><ele>199.8</ele><time>2026-04-26T07:03:27.077Z</time></trkpt><trkpt lat="45.5857215" lon="10.7333815"><ele>199.6</ele><time>2026-04-26T07:03:28.077Z</time></trkpt><trkpt lat="45.5856808" lon="10.733246"><ele>199.39999999999998</ele><time>2026-04-26T07:03:29.077Z</time></trkpt><trkpt lat="45.5856141" lon="10.7331305"><ele>199.2</ele><time>2026-04-26T07:03:30.077Z</time></trkpt><trkpt lat="45.5855203" lon="10.7330419"><ele>199.0</ele><time>2026-04-26T07:03:31.076Z</time></trkpt><trkpt lat="45.585411" lon="10.7329715"><ele>195.5</ele><time>2026-04-26T07:03:32.077Z</time></trkpt><trkpt lat="45.585298" lon="10.7328976"><ele>192.0</ele><time>2026-04-26T07:03:33.077Z</time></trkpt><trkpt lat="45.5851923" lon="10.7328139"><ele>188.5</ele><time>2026-04-26T07:03:34.076Z</time></trkpt><trkpt lat="45.5851059" lon="10.7327133"><ele>185.0</ele><time>2026-04-26T07:03:35.077Z</time></trkpt><trkpt lat="45.585029" lon="10.7325857"><ele>185.0</ele><time>2026-04-26T07:03:36.077Z</time></trkpt><trkpt lat="45.5849755" lon="10.7324488"><ele>185.0</ele><time>2026-04-26T07:03:37.077Z</time></trkpt><trkpt lat="45.5849407" lon="10.7323047"><ele>185.0</ele><time>2026-04-26T07:03:38.077Z</time></trkpt><trkpt lat="45.5849194" lon="10.7321667"><ele>185.0</ele><time>2026-04-26T07:03:39.077Z</time></trkpt><trkpt lat="45.5849105" lon="10.7320327"><ele>185.0</ele><time>2026-04-26T07:03:40.076Z</time></trkpt><trkpt lat="45.5849001" lon="10.7319171"><ele>185.0</ele><time>2026-04-26T07:03:41.076Z</time></trkpt><trkpt lat="45.5848816" lon="10.7318166"><ele>185.0</ele><time>2026-04-26T07:03:42.077Z</time></trkpt><trkpt lat="45.5847731" lon="10.7317903"><ele>185.0</ele><time>2026-04-26T07:03:44.077Z</time></trkpt><trkpt lat="45.5847158" lon="10.7318392"><ele>185.0</ele><time>2026-04-26T07:03:45.076Z</time></trkpt><trkpt lat="45.5846724" lon="10.731912"><ele>185.0</ele><time>2026-04-26T07:03:46.076Z</time></trkpt><trkpt lat="45.584648" lon="10.7320083"><ele>185.0</ele><time>2026-04-26T07:03:47.076Z</time></trkpt><trkpt lat="45.58464" lon="10.7321258"><ele>185.0</ele><time>2026-04-26T07:03:48.076Z</time></trkpt><trkpt lat="45.5846367" lon="10.7322474"><ele>185.0</ele><time>2026-04-26T07:03:49.077Z</time></trkpt><trkpt lat="45.5846326" lon="10.7323618"><ele>185.0</ele><time>2026-04-26T07:03:50.077Z</time></trkpt><trkpt lat="45.5846299" lon="10.7324761"><ele>185.0</ele><time>2026-04-26T07:03:51.076Z</time></trkpt><trkpt lat="45.5846254" lon="10.7325717"><ele>185.0</ele><time>2026-04-26T07:03:52.076Z</time></trkpt><trkpt lat="45.5845834" lon="10.7326934"><ele>185.0</ele><time>2026-04-26T07:03:54.077Z</time></trkpt><trkpt lat="45.584491" lon="10.732667"><ele>179.4</ele><time>2026-04-26T07:03:56.076Z</time></trkpt><trkpt lat="45.5844658" lon="10.7325809"><ele>173.8</ele><time>2026-04-26T07:03:57.077Z</time></trkpt><trkpt lat="45.5844683" lon="10.7324641"><ele>168.2</ele><time>2026-04-26T07:03:58.076Z</time></trkpt><trkpt lat="45.5844801" lon="10.7323304"><ele>162.6</ele><time>2026-04-26T07:03:59.075Z</time></trkpt><trkpt lat="45.5844922" lon="10.732177"><ele>157.0</ele><time>2026-04-26T07:04:00.075Z</time></trkpt><trkpt lat="45.5844984" lon="10.7320103"><ele>156.75</ele><time>2026-04-26T07:04:01.076Z</time></trkpt><trkpt lat="45.5845024" lon="10.7318367"><ele>156.5</ele><time>2026-04-26T07:04:02.076Z</time></trkpt><trkpt lat="45.5845037" lon="10.7316627"><ele>156.25</ele><time>2026-04-26T07:04:03.076Z</time></trkpt><trkpt lat="45.5844975" lon="10.7314871"><ele>156.0</ele><time>2026-04-26T07:04:04.075Z</time></trkpt><trkpt lat="45.5844803" lon="10.7313102"><ele>156.0</ele><time>2026-04-26T07:04:05.076Z</time></trkpt><trkpt lat="45.5844629" lon="10.7311242"><ele>156.0</ele><time>2026-04-26T07:04:06.075Z</time></trkpt><trkpt lat="45.5844377" lon="10.7309472"><ele>156.0</ele><time>2026-04-26T07:04:07.075Z</time></trkpt><trkpt lat="45.5844111" lon="10.7307717"><ele>156.0</ele><time>2026-04-26T07:04:08.076Z</time></trkpt><trkpt lat="45.5843882" lon="10.7305883"><ele>156.25</ele><time>2026-04-26T07:04:09.076Z</time></trkpt><trkpt lat="45.5843684" lon="10.7304091"><ele>156.5</ele><time>2026-04-26T07:04:10.076Z</time></trkpt><trkpt lat="45.584348" lon="10.7302402"><ele>156.75</ele><time>2026-04-26T07:04:11.075Z</time></trkpt><trkpt lat="45.5843267" lon="10.7300806"><ele>157.0</ele><time>2026-04-26T07:04:12.076Z</time></trkpt><trkpt lat="45.5843022" lon="10.7299375"><ele>156.6</ele><time>2026-04-26T07:04:13.076Z</time></trkpt><trkpt lat="45.5842769" lon="10.7298086"><ele>156.2</ele><time>2026-04-26T07:04:14.075Z</time></trkpt><trkpt lat="45.5842587" lon="10.7296891"><ele>155.8</ele><time>2026-04-26T07:04:15.076Z</time></trkpt><trkpt lat="45.5842431" lon="10.7295548"><ele>155.4</ele><time>2026-04-26T07:04:16.076Z</time></trkpt><trkpt lat="45.5842249" lon="10.7294029"><ele>155.0</ele><time>2026-04-26T07:04:17.076Z</time></trkpt><trkpt lat="45.5842066" lon="10.729235"><ele>154.25</ele><time>2026-04-26T07:04:18.076Z</time></trkpt><trkpt lat="45.5841873" lon="10.7290682"><ele>153.5</ele><time>2026-04-26T07:04:19.075Z</time></trkpt><trkpt lat="45.5841485" lon="10.7288991"><ele>152.75</ele><time>2026-04-26T07:04:20.076Z</time></trkpt><trkpt lat="45.5840976" lon="10.7287329"><ele>152.0</ele><time>2026-04-26T07:04:21.075Z</time></trkpt><trkpt lat="45.5840233" lon="10.7285869"><ele>151.25</ele><time>2026-04-26T07:04:22.075Z</time></trkpt><trkpt lat="45.5839347" lon="10.728473"><ele>150.5</ele><time>2026-04-26T07:04:23.075Z</time></trkpt><trkpt lat="45.5838394" lon="10.728366"><ele>149.75</ele><time>2026-04-26T07:04:24.075Z</time></trkpt><trkpt lat="45.5837456" lon="10.728258"><ele>149.0</ele><time>2026-04-26T07:04:25.075Z</time></trkpt><trkpt lat="45.5836643" lon="10.7281343"><ele>145.25</ele><time>2026-04-26T07:04:26.075Z</time></trkpt><trkpt lat="45.5836051" lon="10.7279887"><ele>141.5</ele><time>2026-04-26T07:04:27.076Z</time></trkpt><trkpt lat="45.5835633" lon="10.7278239"><ele>137.75</ele><time>2026-04-26T07:04:28.075Z</time></trkpt><trkpt lat="45.5835359" lon="10.7276363"><ele>134.0</ele><time>2026-04-26T07:04:29.076Z</time></trkpt><trkpt lat="45.5835235" lon="10.7274438"><ele>133.25</ele><time>2026-04-26T07:04:30.076Z</time></trkpt><trkpt lat="45.5835134" lon="10.7272586"><ele>132.5</ele><time>2026-04-26T07:04:31.076Z</time></trkpt><trkpt lat="45.5834997" lon="10.7270863"><ele>131.75</ele><time>2026-04-26T07:04:32.076Z</time></trkpt><trkpt lat="45.5834794" lon="10.7269182"><ele>131.0</ele><time>2026-04-26T07:04:33.075Z</time></trkpt><trkpt lat="45.5834581" lon="10.7267688"><ele>130.6</ele><time>2026-04-26T07:04:34.075Z</time></trkpt><trkpt lat="45.583439" lon="10.7266244"><ele>130.2</ele><time>2026-04-26T07:04:35.076Z</time></trkpt><trkpt lat="45.5834279" lon="10.7264821"><ele>129.8</ele><time>2026-04-26T07:04:36.076Z</time></trkpt><trkpt lat="45.5834092" lon="10.7263395"><ele>129.4</ele><time>2026-04-26T07:04:37.075Z</time></trkpt><trkpt lat="45.5833894" lon="10.7261903"><ele>129.0</ele><time>2026-04-26T07:04:38.075Z</time></trkpt><trkpt lat="45.5833688" lon="10.7260464"><ele>128.83333333333334</ele><time>2026-04-26T07:04:39.076Z</time></trkpt><trkpt lat="45.5833436" lon="10.7259172"><ele>128.66666666666666</ele><time>2026-04-26T07:04:40.076Z</time></trkpt><trkpt lat="45.5833093" lon="10.7258116"><ele>128.5</ele><time>2026-04-26T07:04:41.075Z</time></trkpt><trkpt lat="45.583262" lon="10.7257179"><ele>128.33333333333331</ele><time>2026-04-26T07:04:42.076Z</time></trkpt><trkpt lat="45.5832067" lon="10.7256377"><ele>128.16666666666666</ele><time>2026-04-26T07:04:43.076Z</time></trkpt><trkpt lat="45.58316" lon="10.7255748"><ele>128.0</ele><time>2026-04-26T07:04:44.076Z</time></trkpt><trkpt lat="45.5831238" lon="10.7254646"><ele>128.0</ele><time>2026-04-26T07:04:46.076Z</time></trkpt><trkpt lat="45.5831569" lon="10.7253846"><ele>127.99999999999999</ele><time>2026-04-26T07:04:48.076Z</time></trkpt><trkpt lat="45.5832752" lon="10.725361"><ele>128.0</ele><time>2026-04-26T07:04:50.076Z</time></trkpt><trkpt lat="45.5833399" lon="10.7253511"><ele>128.0</ele><time>2026-04-26T07:04:51.076Z</time></trkpt><trkpt lat="45.5834063" lon="10.725337"><ele>127.99999999999999</ele><time>2026-04-26T07:04:52.075Z</time></trkpt><trkpt lat="45.5834669" lon="10.7253076"><ele>128.0</ele><time>2026-04-26T07:04:53.075Z</time></trkpt><trkpt lat="45.5835224" lon="10.7252534"><ele>128.0</ele><time>2026-04-26T07:04:54.075Z</time></trkpt><trkpt lat="45.5835635" lon="10.7251697"><ele>127.60000000000001</ele><time>2026-04-26T07:04:55.076Z</time></trkpt><trkpt lat="45.5835985" lon="10.725051"><ele>127.20000000000002</ele><time>2026-04-26T07:04:56.076Z</time></trkpt><trkpt lat="45.5836286" lon="10.7249263"><ele>126.8</ele><time>2026-04-26T07:04:57.076Z</time></trkpt><trkpt lat="45.5836591" lon="10.7247865"><ele>126.4</ele><time>2026-04-26T07:04:58.075Z</time></trkpt><trkpt lat="45.5836947" lon="10.7246422"><ele>126.0</ele><time>2026-04-26T07:04:59.076Z</time></trkpt><trkpt lat="45.5837345" lon="10.7245172"><ele>126.8</ele><time>2026-04-26T07:05:00.075Z</time></trkpt><trkpt lat="45.5837787" lon="10.724404"><ele>127.6</ele><time>2026-04-26T07:05:01.076Z</time></trkpt><trkpt lat="45.5838409" lon="10.724306"><ele>128.4</ele><time>2026-04-26T07:05:02.075Z</time></trkpt><trkpt lat="45.583914" lon="10.7242056"><ele>129.2</ele><time>2026-04-26T07:05:03.076Z</time></trkpt><trkpt lat="45.5839969" lon="10.7240896"><ele>130.0</ele><time>2026-04-26T07:05:04.075Z</time></trkpt><trkpt lat="45.5840801" lon="10.7239657"><ele>130.2</ele><time>2026-04-26T07:05:05.075Z</time></trkpt><trkpt lat="45.5841511" lon="10.7238449"><ele>130.4</ele><time>2026-04-26T07:05:06.075Z</time></trkpt><trkpt lat="45.5842157" lon="10.7237298"><ele>130.6</ele><time>2026-04-26T07:05:07.076Z</time></trkpt><trkpt lat="45.5842786" lon="10.7236294"><ele>130.8</ele><time>2026-04-26T07:05:08.075Z</time></trkpt><trkpt lat="45.584339" lon="10.7235484"><ele>131.0</ele><time>2026-04-26T07:05:09.075Z</time></trkpt><trkpt lat="45.5844018" lon="10.7234898"><ele>131.28571428571428</ele><time>2026-04-26T07:05:10.076Z</time></trkpt><trkpt lat="45.5844719" lon="10.7234477"><ele>131.57142857142858</ele><time>2026-04-26T07:05:11.076Z</time></trkpt><trkpt lat="45.5845472" lon="10.7234328"><ele>131.85714285714286</ele><time>2026-04-26T07:05:12.076Z</time></trkpt><trkpt lat="45.5846212" lon="10.72344"><ele>132.14285714285714</ele><time>2026-04-26T07:05:13.076Z</time></trkpt><trkpt lat="45.5846832" lon="10.7234801"><ele>132.42857142857144</ele><time>2026-04-26T07:05:14.076Z</time></trkpt><trkpt lat="45.5847311" lon="10.7235539"><ele>132.71428571428572</ele><time>2026-04-26T07:05:15.076Z</time></trkpt><trkpt lat="45.5847704" lon="10.7236554"><ele>133.0</ele><time>2026-04-26T07:05:16.076Z</time></trkpt><trkpt lat="45.5848155" lon="10.7237734"><ele>135.66666666666669</ele><time>2026-04-26T07:05:17.076Z</time></trkpt><trkpt lat="45.5848706" lon="10.7238775"><ele>138.33333333333334</ele><time>2026-04-26T07:05:18.075Z</time></trkpt><trkpt lat="45.5849424" lon="10.7239589"><ele>141.0</ele><time>2026-04-26T07:05:19.075Z</time></trkpt><trkpt lat="45.5850192" lon="10.7240189"><ele>143.66666666666666</ele><time>2026-04-26T07:05:20.075Z</time></trkpt><trkpt lat="45.5850958" lon="10.7240502"><ele>146.33333333333331</ele><time>2026-04-26T07:05:21.076Z</time></trkpt><trkpt lat="45.5851719" lon="10.7240526"><ele>149.0</ele><time>2026-04-26T07:05:22.075Z</time></trkpt><trkpt lat="45.5852504" lon="10.7240416"><ele>149.0</ele><time>2026-04-26T07:05:23.076Z</time></trkpt><trkpt lat="45.5853306" lon="10.7240377"><ele>149.0</ele><time>2026-04-26T07:05:24.075Z</time></trkpt><trkpt lat="45.5854181" lon="10.7240547"><ele>149.0</ele><time>2026-04-26T07:05:25.076Z</time></trkpt><trkpt lat="45.5854913" lon="10.7241106"><ele>149.0</ele><time>2026-04-26T07:05:26.075Z</time></trkpt><trkpt lat="45.5855612" lon="10.7241819"><ele>149.0</ele><time>2026-04-26T07:05:27.076Z</time></trkpt><trkpt lat="45.5856301" lon="10.7242483"><ele>149.0</ele><time>2026-04-26T07:05:28.075Z</time></trkpt><trkpt lat="45.5856941" lon="10.7243041"><ele>149.85714285714286</ele><time>2026-04-26T07:05:29.075Z</time></trkpt><trkpt lat="45.5857496" lon="10.7243498"><ele>150.7142857142857</ele><time>2026-04-26T07:05:30.075Z</time></trkpt><trkpt lat="45.5858247" lon="10.7243844"><ele>151.57142857142856</ele><time>2026-04-26T07:05:32.075Z</time></trkpt><trkpt lat="45.5859003" lon="10.7243937"><ele>152.42857142857142</ele><time>2026-04-26T07:05:35.075Z</time></trkpt><trkpt lat="45.5859487" lon="10.7244621"><ele>153.28571428571428</ele><time>2026-04-26T07:05:44.075Z</time></trkpt><trkpt lat="45.5860081" lon="10.7244926"><ele>154.14285714285714</ele><time>2026-04-26T07:05:48.076Z</time></trkpt><trkpt lat="45.5860801" lon="10.7245401"><ele>155.0</ele><time>2026-04-26T07:05:53.075Z</time></trkpt><trkpt lat="45.5861484" lon="10.7245962"><ele>159.16666666666666</ele><time>2026-04-26T07:05:54.076Z</time></trkpt><trkpt lat="45.5862245" lon="10.724647"><ele>163.33333333333331</ele><time>2026-04-26T07:05:55.076Z</time></trkpt><trkpt lat="45.5863094" lon="10.7247006"><ele>167.5</ele><time>2026-04-26T07:05:56.075Z</time></trkpt><trkpt lat="45.5863942" lon="10.7247486"><ele>171.66666666666666</ele><time>2026-04-26T07:05:57.076Z</time></trkpt><trkpt lat="45.5864835" lon="10.7248053"><ele>175.83333333333334</ele><time>2026-04-26T07:05:58.075Z</time></trkpt><trkpt lat="45.5865629" lon="10.724841"><ele>180.0</ele><time>2026-04-26T07:05:59.076Z</time></trkpt><trkpt lat="45.5866327" lon="10.7248683"><ele>180.0</ele><time>2026-04-26T07:06:00.076Z</time></trkpt><trkpt lat="45.5866981" lon="10.7249025"><ele>180.0</ele><time>2026-04-26T07:06:01.075Z</time></trkpt><trkpt lat="45.5867602" lon="10.7249362"><ele>180.0</ele><time>2026-04-26T07:06:02.076Z</time></trkpt><trkpt lat="45.586819" lon="10.7249752"><ele>180.0</ele><time>2026-04-26T07:06:03.075Z</time></trkpt><trkpt lat="45.5869265" lon="10.7250345"><ele>180.0</ele><time>2026-04-26T07:06:05.076Z</time></trkpt><trkpt lat="45.5869956" lon="10.7250558"><ele>180.0</ele><time>2026-04-26T07:06:07.076Z</time></trkpt><trkpt lat="45.5870468" lon="10.724986"><ele>183.5</ele><time>2026-04-26T07:06:09.075Z</time></trkpt><trkpt lat="45.5870791" lon="10.7248326"><ele>187.0</ele><time>2026-04-26T07:06:11.075Z</time></trkpt><trkpt lat="45.5870933" lon="10.7247347"><ele>190.5</ele><time>2026-04-26T07:06:12.076Z</time></trkpt><trkpt lat="45.5871052" lon="10.7246409"><ele>194.0</ele><time>2026-04-26T07:06:13.076Z</time></trkpt><trkpt lat="45.5871225" lon="10.7245355"><ele>197.5</ele><time>2026-04-26T07:06:14.075Z</time></trkpt><trkpt lat="45.5871425" lon="10.7244225"><ele>201.0</ele><time>2026-04-26T07:06:15.076Z</time></trkpt><trkpt lat="45.5871597" lon="10.7243071"><ele>201.0</ele><time>2026-04-26T07:06:16.075Z</time></trkpt><trkpt lat="45.5871703" lon="10.7241971"><ele>201.0</ele><time>2026-04-26T07:06:17.075Z</time></trkpt><trkpt lat="45.5871789" lon="10.7240882"><ele>201.0</ele><time>2026-04-26T07:06:18.075Z</time></trkpt><trkpt lat="45.5871868" lon="10.7239882"><ele>201.0</ele><time>2026-04-26T07:06:19.076Z</time></trkpt><trkpt lat="45.5871988" lon="10.7238929"><ele>201.0</ele><time>2026-04-26T07:06:20.075Z</time></trkpt><trkpt lat="45.5872066" lon="10.7237934"><ele>201.0</ele><time>2026-04-26T07:06:21.076Z</time></trkpt><trkpt lat="45.5872132" lon="10.7236955"><ele>201.0</ele><time>2026-04-26T07:06:22.076Z</time></trkpt><trkpt lat="45.587217" lon="10.7235977"><ele>200.8</ele><time>2026-04-26T07:06:23.075Z</time></trkpt><trkpt lat="45.5872195" lon="10.723505"><ele>200.60000000000002</ele><time>2026-04-26T07:06:24.076Z</time></trkpt><trkpt lat="45.5872264" lon="10.7233339"><ele>200.4</ele><time>2026-04-26T07:06:26.075Z</time></trkpt><trkpt lat="45.5872249" lon="10.7231506"><ele>200.2</ele><time>2026-04-26T07:06:28.076Z</time></trkpt><trkpt lat="45.587216" lon="10.7230467"><ele>200.0</ele><time>2026-04-26T07:06:29.075Z</time></trkpt><trkpt lat="45.5872086" lon="10.7229474"><ele>200.0</ele><time>2026-04-26T07:06:30.075Z</time></trkpt><trkpt lat="45.5872018" lon="10.7228474"><ele>200.0</ele><time>2026-04-26T07:06:31.076Z</time></trkpt><trkpt lat="45.5871965" lon="10.7227557"><ele>200.0</ele><time>2026-04-26T07:06:32.076Z</time></trkpt><trkpt lat="45.58718" lon="10.7225993"><ele>200.0</ele><time>2026-04-26T07:06:34.075Z</time></trkpt><trkpt lat="45.5871435" lon="10.7224504"><ele>200.0</ele><time>2026-04-26T07:06:36.076Z</time></trkpt><trkpt lat="45.5870952" lon="10.7223287"><ele>200.00000000000003</ele><time>2026-04-26T07:06:38.076Z</time></trkpt><trkpt lat="45.5870456" lon="10.7222238"><ele>200.0</ele><time>2026-04-26T07:06:40.075Z</time></trkpt><trkpt lat="45.5869684" lon="10.7221874"><ele>200.0</ele><time>2026-04-26T07:06:42.075Z</time></trkpt><trkpt lat="45.5868616" lon="10.7221968"><ele>200.0</ele><time>2026-04-26T07:06:44.075Z</time></trkpt><trkpt lat="45.586768" lon="10.7222125"><ele>200.00000000000003</ele><time>2026-04-26T07:06:46.076Z</time></trkpt><trkpt lat="45.5866946" lon="10.7222268"><ele>200.0</ele><time>2026-04-26T07:06:48.075Z</time></trkpt><trkpt lat="45.5866069" lon="10.7221994"><ele>196.50000000000003</ele><time>2026-04-26T07:06:51.075Z</time></trkpt><trkpt lat="45.5865546" lon="10.722108"><ele>193.0</ele><time>2026-04-26T07:06:53.076Z</time></trkpt><trkpt lat="45.5865214" lon="10.7220175"><ele>189.5</ele><time>2026-04-26T07:06:54.076Z</time></trkpt><trkpt lat="45.5864904" lon="10.7219052"><ele>186.0</ele><time>2026-04-26T07:06:55.076Z</time></trkpt><trkpt lat="45.5864668" lon="10.7217841"><ele>182.5</ele><time>2026-04-26T07:06:56.076Z</time></trkpt><trkpt lat="45.5864539" lon="10.7216556"><ele>179.0</ele><time>2026-04-26T07:06:57.076Z</time></trkpt><trkpt lat="45.5864427" lon="10.7215226"><ele>179.0</ele><time>2026-04-26T07:06:58.076Z</time></trkpt><trkpt lat="45.5864345" lon="10.7214011"><ele>179.0</ele><time>2026-04-26T07:06:59.075Z</time></trkpt><trkpt lat="45.5864248" lon="10.7212707"><ele>179.0</ele><time>2026-04-26T07:07:00.076Z</time></trkpt><trkpt lat="45.5864128" lon="10.7211372"><ele>179.0</ele><time>2026-04-26T07:07:01.076Z</time></trkpt><trkpt lat="45.5864015" lon="10.7210027"><ele>179.0</ele><time>2026-04-26T07:07:02.076Z</time></trkpt><trkpt lat="45.5863839" lon="10.7208772"><ele>179.6</ele><time>2026-04-26T07:07:03.075Z</time></trkpt><trkpt lat="45.5863756" lon="10.7207426"><ele>180.2</ele><time>2026-04-26T07:07:04.075Z</time></trkpt><trkpt lat="45.5863752" lon="10.7206024"><ele>180.79999999999998</ele><time>2026-04-26T07:07:05.076Z</time></trkpt><trkpt lat="45.5863731" lon="10.7204644"><ele>181.39999999999998</ele><time>2026-04-26T07:07:06.076Z</time></trkpt><trkpt lat="45.5863719" lon="10.7203325"><ele>182.0</ele><time>2026-04-26T07:07:07.076Z</time></trkpt><trkpt lat="45.5863695" lon="10.7202031"><ele>182.39999999999998</ele><time>2026-04-26T07:07:08.076Z</time></trkpt><trkpt lat="45.5863619" lon="10.7200634"><ele>182.79999999999998</ele><time>2026-04-26T07:07:09.076Z</time></trkpt><trkpt lat="45.5863592" lon="10.7199019"><ele>183.2</ele><time>2026-04-26T07:07:10.075Z</time></trkpt><trkpt lat="45.5863544" lon="10.7197331"><ele>183.6</ele><time>2026-04-26T07:07:11.076Z</time></trkpt><trkpt lat="45.5863444" lon="10.7195863"><ele>184.0</ele><time>2026-04-26T07:07:12.075Z</time></trkpt><trkpt lat="45.5863441" lon="10.7194638"><ele>184.39999999999998</ele><time>2026-04-26T07:07:13.076Z</time></trkpt><trkpt lat="45.5863463" lon="10.7193647"><ele>184.8</ele><time>2026-04-26T07:07:14.075Z</time></trkpt><trkpt lat="45.5863205" lon="10.7192147"><ele>185.2</ele><time>2026-04-26T07:07:16.076Z</time></trkpt><trkpt lat="45.5862049" lon="10.7191672"><ele>185.60000000000002</ele><time>2026-04-26T07:07:18.075Z</time></trkpt><trkpt lat="45.5861161" lon="10.7191818"><ele>186.0</ele><time>2026-04-26T07:07:19.074Z</time></trkpt><trkpt lat="45.5860189" lon="10.7191967"><ele>183.83333333333334</ele><time>2026-04-26T07:07:20.075Z</time></trkpt><trkpt lat="45.5859319" lon="10.7191998"><ele>181.66666666666666</ele><time>2026-04-26T07:07:21.074Z</time></trkpt><trkpt lat="45.5858468" lon="10.7192021"><ele>179.5</ele><time>2026-04-26T07:07:22.074Z</time></trkpt><trkpt lat="45.5857539" lon="10.7191926"><ele>177.33333333333331</ele><time>2026-04-26T07:07:23.074Z</time></trkpt><trkpt lat="45.5856664" lon="10.7191605"><ele>175.16666666666666</ele><time>2026-04-26T07:07:24.074Z</time></trkpt><trkpt lat="45.5855862" lon="10.7191133"><ele>173.0</ele><time>2026-04-26T07:07:25.074Z</time></trkpt><trkpt lat="45.5855231" lon="10.7190518"><ele>173.0</ele><time>2026-04-26T07:07:26.074Z</time></trkpt><trkpt lat="45.585481" lon="10.7189795"><ele>173.0</ele><time>2026-04-26T07:07:27.075Z</time></trkpt><trkpt lat="45.5854574" lon="10.7188812"><ele>173.0</ele><time>2026-04-26T07:07:28.075Z</time></trkpt><trkpt lat="45.5854337" lon="10.7187947"><ele>173.0</ele><time>2026-04-26T07:07:29.075Z</time></trkpt><trkpt lat="45.5853566" lon="10.7186643"><ele>173.0</ele><time>2026-04-26T07:07:31.074Z</time></trkpt><trkpt lat="45.5852567" lon="10.7186408"><ele>173.0</ele><time>2026-04-26T07:07:33.074Z</time></trkpt><trkpt lat="45.5851844" lon="10.7186753"><ele>170.16666666666666</ele><time>2026-04-26T07:07:34.075Z</time></trkpt><trkpt lat="45.5850971" lon="10.7187214"><ele>167.33333333333331</ele><time>2026-04-26T07:07:35.075Z</time></trkpt><trkpt lat="45.5850135" lon="10.7187518"><ele>164.5</ele><time>2026-04-26T07:07:36.075Z</time></trkpt><trkpt lat="45.5849378" lon="10.7187515"><ele>161.66666666666666</ele><time>2026-04-26T07:07:37.075Z</time></trkpt><trkpt lat="45.5848628" lon="10.7187264"><ele>158.83333333333334</ele><time>2026-04-26T07:07:38.074Z</time></trkpt><trkpt lat="45.5847903" lon="10.7186704"><ele>156.0</ele><time>2026-04-26T07:07:39.075Z</time></trkpt><trkpt lat="45.5847216" lon="10.7186003"><ele>157.2</ele><time>2026-04-26T07:07:40.074Z</time></trkpt><trkpt lat="45.5846593" lon="10.7185114"><ele>158.39999999999998</ele><time>2026-04-26T07:07:41.075Z</time></trkpt><trkpt lat="45.5846022" lon="10.7184055"><ele>159.6</ele><time>2026-04-26T07:07:42.075Z</time></trkpt><trkpt lat="45.5845476" lon="10.7182887"><ele>160.79999999999998</ele><time>2026-04-26T07:07:43.075Z</time></trkpt><trkpt lat="45.5844959" lon="10.7181644"><ele>162.0</ele><time>2026-04-26T07:07:44.075Z</time></trkpt><trkpt lat="45.5844482" lon="10.7180365"><ele>157.2</ele><time>2026-04-26T07:07:45.074Z</time></trkpt><trkpt lat="45.584399" lon="10.7179097"><ele>152.39999999999998</ele><time>2026-04-26T07:07:46.075Z</time></trkpt><trkpt lat="45.5843442" lon="10.7177933"><ele>147.60000000000002</ele><time>2026-04-26T07:07:47.075Z</time></trkpt><trkpt lat="45.5842929" lon="10.7176813"><ele>142.8</ele><time>2026-04-26T07:07:48.074Z</time></trkpt><trkpt lat="45.5842402" lon="10.7175681"><ele>138.0</ele><time>2026-04-26T07:07:49.075Z</time></trkpt><trkpt lat="45.5841908" lon="10.7174595"><ele>138.0</ele><time>2026-04-26T07:07:50.074Z</time></trkpt><trkpt lat="45.5841423" lon="10.7173576"><ele>138.0</ele><time>2026-04-26T07:07:51.074Z</time></trkpt><trkpt lat="45.5840918" lon="10.717257"><ele>138.0</ele><time>2026-04-26T07:07:52.074Z</time></trkpt><trkpt lat="45.5840419" lon="10.7171501"><ele>138.0</ele><time>2026-04-26T07:07:53.075Z</time></trkpt><trkpt lat="45.583998" lon="10.7170318"><ele>138.0</ele><time>2026-04-26T07:07:54.075Z</time></trkpt><trkpt lat="45.5839512" lon="10.7169078"><ele>137.66666666666666</ele><time>2026-04-26T07:07:55.075Z</time></trkpt><trkpt lat="45.5839" lon="10.7167864"><ele>137.33333333333334</ele><time>2026-04-26T07:07:56.074Z</time></trkpt><trkpt lat="45.5838513" lon="10.7166737"><ele>137.0</ele><time>2026-04-26T07:07:57.075Z</time></trkpt><trkpt lat="45.5838043" lon="10.7165835"><ele>136.66666666666669</ele><time>2026-04-26T07:07:58.075Z</time></trkpt><trkpt lat="45.5837586" lon="10.71652"><ele>136.33333333333334</ele><time>2026-04-26T07:07:59.075Z</time></trkpt><trkpt lat="45.5836994" lon="10.7164806"><ele>136.0</ele><time>2026-04-26T07:08:00.074Z</time></trkpt><trkpt lat="45.5835985" lon="10.7164871"><ele>130.75</ele><time>2026-04-26T07:08:01.074Z</time></trkpt><trkpt lat="45.5834849" lon="10.7165141"><ele>125.5</ele><time>2026-04-26T07:08:02.074Z</time></trkpt><trkpt lat="45.5833696" lon="10.7165439"><ele>120.25</ele><time>2026-04-26T07:08:03.075Z</time></trkpt><trkpt lat="45.5832581" lon="10.7165674"><ele>115.0</ele><time>2026-04-26T07:08:04.074Z</time></trkpt><trkpt lat="45.5831507" lon="10.716578"><ele>115.0</ele><time>2026-04-26T07:08:05.075Z</time></trkpt><trkpt lat="45.5830405" lon="10.7165831"><ele>115.0</ele><time>2026-04-26T07:08:06.074Z</time></trkpt><trkpt lat="45.5829255" lon="10.7165899"><ele>115.0</ele><time>2026-04-26T07:08:07.075Z</time></trkpt><trkpt lat="45.5828047" lon="10.7165916"><ele>115.0</ele><time>2026-04-26T07:08:08.074Z</time></trkpt><trkpt lat="45.582691" lon="10.7165882"><ele>113.50000000000001</ele><time>2026-04-26T07:08:09.075Z</time></trkpt><trkpt lat="45.5825897" lon="10.7165804"><ele>112.0</ele><time>2026-04-26T07:08:10.075Z</time></trkpt><trkpt lat="45.5824955" lon="10.7165678"><ele>110.5</ele><time>2026-04-26T07:08:11.075Z</time></trkpt><trkpt lat="45.5824048" lon="10.7165473"><ele>109.0</ele><time>2026-04-26T07:08:12.075Z</time></trkpt><trkpt lat="45.5823235" lon="10.7165305"><ele>107.50000000000001</ele><time>2026-04-26T07:08:13.074Z</time></trkpt><trkpt lat="45.582247" lon="10.7165154"><ele>106.0</ele><time>2026-04-26T07:08:14.075Z</time></trkpt><trkpt lat="45.5821737" lon="10.7164969"><ele>106.0</ele><time>2026-04-26T07:08:15.075Z</time></trkpt><trkpt lat="45.5821116" lon="10.7164691"><ele>106.0</ele><time>2026-04-26T07:08:16.074Z</time></trkpt><trkpt lat="45.5820619" lon="10.7163923"><ele>106.0</ele><time>2026-04-26T07:08:18.074Z</time></trkpt><trkpt lat="45.5820991" lon="10.7162763"><ele>106.0</ele><time>2026-04-26T07:08:20.074Z</time></trkpt><trkpt lat="45.5821895" lon="10.7161596"><ele>106.0</ele><time>2026-04-26T07:08:22.074Z</time></trkpt><trkpt lat="45.5822526" lon="10.7160169"><ele>106.50000000000001</ele><time>2026-04-26T07:08:24.074Z</time></trkpt><trkpt lat="45.5822753" lon="10.7158394"><ele>107.0</ele><time>2026-04-26T07:08:26.075Z</time></trkpt><trkpt lat="45.5822732" lon="10.7157389"><ele>107.5</ele><time>2026-04-26T07:08:27.075Z</time></trkpt><trkpt lat="45.5822598" lon="10.7156247"><ele>108.0</ele><time>2026-04-26T07:08:28.075Z</time></trkpt><trkpt lat="45.5822401" lon="10.7155116"><ele>108.50000000000001</ele><time>2026-04-26T07:08:29.074Z</time></trkpt><trkpt lat="45.5822209" lon="10.7154153"><ele>109.0</ele><time>2026-04-26T07:08:30.074Z</time></trkpt><trkpt lat="45.5821802" lon="10.7152618"><ele>109.80000000000001</ele><time>2026-04-26T07:08:32.075Z</time></trkpt><trkpt lat="45.5821794" lon="10.715142"><ele>110.60000000000001</ele><time>2026-04-26T07:08:34.074Z</time></trkpt><trkpt lat="45.5822499" lon="10.7149882"><ele>111.4</ele><time>2026-04-26T07:08:36.075Z</time></trkpt><trkpt lat="45.5823016" lon="10.7149178"><ele>112.2</ele><time>2026-04-26T07:08:37.075Z</time></trkpt><trkpt lat="45.5823552" lon="10.7148523"><ele>113.0</ele><time>2026-04-26T07:08:38.074Z</time></trkpt><trkpt lat="45.5824544" lon="10.714758"><ele>113.0</ele><time>2026-04-26T07:08:40.075Z</time></trkpt><trkpt lat="45.5825285" lon="10.714694"><ele>113.00000000000001</ele><time>2026-04-26T07:08:42.075Z</time></trkpt><trkpt lat="45.5825919" lon="10.7146386"><ele>113.00000000000001</ele><time>2026-04-26T07:08:45.075Z</time></trkpt><trkpt lat="45.5825751" lon="10.7144794"><ele>113.0</ele><time>2026-04-26T07:08:48.075Z</time></trkpt><trkpt lat="45.5825566" lon="10.7143574"><ele>113.0</ele><time>2026-04-26T07:08:49.075Z</time></trkpt><trkpt lat="45.5825334" lon="10.7142158"><ele>112.83333333333333</ele><time>2026-04-26T07:08:50.075Z</time></trkpt><trkpt lat="45.5825051" lon="10.7140789"><ele>112.66666666666666</ele><time>2026-04-26T07:08:51.074Z</time></trkpt><trkpt lat="45.5824776" lon="10.713957"><ele>112.5</ele><time>2026-04-26T07:08:52.074Z</time></trkpt><trkpt lat="45.5824554" lon="10.7138533"><ele>112.33333333333334</ele><time>2026-04-26T07:08:53.074Z</time></trkpt><trkpt lat="45.5824334" lon="10.7137531"><ele>112.16666666666667</ele><time>2026-04-26T07:08:54.075Z</time></trkpt><trkpt lat="45.5824079" lon="10.7136551"><ele>112.0</ele><time>2026-04-26T07:08:55.074Z</time></trkpt><trkpt lat="45.5823851" lon="10.7135607"><ele>112.8</ele><time>2026-04-26T07:08:56.075Z</time></trkpt><trkpt lat="45.5823559" lon="10.7134676"><ele>113.6</ele><time>2026-04-26T07:08:57.074Z</time></trkpt><trkpt lat="45.5823224" lon="10.7133853"><ele>114.39999999999999</ele><time>2026-04-26T07:08:58.074Z</time></trkpt><trkpt lat="45.5822635" lon="10.7132413"><ele>115.19999999999999</ele><time>2026-04-26T07:09:00.075Z</time></trkpt><trkpt lat="45.5822243" lon="10.713107"><ele>116.0</ele><time>2026-04-26T07:09:02.074Z</time></trkpt><trkpt lat="45.5821898" lon="10.7129775"><ele>115.99999999999999</ele><time>2026-04-26T07:09:04.074Z</time></trkpt><trkpt lat="45.5821631" lon="10.7128326"><ele>116.0</ele><time>2026-04-26T07:09:06.075Z</time></trkpt><trkpt lat="45.5821091" lon="10.7126678"><ele>116.0</ele><time>2026-04-26T07:09:08.075Z</time></trkpt><trkpt lat="45.5820768" lon="10.7125768"><ele>116.0</ele><time>2026-04-26T07:09:09.075Z</time></trkpt><trkpt lat="45.5820475" lon="10.7124886"><ele>115.99999999999999</ele><time>2026-04-26T07:09:10.074Z</time></trkpt><trkpt lat="45.5820177" lon="10.7124033"><ele>116.0</ele><time>2026-04-26T07:09:11.075Z</time></trkpt><trkpt lat="45.5819951" lon="10.7123185"><ele>115.99999999999999</ele><time>2026-04-26T07:09:12.074Z</time></trkpt><trkpt lat="45.5819682" lon="10.7122232"><ele>116.0</ele><time>2026-04-26T07:09:13.075Z</time></trkpt><trkpt lat="45.5819435" lon="10.7121272"><ele>116.0</ele><time>2026-04-26T07:09:14.074Z</time></trkpt><trkpt lat="45.581922" lon="10.7120401"><ele>116.0</ele><time>2026-04-26T07:09:15.074Z</time></trkpt><trkpt lat="45.5818969" lon="10.7119487"><ele>115.99999999999999</ele><time>2026-04-26T07:09:16.074Z</time></trkpt><trkpt lat="45.5818717" lon="10.7118571"><ele>116.0</ele><time>2026-04-26T07:09:17.074Z</time></trkpt><trkpt lat="45.5818105" lon="10.7117193"><ele>116.0</ele><time>2026-04-26T07:09:19.075Z</time></trkpt><trkpt lat="45.5817705" lon="10.7115825"><ele>116.0</ele><time>2026-04-26T07:09:21.075Z</time></trkpt><trkpt lat="45.5817587" lon="10.7113861"><ele>116.0</ele><time>2026-04-26T07:09:23.075Z</time></trkpt><trkpt lat="45.5817564" lon="10.71126"><ele>116.0</ele><time>2026-04-26T07:09:24.075Z</time></trkpt><trkpt lat="45.5817461" lon="10.7111204"><ele>116.0</ele><time>2026-04-26T07:09:25.074Z</time></trkpt><trkpt lat="45.581733" lon="10.7109894"><ele>116.49999999999999</ele><time>2026-04-26T07:09:26.074Z</time></trkpt><trkpt lat="45.5817196" lon="10.7108641"><ele>117.0</ele><time>2026-04-26T07:09:27.074Z</time></trkpt><trkpt lat="45.581708" lon="10.710755"><ele>117.5</ele><time>2026-04-26T07:09:28.075Z</time></trkpt><trkpt lat="45.5817056" lon="10.7106636"><ele>118.0</ele><time>2026-04-26T07:09:29.075Z</time></trkpt><trkpt lat="45.5817085" lon="10.710526"><ele>118.49999999999999</ele><time>2026-04-26T07:09:31.075Z</time></trkpt><trkpt lat="45.5817067" lon="10.7104191"><ele>119.0</ele><time>2026-04-26T07:09:33.075Z</time></trkpt><trkpt lat="45.5817258" lon="10.7103234"><ele>118.99999999999999</ele><time>2026-04-26T07:09:36.075Z</time></trkpt><trkpt lat="45.5818368" lon="10.7103018"><ele>119.0</ele><time>2026-04-26T07:09:40.074Z</time></trkpt><trkpt lat="45.5819056" lon="10.710318"><ele>119.0</ele><time>2026-04-26T07:09:41.075Z</time></trkpt><trkpt lat="45.5819876" lon="10.7103425"><ele>119.0</ele><time>2026-04-26T07:09:42.075Z</time></trkpt><trkpt lat="45.5820785" lon="10.7103655"><ele>118.99999999999999</ele><time>2026-04-26T07:09:43.074Z</time></trkpt><trkpt lat="45.5821683" lon="10.710377"><ele>119.0</ele><time>2026-04-26T07:09:44.075Z</time></trkpt><trkpt lat="45.582263" lon="10.7103823"><ele>121.0</ele><time>2026-04-26T07:09:45.075Z</time></trkpt><trkpt lat="45.5823513" lon="10.7103895"><ele>123.0</ele><time>2026-04-26T07:09:46.075Z</time></trkpt><trkpt lat="45.5824424" lon="10.7103921"><ele>125.0</ele><time>2026-04-26T07:09:47.074Z</time></trkpt><trkpt lat="45.5825368" lon="10.7103962"><ele>127.0</ele><time>2026-04-26T07:09:48.075Z</time></trkpt><trkpt lat="45.5826334" lon="10.7103941"><ele>129.0</ele><time>2026-04-26T07:09:49.074Z</time></trkpt><trkpt lat="45.5827332" lon="10.7103931"><ele>129.0</ele><time>2026-04-26T07:09:50.075Z</time></trkpt><trkpt lat="45.5828363" lon="10.7103854"><ele>129.0</ele><time>2026-04-26T07:09:51.074Z</time></trkpt><trkpt lat="45.5829429" lon="10.7103813"><ele>129.0</ele><time>2026-04-26T07:09:52.075Z</time></trkpt><trkpt lat="45.5830511" lon="10.7103633"><ele>129.0</ele><time>2026-04-26T07:09:53.074Z</time></trkpt><trkpt lat="45.5831508" lon="10.7103408"><ele>129.0</ele><time>2026-04-26T07:09:54.074Z</time></trkpt><trkpt lat="45.5832489" lon="10.7103081"><ele>130.8</ele><time>2026-04-26T07:09:55.075Z</time></trkpt><trkpt lat="45.583348" lon="10.7102824"><ele>132.60000000000002</ele><time>2026-04-26T07:09:56.074Z</time></trkpt><trkpt lat="45.5834456" lon="10.7102581"><ele>134.4</ele><time>2026-04-26T07:09:57.075Z</time></trkpt><trkpt lat="45.5835515" lon="10.7102432"><ele>136.20000000000002</ele><time>2026-04-26T07:09:58.074Z</time></trkpt><trkpt lat="45.583656" lon="10.7102408"><ele>138.0</ele><time>2026-04-26T07:09:59.075Z</time></trkpt><trkpt lat="45.5837641" lon="10.7102413"><ele>141.0</ele><time>2026-04-26T07:10:00.074Z</time></trkpt><trkpt lat="45.5838803" lon="10.7102611"><ele>144.0</ele><time>2026-04-26T07:10:01.074Z</time></trkpt><trkpt lat="45.5840183" lon="10.7102949"><ele>147.0</ele><time>2026-04-26T07:10:02.074Z</time></trkpt><trkpt lat="45.5841707" lon="10.7103304"><ele>150.0</ele><time>2026-04-26T07:10:03.074Z</time></trkpt><trkpt lat="45.5843249" lon="10.7103813"><ele>150.0</ele><time>2026-04-26T07:10:04.075Z</time></trkpt><trkpt lat="45.5844712" lon="10.710426"><ele>150.0</ele><time>2026-04-26T07:10:05.075Z</time></trkpt><trkpt lat="45.5846221" lon="10.7104887"><ele>150.0</ele><time>2026-04-26T07:10:06.074Z</time></trkpt><trkpt lat="45.5847712" lon="10.7105421"><ele>153.5</ele><time>2026-04-26T07:10:07.075Z</time></trkpt><trkpt lat="45.5849124" lon="10.7105837"><ele>157.0</ele><time>2026-04-26T07:10:08.075Z</time></trkpt><trkpt lat="45.5850491" lon="10.7106037"><ele>160.5</ele><time>2026-04-26T07:10:09.075Z</time></trkpt><trkpt lat="45.5851908" lon="10.7106109"><ele>164.0</ele><time>2026-04-26T07:10:10.074Z</time></trkpt><trkpt lat="45.5853384" lon="10.7105779"><ele>170.0</ele><time>2026-04-26T07:10:11.075Z</time></trkpt><trkpt lat="45.5854919" lon="10.7105293"><ele>176.0</ele><time>2026-04-26T07:10:12.074Z</time></trkpt><trkpt lat="45.5856398" lon="10.7104563"><ele>182.0</ele><time>2026-04-26T07:10:13.074Z</time></trkpt><trkpt lat="45.5857871" lon="10.7103809"><ele>182.0</ele><time>2026-04-26T07:10:14.075Z</time></trkpt><trkpt lat="45.5859342" lon="10.7103254"><ele>182.0</ele><time>2026-04-26T07:10:15.074Z</time></trkpt><trkpt lat="45.5860827" lon="10.7102929"><ele>182.0</ele><time>2026-04-26T07:10:16.074Z</time></trkpt><trkpt lat="45.586231" lon="10.7102754"><ele>187.25</ele><time>2026-04-26T07:10:17.075Z</time></trkpt><trkpt lat="45.5863723" lon="10.7102869"><ele>192.5</ele><time>2026-04-26T07:10:18.074Z</time></trkpt><trkpt lat="45.5865092" lon="10.7103114"><ele>197.75</ele><time>2026-04-26T07:10:19.075Z</time></trkpt><trkpt lat="45.5866399" lon="10.7103142"><ele>203.0</ele><time>2026-04-26T07:10:20.074Z</time></trkpt><trkpt lat="45.5867663" lon="10.7102933"><ele>203.0</ele><time>2026-04-26T07:10:21.074Z</time></trkpt><trkpt lat="45.5868864" lon="10.710259"><ele>203.0</ele><time>2026-04-26T07:10:22.075Z</time></trkpt><trkpt lat="45.586988" lon="10.7102084"><ele>203.0</ele><time>2026-04-26T07:10:23.074Z</time></trkpt><trkpt lat="45.5870641" lon="10.7101619"><ele>203.0</ele><time>2026-04-26T07:10:24.074Z</time></trkpt><trkpt lat="45.5871439" lon="10.7101518"><ele>203.0</ele><time>2026-04-26T07:10:25.075Z</time></trkpt><trkpt lat="45.5872091" lon="10.7101551"><ele>203.4</ele><time>2026-04-26T07:10:26.074Z</time></trkpt><trkpt lat="45.5873021" lon="10.7102379"><ele>203.8</ele><time>2026-04-26T07:10:28.074Z</time></trkpt><trkpt lat="45.5872556" lon="10.7103634"><ele>204.2</ele><time>2026-04-26T07:10:30.074Z</time></trkpt><trkpt lat="45.5871874" lon="10.7104349"><ele>204.6</ele><time>2026-04-26T07:10:31.075Z</time></trkpt><trkpt lat="45.5871151" lon="10.7105008"><ele>205.0</ele><time>2026-04-26T07:10:32.074Z</time></trkpt><trkpt lat="45.5870571" lon="10.7105649"><ele>208.0</ele><time>2026-04-26T07:10:33.073Z</time></trkpt><trkpt lat="45.5870307" lon="10.7107037"><ele>211.0</ele><time>2026-04-26T07:10:35.074Z</time></trkpt><trkpt lat="45.5871324" lon="10.7107739"><ele>214.0</ele><time>2026-04-26T07:10:37.074Z</time></trkpt><trkpt lat="45.5872085" lon="10.7107623"><ele>217.0</ele><time>2026-04-26T07:10:38.074Z</time></trkpt><trkpt lat="45.5873028" lon="10.7107267"><ele>220.0</ele><time>2026-04-26T07:10:39.074Z</time></trkpt><trkpt lat="45.5874124" lon="10.7106324"><ele>220.0</ele><time>2026-04-26T07:10:40.074Z</time></trkpt><trkpt lat="45.5875378" lon="10.7105154"><ele>220.0</ele><time>2026-04-26T07:10:41.074Z</time></trkpt><trkpt lat="45.5876643" lon="10.7103971"><ele>220.0</ele><time>2026-04-26T07:10:42.074Z</time></trkpt><trkpt lat="45.5877944" lon="10.7103128"><ele>220.0</ele><time>2026-04-26T07:10:43.074Z</time></trkpt><trkpt lat="45.5879205" lon="10.7102714"><ele>223.0</ele><time>2026-04-26T07:10:44.073Z</time></trkpt><trkpt lat="45.5880372" lon="10.7102564"><ele>226.0</ele><time>2026-04-26T07:10:45.074Z</time></trkpt><trkpt lat="45.5881424" lon="10.7102834"><ele>229.0</ele><time>2026-04-26T07:10:46.073Z</time></trkpt><trkpt lat="45.5882482" lon="10.7103366"><ele>232.0</ele><time>2026-04-26T07:10:47.073Z</time></trkpt><trkpt lat="45.5883533" lon="10.7103734"><ele>235.0</ele><time>2026-04-26T07:10:48.074Z</time></trkpt><trkpt lat="45.5884626" lon="10.7103932"><ele>235.0</ele><time>2026-04-26T07:10:49.074Z</time></trkpt><trkpt lat="45.5885564" lon="10.7103683"><ele>235.0</ele><time>2026-04-26T07:10:50.074Z</time></trkpt><trkpt lat="45.5886331" lon="10.7102977"><ele>235.0</ele><time>2026-04-26T07:10:51.073Z</time></trkpt><trkpt lat="45.5886931" lon="10.7101995"><ele>235.0</ele><time>2026-04-26T07:10:52.073Z</time></trkpt><trkpt lat="45.5887209" lon="10.7100653"><ele>235.0</ele><time>2026-04-26T07:10:53.073Z</time></trkpt><trkpt lat="45.5887186" lon="10.7099041"><ele>235.25</ele><time>2026-04-26T07:10:54.073Z</time></trkpt><trkpt lat="45.5886875" lon="10.7097315"><ele>235.5</ele><time>2026-04-26T07:10:55.074Z</time></trkpt><trkpt lat="45.5886242" lon="10.7095561"><ele>235.75</ele><time>2026-04-26T07:10:56.074Z</time></trkpt><trkpt lat="45.5885411" lon="10.7093992"><ele>236.0</ele><time>2026-04-26T07:10:57.073Z</time></trkpt><trkpt lat="45.5884639" lon="10.709268"><ele>237.16666666666669</ele><time>2026-04-26T07:10:58.074Z</time></trkpt><trkpt lat="45.5884131" lon="10.7091592"><ele>238.33333333333334</ele><time>2026-04-26T07:10:59.073Z</time></trkpt><trkpt lat="45.5883986" lon="10.7090518"><ele>239.5</ele><time>2026-04-26T07:11:00.074Z</time></trkpt><trkpt lat="45.5884191" lon="10.7089564"><ele>240.66666666666669</ele><time>2026-04-26T07:11:01.073Z</time></trkpt><trkpt lat="45.5884849" lon="10.7088944"><ele>241.83333333333334</ele><time>2026-04-26T07:11:02.074Z</time></trkpt><trkpt lat="45.5885688" lon="10.7088828"><ele>243.0</ele><time>2026-04-26T07:11:03.073Z</time></trkpt><trkpt lat="45.5886806" lon="10.7089331"><ele>243.0</ele><time>2026-04-26T07:11:04.074Z</time></trkpt><trkpt lat="45.5888008" lon="10.7090502"><ele>243.0</ele><time>2026-04-26T07:11:05.074Z</time></trkpt><trkpt lat="45.588927" lon="10.7092113"><ele>243.0</ele><time>2026-04-26T07:11:06.074Z</time></trkpt><trkpt lat="45.5890413" lon="10.709367"><ele>240.66666666666669</ele><time>2026-04-26T07:11:07.074Z</time></trkpt><trkpt lat="45.5891378" lon="10.7095378"><ele>238.33333333333334</ele><time>2026-04-26T07:11:08.073Z</time></trkpt><trkpt lat="45.5892189" lon="10.7097132"><ele>236.0</ele><time>2026-04-26T07:11:09.074Z</time></trkpt><trkpt lat="45.5893024" lon="10.709903"><ele>236.0</ele><time>2026-04-26T07:11:10.073Z</time></trkpt><trkpt lat="45.5893753" lon="10.7100902"><ele>236.0</ele><time>2026-04-26T07:11:11.074Z</time></trkpt><trkpt lat="45.5894526" lon="10.7102793"><ele>236.0</ele><time>2026-04-26T07:11:12.074Z</time></trkpt><trkpt lat="45.5895173" lon="10.7104518"><ele>236.0</ele><time>2026-04-26T07:11:13.074Z</time></trkpt><trkpt lat="45.5895596" lon="10.71062"><ele>239.5</ele><time>2026-04-26T07:11:14.074Z</time></trkpt><trkpt lat="45.5895731" lon="10.7107872"><ele>243.0</ele><time>2026-04-26T07:11:15.074Z</time></trkpt><trkpt lat="45.5895546" lon="10.7109464"><ele>246.5</ele><time>2026-04-26T07:11:16.074Z</time></trkpt><trkpt lat="45.5895107" lon="10.7111004"><ele>250.0</ele><time>2026-04-26T07:11:17.074Z</time></trkpt><trkpt lat="45.5894528" lon="10.7112621"><ele>250.0</ele><time>2026-04-26T07:11:18.074Z</time></trkpt><trkpt lat="45.589393" lon="10.7114204"><ele>250.0</ele><time>2026-04-26T07:11:19.074Z</time></trkpt><trkpt lat="45.5893339" lon="10.7115525"><ele>250.0</ele><time>2026-04-26T07:11:20.073Z</time></trkpt><trkpt lat="45.5892697" lon="10.7116561"><ele>250.0</ele><time>2026-04-26T07:11:21.074Z</time></trkpt><trkpt lat="45.5892036" lon="10.7117284"><ele>250.0</ele><time>2026-04-26T07:11:22.074Z</time></trkpt><trkpt lat="45.5891332" lon="10.7117733"><ele>250.0</ele><time>2026-04-26T07:11:23.073Z</time></trkpt><trkpt lat="45.5890477" lon="10.7117991"><ele>250.0</ele><time>2026-04-26T07:11:24.073Z</time></trkpt><trkpt lat="45.5889366" lon="10.7118185"><ele>250.0</ele><time>2026-04-26T07:11:25.074Z</time></trkpt><trkpt lat="45.5888349" lon="10.711834"><ele>250.0</ele><time>2026-04-26T07:11:26.074Z</time></trkpt><trkpt lat="45.5887521" lon="10.711858"><ele>250.0</ele><time>2026-04-26T07:11:27.073Z</time></trkpt><trkpt lat="45.5886921" lon="10.7118971"><ele>253.2</ele><time>2026-04-26T07:11:28.074Z</time></trkpt><trkpt lat="45.5887059" lon="10.7120067"><ele>256.4</ele><time>2026-04-26T07:11:30.074Z</time></trkpt><trkpt lat="45.5887855" lon="10.7120567"><ele>259.6</ele><time>2026-04-26T07:11:31.073Z</time></trkpt><trkpt lat="45.5888864" lon="10.7121044"><ele>262.8</ele><time>2026-04-26T07:11:32.074Z</time></trkpt><trkpt lat="45.5890101" lon="10.7121605"><ele>266.0</ele><time>2026-04-26T07:11:33.073Z</time></trkpt><trkpt lat="45.5891587" lon="10.7122125"><ele>266.0</ele><time>2026-04-26T07:11:34.074Z</time></trkpt><trkpt lat="45.5893201" lon="10.712248"><ele>266.0</ele><time>2026-04-26T07:11:35.073Z</time></trkpt><trkpt lat="45.5894801" lon="10.712238"><ele>266.0</ele><time>2026-04-26T07:11:36.073Z</time></trkpt><trkpt lat="45.5896396" lon="10.712181"><ele>267.0</ele><time>2026-04-26T07:11:37.073Z</time></trkpt><trkpt lat="45.5897951" lon="10.7120968"><ele>268.0</ele><time>2026-04-26T07:11:38.074Z</time></trkpt><trkpt lat="45.5899536" lon="10.7119886"><ele>269.0</ele><time>2026-04-26T07:11:39.074Z</time></trkpt><trkpt lat="45.590102" lon="10.7118617"><ele>269.0</ele><time>2026-04-26T07:11:40.074Z</time></trkpt><trkpt lat="45.5902329" lon="10.7117413"><ele>269.0</ele><time>2026-04-26T07:11:41.074Z</time></trkpt><trkpt lat="45.5903498" lon="10.7116349"><ele>269.0</ele><time>2026-04-26T07:11:42.074Z</time></trkpt><trkpt lat="45.5904477" lon="10.7115539"><ele>269.0</ele><time>2026-04-26T07:11:43.074Z</time></trkpt><trkpt lat="45.5905404" lon="10.7115135"><ele>272.0</ele><time>2026-04-26T07:11:44.073Z</time></trkpt><trkpt lat="45.5906301" lon="10.7115105"><ele>275.0</ele><time>2026-04-26T07:11:45.073Z</time></trkpt><trkpt lat="45.5907208" lon="10.7115392"><ele>278.0</ele><time>2026-04-26T07:11:46.073Z</time></trkpt><trkpt lat="45.5908351" lon="10.7116039"><ele>281.0</ele><time>2026-04-26T07:11:47.073Z</time></trkpt><trkpt lat="45.5909719" lon="10.7116922"><ele>281.0</ele><time>2026-04-26T07:11:48.073Z</time></trkpt><trkpt lat="45.5911166" lon="10.7117815"><ele>281.0</ele><time>2026-04-26T07:11:49.074Z</time></trkpt><trkpt lat="45.5912597" lon="10.7118794"><ele>281.0</ele><time>2026-04-26T07:11:50.074Z</time></trkpt><trkpt lat="45.5913987" lon="10.7119503"><ele>281.5</ele><time>2026-04-26T07:11:51.074Z</time></trkpt><trkpt lat="45.591533" lon="10.7120101"><ele>282.0</ele><time>2026-04-26T07:11:52.073Z</time></trkpt><trkpt lat="45.5916676" lon="10.7120507"><ele>282.5</ele><time>2026-04-26T07:11:53.073Z</time></trkpt><trkpt lat="45.5918089" lon="10.7120834"><ele>283.0</ele><time>2026-04-26T07:11:54.074Z</time></trkpt><trkpt lat="45.5919607" lon="10.71212"><ele>283.66666666666663</ele><time>2026-04-26T07:11:55.074Z</time></trkpt><trkpt lat="45.5921326" lon="10.7121624"><ele>284.3333333333333</ele><time>2026-04-26T07:11:56.073Z</time></trkpt><trkpt lat="45.5922846" lon="10.7121929"><ele>285.0</ele><time>2026-04-26T07:11:57.074Z</time></trkpt><trkpt lat="45.5924262" lon="10.7122337"><ele>285.0</ele><time>2026-04-26T07:11:58.074Z</time></trkpt><trkpt lat="45.5925581" lon="10.7122842"><ele>285.0</ele><time>2026-04-26T07:11:59.074Z</time></trkpt><trkpt lat="45.5926829" lon="10.7122979"><ele>285.0</ele><time>2026-04-26T07:12:00.074Z</time></trkpt><trkpt lat="45.5928182" lon="10.7122974"><ele>285.0</ele><time>2026-04-26T07:12:01.073Z</time></trkpt><trkpt lat="45.5929671" lon="10.7123086"><ele>285.3333333333333</ele><time>2026-04-26T07:12:02.073Z</time></trkpt><trkpt lat="45.5931484" lon="10.7123381"><ele>285.66666666666663</ele><time>2026-04-26T07:12:03.073Z</time></trkpt><trkpt lat="45.5933363" lon="10.7123706"><ele>286.0</ele><time>2026-04-26T07:12:04.074Z</time></trkpt><trkpt lat="45.5935043" lon="10.7123923"><ele>286.0</ele><time>2026-04-26T07:12:05.073Z</time></trkpt><trkpt lat="45.5936349" lon="10.7124149"><ele>286.0</ele><time>2026-04-26T07:12:06.073Z</time></trkpt><trkpt lat="45.5937539" lon="10.7124618"><ele>286.0</ele><time>2026-04-26T07:12:07.073Z</time></trkpt><trkpt lat="45.593853" lon="10.7125277"><ele>286.0</ele><time>2026-04-26T07:12:08.074Z</time></trkpt><trkpt lat="45.5939356" lon="10.7126075"><ele>288.6</ele><time>2026-04-26T07:12:09.074Z</time></trkpt><trkpt lat="45.5939996" lon="10.7127117"><ele>291.20000000000005</ele><time>2026-04-26T07:12:10.074Z</time></trkpt><trkpt lat="45.5940536" lon="10.7128629"><ele>293.79999999999995</ele><time>2026-04-26T07:12:11.073Z</time></trkpt><trkpt lat="45.5940882" lon="10.713025"><ele>296.4</ele><time>2026-04-26T07:12:12.074Z</time></trkpt><trkpt lat="45.5941153" lon="10.7131662"><ele>299.0</ele><time>2026-04-26T07:12:13.074Z</time></trkpt><trkpt lat="45.5941471" lon="10.7132778"><ele>299.1666666666667</ele><time>2026-04-26T07:12:14.073Z</time></trkpt><trkpt lat="45.5941922" lon="10.7133743"><ele>299.33333333333337</ele><time>2026-04-26T07:12:15.074Z</time></trkpt><trkpt lat="45.5942347" lon="10.7134571"><ele>299.5</ele><time>2026-04-26T07:12:16.073Z</time></trkpt><trkpt lat="45.594313" lon="10.7135657"><ele>299.6666666666667</ele><time>2026-04-26T07:12:18.074Z</time></trkpt><trkpt lat="45.5943276" lon="10.7136703"><ele>299.8333333333333</ele><time>2026-04-26T07:12:21.074Z</time></trkpt><trkpt lat="45.5942364" lon="10.7137354"><ele>300.0</ele><time>2026-04-26T07:12:23.074Z</time></trkpt><trkpt lat="45.5941647" lon="10.7137962"><ele>299.99999999999994</ele><time>2026-04-26T07:12:24.074Z</time></trkpt><trkpt lat="45.5940949" lon="10.7138614"><ele>300.0</ele><time>2026-04-26T07:12:25.074Z</time></trkpt><trkpt lat="45.5940386" lon="10.7139288"><ele>300.0</ele><time>2026-04-26T07:12:26.073Z</time></trkpt><trkpt lat="45.593999" lon="10.7140078"><ele>300.0</ele><time>2026-04-26T07:12:27.074Z</time></trkpt><trkpt lat="45.5939813" lon="10.7140958"><ele>300.0</ele><time>2026-04-26T07:12:28.074Z</time></trkpt><trkpt lat="45.5939714" lon="10.7142063"><ele>299.99999999999994</ele><time>2026-04-26T07:12:29.074Z</time></trkpt><trkpt lat="45.5939658" lon="10.7142999"><ele>300.0</ele><time>2026-04-26T07:12:30.073Z</time></trkpt><trkpt lat="45.5939532" lon="10.7143895"><ele>299.5</ele><time>2026-04-26T07:12:31.074Z</time></trkpt><trkpt lat="45.5939424" lon="10.7144813"><ele>299.0</ele><time>2026-04-26T07:12:32.074Z</time></trkpt><trkpt lat="45.5939299" lon="10.7145717"><ele>298.5</ele><time>2026-04-26T07:12:33.074Z</time></trkpt><trkpt lat="45.5939129" lon="10.7146676"><ele>298.0</ele><time>2026-04-26T07:12:34.074Z</time></trkpt><trkpt lat="45.5938958" lon="10.7147584"><ele>297.5</ele><time>2026-04-26T07:12:35.073Z</time></trkpt><trkpt lat="45.5938692" lon="10.7149305"><ele>297.0</ele><time>2026-04-26T07:12:37.074Z</time></trkpt><trkpt lat="45.5938494" lon="10.7150947"><ele>297.0</ele><time>2026-04-26T07:12:39.074Z</time></trkpt><trkpt lat="45.5938319" lon="10.7152366"><ele>297.0</ele><time>2026-04-26T07:12:41.074Z</time></trkpt><trkpt lat="45.5938092" lon="10.7153401"><ele>297.0</ele><time>2026-04-26T07:12:43.073Z</time></trkpt><trkpt lat="45.5937778" lon="10.715453"><ele>297.0</ele><time>2026-04-26T07:12:45.073Z</time></trkpt><trkpt lat="45.5937347" lon="10.715571"><ele>297.0</ele><time>2026-04-26T07:12:47.073Z</time></trkpt><trkpt lat="45.5936937" lon="10.7157023"><ele>294.8333333333333</ele><time>2026-04-26T07:12:49.073Z</time></trkpt><trkpt lat="45.5936523" lon="10.7158292"><ele>292.6666666666667</ele><time>2026-04-26T07:12:51.074Z</time></trkpt><trkpt lat="45.5936309" lon="10.7159482"><ele>290.5</ele><time>2026-04-26T07:12:53.074Z</time></trkpt><trkpt lat="45.5935755" lon="10.7160311"><ele>288.33333333333337</ele><time>2026-04-26T07:12:56.073Z</time></trkpt><trkpt lat="45.5935013" lon="10.7160558"><ele>286.1666666666667</ele><time>2026-04-26T07:12:58.074Z</time></trkpt><trkpt lat="45.5934344" lon="10.716097"><ele>284.0</ele><time>2026-04-26T07:13:00.074Z</time></trkpt><trkpt lat="45.5933818" lon="10.716198"><ele>283.5</ele><time>2026-04-26T07:13:02.074Z</time></trkpt><trkpt lat="45.5933337" lon="10.7163705"><ele>283.0</ele><time>2026-04-26T07:13:04.073Z</time></trkpt><trkpt lat="45.5932914" lon="10.716536"><ele>282.5</ele><time>2026-04-26T07:13:06.074Z</time></trkpt><trkpt lat="45.5932195" lon="10.7166643"><ele>282.0</ele><time>2026-04-26T07:13:08.074Z</time></trkpt><trkpt lat="45.5931264" lon="10.7167688"><ele>282.0</ele><time>2026-04-26T07:13:10.073Z</time></trkpt><trkpt lat="45.5930746" lon="10.7168221"><ele>282.0</ele><time>2026-04-26T07:13:11.074Z</time></trkpt><trkpt lat="45.5930186" lon="10.7168728"><ele>282.0</ele><time>2026-04-26T07:13:12.074Z</time></trkpt><trkpt lat="45.5929571" lon="10.7169153"><ele>282.0</ele><time>2026-04-26T07:13:13.073Z</time></trkpt><trkpt lat="45.5928531" lon="10.7169783"><ele>282.0</ele><time>2026-04-26T07:13:15.073Z</time></trkpt><trkpt lat="45.5927314" lon="10.7170264"><ele>282.0</ele><time>2026-04-26T07:13:17.073Z</time></trkpt><trkpt lat="45.5926606" lon="10.7170366"><ele>279.8333333333333</ele><time>2026-04-26T07:13:18.073Z</time></trkpt><trkpt lat="45.5925971" lon="10.7170263"><ele>277.6666666666667</ele><time>2026-04-26T07:13:19.073Z</time></trkpt><trkpt lat="45.5924911" lon="10.7169895"><ele>275.5</ele><time>2026-04-26T07:13:21.073Z</time></trkpt><trkpt lat="45.592409" lon="10.7169813"><ele>273.33333333333337</ele><time>2026-04-26T07:13:23.073Z</time></trkpt><trkpt lat="45.5923475" lon="10.7170108"><ele>271.1666666666667</ele><time>2026-04-26T07:13:25.074Z</time></trkpt><trkpt lat="45.5922931" lon="10.7171412"><ele>269.0</ele><time>2026-04-26T07:13:27.073Z</time></trkpt><trkpt lat="45.5922583" lon="10.7172426"><ele>269.0</ele><time>2026-04-26T07:13:28.074Z</time></trkpt><trkpt lat="45.592202" lon="10.717354"><ele>269.0</ele><time>2026-04-26T07:13:29.074Z</time></trkpt><trkpt lat="45.5921261" lon="10.7174727"><ele>269.0</ele><time>2026-04-26T07:13:30.074Z</time></trkpt><trkpt lat="45.59204" lon="10.717588"><ele>269.0</ele><time>2026-04-26T07:13:31.073Z</time></trkpt><trkpt lat="45.5919514" lon="10.7176879"><ele>269.0</ele><time>2026-04-26T07:13:32.073Z</time></trkpt><trkpt lat="45.5918718" lon="10.7177682"><ele>267.83333333333337</ele><time>2026-04-26T07:13:33.074Z</time></trkpt><trkpt lat="45.5917956" lon="10.7178418"><ele>266.6666666666667</ele><time>2026-04-26T07:13:34.074Z</time></trkpt><trkpt lat="45.5917152" lon="10.7178948"><ele>265.5</ele><time>2026-04-26T07:13:35.074Z</time></trkpt><trkpt lat="45.5916313" lon="10.71793"><ele>264.3333333333333</ele><time>2026-04-26T07:13:36.074Z</time></trkpt><trkpt lat="45.5915508" lon="10.7179797"><ele>263.16666666666663</ele><time>2026-04-26T07:13:37.073Z</time></trkpt><trkpt lat="45.5914842" lon="10.7180491"><ele>262.0</ele><time>2026-04-26T07:13:38.074Z</time></trkpt><trkpt lat="45.5914235" lon="10.7181428"><ele>262.0</ele><time>2026-04-26T07:13:39.074Z</time></trkpt><trkpt lat="45.5913673" lon="10.7182488"><ele>262.0</ele><time>2026-04-26T07:13:40.074Z</time></trkpt><trkpt lat="45.5913154" lon="10.7183387"><ele>262.0</ele><time>2026-04-26T07:13:41.074Z</time></trkpt><trkpt lat="45.5912668" lon="10.7184169"><ele>262.0</ele><time>2026-04-26T07:13:42.074Z</time></trkpt><trkpt lat="45.5911573" lon="10.718517"><ele>262.0</ele><time>2026-04-26T07:13:44.074Z</time></trkpt><trkpt lat="45.5910846" lon="10.7185631"><ele>261.8333333333333</ele><time>2026-04-26T07:13:45.074Z</time></trkpt><trkpt lat="45.5910078" lon="10.7185963"><ele>261.66666666666663</ele><time>2026-04-26T07:13:46.074Z</time></trkpt><trkpt lat="45.5909267" lon="10.7186213"><ele>261.5</ele><time>2026-04-26T07:13:47.073Z</time></trkpt><trkpt lat="45.5908473" lon="10.7186396"><ele>261.3333333333333</ele><time>2026-04-26T07:13:48.073Z</time></trkpt><trkpt lat="45.5907777" lon="10.7186594"><ele>261.1666666666667</ele><time>2026-04-26T07:13:49.072Z</time></trkpt><trkpt lat="45.5906852" lon="10.718716"><ele>261.0</ele><time>2026-04-26T07:13:51.073Z</time></trkpt><trkpt lat="45.5906541" lon="10.7188098"><ele>261.0</ele><time>2026-04-26T07:13:54.073Z</time></trkpt><trkpt lat="45.5907356" lon="10.7188973"><ele>261.0</ele><time>2026-04-26T07:13:56.073Z</time></trkpt><trkpt lat="45.5908197" lon="10.7189505"><ele>261.0</ele><time>2026-04-26T07:13:57.073Z</time></trkpt><trkpt lat="45.5909206" lon="10.7190107"><ele>261.0</ele><time>2026-04-26T07:13:58.073Z</time></trkpt><trkpt lat="45.5910144" lon="10.7190775"><ele>261.0</ele><time>2026-04-26T07:13:59.073Z</time></trkpt><trkpt lat="45.5911021" lon="10.7191547"><ele>261.0</ele><time>2026-04-26T07:14:00.072Z</time></trkpt><trkpt lat="45.5911913" lon="10.7192571"><ele>261.0</ele><time>2026-04-26T07:14:01.073Z</time></trkpt><trkpt lat="45.5912785" lon="10.7193622"><ele>261.0</ele><time>2026-04-26T07:14:02.073Z</time></trkpt><trkpt lat="45.59137" lon="10.7194675"><ele>261.0</ele><time>2026-04-26T07:14:03.073Z</time></trkpt><trkpt lat="45.591456" lon="10.7195694"><ele>261.0</ele><time>2026-04-26T07:14:04.073Z</time></trkpt><trkpt lat="45.5915382" lon="10.7196722"><ele>261.0</ele><time>2026-04-26T07:14:05.073Z</time></trkpt><trkpt lat="45.591613" lon="10.7197705"><ele>261.0</ele><time>2026-04-26T07:14:06.072Z</time></trkpt><trkpt lat="45.5916774" lon="10.7198654"><ele>261.0</ele><time>2026-04-26T07:14:07.073Z</time></trkpt><trkpt lat="45.5917429" lon="10.7199497"><ele>261.0</ele><time>2026-04-26T07:14:08.073Z</time></trkpt><trkpt lat="45.5918136" lon="10.7200373"><ele>261.0</ele><time>2026-04-26T07:14:09.072Z</time></trkpt><trkpt lat="45.5918835" lon="10.720121"><ele>261.0</ele><time>2026-04-26T07:14:10.073Z</time></trkpt><trkpt lat="45.5919594" lon="10.7202125"><ele>261.0</ele><time>2026-04-26T07:14:11.073Z</time></trkpt><trkpt lat="45.592031" lon="10.720299"><ele>261.0</ele><time>2026-04-26T07:14:12.073Z</time></trkpt><trkpt lat="45.5920979" lon="10.7203798"><ele>261.0</ele><time>2026-04-26T07:14:13.073Z</time></trkpt><trkpt lat="45.5921648" lon="10.7204566"><ele>261.40000000000003</ele><time>2026-04-26T07:14:14.073Z</time></trkpt><trkpt lat="45.5922317" lon="10.7205331"><ele>261.8</ele><time>2026-04-26T07:14:15.072Z</time></trkpt><trkpt lat="45.5923025" lon="10.7206149"><ele>262.20000000000005</ele><time>2026-04-26T07:14:16.073Z</time></trkpt><trkpt lat="45.5923807" lon="10.7206924"><ele>262.6</ele><time>2026-04-26T07:14:17.072Z</time></trkpt><trkpt lat="45.592456" lon="10.7207528"><ele>263.0</ele><time>2026-04-26T07:14:18.073Z</time></trkpt><trkpt lat="45.5925391" lon="10.7208077"><ele>263.0</ele><time>2026-04-26T07:14:19.073Z</time></trkpt><trkpt lat="45.5926156" lon="10.7208632"><ele>263.0</ele><time>2026-04-26T07:14:20.073Z</time></trkpt><trkpt lat="45.5926895" lon="10.7209233"><ele>263.0</ele><time>2026-04-26T07:14:21.073Z</time></trkpt><trkpt lat="45.5927584" lon="10.7209872"><ele>263.0</ele><time>2026-04-26T07:14:22.073Z</time></trkpt><trkpt lat="45.5928246" lon="10.7210613"><ele>263.0</ele><time>2026-04-26T07:14:23.073Z</time></trkpt><trkpt lat="45.5928857" lon="10.7211501"><ele>263.0</ele><time>2026-04-26T07:14:24.073Z</time></trkpt><trkpt lat="45.5929453" lon="10.7212527"><ele>264.2</ele><time>2026-04-26T07:14:25.072Z</time></trkpt><trkpt lat="45.5929931" lon="10.7213676"><ele>265.4</ele><time>2026-04-26T07:14:26.073Z</time></trkpt><trkpt lat="45.5930464" lon="10.7214859"><ele>266.59999999999997</ele><time>2026-04-26T07:14:27.072Z</time></trkpt><trkpt lat="45.593107" lon="10.721604"><ele>267.8</ele><time>2026-04-26T07:14:28.073Z</time></trkpt><trkpt lat="45.5931688" lon="10.721719"><ele>269.0</ele><time>2026-04-26T07:14:29.073Z</time></trkpt><trkpt lat="45.5932313" lon="10.7218365"><ele>267.59999999999997</ele><time>2026-04-26T07:14:30.073Z</time></trkpt><trkpt lat="45.5932933" lon="10.72195"><ele>266.2</ele><time>2026-04-26T07:14:31.073Z</time></trkpt><trkpt lat="45.5933556" lon="10.7220659"><ele>264.79999999999995</ele><time>2026-04-26T07:14:32.073Z</time></trkpt><trkpt lat="45.5934096" lon="10.7221864"><ele>263.4</ele><time>2026-04-26T07:14:33.072Z</time></trkpt><trkpt lat="45.5934627" lon="10.7223065"><ele>262.0</ele><time>2026-04-26T07:14:34.072Z</time></trkpt><trkpt lat="45.5935169" lon="10.7224172"><ele>262.0</ele><time>2026-04-26T07:14:35.073Z</time></trkpt><trkpt lat="45.5935757" lon="10.7225215"><ele>262.0</ele><time>2026-04-26T07:14:36.073Z</time></trkpt><trkpt lat="45.5936332" lon="10.7226218"><ele>262.0</ele><time>2026-04-26T07:14:37.072Z</time></trkpt><trkpt lat="45.5936922" lon="10.7227179"><ele>262.0</ele><time>2026-04-26T07:14:38.072Z</time></trkpt><trkpt lat="45.5937456" lon="10.7228167"><ele>262.0</ele><time>2026-04-26T07:14:39.073Z</time></trkpt><trkpt lat="45.5937976" lon="10.7229332"><ele>261.2</ele><time>2026-04-26T07:14:40.073Z</time></trkpt><trkpt lat="45.5938456" lon="10.7230516"><ele>260.4</ele><time>2026-04-26T07:14:41.073Z</time></trkpt><trkpt lat="45.5939014" lon="10.723172"><ele>259.6</ele><time>2026-04-26T07:14:42.073Z</time></trkpt><trkpt lat="45.5939621" lon="10.7232896"><ele>258.8</ele><time>2026-04-26T07:14:43.073Z</time></trkpt><trkpt lat="45.5940279" lon="10.7233948"><ele>258.0</ele><time>2026-04-26T07:14:44.073Z</time></trkpt><trkpt lat="45.5940948" lon="10.7234857"><ele>258.0</ele><time>2026-04-26T07:14:45.073Z</time></trkpt><trkpt lat="45.5941592" lon="10.723568"><ele>258.0</ele><time>2026-04-26T07:14:46.073Z</time></trkpt><trkpt lat="45.5942216" lon="10.7236379"><ele>258.0</ele><time>2026-04-26T07:14:47.073Z</time></trkpt><trkpt lat="45.5942851" lon="10.7236929"><ele>258.0</ele><time>2026-04-26T07:14:48.072Z</time></trkpt><trkpt lat="45.5943514" lon="10.723736"><ele>258.0</ele><time>2026-04-26T07:14:49.072Z</time></trkpt><trkpt lat="45.5944142" lon="10.7237586"><ele>258.0</ele><time>2026-04-26T07:14:50.073Z</time></trkpt><trkpt lat="45.5945296" lon="10.7237947"><ele>258.2</ele><time>2026-04-26T07:14:52.073Z</time></trkpt><trkpt lat="45.594622" lon="10.7238235"><ele>258.4</ele><time>2026-04-26T07:14:54.073Z</time></trkpt><trkpt lat="45.5947163" lon="10.7238043"><ele>258.59999999999997</ele><time>2026-04-26T07:14:56.073Z</time></trkpt><trkpt lat="45.5948123" lon="10.7237507"><ele>258.8</ele><time>2026-04-26T07:14:58.072Z</time></trkpt><trkpt lat="45.5949231" lon="10.7237634"><ele>259.0</ele><time>2026-04-26T07:15:00.072Z</time></trkpt><trkpt lat="45.5950226" lon="10.7237889"><ele>259.0</ele><time>2026-04-26T07:15:02.073Z</time></trkpt><trkpt lat="45.5951033" lon="10.7238017"><ele>259.0</ele><time>2026-04-26T07:15:04.073Z</time></trkpt><trkpt lat="45.5951958" lon="10.723816"><ele>259.0</ele><time>2026-04-26T07:15:06.073Z</time></trkpt><trkpt lat="45.5952595" lon="10.7238271"><ele>259.0</ele><time>2026-04-26T07:15:07.072Z</time></trkpt><trkpt lat="45.5953275" lon="10.7238428"><ele>259.0</ele><time>2026-04-26T07:15:08.073Z</time></trkpt><trkpt lat="45.5954517" lon="10.7238908"><ele>259.0</ele><time>2026-04-26T07:15:10.073Z</time></trkpt><trkpt lat="45.5955122" lon="10.7239351"><ele>258.8333333333333</ele><time>2026-04-26T07:15:11.072Z</time></trkpt><trkpt lat="45.5956185" lon="10.724018"><ele>258.66666666666663</ele><time>2026-04-26T07:15:13.073Z</time></trkpt><trkpt lat="45.5957296" lon="10.7240799"><ele>258.5</ele><time>2026-04-26T07:15:15.072Z</time></trkpt><trkpt lat="45.5957907" lon="10.7241018"><ele>258.3333333333333</ele><time>2026-04-26T07:15:16.073Z</time></trkpt><trkpt lat="45.5958517" lon="10.7241321"><ele>258.1666666666667</ele><time>2026-04-26T07:15:17.073Z</time></trkpt><trkpt lat="45.5959184" lon="10.7241627"><ele>258.0</ele><time>2026-04-26T07:15:18.073Z</time></trkpt><trkpt lat="45.5959827" lon="10.7242036"><ele>258.0</ele><time>2026-04-26T07:15:19.073Z</time></trkpt><trkpt lat="45.5960401" lon="10.7242475"><ele>258.0</ele><time>2026-04-26T07:15:20.073Z</time></trkpt><trkpt lat="45.5961367" lon="10.7243162"><ele>258.0</ele><time>2026-04-26T07:15:22.072Z</time></trkpt><trkpt lat="45.5962266" lon="10.7243725"><ele>258.0</ele><time>2026-04-26T07:15:24.072Z</time></trkpt><trkpt lat="45.5963219" lon="10.7244556"><ele>258.0</ele><time>2026-04-26T07:15:26.073Z</time></trkpt><trkpt lat="45.5963981" lon="10.7245293"><ele>258.3333333333333</ele><time>2026-04-26T07:15:28.073Z</time></trkpt><trkpt lat="45.5964778" lon="10.72459"><ele>258.6666666666667</ele><time>2026-04-26T07:15:30.073Z</time></trkpt><trkpt lat="45.5965591" lon="10.724639"><ele>259.0</ele><time>2026-04-26T07:15:32.072Z</time></trkpt><trkpt lat="45.5966371" lon="10.7246656"><ele>259.33333333333337</ele><time>2026-04-26T07:15:34.073Z</time></trkpt><trkpt lat="45.5967002" lon="10.7246925"><ele>259.6666666666667</ele><time>2026-04-26T07:15:36.073Z</time></trkpt><trkpt lat="45.5967622" lon="10.7247156"><ele>260.0</ele><time>2026-04-26T07:15:39.072Z</time></trkpt><trkpt lat="45.5968288" lon="10.7247473"><ele>260.0</ele><time>2026-04-26T07:15:42.072Z</time></trkpt><trkpt lat="45.5969416" lon="10.724773"><ele>260.0</ele><time>2026-04-26T07:15:55.073Z</time></trkpt><trkpt lat="45.5970439" lon="10.724784"><ele>260.0</ele><time>2026-04-26T07:15:57.072Z</time></trkpt><trkpt lat="45.5971256" lon="10.7247812"><ele>260.0</ele><time>2026-04-26T07:15:59.073Z</time></trkpt><trkpt lat="45.5972056" lon="10.7247303"><ele>260.0</ele><time>2026-04-26T07:16:01.073Z</time></trkpt><trkpt lat="45.5972696" lon="10.7246292"><ele>260.1666666666667</ele><time>2026-04-26T07:16:03.072Z</time></trkpt><trkpt lat="45.5973149" lon="10.7245212"><ele>260.33333333333337</ele><time>2026-04-26T07:16:05.073Z</time></trkpt><trkpt lat="45.5973721" lon="10.7244597"><ele>260.5</ele><time>2026-04-26T07:16:07.073Z</time></trkpt><trkpt lat="45.5974358" lon="10.7244285"><ele>260.6666666666667</ele><time>2026-04-26T07:16:09.072Z</time></trkpt><trkpt lat="45.5975108" lon="10.7244174"><ele>260.8333333333333</ele><time>2026-04-26T07:16:11.073Z</time></trkpt><trkpt lat="45.5975921" lon="10.7244675"><ele>261.0</ele><time>2026-04-26T07:16:13.072Z</time></trkpt><trkpt lat="45.5976887" lon="10.7245633"><ele>261.0</ele><time>2026-04-26T07:16:15.072Z</time></trkpt><trkpt lat="45.5977655" lon="10.7246318"><ele>261.0</ele><time>2026-04-26T07:16:17.073Z</time></trkpt><trkpt lat="45.5978384" lon="10.7246438"><ele>261.0</ele><time>2026-04-26T07:16:19.073Z</time></trkpt><trkpt lat="45.5979325" lon="10.7246477"><ele>261.0</ele><time>2026-04-26T07:16:21.072Z</time></trkpt><trkpt lat="45.5980497" lon="10.7246546"><ele>261.0</ele><time>2026-04-26T07:16:23.073Z</time></trkpt><trkpt lat="45.598167" lon="10.7246619"><ele>261.25</ele><time>2026-04-26T07:16:25.073Z</time></trkpt><trkpt lat="45.5982868" lon="10.7246534"><ele>261.5</ele><time>2026-04-26T07:16:27.073Z</time></trkpt><trkpt lat="45.5983935" lon="10.7246233"><ele>261.75</ele><time>2026-04-26T07:16:29.073Z</time></trkpt><trkpt lat="45.5985065" lon="10.7245868"><ele>262.0</ele><time>2026-04-26T07:16:31.073Z</time></trkpt><trkpt lat="45.5986287" lon="10.7245532"><ele>263.0</ele><time>2026-04-26T07:16:33.073Z</time></trkpt><trkpt lat="45.5987441" lon="10.7245074"><ele>264.0</ele><time>2026-04-26T07:16:35.073Z</time></trkpt><trkpt lat="45.598837" lon="10.7244497"><ele>265.0</ele><time>2026-04-26T07:16:37.073Z</time></trkpt><trkpt lat="45.5989547" lon="10.7243786"><ele>266.0</ele><time>2026-04-26T07:16:39.073Z</time></trkpt><trkpt lat="45.5990233" lon="10.7243462"><ele>267.0</ele><time>2026-04-26T07:16:40.073Z</time></trkpt><trkpt lat="45.5990956" lon="10.7243165"><ele>267.0</ele><time>2026-04-26T07:16:41.073Z</time></trkpt><trkpt lat="45.5991687" lon="10.7242837"><ele>267.0</ele><time>2026-04-26T07:16:42.073Z</time></trkpt><trkpt lat="45.5992427" lon="10.7242596"><ele>267.0</ele><time>2026-04-26T07:16:43.072Z</time></trkpt><trkpt lat="45.5993163" lon="10.7242395"><ele>267.0</ele><time>2026-04-26T07:16:44.073Z</time></trkpt><trkpt lat="45.5993856" lon="10.7242105"><ele>267.0</ele><time>2026-04-26T07:16:45.073Z</time></trkpt><trkpt lat="45.5994552" lon="10.7241707"><ele>267.0</ele><time>2026-04-26T07:16:46.073Z</time></trkpt><trkpt lat="45.5995252" lon="10.7241288"><ele>267.14285714285717</ele><time>2026-04-26T07:16:47.073Z</time></trkpt><trkpt lat="45.5995965" lon="10.7240846"><ele>267.2857142857143</ele><time>2026-04-26T07:16:48.072Z</time></trkpt><trkpt lat="45.5996656" lon="10.7240398"><ele>267.42857142857144</ele><time>2026-04-26T07:16:49.072Z</time></trkpt><trkpt lat="45.5997369" lon="10.723998"><ele>267.57142857142856</ele><time>2026-04-26T07:16:50.073Z</time></trkpt><trkpt lat="45.5998074" lon="10.7239699"><ele>267.7142857142857</ele><time>2026-04-26T07:16:51.072Z</time></trkpt><trkpt lat="45.5998757" lon="10.7239475"><ele>267.8571428571429</ele><time>2026-04-26T07:16:52.072Z</time></trkpt><trkpt lat="45.599943" lon="10.7239182"><ele>268.0</ele><time>2026-04-26T07:16:53.073Z</time></trkpt><trkpt lat="45.6000043" lon="10.7238755"><ele>268.0</ele><time>2026-04-26T07:16:54.072Z</time></trkpt><trkpt lat="45.6000629" lon="10.7238229"><ele>268.0</ele><time>2026-04-26T07:16:55.073Z</time></trkpt><trkpt lat="45.6001211" lon="10.7237635"><ele>268.0</ele><time>2026-04-26T07:16:56.072Z</time></trkpt><trkpt lat="45.6001743" lon="10.7237087"><ele>268.0</ele><time>2026-04-26T07:16:57.072Z</time></trkpt><trkpt lat="45.6002788" lon="10.7236228"><ele>268.0</ele><time>2026-04-26T07:16:59.072Z</time></trkpt><trkpt lat="45.6003849" lon="10.7235692"><ele>268.0</ele><time>2026-04-26T07:17:01.073Z</time></trkpt><trkpt lat="45.6005057" lon="10.7235544"><ele>268.8333333333333</ele><time>2026-04-26T07:17:03.072Z</time></trkpt><trkpt lat="45.600571" lon="10.7235544"><ele>269.66666666666663</ele><time>2026-04-26T07:17:04.073Z</time></trkpt><trkpt lat="45.6006453" lon="10.7235602"><ele>270.5</ele><time>2026-04-26T07:17:05.072Z</time></trkpt><trkpt lat="45.6007167" lon="10.7235577"><ele>271.3333333333333</ele><time>2026-04-26T07:17:06.072Z</time></trkpt><trkpt lat="45.6007808" lon="10.7235496"><ele>272.1666666666667</ele><time>2026-04-26T07:17:07.073Z</time></trkpt><trkpt lat="45.6008969" lon="10.7234982"><ele>273.0</ele><time>2026-04-26T07:17:09.072Z</time></trkpt><trkpt lat="45.6009527" lon="10.7234543"><ele>273.0</ele><time>2026-04-26T07:17:10.072Z</time></trkpt><trkpt lat="45.6010129" lon="10.7234032"><ele>273.0</ele><time>2026-04-26T07:17:11.071Z</time></trkpt><trkpt lat="45.6010746" lon="10.7233382"><ele>273.0</ele><time>2026-04-26T07:17:12.072Z</time></trkpt><trkpt lat="45.601143" lon="10.7232657"><ele>273.0</ele><time>2026-04-26T07:17:13.072Z</time></trkpt><trkpt lat="45.6012055" lon="10.7231934"><ele>273.0</ele><time>2026-04-26T07:17:14.071Z</time></trkpt><trkpt lat="45.6012663" lon="10.7231256"><ele>273.0</ele><time>2026-04-26T07:17:15.072Z</time></trkpt><trkpt lat="45.6013363" lon="10.7230483"><ele>273.8333333333333</ele><time>2026-04-26T07:17:16.071Z</time></trkpt><trkpt lat="45.6014017" lon="10.7229659"><ele>274.6666666666667</ele><time>2026-04-26T07:17:17.072Z</time></trkpt><trkpt lat="45.6014803" lon="10.7228886"><ele>275.5</ele><time>2026-04-26T07:17:18.072Z</time></trkpt><trkpt lat="45.6015562" lon="10.7228127"><ele>276.33333333333337</ele><time>2026-04-26T07:17:19.071Z</time></trkpt><trkpt lat="45.6016287" lon="10.7227576"><ele>277.1666666666667</ele><time>2026-04-26T07:17:20.071Z</time></trkpt><trkpt lat="45.6016941" lon="10.7227163"><ele>278.0</ele><time>2026-04-26T07:17:21.072Z</time></trkpt><trkpt lat="45.601754" lon="10.7226849"><ele>279.0</ele><time>2026-04-26T07:17:22.071Z</time></trkpt><trkpt lat="45.6018795" lon="10.7226524"><ele>280.0</ele><time>2026-04-26T07:17:24.071Z</time></trkpt><trkpt lat="45.6020015" lon="10.722639"><ele>281.0</ele><time>2026-04-26T07:17:26.072Z</time></trkpt><trkpt lat="45.6020772" lon="10.7226286"><ele>282.0</ele><time>2026-04-26T07:17:27.072Z</time></trkpt><trkpt lat="45.6021565" lon="10.7226163"><ele>283.0</ele><time>2026-04-26T07:17:28.071Z</time></trkpt><trkpt lat="45.602238" lon="10.7225986"><ele>284.3333333333333</ele><time>2026-04-26T07:17:29.072Z</time></trkpt><trkpt lat="45.6023182" lon="10.7225674"><ele>285.66666666666663</ele><time>2026-04-26T07:17:30.071Z</time></trkpt><trkpt lat="45.6023604" lon="10.7224974"><ele>287.0</ele><time>2026-04-26T07:17:31.071Z</time></trkpt><trkpt lat="45.6023757" lon="10.7224047"><ele>288.3333333333333</ele><time>2026-04-26T07:17:32.071Z</time></trkpt><trkpt lat="45.6023084" lon="10.7222495"><ele>289.6666666666667</ele><time>2026-04-26T07:17:34.072Z</time></trkpt><trkpt lat="45.6022335" lon="10.722216"><ele>291.0</ele><time>2026-04-26T07:17:35.072Z</time></trkpt><trkpt lat="45.6021385" lon="10.7222009"><ele>291.0</ele><time>2026-04-26T07:17:36.071Z</time></trkpt><trkpt lat="45.6020175" lon="10.7221689"><ele>291.0</ele><time>2026-04-26T07:17:37.072Z</time></trkpt><trkpt lat="45.6018963" lon="10.7221026"><ele>291.0</ele><time>2026-04-26T07:17:38.072Z</time></trkpt><trkpt lat="45.6017831" lon="10.7220118"><ele>291.0</ele><time>2026-04-26T07:17:39.071Z</time></trkpt><trkpt lat="45.601676" lon="10.721882"><ele>290.0</ele><time>2026-04-26T07:17:40.071Z</time></trkpt><trkpt lat="45.6015812" lon="10.7217131"><ele>289.0</ele><time>2026-04-26T07:17:41.072Z</time></trkpt><trkpt lat="45.6014968" lon="10.7215212"><ele>288.0</ele><time>2026-04-26T07:17:42.072Z</time></trkpt><trkpt lat="45.6014083" lon="10.7213165"><ele>288.0</ele><time>2026-04-26T07:17:43.071Z</time></trkpt><trkpt lat="45.6013178" lon="10.7211107"><ele>288.0</ele><time>2026-04-26T07:17:44.072Z</time></trkpt><trkpt lat="45.6012098" lon="10.720937"><ele>288.0</ele><time>2026-04-26T07:17:45.071Z</time></trkpt><trkpt lat="45.6010918" lon="10.7207971"><ele>287.0</ele><time>2026-04-26T07:17:46.072Z</time></trkpt><trkpt lat="45.6009686" lon="10.7207024"><ele>286.0</ele><time>2026-04-26T07:17:47.072Z</time></trkpt><trkpt lat="45.600844" lon="10.7206267"><ele>285.0</ele><time>2026-04-26T07:17:48.072Z</time></trkpt><trkpt lat="45.6007217" lon="10.7205601"><ele>284.0</ele><time>2026-04-26T07:17:49.071Z</time></trkpt><trkpt lat="45.600596" lon="10.7204917"><ele>284.0</ele><time>2026-04-26T07:17:50.071Z</time></trkpt><trkpt lat="45.6004761" lon="10.7204184"><ele>284.0</ele><time>2026-04-26T07:17:51.072Z</time></trkpt><trkpt lat="45.6003666" lon="10.7203279"><ele>284.0</ele><time>2026-04-26T07:17:52.071Z</time></trkpt><trkpt lat="45.600265" lon="10.7202395"><ele>284.0</ele><time>2026-04-26T07:17:53.072Z</time></trkpt><trkpt lat="45.6001673" lon="10.7201306"><ele>284.0</ele><time>2026-04-26T07:17:54.071Z</time></trkpt><trkpt lat="45.6000641" lon="10.7200269"><ele>284.0</ele><time>2026-04-26T07:17:55.071Z</time></trkpt><trkpt lat="45.5999755" lon="10.7199187"><ele>284.0</ele><time>2026-04-26T07:17:56.071Z</time></trkpt><trkpt lat="45.5998962" lon="10.719804"><ele>284.0</ele><time>2026-04-26T07:17:57.072Z</time></trkpt><trkpt lat="45.5998155" lon="10.7196974"><ele>284.0</ele><time>2026-04-26T07:17:58.071Z</time></trkpt><trkpt lat="45.5997471" lon="10.7195733"><ele>284.0</ele><time>2026-04-26T07:17:59.072Z</time></trkpt><trkpt lat="45.59968" lon="10.7194391"><ele>284.0</ele><time>2026-04-26T07:18:00.071Z</time></trkpt><trkpt lat="45.5996182" lon="10.719305"><ele>284.0</ele><time>2026-04-26T07:18:01.071Z</time></trkpt><trkpt lat="45.5995567" lon="10.7191705"><ele>284.1666666666667</ele><time>2026-04-26T07:18:02.071Z</time></trkpt><trkpt lat="45.5995051" lon="10.7190485"><ele>284.33333333333337</ele><time>2026-04-26T07:18:03.072Z</time></trkpt><trkpt lat="45.5994775" lon="10.7189424"><ele>284.5</ele><time>2026-04-26T07:18:04.071Z</time></trkpt><trkpt lat="45.5994747" lon="10.7188474"><ele>284.6666666666667</ele><time>2026-04-26T07:18:05.072Z</time></trkpt><trkpt lat="45.5994955" lon="10.7187512"><ele>284.8333333333333</ele><time>2026-04-26T07:18:06.072Z</time></trkpt><trkpt lat="45.5995305" lon="10.7186411"><ele>285.0</ele><time>2026-04-26T07:18:07.072Z</time></trkpt><trkpt lat="45.5995841" lon="10.7185152"><ele>285.0</ele><time>2026-04-26T07:18:08.071Z</time></trkpt><trkpt lat="45.5996523" lon="10.7183721"><ele>285.0</ele><time>2026-04-26T07:18:09.072Z</time></trkpt><trkpt lat="45.5997187" lon="10.718216"><ele>285.0</ele><time>2026-04-26T07:18:10.072Z</time></trkpt><trkpt lat="45.5997899" lon="10.7180481"><ele>285.0</ele><time>2026-04-26T07:18:11.071Z</time></trkpt><trkpt lat="45.5998634" lon="10.7178804"><ele>284.75</ele><time>2026-04-26T07:18:12.072Z</time></trkpt><trkpt lat="45.5999331" lon="10.7177095"><ele>284.5</ele><time>2026-04-26T07:18:13.071Z</time></trkpt><trkpt lat="45.6000022" lon="10.7175611"><ele>284.25</ele><time>2026-04-26T07:18:14.072Z</time></trkpt><trkpt lat="45.6000766" lon="10.7174307"><ele>284.0</ele><time>2026-04-26T07:18:15.072Z</time></trkpt><trkpt lat="45.6001512" lon="10.717319"><ele>284.0</ele><time>2026-04-26T07:18:16.071Z</time></trkpt><trkpt lat="45.6002324" lon="10.7172291"><ele>284.0</ele><time>2026-04-26T07:18:17.071Z</time></trkpt><trkpt lat="45.6003232" lon="10.7171439"><ele>284.0</ele><time>2026-04-26T07:18:18.072Z</time></trkpt><trkpt lat="45.600439" lon="10.7170715"><ele>284.0</ele><time>2026-04-26T07:18:19.071Z</time></trkpt><trkpt lat="45.6005625" lon="10.7170145"><ele>284.5</ele><time>2026-04-26T07:18:20.071Z</time></trkpt><trkpt lat="45.6006798" lon="10.7169645"><ele>285.0</ele><time>2026-04-26T07:18:21.072Z</time></trkpt><trkpt lat="45.6007916" lon="10.716914"><ele>285.5</ele><time>2026-04-26T07:18:22.071Z</time></trkpt><trkpt lat="45.6008975" lon="10.7168479"><ele>286.0</ele><time>2026-04-26T07:18:23.072Z</time></trkpt><trkpt lat="45.6009921" lon="10.7167811"><ele>286.0</ele><time>2026-04-26T07:18:24.072Z</time></trkpt><trkpt lat="45.6010706" lon="10.7167261"><ele>286.0</ele><time>2026-04-26T07:18:25.072Z</time></trkpt><trkpt lat="45.6011405" lon="10.7166925"><ele>286.0</ele><time>2026-04-26T07:18:26.072Z</time></trkpt><trkpt lat="45.6012246" lon="10.7167298"><ele>286.0</ele><time>2026-04-26T07:18:28.071Z</time></trkpt><trkpt lat="45.6012878" lon="10.7168043"><ele>286.0</ele><time>2026-04-26T07:18:30.071Z</time></trkpt><trkpt lat="45.6014002" lon="10.7167837"><ele>286.0</ele><time>2026-04-26T07:18:32.072Z</time></trkpt><trkpt lat="45.6014689" lon="10.7167539"><ele>287.8333333333333</ele><time>2026-04-26T07:18:33.072Z</time></trkpt><trkpt lat="45.6015449" lon="10.7167006"><ele>289.66666666666663</ele><time>2026-04-26T07:18:34.072Z</time></trkpt><trkpt lat="45.6016175" lon="10.716637"><ele>291.5</ele><time>2026-04-26T07:18:35.072Z</time></trkpt><trkpt lat="45.6016792" lon="10.7165702"><ele>293.3333333333333</ele><time>2026-04-26T07:18:36.071Z</time></trkpt><trkpt lat="45.6017258" lon="10.7164981"><ele>295.1666666666667</ele><time>2026-04-26T07:18:37.072Z</time></trkpt><trkpt lat="45.6017586" lon="10.7164116"><ele>297.0</ele><time>2026-04-26T07:18:38.072Z</time></trkpt><trkpt lat="45.601783" lon="10.716319"><ele>297.0</ele><time>2026-04-26T07:18:39.072Z</time></trkpt><trkpt lat="45.6018021" lon="10.7162246"><ele>297.0</ele><time>2026-04-26T07:18:40.071Z</time></trkpt><trkpt lat="45.6018538" lon="10.7160862"><ele>297.0</ele><time>2026-04-26T07:18:42.071Z</time></trkpt><trkpt lat="45.6019532" lon="10.7160285"><ele>297.0</ele><time>2026-04-26T07:18:44.072Z</time></trkpt><trkpt lat="45.6020188" lon="10.7160179"><ele>297.0</ele><time>2026-04-26T07:18:45.072Z</time></trkpt><trkpt lat="45.6021004" lon="10.7160148"><ele>297.0</ele><time>2026-04-26T07:18:46.072Z</time></trkpt><trkpt lat="45.6021944" lon="10.7160174"><ele>297.4</ele><time>2026-04-26T07:18:47.072Z</time></trkpt><trkpt lat="45.6023034" lon="10.7160266"><ele>297.79999999999995</ele><time>2026-04-26T07:18:48.072Z</time></trkpt><trkpt lat="45.6024188" lon="10.7160392"><ele>298.2</ele><time>2026-04-26T07:18:49.071Z</time></trkpt><trkpt lat="45.6025243" lon="10.7160444"><ele>298.59999999999997</ele><time>2026-04-26T07:18:50.071Z</time></trkpt><trkpt lat="45.6026197" lon="10.7160539"><ele>299.0</ele><time>2026-04-26T07:18:51.071Z</time></trkpt><trkpt lat="45.6027081" lon="10.7160619"><ele>299.0</ele><time>2026-04-26T07:18:52.072Z</time></trkpt><trkpt lat="45.6027854" lon="10.7160645"><ele>299.0</ele><time>2026-04-26T07:18:53.071Z</time></trkpt><trkpt lat="45.6028548" lon="10.7160505"><ele>299.0</ele><time>2026-04-26T07:18:54.072Z</time></trkpt><trkpt lat="45.6029247" lon="10.7160112"><ele>299.0</ele><time>2026-04-26T07:18:55.072Z</time></trkpt><trkpt lat="45.6029977" lon="10.7159442"><ele>299.0</ele><time>2026-04-26T07:18:56.072Z</time></trkpt><trkpt lat="45.6030716" lon="10.7158641"><ele>299.0</ele><time>2026-04-26T07:18:57.071Z</time></trkpt><trkpt lat="45.6031435" lon="10.7157825"><ele>300.83333333333337</ele><time>2026-04-26T07:18:58.072Z</time></trkpt><trkpt lat="45.603217" lon="10.7157025"><ele>302.6666666666667</ele><time>2026-04-26T07:18:59.072Z</time></trkpt><trkpt lat="45.6032957" lon="10.7156418"><ele>304.5</ele><time>2026-04-26T07:19:00.071Z</time></trkpt><trkpt lat="45.6033816" lon="10.7156109"><ele>306.3333333333333</ele><time>2026-04-26T07:19:01.072Z</time></trkpt><trkpt lat="45.6034622" lon="10.715591"><ele>308.16666666666663</ele><time>2026-04-26T07:19:02.072Z</time></trkpt><trkpt lat="45.6035425" lon="10.715573"><ele>310.0</ele><time>2026-04-26T07:19:03.071Z</time></trkpt><trkpt lat="45.6036186" lon="10.715557"><ele>310.8333333333333</ele><time>2026-04-26T07:19:04.072Z</time></trkpt><trkpt lat="45.603696" lon="10.7155418"><ele>311.66666666666663</ele><time>2026-04-26T07:19:05.071Z</time></trkpt><trkpt lat="45.6037741" lon="10.7155385"><ele>312.5</ele><time>2026-04-26T07:19:06.072Z</time></trkpt><trkpt lat="45.6038544" lon="10.715533"><ele>313.3333333333333</ele><time>2026-04-26T07:19:07.072Z</time></trkpt><trkpt lat="45.6039429" lon="10.7155386"><ele>314.1666666666667</ele><time>2026-04-26T07:19:08.071Z</time></trkpt><trkpt lat="45.6040335" lon="10.7155452"><ele>315.0</ele><time>2026-04-26T07:19:09.072Z</time></trkpt><trkpt lat="45.6041345" lon="10.715554"><ele>315.0</ele><time>2026-04-26T07:19:10.072Z</time></trkpt><trkpt lat="45.6042393" lon="10.7155587"><ele>315.0</ele><time>2026-04-26T07:19:11.072Z</time></trkpt><trkpt lat="45.6043395" lon="10.7155581"><ele>315.0</ele><time>2026-04-26T07:19:12.071Z</time></trkpt><trkpt lat="45.6044285" lon="10.7155499"><ele>315.0</ele><time>2026-04-26T07:19:13.071Z</time></trkpt><trkpt lat="45.6045166" lon="10.7155393"><ele>315.0</ele><time>2026-04-26T07:19:14.072Z</time></trkpt><trkpt lat="45.6046097" lon="10.7155247"><ele>316.0</ele><time>2026-04-26T07:19:15.071Z</time></trkpt><trkpt lat="45.604707" lon="10.7155137"><ele>317.0</ele><time>2026-04-26T07:19:16.072Z</time></trkpt><trkpt lat="45.6048016" lon="10.7154929"><ele>318.0</ele><time>2026-04-26T07:19:17.072Z</time></trkpt><trkpt lat="45.6048924" lon="10.7154783"><ele>319.0</ele><time>2026-04-26T07:19:18.072Z</time></trkpt><trkpt lat="45.604977" lon="10.7154681"><ele>320.0</ele><time>2026-04-26T07:19:19.071Z</time></trkpt><trkpt lat="45.6050616" lon="10.7154703"><ele>320.0</ele><time>2026-04-26T07:19:20.071Z</time></trkpt><trkpt lat="45.6051489" lon="10.7154758"><ele>320.0</ele><time>2026-04-26T07:19:21.071Z</time></trkpt><trkpt lat="45.6052415" lon="10.7154883"><ele>320.0</ele><time>2026-04-26T07:19:22.072Z</time></trkpt><trkpt lat="45.6053287" lon="10.7155057"><ele>320.0</ele><time>2026-04-26T07:19:23.071Z</time></trkpt><trkpt lat="45.6054023" lon="10.7155147"><ele>320.0</ele><time>2026-04-26T07:19:24.071Z</time></trkpt><trkpt lat="45.6054793" lon="10.7155053"><ele>320.0</ele><time>2026-04-26T07:19:25.071Z</time></trkpt><trkpt lat="45.6055514" lon="10.7154851"><ele>321.0</ele><time>2026-04-26T07:19:26.071Z</time></trkpt><trkpt lat="45.605657" lon="10.715463"><ele>322.0</ele><time>2026-04-26T07:19:28.072Z</time></trkpt><trkpt lat="45.6057445" lon="10.7154399"><ele>323.0</ele><time>2026-04-26T07:19:30.072Z</time></trkpt><trkpt lat="45.6058372" lon="10.7153869"><ele>324.0</ele><time>2026-04-26T07:19:32.071Z</time></trkpt><trkpt lat="45.6059073" lon="10.715361"><ele>325.0</ele><time>2026-04-26T07:19:34.071Z</time></trkpt><trkpt lat="45.6059668" lon="10.7152752"><ele>324.8333333333333</ele><time>2026-04-26T07:21:16.071Z</time></trkpt><trkpt lat="45.606046" lon="10.7152177"><ele>324.66666666666663</ele><time>2026-04-26T07:21:18.071Z</time></trkpt><trkpt lat="45.6061256" lon="10.7151671"><ele>324.5</ele><time>2026-04-26T07:21:20.071Z</time></trkpt><trkpt lat="45.6061863" lon="10.7151258"><ele>324.3333333333333</ele><time>2026-04-26T07:21:22.07Z</time></trkpt><trkpt lat="45.6062505" lon="10.7151301"><ele>324.1666666666667</ele><time>2026-04-26T07:21:30.07Z</time></trkpt><trkpt lat="45.6063166" lon="10.7150944"><ele>324.0</ele><time>2026-04-26T07:21:46.071Z</time></trkpt><trkpt lat="45.6063913" lon="10.7150489"><ele>324.0</ele><time>2026-04-26T07:21:50.07Z</time></trkpt><trkpt lat="45.6064721" lon="10.7150021"><ele>324.0</ele><time>2026-04-26T07:21:52.07Z</time></trkpt><trkpt lat="45.6065358" lon="10.7149929"><ele>324.0</ele><time>2026-04-26T07:21:54.07Z</time></trkpt><trkpt lat="45.6065927" lon="10.7151179"><ele>324.0</ele><time>2026-04-26T07:22:05.071Z</time></trkpt><trkpt lat="45.6065962" lon="10.7152078"><ele>324.0</ele><time>2026-04-26T07:22:06.071Z</time></trkpt><trkpt lat="45.6065866" lon="10.7153195"><ele>324.0</ele><time>2026-04-26T07:22:07.071Z</time></trkpt><trkpt lat="45.6065707" lon="10.715419"><ele>324.2</ele><time>2026-04-26T07:22:08.07Z</time></trkpt><trkpt lat="45.6065185" lon="10.7155654"><ele>324.4</ele><time>2026-04-26T07:22:10.07Z</time></trkpt><trkpt lat="45.6064125" lon="10.7156607"><ele>324.6</ele><time>2026-04-26T07:22:12.071Z</time></trkpt><trkpt lat="45.6063395" lon="10.7156975"><ele>324.8</ele><time>2026-04-26T07:22:13.07Z</time></trkpt><trkpt lat="45.6062415" lon="10.7157191"><ele>325.0</ele><time>2026-04-26T07:22:14.071Z</time></trkpt><trkpt lat="45.6061415" lon="10.7157331"><ele>325.0</ele><time>2026-04-26T07:22:15.071Z</time></trkpt><trkpt lat="45.6060467" lon="10.7157409"><ele>325.0</ele><time>2026-04-26T07:22:16.071Z</time></trkpt><trkpt lat="45.6059632" lon="10.7157535"><ele>325.0</ele><time>2026-04-26T07:22:17.071Z</time></trkpt><trkpt lat="45.605891" lon="10.7157707"><ele>325.0</ele><time>2026-04-26T07:22:18.07Z</time></trkpt><trkpt lat="45.6058006" lon="10.7157834"><ele>325.0</ele><time>2026-04-26T07:22:20.071Z</time></trkpt><trkpt lat="45.6057335" lon="10.7158355"><ele>325.0</ele><time>2026-04-26T07:22:27.071Z</time></trkpt><trkpt lat="45.6056124" lon="10.7158575"><ele>325.0</ele><time>2026-04-26T07:22:56.071Z</time></trkpt><trkpt lat="45.6055225" lon="10.7158814"><ele>325.0</ele><time>2026-04-26T07:22:58.07Z</time></trkpt><trkpt lat="45.605458" lon="10.7158946"><ele>325.0</ele><time>2026-04-26T07:22:59.071Z</time></trkpt><trkpt lat="45.6053758" lon="10.7159048"><ele>325.0</ele><time>2026-04-26T07:23:00.071Z</time></trkpt><trkpt lat="45.6052829" lon="10.7159181"><ele>325.0</ele><time>2026-04-26T07:23:01.07Z</time></trkpt><trkpt lat="45.6051814" lon="10.7159361"><ele>325.0</ele><time>2026-04-26T07:23:02.071Z</time></trkpt><trkpt lat="45.6050802" lon="10.7159622"><ele>324.16666666666663</ele><time>2026-04-26T07:23:03.071Z</time></trkpt><trkpt lat="45.6049795" lon="10.715998"><ele>323.3333333333333</ele><time>2026-04-26T07:23:04.071Z</time></trkpt><trkpt lat="45.604886" lon="10.7160303"><ele>322.5</ele><time>2026-04-26T07:23:05.071Z</time></trkpt><trkpt lat="45.6048111" lon="10.7160596"><ele>321.6666666666667</ele><time>2026-04-26T07:23:06.071Z</time></trkpt><trkpt lat="45.6047334" lon="10.7160836"><ele>320.83333333333337</ele><time>2026-04-26T07:23:07.071Z</time></trkpt><trkpt lat="45.6046493" lon="10.7161016"><ele>320.0</ele><time>2026-04-26T07:23:08.071Z</time></trkpt><trkpt lat="45.6045606" lon="10.7161091"><ele>321.5</ele><time>2026-04-26T07:23:09.071Z</time></trkpt><trkpt lat="45.6044721" lon="10.716108"><ele>323.0</ele><time>2026-04-26T07:23:10.071Z</time></trkpt><trkpt lat="45.6043889" lon="10.7161072"><ele>324.5</ele><time>2026-04-26T07:23:11.07Z</time></trkpt><trkpt lat="45.6043136" lon="10.7161026"><ele>326.0</ele><time>2026-04-26T07:23:12.071Z</time></trkpt><trkpt lat="45.6042332" lon="10.7161061"><ele>327.5</ele><time>2026-04-26T07:23:13.071Z</time></trkpt><trkpt lat="45.6041476" lon="10.7161119"><ele>329.0</ele><time>2026-04-26T07:23:14.071Z</time></trkpt><trkpt lat="45.6040542" lon="10.7161251"><ele>329.0</ele><time>2026-04-26T07:23:15.071Z</time></trkpt><trkpt lat="45.6039637" lon="10.7161507"><ele>329.0</ele><time>2026-04-26T07:23:16.071Z</time></trkpt><trkpt lat="45.6038844" lon="10.7161773"><ele>329.0</ele><time>2026-04-26T07:23:17.07Z</time></trkpt><trkpt lat="45.6038176" lon="10.7162069"><ele>329.0</ele><time>2026-04-26T07:23:18.07Z</time></trkpt><trkpt lat="45.6037583" lon="10.7162496"><ele>329.0</ele><time>2026-04-26T07:23:19.071Z</time></trkpt><trkpt lat="45.6036631" lon="10.716343"><ele>329.0</ele><time>2026-04-26T07:23:21.069Z</time></trkpt><trkpt lat="45.6035971" lon="10.7164818"><ele>326.59999999999997</ele><time>2026-04-26T07:23:23.07Z</time></trkpt><trkpt lat="45.6035806" lon="10.7166543"><ele>324.2</ele><time>2026-04-26T07:23:25.07Z</time></trkpt><trkpt lat="45.6035797" lon="10.7168261"><ele>321.79999999999995</ele><time>2026-04-26T07:23:27.07Z</time></trkpt><trkpt lat="45.6035756" lon="10.7169352"><ele>319.4</ele><time>2026-04-26T07:23:28.07Z</time></trkpt><trkpt lat="45.6035685" lon="10.7170537"><ele>317.0</ele><time>2026-04-26T07:23:29.07Z</time></trkpt><trkpt lat="45.6035632" lon="10.7171666"><ele>317.0</ele><time>2026-04-26T07:23:30.07Z</time></trkpt><trkpt lat="45.6035625" lon="10.7172674"><ele>317.0</ele><time>2026-04-26T07:23:31.069Z</time></trkpt><trkpt lat="45.6035689" lon="10.7173634"><ele>317.0</ele><time>2026-04-26T07:23:32.07Z</time></trkpt><trkpt lat="45.6035812" lon="10.7174687"><ele>317.0</ele><time>2026-04-26T07:23:33.069Z</time></trkpt><trkpt lat="45.6035996" lon="10.7175691"><ele>317.0</ele><time>2026-04-26T07:23:34.07Z</time></trkpt><trkpt lat="45.6036227" lon="10.7176572"><ele>317.0</ele><time>2026-04-26T07:23:35.07Z</time></trkpt><trkpt lat="45.6036474" lon="10.7178077"><ele>316.83333333333337</ele><time>2026-04-26T07:23:37.07Z</time></trkpt><trkpt lat="45.6036301" lon="10.717959"><ele>316.6666666666667</ele><time>2026-04-26T07:23:39.069Z</time></trkpt><trkpt lat="45.6035822" lon="10.7180916"><ele>316.5</ele><time>2026-04-26T07:23:41.069Z</time></trkpt><trkpt lat="45.6035378" lon="10.7181645"><ele>316.3333333333333</ele><time>2026-04-26T07:23:42.07Z</time></trkpt><trkpt lat="45.6034937" lon="10.7182432"><ele>316.16666666666663</ele><time>2026-04-26T07:23:43.069Z</time></trkpt><trkpt lat="45.6034372" lon="10.7183338"><ele>316.0</ele><time>2026-04-26T07:23:44.069Z</time></trkpt><trkpt lat="45.6033733" lon="10.7184271"><ele>316.0</ele><time>2026-04-26T07:23:45.07Z</time></trkpt><trkpt lat="45.6033196" lon="10.7185132"><ele>316.0</ele><time>2026-04-26T07:23:46.069Z</time></trkpt><trkpt lat="45.6032728" lon="10.718616"><ele>316.0</ele><time>2026-04-26T07:23:47.07Z</time></trkpt><trkpt lat="45.6032395" lon="10.7187074"><ele>316.0</ele><time>2026-04-26T07:23:48.07Z</time></trkpt><trkpt lat="45.603228" lon="10.7188607"><ele>316.0</ele><time>2026-04-26T07:23:50.069Z</time></trkpt><trkpt lat="45.6032728" lon="10.7190115"><ele>316.0</ele><time>2026-04-26T07:23:52.07Z</time></trkpt><trkpt lat="45.6033201" lon="10.7191742"><ele>316.0</ele><time>2026-04-26T07:23:54.07Z</time></trkpt><trkpt lat="45.6033728" lon="10.7192877"><ele>316.0</ele><time>2026-04-26T07:23:56.069Z</time></trkpt><trkpt lat="45.6034416" lon="10.7193106"><ele>316.0</ele><time>2026-04-26T07:23:59.069Z</time></trkpt><trkpt lat="45.6035383" lon="10.7193403"><ele>316.0</ele><time>2026-04-26T07:24:02.07Z</time></trkpt><trkpt lat="45.6036474" lon="10.7194302"><ele>316.0</ele><time>2026-04-26T07:24:04.07Z</time></trkpt><trkpt lat="45.6037182" lon="10.7194943"><ele>316.0</ele><time>2026-04-26T07:24:05.069Z</time></trkpt><trkpt lat="45.6037978" lon="10.7195495"><ele>316.0</ele><time>2026-04-26T07:24:06.069Z</time></trkpt><trkpt lat="45.603879" lon="10.7195759"><ele>316.0</ele><time>2026-04-26T07:24:07.069Z</time></trkpt><trkpt lat="45.6039751" lon="10.7195803"><ele>316.0</ele><time>2026-04-26T07:24:08.069Z</time></trkpt><trkpt lat="45.604069" lon="10.7195945"><ele>316.0</ele><time>2026-04-26T07:24:09.069Z</time></trkpt><trkpt lat="45.604167" lon="10.7196247"><ele>316.0</ele><time>2026-04-26T07:24:10.07Z</time></trkpt><trkpt lat="45.6042546" lon="10.7196911"><ele>316.0</ele><time>2026-04-26T07:24:11.069Z</time></trkpt><trkpt lat="45.6043299" lon="10.7197815"><ele>316.0</ele><time>2026-04-26T07:24:12.069Z</time></trkpt><trkpt lat="45.6044017" lon="10.7198932"><ele>316.0</ele><time>2026-04-26T07:24:13.069Z</time></trkpt><trkpt lat="45.6044741" lon="10.7200029"><ele>316.0</ele><time>2026-04-26T07:24:14.07Z</time></trkpt><trkpt lat="45.6045595" lon="10.7201182"><ele>316.8</ele><time>2026-04-26T07:24:15.07Z</time></trkpt><trkpt lat="45.6046364" lon="10.7202295"><ele>317.6</ele><time>2026-04-26T07:24:16.07Z</time></trkpt><trkpt lat="45.6047122" lon="10.7203456"><ele>318.4</ele><time>2026-04-26T07:24:17.069Z</time></trkpt><trkpt lat="45.6047902" lon="10.7204538"><ele>319.2</ele><time>2026-04-26T07:24:18.07Z</time></trkpt><trkpt lat="45.6048457" lon="10.720564"><ele>320.0</ele><time>2026-04-26T07:24:19.07Z</time></trkpt><trkpt lat="45.6048932" lon="10.7206947"><ele>320.2</ele><time>2026-04-26T07:24:20.07Z</time></trkpt><trkpt lat="45.6049383" lon="10.7208335"><ele>320.4</ele><time>2026-04-26T07:24:21.069Z</time></trkpt><trkpt lat="45.6049793" lon="10.7209799"><ele>320.6</ele><time>2026-04-26T07:24:22.07Z</time></trkpt><trkpt lat="45.6050193" lon="10.7211191"><ele>320.8</ele><time>2026-04-26T07:24:23.069Z</time></trkpt><trkpt lat="45.6050522" lon="10.7212393"><ele>321.0</ele><time>2026-04-26T07:24:24.069Z</time></trkpt><trkpt lat="45.6050815" lon="10.7213459"><ele>321.0</ele><time>2026-04-26T07:24:25.069Z</time></trkpt><trkpt lat="45.6051037" lon="10.7214384"><ele>321.0</ele><time>2026-04-26T07:24:26.07Z</time></trkpt><trkpt lat="45.6051467" lon="10.7215994"><ele>321.0</ele><time>2026-04-26T07:24:28.069Z</time></trkpt><trkpt lat="45.6051928" lon="10.7217127"><ele>321.0</ele><time>2026-04-26T07:24:30.07Z</time></trkpt><trkpt lat="45.6052563" lon="10.7217326"><ele>321.0</ele><time>2026-04-26T07:24:33.07Z</time></trkpt><trkpt lat="45.6053105" lon="10.7216426"><ele>321.0</ele><time>2026-04-26T07:24:36.069Z</time></trkpt><trkpt lat="45.6052726" lon="10.7217844"><ele>319.8</ele><time>2026-04-26T07:24:59.07Z</time></trkpt><trkpt lat="45.605284" lon="10.7219797"><ele>318.6</ele><time>2026-04-26T07:25:01.07Z</time></trkpt><trkpt lat="45.6053063" lon="10.7220809"><ele>317.4</ele><time>2026-04-26T07:25:02.069Z</time></trkpt><trkpt lat="45.6053365" lon="10.7221779"><ele>316.2</ele><time>2026-04-26T07:25:03.07Z</time></trkpt><trkpt lat="45.6054268" lon="10.7222952"><ele>315.0</ele><time>2026-04-26T07:25:05.07Z</time></trkpt><trkpt lat="45.6054947" lon="10.7223286"><ele>315.0</ele><time>2026-04-26T07:25:06.07Z</time></trkpt><trkpt lat="45.6055842" lon="10.722352"><ele>315.0</ele><time>2026-04-26T07:25:07.07Z</time></trkpt><trkpt lat="45.6056877" lon="10.7223811"><ele>315.0</ele><time>2026-04-26T07:25:08.069Z</time></trkpt><trkpt lat="45.605791" lon="10.7224146"><ele>315.0</ele><time>2026-04-26T07:25:09.07Z</time></trkpt><trkpt lat="45.6058944" lon="10.7224398"><ele>315.0</ele><time>2026-04-26T07:25:10.07Z</time></trkpt><trkpt lat="45.6060003" lon="10.7224631"><ele>315.0</ele><time>2026-04-26T07:25:11.069Z</time></trkpt><trkpt lat="45.6061054" lon="10.7224878"><ele>315.0</ele><time>2026-04-26T07:25:12.069Z</time></trkpt><trkpt lat="45.6062153" lon="10.7225186"><ele>315.0</ele><time>2026-04-26T07:25:13.069Z</time></trkpt><trkpt lat="45.6063302" lon="10.7225609"><ele>315.0</ele><time>2026-04-26T07:25:14.07Z</time></trkpt><trkpt lat="45.6064488" lon="10.722618"><ele>314.5</ele><time>2026-04-26T07:25:15.07Z</time></trkpt><trkpt lat="45.6065503" lon="10.7226856"><ele>314.0</ele><time>2026-04-26T07:25:16.07Z</time></trkpt><trkpt lat="45.6066447" lon="10.7227492"><ele>313.5</ele><time>2026-04-26T07:25:17.07Z</time></trkpt><trkpt lat="45.6067061" lon="10.7228272"><ele>313.0</ele><time>2026-04-26T07:25:18.069Z</time></trkpt><trkpt lat="45.6067549" lon="10.7229145"><ele>312.5</ele><time>2026-04-26T07:25:19.07Z</time></trkpt><trkpt lat="45.606787" lon="10.7230051"><ele>312.0</ele><time>2026-04-26T07:25:20.069Z</time></trkpt><trkpt lat="45.6067662" lon="10.7231492"><ele>310.5</ele><time>2026-04-26T07:25:22.07Z</time></trkpt><trkpt lat="45.6067028" lon="10.7231659"><ele>309.0</ele><time>2026-04-26T07:25:24.07Z</time></trkpt><trkpt lat="45.6066425" lon="10.72326"><ele>307.5</ele><time>2026-04-26T07:25:33.07Z</time></trkpt><trkpt lat="45.6066387" lon="10.7233612"><ele>306.0</ele><time>2026-04-26T07:25:34.069Z</time></trkpt><trkpt lat="45.6066681" lon="10.7234567"><ele>304.5</ele><time>2026-04-26T07:25:35.07Z</time></trkpt><trkpt lat="45.6067237" lon="10.7235337"><ele>303.0</ele><time>2026-04-26T07:25:36.069Z</time></trkpt><trkpt lat="45.6067905" lon="10.7235983"><ele>303.0</ele><time>2026-04-26T07:25:37.069Z</time></trkpt><trkpt lat="45.6068511" lon="10.72367"><ele>303.0</ele><time>2026-04-26T07:25:38.069Z</time></trkpt><trkpt lat="45.6069015" lon="10.7237748"><ele>303.0</ele><time>2026-04-26T07:25:39.069Z</time></trkpt><trkpt lat="45.606936" lon="10.72388"><ele>303.0</ele><time>2026-04-26T07:25:40.07Z</time></trkpt><trkpt lat="45.6069313" lon="10.7240061"><ele>303.0</ele><time>2026-04-26T07:25:41.07Z</time></trkpt><trkpt lat="45.6069064" lon="10.7241338"><ele>303.0</ele><time>2026-04-26T07:25:42.069Z</time></trkpt><trkpt lat="45.6068541" lon="10.7242703"><ele>304.75</ele><time>2026-04-26T07:25:43.069Z</time></trkpt><trkpt lat="45.6067734" lon="10.7244192"><ele>306.5</ele><time>2026-04-26T07:25:44.069Z</time></trkpt><trkpt lat="45.6066924" lon="10.7245769"><ele>308.25</ele><time>2026-04-26T07:25:45.069Z</time></trkpt><trkpt lat="45.6066132" lon="10.724748"><ele>310.0</ele><time>2026-04-26T07:25:46.07Z</time></trkpt><trkpt lat="45.6065366" lon="10.7249076"><ele>310.0</ele><time>2026-04-26T07:25:47.069Z</time></trkpt><trkpt lat="45.6064753" lon="10.7250639"><ele>310.0</ele><time>2026-04-26T07:25:48.07Z</time></trkpt><trkpt lat="45.6064315" lon="10.7252323"><ele>310.0</ele><time>2026-04-26T07:25:49.069Z</time></trkpt><trkpt lat="45.6064015" lon="10.7253809"><ele>310.0</ele><time>2026-04-26T07:25:50.07Z</time></trkpt><trkpt lat="45.6063916" lon="10.7255372"><ele>311.0</ele><time>2026-04-26T07:25:51.07Z</time></trkpt><trkpt lat="45.6063929" lon="10.7256955"><ele>312.0</ele><time>2026-04-26T07:25:52.07Z</time></trkpt><trkpt lat="45.6064072" lon="10.7258455"><ele>313.0</ele><time>2026-04-26T07:25:53.07Z</time></trkpt><trkpt lat="45.6064313" lon="10.7259826"><ele>314.0</ele><time>2026-04-26T07:25:54.07Z</time></trkpt><trkpt lat="45.6064605" lon="10.7261118"><ele>315.0</ele><time>2026-04-26T07:25:55.069Z</time></trkpt><trkpt lat="45.606487" lon="10.7262391"><ele>315.3333333333333</ele><time>2026-04-26T07:25:56.069Z</time></trkpt><trkpt lat="45.6065021" lon="10.7263404"><ele>315.6666666666667</ele><time>2026-04-26T07:25:57.07Z</time></trkpt><trkpt lat="45.6065128" lon="10.7264479"><ele>316.0</ele><time>2026-04-26T07:25:58.07Z</time></trkpt><trkpt lat="45.6065231" lon="10.7265586"><ele>316.33333333333337</ele><time>2026-04-26T07:25:59.069Z</time></trkpt><trkpt lat="45.6065332" lon="10.7266592"><ele>316.6666666666667</ele><time>2026-04-26T07:26:00.07Z</time></trkpt><trkpt lat="45.6065339" lon="10.7268028"><ele>317.0</ele><time>2026-04-26T07:26:02.069Z</time></trkpt><trkpt lat="45.6064689" lon="10.726853"><ele>317.0</ele><time>2026-04-26T07:26:05.069Z</time></trkpt><trkpt lat="45.606407" lon="10.7268711"><ele>317.0</ele><time>2026-04-26T07:26:06.07Z</time></trkpt><trkpt lat="45.6063089" lon="10.7269182"><ele>317.0</ele><time>2026-04-26T07:26:08.069Z</time></trkpt><trkpt lat="45.6062556" lon="10.7270247"><ele>317.0</ele><time>2026-04-26T07:26:29.068Z</time></trkpt><trkpt lat="45.6061478" lon="10.7271373"><ele>317.0</ele><time>2026-04-26T07:26:31.068Z</time></trkpt><trkpt lat="45.606063" lon="10.7271952"><ele>316.2</ele><time>2026-04-26T07:26:32.069Z</time></trkpt><trkpt lat="45.6059679" lon="10.7272262"><ele>315.4</ele><time>2026-04-26T07:26:33.069Z</time></trkpt><trkpt lat="45.6058684" lon="10.7272546"><ele>314.6</ele><time>2026-04-26T07:26:34.069Z</time></trkpt><trkpt lat="45.6057658" lon="10.7272636"><ele>313.8</ele><time>2026-04-26T07:26:35.069Z</time></trkpt><trkpt lat="45.6056609" lon="10.7272488"><ele>313.0</ele><time>2026-04-26T07:26:36.069Z</time></trkpt><trkpt lat="45.6055557" lon="10.7272315"><ele>313.0</ele><time>2026-04-26T07:26:37.069Z</time></trkpt><trkpt lat="45.6054517" lon="10.7272181"><ele>313.0</ele><time>2026-04-26T07:26:38.068Z</time></trkpt><trkpt lat="45.6053446" lon="10.7272065"><ele>313.0</ele><time>2026-04-26T07:26:39.068Z</time></trkpt><trkpt lat="45.6052316" lon="10.7271967"><ele>313.0</ele><time>2026-04-26T07:26:40.068Z</time></trkpt><trkpt lat="45.60511" lon="10.7271912"><ele>313.0</ele><time>2026-04-26T07:26:41.069Z</time></trkpt><trkpt lat="45.6049962" lon="10.7271896"><ele>313.25</ele><time>2026-04-26T07:26:42.069Z</time></trkpt><trkpt lat="45.6048851" lon="10.7271782"><ele>313.5</ele><time>2026-04-26T07:26:43.068Z</time></trkpt><trkpt lat="45.6047735" lon="10.7271677"><ele>313.75</ele><time>2026-04-26T07:26:44.068Z</time></trkpt><trkpt lat="45.6046636" lon="10.7271633"><ele>314.0</ele><time>2026-04-26T07:26:45.069Z</time></trkpt><trkpt lat="45.6045472" lon="10.7271697"><ele>314.0</ele><time>2026-04-26T07:26:46.068Z</time></trkpt><trkpt lat="45.6044213" lon="10.7271902"><ele>314.0</ele><time>2026-04-26T07:26:47.069Z</time></trkpt><trkpt lat="45.60429" lon="10.7272338"><ele>314.0</ele><time>2026-04-26T07:26:48.069Z</time></trkpt><trkpt lat="45.604154" lon="10.7272888"><ele>314.0</ele><time>2026-04-26T07:26:49.069Z</time></trkpt><trkpt lat="45.6040218" lon="10.7273387"><ele>314.0</ele><time>2026-04-26T07:26:50.069Z</time></trkpt><trkpt lat="45.6038943" lon="10.7273737"><ele>314.0</ele><time>2026-04-26T07:26:51.069Z</time></trkpt><trkpt lat="45.6037644" lon="10.7274078"><ele>314.0</ele><time>2026-04-26T07:26:52.069Z</time></trkpt><trkpt lat="45.603639" lon="10.7274593"><ele>314.0</ele><time>2026-04-26T07:26:53.068Z</time></trkpt><trkpt lat="45.6035083" lon="10.7275041"><ele>314.25</ele><time>2026-04-26T07:26:54.068Z</time></trkpt><trkpt lat="45.6033739" lon="10.727557"><ele>314.5</ele><time>2026-04-26T07:26:55.069Z</time></trkpt><trkpt lat="45.6032371" lon="10.7276241"><ele>314.75</ele><time>2026-04-26T07:26:56.068Z</time></trkpt><trkpt lat="45.6031045" lon="10.7277052"><ele>315.0</ele><time>2026-04-26T07:26:57.068Z</time></trkpt><trkpt lat="45.6029721" lon="10.7277794"><ele>315.0</ele><time>2026-04-26T07:26:58.068Z</time></trkpt><trkpt lat="45.6028525" lon="10.7278444"><ele>315.0</ele><time>2026-04-26T07:26:59.069Z</time></trkpt><trkpt lat="45.60275" lon="10.7279072"><ele>315.0</ele><time>2026-04-26T07:27:00.068Z</time></trkpt><trkpt lat="45.6026574" lon="10.7279616"><ele>315.0</ele><time>2026-04-26T07:27:01.068Z</time></trkpt><trkpt lat="45.6025661" lon="10.7280163"><ele>315.0</ele><time>2026-04-26T07:27:02.068Z</time></trkpt><trkpt lat="45.6024837" lon="10.7280601"><ele>314.8333333333333</ele><time>2026-04-26T07:27:03.068Z</time></trkpt><trkpt lat="45.6024127" lon="10.7280927"><ele>314.6666666666667</ele><time>2026-04-26T07:27:04.068Z</time></trkpt><trkpt lat="45.6023262" lon="10.7281622"><ele>314.5</ele><time>2026-04-26T07:27:06.069Z</time></trkpt><trkpt lat="45.6022713" lon="10.7282962"><ele>314.33333333333337</ele><time>2026-04-26T07:27:08.068Z</time></trkpt><trkpt lat="45.6022491" lon="10.7284001"><ele>314.1666666666667</ele><time>2026-04-26T07:27:09.069Z</time></trkpt><trkpt lat="45.6022245" lon="10.7285169"><ele>314.0</ele><time>2026-04-26T07:27:10.068Z</time></trkpt><trkpt lat="45.6021988" lon="10.7286438"><ele>314.0</ele><time>2026-04-26T07:27:11.069Z</time></trkpt><trkpt lat="45.6021726" lon="10.7287599"><ele>314.0</ele><time>2026-04-26T07:27:12.069Z</time></trkpt><trkpt lat="45.6021553" lon="10.7288689"><ele>314.0</ele><time>2026-04-26T07:27:13.068Z</time></trkpt><trkpt lat="45.6021477" lon="10.7289612"><ele>314.0</ele><time>2026-04-26T07:27:14.068Z</time></trkpt><trkpt lat="45.602151" lon="10.7290879"><ele>314.0</ele><time>2026-04-26T07:27:16.069Z</time></trkpt><trkpt lat="45.602168" lon="10.7292109"><ele>314.0</ele><time>2026-04-26T07:27:18.068Z</time></trkpt><trkpt lat="45.6021939" lon="10.7293206"><ele>313.4</ele><time>2026-04-26T07:27:36.068Z</time></trkpt><trkpt lat="45.6021865" lon="10.7294649"><ele>312.79999999999995</ele><time>2026-04-26T07:27:38.069Z</time></trkpt><trkpt lat="45.6021848" lon="10.7296265"><ele>312.20000000000005</ele><time>2026-04-26T07:27:40.068Z</time></trkpt><trkpt lat="45.6021936" lon="10.7297944"><ele>311.6</ele><time>2026-04-26T07:27:42.069Z</time></trkpt><trkpt lat="45.6021869" lon="10.7299439"><ele>311.0</ele><time>2026-04-26T07:27:44.069Z</time></trkpt><trkpt lat="45.6021539" lon="10.7300655"><ele>311.0</ele><time>2026-04-26T07:27:46.069Z</time></trkpt><trkpt lat="45.6020624" lon="10.7301685"><ele>311.0</ele><time>2026-04-26T07:27:48.068Z</time></trkpt><trkpt lat="45.6019982" lon="10.7302147"><ele>311.0</ele><time>2026-04-26T07:27:49.068Z</time></trkpt><trkpt lat="45.6019374" lon="10.7302555"><ele>311.0</ele><time>2026-04-26T07:27:50.068Z</time></trkpt><trkpt lat="45.601879" lon="10.7302925"><ele>311.0</ele><time>2026-04-26T07:27:51.068Z</time></trkpt><trkpt lat="45.6018206" lon="10.7303501"><ele>311.0</ele><time>2026-04-26T07:27:52.069Z</time></trkpt><trkpt lat="45.6017583" lon="10.7304006"><ele>311.0</ele><time>2026-04-26T07:27:53.068Z</time></trkpt><trkpt lat="45.6016992" lon="10.730442"><ele>311.0</ele><time>2026-04-26T07:27:54.069Z</time></trkpt><trkpt lat="45.6016421" lon="10.7304878"><ele>311.0</ele><time>2026-04-26T07:27:55.069Z</time></trkpt><trkpt lat="45.6015305" lon="10.7305766"><ele>311.0</ele><time>2026-04-26T07:27:57.068Z</time></trkpt><trkpt lat="45.601472" lon="10.7306203"><ele>311.0</ele><time>2026-04-26T07:27:58.068Z</time></trkpt><trkpt lat="45.6014134" lon="10.7306621"><ele>311.0</ele><time>2026-04-26T07:27:59.068Z</time></trkpt><trkpt lat="45.6013072" lon="10.7307596"><ele>311.0</ele><time>2026-04-26T07:28:01.068Z</time></trkpt><trkpt lat="45.6012087" lon="10.7308764"><ele>311.0</ele><time>2026-04-26T07:28:03.069Z</time></trkpt><trkpt lat="45.6011246" lon="10.7309659"><ele>311.0</ele><time>2026-04-26T07:28:05.068Z</time></trkpt><trkpt lat="45.6010367" lon="10.7310435"><ele>311.0</ele><time>2026-04-26T07:28:07.069Z</time></trkpt><trkpt lat="45.6009354" lon="10.7311183"><ele>310.0</ele><time>2026-04-26T07:28:09.069Z</time></trkpt><trkpt lat="45.6008236" lon="10.7311769"><ele>309.0</ele><time>2026-04-26T07:28:11.068Z</time></trkpt><trkpt lat="45.6007079" lon="10.731232"><ele>308.0</ele><time>2026-04-26T07:28:13.068Z</time></trkpt><trkpt lat="45.600618" lon="10.7312914"><ele>307.0</ele><time>2026-04-26T07:28:15.068Z</time></trkpt><trkpt lat="45.600527" lon="10.731343"><ele>306.0</ele><time>2026-04-26T07:28:17.069Z</time></trkpt><trkpt lat="45.600423" lon="10.7314002"><ele>306.0</ele><time>2026-04-26T07:28:19.069Z</time></trkpt><trkpt lat="45.6003612" lon="10.7314335"><ele>306.0</ele><time>2026-04-26T07:28:20.069Z</time></trkpt><trkpt lat="45.6002857" lon="10.7314676"><ele>306.0</ele><time>2026-04-26T07:28:21.069Z</time></trkpt><trkpt lat="45.6002077" lon="10.7315013"><ele>306.0</ele><time>2026-04-26T07:28:22.068Z</time></trkpt><trkpt lat="45.6001304" lon="10.7315346"><ele>306.0</ele><time>2026-04-26T07:28:23.068Z</time></trkpt><trkpt lat="45.6000589" lon="10.7315699"><ele>306.0</ele><time>2026-04-26T07:28:24.069Z</time></trkpt><trkpt lat="45.599941" lon="10.731636"><ele>306.0</ele><time>2026-04-26T07:28:26.068Z</time></trkpt><trkpt lat="45.5998793" lon="10.731666"><ele>306.0</ele><time>2026-04-26T07:28:27.069Z</time></trkpt><trkpt lat="45.5998215" lon="10.7317048"><ele>306.0</ele><time>2026-04-26T07:28:28.069Z</time></trkpt><trkpt lat="45.5997258" lon="10.7317789"><ele>306.0</ele><time>2026-04-26T07:28:30.069Z</time></trkpt><trkpt lat="45.599617" lon="10.7318597"><ele>306.0</ele><time>2026-04-26T07:28:32.069Z</time></trkpt><trkpt lat="45.5995444" lon="10.7319192"><ele>306.0</ele><time>2026-04-26T07:28:33.068Z</time></trkpt><trkpt lat="45.5994663" lon="10.731988"><ele>305.3333333333333</ele><time>2026-04-26T07:28:34.069Z</time></trkpt><trkpt lat="45.5993848" lon="10.7320518"><ele>304.6666666666667</ele><time>2026-04-26T07:28:35.068Z</time></trkpt><trkpt lat="45.5993045" lon="10.7321165"><ele>304.0</ele><time>2026-04-26T07:28:36.069Z</time></trkpt><trkpt lat="45.5992226" lon="10.7321954"><ele>303.33333333333337</ele><time>2026-04-26T07:28:37.069Z</time></trkpt><trkpt lat="45.5991483" lon="10.732265"><ele>302.6666666666667</ele><time>2026-04-26T07:28:38.068Z</time></trkpt><trkpt lat="45.5990854" lon="10.7323188"><ele>302.0</ele><time>2026-04-26T07:28:39.069Z</time></trkpt><trkpt lat="45.5990296" lon="10.7323778"><ele>302.0</ele><time>2026-04-26T07:28:40.069Z</time></trkpt><trkpt lat="45.5989381" lon="10.7324732"><ele>302.0</ele><time>2026-04-26T07:28:42.068Z</time></trkpt><trkpt lat="45.5988817" lon="10.7325587"><ele>302.0</ele><time>2026-04-26T07:28:44.068Z</time></trkpt><trkpt lat="45.5988209" lon="10.7326573"><ele>302.0</ele><time>2026-04-26T07:28:46.068Z</time></trkpt><trkpt lat="45.5987088" lon="10.7327427"><ele>302.0</ele><time>2026-04-26T07:28:48.069Z</time></trkpt><trkpt lat="45.5986503" lon="10.7327963"><ele>301.42857142857144</ele><time>2026-04-26T07:28:49.069Z</time></trkpt><trkpt lat="45.5985893" lon="10.7328487"><ele>300.8571428571429</ele><time>2026-04-26T07:28:50.069Z</time></trkpt><trkpt lat="45.59853" lon="10.7329013"><ele>300.2857142857143</ele><time>2026-04-26T07:28:51.069Z</time></trkpt><trkpt lat="45.5984714" lon="10.7329655"><ele>299.7142857142857</ele><time>2026-04-26T07:28:52.069Z</time></trkpt><trkpt lat="45.598408" lon="10.7330251"><ele>299.1428571428571</ele><time>2026-04-26T07:28:53.069Z</time></trkpt><trkpt lat="45.5983447" lon="10.733086"><ele>298.57142857142856</ele><time>2026-04-26T07:28:54.068Z</time></trkpt><trkpt lat="45.5982876" lon="10.7331421"><ele>298.0</ele><time>2026-04-26T07:28:55.069Z</time></trkpt><trkpt lat="45.598222" lon="10.7332073"><ele>298.0</ele><time>2026-04-26T07:28:56.068Z</time></trkpt><trkpt lat="45.5981485" lon="10.7332617"><ele>298.0</ele><time>2026-04-26T07:28:57.068Z</time></trkpt><trkpt lat="45.5980572" lon="10.7333061"><ele>298.0</ele><time>2026-04-26T07:28:58.069Z</time></trkpt><trkpt lat="45.5979552" lon="10.7333493"><ele>298.0</ele><time>2026-04-26T07:28:59.068Z</time></trkpt><trkpt lat="45.5978435" lon="10.7333884"><ele>298.0</ele><time>2026-04-26T07:29:00.069Z</time></trkpt><trkpt lat="45.5977307" lon="10.7334216"><ele>297.4</ele><time>2026-04-26T07:29:01.068Z</time></trkpt><trkpt lat="45.5976137" lon="10.7334461"><ele>296.8</ele><time>2026-04-26T07:29:02.069Z</time></trkpt><trkpt lat="45.5975029" lon="10.7334804"><ele>296.2</ele><time>2026-04-26T07:29:03.069Z</time></trkpt><trkpt lat="45.5973958" lon="10.7335142"><ele>295.6</ele><time>2026-04-26T07:29:04.069Z</time></trkpt><trkpt lat="45.5973025" lon="10.7335593"><ele>295.0</ele><time>2026-04-26T07:29:05.069Z</time></trkpt><trkpt lat="45.5972169" lon="10.7335727"><ele>292.66666666666663</ele><time>2026-04-26T07:29:06.068Z</time></trkpt><trkpt lat="45.5971255" lon="10.7336013"><ele>290.3333333333333</ele><time>2026-04-26T07:29:07.068Z</time></trkpt><trkpt lat="45.5970383" lon="10.7336536"><ele>288.0</ele><time>2026-04-26T07:29:08.069Z</time></trkpt><trkpt lat="45.5969642" lon="10.7337224"><ele>285.6666666666667</ele><time>2026-04-26T07:29:09.069Z</time></trkpt><trkpt lat="45.5968894" lon="10.7337855"><ele>283.33333333333337</ele><time>2026-04-26T07:29:10.069Z</time></trkpt><trkpt lat="45.5968255" lon="10.7338301"><ele>281.0</ele><time>2026-04-26T07:29:11.068Z</time></trkpt><trkpt lat="45.5967288" lon="10.7338437"><ele>280.5</ele><time>2026-04-26T07:29:13.069Z</time></trkpt><trkpt lat="45.5967" lon="10.7337306"><ele>280.0</ele><time>2026-04-26T07:29:15.069Z</time></trkpt><trkpt lat="45.5967125" lon="10.7336217"><ele>279.5</ele><time>2026-04-26T07:29:16.069Z</time></trkpt><trkpt lat="45.5967304" lon="10.7335025"><ele>279.0</ele><time>2026-04-26T07:29:17.069Z</time></trkpt><trkpt lat="45.596755" lon="10.7333821"><ele>278.5</ele><time>2026-04-26T07:29:18.069Z</time></trkpt><trkpt lat="45.5967915" lon="10.7332696"><ele>278.0</ele><time>2026-04-26T07:29:19.068Z</time></trkpt><trkpt lat="45.5968444" lon="10.7331506"><ele>278.0</ele><time>2026-04-26T07:29:20.068Z</time></trkpt><trkpt lat="45.5969112" lon="10.733021"><ele>278.0</ele><time>2026-04-26T07:29:21.068Z</time></trkpt><trkpt lat="45.5969771" lon="10.7328991"><ele>278.0</ele><time>2026-04-26T07:29:22.067Z</time></trkpt><trkpt lat="45.597048" lon="10.7327735"><ele>278.0</ele><time>2026-04-26T07:29:23.067Z</time></trkpt><trkpt lat="45.5971212" lon="10.7326615"><ele>278.0</ele><time>2026-04-26T07:29:24.068Z</time></trkpt><trkpt lat="45.5971922" lon="10.7325549"><ele>281.2</ele><time>2026-04-26T07:29:25.068Z</time></trkpt><trkpt lat="45.5972457" lon="10.7324506"><ele>284.4</ele><time>2026-04-26T07:29:26.068Z</time></trkpt><trkpt lat="45.5972831" lon="10.7323299"><ele>287.59999999999997</ele><time>2026-04-26T07:29:27.068Z</time></trkpt><trkpt lat="45.5973024" lon="10.7321989"><ele>290.8</ele><time>2026-04-26T07:29:28.067Z</time></trkpt><trkpt lat="45.597322" lon="10.7320694"><ele>294.0</ele><time>2026-04-26T07:29:29.068Z</time></trkpt><trkpt lat="45.5973356" lon="10.7319421"><ele>292.0</ele><time>2026-04-26T07:29:30.067Z</time></trkpt><trkpt lat="45.5973426" lon="10.731831"><ele>290.0</ele><time>2026-04-26T07:29:31.067Z</time></trkpt><trkpt lat="45.597344" lon="10.7317327"><ele>288.0</ele><time>2026-04-26T07:29:32.068Z</time></trkpt><trkpt lat="45.5973369" lon="10.7316107"><ele>286.0</ele><time>2026-04-26T07:29:34.068Z</time></trkpt><trkpt lat="45.5972582" lon="10.7316037"><ele>284.0</ele><time>2026-04-26T07:29:37.068Z</time></trkpt><trkpt lat="45.5971455" lon="10.7317022"><ele>282.0</ele><time>2026-04-26T07:29:39.067Z</time></trkpt><trkpt lat="45.5970549" lon="10.7318168"><ele>279.5</ele><time>2026-04-26T07:29:40.068Z</time></trkpt><trkpt lat="45.5969611" lon="10.7319473"><ele>277.0</ele><time>2026-04-26T07:29:41.067Z</time></trkpt><trkpt lat="45.5968804" lon="10.7320714"><ele>274.5</ele><time>2026-04-26T07:29:42.068Z</time></trkpt><trkpt lat="45.5968052" lon="10.7322076"><ele>272.0</ele><time>2026-04-26T07:29:43.068Z</time></trkpt><trkpt lat="45.5967346" lon="10.7323478"><ele>272.0</ele><time>2026-04-26T07:29:44.068Z</time></trkpt><trkpt lat="45.5966571" lon="10.7324844"><ele>272.0</ele><time>2026-04-26T07:29:45.067Z</time></trkpt><trkpt lat="45.5965672" lon="10.7326168"><ele>272.0</ele><time>2026-04-26T07:29:46.068Z</time></trkpt><trkpt lat="45.5964842" lon="10.7327429"><ele>272.0</ele><time>2026-04-26T07:29:47.068Z</time></trkpt><trkpt lat="45.5964039" lon="10.7328435"><ele>273.0</ele><time>2026-04-26T07:29:48.067Z</time></trkpt><trkpt lat="45.5963327" lon="10.7329163"><ele>274.0</ele><time>2026-04-26T07:29:49.068Z</time></trkpt><trkpt lat="45.5962571" lon="10.73295"><ele>275.0</ele><time>2026-04-26T07:29:50.068Z</time></trkpt><trkpt lat="45.5961841" lon="10.7329529"><ele>276.0</ele><time>2026-04-26T07:29:51.067Z</time></trkpt><trkpt lat="45.5960717" lon="10.7329498"><ele>277.0</ele><time>2026-04-26T07:29:53.068Z</time></trkpt><trkpt lat="45.5960073" lon="10.7330433"><ele>278.0</ele><time>2026-04-26T07:29:55.068Z</time></trkpt><trkpt lat="45.595995" lon="10.7331376"><ele>274.6</ele><time>2026-04-26T07:29:56.067Z</time></trkpt><trkpt lat="45.5959952" lon="10.7332755"><ele>271.20000000000005</ele><time>2026-04-26T07:29:57.067Z</time></trkpt><trkpt lat="45.5960009" lon="10.733438"><ele>267.8</ele><time>2026-04-26T07:29:58.067Z</time></trkpt><trkpt lat="45.5959972" lon="10.7336063"><ele>264.40000000000003</ele><time>2026-04-26T07:29:59.067Z</time></trkpt><trkpt lat="45.5959861" lon="10.7337709"><ele>261.0</ele><time>2026-04-26T07:30:00.068Z</time></trkpt><trkpt lat="45.5959639" lon="10.7339314"><ele>261.0</ele><time>2026-04-26T07:30:01.068Z</time></trkpt><trkpt lat="45.5959349" lon="10.7340806"><ele>261.0</ele><time>2026-04-26T07:30:02.067Z</time></trkpt><trkpt lat="45.5959067" lon="10.7342179"><ele>261.0</ele><time>2026-04-26T07:30:03.068Z</time></trkpt><trkpt lat="45.5958797" lon="10.7343531"><ele>261.0</ele><time>2026-04-26T07:30:04.067Z</time></trkpt><trkpt lat="45.5958583" lon="10.7344745"><ele>261.0</ele><time>2026-04-26T07:30:05.068Z</time></trkpt><trkpt lat="45.5958409" lon="10.7345778"><ele>260.5</ele><time>2026-04-26T07:30:06.068Z</time></trkpt><trkpt lat="45.5958233" lon="10.7346734"><ele>260.0</ele><time>2026-04-26T07:30:07.067Z</time></trkpt><trkpt lat="45.5957849" lon="10.73483"><ele>259.5</ele><time>2026-04-26T07:30:09.068Z</time></trkpt><trkpt lat="45.5957416" lon="10.7349598"><ele>259.0</ele><time>2026-04-26T07:30:11.068Z</time></trkpt><trkpt lat="45.5957102" lon="10.7350596"><ele>258.5</ele><time>2026-04-26T07:30:13.068Z</time></trkpt><trkpt lat="45.5956725" lon="10.7351461"><ele>258.0</ele><time>2026-04-26T07:30:15.067Z</time></trkpt><trkpt lat="45.5956073" lon="10.7352302"><ele>256.1666666666667</ele><time>2026-04-26T07:30:17.067Z</time></trkpt><trkpt lat="45.5955498" lon="10.7353279"><ele>254.33333333333331</ele><time>2026-04-26T07:30:19.067Z</time></trkpt><trkpt lat="45.5955618" lon="10.7354466"><ele>252.5</ele><time>2026-04-26T07:30:21.067Z</time></trkpt><trkpt lat="45.5956248" lon="10.7355659"><ele>250.66666666666666</ele><time>2026-04-26T07:30:23.067Z</time></trkpt><trkpt lat="45.5957004" lon="10.7356442"><ele>248.83333333333331</ele><time>2026-04-26T07:30:25.067Z</time></trkpt><trkpt lat="45.5957708" lon="10.7356772"><ele>247.0</ele><time>2026-04-26T07:30:27.067Z</time></trkpt><trkpt lat="45.5958384" lon="10.7357046"><ele>246.99999999999997</ele><time>2026-04-26T07:30:29.068Z</time></trkpt><trkpt lat="45.5958944" lon="10.7357519"><ele>247.0</ele><time>2026-04-26T07:30:31.068Z</time></trkpt><trkpt lat="45.5958984" lon="10.7358758"><ele>247.0</ele><time>2026-04-26T07:30:34.068Z</time></trkpt><trkpt lat="45.5958406" lon="10.7359535"><ele>247.0</ele><time>2026-04-26T07:30:36.067Z</time></trkpt><trkpt lat="45.5957176" lon="10.7359449"><ele>246.99999999999997</ele><time>2026-04-26T07:30:38.068Z</time></trkpt><trkpt lat="45.59565" lon="10.7359155"><ele>247.0</ele><time>2026-04-26T07:30:39.067Z</time></trkpt><trkpt lat="45.595584" lon="10.7358798"><ele>247.0</ele><time>2026-04-26T07:30:40.067Z</time></trkpt><trkpt lat="45.5955215" lon="10.7358287"><ele>247.0</ele><time>2026-04-26T07:30:41.067Z</time></trkpt><trkpt lat="45.5954645" lon="10.7357872"><ele>247.0</ele><time>2026-04-26T07:30:42.068Z</time></trkpt><trkpt lat="45.5953833" lon="10.7357392"><ele>247.0</ele><time>2026-04-26T07:30:44.068Z</time></trkpt><trkpt lat="45.5953203" lon="10.7357027"><ele>247.0</ele><time>2026-04-26T07:30:46.067Z</time></trkpt><trkpt lat="45.5952633" lon="10.7356304"><ele>247.0</ele><time>2026-04-26T07:30:48.068Z</time></trkpt><trkpt lat="45.5952124" lon="10.7356859"><ele>247.0</ele><time>2026-04-26T07:30:52.068Z</time></trkpt><trkpt lat="45.5952531" lon="10.7357841"><ele>247.0</ele><time>2026-04-26T07:30:54.068Z</time></trkpt><trkpt lat="45.5953382" lon="10.7358889"><ele>247.0</ele><time>2026-04-26T07:30:56.068Z</time></trkpt><trkpt lat="45.5953914" lon="10.7359942"><ele>247.0</ele><time>2026-04-26T07:30:58.068Z</time></trkpt><trkpt lat="45.5954199" lon="10.7361138"><ele>247.0</ele><time>2026-04-26T07:31:00.067Z</time></trkpt><trkpt lat="45.5954433" lon="10.7362409"><ele>247.0</ele><time>2026-04-26T07:31:02.068Z</time></trkpt><trkpt lat="45.5954217" lon="10.7363519"><ele>245.66666666666666</ele><time>2026-04-26T07:31:04.067Z</time></trkpt><trkpt lat="45.5953525" lon="10.7364714"><ele>244.33333333333331</ele><time>2026-04-26T07:31:06.068Z</time></trkpt><trkpt lat="45.5953097" lon="10.7365428"><ele>243.0</ele><time>2026-04-26T07:31:07.068Z</time></trkpt><trkpt lat="45.5952637" lon="10.7366106"><ele>241.66666666666669</ele><time>2026-04-26T07:31:08.067Z</time></trkpt><trkpt lat="45.5951805" lon="10.7367101"><ele>240.33333333333334</ele><time>2026-04-26T07:31:10.068Z</time></trkpt><trkpt lat="45.5950939" lon="10.7367259"><ele>239.0</ele><time>2026-04-26T07:31:12.068Z</time></trkpt><trkpt lat="45.5949601" lon="10.7366527"><ele>239.0</ele><time>2026-04-26T07:31:14.067Z</time></trkpt><trkpt lat="45.5948793" lon="10.7365931"><ele>238.99999999999997</ele><time>2026-04-26T07:31:15.068Z</time></trkpt><trkpt lat="45.594799" lon="10.7365361"><ele>238.99999999999997</ele><time>2026-04-26T07:31:16.067Z</time></trkpt><trkpt lat="45.5947131" lon="10.7364756"><ele>239.0</ele><time>2026-04-26T07:31:17.067Z</time></trkpt><trkpt lat="45.5946355" lon="10.7364126"><ele>239.0</ele><time>2026-04-26T07:31:18.067Z</time></trkpt><trkpt lat="45.5945583" lon="10.7363607"><ele>239.83333333333334</ele><time>2026-04-26T07:31:19.068Z</time></trkpt><trkpt lat="45.5944909" lon="10.7363306"><ele>240.66666666666669</ele><time>2026-04-26T07:31:20.068Z</time></trkpt><trkpt lat="45.5943934" lon="10.7363013"><ele>241.5</ele><time>2026-04-26T07:31:22.068Z</time></trkpt><trkpt lat="45.5943088" lon="10.7362637"><ele>242.33333333333331</ele><time>2026-04-26T07:31:24.068Z</time></trkpt><trkpt lat="45.5942226" lon="10.7362093"><ele>243.16666666666666</ele><time>2026-04-26T07:31:26.068Z</time></trkpt><trkpt lat="45.5941543" lon="10.7361399"><ele>244.0</ele><time>2026-04-26T07:31:28.068Z</time></trkpt><trkpt lat="45.5940915" lon="10.7360684"><ele>244.0</ele><time>2026-04-26T07:31:31.068Z</time></trkpt><trkpt lat="45.5940371" lon="10.7361324"><ele>243.99999999999997</ele><time>2026-04-26T07:31:35.068Z</time></trkpt><trkpt lat="45.5941073" lon="10.7362382"><ele>243.99999999999997</ele><time>2026-04-26T07:31:37.068Z</time></trkpt><trkpt lat="45.5941853" lon="10.7363446"><ele>244.0</ele><time>2026-04-26T07:31:38.068Z</time></trkpt><trkpt lat="45.5942726" lon="10.7364741"><ele>244.0</ele><time>2026-04-26T07:31:39.068Z</time></trkpt><trkpt lat="45.5943652" lon="10.7366146"><ele>244.0</ele><time>2026-04-26T07:31:40.068Z</time></trkpt><trkpt lat="45.5944651" lon="10.7367701"><ele>244.0</ele><time>2026-04-26T07:31:41.068Z</time></trkpt><trkpt lat="45.5945734" lon="10.7369308"><ele>244.0</ele><time>2026-04-26T07:31:42.068Z</time></trkpt><trkpt lat="45.5946868" lon="10.7370691"><ele>244.5</ele><time>2026-04-26T07:31:43.068Z</time></trkpt><trkpt lat="45.5948013" lon="10.7372086"><ele>245.0</ele><time>2026-04-26T07:31:44.068Z</time></trkpt><trkpt lat="45.5949131" lon="10.7373506"><ele>245.5</ele><time>2026-04-26T07:31:45.067Z</time></trkpt><trkpt lat="45.5950071" lon="10.7374887"><ele>246.0</ele><time>2026-04-26T07:31:46.068Z</time></trkpt><trkpt lat="45.5950866" lon="10.7376121"><ele>245.8</ele><time>2026-04-26T07:31:47.067Z</time></trkpt><trkpt lat="45.5951483" lon="10.7377309"><ele>245.60000000000002</ele><time>2026-04-26T07:31:48.068Z</time></trkpt><trkpt lat="45.5951984" lon="10.7378468"><ele>245.4</ele><time>2026-04-26T07:31:49.068Z</time></trkpt><trkpt lat="45.5952387" lon="10.7379662"><ele>245.2</ele><time>2026-04-26T07:31:50.067Z</time></trkpt><trkpt lat="45.5952755" lon="10.7380889"><ele>245.0</ele><time>2026-04-26T07:31:51.068Z</time></trkpt><trkpt lat="45.595316" lon="10.7382183"><ele>245.16666666666669</ele><time>2026-04-26T07:31:52.068Z</time></trkpt><trkpt lat="45.595359" lon="10.7383494"><ele>245.33333333333334</ele><time>2026-04-26T07:31:53.068Z</time></trkpt><trkpt lat="45.5953963" lon="10.7384601"><ele>245.5</ele><time>2026-04-26T07:31:54.068Z</time></trkpt><trkpt lat="45.5954326" lon="10.7385446"><ele>245.66666666666669</ele><time>2026-04-26T07:31:55.068Z</time></trkpt><trkpt lat="45.5954666" lon="10.7386606"><ele>245.83333333333334</ele><time>2026-04-26T07:31:57.067Z</time></trkpt><trkpt lat="45.5954841" lon="10.7387525"><ele>246.0</ele><time>2026-04-26T07:32:00.068Z</time></trkpt><trkpt lat="45.5955247" lon="10.7388504"><ele>246.0</ele><time>2026-04-26T07:32:03.067Z</time></trkpt><trkpt lat="45.5955512" lon="10.7389429"><ele>246.0</ele><time>2026-04-26T07:32:04.067Z</time></trkpt><trkpt lat="45.5955823" lon="10.7390523"><ele>246.0</ele><time>2026-04-26T07:32:05.068Z</time></trkpt><trkpt lat="45.5956128" lon="10.7391628"><ele>246.0</ele><time>2026-04-26T07:32:06.068Z</time></trkpt><trkpt lat="45.595646" lon="10.7392724"><ele>246.0</ele><time>2026-04-26T07:32:07.068Z</time></trkpt><trkpt lat="45.5956832" lon="10.7393743"><ele>246.0</ele><time>2026-04-26T07:32:08.067Z</time></trkpt><trkpt lat="45.5957214" lon="10.7394732"><ele>245.71428571428575</ele><time>2026-04-26T07:32:09.067Z</time></trkpt><trkpt lat="45.5957571" lon="10.7395724"><ele>245.42857142857144</ele><time>2026-04-26T07:32:10.068Z</time></trkpt><trkpt lat="45.5957967" lon="10.7396718"><ele>245.14285714285714</ele><time>2026-04-26T07:32:11.068Z</time></trkpt><trkpt lat="45.5958312" lon="10.7397669"><ele>244.85714285714286</ele><time>2026-04-26T07:32:12.068Z</time></trkpt><trkpt lat="45.5958656" lon="10.7398558"><ele>244.57142857142856</ele><time>2026-04-26T07:32:13.068Z</time></trkpt><trkpt lat="45.595899" lon="10.7399435"><ele>244.28571428571425</ele><time>2026-04-26T07:32:14.067Z</time></trkpt><trkpt lat="45.5959378" lon="10.7400358"><ele>243.99999999999997</ele><time>2026-04-26T07:32:15.067Z</time></trkpt><trkpt lat="45.5959786" lon="10.7401373"><ele>243.83333333333331</ele><time>2026-04-26T07:32:16.067Z</time></trkpt><trkpt lat="45.5960188" lon="10.7402504"><ele>243.66666666666666</ele><time>2026-04-26T07:32:17.067Z</time></trkpt><trkpt lat="45.5960571" lon="10.7403599"><ele>243.5</ele><time>2026-04-26T07:32:18.068Z</time></trkpt><trkpt lat="45.5960994" lon="10.7404763"><ele>243.33333333333331</ele><time>2026-04-26T07:32:19.067Z</time></trkpt><trkpt lat="45.5961376" lon="10.7405848"><ele>243.16666666666666</ele><time>2026-04-26T07:32:20.068Z</time></trkpt><trkpt lat="45.5961762" lon="10.7406913"><ele>243.0</ele><time>2026-04-26T07:32:21.068Z</time></trkpt><trkpt lat="45.5962096" lon="10.7408032"><ele>243.5</ele><time>2026-04-26T07:32:22.068Z</time></trkpt><trkpt lat="45.5962428" lon="10.7409132"><ele>244.0</ele><time>2026-04-26T07:32:23.068Z</time></trkpt><trkpt lat="45.5962794" lon="10.7410288"><ele>244.5</ele><time>2026-04-26T07:32:24.068Z</time></trkpt><trkpt lat="45.5963174" lon="10.7411346"><ele>245.0</ele><time>2026-04-26T07:32:25.067Z</time></trkpt><trkpt lat="45.5963526" lon="10.741241"><ele>245.5</ele><time>2026-04-26T07:32:26.068Z</time></trkpt><trkpt lat="45.5963916" lon="10.7413421"><ele>246.0</ele><time>2026-04-26T07:32:27.066Z</time></trkpt><trkpt lat="45.5964299" lon="10.7414432"><ele>246.0</ele><time>2026-04-26T07:32:28.066Z</time></trkpt><trkpt lat="45.5964639" lon="10.7415335"><ele>246.00000000000003</ele><time>2026-04-26T07:32:29.067Z</time></trkpt><trkpt lat="45.5965454" lon="10.7416393"><ele>246.00000000000003</ele><time>2026-04-26T07:32:31.067Z</time></trkpt><trkpt lat="45.5966513" lon="10.7416737"><ele>246.0</ele><time>2026-04-26T07:32:33.067Z</time></trkpt><trkpt lat="45.5967525" lon="10.741707"><ele>246.0</ele><time>2026-04-26T07:32:35.066Z</time></trkpt><trkpt lat="45.596798" lon="10.7418092"><ele>246.0</ele><time>2026-04-26T07:32:37.066Z</time></trkpt><trkpt lat="45.596811" lon="10.7419142"><ele>246.0</ele><time>2026-04-26T07:32:38.066Z</time></trkpt><trkpt lat="45.5968413" lon="10.7420183"><ele>246.0</ele><time>2026-04-26T07:32:39.067Z</time></trkpt><trkpt lat="45.5968809" lon="10.7421182"><ele>246.0</ele><time>2026-04-26T07:32:40.066Z</time></trkpt><trkpt lat="45.5969192" lon="10.7422276"><ele>246.0</ele><time>2026-04-26T07:32:41.067Z</time></trkpt><trkpt lat="45.5969683" lon="10.7423344"><ele>246.0</ele><time>2026-04-26T07:32:42.067Z</time></trkpt><trkpt lat="45.5970256" lon="10.7424331"><ele>246.83333333333334</ele><time>2026-04-26T07:32:43.067Z</time></trkpt><trkpt lat="45.5970873" lon="10.7425219"><ele>247.66666666666669</ele><time>2026-04-26T07:32:44.067Z</time></trkpt><trkpt lat="45.5971566" lon="10.7426049"><ele>248.5</ele><time>2026-04-26T07:32:45.066Z</time></trkpt><trkpt lat="45.5972254" lon="10.7426779"><ele>249.33333333333334</ele><time>2026-04-26T07:32:46.066Z</time></trkpt><trkpt lat="45.5972898" lon="10.7427567"><ele>250.16666666666669</ele><time>2026-04-26T07:32:47.066Z</time></trkpt><trkpt lat="45.5973442" lon="10.7428347"><ele>251.0</ele><time>2026-04-26T07:32:48.067Z</time></trkpt><trkpt lat="45.597397" lon="10.7429081"><ele>251.16666666666669</ele><time>2026-04-26T07:32:49.067Z</time></trkpt><trkpt lat="45.597466" lon="10.7430156"><ele>251.33333333333334</ele><time>2026-04-26T07:32:51.067Z</time></trkpt><trkpt lat="45.5974838" lon="10.7431481"><ele>251.5</ele><time>2026-04-26T07:32:53.067Z</time></trkpt><trkpt lat="45.5974757" lon="10.7432402"><ele>251.66666666666669</ele><time>2026-04-26T07:32:54.067Z</time></trkpt><trkpt lat="45.5974561" lon="10.7433561"><ele>251.83333333333334</ele><time>2026-04-26T07:32:55.066Z</time></trkpt><trkpt lat="45.5974406" lon="10.7434635"><ele>252.0</ele><time>2026-04-26T07:32:56.066Z</time></trkpt><trkpt lat="45.5974266" lon="10.7435788"><ele>251.57142857142856</ele><time>2026-04-26T07:32:57.067Z</time></trkpt><trkpt lat="45.5974159" lon="10.7436812"><ele>251.14285714285714</ele><time>2026-04-26T07:32:58.067Z</time></trkpt><trkpt lat="45.5974017" lon="10.7437923"><ele>250.71428571428572</ele><time>2026-04-26T07:32:59.067Z</time></trkpt><trkpt lat="45.5973814" lon="10.743901"><ele>250.28571428571428</ele><time>2026-04-26T07:33:00.066Z</time></trkpt><trkpt lat="45.5973715" lon="10.7440079"><ele>249.85714285714283</ele><time>2026-04-26T07:33:01.067Z</time></trkpt><trkpt lat="45.5973666" lon="10.7441117"><ele>249.42857142857142</ele><time>2026-04-26T07:33:02.067Z</time></trkpt><trkpt lat="45.5973635" lon="10.7442099"><ele>249.0</ele><time>2026-04-26T07:33:03.067Z</time></trkpt><trkpt lat="45.5973736" lon="10.7443142"><ele>248.5</ele><time>2026-04-26T07:33:04.067Z</time></trkpt><trkpt lat="45.5973845" lon="10.7444303"><ele>248.0</ele><time>2026-04-26T07:33:05.066Z</time></trkpt><trkpt lat="45.597395" lon="10.7445485"><ele>247.5</ele><time>2026-04-26T07:33:06.066Z</time></trkpt><trkpt lat="45.5974081" lon="10.7446804"><ele>247.0</ele><time>2026-04-26T07:33:07.066Z</time></trkpt><trkpt lat="45.5974158" lon="10.7448017"><ele>246.5</ele><time>2026-04-26T07:33:08.067Z</time></trkpt><trkpt lat="45.5974247" lon="10.7449209"><ele>246.0</ele><time>2026-04-26T07:33:09.067Z</time></trkpt><trkpt lat="45.5974222" lon="10.7450322"><ele>246.0</ele><time>2026-04-26T07:33:10.067Z</time></trkpt><trkpt lat="45.597417" lon="10.7451271"><ele>246.0</ele><time>2026-04-26T07:33:11.066Z</time></trkpt><trkpt lat="45.5974057" lon="10.7452228"><ele>246.0</ele><time>2026-04-26T07:33:12.067Z</time></trkpt><trkpt lat="45.5973882" lon="10.7453164"><ele>246.0</ele><time>2026-04-26T07:33:13.066Z</time></trkpt><trkpt lat="45.5973618" lon="10.7454269"><ele>246.0</ele><time>2026-04-26T07:33:14.067Z</time></trkpt><trkpt lat="45.5973281" lon="10.7455499"><ele>246.0</ele><time>2026-04-26T07:33:15.066Z</time></trkpt><trkpt lat="45.5973012" lon="10.7456868"><ele>245.5</ele><time>2026-04-26T07:33:16.066Z</time></trkpt><trkpt lat="45.5972749" lon="10.7458325"><ele>245.0</ele><time>2026-04-26T07:33:17.067Z</time></trkpt><trkpt lat="45.5972615" lon="10.7459781"><ele>244.5</ele><time>2026-04-26T07:33:18.067Z</time></trkpt><trkpt lat="45.5972556" lon="10.746104"><ele>244.0</ele><time>2026-04-26T07:33:19.067Z</time></trkpt><trkpt lat="45.5972544" lon="10.7462076"><ele>243.5</ele><time>2026-04-26T07:33:20.066Z</time></trkpt><trkpt lat="45.5972581" lon="10.7463095"><ele>243.0</ele><time>2026-04-26T07:33:21.067Z</time></trkpt><trkpt lat="45.5972664" lon="10.7464417"><ele>243.0</ele><time>2026-04-26T07:33:23.067Z</time></trkpt><trkpt lat="45.5972517" lon="10.7465428"><ele>243.0</ele><time>2026-04-26T07:33:25.067Z</time></trkpt><trkpt lat="45.5972023" lon="10.7467019"><ele>243.0</ele><time>2026-04-26T07:33:27.067Z</time></trkpt><trkpt lat="45.5971785" lon="10.7468317"><ele>243.0</ele><time>2026-04-26T07:33:28.066Z</time></trkpt><trkpt lat="45.5971564" lon="10.7470022"><ele>243.0</ele><time>2026-04-26T07:33:29.067Z</time></trkpt><trkpt lat="45.5971409" lon="10.7471891"><ele>243.0</ele><time>2026-04-26T07:33:30.066Z</time></trkpt><trkpt lat="45.5971211" lon="10.7473751"><ele>243.0</ele><time>2026-04-26T07:33:31.066Z</time></trkpt><trkpt lat="45.5971075" lon="10.7475586"><ele>243.0</ele><time>2026-04-26T07:33:32.066Z</time></trkpt><trkpt lat="45.5970909" lon="10.7477393"><ele>243.0</ele><time>2026-04-26T07:33:33.067Z</time></trkpt><trkpt lat="45.597083" lon="10.7479139"><ele>243.0</ele><time>2026-04-26T07:33:34.067Z</time></trkpt><trkpt lat="45.5970704" lon="10.7480793"><ele>243.0</ele><time>2026-04-26T07:33:35.066Z</time></trkpt><trkpt lat="45.5970563" lon="10.7482407"><ele>243.0</ele><time>2026-04-26T07:33:36.067Z</time></trkpt><trkpt lat="45.5970411" lon="10.7483997"><ele>243.0</ele><time>2026-04-26T07:33:37.066Z</time></trkpt><trkpt lat="45.5970134" lon="10.7485611"><ele>241.0</ele><time>2026-04-26T07:33:38.066Z</time></trkpt><trkpt lat="45.5969741" lon="10.7487141"><ele>239.0</ele><time>2026-04-26T07:33:39.067Z</time></trkpt><trkpt lat="45.5969192" lon="10.7488574"><ele>237.0</ele><time>2026-04-26T07:33:40.067Z</time></trkpt><trkpt lat="45.5968598" lon="10.749"><ele>235.0</ele><time>2026-04-26T07:33:41.066Z</time></trkpt><trkpt lat="45.5968047" lon="10.7491624"><ele>235.0</ele><time>2026-04-26T07:33:42.067Z</time></trkpt><trkpt lat="45.5967664" lon="10.7493364"><ele>235.0</ele><time>2026-04-26T07:33:43.067Z</time></trkpt><trkpt lat="45.5967325" lon="10.7495229"><ele>235.0</ele><time>2026-04-26T07:33:44.067Z</time></trkpt><trkpt lat="45.5966781" lon="10.7496961"><ele>235.0</ele><time>2026-04-26T07:33:45.067Z</time></trkpt><trkpt lat="45.5966243" lon="10.7498614"><ele>235.75</ele><time>2026-04-26T07:33:46.066Z</time></trkpt><trkpt lat="45.596571" lon="10.7500413"><ele>236.5</ele><time>2026-04-26T07:33:47.067Z</time></trkpt><trkpt lat="45.5965121" lon="10.7502125"><ele>237.25</ele><time>2026-04-26T07:33:48.066Z</time></trkpt><trkpt lat="45.5964537" lon="10.7503623"><ele>238.0</ele><time>2026-04-26T07:33:49.067Z</time></trkpt><trkpt lat="45.5964123" lon="10.7504992"><ele>238.2</ele><time>2026-04-26T07:33:50.066Z</time></trkpt><trkpt lat="45.5963778" lon="10.7506135"><ele>238.4</ele><time>2026-04-26T07:33:51.066Z</time></trkpt><trkpt lat="45.596356" lon="10.7507112"><ele>238.59999999999997</ele><time>2026-04-26T07:33:52.067Z</time></trkpt><trkpt lat="45.5963382" lon="10.7508459"><ele>238.79999999999998</ele><time>2026-04-26T07:33:54.067Z</time></trkpt><trkpt lat="45.5963223" lon="10.7510302"><ele>239.0</ele><time>2026-04-26T07:33:56.066Z</time></trkpt><trkpt lat="45.596302" lon="10.7511677"><ele>238.6</ele><time>2026-04-26T07:33:57.066Z</time></trkpt><trkpt lat="45.596285" lon="10.7513075"><ele>238.2</ele><time>2026-04-26T07:33:58.066Z</time></trkpt><trkpt lat="45.5962663" lon="10.7514173"><ele>237.79999999999998</ele><time>2026-04-26T07:33:59.067Z</time></trkpt><trkpt lat="45.596219" lon="10.7515737"><ele>237.39999999999998</ele><time>2026-04-26T07:34:01.067Z</time></trkpt><trkpt lat="45.5961797" lon="10.7516531"><ele>237.0</ele><time>2026-04-26T07:34:02.067Z</time></trkpt><trkpt lat="45.5961321" lon="10.7517606"><ele>236.0</ele><time>2026-04-26T07:34:03.067Z</time></trkpt><trkpt lat="45.596084" lon="10.7518891"><ele>235.0</ele><time>2026-04-26T07:34:04.067Z</time></trkpt><trkpt lat="45.5960358" lon="10.7520122"><ele>234.0</ele><time>2026-04-26T07:34:05.067Z</time></trkpt><trkpt lat="45.5959796" lon="10.7521233"><ele>233.0</ele><time>2026-04-26T07:34:06.067Z</time></trkpt><trkpt lat="45.595911" lon="10.7522284"><ele>232.0</ele><time>2026-04-26T07:34:07.067Z</time></trkpt><trkpt lat="45.5958348" lon="10.7523358"><ele>231.99999999999997</ele><time>2026-04-26T07:34:08.066Z</time></trkpt><trkpt lat="45.5957639" lon="10.7524294"><ele>232.0</ele><time>2026-04-26T07:34:09.067Z</time></trkpt><trkpt lat="45.5956979" lon="10.7525079"><ele>232.0</ele><time>2026-04-26T07:34:10.067Z</time></trkpt><trkpt lat="45.5956398" lon="10.7525712"><ele>232.0</ele><time>2026-04-26T07:34:11.067Z</time></trkpt><trkpt lat="45.5955692" lon="10.752643"><ele>231.99999999999997</ele><time>2026-04-26T07:34:13.067Z</time></trkpt><trkpt lat="45.5956152" lon="10.7527123"><ele>232.0</ele><time>2026-04-26T07:34:16.067Z</time></trkpt><trkpt lat="45.595667" lon="10.7527652"><ele>232.39999999999998</ele><time>2026-04-26T07:34:17.067Z</time></trkpt><trkpt lat="45.595734" lon="10.7528194"><ele>232.79999999999998</ele><time>2026-04-26T07:34:18.067Z</time></trkpt><trkpt lat="45.5958031" lon="10.7528653"><ele>233.2</ele><time>2026-04-26T07:34:19.067Z</time></trkpt><trkpt lat="45.5958587" lon="10.7529939"><ele>233.6</ele><time>2026-04-26T07:34:21.067Z</time></trkpt><trkpt lat="45.5957511" lon="10.7531032"><ele>234.0</ele><time>2026-04-26T07:34:23.067Z</time></trkpt><trkpt lat="45.5956526" lon="10.7531445"><ele>234.0</ele><time>2026-04-26T07:34:24.067Z</time></trkpt><trkpt lat="45.595528" lon="10.7531864"><ele>234.0</ele><time>2026-04-26T07:34:25.067Z</time></trkpt><trkpt lat="45.5953854" lon="10.7532383"><ele>234.0</ele><time>2026-04-26T07:34:26.067Z</time></trkpt><trkpt lat="45.5952409" lon="10.7533177"><ele>234.0</ele><time>2026-04-26T07:34:27.067Z</time></trkpt><trkpt lat="45.5950981" lon="10.7534178"><ele>231.66666666666669</ele><time>2026-04-26T07:34:28.067Z</time></trkpt><trkpt lat="45.5949545" lon="10.753531"><ele>229.33333333333334</ele><time>2026-04-26T07:34:29.066Z</time></trkpt><trkpt lat="45.5948158" lon="10.7536428"><ele>227.0</ele><time>2026-04-26T07:34:30.066Z</time></trkpt><trkpt lat="45.5946799" lon="10.7537498"><ele>227.0</ele><time>2026-04-26T07:34:31.067Z</time></trkpt><trkpt lat="45.594544" lon="10.7538581"><ele>227.0</ele><time>2026-04-26T07:34:32.067Z</time></trkpt><trkpt lat="45.5944074" lon="10.75397"><ele>227.0</ele><time>2026-04-26T07:34:33.067Z</time></trkpt><trkpt lat="45.5942672" lon="10.7540767"><ele>226.33333333333334</ele><time>2026-04-26T07:34:34.066Z</time></trkpt><trkpt lat="45.5941283" lon="10.7541835"><ele>225.66666666666669</ele><time>2026-04-26T07:34:35.066Z</time></trkpt><trkpt lat="45.5939957" lon="10.7542875"><ele>225.0</ele><time>2026-04-26T07:34:36.067Z</time></trkpt><trkpt lat="45.5938649" lon="10.7543953"><ele>224.33333333333331</ele><time>2026-04-26T07:34:37.067Z</time></trkpt><trkpt lat="45.5937299" lon="10.7544974"><ele>223.66666666666666</ele><time>2026-04-26T07:34:38.066Z</time></trkpt><trkpt lat="45.5935927" lon="10.7546007"><ele>223.0</ele><time>2026-04-26T07:34:39.066Z</time></trkpt><trkpt lat="45.5934583" lon="10.7547112"><ele>222.33333333333331</ele><time>2026-04-26T07:34:40.066Z</time></trkpt><trkpt lat="45.5933174" lon="10.754821"><ele>221.66666666666669</ele><time>2026-04-26T07:34:41.066Z</time></trkpt><trkpt lat="45.5931734" lon="10.7549341"><ele>221.0</ele><time>2026-04-26T07:34:42.067Z</time></trkpt><trkpt lat="45.5930394" lon="10.7550287"><ele>221.0</ele><time>2026-04-26T07:34:43.067Z</time></trkpt><trkpt lat="45.5929034" lon="10.755127"><ele>221.0</ele><time>2026-04-26T07:34:44.067Z</time></trkpt><trkpt lat="45.5927645" lon="10.7552349"><ele>221.0</ele><time>2026-04-26T07:34:45.067Z</time></trkpt><trkpt lat="45.5926273" lon="10.7553385"><ele>219.33333333333334</ele><time>2026-04-26T07:34:46.066Z</time></trkpt><trkpt lat="45.592492" lon="10.755451"><ele>217.66666666666669</ele><time>2026-04-26T07:34:47.067Z</time></trkpt><trkpt lat="45.5923657" lon="10.7555658"><ele>216.0</ele><time>2026-04-26T07:34:48.067Z</time></trkpt><trkpt lat="45.5922313" lon="10.7556697"><ele>216.0</ele><time>2026-04-26T07:34:49.066Z</time></trkpt><trkpt lat="45.5921126" lon="10.7557645"><ele>216.0</ele><time>2026-04-26T07:34:50.066Z</time></trkpt><trkpt lat="45.5920104" lon="10.7558595"><ele>216.0</ele><time>2026-04-26T07:34:51.067Z</time></trkpt><trkpt lat="45.5919056" lon="10.7559474"><ele>216.0</ele><time>2026-04-26T07:34:52.066Z</time></trkpt><trkpt lat="45.5918029" lon="10.7560287"><ele>216.0</ele><time>2026-04-26T07:34:53.066Z</time></trkpt><trkpt lat="45.5916908" lon="10.7561105"><ele>216.0</ele><time>2026-04-26T07:34:54.067Z</time></trkpt><trkpt lat="45.5915672" lon="10.7561919"><ele>216.0</ele><time>2026-04-26T07:34:55.066Z</time></trkpt><trkpt lat="45.5914483" lon="10.756273"><ele>216.0</ele><time>2026-04-26T07:34:56.066Z</time></trkpt><trkpt lat="45.5913296" lon="10.7563627"><ele>216.0</ele><time>2026-04-26T07:34:57.067Z</time></trkpt><trkpt lat="45.5912128" lon="10.7564453"><ele>216.0</ele><time>2026-04-26T07:34:58.067Z</time></trkpt><trkpt lat="45.5911061" lon="10.7565238"><ele>216.0</ele><time>2026-04-26T07:34:59.066Z</time></trkpt><trkpt lat="45.591012" lon="10.7565955"><ele>216.0</ele><time>2026-04-26T07:35:00.066Z</time></trkpt><trkpt lat="45.5909253" lon="10.7566584"><ele>215.83333333333334</ele><time>2026-04-26T07:35:01.067Z</time></trkpt><trkpt lat="45.590839" lon="10.7567112"><ele>215.66666666666669</ele><time>2026-04-26T07:35:02.066Z</time></trkpt><trkpt lat="45.5907643" lon="10.7567425"><ele>215.5</ele><time>2026-04-26T07:35:03.067Z</time></trkpt><trkpt lat="45.5906945" lon="10.7567583"><ele>215.33333333333334</ele><time>2026-04-26T07:35:04.067Z</time></trkpt><trkpt lat="45.5905624" lon="10.756748"><ele>215.16666666666669</ele><time>2026-04-26T07:35:06.067Z</time></trkpt><trkpt lat="45.5904951" lon="10.7567739"><ele>215.0</ele><time>2026-04-26T07:35:07.067Z</time></trkpt><trkpt lat="45.5904345" lon="10.7568213"><ele>215.00000000000003</ele><time>2026-04-26T07:35:08.067Z</time></trkpt><trkpt lat="45.5904022" lon="10.7569006"><ele>215.0</ele><time>2026-04-26T07:35:09.066Z</time></trkpt><trkpt lat="45.5904145" lon="10.756995"><ele>215.0</ele><time>2026-04-26T07:35:10.067Z</time></trkpt><trkpt lat="45.5904585" lon="10.7570944"><ele>215.0</ele><time>2026-04-26T07:35:11.066Z</time></trkpt><trkpt lat="45.5905309" lon="10.7571934"><ele>215.00000000000003</ele><time>2026-04-26T07:35:12.067Z</time></trkpt><trkpt lat="45.5906257" lon="10.7573207"><ele>215.0</ele><time>2026-04-26T07:35:13.067Z</time></trkpt><trkpt lat="45.5907245" lon="10.7574755"><ele>215.0</ele><time>2026-04-26T07:35:14.067Z</time></trkpt><trkpt lat="45.5908143" lon="10.7576526"><ele>215.0</ele><time>2026-04-26T07:35:15.066Z</time></trkpt><trkpt lat="45.590899" lon="10.7578502"><ele>215.0</ele><time>2026-04-26T07:35:16.066Z</time></trkpt><trkpt lat="45.5909887" lon="10.7580645"><ele>214.33333333333334</ele><time>2026-04-26T07:35:17.067Z</time></trkpt><trkpt lat="45.5910757" lon="10.7582804"><ele>213.66666666666669</ele><time>2026-04-26T07:35:18.067Z</time></trkpt><trkpt lat="45.5911568" lon="10.7585054"><ele>213.0</ele><time>2026-04-26T07:35:19.067Z</time></trkpt><trkpt lat="45.5912378" lon="10.758731"><ele>213.0</ele><time>2026-04-26T07:35:20.067Z</time></trkpt><trkpt lat="45.5913237" lon="10.7589686"><ele>213.0</ele><time>2026-04-26T07:35:21.067Z</time></trkpt><trkpt lat="45.5914118" lon="10.7592107"><ele>213.0</ele><time>2026-04-26T07:35:22.067Z</time></trkpt><trkpt lat="45.5914969" lon="10.7594551"><ele>213.33333333333331</ele><time>2026-04-26T07:35:23.066Z</time></trkpt><trkpt lat="45.5915802" lon="10.7596959"><ele>213.66666666666666</ele><time>2026-04-26T07:35:24.066Z</time></trkpt><trkpt lat="45.5916796" lon="10.7599438"><ele>214.0</ele><time>2026-04-26T07:35:25.067Z</time></trkpt><trkpt lat="45.5917799" lon="10.7601863"><ele>214.0</ele><time>2026-04-26T07:35:26.067Z</time></trkpt><trkpt lat="45.5918798" lon="10.7604262"><ele>214.0</ele><time>2026-04-26T07:35:27.066Z</time></trkpt><trkpt lat="45.5919797" lon="10.7606685"><ele>214.0</ele><time>2026-04-26T07:35:28.067Z</time></trkpt><trkpt lat="45.5920698" lon="10.7609053"><ele>214.0</ele><time>2026-04-26T07:35:29.066Z</time></trkpt><trkpt lat="45.5921596" lon="10.7611427"><ele>214.0</ele><time>2026-04-26T07:35:30.067Z</time></trkpt><trkpt lat="45.5922504" lon="10.7613823"><ele>214.0</ele><time>2026-04-26T07:35:31.067Z</time></trkpt><trkpt lat="45.592339" lon="10.7616176"><ele>214.0</ele><time>2026-04-26T07:35:32.067Z</time></trkpt><trkpt lat="45.5924221" lon="10.7618419"><ele>214.0</ele><time>2026-04-26T07:35:33.066Z</time></trkpt><trkpt lat="45.5924988" lon="10.7620592"><ele>214.0</ele><time>2026-04-26T07:35:34.067Z</time></trkpt><trkpt lat="45.5925821" lon="10.7622745"><ele>214.0</ele><time>2026-04-26T07:35:35.067Z</time></trkpt><trkpt lat="45.5926637" lon="10.7624781"><ele>214.0</ele><time>2026-04-26T07:35:36.067Z</time></trkpt><trkpt lat="45.5927446" lon="10.7626726"><ele>214.0</ele><time>2026-04-26T07:35:37.066Z</time></trkpt><trkpt lat="45.5928138" lon="10.7628582"><ele>214.5</ele><time>2026-04-26T07:35:38.067Z</time></trkpt><trkpt lat="45.5928795" lon="10.7630315"><ele>215.0</ele><time>2026-04-26T07:35:39.067Z</time></trkpt><trkpt lat="45.5929374" lon="10.7631882"><ele>215.5</ele><time>2026-04-26T07:35:40.067Z</time></trkpt><trkpt lat="45.5929922" lon="10.7633282"><ele>216.0</ele><time>2026-04-26T07:35:41.066Z</time></trkpt><trkpt lat="45.5930397" lon="10.7634519"><ele>216.0</ele><time>2026-04-26T07:35:42.065Z</time></trkpt><trkpt lat="45.59308" lon="10.7635705"><ele>216.0</ele><time>2026-04-26T07:35:43.066Z</time></trkpt><trkpt lat="45.5931151" lon="10.7636737"><ele>216.0</ele><time>2026-04-26T07:35:44.065Z</time></trkpt><trkpt lat="45.5931435" lon="10.7637595"><ele>216.0</ele><time>2026-04-26T07:35:45.065Z</time></trkpt><trkpt lat="45.5931565" lon="10.7638756"><ele>216.0</ele><time>2026-04-26T07:35:47.066Z</time></trkpt><trkpt lat="45.5930836" lon="10.763941"><ele>216.0</ele><time>2026-04-26T07:35:49.066Z</time></trkpt><trkpt lat="45.5929639" lon="10.7640405"><ele>216.0</ele><time>2026-04-26T07:35:51.066Z</time></trkpt><trkpt lat="45.5928976" lon="10.7640989"><ele>216.0</ele><time>2026-04-26T07:35:52.065Z</time></trkpt><trkpt lat="45.5928349" lon="10.7641587"><ele>216.0</ele><time>2026-04-26T07:35:53.066Z</time></trkpt><trkpt lat="45.5927753" lon="10.7642279"><ele>216.0</ele><time>2026-04-26T07:35:54.065Z</time></trkpt><trkpt lat="45.5927265" lon="10.7642979"><ele>216.0</ele><time>2026-04-26T07:35:55.065Z</time></trkpt><trkpt lat="45.5926851" lon="10.7643702"><ele>216.0</ele><time>2026-04-26T07:35:56.066Z</time></trkpt><trkpt lat="45.5926449" lon="10.7644419"><ele>216.0</ele><time>2026-04-26T07:35:57.066Z</time></trkpt><trkpt lat="45.5926109" lon="10.7645184"><ele>216.16666666666666</ele><time>2026-04-26T07:35:58.065Z</time></trkpt><trkpt lat="45.5925818" lon="10.7646233"><ele>216.33333333333331</ele><time>2026-04-26T07:36:00.065Z</time></trkpt><trkpt lat="45.5925958" lon="10.7647313"><ele>216.5</ele><time>2026-04-26T07:36:02.066Z</time></trkpt><trkpt lat="45.5926062" lon="10.7648575"><ele>216.66666666666666</ele><time>2026-04-26T07:36:04.066Z</time></trkpt><trkpt lat="45.5925659" lon="10.7650026"><ele>216.83333333333331</ele><time>2026-04-26T07:36:06.066Z</time></trkpt><trkpt lat="45.592522" lon="10.7650828"><ele>217.0</ele><time>2026-04-26T07:36:07.066Z</time></trkpt><trkpt lat="45.5924623" lon="10.765183"><ele>216.8</ele><time>2026-04-26T07:36:08.066Z</time></trkpt><trkpt lat="45.5924018" lon="10.7652748"><ele>216.6</ele><time>2026-04-26T07:36:09.066Z</time></trkpt><trkpt lat="45.5923406" lon="10.7653613"><ele>216.40000000000003</ele><time>2026-04-26T07:36:10.065Z</time></trkpt><trkpt lat="45.5922791" lon="10.7654536"><ele>216.20000000000002</ele><time>2026-04-26T07:36:11.065Z</time></trkpt><trkpt lat="45.5922152" lon="10.7655581"><ele>216.0</ele><time>2026-04-26T07:36:12.066Z</time></trkpt><trkpt lat="45.592155" lon="10.7656525"><ele>216.0</ele><time>2026-04-26T07:36:13.065Z</time></trkpt><trkpt lat="45.5920953" lon="10.7657467"><ele>216.00000000000003</ele><time>2026-04-26T07:36:14.066Z</time></trkpt><trkpt lat="45.5920384" lon="10.7658459"><ele>216.00000000000003</ele><time>2026-04-26T07:36:15.065Z</time></trkpt><trkpt lat="45.5919821" lon="10.7659542"><ele>216.0</ele><time>2026-04-26T07:36:16.066Z</time></trkpt><trkpt lat="45.5919248" lon="10.7660721"><ele>216.0</ele><time>2026-04-26T07:36:17.065Z</time></trkpt><trkpt lat="45.5918735" lon="10.7661947"><ele>216.0</ele><time>2026-04-26T07:36:18.066Z</time></trkpt><trkpt lat="45.5918276" lon="10.7663135"><ele>216.0</ele><time>2026-04-26T07:36:19.065Z</time></trkpt><trkpt lat="45.5917856" lon="10.7664332"><ele>216.0</ele><time>2026-04-26T07:36:20.066Z</time></trkpt><trkpt lat="45.5917469" lon="10.7665417"><ele>216.0</ele><time>2026-04-26T07:36:21.065Z</time></trkpt><trkpt lat="45.5917055" lon="10.7666431"><ele>216.0</ele><time>2026-04-26T07:36:22.066Z</time></trkpt><trkpt lat="45.591664" lon="10.7667389"><ele>216.0</ele><time>2026-04-26T07:36:23.066Z</time></trkpt><trkpt lat="45.5916209" lon="10.766838"><ele>216.28571428571428</ele><time>2026-04-26T07:36:24.066Z</time></trkpt><trkpt lat="45.5915792" lon="10.7669355"><ele>216.57142857142856</ele><time>2026-04-26T07:36:25.066Z</time></trkpt><trkpt lat="45.5915449" lon="10.7670303"><ele>216.85714285714286</ele><time>2026-04-26T07:36:26.066Z</time></trkpt><trkpt lat="45.5915239" lon="10.7671247"><ele>217.14285714285714</ele><time>2026-04-26T07:36:27.066Z</time></trkpt><trkpt lat="45.5915095" lon="10.76722"><ele>217.42857142857144</ele><time>2026-04-26T07:36:28.066Z</time></trkpt><trkpt lat="45.5915023" lon="10.767326"><ele>217.71428571428572</ele><time>2026-04-26T07:36:29.065Z</time></trkpt><trkpt lat="45.5914943" lon="10.7674428"><ele>218.0</ele><time>2026-04-26T07:36:30.065Z</time></trkpt><trkpt lat="45.5914853" lon="10.7675588"><ele>218.00000000000003</ele><time>2026-04-26T07:36:31.065Z</time></trkpt><trkpt lat="45.5914862" lon="10.7676645"><ele>218.0</ele><time>2026-04-26T07:36:32.065Z</time></trkpt><trkpt lat="45.5914886" lon="10.7677738"><ele>218.0</ele><time>2026-04-26T07:36:33.066Z</time></trkpt><trkpt lat="45.5914907" lon="10.7678907"><ele>218.0</ele><time>2026-04-26T07:36:34.065Z</time></trkpt><trkpt lat="45.5914935" lon="10.7680105"><ele>218.00000000000003</ele><time>2026-04-26T07:36:35.066Z</time></trkpt><trkpt lat="45.5914977" lon="10.7681184"><ele>218.0</ele><time>2026-04-26T07:36:36.065Z</time></trkpt><trkpt lat="45.5915067" lon="10.768213"><ele>217.83333333333334</ele><time>2026-04-26T07:36:37.066Z</time></trkpt><trkpt lat="45.5915357" lon="10.7683774"><ele>217.66666666666669</ele><time>2026-04-26T07:36:39.066Z</time></trkpt><trkpt lat="45.5915605" lon="10.7684646"><ele>217.5</ele><time>2026-04-26T07:36:40.066Z</time></trkpt><trkpt lat="45.5915883" lon="10.7685623"><ele>217.33333333333331</ele><time>2026-04-26T07:36:41.065Z</time></trkpt><trkpt lat="45.5916203" lon="10.7686624"><ele>217.16666666666666</ele><time>2026-04-26T07:36:42.065Z</time></trkpt><trkpt lat="45.5916561" lon="10.7687712"><ele>217.0</ele><time>2026-04-26T07:36:43.065Z</time></trkpt><trkpt lat="45.5916913" lon="10.7688904"><ele>216.99999999999997</ele><time>2026-04-26T07:36:44.066Z</time></trkpt><trkpt lat="45.5917254" lon="10.7690181"><ele>217.0</ele><time>2026-04-26T07:36:45.066Z</time></trkpt><trkpt lat="45.5917577" lon="10.7691253"><ele>217.0</ele><time>2026-04-26T07:36:46.066Z</time></trkpt><trkpt lat="45.5917875" lon="10.7692078"><ele>217.0</ele><time>2026-04-26T07:36:47.065Z</time></trkpt><trkpt lat="45.5918282" lon="10.769284"><ele>216.99999999999997</ele><time>2026-04-26T07:36:48.066Z</time></trkpt><trkpt lat="45.5918693" lon="10.7693658"><ele>217.0</ele><time>2026-04-26T07:36:49.066Z</time></trkpt><trkpt lat="45.5919132" lon="10.7694523"><ele>217.33333333333331</ele><time>2026-04-26T07:36:50.066Z</time></trkpt><trkpt lat="45.5919608" lon="10.7695373"><ele>217.66666666666666</ele><time>2026-04-26T07:36:51.066Z</time></trkpt><trkpt lat="45.5920117" lon="10.7696203"><ele>218.0</ele><time>2026-04-26T07:36:52.065Z</time></trkpt><trkpt lat="45.5920622" lon="10.7697174"><ele>218.33333333333331</ele><time>2026-04-26T07:36:53.066Z</time></trkpt><trkpt lat="45.5921168" lon="10.769821"><ele>218.66666666666666</ele><time>2026-04-26T07:36:54.066Z</time></trkpt><trkpt lat="45.5921714" lon="10.7699236"><ele>219.0</ele><time>2026-04-26T07:36:55.065Z</time></trkpt><trkpt lat="45.5922241" lon="10.7700277"><ele>219.0</ele><time>2026-04-26T07:36:56.065Z</time></trkpt><trkpt lat="45.5922727" lon="10.7701255"><ele>219.0</ele><time>2026-04-26T07:36:57.066Z</time></trkpt><trkpt lat="45.5923166" lon="10.7702143"><ele>219.0</ele><time>2026-04-26T07:36:58.066Z</time></trkpt><trkpt lat="45.5923642" lon="10.7703005"><ele>219.0</ele><time>2026-04-26T07:36:59.065Z</time></trkpt><trkpt lat="45.5924094" lon="10.7703879"><ele>219.0</ele><time>2026-04-26T07:37:00.066Z</time></trkpt><trkpt lat="45.5924542" lon="10.7704703"><ele>219.0</ele><time>2026-04-26T07:37:01.065Z</time></trkpt><trkpt lat="45.5925051" lon="10.7705402"><ele>219.0</ele><time>2026-04-26T07:37:02.065Z</time></trkpt><trkpt lat="45.5925704" lon="10.7706029"><ele>219.0</ele><time>2026-04-26T07:37:03.065Z</time></trkpt><trkpt lat="45.5926451" lon="10.7706758"><ele>219.0</ele><time>2026-04-26T07:37:04.066Z</time></trkpt><trkpt lat="45.5927192" lon="10.7707629"><ele>219.0</ele><time>2026-04-26T07:37:05.066Z</time></trkpt><trkpt lat="45.5927873" lon="10.7708505"><ele>219.0</ele><time>2026-04-26T07:37:06.066Z</time></trkpt><trkpt lat="45.5928505" lon="10.7709411"><ele>219.0</ele><time>2026-04-26T07:37:07.065Z</time></trkpt><trkpt lat="45.5929138" lon="10.7710363"><ele>219.2</ele><time>2026-04-26T07:37:08.066Z</time></trkpt><trkpt lat="45.5929783" lon="10.7711287"><ele>219.39999999999998</ele><time>2026-04-26T07:37:09.065Z</time></trkpt><trkpt lat="45.5930515" lon="10.7712219"><ele>219.6</ele><time>2026-04-26T07:37:10.065Z</time></trkpt><trkpt lat="45.5931398" lon="10.7713122"><ele>219.8</ele><time>2026-04-26T07:37:11.065Z</time></trkpt><trkpt lat="45.593231" lon="10.7714013"><ele>220.0</ele><time>2026-04-26T07:37:12.065Z</time></trkpt><trkpt lat="45.5933176" lon="10.7714921"><ele>220.0</ele><time>2026-04-26T07:37:13.066Z</time></trkpt><trkpt lat="45.5933978" lon="10.7715858"><ele>220.0</ele><time>2026-04-26T07:37:14.066Z</time></trkpt><trkpt lat="45.5934727" lon="10.7716831"><ele>220.0</ele><time>2026-04-26T07:37:15.065Z</time></trkpt><trkpt lat="45.5935458" lon="10.7717882"><ele>220.0</ele><time>2026-04-26T07:37:16.065Z</time></trkpt><trkpt lat="45.5936171" lon="10.7718988"><ele>220.0</ele><time>2026-04-26T07:37:17.065Z</time></trkpt><trkpt lat="45.5936901" lon="10.7720123"><ele>220.2</ele><time>2026-04-26T07:37:18.066Z</time></trkpt><trkpt lat="45.5937793" lon="10.7721044"><ele>220.4</ele><time>2026-04-26T07:37:19.065Z</time></trkpt><trkpt lat="45.5938809" lon="10.7721899"><ele>220.60000000000002</ele><time>2026-04-26T07:37:20.065Z</time></trkpt><trkpt lat="45.5939798" lon="10.7722697"><ele>220.8</ele><time>2026-04-26T07:37:21.066Z</time></trkpt><trkpt lat="45.5940715" lon="10.7723401"><ele>221.0</ele><time>2026-04-26T07:37:22.066Z</time></trkpt><trkpt lat="45.5941531" lon="10.7724024"><ele>221.00000000000003</ele><time>2026-04-26T07:37:23.066Z</time></trkpt><trkpt lat="45.5942286" lon="10.7724595"><ele>221.0</ele><time>2026-04-26T07:37:24.066Z</time></trkpt><trkpt lat="45.594307" lon="10.7725166"><ele>221.0</ele><time>2026-04-26T07:37:25.066Z</time></trkpt><trkpt lat="45.5943877" lon="10.7725681"><ele>221.0</ele><time>2026-04-26T07:37:26.065Z</time></trkpt><trkpt lat="45.5944612" lon="10.7726182"><ele>221.00000000000003</ele><time>2026-04-26T07:37:27.066Z</time></trkpt><trkpt lat="45.594525" lon="10.7726608"><ele>221.0</ele><time>2026-04-26T07:37:28.066Z</time></trkpt><trkpt lat="45.5946135" lon="10.7727248"><ele>221.4</ele><time>2026-04-26T07:37:30.066Z</time></trkpt><trkpt lat="45.594695" lon="10.7728165"><ele>221.8</ele><time>2026-04-26T07:37:32.066Z</time></trkpt><trkpt lat="45.5947544" lon="10.7728921"><ele>222.20000000000002</ele><time>2026-04-26T07:37:33.065Z</time></trkpt><trkpt lat="45.5948303" lon="10.7729719"><ele>222.60000000000002</ele><time>2026-04-26T07:37:34.065Z</time></trkpt><trkpt lat="45.594915" lon="10.7730423"><ele>223.0</ele><time>2026-04-26T07:37:35.066Z</time></trkpt><trkpt lat="45.5950151" lon="10.7731035"><ele>223.0</ele><time>2026-04-26T07:37:36.065Z</time></trkpt><trkpt lat="45.5951292" lon="10.7731546"><ele>223.0</ele><time>2026-04-26T07:37:37.065Z</time></trkpt><trkpt lat="45.5952487" lon="10.7731977"><ele>223.0</ele><time>2026-04-26T07:37:38.066Z</time></trkpt><trkpt lat="45.5953749" lon="10.7732249"><ele>223.0</ele><time>2026-04-26T07:37:39.066Z</time></trkpt><trkpt lat="45.5954971" lon="10.7732448"><ele>222.8</ele><time>2026-04-26T07:37:40.066Z</time></trkpt><trkpt lat="45.5956109" lon="10.7732431"><ele>222.60000000000002</ele><time>2026-04-26T07:37:41.066Z</time></trkpt><trkpt lat="45.5957118" lon="10.7732444"><ele>222.39999999999998</ele><time>2026-04-26T07:37:42.066Z</time></trkpt><trkpt lat="45.5958006" lon="10.7732634"><ele>222.2</ele><time>2026-04-26T07:37:43.066Z</time></trkpt><trkpt lat="45.5958839" lon="10.7732963"><ele>222.0</ele><time>2026-04-26T07:37:44.066Z</time></trkpt><trkpt lat="45.5959623" lon="10.7733473"><ele>222.0</ele><time>2026-04-26T07:37:45.065Z</time></trkpt><trkpt lat="45.5960475" lon="10.7734216"><ele>222.0</ele><time>2026-04-26T07:37:46.066Z</time></trkpt><trkpt lat="45.5961366" lon="10.7735198"><ele>222.0</ele><time>2026-04-26T07:37:47.065Z</time></trkpt><trkpt lat="45.5962319" lon="10.7736354"><ele>222.0</ele><time>2026-04-26T07:37:48.066Z</time></trkpt><trkpt lat="45.5963288" lon="10.7737382"><ele>222.33333333333334</ele><time>2026-04-26T07:37:49.065Z</time></trkpt><trkpt lat="45.5964202" lon="10.773824"><ele>222.66666666666669</ele><time>2026-04-26T07:37:50.066Z</time></trkpt><trkpt lat="45.5965017" lon="10.7738914"><ele>223.0</ele><time>2026-04-26T07:37:51.065Z</time></trkpt><trkpt lat="45.596569" lon="10.7739365"><ele>223.33333333333334</ele><time>2026-04-26T07:37:52.066Z</time></trkpt><trkpt lat="45.5966403" lon="10.774011"><ele>223.66666666666669</ele><time>2026-04-26T07:37:54.066Z</time></trkpt><trkpt lat="45.5965982" lon="10.7741085"><ele>224.0</ele><time>2026-04-26T07:37:57.066Z</time></trkpt><trkpt lat="45.5964882" lon="10.7742395"><ele>224.0</ele><time>2026-04-26T07:37:59.065Z</time></trkpt><trkpt lat="45.5964104" lon="10.7743305"><ele>224.0</ele><time>2026-04-26T07:38:00.066Z</time></trkpt><trkpt lat="45.5963191" lon="10.7744502"><ele>224.0</ele><time>2026-04-26T07:38:01.065Z</time></trkpt><trkpt lat="45.5962234" lon="10.774582"><ele>224.0</ele><time>2026-04-26T07:38:02.065Z</time></trkpt><trkpt lat="45.5961318" lon="10.7747262"><ele>223.75</ele><time>2026-04-26T07:38:03.065Z</time></trkpt><trkpt lat="45.5960497" lon="10.7748675"><ele>223.5</ele><time>2026-04-26T07:38:04.066Z</time></trkpt><trkpt lat="45.5959725" lon="10.7749947"><ele>223.25</ele><time>2026-04-26T07:38:05.065Z</time></trkpt><trkpt lat="45.5958787" lon="10.7751111"><ele>223.0</ele><time>2026-04-26T07:38:06.065Z</time></trkpt><trkpt lat="45.5957655" lon="10.7752148"><ele>223.75</ele><time>2026-04-26T07:38:07.065Z</time></trkpt><trkpt lat="45.595639" lon="10.7753129"><ele>224.5</ele><time>2026-04-26T07:38:08.066Z</time></trkpt><trkpt lat="45.5955062" lon="10.7754136"><ele>225.25</ele><time>2026-04-26T07:38:09.066Z</time></trkpt><trkpt lat="45.5953738" lon="10.7755183"><ele>226.0</ele><time>2026-04-26T07:38:10.065Z</time></trkpt><trkpt lat="45.5952411" lon="10.7756291"><ele>226.0</ele><time>2026-04-26T07:38:11.066Z</time></trkpt><trkpt lat="45.5951092" lon="10.7757424"><ele>226.0</ele><time>2026-04-26T07:38:12.065Z</time></trkpt><trkpt lat="45.5949755" lon="10.7758602"><ele>226.0</ele><time>2026-04-26T07:38:13.066Z</time></trkpt><trkpt lat="45.5948508" lon="10.775982"><ele>226.33333333333331</ele><time>2026-04-26T07:38:14.066Z</time></trkpt><trkpt lat="45.5947311" lon="10.7761172"><ele>226.66666666666669</ele><time>2026-04-26T07:38:15.066Z</time></trkpt><trkpt lat="45.5946091" lon="10.7762547"><ele>227.0</ele><time>2026-04-26T07:38:16.065Z</time></trkpt><trkpt lat="45.5944866" lon="10.7763949"><ele>226.33333333333334</ele><time>2026-04-26T07:38:17.065Z</time></trkpt><trkpt lat="45.5943673" lon="10.7765381"><ele>225.66666666666669</ele><time>2026-04-26T07:38:18.066Z</time></trkpt><trkpt lat="45.5942379" lon="10.776681"><ele>225.0</ele><time>2026-04-26T07:38:19.065Z</time></trkpt><trkpt lat="45.5941039" lon="10.7768327"><ele>224.66666666666669</ele><time>2026-04-26T07:38:20.066Z</time></trkpt><trkpt lat="45.5939768" lon="10.7769896"><ele>224.33333333333334</ele><time>2026-04-26T07:38:21.065Z</time></trkpt><trkpt lat="45.5938507" lon="10.7771511"><ele>224.0</ele><time>2026-04-26T07:38:22.066Z</time></trkpt><trkpt lat="45.593723" lon="10.7773122"><ele>224.0</ele><time>2026-04-26T07:38:23.065Z</time></trkpt><trkpt lat="45.5936019" lon="10.7774718"><ele>224.0</ele><time>2026-04-26T07:38:24.066Z</time></trkpt><trkpt lat="45.5934788" lon="10.7776234"><ele>224.0</ele><time>2026-04-26T07:38:25.066Z</time></trkpt><trkpt lat="45.5933574" lon="10.7777711"><ele>224.0</ele><time>2026-04-26T07:38:26.066Z</time></trkpt><trkpt lat="45.593238" lon="10.7779126"><ele>224.0</ele><time>2026-04-26T07:38:27.066Z</time></trkpt><trkpt lat="45.5931143" lon="10.7780523"><ele>224.0</ele><time>2026-04-26T07:38:28.066Z</time></trkpt><trkpt lat="45.5929905" lon="10.7781915"><ele>224.0</ele><time>2026-04-26T07:38:29.065Z</time></trkpt><trkpt lat="45.59287" lon="10.7783282"><ele>224.0</ele><time>2026-04-26T07:38:30.066Z</time></trkpt><trkpt lat="45.5927477" lon="10.7784696"><ele>224.0</ele><time>2026-04-26T07:38:31.065Z</time></trkpt><trkpt lat="45.5926356" lon="10.7786032"><ele>224.5</ele><time>2026-04-26T07:38:32.065Z</time></trkpt><trkpt lat="45.5925306" lon="10.7787413"><ele>225.0</ele><time>2026-04-26T07:38:33.066Z</time></trkpt><trkpt lat="45.5924399" lon="10.7788856"><ele>225.5</ele><time>2026-04-26T07:38:34.066Z</time></trkpt><trkpt lat="45.5923716" lon="10.7790257"><ele>226.0</ele><time>2026-04-26T07:38:35.066Z</time></trkpt><trkpt lat="45.5923292" lon="10.7791557"><ele>226.0</ele><time>2026-04-26T07:38:36.066Z</time></trkpt><trkpt lat="45.592309" lon="10.7792912"><ele>226.00000000000003</ele><time>2026-04-26T07:38:37.066Z</time></trkpt><trkpt lat="45.5922918" lon="10.7794232"><ele>226.00000000000003</ele><time>2026-04-26T07:38:38.066Z</time></trkpt><trkpt lat="45.5922568" lon="10.7795427"><ele>226.0</ele><time>2026-04-26T07:38:39.066Z</time></trkpt><trkpt lat="45.5922088" lon="10.779664"><ele>226.0</ele><time>2026-04-26T07:38:40.065Z</time></trkpt><trkpt lat="45.592141" lon="10.7797906"><ele>226.5</ele><time>2026-04-26T07:38:41.066Z</time></trkpt><trkpt lat="45.5920661" lon="10.7799317"><ele>227.0</ele><time>2026-04-26T07:38:42.066Z</time></trkpt><trkpt lat="45.5919836" lon="10.7800751"><ele>227.5</ele><time>2026-04-26T07:38:43.066Z</time></trkpt><trkpt lat="45.5918992" lon="10.7802132"><ele>228.0</ele><time>2026-04-26T07:38:44.065Z</time></trkpt><trkpt lat="45.5918197" lon="10.7803493"><ele>229.0</ele><time>2026-04-26T07:38:45.066Z</time></trkpt><trkpt lat="45.5917587" lon="10.7804694"><ele>230.0</ele><time>2026-04-26T07:38:46.065Z</time></trkpt><trkpt lat="45.5917091" lon="10.7805668"><ele>231.0</ele><time>2026-04-26T07:38:47.065Z</time></trkpt><trkpt lat="45.5916652" lon="10.7806499"><ele>232.0</ele><time>2026-04-26T07:38:48.065Z</time></trkpt><trkpt lat="45.5916291" lon="10.7807246"><ele>233.0</ele><time>2026-04-26T07:38:49.065Z</time></trkpt><trkpt lat="45.5916415" lon="10.7808305"><ele>234.0</ele><time>2026-04-26T07:38:53.065Z</time></trkpt><trkpt lat="45.591632" lon="10.7809502"><ele>235.0</ele><time>2026-04-26T07:38:56.066Z</time></trkpt><trkpt lat="45.591591" lon="10.7810667"><ele>236.0</ele><time>2026-04-26T07:38:58.066Z</time></trkpt><trkpt lat="45.5915513" lon="10.7811716"><ele>237.0</ele><time>2026-04-26T07:39:00.065Z</time></trkpt><trkpt lat="45.591516" lon="10.7812709"><ele>238.0</ele><time>2026-04-26T07:39:03.064Z</time></trkpt><trkpt lat="45.5914847" lon="10.7813904"><ele>239.0</ele><time>2026-04-26T07:39:05.065Z</time></trkpt><trkpt lat="45.5914421" lon="10.7815097"><ele>240.0</ele><time>2026-04-26T07:39:07.064Z</time></trkpt><trkpt lat="45.5914102" lon="10.7816174"><ele>240.0</ele><time>2026-04-26T07:39:09.065Z</time></trkpt><trkpt lat="45.5914035" lon="10.7817297"><ele>240.0</ele><time>2026-04-26T07:39:11.065Z</time></trkpt><trkpt lat="45.5913915" lon="10.7818592"><ele>240.0</ele><time>2026-04-26T07:39:13.064Z</time></trkpt><trkpt lat="45.5913738" lon="10.7820025"><ele>240.0</ele><time>2026-04-26T07:39:15.065Z</time></trkpt><trkpt lat="45.5913289" lon="10.7820684"><ele>240.0</ele><time>2026-04-26T07:39:17.064Z</time></trkpt><trkpt lat="45.5912216" lon="10.7820261"><ele>240.0</ele><time>2026-04-26T07:39:20.064Z</time></trkpt><trkpt lat="45.5911691" lon="10.7819761"><ele>241.4</ele><time>2026-04-26T07:39:21.065Z</time></trkpt><trkpt lat="45.5911088" lon="10.7819149"><ele>242.8</ele><time>2026-04-26T07:39:22.065Z</time></trkpt><trkpt lat="45.5910505" lon="10.7818526"><ele>244.2</ele><time>2026-04-26T07:39:23.065Z</time></trkpt><trkpt lat="45.5909898" lon="10.7817957"><ele>245.6</ele><time>2026-04-26T07:39:24.065Z</time></trkpt><trkpt lat="45.5908916" lon="10.7817005"><ele>247.0</ele><time>2026-04-26T07:39:26.064Z</time></trkpt><trkpt lat="45.5908002" lon="10.781587"><ele>247.0</ele><time>2026-04-26T07:39:28.064Z</time></trkpt><trkpt lat="45.5907066" lon="10.7814767"><ele>247.0</ele><time>2026-04-26T07:39:30.065Z</time></trkpt><trkpt lat="45.5906013" lon="10.7813974"><ele>247.0</ele><time>2026-04-26T07:39:32.065Z</time></trkpt><trkpt lat="45.5905413" lon="10.7813506"><ele>247.0</ele><time>2026-04-26T07:39:33.064Z</time></trkpt><trkpt lat="45.5904819" lon="10.7813009"><ele>247.0</ele><time>2026-04-26T07:39:34.065Z</time></trkpt><trkpt lat="45.5904117" lon="10.7812323"><ele>247.0</ele><time>2026-04-26T07:39:35.064Z</time></trkpt><trkpt lat="45.5903513" lon="10.7811749"><ele>247.0</ele><time>2026-04-26T07:39:36.065Z</time></trkpt><trkpt lat="45.5902531" lon="10.7810679"><ele>247.0</ele><time>2026-04-26T07:39:38.065Z</time></trkpt><trkpt lat="45.5901641" lon="10.7809665"><ele>247.0</ele><time>2026-04-26T07:39:40.064Z</time></trkpt><trkpt lat="45.5900894" lon="10.7808945"><ele>247.0</ele><time>2026-04-26T07:39:42.065Z</time></trkpt><trkpt lat="45.5900175" lon="10.780872"><ele>246.83333333333331</ele><time>2026-04-26T07:39:44.064Z</time></trkpt><trkpt lat="45.5899151" lon="10.7809296"><ele>246.66666666666666</ele><time>2026-04-26T07:39:46.064Z</time></trkpt><trkpt lat="45.5898579" lon="10.7810037"><ele>246.5</ele><time>2026-04-26T07:39:47.064Z</time></trkpt><trkpt lat="45.5898132" lon="10.781091"><ele>246.33333333333331</ele><time>2026-04-26T07:39:48.064Z</time></trkpt><trkpt lat="45.589782" lon="10.7811897"><ele>246.16666666666666</ele><time>2026-04-26T07:39:49.065Z</time></trkpt><trkpt lat="45.5897564" lon="10.7813018"><ele>246.0</ele><time>2026-04-26T07:39:50.065Z</time></trkpt><trkpt lat="45.589736" lon="10.7814395"><ele>246.0</ele><time>2026-04-26T07:39:51.064Z</time></trkpt><trkpt lat="45.5897143" lon="10.781579"><ele>246.00000000000003</ele><time>2026-04-26T07:39:52.065Z</time></trkpt><trkpt lat="45.589696" lon="10.7817291"><ele>246.00000000000003</ele><time>2026-04-26T07:39:53.064Z</time></trkpt><trkpt lat="45.5896807" lon="10.7818751"><ele>246.0</ele><time>2026-04-26T07:39:54.064Z</time></trkpt><trkpt lat="45.5896657" lon="10.782012"><ele>246.0</ele><time>2026-04-26T07:39:55.065Z</time></trkpt><trkpt lat="45.5896405" lon="10.7821414"><ele>246.16666666666666</ele><time>2026-04-26T07:39:56.064Z</time></trkpt><trkpt lat="45.5896083" lon="10.782267"><ele>246.33333333333331</ele><time>2026-04-26T07:39:57.064Z</time></trkpt><trkpt lat="45.5895746" lon="10.7823819"><ele>246.5</ele><time>2026-04-26T07:39:58.065Z</time></trkpt><trkpt lat="45.5895424" lon="10.7824793"><ele>246.66666666666666</ele><time>2026-04-26T07:39:59.065Z</time></trkpt><trkpt lat="45.5894852" lon="10.7826095"><ele>246.83333333333331</ele><time>2026-04-26T07:40:01.065Z</time></trkpt><trkpt lat="45.5894293" lon="10.7826887"><ele>247.0</ele><time>2026-04-26T07:40:04.064Z</time></trkpt><trkpt lat="45.5893586" lon="10.7827888"><ele>249.25</ele><time>2026-04-26T07:40:06.065Z</time></trkpt><trkpt lat="45.5893084" lon="10.7828817"><ele>251.5</ele><time>2026-04-26T07:40:07.065Z</time></trkpt><trkpt lat="45.589246" lon="10.7830012"><ele>253.75</ele><time>2026-04-26T07:40:08.064Z</time></trkpt><trkpt lat="45.5891667" lon="10.7831474"><ele>256.0</ele><time>2026-04-26T07:40:09.065Z</time></trkpt><trkpt lat="45.5890821" lon="10.7833115"><ele>256.0</ele><time>2026-04-26T07:40:10.065Z</time></trkpt><trkpt lat="45.5889973" lon="10.7834803"><ele>256.0</ele><time>2026-04-26T07:40:11.065Z</time></trkpt><trkpt lat="45.5889044" lon="10.7836485"><ele>256.0</ele><time>2026-04-26T07:40:12.065Z</time></trkpt><trkpt lat="45.5888119" lon="10.7838014"><ele>256.0</ele><time>2026-04-26T07:40:13.065Z</time></trkpt><trkpt lat="45.5887353" lon="10.7839439"><ele>256.40000000000003</ele><time>2026-04-26T07:40:14.065Z</time></trkpt><trkpt lat="45.5886672" lon="10.7840694"><ele>256.8</ele><time>2026-04-26T07:40:15.064Z</time></trkpt><trkpt lat="45.5886117" lon="10.784175"><ele>257.20000000000005</ele><time>2026-04-26T07:40:16.065Z</time></trkpt><trkpt lat="45.5885633" lon="10.7842549"><ele>257.6</ele><time>2026-04-26T07:40:17.064Z</time></trkpt><trkpt lat="45.5884946" lon="10.7843587"><ele>258.0</ele><time>2026-04-26T07:40:19.064Z</time></trkpt><trkpt lat="45.5885189" lon="10.7844758"><ele>258.75</ele><time>2026-04-26T07:40:22.065Z</time></trkpt><trkpt lat="45.5886303" lon="10.7845744"><ele>259.5</ele><time>2026-04-26T07:40:24.065Z</time></trkpt><trkpt lat="45.5887229" lon="10.7846299"><ele>260.25</ele><time>2026-04-26T07:40:25.064Z</time></trkpt><trkpt lat="45.5888237" lon="10.7846914"><ele>261.0</ele><time>2026-04-26T07:40:26.065Z</time></trkpt><trkpt lat="45.5889313" lon="10.7847655"><ele>261.0</ele><time>2026-04-26T07:40:27.065Z</time></trkpt><trkpt lat="45.5890369" lon="10.7848551"><ele>261.0</ele><time>2026-04-26T07:40:28.064Z</time></trkpt><trkpt lat="45.5891327" lon="10.7849595"><ele>261.0</ele><time>2026-04-26T07:40:29.065Z</time></trkpt><trkpt lat="45.5892203" lon="10.7850784"><ele>261.0</ele><time>2026-04-26T07:40:30.065Z</time></trkpt><trkpt lat="45.5893108" lon="10.7851943"><ele>261.8</ele><time>2026-04-26T07:40:31.064Z</time></trkpt><trkpt lat="45.5893974" lon="10.7853188"><ele>262.6</ele><time>2026-04-26T07:40:32.065Z</time></trkpt><trkpt lat="45.5894798" lon="10.7854165"><ele>263.4</ele><time>2026-04-26T07:40:33.065Z</time></trkpt><trkpt lat="45.5895595" lon="10.7855205"><ele>264.2</ele><time>2026-04-26T07:40:34.065Z</time></trkpt><trkpt lat="45.5896352" lon="10.7856233"><ele>265.0</ele><time>2026-04-26T07:40:35.065Z</time></trkpt><trkpt lat="45.5897143" lon="10.7857215"><ele>265.0</ele><time>2026-04-26T07:40:36.065Z</time></trkpt><trkpt lat="45.5897972" lon="10.7858221"><ele>265.0</ele><time>2026-04-26T07:40:37.064Z</time></trkpt><trkpt lat="45.5898886" lon="10.7859178"><ele>265.0</ele><time>2026-04-26T07:40:38.065Z</time></trkpt><trkpt lat="45.5899828" lon="10.7860134"><ele>265.0</ele><time>2026-04-26T07:40:39.064Z</time></trkpt><trkpt lat="45.590081" lon="10.786102"><ele>265.5</ele><time>2026-04-26T07:40:40.065Z</time></trkpt><trkpt lat="45.5901851" lon="10.7862"><ele>266.0</ele><time>2026-04-26T07:40:41.064Z</time></trkpt><trkpt lat="45.5902896" lon="10.7863067"><ele>266.5</ele><time>2026-04-26T07:40:42.065Z</time></trkpt><trkpt lat="45.5903936" lon="10.7864242"><ele>267.0</ele><time>2026-04-26T07:40:43.064Z</time></trkpt><trkpt lat="45.5904936" lon="10.7865426"><ele>267.0</ele><time>2026-04-26T07:40:44.065Z</time></trkpt><trkpt lat="45.590595" lon="10.7866619"><ele>267.0</ele><time>2026-04-26T07:40:45.064Z</time></trkpt><trkpt lat="45.5906802" lon="10.7867631"><ele>267.0</ele><time>2026-04-26T07:40:46.064Z</time></trkpt><trkpt lat="45.5907607" lon="10.78687"><ele>267.0</ele><time>2026-04-26T07:40:47.064Z</time></trkpt><trkpt lat="45.5908472" lon="10.7869808"><ele>268.0</ele><time>2026-04-26T07:40:48.065Z</time></trkpt><trkpt lat="45.5909389" lon="10.7870965"><ele>269.0</ele><time>2026-04-26T07:40:49.065Z</time></trkpt><trkpt lat="45.5910387" lon="10.7872318"><ele>270.0</ele><time>2026-04-26T07:40:50.065Z</time></trkpt><trkpt lat="45.5911525" lon="10.7873824"><ele>271.0</ele><time>2026-04-26T07:40:51.065Z</time></trkpt><trkpt lat="45.5912694" lon="10.7875158"><ele>271.0</ele><time>2026-04-26T07:40:52.064Z</time></trkpt><trkpt lat="45.5913813" lon="10.7876428"><ele>271.0</ele><time>2026-04-26T07:40:53.065Z</time></trkpt><trkpt lat="45.5914868" lon="10.7877727"><ele>271.0</ele><time>2026-04-26T07:40:54.064Z</time></trkpt><trkpt lat="45.5916006" lon="10.787912"><ele>271.0</ele><time>2026-04-26T07:40:55.064Z</time></trkpt><trkpt lat="45.5917077" lon="10.7880489"><ele>271.25</ele><time>2026-04-26T07:40:56.064Z</time></trkpt><trkpt lat="45.5918101" lon="10.7881659"><ele>271.5</ele><time>2026-04-26T07:40:57.064Z</time></trkpt><trkpt lat="45.5919152" lon="10.7882766"><ele>271.75</ele><time>2026-04-26T07:40:58.064Z</time></trkpt><trkpt lat="45.5920159" lon="10.7883566"><ele>272.0</ele><time>2026-04-26T07:40:59.064Z</time></trkpt><trkpt lat="45.5921045" lon="10.7884414"><ele>272.2</ele><time>2026-04-26T07:41:00.065Z</time></trkpt><trkpt lat="45.5921849" lon="10.7885449"><ele>272.4</ele><time>2026-04-26T07:41:01.064Z</time></trkpt><trkpt lat="45.5922508" lon="10.7886586"><ele>272.6</ele><time>2026-04-26T07:41:02.065Z</time></trkpt><trkpt lat="45.5923104" lon="10.7887624"><ele>272.8</ele><time>2026-04-26T07:41:03.064Z</time></trkpt><trkpt lat="45.5923782" lon="10.7888434"><ele>273.0</ele><time>2026-04-26T07:41:04.065Z</time></trkpt><trkpt lat="45.5924615" lon="10.7889036"><ele>273.0</ele><time>2026-04-26T07:41:05.064Z</time></trkpt><trkpt lat="45.5925496" lon="10.7889541"><ele>273.0</ele><time>2026-04-26T07:41:06.065Z</time></trkpt><trkpt lat="45.5926311" lon="10.7890281"><ele>273.0</ele><time>2026-04-26T07:41:07.065Z</time></trkpt><trkpt lat="45.5927109" lon="10.7891247"><ele>273.0</ele><time>2026-04-26T07:41:08.064Z</time></trkpt><trkpt lat="45.5927931" lon="10.7892424"><ele>273.0</ele><time>2026-04-26T07:41:09.065Z</time></trkpt><trkpt lat="45.5928673" lon="10.7893377"><ele>273.6666666666667</ele><time>2026-04-26T07:41:10.065Z</time></trkpt><trkpt lat="45.5929312" lon="10.789416"><ele>274.3333333333333</ele><time>2026-04-26T07:41:11.065Z</time></trkpt><trkpt lat="45.5929857" lon="10.7894821"><ele>275.0</ele><time>2026-04-26T07:41:12.065Z</time></trkpt><trkpt lat="45.5930344" lon="10.7895425"><ele>275.66666666666663</ele><time>2026-04-26T07:41:13.064Z</time></trkpt><trkpt lat="45.5930869" lon="10.7896677"><ele>276.3333333333333</ele><time>2026-04-26T07:41:15.065Z</time></trkpt><trkpt lat="45.5930289" lon="10.7898061"><ele>277.0</ele><time>2026-04-26T07:41:17.064Z</time></trkpt><trkpt lat="45.5929777" lon="10.7898802"><ele>277.0</ele><time>2026-04-26T07:41:18.065Z</time></trkpt><trkpt lat="45.5929254" lon="10.7899537"><ele>277.0</ele><time>2026-04-26T07:41:19.065Z</time></trkpt><trkpt lat="45.5928701" lon="10.7900694"><ele>277.0</ele><time>2026-04-26T07:41:21.064Z</time></trkpt><trkpt lat="45.5928928" lon="10.7901695"><ele>277.0</ele><time>2026-04-26T07:41:23.065Z</time></trkpt><trkpt lat="45.5929408" lon="10.7902398"><ele>277.0</ele><time>2026-04-26T07:41:24.065Z</time></trkpt><trkpt lat="45.5930051" lon="10.7903288"><ele>277.0</ele><time>2026-04-26T07:41:25.064Z</time></trkpt><trkpt lat="45.5930786" lon="10.790428"><ele>277.4</ele><time>2026-04-26T07:41:26.065Z</time></trkpt><trkpt lat="45.593155" lon="10.7905273"><ele>277.79999999999995</ele><time>2026-04-26T07:41:27.064Z</time></trkpt><trkpt lat="45.5932343" lon="10.7906172"><ele>278.2</ele><time>2026-04-26T07:41:28.064Z</time></trkpt><trkpt lat="45.5933052" lon="10.7907007"><ele>278.59999999999997</ele><time>2026-04-26T07:41:29.065Z</time></trkpt><trkpt lat="45.5933667" lon="10.7907992"><ele>279.0</ele><time>2026-04-26T07:41:30.065Z</time></trkpt><trkpt lat="45.5934182" lon="10.7908993"><ele>279.0</ele><time>2026-04-26T07:41:31.065Z</time></trkpt><trkpt lat="45.5934678" lon="10.7909961"><ele>279.0</ele><time>2026-04-26T07:41:32.065Z</time></trkpt><trkpt lat="45.5935112" lon="10.7910864"><ele>279.0</ele><time>2026-04-26T07:41:33.064Z</time></trkpt><trkpt lat="45.5935522" lon="10.7911609"><ele>279.0</ele><time>2026-04-26T07:41:34.064Z</time></trkpt><trkpt lat="45.593609" lon="10.7912298"><ele>279.0</ele><time>2026-04-26T07:41:35.065Z</time></trkpt><trkpt lat="45.5936692" lon="10.7912997"><ele>279.0</ele><time>2026-04-26T07:41:36.065Z</time></trkpt><trkpt lat="45.5937322" lon="10.7913735"><ele>279.5</ele><time>2026-04-26T07:41:37.064Z</time></trkpt><trkpt lat="45.5937954" lon="10.7914504"><ele>280.0</ele><time>2026-04-26T07:41:38.064Z</time></trkpt><trkpt lat="45.5938496" lon="10.7915233"><ele>280.5</ele><time>2026-04-26T07:41:39.064Z</time></trkpt><trkpt lat="45.5938936" lon="10.7915991"><ele>281.0</ele><time>2026-04-26T07:41:40.065Z</time></trkpt><trkpt lat="45.5939358" lon="10.7916825"><ele>281.5</ele><time>2026-04-26T07:41:41.064Z</time></trkpt><trkpt lat="45.5939754" lon="10.7917768"><ele>282.0</ele><time>2026-04-26T07:41:42.065Z</time></trkpt><trkpt lat="45.5940135" lon="10.7918841"><ele>282.6666666666667</ele><time>2026-04-26T07:41:43.064Z</time></trkpt><trkpt lat="45.5940473" lon="10.791993"><ele>283.3333333333333</ele><time>2026-04-26T07:41:44.064Z</time></trkpt><trkpt lat="45.594088" lon="10.7920903"><ele>284.0</ele><time>2026-04-26T07:41:45.065Z</time></trkpt><trkpt lat="45.5941302" lon="10.7921728"><ele>284.66666666666663</ele><time>2026-04-26T07:41:46.065Z</time></trkpt><trkpt lat="45.5941769" lon="10.792242"><ele>285.3333333333333</ele><time>2026-04-26T07:41:47.064Z</time></trkpt><trkpt lat="45.5942278" lon="10.792298"><ele>286.0</ele><time>2026-04-26T07:41:48.064Z</time></trkpt><trkpt lat="45.5943228" lon="10.7924108"><ele>286.0</ele><time>2026-04-26T07:41:50.064Z</time></trkpt><trkpt lat="45.5943654" lon="10.7924816"><ele>286.0</ele><time>2026-04-26T07:41:51.064Z</time></trkpt><trkpt lat="45.594407" lon="10.7925546"><ele>286.0</ele><time>2026-04-26T07:41:52.065Z</time></trkpt><trkpt lat="45.59446" lon="10.7926366"><ele>286.0</ele><time>2026-04-26T07:41:53.064Z</time></trkpt><trkpt lat="45.5945162" lon="10.7927286"><ele>286.0</ele><time>2026-04-26T07:41:54.065Z</time></trkpt><trkpt lat="45.5945715" lon="10.7928236"><ele>286.0</ele><time>2026-04-26T07:41:55.065Z</time></trkpt><trkpt lat="45.5946272" lon="10.7929125"><ele>285.8333333333333</ele><time>2026-04-26T07:41:56.064Z</time></trkpt><trkpt lat="45.5946836" lon="10.7930032"><ele>285.66666666666663</ele><time>2026-04-26T07:41:57.064Z</time></trkpt><trkpt lat="45.5947364" lon="10.7930958"><ele>285.5</ele><time>2026-04-26T07:41:58.065Z</time></trkpt><trkpt lat="45.5947771" lon="10.7931847"><ele>285.3333333333333</ele><time>2026-04-26T07:41:59.065Z</time></trkpt><trkpt lat="45.5948145" lon="10.7932749"><ele>285.1666666666667</ele><time>2026-04-26T07:42:00.065Z</time></trkpt><trkpt lat="45.5948575" lon="10.7933674"><ele>285.0</ele><time>2026-04-26T07:42:01.065Z</time></trkpt><trkpt lat="45.5949135" lon="10.7934651"><ele>285.6666666666667</ele><time>2026-04-26T07:42:02.064Z</time></trkpt><trkpt lat="45.5949771" lon="10.7935605"><ele>286.3333333333333</ele><time>2026-04-26T07:42:03.064Z</time></trkpt><trkpt lat="45.5950464" lon="10.7936463"><ele>287.0</ele><time>2026-04-26T07:42:04.064Z</time></trkpt><trkpt lat="45.5951156" lon="10.7937299"><ele>287.66666666666663</ele><time>2026-04-26T07:42:05.065Z</time></trkpt><trkpt lat="45.595177" lon="10.7938074"><ele>288.3333333333333</ele><time>2026-04-26T07:42:06.064Z</time></trkpt><trkpt lat="45.5952373" lon="10.7938829"><ele>289.0</ele><time>2026-04-26T07:42:07.064Z</time></trkpt><trkpt lat="45.595296" lon="10.7939553"><ele>288.16666666666663</ele><time>2026-04-26T07:42:08.065Z</time></trkpt><trkpt lat="45.5953527" lon="10.7940266"><ele>287.3333333333333</ele><time>2026-04-26T07:42:09.065Z</time></trkpt><trkpt lat="45.5954049" lon="10.7940965"><ele>286.5</ele><time>2026-04-26T07:42:10.065Z</time></trkpt><trkpt lat="45.59546" lon="10.7941816"><ele>285.6666666666667</ele><time>2026-04-26T07:42:11.064Z</time></trkpt><trkpt lat="45.5955195" lon="10.7942789"><ele>284.83333333333337</ele><time>2026-04-26T07:42:12.065Z</time></trkpt><trkpt lat="45.5955666" lon="10.7943595"><ele>284.0</ele><time>2026-04-26T07:42:13.064Z</time></trkpt><trkpt lat="45.5956271" lon="10.7944778"><ele>284.0</ele><time>2026-04-26T07:42:15.064Z</time></trkpt><trkpt lat="45.595692" lon="10.7945187"><ele>284.0</ele><time>2026-04-26T07:42:18.063Z</time></trkpt><trkpt lat="45.5958152" lon="10.7944764"><ele>284.0</ele><time>2026-04-26T07:42:20.063Z</time></trkpt><trkpt lat="45.5958985" lon="10.7944567"><ele>284.0</ele><time>2026-04-26T07:42:21.064Z</time></trkpt><trkpt lat="45.5959816" lon="10.7944442"><ele>284.0</ele><time>2026-04-26T07:42:22.063Z</time></trkpt><trkpt lat="45.596071" lon="10.7944372"><ele>284.0</ele><time>2026-04-26T07:42:23.064Z</time></trkpt><trkpt lat="45.5961658" lon="10.7944234"><ele>284.0</ele><time>2026-04-26T07:42:24.063Z</time></trkpt><trkpt lat="45.5962667" lon="10.7944075"><ele>284.0</ele><time>2026-04-26T07:42:25.064Z</time></trkpt><trkpt lat="45.5963665" lon="10.7943665"><ele>284.0</ele><time>2026-04-26T07:42:26.064Z</time></trkpt><trkpt lat="45.5964631" lon="10.7943338"><ele>284.0</ele><time>2026-04-26T07:42:27.063Z</time></trkpt><trkpt lat="45.59656" lon="10.7943053"><ele>282.0</ele><time>2026-04-26T07:42:28.064Z</time></trkpt><trkpt lat="45.5966605" lon="10.7942794"><ele>280.0</ele><time>2026-04-26T07:42:29.064Z</time></trkpt><trkpt lat="45.5967547" lon="10.7942606"><ele>278.0</ele><time>2026-04-26T07:42:30.064Z</time></trkpt><trkpt lat="45.5968505" lon="10.7942527"><ele>276.0</ele><time>2026-04-26T07:42:31.063Z</time></trkpt><trkpt lat="45.5969453" lon="10.7942539"><ele>274.0</ele><time>2026-04-26T07:42:32.064Z</time></trkpt><trkpt lat="45.597036" lon="10.7942556"><ele>272.4</ele><time>2026-04-26T07:42:33.063Z</time></trkpt><trkpt lat="45.5971209" lon="10.794267"><ele>270.79999999999995</ele><time>2026-04-26T07:42:34.064Z</time></trkpt><trkpt lat="45.5972005" lon="10.7942928"><ele>269.20000000000005</ele><time>2026-04-26T07:42:35.063Z</time></trkpt><trkpt lat="45.5972849" lon="10.7943329"><ele>267.6</ele><time>2026-04-26T07:42:36.064Z</time></trkpt><trkpt lat="45.5973712" lon="10.794389"><ele>266.0</ele><time>2026-04-26T07:42:37.064Z</time></trkpt><trkpt lat="45.5974637" lon="10.7944592"><ele>266.0</ele><time>2026-04-26T07:42:38.064Z</time></trkpt><trkpt lat="45.597568" lon="10.7945258"><ele>266.0</ele><time>2026-04-26T07:42:39.064Z</time></trkpt><trkpt lat="45.5976761" lon="10.7945889"><ele>266.0</ele><time>2026-04-26T07:42:40.063Z</time></trkpt><trkpt lat="45.5977755" lon="10.7946532"><ele>266.0</ele><time>2026-04-26T07:42:41.063Z</time></trkpt><trkpt lat="45.5978584" lon="10.7947084"><ele>266.0</ele><time>2026-04-26T07:42:42.063Z</time></trkpt><trkpt lat="45.5979327" lon="10.7947529"><ele>264.1666666666667</ele><time>2026-04-26T07:42:43.063Z</time></trkpt><trkpt lat="45.5980071" lon="10.7948004"><ele>262.33333333333337</ele><time>2026-04-26T07:42:44.064Z</time></trkpt><trkpt lat="45.5980729" lon="10.7948447"><ele>260.5</ele><time>2026-04-26T07:42:45.064Z</time></trkpt><trkpt lat="45.5981317" lon="10.7949057"><ele>258.6666666666667</ele><time>2026-04-26T07:42:46.063Z</time></trkpt><trkpt lat="45.5981812" lon="10.7949872"><ele>256.8333333333333</ele><time>2026-04-26T07:42:47.063Z</time></trkpt><trkpt lat="45.5982364" lon="10.7950635"><ele>255.0</ele><time>2026-04-26T07:42:48.064Z</time></trkpt><trkpt lat="45.598304" lon="10.7951093"><ele>255.0</ele><time>2026-04-26T07:42:49.064Z</time></trkpt><trkpt lat="45.5983902" lon="10.7951168"><ele>255.0</ele><time>2026-04-26T07:42:50.064Z</time></trkpt><trkpt lat="45.5984857" lon="10.7950936"><ele>255.0</ele><time>2026-04-26T07:42:51.063Z</time></trkpt><trkpt lat="45.5985932" lon="10.7950573"><ele>255.0</ele><time>2026-04-26T07:42:52.063Z</time></trkpt><trkpt lat="45.5987123" lon="10.7950125"><ele>255.0</ele><time>2026-04-26T07:42:53.064Z</time></trkpt><trkpt lat="45.5988282" lon="10.7949509"><ele>254.0</ele><time>2026-04-26T07:42:54.063Z</time></trkpt><trkpt lat="45.5989329" lon="10.7948872"><ele>253.0</ele><time>2026-04-26T07:42:55.064Z</time></trkpt><trkpt lat="45.5990263" lon="10.7948307"><ele>252.0</ele><time>2026-04-26T07:42:56.063Z</time></trkpt><trkpt lat="45.599112" lon="10.7947743"><ele>251.0</ele><time>2026-04-26T07:42:57.064Z</time></trkpt><trkpt lat="45.5991939" lon="10.7947334"><ele>250.0</ele><time>2026-04-26T07:42:58.064Z</time></trkpt><trkpt lat="45.5992754" lon="10.7947081"><ele>249.99999999999997</ele><time>2026-04-26T07:42:59.063Z</time></trkpt><trkpt lat="45.5993567" lon="10.7946914"><ele>250.0</ele><time>2026-04-26T07:43:00.063Z</time></trkpt><trkpt lat="45.5994364" lon="10.7946917"><ele>250.0</ele><time>2026-04-26T07:43:01.064Z</time></trkpt><trkpt lat="45.5995104" lon="10.7946926"><ele>250.0</ele><time>2026-04-26T07:43:02.063Z</time></trkpt><trkpt lat="45.5995803" lon="10.7947"><ele>249.99999999999997</ele><time>2026-04-26T07:43:03.064Z</time></trkpt><trkpt lat="45.5996866" lon="10.7946896"><ele>250.0</ele><time>2026-04-26T07:43:05.064Z</time></trkpt><trkpt lat="45.5997632" lon="10.7946768"><ele>249.8</ele><time>2026-04-26T07:43:07.064Z</time></trkpt><trkpt lat="45.5998636" lon="10.7946635"><ele>249.6</ele><time>2026-04-26T07:43:10.063Z</time></trkpt><trkpt lat="45.5999273" lon="10.7946562"><ele>249.39999999999998</ele><time>2026-04-26T07:43:11.063Z</time></trkpt><trkpt lat="45.6000106" lon="10.7946389"><ele>249.2</ele><time>2026-04-26T07:43:12.064Z</time></trkpt><trkpt lat="45.6001126" lon="10.7946128"><ele>249.0</ele><time>2026-04-26T07:43:13.063Z</time></trkpt><trkpt lat="45.6002249" lon="10.7945867"><ele>249.0</ele><time>2026-04-26T07:43:14.063Z</time></trkpt><trkpt lat="45.6003334" lon="10.7945669"><ele>248.99999999999997</ele><time>2026-04-26T07:43:15.064Z</time></trkpt><trkpt lat="45.600431" lon="10.794549"><ele>248.99999999999997</ele><time>2026-04-26T07:43:16.063Z</time></trkpt><trkpt lat="45.6005178" lon="10.794535"><ele>249.0</ele><time>2026-04-26T07:43:17.064Z</time></trkpt><trkpt lat="45.6005828" lon="10.7945265"><ele>249.0</ele><time>2026-04-26T07:43:18.063Z</time></trkpt><trkpt lat="45.6006795" lon="10.7944911"><ele>249.0</ele><time>2026-04-26T07:43:20.064Z</time></trkpt><trkpt lat="45.6007658" lon="10.7944902"><ele>248.99999999999997</ele><time>2026-04-26T07:43:22.064Z</time></trkpt><trkpt lat="45.6008642" lon="10.7945633"><ele>248.99999999999997</ele><time>2026-04-26T07:43:24.064Z</time></trkpt><trkpt lat="45.6009215" lon="10.7946444"><ele>249.0</ele><time>2026-04-26T07:43:25.064Z</time></trkpt><trkpt lat="45.6009953" lon="10.7947465"><ele>249.0</ele><time>2026-04-26T07:43:26.064Z</time></trkpt><trkpt lat="45.601072" lon="10.7948553"><ele>249.0</ele><time>2026-04-26T07:43:27.063Z</time></trkpt><trkpt lat="45.6011541" lon="10.7949563"><ele>248.99999999999997</ele><time>2026-04-26T07:43:28.063Z</time></trkpt><trkpt lat="45.6012397" lon="10.7950363"><ele>248.99999999999997</ele><time>2026-04-26T07:43:29.063Z</time></trkpt><trkpt lat="45.6013266" lon="10.7950984"><ele>249.0</ele><time>2026-04-26T07:43:30.063Z</time></trkpt><trkpt lat="45.6014149" lon="10.7951422"><ele>249.0</ele><time>2026-04-26T07:43:31.063Z</time></trkpt><trkpt lat="45.6015084" lon="10.7951657"><ele>248.79999999999998</ele><time>2026-04-26T07:43:32.064Z</time></trkpt><trkpt lat="45.6016106" lon="10.7951706"><ele>248.59999999999997</ele><time>2026-04-26T07:43:33.064Z</time></trkpt><trkpt lat="45.6017127" lon="10.7951685"><ele>248.4</ele><time>2026-04-26T07:43:34.064Z</time></trkpt><trkpt lat="45.6018195" lon="10.7951613"><ele>248.2</ele><time>2026-04-26T07:43:35.064Z</time></trkpt><trkpt lat="45.6019168" lon="10.7951637"><ele>248.0</ele><time>2026-04-26T07:43:36.064Z</time></trkpt><trkpt lat="45.6020025" lon="10.7951554"><ele>248.4</ele><time>2026-04-26T07:43:37.064Z</time></trkpt><trkpt lat="45.6020797" lon="10.7951612"><ele>248.8</ele><time>2026-04-26T07:43:38.063Z</time></trkpt><trkpt lat="45.6021828" lon="10.7951613"><ele>249.2</ele><time>2026-04-26T07:43:40.063Z</time></trkpt><trkpt lat="45.6022771" lon="10.7951594"><ele>249.6</ele><time>2026-04-26T07:43:42.064Z</time></trkpt><trkpt lat="45.6023674" lon="10.7951547"><ele>250.0</ele><time>2026-04-26T07:43:44.064Z</time></trkpt><trkpt lat="45.6024568" lon="10.7951766"><ele>250.2</ele><time>2026-04-26T07:43:46.064Z</time></trkpt><trkpt lat="45.6025559" lon="10.7952606"><ele>250.4</ele><time>2026-04-26T07:43:48.063Z</time></trkpt><trkpt lat="45.6026065" lon="10.7953396"><ele>250.60000000000002</ele><time>2026-04-26T07:43:49.063Z</time></trkpt><trkpt lat="45.6026667" lon="10.7954368"><ele>250.8</ele><time>2026-04-26T07:43:50.064Z</time></trkpt><trkpt lat="45.6027063" lon="10.7955538"><ele>251.0</ele><time>2026-04-26T07:43:51.063Z</time></trkpt><trkpt lat="45.6027318" lon="10.7956816"><ele>251.0</ele><time>2026-04-26T07:43:52.063Z</time></trkpt><trkpt lat="45.6027395" lon="10.7958197"><ele>251.00000000000003</ele><time>2026-04-26T07:43:53.064Z</time></trkpt><trkpt lat="45.6027335" lon="10.7959679"><ele>251.00000000000003</ele><time>2026-04-26T07:43:54.064Z</time></trkpt><trkpt lat="45.6027288" lon="10.7961206"><ele>251.0</ele><time>2026-04-26T07:43:55.064Z</time></trkpt><trkpt lat="45.602731" lon="10.7962783"><ele>251.0</ele><time>2026-04-26T07:43:56.064Z</time></trkpt><trkpt lat="45.6027294" lon="10.7964316"><ele>251.0</ele><time>2026-04-26T07:43:57.063Z</time></trkpt><trkpt lat="45.6027287" lon="10.7965756"><ele>251.00000000000003</ele><time>2026-04-26T07:43:58.064Z</time></trkpt><trkpt lat="45.60274" lon="10.7967206"><ele>251.00000000000003</ele><time>2026-04-26T07:43:59.063Z</time></trkpt><trkpt lat="45.6027558" lon="10.7968596"><ele>251.0</ele><time>2026-04-26T07:44:00.063Z</time></trkpt><trkpt lat="45.6027744" lon="10.7969906"><ele>251.0</ele><time>2026-04-26T07:44:01.063Z</time></trkpt><trkpt lat="45.602802" lon="10.7971059"><ele>250.83333333333334</ele><time>2026-04-26T07:44:02.063Z</time></trkpt><trkpt lat="45.6028502" lon="10.7972006"><ele>250.66666666666669</ele><time>2026-04-26T07:44:03.063Z</time></trkpt><trkpt lat="45.602913" lon="10.7972766"><ele>250.5</ele><time>2026-04-26T07:44:04.064Z</time></trkpt><trkpt lat="45.6029948" lon="10.7973263"><ele>250.33333333333331</ele><time>2026-04-26T07:44:05.063Z</time></trkpt><trkpt lat="45.6030822" lon="10.7973634"><ele>250.16666666666666</ele><time>2026-04-26T07:44:06.064Z</time></trkpt><trkpt lat="45.6031609" lon="10.7974129"><ele>250.0</ele><time>2026-04-26T07:44:07.063Z</time></trkpt><trkpt lat="45.6032167" lon="10.7975005"><ele>249.99999999999997</ele><time>2026-04-26T07:44:08.063Z</time></trkpt><trkpt lat="45.6032325" lon="10.7976084"><ele>250.0</ele><time>2026-04-26T07:44:09.063Z</time></trkpt><trkpt lat="45.6032246" lon="10.7977378"><ele>250.0</ele><time>2026-04-26T07:44:10.064Z</time></trkpt><trkpt lat="45.6032087" lon="10.7978782"><ele>250.0</ele><time>2026-04-26T07:44:11.063Z</time></trkpt><trkpt lat="45.6032121" lon="10.7979887"><ele>249.99999999999997</ele><time>2026-04-26T07:44:12.064Z</time></trkpt><trkpt lat="45.6032366" lon="10.7980968"><ele>250.0</ele><time>2026-04-26T07:44:13.064Z</time></trkpt><trkpt lat="45.6032873" lon="10.7981939"><ele>250.25</ele><time>2026-04-26T07:44:14.064Z</time></trkpt><trkpt lat="45.6033785" lon="10.7982547"><ele>250.5</ele><time>2026-04-26T07:44:15.064Z</time></trkpt><trkpt lat="45.6034952" lon="10.7982841"><ele>250.75</ele><time>2026-04-26T07:44:16.064Z</time></trkpt><trkpt lat="45.6036116" lon="10.7983186"><ele>251.0</ele><time>2026-04-26T07:44:17.064Z</time></trkpt><trkpt lat="45.6037318" lon="10.7983541"><ele>251.20000000000002</ele><time>2026-04-26T07:44:18.064Z</time></trkpt><trkpt lat="45.6038454" lon="10.7984129"><ele>251.40000000000003</ele><time>2026-04-26T07:44:19.064Z</time></trkpt><trkpt lat="45.6039535" lon="10.79848"><ele>251.6</ele><time>2026-04-26T07:44:20.063Z</time></trkpt><trkpt lat="45.6040568" lon="10.7985404"><ele>251.8</ele><time>2026-04-26T07:44:21.063Z</time></trkpt><trkpt lat="45.6041466" lon="10.7985887"><ele>252.0</ele><time>2026-04-26T07:44:22.063Z</time></trkpt><trkpt lat="45.604236" lon="10.7986418"><ele>252.0</ele><time>2026-04-26T07:44:23.064Z</time></trkpt><trkpt lat="45.6043247" lon="10.7986895"><ele>252.0</ele><time>2026-04-26T07:44:24.064Z</time></trkpt><trkpt lat="45.6044195" lon="10.7987408"><ele>252.0</ele><time>2026-04-26T07:44:25.064Z</time></trkpt><trkpt lat="45.6045214" lon="10.7988003"><ele>252.0</ele><time>2026-04-26T07:44:26.064Z</time></trkpt><trkpt lat="45.6046292" lon="10.7988634"><ele>252.0</ele><time>2026-04-26T07:44:27.063Z</time></trkpt><trkpt lat="45.604737" lon="10.7989174"><ele>252.0</ele><time>2026-04-26T07:44:28.063Z</time></trkpt><trkpt lat="45.6048504" lon="10.7989767"><ele>252.0</ele><time>2026-04-26T07:44:29.063Z</time></trkpt><trkpt lat="45.6049622" lon="10.7990349"><ele>252.0</ele><time>2026-04-26T07:44:30.064Z</time></trkpt><trkpt lat="45.6050627" lon="10.7990929"><ele>252.0</ele><time>2026-04-26T07:44:31.063Z</time></trkpt><trkpt lat="45.6051611" lon="10.7991542"><ele>252.0</ele><time>2026-04-26T07:44:32.063Z</time></trkpt><trkpt lat="45.6052549" lon="10.7992219"><ele>252.0</ele><time>2026-04-26T07:44:33.064Z</time></trkpt><trkpt lat="45.6053384" lon="10.7992907"><ele>252.0</ele><time>2026-04-26T07:44:34.064Z</time></trkpt><trkpt lat="45.6054125" lon="10.7993558"><ele>252.0</ele><time>2026-04-26T07:44:35.063Z</time></trkpt><trkpt lat="45.6054815" lon="10.7994282"><ele>252.0</ele><time>2026-04-26T07:44:36.064Z</time></trkpt><trkpt lat="45.6055283" lon="10.7995147"><ele>254.25</ele><time>2026-04-26T07:44:37.064Z</time></trkpt><trkpt lat="45.6055612" lon="10.7996302"><ele>256.5</ele><time>2026-04-26T07:44:38.063Z</time></trkpt><trkpt lat="45.6055645" lon="10.7997836"><ele>258.75</ele><time>2026-04-26T07:44:39.063Z</time></trkpt><trkpt lat="45.6055549" lon="10.7999571"><ele>261.0</ele><time>2026-04-26T07:44:40.063Z</time></trkpt><trkpt lat="45.6055335" lon="10.8001463"><ele>261.5</ele><time>2026-04-26T07:44:41.063Z</time></trkpt><trkpt lat="45.6054989" lon="10.8003395"><ele>262.0</ele><time>2026-04-26T07:44:42.063Z</time></trkpt><trkpt lat="45.6054664" lon="10.8005345"><ele>262.5</ele><time>2026-04-26T07:44:43.064Z</time></trkpt><trkpt lat="45.6054407" lon="10.800733"><ele>263.0</ele><time>2026-04-26T07:44:44.064Z</time></trkpt><trkpt lat="45.6054152" lon="10.800939"><ele>264.25</ele><time>2026-04-26T07:44:45.064Z</time></trkpt><trkpt lat="45.6053943" lon="10.801133"><ele>265.5</ele><time>2026-04-26T07:44:46.064Z</time></trkpt><trkpt lat="45.6053732" lon="10.8013251"><ele>266.75</ele><time>2026-04-26T07:44:47.064Z</time></trkpt><trkpt lat="45.6053581" lon="10.8015142"><ele>268.0</ele><time>2026-04-26T07:44:48.063Z</time></trkpt><trkpt lat="45.6053464" lon="10.8017054"><ele>265.0</ele><time>2026-04-26T07:44:49.064Z</time></trkpt><trkpt lat="45.6053273" lon="10.8018881"><ele>262.0</ele><time>2026-04-26T07:44:50.063Z</time></trkpt><trkpt lat="45.6053015" lon="10.8020582"><ele>259.0</ele><time>2026-04-26T07:44:51.064Z</time></trkpt><trkpt lat="45.6052733" lon="10.8022163"><ele>256.0</ele><time>2026-04-26T07:44:52.064Z</time></trkpt><trkpt lat="45.6052396" lon="10.8023788"><ele>255.99999999999997</ele><time>2026-04-26T07:44:53.064Z</time></trkpt><trkpt lat="45.6052" lon="10.8025246"><ele>256.0</ele><time>2026-04-26T07:44:54.064Z</time></trkpt><trkpt lat="45.6051641" lon="10.8026607"><ele>256.0</ele><time>2026-04-26T07:44:55.063Z</time></trkpt><trkpt lat="45.6051436" lon="10.8027777"><ele>256.0</ele><time>2026-04-26T07:44:56.063Z</time></trkpt><trkpt lat="45.6051512" lon="10.8028823"><ele>255.99999999999997</ele><time>2026-04-26T07:44:57.064Z</time></trkpt><trkpt lat="45.6051691" lon="10.8029786"><ele>256.0</ele><time>2026-04-26T07:44:58.064Z</time></trkpt><trkpt lat="45.6051994" lon="10.8030847"><ele>256.2</ele><time>2026-04-26T07:44:59.064Z</time></trkpt><trkpt lat="45.6052231" lon="10.8032068"><ele>256.40000000000003</ele><time>2026-04-26T07:45:00.064Z</time></trkpt><trkpt lat="45.6052311" lon="10.8033563"><ele>256.6</ele><time>2026-04-26T07:45:01.064Z</time></trkpt><trkpt lat="45.6052263" lon="10.8035266"><ele>256.8</ele><time>2026-04-26T07:45:02.063Z</time></trkpt><trkpt lat="45.6052056" lon="10.803709"><ele>257.0</ele><time>2026-04-26T07:45:03.063Z</time></trkpt><trkpt lat="45.6051858" lon="10.8039053"><ele>257.75</ele><time>2026-04-26T07:45:04.063Z</time></trkpt><trkpt lat="45.6051682" lon="10.8040941"><ele>258.5</ele><time>2026-04-26T07:45:05.064Z</time></trkpt><trkpt lat="45.6051454" lon="10.804283"><ele>259.25</ele><time>2026-04-26T07:45:06.064Z</time></trkpt><trkpt lat="45.6051316" lon="10.804476"><ele>260.0</ele><time>2026-04-26T07:45:07.063Z</time></trkpt><trkpt lat="45.6051276" lon="10.8046489"><ele>260.1666666666667</ele><time>2026-04-26T07:45:08.064Z</time></trkpt><trkpt lat="45.6051203" lon="10.8047883"><ele>260.33333333333337</ele><time>2026-04-26T07:45:09.064Z</time></trkpt><trkpt lat="45.6051195" lon="10.804895"><ele>260.5</ele><time>2026-04-26T07:45:10.063Z</time></trkpt><trkpt lat="45.6051246" lon="10.8050059"><ele>260.6666666666667</ele><time>2026-04-26T07:45:12.063Z</time></trkpt><trkpt lat="45.6051403" lon="10.8051215"><ele>260.8333333333333</ele><time>2026-04-26T07:45:15.063Z</time></trkpt><trkpt lat="45.6051697" lon="10.8052511"><ele>261.0</ele><time>2026-04-26T07:45:17.064Z</time></trkpt><trkpt lat="45.6052505" lon="10.8053688"><ele>261.0</ele><time>2026-04-26T07:45:19.064Z</time></trkpt><trkpt lat="45.6053135" lon="10.8054343"><ele>261.0</ele><time>2026-04-26T07:45:20.064Z</time></trkpt><trkpt lat="45.6053853" lon="10.8055179"><ele>261.0</ele><time>2026-04-26T07:45:21.063Z</time></trkpt><trkpt lat="45.6054591" lon="10.8056176"><ele>261.0</ele><time>2026-04-26T07:45:22.064Z</time></trkpt><trkpt lat="45.605522" lon="10.8057327"><ele>261.0</ele><time>2026-04-26T07:45:23.063Z</time></trkpt><trkpt lat="45.605571" lon="10.8058715"><ele>262.0</ele><time>2026-04-26T07:45:24.063Z</time></trkpt><trkpt lat="45.6056157" lon="10.8060224"><ele>263.0</ele><time>2026-04-26T07:45:25.064Z</time></trkpt><trkpt lat="45.6056581" lon="10.8061768"><ele>264.0</ele><time>2026-04-26T07:45:26.064Z</time></trkpt><trkpt lat="45.6057047" lon="10.8063426"><ele>265.0</ele><time>2026-04-26T07:45:27.064Z</time></trkpt><trkpt lat="45.6057503" lon="10.8065213"><ele>265.0</ele><time>2026-04-26T07:45:28.063Z</time></trkpt><trkpt lat="45.6057902" lon="10.8067028"><ele>265.0</ele><time>2026-04-26T07:45:29.063Z</time></trkpt><trkpt lat="45.6058359" lon="10.8068861"><ele>265.0</ele><time>2026-04-26T07:45:30.063Z</time></trkpt><trkpt lat="45.605883" lon="10.8070652"><ele>265.0</ele><time>2026-04-26T07:45:31.063Z</time></trkpt><trkpt lat="45.6059307" lon="10.8072456"><ele>264.75</ele><time>2026-04-26T07:45:32.062Z</time></trkpt><trkpt lat="45.6059814" lon="10.8074176"><ele>264.5</ele><time>2026-04-26T07:45:33.062Z</time></trkpt><trkpt lat="45.606029" lon="10.8075852"><ele>264.25</ele><time>2026-04-26T07:45:34.062Z</time></trkpt><trkpt lat="45.6060746" lon="10.8077522"><ele>264.0</ele><time>2026-04-26T07:45:35.062Z</time></trkpt><trkpt lat="45.6061184" lon="10.8079075"><ele>264.0</ele><time>2026-04-26T07:45:36.063Z</time></trkpt><trkpt lat="45.6061577" lon="10.8080585"><ele>264.0</ele><time>2026-04-26T07:45:37.063Z</time></trkpt><trkpt lat="45.6061843" lon="10.8082065"><ele>264.0</ele><time>2026-04-26T07:45:38.063Z</time></trkpt><trkpt lat="45.6062099" lon="10.8083428"><ele>264.0</ele><time>2026-04-26T07:45:39.062Z</time></trkpt><trkpt lat="45.606243" lon="10.8084644"><ele>264.0</ele><time>2026-04-26T07:45:40.062Z</time></trkpt><trkpt lat="45.606282" lon="10.80857"><ele>264.59999999999997</ele><time>2026-04-26T07:45:41.062Z</time></trkpt><trkpt lat="45.60634" lon="10.8086768"><ele>265.2</ele><time>2026-04-26T07:45:42.062Z</time></trkpt><trkpt lat="45.6064057" lon="10.8087859"><ele>265.79999999999995</ele><time>2026-04-26T07:45:43.063Z</time></trkpt><trkpt lat="45.6064752" lon="10.8088847"><ele>266.4</ele><time>2026-04-26T07:45:44.063Z</time></trkpt><trkpt lat="45.6065462" lon="10.8089765"><ele>267.0</ele><time>2026-04-26T07:45:45.063Z</time></trkpt><trkpt lat="45.6066184" lon="10.809068"><ele>267.0</ele><time>2026-04-26T07:45:46.062Z</time></trkpt><trkpt lat="45.6066855" lon="10.8091502"><ele>267.0</ele><time>2026-04-26T07:45:47.063Z</time></trkpt><trkpt lat="45.6067508" lon="10.8092251"><ele>267.0</ele><time>2026-04-26T07:45:48.062Z</time></trkpt><trkpt lat="45.6068194" lon="10.8092981"><ele>267.0</ele><time>2026-04-26T07:45:49.063Z</time></trkpt><trkpt lat="45.606886" lon="10.8093789"><ele>267.0</ele><time>2026-04-26T07:45:50.063Z</time></trkpt><trkpt lat="45.6069425" lon="10.8094646"><ele>267.0</ele><time>2026-04-26T07:45:51.063Z</time></trkpt><trkpt lat="45.6069949" lon="10.8095514"><ele>267.0</ele><time>2026-04-26T07:45:52.062Z</time></trkpt><trkpt lat="45.6070541" lon="10.809658"><ele>267.0</ele><time>2026-04-26T07:45:54.063Z</time></trkpt><trkpt lat="45.6070808" lon="10.8097432"><ele>267.0</ele><time>2026-04-26T07:45:57.063Z</time></trkpt><trkpt lat="45.6069829" lon="10.8098436"><ele>267.0</ele><time>2026-04-26T07:46:00.063Z</time></trkpt><trkpt lat="45.6069148" lon="10.8098755"><ele>267.0</ele><time>2026-04-26T07:46:01.063Z</time></trkpt><trkpt lat="45.6068348" lon="10.8099117"><ele>267.0</ele><time>2026-04-26T07:46:02.062Z</time></trkpt><trkpt lat="45.6067614" lon="10.809943"><ele>267.0</ele><time>2026-04-26T07:46:03.063Z</time></trkpt><trkpt lat="45.6066982" lon="10.8099793"><ele>267.0</ele><time>2026-04-26T07:46:04.062Z</time></trkpt><trkpt lat="45.6066054" lon="10.8100421"><ele>267.0</ele><time>2026-04-26T07:46:06.063Z</time></trkpt><trkpt lat="45.6065473" lon="10.81009"><ele>267.0</ele><time>2026-04-26T07:46:08.062Z</time></trkpt><trkpt lat="45.6064932" lon="10.8101436"><ele>267.0</ele><time>2026-04-26T07:46:12.063Z</time></trkpt><trkpt lat="45.6064649" lon="10.8102299"><ele>267.0</ele><time>2026-04-26T07:46:14.063Z</time></trkpt><trkpt lat="45.6064133" lon="10.8103649"><ele>267.0</ele><time>2026-04-26T07:46:16.063Z</time></trkpt><trkpt lat="45.6063679" lon="10.8104521"><ele>267.0</ele><time>2026-04-26T07:46:17.062Z</time></trkpt><trkpt lat="45.6063132" lon="10.810558"><ele>267.0</ele><time>2026-04-26T07:46:18.063Z</time></trkpt><trkpt lat="45.6062536" lon="10.8106753"><ele>267.0</ele><time>2026-04-26T07:46:19.063Z</time></trkpt><trkpt lat="45.6061911" lon="10.8107893"><ele>267.0</ele><time>2026-04-26T07:46:20.063Z</time></trkpt><trkpt lat="45.6061321" lon="10.8108943"><ele>267.4</ele><time>2026-04-26T07:46:21.062Z</time></trkpt><trkpt lat="45.6060773" lon="10.8109984"><ele>267.79999999999995</ele><time>2026-04-26T07:46:22.063Z</time></trkpt><trkpt lat="45.6060226" lon="10.8111078"><ele>268.2</ele><time>2026-04-26T07:46:23.062Z</time></trkpt><trkpt lat="45.605965" lon="10.8112174"><ele>268.59999999999997</ele><time>2026-04-26T07:46:24.062Z</time></trkpt><trkpt lat="45.6059064" lon="10.8113231"><ele>269.0</ele><time>2026-04-26T07:46:25.062Z</time></trkpt><trkpt lat="45.6058429" lon="10.8114228"><ele>269.0</ele><time>2026-04-26T07:46:26.063Z</time></trkpt><trkpt lat="45.6057884" lon="10.8115172"><ele>269.0</ele><time>2026-04-26T07:46:27.062Z</time></trkpt><trkpt lat="45.6057346" lon="10.811605"><ele>269.0</ele><time>2026-04-26T07:46:28.063Z</time></trkpt><trkpt lat="45.6056933" lon="10.8116801"><ele>269.0</ele><time>2026-04-26T07:46:29.063Z</time></trkpt><trkpt lat="45.6056643" lon="10.8117656"><ele>269.0</ele><time>2026-04-26T07:46:30.063Z</time></trkpt><trkpt lat="45.605627" lon="10.8119099"><ele>269.0</ele><time>2026-04-26T07:46:32.063Z</time></trkpt><trkpt lat="45.6056094" lon="10.8120267"><ele>269.1666666666667</ele><time>2026-04-26T07:46:34.062Z</time></trkpt><trkpt lat="45.6055902" lon="10.8121126"><ele>269.33333333333337</ele><time>2026-04-26T07:46:36.062Z</time></trkpt><trkpt lat="45.6055718" lon="10.8122204"><ele>269.5</ele><time>2026-04-26T07:46:40.062Z</time></trkpt><trkpt lat="45.605557" lon="10.8123141"><ele>269.6666666666667</ele><time>2026-04-26T07:46:45.062Z</time></trkpt><trkpt lat="45.6055217" lon="10.8124253"><ele>269.8333333333333</ele><time>2026-04-26T07:46:48.062Z</time></trkpt><trkpt lat="45.6054533" lon="10.81252"><ele>270.0</ele><time>2026-04-26T07:46:50.062Z</time></trkpt><trkpt lat="45.6053726" lon="10.8126156"><ele>269.6</ele><time>2026-04-26T07:46:52.063Z</time></trkpt><trkpt lat="45.6053278" lon="10.8126925"><ele>269.2</ele><time>2026-04-26T07:46:53.063Z</time></trkpt><trkpt lat="45.605272" lon="10.8128046"><ele>268.8</ele><time>2026-04-26T07:46:54.063Z</time></trkpt><trkpt lat="45.6052173" lon="10.8129396"><ele>268.4</ele><time>2026-04-26T07:46:55.063Z</time></trkpt><trkpt lat="45.605166" lon="10.8130747"><ele>268.0</ele><time>2026-04-26T07:46:56.063Z</time></trkpt><trkpt lat="45.6051222" lon="10.8132003"><ele>268.0</ele><time>2026-04-26T07:46:57.063Z</time></trkpt><trkpt lat="45.6050817" lon="10.8133256"><ele>268.0</ele><time>2026-04-26T07:46:58.062Z</time></trkpt><trkpt lat="45.605047" lon="10.8134449"><ele>268.0</ele><time>2026-04-26T07:46:59.062Z</time></trkpt><trkpt lat="45.6050204" lon="10.8135589"><ele>268.0</ele><time>2026-04-26T07:47:00.062Z</time></trkpt><trkpt lat="45.6050009" lon="10.8136679"><ele>268.0</ele><time>2026-04-26T07:47:01.063Z</time></trkpt><trkpt lat="45.6049804" lon="10.8137776"><ele>268.0</ele><time>2026-04-26T07:47:02.063Z</time></trkpt><trkpt lat="45.6049574" lon="10.8138848"><ele>268.0</ele><time>2026-04-26T07:47:03.063Z</time></trkpt><trkpt lat="45.6049317" lon="10.8139904"><ele>268.0</ele><time>2026-04-26T07:47:04.062Z</time></trkpt><trkpt lat="45.6049069" lon="10.814096"><ele>268.0</ele><time>2026-04-26T07:47:05.063Z</time></trkpt><trkpt lat="45.6048796" lon="10.8142014"><ele>268.0</ele><time>2026-04-26T07:47:06.062Z</time></trkpt><trkpt lat="45.6048549" lon="10.8143018"><ele>268.0</ele><time>2026-04-26T07:47:07.063Z</time></trkpt><trkpt lat="45.6048301" lon="10.8144107"><ele>268.0</ele><time>2026-04-26T07:47:08.063Z</time></trkpt><trkpt lat="45.6048054" lon="10.8145171"><ele>268.16666666666663</ele><time>2026-04-26T07:47:09.063Z</time></trkpt><trkpt lat="45.6047791" lon="10.8146212"><ele>268.3333333333333</ele><time>2026-04-26T07:47:10.063Z</time></trkpt><trkpt lat="45.6047536" lon="10.8147332"><ele>268.5</ele><time>2026-04-26T07:47:11.062Z</time></trkpt><trkpt lat="45.6047245" lon="10.8148443"><ele>268.6666666666667</ele><time>2026-04-26T07:47:12.063Z</time></trkpt><trkpt lat="45.6046958" lon="10.8149635"><ele>268.83333333333337</ele><time>2026-04-26T07:47:13.062Z</time></trkpt><trkpt lat="45.6046758" lon="10.8150715"><ele>269.0</ele><time>2026-04-26T07:47:14.063Z</time></trkpt><trkpt lat="45.6046607" lon="10.8151671"><ele>269.1666666666667</ele><time>2026-04-26T07:47:15.063Z</time></trkpt><trkpt lat="45.6046458" lon="10.8152748"><ele>269.33333333333337</ele><time>2026-04-26T07:47:16.063Z</time></trkpt><trkpt lat="45.6046316" lon="10.8154062"><ele>269.5</ele><time>2026-04-26T07:47:17.063Z</time></trkpt><trkpt lat="45.6046193" lon="10.8155301"><ele>269.6666666666667</ele><time>2026-04-26T07:47:18.063Z</time></trkpt><trkpt lat="45.604612" lon="10.8156396"><ele>269.8333333333333</ele><time>2026-04-26T07:47:19.063Z</time></trkpt><trkpt lat="45.6046103" lon="10.8157305"><ele>270.0</ele><time>2026-04-26T07:47:20.063Z</time></trkpt><trkpt lat="45.6046117" lon="10.8158535"><ele>270.0</ele><time>2026-04-26T07:47:22.062Z</time></trkpt><trkpt lat="45.6046343" lon="10.8159475"><ele>270.0</ele><time>2026-04-26T07:47:25.062Z</time></trkpt><trkpt lat="45.6046923" lon="10.8160285"><ele>270.0</ele><time>2026-04-26T07:47:27.062Z</time></trkpt><trkpt lat="45.6047327" lon="10.8161885"><ele>270.0</ele><time>2026-04-26T07:47:29.063Z</time></trkpt><trkpt lat="45.604737" lon="10.816287"><ele>270.0</ele><time>2026-04-26T07:47:30.063Z</time></trkpt><trkpt lat="45.6047425" lon="10.8164099"><ele>270.0</ele><time>2026-04-26T07:47:31.063Z</time></trkpt><trkpt lat="45.60475" lon="10.8165508"><ele>269.8333333333333</ele><time>2026-04-26T07:47:32.063Z</time></trkpt><trkpt lat="45.6047483" lon="10.8166876"><ele>269.6666666666667</ele><time>2026-04-26T07:47:33.063Z</time></trkpt><trkpt lat="45.6047488" lon="10.8168127"><ele>269.5</ele><time>2026-04-26T07:47:34.063Z</time></trkpt><trkpt lat="45.6047559" lon="10.8169263"><ele>269.33333333333337</ele><time>2026-04-26T07:47:35.062Z</time></trkpt><trkpt lat="45.6047656" lon="10.8170259"><ele>269.1666666666667</ele><time>2026-04-26T07:47:36.063Z</time></trkpt><trkpt lat="45.6047822" lon="10.817119"><ele>269.0</ele><time>2026-04-26T07:47:37.062Z</time></trkpt><trkpt lat="45.6048001" lon="10.817215"><ele>269.6666666666667</ele><time>2026-04-26T07:47:38.063Z</time></trkpt><trkpt lat="45.6048275" lon="10.8173209"><ele>270.33333333333337</ele><time>2026-04-26T07:47:39.062Z</time></trkpt><trkpt lat="45.604859" lon="10.8174159"><ele>271.0</ele><time>2026-04-26T07:47:40.063Z</time></trkpt><trkpt lat="45.6048832" lon="10.8175032"><ele>271.6666666666667</ele><time>2026-04-26T07:47:41.063Z</time></trkpt><trkpt lat="45.604903" lon="10.8176563"><ele>272.3333333333333</ele><time>2026-04-26T07:47:43.063Z</time></trkpt><trkpt lat="45.604873" lon="10.8178131"><ele>273.0</ele><time>2026-04-26T07:47:45.063Z</time></trkpt><trkpt lat="45.6048277" lon="10.8179144"><ele>273.1666666666667</ele><time>2026-04-26T07:47:46.063Z</time></trkpt><trkpt lat="45.6047721" lon="10.8180248"><ele>273.3333333333333</ele><time>2026-04-26T07:47:47.063Z</time></trkpt><trkpt lat="45.6047288" lon="10.8181397"><ele>273.5</ele><time>2026-04-26T07:47:48.063Z</time></trkpt><trkpt lat="45.6046921" lon="10.8182506"><ele>273.66666666666663</ele><time>2026-04-26T07:47:49.063Z</time></trkpt><trkpt lat="45.6046541" lon="10.8183498"><ele>273.8333333333333</ele><time>2026-04-26T07:47:50.063Z</time></trkpt><trkpt lat="45.6046198" lon="10.8184408"><ele>274.0</ele><time>2026-04-26T07:47:51.063Z</time></trkpt><trkpt lat="45.6045811" lon="10.8185284"><ele>274.59999999999997</ele><time>2026-04-26T07:47:52.062Z</time></trkpt><trkpt lat="45.6045454" lon="10.8186131"><ele>275.2</ele><time>2026-04-26T07:47:53.063Z</time></trkpt><trkpt lat="45.6044888" lon="10.8187552"><ele>275.79999999999995</ele><time>2026-04-26T07:47:55.062Z</time></trkpt><trkpt lat="45.6044545" lon="10.8188819"><ele>276.4</ele><time>2026-04-26T07:47:57.063Z</time></trkpt><trkpt lat="45.6044372" lon="10.8190075"><ele>277.0</ele><time>2026-04-26T07:47:59.062Z</time></trkpt><trkpt lat="45.6044501" lon="10.8191263"><ele>275.8</ele><time>2026-04-26T07:48:02.062Z</time></trkpt><trkpt lat="45.6044894" lon="10.8192496"><ele>274.6</ele><time>2026-04-26T07:48:04.062Z</time></trkpt><trkpt lat="45.6045424" lon="10.8194095"><ele>273.40000000000003</ele><time>2026-04-26T07:48:06.063Z</time></trkpt><trkpt lat="45.6045709" lon="10.8195012"><ele>272.2</ele><time>2026-04-26T07:48:07.062Z</time></trkpt><trkpt lat="45.6045949" lon="10.8195914"><ele>271.0</ele><time>2026-04-26T07:48:08.063Z</time></trkpt><trkpt lat="45.6046104" lon="10.8197598"><ele>273.3333333333333</ele><time>2026-04-26T07:48:10.062Z</time></trkpt><trkpt lat="45.604606" lon="10.8198649"><ele>275.66666666666663</ele><time>2026-04-26T07:48:11.062Z</time></trkpt><trkpt lat="45.6045948" lon="10.8199813"><ele>278.0</ele><time>2026-04-26T07:48:12.062Z</time></trkpt><trkpt lat="45.6045785" lon="10.8200936"><ele>280.3333333333333</ele><time>2026-04-26T07:48:13.062Z</time></trkpt><trkpt lat="45.6045565" lon="10.8202047"><ele>282.6666666666667</ele><time>2026-04-26T07:48:14.063Z</time></trkpt><trkpt lat="45.6045357" lon="10.8203128"><ele>285.0</ele><time>2026-04-26T07:48:15.063Z</time></trkpt><trkpt lat="45.6045171" lon="10.8204209"><ele>284.3333333333333</ele><time>2026-04-26T07:48:16.062Z</time></trkpt><trkpt lat="45.6044974" lon="10.8205245"><ele>283.6666666666667</ele><time>2026-04-26T07:48:17.063Z</time></trkpt><trkpt lat="45.6044764" lon="10.8206231"><ele>283.0</ele><time>2026-04-26T07:48:18.062Z</time></trkpt><trkpt lat="45.604464" lon="10.8207158"><ele>282.33333333333337</ele><time>2026-04-26T07:48:19.063Z</time></trkpt><trkpt lat="45.6044553" lon="10.8208733"><ele>281.6666666666667</ele><time>2026-04-26T07:48:21.062Z</time></trkpt><trkpt lat="45.6044497" lon="10.8209764"><ele>281.0</ele><time>2026-04-26T07:48:22.063Z</time></trkpt><trkpt lat="45.6044466" lon="10.8211065"><ele>281.0</ele><time>2026-04-26T07:48:23.063Z</time></trkpt><trkpt lat="45.6044431" lon="10.8212471"><ele>281.0</ele><time>2026-04-26T07:48:24.062Z</time></trkpt><trkpt lat="45.6044364" lon="10.8213836"><ele>281.0</ele><time>2026-04-26T07:48:25.063Z</time></trkpt><trkpt lat="45.6044281" lon="10.8215178"><ele>281.0</ele><time>2026-04-26T07:48:26.062Z</time></trkpt><trkpt lat="45.6044181" lon="10.8216375"><ele>281.0</ele><time>2026-04-26T07:48:27.062Z</time></trkpt><trkpt lat="45.6044093" lon="10.8217411"><ele>281.0</ele><time>2026-04-26T07:48:28.063Z</time></trkpt><trkpt lat="45.6043776" lon="10.8218807"><ele>281.6</ele><time>2026-04-26T07:48:30.062Z</time></trkpt><trkpt lat="45.6043206" lon="10.82198"><ele>282.20000000000005</ele><time>2026-04-26T07:48:32.062Z</time></trkpt><trkpt lat="45.6042234" lon="10.8220404"><ele>282.79999999999995</ele><time>2026-04-26T07:48:34.063Z</time></trkpt><trkpt lat="45.6041005" lon="10.8220378"><ele>283.4</ele><time>2026-04-26T07:48:36.062Z</time></trkpt><trkpt lat="45.6040193" lon="10.8220316"><ele>284.0</ele><time>2026-04-26T07:48:37.063Z</time></trkpt><trkpt lat="45.6039278" lon="10.8220372"><ele>284.0</ele><time>2026-04-26T07:48:38.063Z</time></trkpt><trkpt lat="45.6038354" lon="10.8220479"><ele>284.0</ele><time>2026-04-26T07:48:39.062Z</time></trkpt><trkpt lat="45.6037452" lon="10.8220597"><ele>284.0</ele><time>2026-04-26T07:48:40.062Z</time></trkpt><trkpt lat="45.6036599" lon="10.8220721"><ele>284.0</ele><time>2026-04-26T07:48:41.063Z</time></trkpt><trkpt lat="45.6035728" lon="10.8220936"><ele>284.0</ele><time>2026-04-26T07:48:42.062Z</time></trkpt><trkpt lat="45.60348" lon="10.8221202"><ele>283.1428571428571</ele><time>2026-04-26T07:48:43.063Z</time></trkpt><trkpt lat="45.6033899" lon="10.8221488"><ele>282.2857142857143</ele><time>2026-04-26T07:48:44.062Z</time></trkpt><trkpt lat="45.6033085" lon="10.8221704"><ele>281.42857142857144</ele><time>2026-04-26T07:48:45.062Z</time></trkpt><trkpt lat="45.6032383" lon="10.8221978"><ele>280.57142857142856</ele><time>2026-04-26T07:48:46.061Z</time></trkpt><trkpt lat="45.6031789" lon="10.8222347"><ele>279.7142857142857</ele><time>2026-04-26T07:48:47.061Z</time></trkpt><trkpt lat="45.6031216" lon="10.8222768"><ele>278.85714285714283</ele><time>2026-04-26T07:48:48.062Z</time></trkpt><trkpt lat="45.6030564" lon="10.8223138"><ele>278.0</ele><time>2026-04-26T07:48:49.062Z</time></trkpt><trkpt lat="45.6029764" lon="10.8223549"><ele>278.0</ele><time>2026-04-26T07:48:50.062Z</time></trkpt><trkpt lat="45.6028919" lon="10.822399"><ele>278.0</ele><time>2026-04-26T07:48:51.062Z</time></trkpt><trkpt lat="45.6028092" lon="10.8224401"><ele>278.0</ele><time>2026-04-26T07:48:52.062Z</time></trkpt><trkpt lat="45.6027244" lon="10.8224819"><ele>278.0</ele><time>2026-04-26T07:48:53.062Z</time></trkpt><trkpt lat="45.6026383" lon="10.8225251"><ele>278.0</ele><time>2026-04-26T07:48:54.061Z</time></trkpt><trkpt lat="45.6025622" lon="10.8225685"><ele>278.0</ele><time>2026-04-26T07:48:55.061Z</time></trkpt><trkpt lat="45.6024914" lon="10.8226185"><ele>278.5</ele><time>2026-04-26T07:48:56.061Z</time></trkpt><trkpt lat="45.6024197" lon="10.8226729"><ele>279.0</ele><time>2026-04-26T07:48:57.061Z</time></trkpt><trkpt lat="45.6023484" lon="10.8227275"><ele>279.5</ele><time>2026-04-26T07:48:58.062Z</time></trkpt><trkpt lat="45.6022771" lon="10.8227856"><ele>280.0</ele><time>2026-04-26T07:48:59.061Z</time></trkpt><trkpt lat="45.602211" lon="10.8228385"><ele>280.5</ele><time>2026-04-26T07:49:00.062Z</time></trkpt><trkpt lat="45.6021502" lon="10.8228868"><ele>281.0</ele><time>2026-04-26T07:49:01.061Z</time></trkpt><trkpt lat="45.6020891" lon="10.8229371"><ele>281.00000000000006</ele><time>2026-04-26T07:49:02.061Z</time></trkpt><trkpt lat="45.6020197" lon="10.822994"><ele>281.0</ele><time>2026-04-26T07:49:03.062Z</time></trkpt><trkpt lat="45.6019476" lon="10.8230522"><ele>281.0</ele><time>2026-04-26T07:49:04.062Z</time></trkpt><trkpt lat="45.6018803" lon="10.8231034"><ele>281.0</ele><time>2026-04-26T07:49:05.062Z</time></trkpt><trkpt lat="45.6018115" lon="10.8231474"><ele>281.0</ele><time>2026-04-26T07:49:06.062Z</time></trkpt><trkpt lat="45.6017527" lon="10.8231908"><ele>281.00000000000006</ele><time>2026-04-26T07:49:07.062Z</time></trkpt><trkpt lat="45.6016962" lon="10.8232385"><ele>281.0</ele><time>2026-04-26T07:49:08.061Z</time></trkpt><trkpt lat="45.6016399" lon="10.8233015"><ele>280.83333333333337</ele><time>2026-04-26T07:49:09.062Z</time></trkpt><trkpt lat="45.6015827" lon="10.8233781"><ele>280.6666666666667</ele><time>2026-04-26T07:49:10.061Z</time></trkpt><trkpt lat="45.6015381" lon="10.8234508"><ele>280.5</ele><time>2026-04-26T07:49:11.061Z</time></trkpt><trkpt lat="45.6014677" lon="10.8235563"><ele>280.3333333333333</ele><time>2026-04-26T07:49:13.061Z</time></trkpt><trkpt lat="45.6014111" lon="10.8235983"><ele>280.16666666666663</ele><time>2026-04-26T07:49:15.061Z</time></trkpt><trkpt lat="45.6013417" lon="10.8236517"><ele>280.0</ele><time>2026-04-26T07:49:17.062Z</time></trkpt><trkpt lat="45.6012711" lon="10.8237233"><ele>281.66666666666663</ele><time>2026-04-26T07:49:19.062Z</time></trkpt><trkpt lat="45.6011969" lon="10.8237813"><ele>283.3333333333333</ele><time>2026-04-26T07:49:21.062Z</time></trkpt><trkpt lat="45.6011265" lon="10.8238285"><ele>285.0</ele><time>2026-04-26T07:49:23.062Z</time></trkpt><trkpt lat="45.6010654" lon="10.8238696"><ele>286.6666666666667</ele><time>2026-04-26T07:49:25.062Z</time></trkpt><trkpt lat="45.6010017" lon="10.8239085"><ele>288.33333333333337</ele><time>2026-04-26T07:49:27.062Z</time></trkpt><trkpt lat="45.6009181" lon="10.8239603"><ele>290.0</ele><time>2026-04-26T07:49:29.061Z</time></trkpt><trkpt lat="45.600821" lon="10.8240141"><ele>290.1666666666667</ele><time>2026-04-26T07:49:31.062Z</time></trkpt><trkpt lat="45.600719" lon="10.824039"><ele>290.33333333333337</ele><time>2026-04-26T07:49:33.061Z</time></trkpt><trkpt lat="45.6006411" lon="10.8240262"><ele>290.5</ele><time>2026-04-26T07:49:35.062Z</time></trkpt><trkpt lat="45.6005453" lon="10.8239641"><ele>290.6666666666667</ele><time>2026-04-26T07:49:37.061Z</time></trkpt><trkpt lat="45.6004875" lon="10.8239275"><ele>290.8333333333333</ele><time>2026-04-26T07:49:38.061Z</time></trkpt><trkpt lat="45.6004214" lon="10.823884"><ele>291.0</ele><time>2026-04-26T07:49:39.062Z</time></trkpt><trkpt lat="45.6003494" lon="10.82383"><ele>291.40000000000003</ele><time>2026-04-26T07:49:40.061Z</time></trkpt><trkpt lat="45.6002733" lon="10.8237748"><ele>291.8</ele><time>2026-04-26T07:49:41.061Z</time></trkpt><trkpt lat="45.6001949" lon="10.8237263"><ele>292.20000000000005</ele><time>2026-04-26T07:49:42.061Z</time></trkpt><trkpt lat="45.6001086" lon="10.823675"><ele>292.6</ele><time>2026-04-26T07:49:43.062Z</time></trkpt><trkpt lat="45.6000124" lon="10.8236214"><ele>293.0</ele><time>2026-04-26T07:49:44.061Z</time></trkpt><trkpt lat="45.5999148" lon="10.8235665"><ele>293.0</ele><time>2026-04-26T07:49:45.062Z</time></trkpt><trkpt lat="45.5998274" lon="10.8235179"><ele>293.0</ele><time>2026-04-26T07:49:46.062Z</time></trkpt><trkpt lat="45.5997473" lon="10.8234709"><ele>293.0</ele><time>2026-04-26T07:49:47.061Z</time></trkpt><trkpt lat="45.5996736" lon="10.8234165"><ele>293.0</ele><time>2026-04-26T07:49:48.061Z</time></trkpt><trkpt lat="45.599613" lon="10.8233636"><ele>293.0</ele><time>2026-04-26T07:49:49.061Z</time></trkpt><trkpt lat="45.5995083" lon="10.8232719"><ele>291.83333333333337</ele><time>2026-04-26T07:49:51.061Z</time></trkpt><trkpt lat="45.5994458" lon="10.8232425"><ele>290.6666666666667</ele><time>2026-04-26T07:49:52.062Z</time></trkpt><trkpt lat="45.5993651" lon="10.8232283"><ele>289.5</ele><time>2026-04-26T07:49:53.062Z</time></trkpt><trkpt lat="45.5992733" lon="10.8232116"><ele>288.3333333333333</ele><time>2026-04-26T07:49:54.061Z</time></trkpt><trkpt lat="45.5991729" lon="10.8231899"><ele>287.16666666666663</ele><time>2026-04-26T07:49:55.062Z</time></trkpt><trkpt lat="45.5990726" lon="10.8231634"><ele>286.0</ele><time>2026-04-26T07:49:56.061Z</time></trkpt><trkpt lat="45.5989702" lon="10.8231394"><ele>286.0</ele><time>2026-04-26T07:49:57.061Z</time></trkpt><trkpt lat="45.5988665" lon="10.8231101"><ele>286.0</ele><time>2026-04-26T07:49:58.061Z</time></trkpt><trkpt lat="45.5987618" lon="10.8230899"><ele>286.0</ele><time>2026-04-26T07:49:59.061Z</time></trkpt><trkpt lat="45.5986566" lon="10.8230622"><ele>286.0</ele><time>2026-04-26T07:50:00.061Z</time></trkpt><trkpt lat="45.5985563" lon="10.8230236"><ele>286.0</ele><time>2026-04-26T07:50:01.062Z</time></trkpt><trkpt lat="45.5984587" lon="10.8229836"><ele>286.6</ele><time>2026-04-26T07:50:02.062Z</time></trkpt><trkpt lat="45.5983673" lon="10.8229489"><ele>287.20000000000005</ele><time>2026-04-26T07:50:03.062Z</time></trkpt><trkpt lat="45.5982789" lon="10.8229249"><ele>287.79999999999995</ele><time>2026-04-26T07:50:04.061Z</time></trkpt><trkpt lat="45.5981875" lon="10.8229099"><ele>288.4</ele><time>2026-04-26T07:50:05.062Z</time></trkpt><trkpt lat="45.5980999" lon="10.8228937"><ele>289.0</ele><time>2026-04-26T07:50:06.061Z</time></trkpt><trkpt lat="45.5980081" lon="10.8228855"><ele>289.0</ele><time>2026-04-26T07:50:07.062Z</time></trkpt><trkpt lat="45.5979082" lon="10.8228642"><ele>289.0</ele><time>2026-04-26T07:50:08.062Z</time></trkpt><trkpt lat="45.5978055" lon="10.8228317"><ele>289.0</ele><time>2026-04-26T07:50:09.062Z</time></trkpt><trkpt lat="45.5976975" lon="10.8227897"><ele>289.0</ele><time>2026-04-26T07:50:10.062Z</time></trkpt><trkpt lat="45.5975903" lon="10.8227403"><ele>289.0</ele><time>2026-04-26T07:50:11.061Z</time></trkpt><trkpt lat="45.5974943" lon="10.8226955"><ele>288.0</ele><time>2026-04-26T07:50:12.062Z</time></trkpt><trkpt lat="45.5974061" lon="10.8226525"><ele>287.0</ele><time>2026-04-26T07:50:13.061Z</time></trkpt><trkpt lat="45.5973213" lon="10.8226114"><ele>286.0</ele><time>2026-04-26T07:50:14.062Z</time></trkpt><trkpt lat="45.5972373" lon="10.8225713"><ele>285.0</ele><time>2026-04-26T07:50:15.062Z</time></trkpt><trkpt lat="45.5971549" lon="10.8225306"><ele>284.0</ele><time>2026-04-26T07:50:16.061Z</time></trkpt><trkpt lat="45.5970864" lon="10.8224973"><ele>283.0</ele><time>2026-04-26T07:50:17.062Z</time></trkpt><trkpt lat="45.5970235" lon="10.8224627"><ele>281.3333333333333</ele><time>2026-04-26T07:50:18.062Z</time></trkpt><trkpt lat="45.5969694" lon="10.8224154"><ele>279.66666666666663</ele><time>2026-04-26T07:50:19.062Z</time></trkpt><trkpt lat="45.596876" lon="10.8222659"><ele>278.0</ele><time>2026-04-26T07:50:21.062Z</time></trkpt><trkpt lat="45.5968321" lon="10.8221786"><ele>276.3333333333333</ele><time>2026-04-26T07:50:22.062Z</time></trkpt><trkpt lat="45.5967909" lon="10.8220925"><ele>274.6666666666667</ele><time>2026-04-26T07:50:23.061Z</time></trkpt><trkpt lat="45.5967545" lon="10.8220177"><ele>273.0</ele><time>2026-04-26T07:50:24.062Z</time></trkpt><trkpt lat="45.5967281" lon="10.8218998"><ele>272.6</ele><time>2026-04-26T07:50:26.062Z</time></trkpt><trkpt lat="45.5967795" lon="10.8218117"><ele>272.20000000000005</ele><time>2026-04-26T07:50:28.062Z</time></trkpt><trkpt lat="45.5968975" lon="10.8217183"><ele>271.8</ele><time>2026-04-26T07:50:30.061Z</time></trkpt><trkpt lat="45.5969777" lon="10.8216611"><ele>271.40000000000003</ele><time>2026-04-26T07:50:31.061Z</time></trkpt><trkpt lat="45.5970619" lon="10.8216017"><ele>271.0</ele><time>2026-04-26T07:50:32.061Z</time></trkpt><trkpt lat="45.5971422" lon="10.8215364"><ele>271.0</ele><time>2026-04-26T07:50:33.061Z</time></trkpt><trkpt lat="45.5972217" lon="10.8214651"><ele>271.0</ele><time>2026-04-26T07:50:34.062Z</time></trkpt><trkpt lat="45.597298" lon="10.821377"><ele>271.0</ele><time>2026-04-26T07:50:35.062Z</time></trkpt><trkpt lat="45.5973762" lon="10.8212651"><ele>271.0</ele><time>2026-04-26T07:50:36.062Z</time></trkpt><trkpt lat="45.5974551" lon="10.8211302"><ele>271.0</ele><time>2026-04-26T07:50:37.062Z</time></trkpt><trkpt lat="45.5975296" lon="10.8209934"><ele>271.0</ele><time>2026-04-26T07:50:38.062Z</time></trkpt><trkpt lat="45.5976089" lon="10.8208761"><ele>271.0</ele><time>2026-04-26T07:50:39.062Z</time></trkpt><trkpt lat="45.5976877" lon="10.8207836"><ele>271.0</ele><time>2026-04-26T07:50:40.062Z</time></trkpt><trkpt lat="45.5977781" lon="10.820689"><ele>271.0</ele><time>2026-04-26T07:50:41.062Z</time></trkpt><trkpt lat="45.5978744" lon="10.8205981"><ele>271.0</ele><time>2026-04-26T07:50:42.062Z</time></trkpt><trkpt lat="45.5979695" lon="10.8204971"><ele>270.5</ele><time>2026-04-26T07:50:43.061Z</time></trkpt><trkpt lat="45.5980628" lon="10.8203984"><ele>270.0</ele><time>2026-04-26T07:50:44.062Z</time></trkpt><trkpt lat="45.5981579" lon="10.8202989"><ele>269.5</ele><time>2026-04-26T07:50:45.062Z</time></trkpt><trkpt lat="45.5982495" lon="10.8201981"><ele>269.0</ele><time>2026-04-26T07:50:46.062Z</time></trkpt><trkpt lat="45.5983304" lon="10.8201031"><ele>269.0</ele><time>2026-04-26T07:50:47.061Z</time></trkpt><trkpt lat="45.5984016" lon="10.820006"><ele>269.0</ele><time>2026-04-26T07:50:48.061Z</time></trkpt><trkpt lat="45.5984706" lon="10.819913"><ele>269.0</ele><time>2026-04-26T07:50:49.062Z</time></trkpt><trkpt lat="45.5985436" lon="10.8198296"><ele>269.0</ele><time>2026-04-26T07:50:50.061Z</time></trkpt><trkpt lat="45.5986276" lon="10.8197423"><ele>269.0</ele><time>2026-04-26T07:50:51.062Z</time></trkpt><trkpt lat="45.5987318" lon="10.8196587"><ele>268.75</ele><time>2026-04-26T07:50:52.062Z</time></trkpt><trkpt lat="45.5988387" lon="10.8195734"><ele>268.5</ele><time>2026-04-26T07:50:53.062Z</time></trkpt><trkpt lat="45.5989519" lon="10.8194855"><ele>268.25</ele><time>2026-04-26T07:50:54.061Z</time></trkpt><trkpt lat="45.5990476" lon="10.8194044"><ele>268.0</ele><time>2026-04-26T07:50:55.061Z</time></trkpt><trkpt lat="45.5991269" lon="10.8193236"><ele>268.16666666666663</ele><time>2026-04-26T07:50:56.062Z</time></trkpt><trkpt lat="45.5992076" lon="10.8192596"><ele>268.3333333333333</ele><time>2026-04-26T07:50:57.062Z</time></trkpt><trkpt lat="45.5992723" lon="10.8191996"><ele>268.5</ele><time>2026-04-26T07:50:58.062Z</time></trkpt><trkpt lat="45.5993368" lon="10.8191585"><ele>268.6666666666667</ele><time>2026-04-26T07:50:59.062Z</time></trkpt><trkpt lat="45.5993972" lon="10.8191287"><ele>268.83333333333337</ele><time>2026-04-26T07:51:00.062Z</time></trkpt><trkpt lat="45.5994661" lon="10.8191037"><ele>269.0</ele><time>2026-04-26T07:51:01.062Z</time></trkpt><trkpt lat="45.5995468" lon="10.8190844"><ele>269.0</ele><time>2026-04-26T07:51:02.061Z</time></trkpt><trkpt lat="45.5996296" lon="10.8190649"><ele>269.0</ele><time>2026-04-26T07:51:03.062Z</time></trkpt><trkpt lat="45.5997204" lon="10.8190522"><ele>269.0</ele><time>2026-04-26T07:51:04.062Z</time></trkpt><trkpt lat="45.5998175" lon="10.8190455"><ele>269.0</ele><time>2026-04-26T07:51:05.062Z</time></trkpt><trkpt lat="45.5999235" lon="10.819038"><ele>269.0</ele><time>2026-04-26T07:51:06.061Z</time></trkpt><trkpt lat="45.6000314" lon="10.8190289"><ele>269.0</ele><time>2026-04-26T07:51:07.062Z</time></trkpt><trkpt lat="45.6001332" lon="10.8190107"><ele>269.0</ele><time>2026-04-26T07:51:08.061Z</time></trkpt><trkpt lat="45.6002377" lon="10.8189754"><ele>269.0</ele><time>2026-04-26T07:51:09.062Z</time></trkpt><trkpt lat="45.6003461" lon="10.8189364"><ele>269.0</ele><time>2026-04-26T07:51:10.061Z</time></trkpt><trkpt lat="45.6004574" lon="10.8189016"><ele>269.0</ele><time>2026-04-26T07:51:11.062Z</time></trkpt><trkpt lat="45.6005607" lon="10.8188713"><ele>268.8</ele><time>2026-04-26T07:51:12.061Z</time></trkpt><trkpt lat="45.6006523" lon="10.8188416"><ele>268.59999999999997</ele><time>2026-04-26T07:51:13.061Z</time></trkpt><trkpt lat="45.6007497" lon="10.8188135"><ele>268.4</ele><time>2026-04-26T07:51:14.062Z</time></trkpt><trkpt lat="45.6008489" lon="10.8187791"><ele>268.2</ele><time>2026-04-26T07:51:15.061Z</time></trkpt><trkpt lat="45.6009422" lon="10.818724"><ele>268.0</ele><time>2026-04-26T07:51:16.062Z</time></trkpt><trkpt lat="45.6010323" lon="10.8186561"><ele>268.0</ele><time>2026-04-26T07:51:17.062Z</time></trkpt><trkpt lat="45.6011162" lon="10.8185711"><ele>268.0</ele><time>2026-04-26T07:51:18.061Z</time></trkpt><trkpt lat="45.6011913" lon="10.818476"><ele>268.0</ele><time>2026-04-26T07:51:19.061Z</time></trkpt><trkpt lat="45.6012708" lon="10.8183722"><ele>268.0</ele><time>2026-04-26T07:51:20.062Z</time></trkpt><trkpt lat="45.6013584" lon="10.8182759"><ele>268.0</ele><time>2026-04-26T07:51:21.061Z</time></trkpt><trkpt lat="45.6014522" lon="10.8181828"><ele>267.8</ele><time>2026-04-26T07:51:22.061Z</time></trkpt><trkpt lat="45.601551" lon="10.8180869"><ele>267.6</ele><time>2026-04-26T07:51:23.061Z</time></trkpt><trkpt lat="45.6016213" lon="10.8179625"><ele>267.4</ele><time>2026-04-26T07:51:24.061Z</time></trkpt><trkpt lat="45.601703" lon="10.8178662"><ele>267.2</ele><time>2026-04-26T07:51:25.062Z</time></trkpt><trkpt lat="45.6017894" lon="10.8177711"><ele>267.0</ele><time>2026-04-26T07:51:26.061Z</time></trkpt><trkpt lat="45.6018753" lon="10.817664"><ele>267.0</ele><time>2026-04-26T07:51:27.061Z</time></trkpt><trkpt lat="45.6019492" lon="10.8175517"><ele>267.0</ele><time>2026-04-26T07:51:28.062Z</time></trkpt><trkpt lat="45.6020142" lon="10.8174353"><ele>267.0</ele><time>2026-04-26T07:51:29.062Z</time></trkpt><trkpt lat="45.6020772" lon="10.8173113"><ele>267.0</ele><time>2026-04-26T07:51:30.062Z</time></trkpt><trkpt lat="45.6021336" lon="10.8171915"><ele>267.0</ele><time>2026-04-26T07:51:31.062Z</time></trkpt><trkpt lat="45.602183" lon="10.8170864"><ele>267.0</ele><time>2026-04-26T07:51:32.061Z</time></trkpt><trkpt lat="45.6022205" lon="10.8169803"><ele>267.0</ele><time>2026-04-26T07:51:33.061Z</time></trkpt><trkpt lat="45.6022369" lon="10.8168693"><ele>267.0</ele><time>2026-04-26T07:51:34.062Z</time></trkpt><trkpt lat="45.602235" lon="10.8167536"><ele>267.0</ele><time>2026-04-26T07:51:35.062Z</time></trkpt><trkpt lat="45.6022213" lon="10.8166339"><ele>267.0</ele><time>2026-04-26T07:51:36.062Z</time></trkpt><trkpt lat="45.6022092" lon="10.8165298"><ele>267.0</ele><time>2026-04-26T07:51:37.062Z</time></trkpt><trkpt lat="45.6021892" lon="10.8164352"><ele>267.1666666666667</ele><time>2026-04-26T07:51:38.061Z</time></trkpt><trkpt lat="45.602179" lon="10.8163435"><ele>267.3333333333333</ele><time>2026-04-26T07:51:39.062Z</time></trkpt><trkpt lat="45.6022131" lon="10.8161792"><ele>267.5</ele><time>2026-04-26T07:51:41.062Z</time></trkpt><trkpt lat="45.6022465" lon="10.8160878"><ele>267.66666666666663</ele><time>2026-04-26T07:51:42.062Z</time></trkpt><trkpt lat="45.6022948" lon="10.8160265"><ele>267.8333333333333</ele><time>2026-04-26T07:51:43.061Z</time></trkpt><trkpt lat="45.6023707" lon="10.8160086"><ele>268.0</ele><time>2026-04-26T07:51:44.061Z</time></trkpt><trkpt lat="45.6024561" lon="10.815971"><ele>268.0</ele><time>2026-04-26T07:51:45.061Z</time></trkpt><trkpt lat="45.6025588" lon="10.8159445"><ele>268.0</ele><time>2026-04-26T07:51:46.062Z</time></trkpt><trkpt lat="45.6026589" lon="10.8159179"><ele>268.0</ele><time>2026-04-26T07:51:47.061Z</time></trkpt><trkpt lat="45.6027507" lon="10.8158829"><ele>268.0</ele><time>2026-04-26T07:51:48.061Z</time></trkpt><trkpt lat="45.6028282" lon="10.8158294"><ele>268.0</ele><time>2026-04-26T07:51:49.061Z</time></trkpt><trkpt lat="45.6028909" lon="10.8157611"><ele>267.8333333333333</ele><time>2026-04-26T07:51:50.061Z</time></trkpt><trkpt lat="45.6029383" lon="10.8156792"><ele>267.66666666666663</ele><time>2026-04-26T07:51:51.061Z</time></trkpt><trkpt lat="45.6029796" lon="10.8155909"><ele>267.5</ele><time>2026-04-26T07:51:52.062Z</time></trkpt><trkpt lat="45.6030146" lon="10.8155139"><ele>267.3333333333333</ele><time>2026-04-26T07:51:53.062Z</time></trkpt><trkpt lat="45.6030553" lon="10.8153793"><ele>267.1666666666667</ele><time>2026-04-26T07:51:55.062Z</time></trkpt><trkpt lat="45.6030205" lon="10.8153037"><ele>267.0</ele><time>2026-04-26T07:51:59.061Z</time></trkpt><trkpt lat="45.6028954" lon="10.8152309"><ele>267.3333333333333</ele><time>2026-04-26T07:52:04.06Z</time></trkpt><trkpt lat="45.6027713" lon="10.815163"><ele>267.66666666666663</ele><time>2026-04-26T07:52:05.061Z</time></trkpt><trkpt lat="45.6026252" lon="10.8150912"><ele>268.0</ele><time>2026-04-26T07:52:06.061Z</time></trkpt><trkpt lat="45.6024672" lon="10.8150214"><ele>267.66666666666663</ele><time>2026-04-26T07:52:07.061Z</time></trkpt><trkpt lat="45.6022989" lon="10.8149535"><ele>267.3333333333333</ele><time>2026-04-26T07:52:08.061Z</time></trkpt><trkpt lat="45.6021317" lon="10.8148865"><ele>267.0</ele><time>2026-04-26T07:52:09.061Z</time></trkpt><trkpt lat="45.6019626" lon="10.8148187"><ele>267.0</ele><time>2026-04-26T07:52:10.061Z</time></trkpt><trkpt lat="45.6017848" lon="10.8147526"><ele>267.0</ele><time>2026-04-26T07:52:11.06Z</time></trkpt><trkpt lat="45.60161" lon="10.8146823"><ele>267.0</ele><time>2026-04-26T07:52:12.061Z</time></trkpt><trkpt lat="45.601436" lon="10.8146198"><ele>267.0</ele><time>2026-04-26T07:52:13.06Z</time></trkpt><trkpt lat="45.6012552" lon="10.8145564"><ele>267.0</ele><time>2026-04-26T07:52:14.061Z</time></trkpt><trkpt lat="45.6010887" lon="10.8144836"><ele>267.0</ele><time>2026-04-26T07:52:15.061Z</time></trkpt><trkpt lat="45.6009092" lon="10.8144187"><ele>267.3333333333333</ele><time>2026-04-26T07:52:16.061Z</time></trkpt><trkpt lat="45.6007287" lon="10.8143479"><ele>267.66666666666663</ele><time>2026-04-26T07:52:17.061Z</time></trkpt><trkpt lat="45.6005529" lon="10.8142736"><ele>268.0</ele><time>2026-04-26T07:52:18.06Z</time></trkpt><trkpt lat="45.600378" lon="10.8141938"><ele>267.66666666666663</ele><time>2026-04-26T07:52:19.06Z</time></trkpt><trkpt lat="45.6001987" lon="10.814123"><ele>267.3333333333333</ele><time>2026-04-26T07:52:20.061Z</time></trkpt><trkpt lat="45.6000246" lon="10.8140431"><ele>267.0</ele><time>2026-04-26T07:52:21.061Z</time></trkpt><trkpt lat="45.5998485" lon="10.8139674"><ele>267.0</ele><time>2026-04-26T07:52:22.061Z</time></trkpt><trkpt lat="45.5996747" lon="10.8138951"><ele>267.0</ele><time>2026-04-26T07:52:23.061Z</time></trkpt><trkpt lat="45.5995151" lon="10.8138146"><ele>267.0</ele><time>2026-04-26T07:52:24.061Z</time></trkpt><trkpt lat="45.599362" lon="10.8137485"><ele>267.0</ele><time>2026-04-26T07:52:25.061Z</time></trkpt><trkpt lat="45.5992164" lon="10.8136981"><ele>267.0</ele><time>2026-04-26T07:52:26.061Z</time></trkpt><trkpt lat="45.5990796" lon="10.8136681"><ele>267.0</ele><time>2026-04-26T07:52:27.061Z</time></trkpt><trkpt lat="45.5989408" lon="10.8136722"><ele>267.0</ele><time>2026-04-26T07:52:28.061Z</time></trkpt><trkpt lat="45.5988006" lon="10.8137124"><ele>267.0</ele><time>2026-04-26T07:52:29.06Z</time></trkpt><trkpt lat="45.5986722" lon="10.8138113"><ele>267.0</ele><time>2026-04-26T07:52:30.06Z</time></trkpt><trkpt lat="45.5985469" lon="10.8139384"><ele>267.0</ele><time>2026-04-26T07:52:31.061Z</time></trkpt><trkpt lat="45.5984137" lon="10.814079"><ele>266.3333333333333</ele><time>2026-04-26T07:52:32.061Z</time></trkpt><trkpt lat="45.5982862" lon="10.8142225"><ele>265.66666666666663</ele><time>2026-04-26T07:52:33.061Z</time></trkpt><trkpt lat="45.5981453" lon="10.814368"><ele>265.0</ele><time>2026-04-26T07:52:34.06Z</time></trkpt><trkpt lat="45.5980096" lon="10.8145066"><ele>266.3333333333333</ele><time>2026-04-26T07:52:35.061Z</time></trkpt><trkpt lat="45.5978762" lon="10.814632"><ele>267.6666666666667</ele><time>2026-04-26T07:52:36.06Z</time></trkpt><trkpt lat="45.5977451" lon="10.814735"><ele>269.0</ele><time>2026-04-26T07:52:37.06Z</time></trkpt><trkpt lat="45.5976029" lon="10.8148158"><ele>270.33333333333337</ele><time>2026-04-26T07:52:38.06Z</time></trkpt><trkpt lat="45.5974406" lon="10.8148676"><ele>271.6666666666667</ele><time>2026-04-26T07:52:39.06Z</time></trkpt><trkpt lat="45.5972615" lon="10.8148975"><ele>273.0</ele><time>2026-04-26T07:52:40.061Z</time></trkpt><trkpt lat="45.5970916" lon="10.8149346"><ele>273.3333333333333</ele><time>2026-04-26T07:52:41.06Z</time></trkpt><trkpt lat="45.5969174" lon="10.8149768"><ele>273.66666666666663</ele><time>2026-04-26T07:52:42.061Z</time></trkpt><trkpt lat="45.5967467" lon="10.8150207"><ele>274.0</ele><time>2026-04-26T07:52:43.061Z</time></trkpt><trkpt lat="45.5965845" lon="10.8150642"><ele>274.0</ele><time>2026-04-26T07:52:44.061Z</time></trkpt><trkpt lat="45.5964371" lon="10.8150978"><ele>274.0</ele><time>2026-04-26T07:52:45.06Z</time></trkpt><trkpt lat="45.5963039" lon="10.8151155"><ele>274.0</ele><time>2026-04-26T07:52:46.061Z</time></trkpt><trkpt lat="45.5961736" lon="10.8151343"><ele>274.0</ele><time>2026-04-26T07:52:47.061Z</time></trkpt><trkpt lat="45.5960519" lon="10.8151373"><ele>272.5</ele><time>2026-04-26T07:52:48.061Z</time></trkpt><trkpt lat="45.5959384" lon="10.8150912"><ele>271.0</ele><time>2026-04-26T07:52:49.061Z</time></trkpt><trkpt lat="45.5958249" lon="10.8150025"><ele>269.5</ele><time>2026-04-26T07:52:50.061Z</time></trkpt><trkpt lat="45.5957194" lon="10.8148768"><ele>268.0</ele><time>2026-04-26T07:52:51.061Z</time></trkpt><trkpt lat="45.5956124" lon="10.8147051"><ele>268.0</ele><time>2026-04-26T07:52:52.061Z</time></trkpt><trkpt lat="45.5955004" lon="10.8145204"><ele>268.0</ele><time>2026-04-26T07:52:53.061Z</time></trkpt><trkpt lat="45.5953858" lon="10.8143414"><ele>268.0</ele><time>2026-04-26T07:52:54.061Z</time></trkpt><trkpt lat="45.5952677" lon="10.8141674"><ele>263.3333333333333</ele><time>2026-04-26T07:52:55.061Z</time></trkpt><trkpt lat="45.5951522" lon="10.8139939"><ele>258.6666666666667</ele><time>2026-04-26T07:52:56.061Z</time></trkpt><trkpt lat="45.5950426" lon="10.8138022"><ele>254.0</ele><time>2026-04-26T07:52:57.061Z</time></trkpt><trkpt lat="45.5949297" lon="10.8136235"><ele>254.33333333333334</ele><time>2026-04-26T07:52:58.061Z</time></trkpt><trkpt lat="45.5947991" lon="10.8134738"><ele>254.66666666666669</ele><time>2026-04-26T07:52:59.06Z</time></trkpt><trkpt lat="45.5946559" lon="10.8133756"><ele>255.0</ele><time>2026-04-26T07:53:00.061Z</time></trkpt><trkpt lat="45.5944862" lon="10.8133132"><ele>251.0</ele><time>2026-04-26T07:53:01.061Z</time></trkpt><trkpt lat="45.5942925" lon="10.8132698"><ele>247.0</ele><time>2026-04-26T07:53:02.061Z</time></trkpt><trkpt lat="45.594098" lon="10.8132364"><ele>243.0</ele><time>2026-04-26T07:53:03.061Z</time></trkpt><trkpt lat="45.5939154" lon="10.8132029"><ele>243.0</ele><time>2026-04-26T07:53:04.061Z</time></trkpt><trkpt lat="45.5937312" lon="10.8131528"><ele>243.0</ele><time>2026-04-26T07:53:05.06Z</time></trkpt><trkpt lat="45.5935521" lon="10.8131003"><ele>243.0</ele><time>2026-04-26T07:53:06.06Z</time></trkpt><trkpt lat="45.5933857" lon="10.8130535"><ele>240.66666666666669</ele><time>2026-04-26T07:53:07.061Z</time></trkpt><trkpt lat="45.5932348" lon="10.8130113"><ele>238.33333333333334</ele><time>2026-04-26T07:53:08.061Z</time></trkpt><trkpt lat="45.5930834" lon="10.812993"><ele>236.0</ele><time>2026-04-26T07:53:09.061Z</time></trkpt><trkpt lat="45.5929278" lon="10.8129911"><ele>232.66666666666669</ele><time>2026-04-26T07:53:10.06Z</time></trkpt><trkpt lat="45.5927684" lon="10.8130347"><ele>229.33333333333331</ele><time>2026-04-26T07:53:11.061Z</time></trkpt><trkpt lat="45.5926112" lon="10.8131287"><ele>226.0</ele><time>2026-04-26T07:53:12.06Z</time></trkpt><trkpt lat="45.5924579" lon="10.8132541"><ele>226.0</ele><time>2026-04-26T07:53:13.061Z</time></trkpt><trkpt lat="45.592302" lon="10.8133831"><ele>226.0</ele><time>2026-04-26T07:53:14.06Z</time></trkpt><trkpt lat="45.5921438" lon="10.8135197"><ele>226.0</ele><time>2026-04-26T07:53:15.061Z</time></trkpt><trkpt lat="45.5919778" lon="10.8136526"><ele>224.33333333333331</ele><time>2026-04-26T07:53:16.061Z</time></trkpt><trkpt lat="45.591815" lon="10.8137711"><ele>222.66666666666669</ele><time>2026-04-26T07:53:17.06Z</time></trkpt><trkpt lat="45.5916633" lon="10.813882"><ele>221.0</ele><time>2026-04-26T07:53:18.061Z</time></trkpt><trkpt lat="45.5915083" lon="10.8139658"><ele>221.0</ele><time>2026-04-26T07:53:19.06Z</time></trkpt><trkpt lat="45.5913464" lon="10.8140186"><ele>221.0</ele><time>2026-04-26T07:53:20.06Z</time></trkpt><trkpt lat="45.5911681" lon="10.8140344"><ele>221.0</ele><time>2026-04-26T07:53:21.061Z</time></trkpt><trkpt lat="45.5909831" lon="10.8140103"><ele>219.66666666666669</ele><time>2026-04-26T07:53:22.06Z</time></trkpt><trkpt lat="45.5908003" lon="10.8139643"><ele>218.33333333333331</ele><time>2026-04-26T07:53:23.061Z</time></trkpt><trkpt lat="45.5906152" lon="10.8139223"><ele>217.0</ele><time>2026-04-26T07:53:24.06Z</time></trkpt><trkpt lat="45.5904348" lon="10.8138819"><ele>215.0</ele><time>2026-04-26T07:53:25.061Z</time></trkpt><trkpt lat="45.5902589" lon="10.813845"><ele>213.0</ele><time>2026-04-26T07:53:26.06Z</time></trkpt><trkpt lat="45.5900934" lon="10.8137953"><ele>211.0</ele><time>2026-04-26T07:53:27.06Z</time></trkpt><trkpt lat="45.589931" lon="10.8137346"><ele>211.0</ele><time>2026-04-26T07:53:28.06Z</time></trkpt><trkpt lat="45.5897679" lon="10.8136593"><ele>211.0</ele><time>2026-04-26T07:53:29.061Z</time></trkpt><trkpt lat="45.58961" lon="10.8135758"><ele>211.0</ele><time>2026-04-26T07:53:30.061Z</time></trkpt><trkpt lat="45.5894483" lon="10.8134932"><ele>211.0</ele><time>2026-04-26T07:53:31.06Z</time></trkpt><trkpt lat="45.5892874" lon="10.813413"><ele>211.0</ele><time>2026-04-26T07:53:32.06Z</time></trkpt><trkpt lat="45.5891344" lon="10.8133409"><ele>211.0</ele><time>2026-04-26T07:53:33.061Z</time></trkpt><trkpt lat="45.588996" lon="10.8132618"><ele>211.0</ele><time>2026-04-26T07:53:34.06Z</time></trkpt><trkpt lat="45.5888669" lon="10.8131802"><ele>211.0</ele><time>2026-04-26T07:53:35.061Z</time></trkpt><trkpt lat="45.5887491" lon="10.8131093"><ele>211.0</ele><time>2026-04-26T07:53:36.06Z</time></trkpt><trkpt lat="45.5886373" lon="10.8130517"><ele>211.0</ele><time>2026-04-26T07:53:37.06Z</time></trkpt><trkpt lat="45.5885341" lon="10.8129976"><ele>210.66666666666666</ele><time>2026-04-26T07:53:38.061Z</time></trkpt><trkpt lat="45.5884458" lon="10.8129542"><ele>210.33333333333331</ele><time>2026-04-26T07:53:39.06Z</time></trkpt><trkpt lat="45.5883786" lon="10.8129191"><ele>210.0</ele><time>2026-04-26T07:53:40.061Z</time></trkpt><trkpt lat="45.5883134" lon="10.8128827"><ele>209.66666666666669</ele><time>2026-04-26T07:53:42.06Z</time></trkpt><trkpt lat="45.588247" lon="10.8129621"><ele>209.33333333333334</ele><time>2026-04-26T07:53:47.06Z</time></trkpt><trkpt lat="45.5882663" lon="10.813136"><ele>209.0</ele><time>2026-04-26T07:53:49.061Z</time></trkpt><trkpt lat="45.5882992" lon="10.8132667"><ele>209.0</ele><time>2026-04-26T07:53:50.061Z</time></trkpt><trkpt lat="45.5883403" lon="10.8133949"><ele>209.0</ele><time>2026-04-26T07:53:51.061Z</time></trkpt><trkpt lat="45.5884051" lon="10.81353"><ele>209.0</ele><time>2026-04-26T07:53:52.061Z</time></trkpt><trkpt lat="45.5884979" lon="10.8136521"><ele>209.0</ele><time>2026-04-26T07:53:53.061Z</time></trkpt><trkpt lat="45.5886009" lon="10.8137657"><ele>209.25</ele><time>2026-04-26T07:53:54.061Z</time></trkpt><trkpt lat="45.5887132" lon="10.8138806"><ele>209.5</ele><time>2026-04-26T07:53:55.06Z</time></trkpt><trkpt lat="45.5888215" lon="10.8139908"><ele>209.75</ele><time>2026-04-26T07:53:56.061Z</time></trkpt><trkpt lat="45.5889276" lon="10.8141114"><ele>210.0</ele><time>2026-04-26T07:53:57.06Z</time></trkpt><trkpt lat="45.5890254" lon="10.8142483"><ele>208.0</ele><time>2026-04-26T07:53:58.06Z</time></trkpt><trkpt lat="45.5891219" lon="10.8143873"><ele>206.0</ele><time>2026-04-26T07:53:59.06Z</time></trkpt><trkpt lat="45.5892166" lon="10.8145407"><ele>204.0</ele><time>2026-04-26T07:54:00.06Z</time></trkpt><trkpt lat="45.5893099" lon="10.8146889"><ele>202.0</ele><time>2026-04-26T07:54:01.061Z</time></trkpt><trkpt lat="45.5894002" lon="10.8148248"><ele>202.0</ele><time>2026-04-26T07:54:02.061Z</time></trkpt><trkpt lat="45.5894883" lon="10.8149582"><ele>202.0</ele><time>2026-04-26T07:54:03.061Z</time></trkpt><trkpt lat="45.5895689" lon="10.8150794"><ele>202.0</ele><time>2026-04-26T07:54:04.06Z</time></trkpt><trkpt lat="45.5896497" lon="10.8152132"><ele>202.0</ele><time>2026-04-26T07:54:05.06Z</time></trkpt><trkpt lat="45.5897325" lon="10.815351"><ele>204.0</ele><time>2026-04-26T07:54:06.06Z</time></trkpt><trkpt lat="45.5898186" lon="10.8154983"><ele>206.0</ele><time>2026-04-26T07:54:07.061Z</time></trkpt><trkpt lat="45.5899091" lon="10.8156441"><ele>208.0</ele><time>2026-04-26T07:54:08.06Z</time></trkpt><trkpt lat="45.5899933" lon="10.8157853"><ele>210.0</ele><time>2026-04-26T07:54:09.061Z</time></trkpt><trkpt lat="45.5900791" lon="10.8159271"><ele>209.75</ele><time>2026-04-26T07:54:10.06Z</time></trkpt><trkpt lat="45.5901603" lon="10.8160575"><ele>209.5</ele><time>2026-04-26T07:54:11.061Z</time></trkpt><trkpt lat="45.5902427" lon="10.8161924"><ele>209.25</ele><time>2026-04-26T07:54:12.06Z</time></trkpt><trkpt lat="45.5903269" lon="10.8163168"><ele>209.0</ele><time>2026-04-26T07:54:13.061Z</time></trkpt><trkpt lat="45.5904139" lon="10.8164454"><ele>211.0</ele><time>2026-04-26T07:54:14.061Z</time></trkpt><trkpt lat="45.5904953" lon="10.8165865"><ele>213.0</ele><time>2026-04-26T07:54:15.06Z</time></trkpt><trkpt lat="45.5905743" lon="10.8167278"><ele>215.0</ele><time>2026-04-26T07:54:16.06Z</time></trkpt><trkpt lat="45.5906526" lon="10.8168761"><ele>217.0</ele><time>2026-04-26T07:54:17.061Z</time></trkpt><trkpt lat="45.5907292" lon="10.8170227"><ele>217.0</ele><time>2026-04-26T07:54:18.06Z</time></trkpt><trkpt lat="45.5908023" lon="10.8171674"><ele>217.0</ele><time>2026-04-26T07:54:19.061Z</time></trkpt><trkpt lat="45.5908648" lon="10.8173067"><ele>217.0</ele><time>2026-04-26T07:54:20.06Z</time></trkpt><trkpt lat="45.5909145" lon="10.8174373"><ele>217.0</ele><time>2026-04-26T07:54:21.061Z</time></trkpt><trkpt lat="45.5909547" lon="10.8175552"><ele>217.0</ele><time>2026-04-26T07:54:22.06Z</time></trkpt><trkpt lat="45.5909808" lon="10.817659"><ele>216.6</ele><time>2026-04-26T07:54:23.061Z</time></trkpt><trkpt lat="45.5909919" lon="10.8177694"><ele>216.2</ele><time>2026-04-26T07:54:24.06Z</time></trkpt><trkpt lat="45.5909877" lon="10.8178915"><ele>215.8</ele><time>2026-04-26T07:54:25.061Z</time></trkpt><trkpt lat="45.5909603" lon="10.8180295"><ele>215.4</ele><time>2026-04-26T07:54:26.06Z</time></trkpt><trkpt lat="45.5909191" lon="10.8181879"><ele>215.0</ele><time>2026-04-26T07:54:27.06Z</time></trkpt><trkpt lat="45.5908719" lon="10.8183561"><ele>215.5</ele><time>2026-04-26T07:54:28.061Z</time></trkpt><trkpt lat="45.5908212" lon="10.8185286"><ele>216.0</ele><time>2026-04-26T07:54:29.061Z</time></trkpt><trkpt lat="45.5907686" lon="10.8187026"><ele>216.5</ele><time>2026-04-26T07:54:30.06Z</time></trkpt><trkpt lat="45.5907223" lon="10.8188602"><ele>217.0</ele><time>2026-04-26T07:54:31.061Z</time></trkpt><trkpt lat="45.5906796" lon="10.8190118"><ele>217.0</ele><time>2026-04-26T07:54:32.06Z</time></trkpt><trkpt lat="45.5906465" lon="10.8191729"><ele>217.0</ele><time>2026-04-26T07:54:33.061Z</time></trkpt><trkpt lat="45.5906122" lon="10.8193251"><ele>217.0</ele><time>2026-04-26T07:54:34.06Z</time></trkpt><trkpt lat="45.5905826" lon="10.8194706"><ele>217.0</ele><time>2026-04-26T07:54:35.061Z</time></trkpt><trkpt lat="45.5905586" lon="10.8196089"><ele>217.0</ele><time>2026-04-26T07:54:36.06Z</time></trkpt><trkpt lat="45.5905393" lon="10.8197422"><ele>217.2</ele><time>2026-04-26T07:54:37.061Z</time></trkpt><trkpt lat="45.5905266" lon="10.8198798"><ele>217.39999999999998</ele><time>2026-04-26T07:54:38.061Z</time></trkpt><trkpt lat="45.5905195" lon="10.8200213"><ele>217.60000000000002</ele><time>2026-04-26T07:54:39.061Z</time></trkpt><trkpt lat="45.5905038" lon="10.8201599"><ele>217.8</ele><time>2026-04-26T07:54:40.061Z</time></trkpt><trkpt lat="45.5904741" lon="10.8203024"><ele>218.0</ele><time>2026-04-26T07:54:41.061Z</time></trkpt><trkpt lat="45.590425" lon="10.8204446"><ele>218.25</ele><time>2026-04-26T07:54:42.06Z</time></trkpt><trkpt lat="45.5903636" lon="10.8205827"><ele>218.5</ele><time>2026-04-26T07:54:43.06Z</time></trkpt><trkpt lat="45.5902971" lon="10.8207259"><ele>218.75</ele><time>2026-04-26T07:54:44.061Z</time></trkpt><trkpt lat="45.5902273" lon="10.8208674"><ele>219.0</ele><time>2026-04-26T07:54:45.061Z</time></trkpt><trkpt lat="45.5901634" lon="10.8210002"><ele>219.83333333333334</ele><time>2026-04-26T07:54:46.061Z</time></trkpt><trkpt lat="45.590098" lon="10.8211175"><ele>220.66666666666669</ele><time>2026-04-26T07:54:47.061Z</time></trkpt><trkpt lat="45.5900356" lon="10.8212174"><ele>221.5</ele><time>2026-04-26T07:54:48.061Z</time></trkpt><trkpt lat="45.5899735" lon="10.821316"><ele>222.33333333333334</ele><time>2026-04-26T07:54:49.06Z</time></trkpt><trkpt lat="45.5899204" lon="10.8214022"><ele>223.16666666666669</ele><time>2026-04-26T07:54:50.06Z</time></trkpt><trkpt lat="45.5898786" lon="10.8214772"><ele>224.0</ele><time>2026-04-26T07:54:51.06Z</time></trkpt><trkpt lat="45.5898052" lon="10.8215726"><ele>224.00000000000003</ele><time>2026-04-26T07:54:53.061Z</time></trkpt><trkpt lat="45.5896953" lon="10.8215858"><ele>224.0</ele><time>2026-04-26T07:54:55.061Z</time></trkpt><trkpt lat="45.5896279" lon="10.8215771"><ele>224.0</ele><time>2026-04-26T07:54:56.061Z</time></trkpt><trkpt lat="45.5895612" lon="10.8215761"><ele>224.0</ele><time>2026-04-26T07:54:57.061Z</time></trkpt><trkpt lat="45.5894983" lon="10.8215809"><ele>224.00000000000003</ele><time>2026-04-26T07:54:58.06Z</time></trkpt><trkpt lat="45.5893792" lon="10.8216009"><ele>224.0</ele><time>2026-04-26T07:55:00.061Z</time></trkpt><trkpt lat="45.5892712" lon="10.8216199"><ele>223.66666666666669</ele><time>2026-04-26T07:55:02.06Z</time></trkpt><trkpt lat="45.5891597" lon="10.8216346"><ele>223.33333333333334</ele><time>2026-04-26T07:55:04.061Z</time></trkpt><trkpt lat="45.5890945" lon="10.8216474"><ele>223.0</ele><time>2026-04-26T07:55:05.06Z</time></trkpt><trkpt lat="45.5890212" lon="10.8216711"><ele>222.66666666666669</ele><time>2026-04-26T07:55:06.06Z</time></trkpt><trkpt lat="45.5889508" lon="10.8216876"><ele>222.33333333333334</ele><time>2026-04-26T07:55:07.06Z</time></trkpt><trkpt lat="45.588874" lon="10.8217051"><ele>222.0</ele><time>2026-04-26T07:55:08.061Z</time></trkpt><trkpt lat="45.5887993" lon="10.8217169"><ele>222.0</ele><time>2026-04-26T07:55:09.06Z</time></trkpt><trkpt lat="45.5887189" lon="10.8217284"><ele>222.0</ele><time>2026-04-26T07:55:10.06Z</time></trkpt><trkpt lat="45.588632" lon="10.8217386"><ele>222.0</ele><time>2026-04-26T07:55:11.06Z</time></trkpt><trkpt lat="45.5885487" lon="10.8217505"><ele>222.0</ele><time>2026-04-26T07:55:12.061Z</time></trkpt><trkpt lat="45.5884792" lon="10.8217559"><ele>222.0</ele><time>2026-04-26T07:55:13.06Z</time></trkpt><trkpt lat="45.5884151" lon="10.8217522"><ele>222.0</ele><time>2026-04-26T07:55:14.06Z</time></trkpt><trkpt lat="45.5883006" lon="10.821724"><ele>221.33333333333334</ele><time>2026-04-26T07:55:16.059Z</time></trkpt><trkpt lat="45.5882331" lon="10.8217092"><ele>220.66666666666669</ele><time>2026-04-26T07:55:17.059Z</time></trkpt><trkpt lat="45.5881652" lon="10.8216927"><ele>220.0</ele><time>2026-04-26T07:55:18.06Z</time></trkpt><trkpt lat="45.5880963" lon="10.8216692"><ele>219.33333333333334</ele><time>2026-04-26T07:55:19.06Z</time></trkpt><trkpt lat="45.5880311" lon="10.8216429"><ele>218.66666666666669</ele><time>2026-04-26T07:55:20.06Z</time></trkpt><trkpt lat="45.5879062" lon="10.8215889"><ele>218.0</ele><time>2026-04-26T07:55:22.06Z</time></trkpt><trkpt lat="45.5878293" lon="10.8215752"><ele>217.50000000000003</ele><time>2026-04-26T07:55:23.059Z</time></trkpt><trkpt lat="45.5877533" lon="10.8215669"><ele>217.0</ele><time>2026-04-26T07:55:24.06Z</time></trkpt><trkpt lat="45.5876842" lon="10.8215628"><ele>216.5</ele><time>2026-04-26T07:55:25.059Z</time></trkpt><trkpt lat="45.5876198" lon="10.8215543"><ele>216.0</ele><time>2026-04-26T07:55:26.06Z</time></trkpt><trkpt lat="45.587519" lon="10.8215333"><ele>215.50000000000003</ele><time>2026-04-26T07:55:28.059Z</time></trkpt><trkpt lat="45.5874387" lon="10.821523"><ele>215.0</ele><time>2026-04-26T07:55:31.059Z</time></trkpt><trkpt lat="45.5873557" lon="10.821524"><ele>215.0</ele><time>2026-04-26T07:55:34.06Z</time></trkpt><trkpt lat="45.5873374" lon="10.821421"><ele>215.0</ele><time>2026-04-26T07:55:37.059Z</time></trkpt><trkpt lat="45.5873231" lon="10.8212951"><ele>215.0</ele><time>2026-04-26T07:55:39.06Z</time></trkpt><trkpt lat="45.5872647" lon="10.8212015"><ele>215.0</ele><time>2026-04-26T07:55:41.06Z</time></trkpt><trkpt lat="45.587167" lon="10.8211563"><ele>215.0</ele><time>2026-04-26T07:55:43.059Z</time></trkpt><trkpt lat="45.5870651" lon="10.8211236"><ele>213.8</ele><time>2026-04-26T07:55:45.059Z</time></trkpt><trkpt lat="45.5869576" lon="10.8210599"><ele>212.6</ele><time>2026-04-26T07:55:47.06Z</time></trkpt><trkpt lat="45.5868519" lon="10.8209875"><ele>211.39999999999998</ele><time>2026-04-26T07:55:49.06Z</time></trkpt><trkpt lat="45.5867832" lon="10.8208894"><ele>210.2</ele><time>2026-04-26T07:55:51.059Z</time></trkpt><trkpt lat="45.5867686" lon="10.82075"><ele>209.0</ele><time>2026-04-26T07:55:53.06Z</time></trkpt><trkpt lat="45.5868215" lon="10.8206523"><ele>208.79999999999998</ele><time>2026-04-26T07:55:55.059Z</time></trkpt><trkpt lat="45.5869152" lon="10.8206167"><ele>208.6</ele><time>2026-04-26T07:55:57.059Z</time></trkpt><trkpt lat="45.5870239" lon="10.8205898"><ele>208.4</ele><time>2026-04-26T07:55:59.059Z</time></trkpt><trkpt lat="45.5870922" lon="10.8205415"><ele>208.2</ele><time>2026-04-26T07:56:01.059Z</time></trkpt><trkpt lat="45.5870919" lon="10.8204197"><ele>208.0</ele><time>2026-04-26T07:56:05.06Z</time></trkpt><trkpt lat="45.5870157" lon="10.8203148"><ele>206.4</ele><time>2026-04-26T07:56:08.06Z</time></trkpt><trkpt lat="45.5869299" lon="10.8202473"><ele>204.8</ele><time>2026-04-26T07:56:10.06Z</time></trkpt><trkpt lat="45.5868389" lon="10.8201821"><ele>203.2</ele><time>2026-04-26T07:56:12.059Z</time></trkpt><trkpt lat="45.5867957" lon="10.8200809"><ele>201.6</ele><time>2026-04-26T07:56:14.059Z</time></trkpt><trkpt lat="45.5867929" lon="10.8199105"><ele>200.0</ele><time>2026-04-26T07:56:16.06Z</time></trkpt><trkpt lat="45.5867953" lon="10.8197906"><ele>199.33333333333334</ele><time>2026-04-26T07:56:17.06Z</time></trkpt><trkpt lat="45.5867934" lon="10.8196684"><ele>198.66666666666669</ele><time>2026-04-26T07:56:18.06Z</time></trkpt><trkpt lat="45.5867913" lon="10.8195483"><ele>198.0</ele><time>2026-04-26T07:56:19.06Z</time></trkpt><trkpt lat="45.58679" lon="10.8194417"><ele>197.33333333333331</ele><time>2026-04-26T07:56:20.059Z</time></trkpt><trkpt lat="45.5867921" lon="10.8193428"><ele>196.66666666666666</ele><time>2026-04-26T07:56:21.059Z</time></trkpt><trkpt lat="45.5867965" lon="10.8192507"><ele>196.0</ele><time>2026-04-26T07:56:22.06Z</time></trkpt><trkpt lat="45.5868011" lon="10.8190881"><ele>195.66666666666666</ele><time>2026-04-26T07:56:24.06Z</time></trkpt><trkpt lat="45.5868018" lon="10.8189145"><ele>195.33333333333331</ele><time>2026-04-26T07:56:26.059Z</time></trkpt><trkpt lat="45.586803" lon="10.8188235"><ele>195.0</ele><time>2026-04-26T07:56:27.06Z</time></trkpt><trkpt lat="45.5867972" lon="10.8187295"><ele>194.66666666666669</ele><time>2026-04-26T07:56:28.06Z</time></trkpt><trkpt lat="45.5867929" lon="10.8186262"><ele>194.33333333333334</ele><time>2026-04-26T07:56:29.059Z</time></trkpt><trkpt lat="45.5867891" lon="10.8185292"><ele>194.0</ele><time>2026-04-26T07:56:30.059Z</time></trkpt><trkpt lat="45.5867831" lon="10.8183608"><ele>194.00000000000003</ele><time>2026-04-26T07:56:32.06Z</time></trkpt><trkpt lat="45.5867709" lon="10.8182082"><ele>194.0</ele><time>2026-04-26T07:56:34.06Z</time></trkpt><trkpt lat="45.5867521" lon="10.8180936"><ele>194.0</ele><time>2026-04-26T07:56:36.06Z</time></trkpt><trkpt lat="45.5867312" lon="10.8179884"><ele>194.0</ele><time>2026-04-26T07:56:38.059Z</time></trkpt><trkpt lat="45.5866858" lon="10.8178414"><ele>194.00000000000003</ele><time>2026-04-26T07:56:40.059Z</time></trkpt><trkpt lat="45.586666" lon="10.8177455"><ele>194.0</ele><time>2026-04-26T07:56:41.059Z</time></trkpt><trkpt lat="45.5866523" lon="10.8176374"><ele>193.83333333333334</ele><time>2026-04-26T07:56:42.06Z</time></trkpt><trkpt lat="45.586648" lon="10.8175107"><ele>193.66666666666669</ele><time>2026-04-26T07:56:43.059Z</time></trkpt><trkpt lat="45.5866578" lon="10.8173872"><ele>193.5</ele><time>2026-04-26T07:56:44.059Z</time></trkpt><trkpt lat="45.5866683" lon="10.8172771"><ele>193.33333333333331</ele><time>2026-04-26T07:56:45.059Z</time></trkpt><trkpt lat="45.5866755" lon="10.8171676"><ele>193.16666666666666</ele><time>2026-04-26T07:56:46.06Z</time></trkpt><trkpt lat="45.586675" lon="10.8170635"><ele>193.0</ele><time>2026-04-26T07:56:47.06Z</time></trkpt><trkpt lat="45.5866569" lon="10.8169718"><ele>193.0</ele><time>2026-04-26T07:56:48.06Z</time></trkpt><trkpt lat="45.5866211" lon="10.8168722"><ele>193.0</ele><time>2026-04-26T07:56:49.06Z</time></trkpt><trkpt lat="45.5865661" lon="10.8167584"><ele>193.0</ele><time>2026-04-26T07:56:50.059Z</time></trkpt><trkpt lat="45.586489" lon="10.8166241"><ele>193.0</ele><time>2026-04-26T07:56:51.06Z</time></trkpt><trkpt lat="45.5863969" lon="10.8164765"><ele>193.0</ele><time>2026-04-26T07:56:52.06Z</time></trkpt><trkpt lat="45.5863007" lon="10.8163257"><ele>192.25</ele><time>2026-04-26T07:56:53.059Z</time></trkpt><trkpt lat="45.5862044" lon="10.8161746"><ele>191.5</ele><time>2026-04-26T07:56:54.06Z</time></trkpt><trkpt lat="45.5861113" lon="10.8160192"><ele>190.75</ele><time>2026-04-26T07:56:55.059Z</time></trkpt><trkpt lat="45.5860198" lon="10.8158619"><ele>190.0</ele><time>2026-04-26T07:56:56.06Z</time></trkpt><trkpt lat="45.5859237" lon="10.8157027"><ele>189.25</ele><time>2026-04-26T07:56:57.06Z</time></trkpt><trkpt lat="45.5858228" lon="10.8155492"><ele>188.5</ele><time>2026-04-26T07:56:58.059Z</time></trkpt><trkpt lat="45.5857259" lon="10.815399"><ele>187.75</ele><time>2026-04-26T07:56:59.06Z</time></trkpt><trkpt lat="45.5856322" lon="10.8152466"><ele>187.0</ele><time>2026-04-26T07:57:00.059Z</time></trkpt><trkpt lat="45.5855387" lon="10.8150974"><ele>187.0</ele><time>2026-04-26T07:57:01.06Z</time></trkpt><trkpt lat="45.5854414" lon="10.8149475"><ele>187.0</ele><time>2026-04-26T07:57:02.06Z</time></trkpt><trkpt lat="45.5853478" lon="10.8148047"><ele>187.0</ele><time>2026-04-26T07:57:03.06Z</time></trkpt><trkpt lat="45.585256" lon="10.8146672"><ele>187.0</ele><time>2026-04-26T07:57:04.059Z</time></trkpt><trkpt lat="45.5851622" lon="10.8145263"><ele>186.6</ele><time>2026-04-26T07:57:05.06Z</time></trkpt><trkpt lat="45.5850808" lon="10.8143832"><ele>186.2</ele><time>2026-04-26T07:57:06.059Z</time></trkpt><trkpt lat="45.5850165" lon="10.8142596"><ele>185.8</ele><time>2026-04-26T07:57:07.059Z</time></trkpt><trkpt lat="45.5849557" lon="10.8141492"><ele>185.4</ele><time>2026-04-26T07:57:08.059Z</time></trkpt><trkpt lat="45.5849061" lon="10.8140606"><ele>185.0</ele><time>2026-04-26T07:57:09.06Z</time></trkpt><trkpt lat="45.584869" lon="10.8139874"><ele>185.0</ele><time>2026-04-26T07:57:10.06Z</time></trkpt><trkpt lat="45.584813" lon="10.8139266"><ele>185.0</ele><time>2026-04-26T07:57:12.059Z</time></trkpt><trkpt lat="45.5848209" lon="10.8140707"><ele>185.0</ele><time>2026-04-26T07:57:22.059Z</time></trkpt><trkpt lat="45.5848343" lon="10.8141696"><ele>185.0</ele><time>2026-04-26T07:57:23.059Z</time></trkpt><trkpt lat="45.5848627" lon="10.8143066"><ele>185.0</ele><time>2026-04-26T07:57:24.06Z</time></trkpt><trkpt lat="45.5848987" lon="10.814481"><ele>184.0</ele><time>2026-04-26T07:57:25.059Z</time></trkpt><trkpt lat="45.5849376" lon="10.8146683"><ele>183.0</ele><time>2026-04-26T07:57:26.06Z</time></trkpt><trkpt lat="45.5849619" lon="10.8148539"><ele>182.0</ele><time>2026-04-26T07:57:27.06Z</time></trkpt><trkpt lat="45.5849656" lon="10.8150532"><ele>181.0</ele><time>2026-04-26T07:57:28.059Z</time></trkpt><trkpt lat="45.5849451" lon="10.8152584"><ele>181.0</ele><time>2026-04-26T07:57:29.06Z</time></trkpt><trkpt lat="45.584909" lon="10.8154755"><ele>181.0</ele><time>2026-04-26T07:57:30.059Z</time></trkpt><trkpt lat="45.5848648" lon="10.8156881"><ele>181.0</ele><time>2026-04-26T07:57:31.059Z</time></trkpt><trkpt lat="45.5848155" lon="10.8158885"><ele>182.25</ele><time>2026-04-26T07:57:32.06Z</time></trkpt><trkpt lat="45.5847481" lon="10.8160757"><ele>183.5</ele><time>2026-04-26T07:57:33.059Z</time></trkpt><trkpt lat="45.5846644" lon="10.8162491"><ele>184.75</ele><time>2026-04-26T07:57:34.06Z</time></trkpt><trkpt lat="45.5845643" lon="10.8164075"><ele>186.0</ele><time>2026-04-26T07:57:35.06Z</time></trkpt><trkpt lat="45.5844688" lon="10.8165641"><ele>182.75</ele><time>2026-04-26T07:57:36.06Z</time></trkpt><trkpt lat="45.5843816" lon="10.8167205"><ele>179.5</ele><time>2026-04-26T07:57:37.06Z</time></trkpt><trkpt lat="45.5842825" lon="10.8168753"><ele>176.25</ele><time>2026-04-26T07:57:38.06Z</time></trkpt><trkpt lat="45.5842102" lon="10.817034"><ele>173.0</ele><time>2026-04-26T07:57:39.06Z</time></trkpt><trkpt lat="45.5841646" lon="10.8171959"><ele>173.0</ele><time>2026-04-26T07:57:40.059Z</time></trkpt><trkpt lat="45.5841444" lon="10.8173776"><ele>173.0</ele><time>2026-04-26T07:57:41.06Z</time></trkpt><trkpt lat="45.5841371" lon="10.8175605"><ele>173.0</ele><time>2026-04-26T07:57:42.059Z</time></trkpt><trkpt lat="45.5841477" lon="10.8177688"><ele>173.0</ele><time>2026-04-26T07:57:43.059Z</time></trkpt><trkpt lat="45.584159" lon="10.8179701"><ele>171.75</ele><time>2026-04-26T07:57:44.06Z</time></trkpt><trkpt lat="45.584158" lon="10.8181717"><ele>170.5</ele><time>2026-04-26T07:57:45.06Z</time></trkpt><trkpt lat="45.5841505" lon="10.8183729"><ele>169.25</ele><time>2026-04-26T07:57:46.06Z</time></trkpt><trkpt lat="45.5841349" lon="10.8185713"><ele>168.0</ele><time>2026-04-26T07:57:47.06Z</time></trkpt><trkpt lat="45.5841208" lon="10.81877"><ele>167.25</ele><time>2026-04-26T07:57:48.059Z</time></trkpt><trkpt lat="45.5841178" lon="10.8189593"><ele>166.5</ele><time>2026-04-26T07:57:49.06Z</time></trkpt><trkpt lat="45.5841281" lon="10.8191489"><ele>165.75</ele><time>2026-04-26T07:57:50.059Z</time></trkpt><trkpt lat="45.5841543" lon="10.8193327"><ele>165.0</ele><time>2026-04-26T07:57:51.06Z</time></trkpt><trkpt lat="45.5841896" lon="10.8195059"><ele>164.2</ele><time>2026-04-26T07:57:52.059Z</time></trkpt><trkpt lat="45.58422" lon="10.8196658"><ele>163.4</ele><time>2026-04-26T07:57:53.06Z</time></trkpt><trkpt lat="45.5842428" lon="10.8198242"><ele>162.60000000000002</ele><time>2026-04-26T07:57:54.06Z</time></trkpt><trkpt lat="45.5842711" lon="10.8199736"><ele>161.8</ele><time>2026-04-26T07:57:55.06Z</time></trkpt><trkpt lat="45.5842852" lon="10.8201047"><ele>161.0</ele><time>2026-04-26T07:57:56.06Z</time></trkpt><trkpt lat="45.5842776" lon="10.8202153"><ele>161.0</ele><time>2026-04-26T07:57:57.06Z</time></trkpt><trkpt lat="45.5842345" lon="10.8202938"><ele>161.0</ele><time>2026-04-26T07:57:58.06Z</time></trkpt><trkpt lat="45.5841734" lon="10.8203293"><ele>161.0</ele><time>2026-04-26T07:57:59.06Z</time></trkpt><trkpt lat="45.5840948" lon="10.820296"><ele>161.0</ele><time>2026-04-26T07:58:00.06Z</time></trkpt><trkpt lat="45.5840122" lon="10.820185"><ele>161.0</ele><time>2026-04-26T07:58:01.06Z</time></trkpt><trkpt lat="45.5839334" lon="10.8200354"><ele>161.0</ele><time>2026-04-26T07:58:02.059Z</time></trkpt><trkpt lat="45.5838601" lon="10.8198679"><ele>161.0</ele><time>2026-04-26T07:58:03.06Z</time></trkpt><trkpt lat="45.583794" lon="10.8196947"><ele>161.0</ele><time>2026-04-26T07:58:04.06Z</time></trkpt><trkpt lat="45.5837436" lon="10.8195166"><ele>161.0</ele><time>2026-04-26T07:58:05.059Z</time></trkpt><trkpt lat="45.5837065" lon="10.8193442"><ele>157.25</ele><time>2026-04-26T07:58:06.059Z</time></trkpt><trkpt lat="45.5836787" lon="10.8191803"><ele>153.5</ele><time>2026-04-26T07:58:07.059Z</time></trkpt><trkpt lat="45.5836571" lon="10.8190223"><ele>149.75</ele><time>2026-04-26T07:58:08.06Z</time></trkpt><trkpt lat="45.5836413" lon="10.8188653"><ele>146.0</ele><time>2026-04-26T07:58:09.059Z</time></trkpt><trkpt lat="45.5836158" lon="10.818707"><ele>146.0</ele><time>2026-04-26T07:58:10.06Z</time></trkpt><trkpt lat="45.5835747" lon="10.8185739"><ele>146.0</ele><time>2026-04-26T07:58:11.06Z</time></trkpt><trkpt lat="45.5835182" lon="10.8184698"><ele>146.0</ele><time>2026-04-26T07:58:12.06Z</time></trkpt><trkpt lat="45.5834462" lon="10.8184301"><ele>146.0</ele><time>2026-04-26T07:58:13.06Z</time></trkpt><trkpt lat="45.5833615" lon="10.8184551"><ele>146.0</ele><time>2026-04-26T07:58:14.06Z</time></trkpt><trkpt lat="45.5832836" lon="10.8185114"><ele>146.0</ele><time>2026-04-26T07:58:15.06Z</time></trkpt><trkpt lat="45.5832268" lon="10.8186133"><ele>146.0</ele><time>2026-04-26T07:58:16.059Z</time></trkpt><trkpt lat="45.5832102" lon="10.8187432"><ele>146.0</ele><time>2026-04-26T07:58:17.059Z</time></trkpt><trkpt lat="45.5832294" lon="10.8188955"><ele>146.0</ele><time>2026-04-26T07:58:18.06Z</time></trkpt><trkpt lat="45.5832591" lon="10.819058"><ele>146.0</ele><time>2026-04-26T07:58:19.06Z</time></trkpt><trkpt lat="45.5832859" lon="10.8192253"><ele>146.0</ele><time>2026-04-26T07:58:20.059Z</time></trkpt><trkpt lat="45.5832939" lon="10.8194002"><ele>144.25</ele><time>2026-04-26T07:58:21.06Z</time></trkpt><trkpt lat="45.5832753" lon="10.8195702"><ele>142.5</ele><time>2026-04-26T07:58:22.06Z</time></trkpt><trkpt lat="45.5832402" lon="10.8197362"><ele>140.75</ele><time>2026-04-26T07:58:23.06Z</time></trkpt><trkpt lat="45.5831703" lon="10.8198831"><ele>139.0</ele><time>2026-04-26T07:58:24.06Z</time></trkpt><trkpt lat="45.583089" lon="10.820015"><ele>139.0</ele><time>2026-04-26T07:58:25.06Z</time></trkpt><trkpt lat="45.5830038" lon="10.8201302"><ele>139.0</ele><time>2026-04-26T07:58:26.059Z</time></trkpt><trkpt lat="45.5829347" lon="10.8202475"><ele>139.0</ele><time>2026-04-26T07:58:27.06Z</time></trkpt><trkpt lat="45.5828763" lon="10.820385"><ele>139.0</ele><time>2026-04-26T07:58:28.06Z</time></trkpt><trkpt lat="45.5828428" lon="10.8205455"><ele>137.0</ele><time>2026-04-26T07:58:29.059Z</time></trkpt><trkpt lat="45.5828288" lon="10.8207275"><ele>135.0</ele><time>2026-04-26T07:58:30.06Z</time></trkpt><trkpt lat="45.5828302" lon="10.8209188"><ele>133.0</ele><time>2026-04-26T07:58:31.06Z</time></trkpt><trkpt lat="45.5828533" lon="10.8211299"><ele>131.0</ele><time>2026-04-26T07:58:32.06Z</time></trkpt><trkpt lat="45.5828873" lon="10.8213513"><ele>130.33333333333331</ele><time>2026-04-26T07:58:33.059Z</time></trkpt><trkpt lat="45.582932" lon="10.8215827"><ele>129.66666666666666</ele><time>2026-04-26T07:58:34.06Z</time></trkpt><trkpt lat="45.5829799" lon="10.8218046"><ele>129.0</ele><time>2026-04-26T07:58:35.06Z</time></trkpt><trkpt lat="45.5830261" lon="10.822032"><ele>127.0</ele><time>2026-04-26T07:58:36.058Z</time></trkpt><trkpt lat="45.5830699" lon="10.8222634"><ele>125.0</ele><time>2026-04-26T07:58:37.059Z</time></trkpt><trkpt lat="45.583109" lon="10.8224863"><ele>123.0</ele><time>2026-04-26T07:58:38.058Z</time></trkpt><trkpt lat="45.5831449" lon="10.8226977"><ele>122.25</ele><time>2026-04-26T07:58:39.058Z</time></trkpt><trkpt lat="45.5831728" lon="10.8229069"><ele>121.5</ele><time>2026-04-26T07:58:40.059Z</time></trkpt><trkpt lat="45.5831998" lon="10.8230914"><ele>120.75</ele><time>2026-04-26T07:58:41.058Z</time></trkpt><trkpt lat="45.5832425" lon="10.8232678"><ele>120.0</ele><time>2026-04-26T07:58:42.058Z</time></trkpt><trkpt lat="45.5833035" lon="10.8234013"><ele>117.75</ele><time>2026-04-26T07:58:43.058Z</time></trkpt><trkpt lat="45.5833968" lon="10.8234906"><ele>115.5</ele><time>2026-04-26T07:58:44.059Z</time></trkpt><trkpt lat="45.5835118" lon="10.8235605"><ele>113.25</ele><time>2026-04-26T07:58:45.058Z</time></trkpt><trkpt lat="45.5836504" lon="10.8235983"><ele>111.0</ele><time>2026-04-26T07:58:46.058Z</time></trkpt><trkpt lat="45.5837995" lon="10.8236384"><ele>110.33333333333334</ele><time>2026-04-26T07:58:47.059Z</time></trkpt><trkpt lat="45.5839506" lon="10.8236825"><ele>109.66666666666667</ele><time>2026-04-26T07:58:48.059Z</time></trkpt><trkpt lat="45.5841008" lon="10.8237285"><ele>109.0</ele><time>2026-04-26T07:58:49.058Z</time></trkpt><trkpt lat="45.5842444" lon="10.8237702"><ele>109.0</ele><time>2026-04-26T07:58:50.059Z</time></trkpt><trkpt lat="45.5843765" lon="10.8238201"><ele>109.0</ele><time>2026-04-26T07:58:51.059Z</time></trkpt><trkpt lat="45.5844959" lon="10.8238996"><ele>109.0</ele><time>2026-04-26T07:58:52.058Z</time></trkpt><trkpt lat="45.5845875" lon="10.8240134"><ele>109.0</ele><time>2026-04-26T07:58:53.058Z</time></trkpt><trkpt lat="45.5846687" lon="10.8241592"><ele>118.66666666666667</ele><time>2026-04-26T07:58:54.059Z</time></trkpt><trkpt lat="45.5847368" lon="10.8243454"><ele>128.33333333333334</ele><time>2026-04-26T07:58:55.059Z</time></trkpt><trkpt lat="45.5848022" lon="10.8245643"><ele>138.0</ele><time>2026-04-26T07:58:56.058Z</time></trkpt><trkpt lat="45.5848723" lon="10.8247936"><ele>138.0</ele><time>2026-04-26T07:58:57.059Z</time></trkpt><trkpt lat="45.5849533" lon="10.8250342"><ele>138.0</ele><time>2026-04-26T07:58:58.058Z</time></trkpt><trkpt lat="45.585035" lon="10.825263"><ele>138.0</ele><time>2026-04-26T07:58:59.059Z</time></trkpt><trkpt lat="45.585114" lon="10.8254855"><ele>129.0</ele><time>2026-04-26T07:59:00.058Z</time></trkpt><trkpt lat="45.5851848" lon="10.825697"><ele>120.0</ele><time>2026-04-26T07:59:01.058Z</time></trkpt><trkpt lat="45.5852537" lon="10.8258944"><ele>111.0</ele><time>2026-04-26T07:59:02.058Z</time></trkpt><trkpt lat="45.5853241" lon="10.8260956"><ele>120.25</ele><time>2026-04-26T07:59:03.059Z</time></trkpt><trkpt lat="45.5853881" lon="10.8262841"><ele>129.5</ele><time>2026-04-26T07:59:04.059Z</time></trkpt><trkpt lat="45.585445" lon="10.8264447"><ele>138.75</ele><time>2026-04-26T07:59:05.059Z</time></trkpt><trkpt lat="45.58549" lon="10.8265817"><ele>148.0</ele><time>2026-04-26T07:59:06.058Z</time></trkpt><trkpt lat="45.5855213" lon="10.8266934"><ele>148.0</ele><time>2026-04-26T07:59:07.058Z</time></trkpt><trkpt lat="45.5855351" lon="10.8267867"><ele>148.0</ele><time>2026-04-26T07:59:08.058Z</time></trkpt><trkpt lat="45.5855604" lon="10.8268808"><ele>148.0</ele><time>2026-04-26T07:59:10.058Z</time></trkpt><trkpt lat="45.5856317" lon="10.8269672"><ele>148.0</ele><time>2026-04-26T07:59:39.059Z</time></trkpt><trkpt lat="45.5857204" lon="10.8271529"><ele>148.0</ele><time>2026-04-26T07:59:41.059Z</time></trkpt><trkpt lat="45.585776" lon="10.8272735"><ele>143.0</ele><time>2026-04-26T07:59:42.058Z</time></trkpt><trkpt lat="45.5858229" lon="10.8273885"><ele>138.0</ele><time>2026-04-26T07:59:43.058Z</time></trkpt><trkpt lat="45.5858647" lon="10.8274795"><ele>133.0</ele><time>2026-04-26T07:59:44.059Z</time></trkpt><trkpt lat="45.5859041" lon="10.827572"><ele>128.0</ele><time>2026-04-26T07:59:45.059Z</time></trkpt><trkpt lat="45.5859343" lon="10.8276709"><ele>123.00000000000001</ele><time>2026-04-26T07:59:46.058Z</time></trkpt><trkpt lat="45.585962" lon="10.8277518"><ele>118.0</ele><time>2026-04-26T07:59:47.059Z</time></trkpt><trkpt lat="45.5860288" lon="10.8278616"><ele>115.60000000000001</ele><time>2026-04-26T07:59:49.059Z</time></trkpt><trkpt lat="45.5860705" lon="10.8279836"><ele>113.20000000000002</ele><time>2026-04-26T07:59:51.059Z</time></trkpt><trkpt lat="45.5860545" lon="10.8281254"><ele>110.8</ele><time>2026-04-26T07:59:53.058Z</time></trkpt><trkpt lat="45.5860002" lon="10.8282993"><ele>108.4</ele><time>2026-04-26T07:59:55.059Z</time></trkpt><trkpt lat="45.5859717" lon="10.8284037"><ele>106.0</ele><time>2026-04-26T07:59:56.059Z</time></trkpt><trkpt lat="45.5859468" lon="10.8284969"><ele>105.50000000000001</ele><time>2026-04-26T07:59:57.059Z</time></trkpt><trkpt lat="45.5859394" lon="10.8286036"><ele>105.0</ele><time>2026-04-26T07:59:58.059Z</time></trkpt><trkpt lat="45.5859573" lon="10.8287312"><ele>104.5</ele><time>2026-04-26T07:59:59.058Z</time></trkpt><trkpt lat="45.5859764" lon="10.8288541"><ele>104.0</ele><time>2026-04-26T08:00:00.059Z</time></trkpt><trkpt lat="45.5859985" lon="10.8289742"><ele>103.50000000000001</ele><time>2026-04-26T08:00:01.059Z</time></trkpt><trkpt lat="45.5860034" lon="10.8290827"><ele>103.0</ele><time>2026-04-26T08:00:02.058Z</time></trkpt><trkpt lat="45.5860166" lon="10.8291883"><ele>103.0</ele><time>2026-04-26T08:00:03.059Z</time></trkpt><trkpt lat="45.5860224" lon="10.8292954"><ele>103.0</ele><time>2026-04-26T08:00:04.058Z</time></trkpt><trkpt lat="45.586048" lon="10.8294174"><ele>103.0</ele><time>2026-04-26T08:00:05.058Z</time></trkpt><trkpt lat="45.586095" lon="10.8295594"><ele>103.0</ele><time>2026-04-26T08:00:06.059Z</time></trkpt><trkpt lat="45.5861538" lon="10.8297143"><ele>103.0</ele><time>2026-04-26T08:00:07.058Z</time></trkpt><trkpt lat="45.5862144" lon="10.8298755"><ele>105.0</ele><time>2026-04-26T08:00:08.058Z</time></trkpt><trkpt lat="45.5862863" lon="10.8300553"><ele>107.0</ele><time>2026-04-26T08:00:09.059Z</time></trkpt><trkpt lat="45.5863533" lon="10.8302738"><ele>109.0</ele><time>2026-04-26T08:00:10.058Z</time></trkpt><trkpt lat="45.586411" lon="10.8305061"><ele>109.0</ele><time>2026-04-26T08:00:11.059Z</time></trkpt><trkpt lat="45.58646" lon="10.8307158"><ele>109.0</ele><time>2026-04-26T08:00:12.059Z</time></trkpt><trkpt lat="45.5865042" lon="10.8309044"><ele>109.0</ele><time>2026-04-26T08:00:13.059Z</time></trkpt><trkpt lat="45.5865574" lon="10.8310828"><ele>109.0</ele><time>2026-04-26T08:00:14.058Z</time></trkpt><trkpt lat="45.5866122" lon="10.8312458"><ele>107.5</ele><time>2026-04-26T08:00:15.059Z</time></trkpt><trkpt lat="45.5866749" lon="10.8314091"><ele>106.0</ele><time>2026-04-26T08:00:16.058Z</time></trkpt><trkpt lat="45.5867463" lon="10.8315635"><ele>104.5</ele><time>2026-04-26T08:00:17.058Z</time></trkpt><trkpt lat="45.5868161" lon="10.8317192"><ele>103.0</ele><time>2026-04-26T08:00:18.058Z</time></trkpt><trkpt lat="45.5868906" lon="10.831874"><ele>103.0</ele><time>2026-04-26T08:00:19.059Z</time></trkpt><trkpt lat="45.5869682" lon="10.832003"><ele>103.0</ele><time>2026-04-26T08:00:20.059Z</time></trkpt><trkpt lat="45.5870602" lon="10.8321184"><ele>103.0</ele><time>2026-04-26T08:00:21.059Z</time></trkpt><trkpt lat="45.5871615" lon="10.832224"><ele>103.0</ele><time>2026-04-26T08:00:22.058Z</time></trkpt><trkpt lat="45.5872655" lon="10.8323341"><ele>102.75</ele><time>2026-04-26T08:00:23.058Z</time></trkpt><trkpt lat="45.5873642" lon="10.8324508"><ele>102.5</ele><time>2026-04-26T08:00:24.059Z</time></trkpt><trkpt lat="45.5874659" lon="10.8325833"><ele>102.25</ele><time>2026-04-26T08:00:25.058Z</time></trkpt><trkpt lat="45.5875717" lon="10.8327383"><ele>102.0</ele><time>2026-04-26T08:00:26.059Z</time></trkpt><trkpt lat="45.5876742" lon="10.8329009"><ele>102.0</ele><time>2026-04-26T08:00:27.058Z</time></trkpt><trkpt lat="45.5877744" lon="10.8330685"><ele>102.0</ele><time>2026-04-26T08:00:28.059Z</time></trkpt><trkpt lat="45.5878652" lon="10.8332253"><ele>102.0</ele><time>2026-04-26T08:00:29.058Z</time></trkpt><trkpt lat="45.5879455" lon="10.8333949"><ele>102.0</ele><time>2026-04-26T08:00:30.059Z</time></trkpt><trkpt lat="45.5880122" lon="10.8335574"><ele>102.25</ele><time>2026-04-26T08:00:31.058Z</time></trkpt><trkpt lat="45.5880839" lon="10.8337194"><ele>102.5</ele><time>2026-04-26T08:00:32.058Z</time></trkpt><trkpt lat="45.5881537" lon="10.8338637"><ele>102.75</ele><time>2026-04-26T08:00:33.059Z</time></trkpt><trkpt lat="45.5882187" lon="10.8339882"><ele>103.0</ele><time>2026-04-26T08:00:34.059Z</time></trkpt><trkpt lat="45.58828" lon="10.8341014"><ele>103.00000000000001</ele><time>2026-04-26T08:00:35.059Z</time></trkpt><trkpt lat="45.58832" lon="10.8342064"><ele>103.0</ele><time>2026-04-26T08:00:36.059Z</time></trkpt><trkpt lat="45.588342" lon="10.8343154"><ele>103.0</ele><time>2026-04-26T08:00:37.059Z</time></trkpt><trkpt lat="45.5883387" lon="10.8344311"><ele>103.0</ele><time>2026-04-26T08:00:38.058Z</time></trkpt><trkpt lat="45.5883203" lon="10.834541"><ele>103.00000000000001</ele><time>2026-04-26T08:00:39.059Z</time></trkpt><trkpt lat="45.5882991" lon="10.8346394"><ele>103.0</ele><time>2026-04-26T08:00:40.059Z</time></trkpt><trkpt lat="45.5882658" lon="10.8348177"><ele>103.16666666666667</ele><time>2026-04-26T08:00:42.059Z</time></trkpt><trkpt lat="45.5882577" lon="10.8349138"><ele>103.33333333333334</ele><time>2026-04-26T08:00:43.058Z</time></trkpt><trkpt lat="45.5882569" lon="10.8350044"><ele>103.5</ele><time>2026-04-26T08:00:44.058Z</time></trkpt><trkpt lat="45.5882713" lon="10.8351069"><ele>103.66666666666666</ele><time>2026-04-26T08:00:46.059Z</time></trkpt><trkpt lat="45.5882036" lon="10.834977"><ele>103.83333333333333</ele><time>2026-04-26T08:00:48.059Z</time></trkpt><trkpt lat="45.5881298" lon="10.834997"><ele>104.0</ele><time>2026-04-26T08:00:50.059Z</time></trkpt><trkpt lat="45.5881054" lon="10.8350823"><ele>103.5</ele><time>2026-04-26T08:00:52.059Z</time></trkpt><trkpt lat="45.5882008" lon="10.8352235"><ele>103.0</ele><time>2026-04-26T08:00:54.058Z</time></trkpt><trkpt lat="45.5883009" lon="10.835318"><ele>102.5</ele><time>2026-04-26T08:00:55.059Z</time></trkpt><trkpt lat="45.5884274" lon="10.8354162"><ele>102.0</ele><time>2026-04-26T08:00:56.058Z</time></trkpt><trkpt lat="45.5885653" lon="10.8355351"><ele>102.33333333333334</ele><time>2026-04-26T08:00:57.059Z</time></trkpt><trkpt lat="45.5886991" lon="10.8356515"><ele>102.66666666666667</ele><time>2026-04-26T08:00:58.058Z</time></trkpt><trkpt lat="45.5888489" lon="10.8357826"><ele>103.0</ele><time>2026-04-26T08:00:59.059Z</time></trkpt><trkpt lat="45.5890156" lon="10.8359185"><ele>102.66666666666667</ele><time>2026-04-26T08:01:00.058Z</time></trkpt><trkpt lat="45.5891782" lon="10.8360545"><ele>102.33333333333334</ele><time>2026-04-26T08:01:01.059Z</time></trkpt><trkpt lat="45.5893355" lon="10.8361825"><ele>102.0</ele><time>2026-04-26T08:01:02.058Z</time></trkpt><trkpt lat="45.5894887" lon="10.8362939"><ele>102.66666666666666</ele><time>2026-04-26T08:01:03.058Z</time></trkpt><trkpt lat="45.5896296" lon="10.8363996"><ele>103.33333333333333</ele><time>2026-04-26T08:01:04.059Z</time></trkpt><trkpt lat="45.5897808" lon="10.8365193"><ele>104.0</ele><time>2026-04-26T08:01:05.059Z</time></trkpt><trkpt lat="45.5899267" lon="10.8366223"><ele>104.0</ele><time>2026-04-26T08:01:06.059Z</time></trkpt><trkpt lat="45.5900788" lon="10.8367213"><ele>104.0</ele><time>2026-04-26T08:01:07.059Z</time></trkpt><trkpt lat="45.5902267" lon="10.8368018"><ele>104.0</ele><time>2026-04-26T08:01:08.059Z</time></trkpt><trkpt lat="45.5903905" lon="10.8368574"><ele>105.33333333333333</ele><time>2026-04-26T08:01:09.058Z</time></trkpt><trkpt lat="45.5905511" lon="10.8369238"><ele>106.66666666666666</ele><time>2026-04-26T08:01:10.059Z</time></trkpt><trkpt lat="45.5907178" lon="10.8369935"><ele>108.0</ele><time>2026-04-26T08:01:11.058Z</time></trkpt><trkpt lat="45.5908774" lon="10.8370661"><ele>108.0</ele><time>2026-04-26T08:01:12.058Z</time></trkpt><trkpt lat="45.591029" lon="10.837128"><ele>108.0</ele><time>2026-04-26T08:01:13.059Z</time></trkpt><trkpt lat="45.5911841" lon="10.8371784"><ele>108.0</ele><time>2026-04-26T08:01:14.059Z</time></trkpt><trkpt lat="45.5913405" lon="10.8372315"><ele>111.33333333333334</ele><time>2026-04-26T08:01:15.058Z</time></trkpt><trkpt lat="45.5914982" lon="10.8372931"><ele>114.66666666666667</ele><time>2026-04-26T08:01:16.058Z</time></trkpt><trkpt lat="45.591655" lon="10.8373523"><ele>118.0</ele><time>2026-04-26T08:01:17.059Z</time></trkpt><trkpt lat="45.5918103" lon="10.8374154"><ele>118.0</ele><time>2026-04-26T08:01:18.059Z</time></trkpt><trkpt lat="45.591965" lon="10.8374961"><ele>118.0</ele><time>2026-04-26T08:01:19.058Z</time></trkpt><trkpt lat="45.5921183" lon="10.8375817"><ele>118.0</ele><time>2026-04-26T08:01:20.059Z</time></trkpt><trkpt lat="45.5922628" lon="10.8376562"><ele>121.0</ele><time>2026-04-26T08:01:21.059Z</time></trkpt><trkpt lat="45.5924122" lon="10.8377335"><ele>124.0</ele><time>2026-04-26T08:01:22.059Z</time></trkpt><trkpt lat="45.5925604" lon="10.837817"><ele>127.0</ele><time>2026-04-26T08:01:23.058Z</time></trkpt><trkpt lat="45.5927121" lon="10.8379117"><ele>126.66666666666667</ele><time>2026-04-26T08:01:24.059Z</time></trkpt><trkpt lat="45.5928503" lon="10.8380071"><ele>126.33333333333334</ele><time>2026-04-26T08:01:25.058Z</time></trkpt><trkpt lat="45.5929932" lon="10.8380967"><ele>126.0</ele><time>2026-04-26T08:01:26.059Z</time></trkpt><trkpt lat="45.5931442" lon="10.8381863"><ele>126.0</ele><time>2026-04-26T08:01:27.058Z</time></trkpt><trkpt lat="45.5933078" lon="10.8382798"><ele>126.0</ele><time>2026-04-26T08:01:28.058Z</time></trkpt><trkpt lat="45.5934703" lon="10.8383791"><ele>126.0</ele><time>2026-04-26T08:01:29.058Z</time></trkpt><trkpt lat="45.5936419" lon="10.838487"><ele>127.0</ele><time>2026-04-26T08:01:30.059Z</time></trkpt><trkpt lat="45.5938149" lon="10.8385913"><ele>128.0</ele><time>2026-04-26T08:01:31.059Z</time></trkpt><trkpt lat="45.5939919" lon="10.8387015"><ele>129.0</ele><time>2026-04-26T08:01:32.058Z</time></trkpt><trkpt lat="45.5941772" lon="10.8388173"><ele>129.0</ele><time>2026-04-26T08:01:33.059Z</time></trkpt><trkpt lat="45.5943633" lon="10.8389301"><ele>129.0</ele><time>2026-04-26T08:01:34.058Z</time></trkpt><trkpt lat="45.594543" lon="10.8390515"><ele>129.0</ele><time>2026-04-26T08:01:35.059Z</time></trkpt><trkpt lat="45.5947318" lon="10.8391702"><ele>128.66666666666666</ele><time>2026-04-26T08:01:36.059Z</time></trkpt><trkpt lat="45.5949098" lon="10.8392947"><ele>128.33333333333331</ele><time>2026-04-26T08:01:37.059Z</time></trkpt><trkpt lat="45.5950904" lon="10.8394158"><ele>128.0</ele><time>2026-04-26T08:01:38.059Z</time></trkpt><trkpt lat="45.595266" lon="10.839542"><ele>128.0</ele><time>2026-04-26T08:01:39.059Z</time></trkpt><trkpt lat="45.5954386" lon="10.8396732"><ele>128.0</ele><time>2026-04-26T08:01:40.059Z</time></trkpt><trkpt lat="45.5956059" lon="10.8398009"><ele>128.0</ele><time>2026-04-26T08:01:41.059Z</time></trkpt><trkpt lat="45.5957685" lon="10.8399347"><ele>128.0</ele><time>2026-04-26T08:01:42.058Z</time></trkpt><trkpt lat="45.5959372" lon="10.8400718"><ele>128.0</ele><time>2026-04-26T08:01:43.059Z</time></trkpt><trkpt lat="45.5961063" lon="10.8402076"><ele>128.0</ele><time>2026-04-26T08:01:44.059Z</time></trkpt><trkpt lat="45.596273" lon="10.8403422"><ele>127.66666666666666</ele><time>2026-04-26T08:01:45.058Z</time></trkpt><trkpt lat="45.5964343" lon="10.8404864"><ele>127.33333333333334</ele><time>2026-04-26T08:01:46.059Z</time></trkpt><trkpt lat="45.5965924" lon="10.840639"><ele>127.0</ele><time>2026-04-26T08:01:47.059Z</time></trkpt><trkpt lat="45.5967343" lon="10.8408001"><ele>127.0</ele><time>2026-04-26T08:01:48.059Z</time></trkpt><trkpt lat="45.5968692" lon="10.8409721"><ele>127.0</ele><time>2026-04-26T08:01:49.059Z</time></trkpt><trkpt lat="45.5969932" lon="10.8411605"><ele>127.0</ele><time>2026-04-26T08:01:50.058Z</time></trkpt><trkpt lat="45.5971196" lon="10.8413596"><ele>127.0</ele><time>2026-04-26T08:01:51.058Z</time></trkpt><trkpt lat="45.5972416" lon="10.841573"><ele>127.0</ele><time>2026-04-26T08:01:52.057Z</time></trkpt><trkpt lat="45.5973532" lon="10.8417764"><ele>127.0</ele><time>2026-04-26T08:01:53.058Z</time></trkpt><trkpt lat="45.5974621" lon="10.8419849"><ele>126.33333333333334</ele><time>2026-04-26T08:01:54.057Z</time></trkpt><trkpt lat="45.5975745" lon="10.8421925"><ele>125.66666666666666</ele><time>2026-04-26T08:01:55.057Z</time></trkpt><trkpt lat="45.5977046" lon="10.8423802"><ele>125.0</ele><time>2026-04-26T08:01:56.058Z</time></trkpt><trkpt lat="45.5978599" lon="10.8425373"><ele>123.66666666666666</ele><time>2026-04-26T08:01:57.058Z</time></trkpt><trkpt lat="45.5980171" lon="10.8426519"><ele>122.33333333333334</ele><time>2026-04-26T08:01:58.058Z</time></trkpt><trkpt lat="45.5981756" lon="10.842763"><ele>121.0</ele><time>2026-04-26T08:01:59.058Z</time></trkpt><trkpt lat="45.5983291" lon="10.8428578"><ele>121.0</ele><time>2026-04-26T08:02:00.058Z</time></trkpt><trkpt lat="45.5984975" lon="10.842954"><ele>121.0</ele><time>2026-04-26T08:02:01.058Z</time></trkpt><trkpt lat="45.5986539" lon="10.8430595"><ele>121.0</ele><time>2026-04-26T08:02:02.058Z</time></trkpt><trkpt lat="45.5988147" lon="10.8431825"><ele>122.0</ele><time>2026-04-26T08:02:03.057Z</time></trkpt><trkpt lat="45.5989782" lon="10.843306"><ele>123.0</ele><time>2026-04-26T08:02:04.058Z</time></trkpt><trkpt lat="45.5991464" lon="10.8434318"><ele>124.0</ele><time>2026-04-26T08:02:05.057Z</time></trkpt><trkpt lat="45.5993227" lon="10.8435613"><ele>123.33333333333334</ele><time>2026-04-26T08:02:06.058Z</time></trkpt><trkpt lat="45.5994937" lon="10.8436952"><ele>122.66666666666666</ele><time>2026-04-26T08:02:07.058Z</time></trkpt><trkpt lat="45.5996607" lon="10.8438189"><ele>122.0</ele><time>2026-04-26T08:02:08.057Z</time></trkpt><trkpt lat="45.5998388" lon="10.84394"><ele>122.0</ele><time>2026-04-26T08:02:09.058Z</time></trkpt><trkpt lat="45.6000248" lon="10.8440494"><ele>122.0</ele><time>2026-04-26T08:02:10.058Z</time></trkpt><trkpt lat="45.6002054" lon="10.8441581"><ele>122.0</ele><time>2026-04-26T08:02:11.058Z</time></trkpt><trkpt lat="45.6003826" lon="10.8442837"><ele>120.66666666666666</ele><time>2026-04-26T08:02:12.057Z</time></trkpt><trkpt lat="45.6005453" lon="10.8444175"><ele>119.33333333333334</ele><time>2026-04-26T08:02:13.057Z</time></trkpt><trkpt lat="45.6007007" lon="10.8445682"><ele>118.0</ele><time>2026-04-26T08:02:14.057Z</time></trkpt><trkpt lat="45.6008458" lon="10.8447217"><ele>118.0</ele><time>2026-04-26T08:02:15.058Z</time></trkpt><trkpt lat="45.600995" lon="10.8448685"><ele>118.0</ele><time>2026-04-26T08:02:16.058Z</time></trkpt><trkpt lat="45.6011502" lon="10.845002"><ele>118.0</ele><time>2026-04-26T08:02:17.058Z</time></trkpt><trkpt lat="45.601299" lon="10.8451288"><ele>118.33333333333334</ele><time>2026-04-26T08:02:18.058Z</time></trkpt><trkpt lat="45.6014484" lon="10.8452415"><ele>118.66666666666666</ele><time>2026-04-26T08:02:19.058Z</time></trkpt><trkpt lat="45.6015905" lon="10.8453494"><ele>119.0</ele><time>2026-04-26T08:02:20.058Z</time></trkpt><trkpt lat="45.6017252" lon="10.8454455"><ele>119.0</ele><time>2026-04-26T08:02:21.057Z</time></trkpt><trkpt lat="45.6018583" lon="10.8455426"><ele>119.0</ele><time>2026-04-26T08:02:22.058Z</time></trkpt><trkpt lat="45.6019913" lon="10.8456368"><ele>119.0</ele><time>2026-04-26T08:02:23.058Z</time></trkpt><trkpt lat="45.6021272" lon="10.8457426"><ele>118.66666666666666</ele><time>2026-04-26T08:02:24.058Z</time></trkpt><trkpt lat="45.6022636" lon="10.8458449"><ele>118.33333333333334</ele><time>2026-04-26T08:02:25.058Z</time></trkpt><trkpt lat="45.6023991" lon="10.845962"><ele>118.0</ele><time>2026-04-26T08:02:26.058Z</time></trkpt><trkpt lat="45.6025346" lon="10.8460803"><ele>118.0</ele><time>2026-04-26T08:02:27.058Z</time></trkpt><trkpt lat="45.6026687" lon="10.8461955"><ele>118.0</ele><time>2026-04-26T08:02:28.057Z</time></trkpt><trkpt lat="45.6028057" lon="10.8463027"><ele>118.0</ele><time>2026-04-26T08:02:29.057Z</time></trkpt><trkpt lat="45.6029421" lon="10.846412"><ele>117.33333333333334</ele><time>2026-04-26T08:02:30.058Z</time></trkpt><trkpt lat="45.6030784" lon="10.8465288"><ele>116.66666666666666</ele><time>2026-04-26T08:02:31.057Z</time></trkpt><trkpt lat="45.603229" lon="10.8466515"><ele>116.0</ele><time>2026-04-26T08:02:32.057Z</time></trkpt><trkpt lat="45.6033894" lon="10.8467766"><ele>116.33333333333333</ele><time>2026-04-26T08:02:33.058Z</time></trkpt><trkpt lat="45.6035563" lon="10.8469107"><ele>116.66666666666666</ele><time>2026-04-26T08:02:34.058Z</time></trkpt><trkpt lat="45.6037143" lon="10.847054"><ele>117.0</ele><time>2026-04-26T08:02:35.058Z</time></trkpt><trkpt lat="45.6038756" lon="10.8472132"><ele>117.0</ele><time>2026-04-26T08:02:36.058Z</time></trkpt><trkpt lat="45.604039" lon="10.8473733"><ele>117.0</ele><time>2026-04-26T08:02:37.057Z</time></trkpt><trkpt lat="45.6042078" lon="10.8475392"><ele>117.0</ele><time>2026-04-26T08:02:38.057Z</time></trkpt><trkpt lat="45.604372" lon="10.8477011"><ele>116.66666666666666</ele><time>2026-04-26T08:02:39.058Z</time></trkpt><trkpt lat="45.6045455" lon="10.8478476"><ele>116.33333333333333</ele><time>2026-04-26T08:02:40.057Z</time></trkpt><trkpt lat="45.6047145" lon="10.8479884"><ele>116.0</ele><time>2026-04-26T08:02:41.058Z</time></trkpt><trkpt lat="45.6048822" lon="10.8481295"><ele>116.0</ele><time>2026-04-26T08:02:42.057Z</time></trkpt><trkpt lat="45.6050419" lon="10.8482882"><ele>116.0</ele><time>2026-04-26T08:02:43.057Z</time></trkpt><trkpt lat="45.6052134" lon="10.8484485"><ele>116.0</ele><time>2026-04-26T08:02:44.057Z</time></trkpt><trkpt lat="45.6053873" lon="10.8486035"><ele>115.33333333333333</ele><time>2026-04-26T08:02:45.058Z</time></trkpt><trkpt lat="45.6055652" lon="10.8487629"><ele>114.66666666666666</ele><time>2026-04-26T08:02:46.057Z</time></trkpt><trkpt lat="45.60575" lon="10.8489233"><ele>114.0</ele><time>2026-04-26T08:02:47.058Z</time></trkpt><trkpt lat="45.6059306" lon="10.8490812"><ele>114.0</ele><time>2026-04-26T08:02:48.058Z</time></trkpt><trkpt lat="45.606115" lon="10.8492269"><ele>114.0</ele><time>2026-04-26T08:02:49.058Z</time></trkpt><trkpt lat="45.6062841" lon="10.8493737"><ele>114.0</ele><time>2026-04-26T08:02:50.057Z</time></trkpt><trkpt lat="45.6064543" lon="10.8495252"><ele>114.0</ele><time>2026-04-26T08:02:51.057Z</time></trkpt><trkpt lat="45.6066245" lon="10.8496744"><ele>114.0</ele><time>2026-04-26T08:02:52.057Z</time></trkpt><trkpt lat="45.6068034" lon="10.8498224"><ele>114.0</ele><time>2026-04-26T08:02:53.058Z</time></trkpt><trkpt lat="45.60698" lon="10.8499608"><ele>113.33333333333334</ele><time>2026-04-26T08:02:54.058Z</time></trkpt><trkpt lat="45.6071636" lon="10.8500951"><ele>112.66666666666667</ele><time>2026-04-26T08:02:55.058Z</time></trkpt><trkpt lat="45.607348" lon="10.8502102"><ele>112.0</ele><time>2026-04-26T08:02:56.057Z</time></trkpt><trkpt lat="45.6075303" lon="10.8503165"><ele>112.0</ele><time>2026-04-26T08:02:57.058Z</time></trkpt><trkpt lat="45.6077179" lon="10.8504028"><ele>112.0</ele><time>2026-04-26T08:02:58.058Z</time></trkpt><trkpt lat="45.6079141" lon="10.8504778"><ele>112.0</ele><time>2026-04-26T08:02:59.057Z</time></trkpt><trkpt lat="45.6081147" lon="10.8505591"><ele>112.0</ele><time>2026-04-26T08:03:00.057Z</time></trkpt><trkpt lat="45.6083161" lon="10.8506388"><ele>112.0</ele><time>2026-04-26T08:03:01.058Z</time></trkpt><trkpt lat="45.6085126" lon="10.8507223"><ele>112.0</ele><time>2026-04-26T08:03:02.058Z</time></trkpt><trkpt lat="45.6087072" lon="10.8508065"><ele>112.33333333333334</ele><time>2026-04-26T08:03:03.058Z</time></trkpt><trkpt lat="45.6088951" lon="10.8508955"><ele>112.66666666666666</ele><time>2026-04-26T08:03:04.057Z</time></trkpt><trkpt lat="45.6090741" lon="10.850986"><ele>113.0</ele><time>2026-04-26T08:03:05.057Z</time></trkpt><trkpt lat="45.6092497" lon="10.8510784"><ele>113.0</ele><time>2026-04-26T08:03:06.057Z</time></trkpt><trkpt lat="45.6094326" lon="10.8511697"><ele>113.0</ele><time>2026-04-26T08:03:07.057Z</time></trkpt><trkpt lat="45.6096054" lon="10.8512692"><ele>113.0</ele><time>2026-04-26T08:03:08.058Z</time></trkpt><trkpt lat="45.6097742" lon="10.8513799"><ele>112.66666666666666</ele><time>2026-04-26T08:03:09.057Z</time></trkpt><trkpt lat="45.6099484" lon="10.851506"><ele>112.33333333333334</ele><time>2026-04-26T08:03:10.057Z</time></trkpt><trkpt lat="45.6101192" lon="10.8516446"><ele>112.0</ele><time>2026-04-26T08:03:11.058Z</time></trkpt><trkpt lat="45.6102944" lon="10.8517814"><ele>111.33333333333334</ele><time>2026-04-26T08:03:12.057Z</time></trkpt><trkpt lat="45.6104694" lon="10.8519231"><ele>110.66666666666666</ele><time>2026-04-26T08:03:13.057Z</time></trkpt><trkpt lat="45.610643" lon="10.8520624"><ele>110.0</ele><time>2026-04-26T08:03:14.058Z</time></trkpt><trkpt lat="45.6108145" lon="10.8521945"><ele>110.0</ele><time>2026-04-26T08:03:15.057Z</time></trkpt><trkpt lat="45.6109816" lon="10.8523075"><ele>110.0</ele><time>2026-04-26T08:03:16.058Z</time></trkpt><trkpt lat="45.6111361" lon="10.8524156"><ele>110.0</ele><time>2026-04-26T08:03:17.058Z</time></trkpt><trkpt lat="45.6112834" lon="10.8525168"><ele>109.33333333333333</ele><time>2026-04-26T08:03:18.058Z</time></trkpt><trkpt lat="45.6114317" lon="10.8525859"><ele>108.66666666666666</ele><time>2026-04-26T08:03:19.058Z</time></trkpt><trkpt lat="45.6115796" lon="10.8526218"><ele>108.0</ele><time>2026-04-26T08:03:20.057Z</time></trkpt><trkpt lat="45.6117327" lon="10.8526206"><ele>108.0</ele><time>2026-04-26T08:03:21.057Z</time></trkpt><trkpt lat="45.6118745" lon="10.852594"><ele>108.0</ele><time>2026-04-26T08:03:22.057Z</time></trkpt><trkpt lat="45.6120056" lon="10.8525443"><ele>108.0</ele><time>2026-04-26T08:03:23.058Z</time></trkpt><trkpt lat="45.6121377" lon="10.852488"><ele>108.0</ele><time>2026-04-26T08:03:24.057Z</time></trkpt><trkpt lat="45.6122726" lon="10.8524277"><ele>107.5</ele><time>2026-04-26T08:03:25.057Z</time></trkpt><trkpt lat="45.6124008" lon="10.8523508"><ele>107.0</ele><time>2026-04-26T08:03:26.058Z</time></trkpt><trkpt lat="45.6125317" lon="10.8522813"><ele>106.5</ele><time>2026-04-26T08:03:27.057Z</time></trkpt><trkpt lat="45.6126576" lon="10.8522045"><ele>106.0</ele><time>2026-04-26T08:03:28.058Z</time></trkpt><trkpt lat="45.6127863" lon="10.8521404"><ele>104.66666666666667</ele><time>2026-04-26T08:03:29.058Z</time></trkpt><trkpt lat="45.6129252" lon="10.8520756"><ele>103.33333333333334</ele><time>2026-04-26T08:03:30.058Z</time></trkpt><trkpt lat="45.6130732" lon="10.8520173"><ele>102.0</ele><time>2026-04-26T08:03:31.057Z</time></trkpt><trkpt lat="45.6132232" lon="10.8519603"><ele>102.0</ele><time>2026-04-26T08:03:32.058Z</time></trkpt><trkpt lat="45.6133686" lon="10.8518956"><ele>102.0</ele><time>2026-04-26T08:03:33.058Z</time></trkpt><trkpt lat="45.6135007" lon="10.8518351"><ele>102.0</ele><time>2026-04-26T08:03:34.057Z</time></trkpt><trkpt lat="45.6136277" lon="10.8517954"><ele>102.0</ele><time>2026-04-26T08:03:35.057Z</time></trkpt><trkpt lat="45.6137497" lon="10.8517729"><ele>102.0</ele><time>2026-04-26T08:03:36.058Z</time></trkpt><trkpt lat="45.6138796" lon="10.8517684"><ele>102.0</ele><time>2026-04-26T08:03:37.057Z</time></trkpt><trkpt lat="45.6140063" lon="10.8517848"><ele>102.0</ele><time>2026-04-26T08:03:38.057Z</time></trkpt><trkpt lat="45.6141387" lon="10.8518024"><ele>102.0</ele><time>2026-04-26T08:03:39.057Z</time></trkpt><trkpt lat="45.6142823" lon="10.8518135"><ele>102.0</ele><time>2026-04-26T08:03:40.058Z</time></trkpt><trkpt lat="45.6144278" lon="10.8518187"><ele>102.0</ele><time>2026-04-26T08:03:41.057Z</time></trkpt><trkpt lat="45.6145687" lon="10.8518344"><ele>102.0</ele><time>2026-04-26T08:03:42.057Z</time></trkpt><trkpt lat="45.6147026" lon="10.8518587"><ele>102.0</ele><time>2026-04-26T08:03:43.058Z</time></trkpt><trkpt lat="45.6148343" lon="10.8518908"><ele>102.5</ele><time>2026-04-26T08:03:44.058Z</time></trkpt><trkpt lat="45.614972" lon="10.8519302"><ele>103.0</ele><time>2026-04-26T08:03:45.058Z</time></trkpt><trkpt lat="45.6151133" lon="10.8519624"><ele>103.5</ele><time>2026-04-26T08:03:46.058Z</time></trkpt><trkpt lat="45.6152652" lon="10.8519941"><ele>104.0</ele><time>2026-04-26T08:03:47.058Z</time></trkpt><trkpt lat="45.6154132" lon="10.8520276"><ele>104.0</ele><time>2026-04-26T08:03:48.057Z</time></trkpt><trkpt lat="45.6155648" lon="10.8520624"><ele>104.0</ele><time>2026-04-26T08:03:49.057Z</time></trkpt><trkpt lat="45.6157211" lon="10.8520885"><ele>104.0</ele><time>2026-04-26T08:03:50.058Z</time></trkpt><trkpt lat="45.6158779" lon="10.8521241"><ele>104.0</ele><time>2026-04-26T08:03:51.057Z</time></trkpt><trkpt lat="45.6160352" lon="10.8521531"><ele>104.0</ele><time>2026-04-26T08:03:52.058Z</time></trkpt><trkpt lat="45.6161865" lon="10.8521741"><ele>104.0</ele><time>2026-04-26T08:03:53.058Z</time></trkpt><trkpt lat="45.6163424" lon="10.8521902"><ele>104.0</ele><time>2026-04-26T08:03:54.057Z</time></trkpt><trkpt lat="45.6164919" lon="10.8522053"><ele>104.0</ele><time>2026-04-26T08:03:55.058Z</time></trkpt><trkpt lat="45.6166373" lon="10.8522251"><ele>104.0</ele><time>2026-04-26T08:03:56.058Z</time></trkpt><trkpt lat="45.6167876" lon="10.8522484"><ele>104.0</ele><time>2026-04-26T08:03:57.057Z</time></trkpt><trkpt lat="45.6169304" lon="10.8522763"><ele>105.0</ele><time>2026-04-26T08:03:58.058Z</time></trkpt><trkpt lat="45.6170662" lon="10.8523154"><ele>106.0</ele><time>2026-04-26T08:03:59.058Z</time></trkpt><trkpt lat="45.6172196" lon="10.852369"><ele>107.0</ele><time>2026-04-26T08:04:00.058Z</time></trkpt><trkpt lat="45.6173804" lon="10.8524215"><ele>107.0</ele><time>2026-04-26T08:04:01.058Z</time></trkpt><trkpt lat="45.617532" lon="10.8524643"><ele>107.0</ele><time>2026-04-26T08:04:02.057Z</time></trkpt><trkpt lat="45.6176816" lon="10.8524988"><ele>107.0</ele><time>2026-04-26T08:04:03.057Z</time></trkpt><trkpt lat="45.6178329" lon="10.8525338"><ele>105.25</ele><time>2026-04-26T08:04:04.058Z</time></trkpt><trkpt lat="45.6179774" lon="10.852575"><ele>103.5</ele><time>2026-04-26T08:04:05.058Z</time></trkpt><trkpt lat="45.61812" lon="10.8526093"><ele>101.75</ele><time>2026-04-26T08:04:06.058Z</time></trkpt><trkpt lat="45.6182609" lon="10.8526373"><ele>100.0</ele><time>2026-04-26T08:04:07.057Z</time></trkpt><trkpt lat="45.6183787" lon="10.8526624"><ele>100.0</ele><time>2026-04-26T08:04:08.057Z</time></trkpt><trkpt lat="45.6184981" lon="10.8526874"><ele>100.0</ele><time>2026-04-26T08:04:09.058Z</time></trkpt><trkpt lat="45.6186096" lon="10.8527158"><ele>100.0</ele><time>2026-04-26T08:04:10.057Z</time></trkpt><trkpt lat="45.618713" lon="10.8527256"><ele>100.0</ele><time>2026-04-26T08:04:11.057Z</time></trkpt><trkpt lat="45.6188235" lon="10.852741"><ele>100.0</ele><time>2026-04-26T08:04:12.058Z</time></trkpt><trkpt lat="45.6189512" lon="10.8527677"><ele>100.5</ele><time>2026-04-26T08:04:13.057Z</time></trkpt><trkpt lat="45.619091" lon="10.8528"><ele>101.0</ele><time>2026-04-26T08:04:14.058Z</time></trkpt><trkpt lat="45.6192247" lon="10.8528529"><ele>101.5</ele><time>2026-04-26T08:04:15.057Z</time></trkpt><trkpt lat="45.6193553" lon="10.8529211"><ele>102.0</ele><time>2026-04-26T08:04:16.058Z</time></trkpt><trkpt lat="45.6194791" lon="10.8529912"><ele>104.5</ele><time>2026-04-26T08:04:17.058Z</time></trkpt><trkpt lat="45.619601" lon="10.8530669"><ele>107.0</ele><time>2026-04-26T08:04:18.058Z</time></trkpt><trkpt lat="45.6197046" lon="10.8531264"><ele>109.5</ele><time>2026-04-26T08:04:19.058Z</time></trkpt><trkpt lat="45.6198016" lon="10.8531817"><ele>112.0</ele><time>2026-04-26T08:04:20.057Z</time></trkpt><trkpt lat="45.6199069" lon="10.8532409"><ele>112.0</ele><time>2026-04-26T08:04:21.058Z</time></trkpt><trkpt lat="45.620015" lon="10.8533023"><ele>112.0</ele><time>2026-04-26T08:04:22.058Z</time></trkpt><trkpt lat="45.6201315" lon="10.8533688"><ele>112.0</ele><time>2026-04-26T08:04:23.057Z</time></trkpt><trkpt lat="45.6202501" lon="10.8534424"><ele>112.0</ele><time>2026-04-26T08:04:24.058Z</time></trkpt><trkpt lat="45.6203703" lon="10.8535231"><ele>110.75</ele><time>2026-04-26T08:04:25.057Z</time></trkpt><trkpt lat="45.6204991" lon="10.8535986"><ele>109.5</ele><time>2026-04-26T08:04:26.058Z</time></trkpt><trkpt lat="45.6206275" lon="10.8536705"><ele>108.25</ele><time>2026-04-26T08:04:27.058Z</time></trkpt><trkpt lat="45.620751" lon="10.8537453"><ele>107.0</ele><time>2026-04-26T08:04:28.058Z</time></trkpt><trkpt lat="45.6208684" lon="10.8538157"><ele>107.0</ele><time>2026-04-26T08:04:29.057Z</time></trkpt><trkpt lat="45.6209817" lon="10.8538874"><ele>107.0</ele><time>2026-04-26T08:04:30.058Z</time></trkpt><trkpt lat="45.6210991" lon="10.8539711"><ele>107.0</ele><time>2026-04-26T08:04:31.057Z</time></trkpt><trkpt lat="45.6212106" lon="10.8540951"><ele>107.0</ele><time>2026-04-26T08:04:32.057Z</time></trkpt><trkpt lat="45.6213209" lon="10.854249"><ele>108.33333333333333</ele><time>2026-04-26T08:04:33.058Z</time></trkpt><trkpt lat="45.6214415" lon="10.8544026"><ele>109.66666666666666</ele><time>2026-04-26T08:04:34.057Z</time></trkpt><trkpt lat="45.6215748" lon="10.8545584"><ele>111.0</ele><time>2026-04-26T08:04:35.058Z</time></trkpt><trkpt lat="45.6217069" lon="10.8547264"><ele>111.0</ele><time>2026-04-26T08:04:36.058Z</time></trkpt><trkpt lat="45.6218343" lon="10.8548888"><ele>111.0</ele><time>2026-04-26T08:04:37.058Z</time></trkpt><trkpt lat="45.6219566" lon="10.8550326"><ele>111.0</ele><time>2026-04-26T08:04:38.058Z</time></trkpt><trkpt lat="45.6220769" lon="10.8551817"><ele>114.0</ele><time>2026-04-26T08:04:39.058Z</time></trkpt><trkpt lat="45.6221857" lon="10.8553352"><ele>117.0</ele><time>2026-04-26T08:04:40.057Z</time></trkpt><trkpt lat="45.622285" lon="10.8555072"><ele>120.0</ele><time>2026-04-26T08:04:41.058Z</time></trkpt><trkpt lat="45.6223709" lon="10.8556722"><ele>120.0</ele><time>2026-04-26T08:04:42.057Z</time></trkpt><trkpt lat="45.6224541" lon="10.8558414"><ele>120.0</ele><time>2026-04-26T08:04:43.057Z</time></trkpt><trkpt lat="45.6225493" lon="10.8560292"><ele>120.0</ele><time>2026-04-26T08:04:44.057Z</time></trkpt><trkpt lat="45.622649" lon="10.8562558"><ele>120.0</ele><time>2026-04-26T08:04:45.058Z</time></trkpt><trkpt lat="45.6227591" lon="10.8565209"><ele>120.0</ele><time>2026-04-26T08:04:46.057Z</time></trkpt><trkpt lat="45.6228903" lon="10.8568046"><ele>120.0</ele><time>2026-04-26T08:04:47.058Z</time></trkpt><trkpt lat="45.6230356" lon="10.8570921"><ele>120.0</ele><time>2026-04-26T08:04:48.058Z</time></trkpt><trkpt lat="45.6231714" lon="10.8573592"><ele>120.0</ele><time>2026-04-26T08:04:49.058Z</time></trkpt><trkpt lat="45.6232989" lon="10.8576076"><ele>120.0</ele><time>2026-04-26T08:04:50.057Z</time></trkpt><trkpt lat="45.623416" lon="10.8578442"><ele>120.0</ele><time>2026-04-26T08:04:51.058Z</time></trkpt><trkpt lat="45.6235358" lon="10.8580758"><ele>120.0</ele><time>2026-04-26T08:04:52.058Z</time></trkpt><trkpt lat="45.6236446" lon="10.8582954"><ele>120.0</ele><time>2026-04-26T08:04:53.057Z</time></trkpt><trkpt lat="45.6237418" lon="10.8585122"><ele>120.0</ele><time>2026-04-26T08:04:54.057Z</time></trkpt><trkpt lat="45.6238289" lon="10.8587342"><ele>123.33333333333334</ele><time>2026-04-26T08:04:55.058Z</time></trkpt><trkpt lat="45.6238974" lon="10.8589552"><ele>126.66666666666667</ele><time>2026-04-26T08:04:56.057Z</time></trkpt><trkpt lat="45.6239564" lon="10.859176"><ele>130.0</ele><time>2026-04-26T08:04:57.058Z</time></trkpt><trkpt lat="45.6240047" lon="10.8593923"><ele>130.0</ele><time>2026-04-26T08:04:58.058Z</time></trkpt><trkpt lat="45.6240429" lon="10.8596072"><ele>130.0</ele><time>2026-04-26T08:04:59.057Z</time></trkpt><trkpt lat="45.6240816" lon="10.8598147"><ele>130.0</ele><time>2026-04-26T08:05:00.057Z</time></trkpt><trkpt lat="45.6241244" lon="10.8600406"><ele>130.66666666666669</ele><time>2026-04-26T08:05:01.057Z</time></trkpt><trkpt lat="45.624174" lon="10.8602651"><ele>131.33333333333334</ele><time>2026-04-26T08:05:02.058Z</time></trkpt><trkpt lat="45.6242209" lon="10.8604907"><ele>132.0</ele><time>2026-04-26T08:05:03.057Z</time></trkpt><trkpt lat="45.6242655" lon="10.8607176"><ele>132.0</ele><time>2026-04-26T08:05:04.057Z</time></trkpt><trkpt lat="45.6243237" lon="10.8609444"><ele>132.0</ele><time>2026-04-26T08:05:05.057Z</time></trkpt><trkpt lat="45.6243989" lon="10.8611613"><ele>132.0</ele><time>2026-04-26T08:05:06.057Z</time></trkpt><trkpt lat="45.6244792" lon="10.8613817"><ele>131.0</ele><time>2026-04-26T08:05:07.056Z</time></trkpt><trkpt lat="45.6245612" lon="10.8616039"><ele>130.0</ele><time>2026-04-26T08:05:08.057Z</time></trkpt><trkpt lat="45.6246427" lon="10.8618316"><ele>129.0</ele><time>2026-04-26T08:05:09.057Z</time></trkpt><trkpt lat="45.6247193" lon="10.8620342"><ele>129.0</ele><time>2026-04-26T08:05:10.057Z</time></trkpt><trkpt lat="45.6247953" lon="10.862223"><ele>129.0</ele><time>2026-04-26T08:05:11.056Z</time></trkpt><trkpt lat="45.6248741" lon="10.8624016"><ele>129.0</ele><time>2026-04-26T08:05:12.056Z</time></trkpt><trkpt lat="45.6249457" lon="10.8625536"><ele>129.0</ele><time>2026-04-26T08:05:13.056Z</time></trkpt><trkpt lat="45.6250123" lon="10.8626718"><ele>128.8</ele><time>2026-04-26T08:05:14.057Z</time></trkpt><trkpt lat="45.6250674" lon="10.8627768"><ele>128.60000000000002</ele><time>2026-04-26T08:05:15.057Z</time></trkpt><trkpt lat="45.6251171" lon="10.862862"><ele>128.4</ele><time>2026-04-26T08:05:16.057Z</time></trkpt><trkpt lat="45.6251482" lon="10.8629755"><ele>128.20000000000002</ele><time>2026-04-26T08:05:18.056Z</time></trkpt><trkpt lat="45.6250936" lon="10.8631152"><ele>128.0</ele><time>2026-04-26T08:05:20.056Z</time></trkpt><trkpt lat="45.6250511" lon="10.8632294"><ele>128.0</ele><time>2026-04-26T08:05:21.057Z</time></trkpt><trkpt lat="45.625013" lon="10.863372"><ele>128.0</ele><time>2026-04-26T08:05:22.056Z</time></trkpt><trkpt lat="45.6249913" lon="10.8635208"><ele>128.0</ele><time>2026-04-26T08:05:23.056Z</time></trkpt><trkpt lat="45.6249816" lon="10.8636646"><ele>128.0</ele><time>2026-04-26T08:05:24.057Z</time></trkpt><trkpt lat="45.6249755" lon="10.8638076"><ele>128.0</ele><time>2026-04-26T08:05:25.057Z</time></trkpt><trkpt lat="45.6249694" lon="10.8639368"><ele>127.60000000000001</ele><time>2026-04-26T08:05:26.057Z</time></trkpt><trkpt lat="45.6249562" lon="10.8640561"><ele>127.20000000000002</ele><time>2026-04-26T08:05:27.057Z</time></trkpt><trkpt lat="45.6249249" lon="10.864171"><ele>126.8</ele><time>2026-04-26T08:05:28.056Z</time></trkpt><trkpt lat="45.6248685" lon="10.8642968"><ele>126.4</ele><time>2026-04-26T08:05:29.057Z</time></trkpt><trkpt lat="45.6248071" lon="10.8644267"><ele>126.0</ele><time>2026-04-26T08:05:30.057Z</time></trkpt><trkpt lat="45.6247531" lon="10.8645609"><ele>125.6</ele><time>2026-04-26T08:05:31.057Z</time></trkpt><trkpt lat="45.6246967" lon="10.8646747"><ele>125.19999999999999</ele><time>2026-04-26T08:05:32.057Z</time></trkpt><trkpt lat="45.6246539" lon="10.86477"><ele>124.80000000000001</ele><time>2026-04-26T08:05:33.056Z</time></trkpt><trkpt lat="45.6246029" lon="10.8648926"><ele>124.4</ele><time>2026-04-26T08:05:35.056Z</time></trkpt><trkpt lat="45.6246739" lon="10.8649412"><ele>124.0</ele><time>2026-04-26T08:05:45.057Z</time></trkpt><trkpt lat="45.6247707" lon="10.8649458"><ele>124.00000000000001</ele><time>2026-04-26T08:05:47.057Z</time></trkpt><trkpt lat="45.6248324" lon="10.8649647"><ele>124.0</ele><time>2026-04-26T08:05:48.057Z</time></trkpt><trkpt lat="45.6249076" lon="10.864992"><ele>124.0</ele><time>2026-04-26T08:05:49.056Z</time></trkpt><trkpt lat="45.6249978" lon="10.8650315"><ele>124.0</ele><time>2026-04-26T08:05:50.057Z</time></trkpt><trkpt lat="45.6250971" lon="10.8650809"><ele>124.00000000000001</ele><time>2026-04-26T08:05:51.056Z</time></trkpt><trkpt lat="45.6251922" lon="10.8651256"><ele>124.0</ele><time>2026-04-26T08:05:52.057Z</time></trkpt><trkpt lat="45.6252898" lon="10.8651855"><ele>124.0</ele><time>2026-04-26T08:05:53.057Z</time></trkpt><trkpt lat="45.6253957" lon="10.8652462"><ele>124.0</ele><time>2026-04-26T08:05:54.056Z</time></trkpt><trkpt lat="45.6255002" lon="10.8653321"><ele>124.0</ele><time>2026-04-26T08:05:55.057Z</time></trkpt><trkpt lat="45.6255989" lon="10.8654146"><ele>124.0</ele><time>2026-04-26T08:05:56.056Z</time></trkpt><trkpt lat="45.6256892" lon="10.8654952"><ele>124.0</ele><time>2026-04-26T08:05:57.056Z</time></trkpt><trkpt lat="45.6257686" lon="10.8655704"><ele>124.0</ele><time>2026-04-26T08:05:58.056Z</time></trkpt><trkpt lat="45.6258474" lon="10.8656449"><ele>124.0</ele><time>2026-04-26T08:05:59.057Z</time></trkpt><trkpt lat="45.6259331" lon="10.8657084"><ele>124.0</ele><time>2026-04-26T08:06:00.057Z</time></trkpt><trkpt lat="45.6260234" lon="10.8657778"><ele>124.0</ele><time>2026-04-26T08:06:01.056Z</time></trkpt><trkpt lat="45.6261154" lon="10.8658541"><ele>124.25</ele><time>2026-04-26T08:06:02.057Z</time></trkpt><trkpt lat="45.6262141" lon="10.865927"><ele>124.5</ele><time>2026-04-26T08:06:03.056Z</time></trkpt><trkpt lat="45.6263216" lon="10.8660209"><ele>124.75</ele><time>2026-04-26T08:06:04.057Z</time></trkpt><trkpt lat="45.6264291" lon="10.8661141"><ele>125.0</ele><time>2026-04-26T08:06:05.056Z</time></trkpt><trkpt lat="45.6265341" lon="10.8662054"><ele>124.5</ele><time>2026-04-26T08:06:06.057Z</time></trkpt><trkpt lat="45.6266439" lon="10.8663028"><ele>124.0</ele><time>2026-04-26T08:06:07.056Z</time></trkpt><trkpt lat="45.6267573" lon="10.8664167"><ele>123.5</ele><time>2026-04-26T08:06:08.057Z</time></trkpt><trkpt lat="45.62687" lon="10.8665172"><ele>123.0</ele><time>2026-04-26T08:06:09.057Z</time></trkpt><trkpt lat="45.6269801" lon="10.8666139"><ele>122.75</ele><time>2026-04-26T08:06:10.057Z</time></trkpt><trkpt lat="45.6270938" lon="10.8666985"><ele>122.5</ele><time>2026-04-26T08:06:11.057Z</time></trkpt><trkpt lat="45.6272029" lon="10.8667835"><ele>122.25</ele><time>2026-04-26T08:06:12.056Z</time></trkpt><trkpt lat="45.6273077" lon="10.8668771"><ele>122.0</ele><time>2026-04-26T08:06:13.057Z</time></trkpt><trkpt lat="45.6274145" lon="10.8669695"><ele>121.8</ele><time>2026-04-26T08:06:14.056Z</time></trkpt><trkpt lat="45.627514" lon="10.8670573"><ele>121.6</ele><time>2026-04-26T08:06:15.056Z</time></trkpt><trkpt lat="45.6276159" lon="10.8671377"><ele>121.39999999999999</ele><time>2026-04-26T08:06:16.057Z</time></trkpt><trkpt lat="45.6277103" lon="10.8672132"><ele>121.19999999999999</ele><time>2026-04-26T08:06:17.056Z</time></trkpt><trkpt lat="45.6278069" lon="10.8672769"><ele>121.0</ele><time>2026-04-26T08:06:18.056Z</time></trkpt><trkpt lat="45.6279052" lon="10.867352"><ele>121.5</ele><time>2026-04-26T08:06:19.056Z</time></trkpt><trkpt lat="45.6280045" lon="10.8674354"><ele>122.0</ele><time>2026-04-26T08:06:20.056Z</time></trkpt><trkpt lat="45.6281004" lon="10.8675231"><ele>122.5</ele><time>2026-04-26T08:06:21.056Z</time></trkpt><trkpt lat="45.6281934" lon="10.867605"><ele>123.0</ele><time>2026-04-26T08:06:22.056Z</time></trkpt><trkpt lat="45.6282985" lon="10.8676862"><ele>123.0</ele><time>2026-04-26T08:06:23.057Z</time></trkpt><trkpt lat="45.6284077" lon="10.8677735"><ele>123.00000000000001</ele><time>2026-04-26T08:06:24.057Z</time></trkpt><trkpt lat="45.6285033" lon="10.8678604"><ele>123.00000000000001</ele><time>2026-04-26T08:06:25.057Z</time></trkpt><trkpt lat="45.628591" lon="10.8679336"><ele>123.0</ele><time>2026-04-26T08:06:26.056Z</time></trkpt><trkpt lat="45.6286715" lon="10.8680104"><ele>123.0</ele><time>2026-04-26T08:06:27.057Z</time></trkpt><trkpt lat="45.6287513" lon="10.868079"><ele>122.75</ele><time>2026-04-26T08:06:28.056Z</time></trkpt><trkpt lat="45.6288412" lon="10.8681518"><ele>122.5</ele><time>2026-04-26T08:06:29.057Z</time></trkpt><trkpt lat="45.6289357" lon="10.8682362"><ele>122.25</ele><time>2026-04-26T08:06:30.056Z</time></trkpt><trkpt lat="45.6290474" lon="10.8683371"><ele>122.0</ele><time>2026-04-26T08:06:31.057Z</time></trkpt><trkpt lat="45.6291632" lon="10.8684459"><ele>122.0</ele><time>2026-04-26T08:06:32.057Z</time></trkpt><trkpt lat="45.6292838" lon="10.8685623"><ele>122.0</ele><time>2026-04-26T08:06:33.057Z</time></trkpt><trkpt lat="45.6294054" lon="10.8686728"><ele>122.0</ele><time>2026-04-26T08:06:34.057Z</time></trkpt><trkpt lat="45.6295183" lon="10.8687791"><ele>122.0</ele><time>2026-04-26T08:06:35.057Z</time></trkpt><trkpt lat="45.6296274" lon="10.8688734"><ele>122.5</ele><time>2026-04-26T08:06:36.057Z</time></trkpt><trkpt lat="45.6297381" lon="10.8689726"><ele>123.0</ele><time>2026-04-26T08:06:37.057Z</time></trkpt><trkpt lat="45.6298528" lon="10.8690722"><ele>123.5</ele><time>2026-04-26T08:06:38.056Z</time></trkpt><trkpt lat="45.6299741" lon="10.8691582"><ele>124.0</ele><time>2026-04-26T08:06:39.056Z</time></trkpt><trkpt lat="45.6300959" lon="10.8692595"><ele>123.33333333333334</ele><time>2026-04-26T08:06:40.057Z</time></trkpt><trkpt lat="45.6302257" lon="10.869363"><ele>122.66666666666666</ele><time>2026-04-26T08:06:41.057Z</time></trkpt><trkpt lat="45.6303586" lon="10.8694728"><ele>122.0</ele><time>2026-04-26T08:06:42.056Z</time></trkpt><trkpt lat="45.6304941" lon="10.8695839"><ele>122.0</ele><time>2026-04-26T08:06:43.057Z</time></trkpt><trkpt lat="45.6306248" lon="10.8696975"><ele>122.0</ele><time>2026-04-26T08:06:44.057Z</time></trkpt><trkpt lat="45.6307553" lon="10.8698135"><ele>122.0</ele><time>2026-04-26T08:06:45.057Z</time></trkpt><trkpt lat="45.6308883" lon="10.8699188"><ele>122.0</ele><time>2026-04-26T08:06:46.057Z</time></trkpt><trkpt lat="45.6310096" lon="10.8700264"><ele>122.0</ele><time>2026-04-26T08:06:47.056Z</time></trkpt><trkpt lat="45.6311187" lon="10.8701311"><ele>122.0</ele><time>2026-04-26T08:06:48.056Z</time></trkpt><trkpt lat="45.6312293" lon="10.8702432"><ele>122.0</ele><time>2026-04-26T08:06:49.056Z</time></trkpt><trkpt lat="45.6313416" lon="10.8703618"><ele>122.0</ele><time>2026-04-26T08:06:50.057Z</time></trkpt><trkpt lat="45.6314587" lon="10.8704877"><ele>122.0</ele><time>2026-04-26T08:06:51.057Z</time></trkpt><trkpt lat="45.6315819" lon="10.8706141"><ele>122.0</ele><time>2026-04-26T08:06:52.057Z</time></trkpt><trkpt lat="45.6317223" lon="10.8707522"><ele>122.0</ele><time>2026-04-26T08:06:53.057Z</time></trkpt><trkpt lat="45.6318656" lon="10.8708914"><ele>122.0</ele><time>2026-04-26T08:06:54.057Z</time></trkpt><trkpt lat="45.6319953" lon="10.8710258"><ele>122.0</ele><time>2026-04-26T08:06:55.056Z</time></trkpt><trkpt lat="45.6321009" lon="10.8711475"><ele>122.6</ele><time>2026-04-26T08:06:56.057Z</time></trkpt><trkpt lat="45.6321952" lon="10.8712475"><ele>123.19999999999999</ele><time>2026-04-26T08:06:57.056Z</time></trkpt><trkpt lat="45.6322816" lon="10.8713249"><ele>123.8</ele><time>2026-04-26T08:06:58.057Z</time></trkpt><trkpt lat="45.6323634" lon="10.8713944"><ele>124.4</ele><time>2026-04-26T08:06:59.056Z</time></trkpt><trkpt lat="45.6324289" lon="10.8714683"><ele>125.0</ele><time>2026-04-26T08:07:00.056Z</time></trkpt><trkpt lat="45.6324783" lon="10.871547"><ele>125.0</ele><time>2026-04-26T08:07:01.057Z</time></trkpt><trkpt lat="45.6325036" lon="10.8716544"><ele>125.0</ele><time>2026-04-26T08:07:02.056Z</time></trkpt><trkpt lat="45.6325001" lon="10.8718063"><ele>125.0</ele><time>2026-04-26T08:07:03.057Z</time></trkpt><trkpt lat="45.6324829" lon="10.8719778"><ele>125.0</ele><time>2026-04-26T08:07:04.057Z</time></trkpt><trkpt lat="45.6324717" lon="10.8721407"><ele>125.0</ele><time>2026-04-26T08:07:05.056Z</time></trkpt><trkpt lat="45.6324772" lon="10.872279"><ele>125.0</ele><time>2026-04-26T08:07:06.056Z</time></trkpt><trkpt lat="45.6325244" lon="10.8724012"><ele>125.0</ele><time>2026-04-26T08:07:07.056Z</time></trkpt><trkpt lat="45.6326079" lon="10.8725044"><ele>125.0</ele><time>2026-04-26T08:07:08.057Z</time></trkpt><trkpt lat="45.6327258" lon="10.8725884"><ele>125.0</ele><time>2026-04-26T08:07:09.056Z</time></trkpt><trkpt lat="45.6328623" lon="10.8726579"><ele>125.0</ele><time>2026-04-26T08:07:10.057Z</time></trkpt><trkpt lat="45.6330125" lon="10.8727448"><ele>125.0</ele><time>2026-04-26T08:07:11.056Z</time></trkpt><trkpt lat="45.633162" lon="10.8728397"><ele>125.0</ele><time>2026-04-26T08:07:12.056Z</time></trkpt><trkpt lat="45.6333161" lon="10.8729436"><ele>125.0</ele><time>2026-04-26T08:07:13.056Z</time></trkpt><trkpt lat="45.6334624" lon="10.8730391"><ele>125.0</ele><time>2026-04-26T08:07:14.056Z</time></trkpt><trkpt lat="45.633617" lon="10.8731374"><ele>125.0</ele><time>2026-04-26T08:07:15.057Z</time></trkpt><trkpt lat="45.6337797" lon="10.8732441"><ele>124.0</ele><time>2026-04-26T08:07:16.057Z</time></trkpt><trkpt lat="45.6339381" lon="10.8733531"><ele>123.0</ele><time>2026-04-26T08:07:17.057Z</time></trkpt><trkpt lat="45.6340845" lon="10.8734538"><ele>122.0</ele><time>2026-04-26T08:07:18.057Z</time></trkpt><trkpt lat="45.6342145" lon="10.8735453"><ele>122.0</ele><time>2026-04-26T08:07:19.056Z</time></trkpt><trkpt lat="45.6343301" lon="10.8736318"><ele>121.99999999999999</ele><time>2026-04-26T08:07:20.056Z</time></trkpt><trkpt lat="45.6344321" lon="10.8737145"><ele>121.99999999999999</ele><time>2026-04-26T08:07:21.056Z</time></trkpt><trkpt lat="45.6345233" lon="10.8737829"><ele>122.0</ele><time>2026-04-26T08:07:22.057Z</time></trkpt><trkpt lat="45.6346022" lon="10.873851"><ele>122.0</ele><time>2026-04-26T08:07:23.057Z</time></trkpt><trkpt lat="45.6346649" lon="10.8738972"><ele>122.0</ele><time>2026-04-26T08:07:24.057Z</time></trkpt><trkpt lat="45.6347417" lon="10.8739085"><ele>121.99999999999999</ele><time>2026-04-26T08:07:26.057Z</time></trkpt><trkpt lat="45.6347784" lon="10.8738199"><ele>121.99999999999999</ele><time>2026-04-26T08:07:28.057Z</time></trkpt><trkpt lat="45.6348094" lon="10.873681"><ele>122.0</ele><time>2026-04-26T08:07:30.056Z</time></trkpt><trkpt lat="45.6348663" lon="10.8735402"><ele>122.0</ele><time>2026-04-26T08:07:32.056Z</time></trkpt><trkpt lat="45.634914" lon="10.8734304"><ele>121.99999999999999</ele><time>2026-04-26T08:07:34.057Z</time></trkpt><trkpt lat="45.6350043" lon="10.8734244"><ele>122.0</ele><time>2026-04-26T08:07:37.056Z</time></trkpt><trkpt lat="45.6350908" lon="10.8734988"><ele>122.0</ele><time>2026-04-26T08:07:39.056Z</time></trkpt><trkpt lat="45.6351467" lon="10.8735505"><ele>122.0</ele><time>2026-04-26T08:07:40.056Z</time></trkpt><trkpt lat="45.6352128" lon="10.8736071"><ele>121.99999999999999</ele><time>2026-04-26T08:07:41.057Z</time></trkpt><trkpt lat="45.6352906" lon="10.8736709"><ele>122.0</ele><time>2026-04-26T08:07:42.057Z</time></trkpt><trkpt lat="45.6353783" lon="10.873749"><ele>122.0</ele><time>2026-04-26T08:07:43.057Z</time></trkpt><trkpt lat="45.6354669" lon="10.8738265"><ele>121.99999999999999</ele><time>2026-04-26T08:07:44.057Z</time></trkpt><trkpt lat="45.6355626" lon="10.8739039"><ele>121.99999999999999</ele><time>2026-04-26T08:07:45.057Z</time></trkpt><trkpt lat="45.6356551" lon="10.8739827"><ele>122.0</ele><time>2026-04-26T08:07:46.056Z</time></trkpt><trkpt lat="45.6357489" lon="10.8740749"><ele>122.0</ele><time>2026-04-26T08:07:47.057Z</time></trkpt><trkpt lat="45.6358452" lon="10.874165"><ele>122.0</ele><time>2026-04-26T08:07:48.056Z</time></trkpt><trkpt lat="45.6359371" lon="10.8742549"><ele>121.99999999999999</ele><time>2026-04-26T08:07:49.057Z</time></trkpt><trkpt lat="45.636021" lon="10.8743339"><ele>121.99999999999999</ele><time>2026-04-26T08:07:50.057Z</time></trkpt><trkpt lat="45.6360984" lon="10.8744131"><ele>122.0</ele><time>2026-04-26T08:07:51.056Z</time></trkpt><trkpt lat="45.6361714" lon="10.8744842"><ele>122.0</ele><time>2026-04-26T08:07:52.057Z</time></trkpt><trkpt lat="45.63624" lon="10.8745503"><ele>121.8</ele><time>2026-04-26T08:07:53.057Z</time></trkpt><trkpt lat="45.6363166" lon="10.8746346"><ele>121.6</ele><time>2026-04-26T08:07:54.057Z</time></trkpt><trkpt lat="45.6364012" lon="10.8747223"><ele>121.39999999999999</ele><time>2026-04-26T08:07:55.056Z</time></trkpt><trkpt lat="45.636491" lon="10.8748027"><ele>121.19999999999999</ele><time>2026-04-26T08:07:56.056Z</time></trkpt><trkpt lat="45.636583" lon="10.8748892"><ele>121.0</ele><time>2026-04-26T08:07:57.056Z</time></trkpt><trkpt lat="45.6366758" lon="10.8749899"><ele>121.0</ele><time>2026-04-26T08:07:58.056Z</time></trkpt><trkpt lat="45.6367766" lon="10.8751034"><ele>121.0</ele><time>2026-04-26T08:07:59.057Z</time></trkpt><trkpt lat="45.6368806" lon="10.8752098"><ele>121.0</ele><time>2026-04-26T08:08:00.057Z</time></trkpt><trkpt lat="45.6369857" lon="10.8753071"><ele>121.0</ele><time>2026-04-26T08:08:01.057Z</time></trkpt><trkpt lat="45.6370915" lon="10.8753943"><ele>121.0</ele><time>2026-04-26T08:08:02.057Z</time></trkpt><trkpt lat="45.6371934" lon="10.8754798"><ele>121.0</ele><time>2026-04-26T08:08:03.057Z</time></trkpt><trkpt lat="45.6372856" lon="10.8755653"><ele>121.0</ele><time>2026-04-26T08:08:04.057Z</time></trkpt><trkpt lat="45.6373726" lon="10.8756472"><ele>121.0</ele><time>2026-04-26T08:08:05.057Z</time></trkpt><trkpt lat="45.637443" lon="10.8757219"><ele>121.0</ele><time>2026-04-26T08:08:06.056Z</time></trkpt><trkpt lat="45.6375086" lon="10.8757904"><ele>121.0</ele><time>2026-04-26T08:08:07.057Z</time></trkpt><trkpt lat="45.6375669" lon="10.8758501"><ele>121.0</ele><time>2026-04-26T08:08:08.056Z</time></trkpt><trkpt lat="45.6376338" lon="10.875992"><ele>121.0</ele><time>2026-04-26T08:08:10.056Z</time></trkpt><trkpt lat="45.637633" lon="10.8761717"><ele>121.0</ele><time>2026-04-26T08:08:12.057Z</time></trkpt><trkpt lat="45.6376255" lon="10.8762807"><ele>121.0</ele><time>2026-04-26T08:08:13.057Z</time></trkpt><trkpt lat="45.6376268" lon="10.8763797"><ele>120.8</ele><time>2026-04-26T08:08:14.057Z</time></trkpt><trkpt lat="45.6376764" lon="10.8765322"><ele>120.6</ele><time>2026-04-26T08:08:16.057Z</time></trkpt><trkpt lat="45.6377854" lon="10.8766354"><ele>120.4</ele><time>2026-04-26T08:08:18.057Z</time></trkpt><trkpt lat="45.6378655" lon="10.8766788"><ele>120.2</ele><time>2026-04-26T08:08:19.056Z</time></trkpt><trkpt lat="45.6379521" lon="10.8767207"><ele>120.0</ele><time>2026-04-26T08:08:20.056Z</time></trkpt><trkpt lat="45.6380261" lon="10.8767528"><ele>119.66666666666667</ele><time>2026-04-26T08:08:21.056Z</time></trkpt><trkpt lat="45.6381246" lon="10.8768015"><ele>119.33333333333334</ele><time>2026-04-26T08:08:23.056Z</time></trkpt><trkpt lat="45.6381397" lon="10.8769121"><ele>119.0</ele><time>2026-04-26T08:08:26.055Z</time></trkpt><trkpt lat="45.6381871" lon="10.8769882"><ele>118.66666666666667</ele><time>2026-04-26T08:08:30.056Z</time></trkpt><trkpt lat="45.6382769" lon="10.8770417"><ele>118.33333333333334</ele><time>2026-04-26T08:08:32.055Z</time></trkpt><trkpt lat="45.638342" lon="10.8770736"><ele>118.0</ele><time>2026-04-26T08:08:33.055Z</time></trkpt><trkpt lat="45.6384114" lon="10.8771023"><ele>118.00000000000001</ele><time>2026-04-26T08:08:34.055Z</time></trkpt><trkpt lat="45.638476" lon="10.8771185"><ele>118.0</ele><time>2026-04-26T08:08:35.056Z</time></trkpt><trkpt lat="45.6385768" lon="10.8771177"><ele>118.0</ele><time>2026-04-26T08:08:37.056Z</time></trkpt><trkpt lat="45.638655" lon="10.8771342"><ele>118.0</ele><time>2026-04-26T08:08:39.055Z</time></trkpt><trkpt lat="45.638745" lon="10.8772323"><ele>118.00000000000001</ele><time>2026-04-26T08:08:41.055Z</time></trkpt><trkpt lat="45.6388007" lon="10.8773192"><ele>118.0</ele><time>2026-04-26T08:08:42.055Z</time></trkpt><trkpt lat="45.6388562" lon="10.8774051"><ele>118.0</ele><time>2026-04-26T08:08:43.056Z</time></trkpt><trkpt lat="45.6389184" lon="10.8774906"><ele>118.00000000000001</ele><time>2026-04-26T08:08:44.055Z</time></trkpt><trkpt lat="45.6389811" lon="10.8775733"><ele>118.00000000000001</ele><time>2026-04-26T08:08:45.056Z</time></trkpt><trkpt lat="45.6390484" lon="10.8776563"><ele>118.0</ele><time>2026-04-26T08:08:46.055Z</time></trkpt><trkpt lat="45.6391218" lon="10.8777367"><ele>118.0</ele><time>2026-04-26T08:08:47.056Z</time></trkpt><trkpt lat="45.639201" lon="10.8778211"><ele>118.0</ele><time>2026-04-26T08:08:48.056Z</time></trkpt><trkpt lat="45.6392852" lon="10.8779128"><ele>118.00000000000001</ele><time>2026-04-26T08:08:49.056Z</time></trkpt><trkpt lat="45.6393744" lon="10.8780105"><ele>118.00000000000001</ele><time>2026-04-26T08:08:50.056Z</time></trkpt><trkpt lat="45.639455" lon="10.8781032"><ele>118.0</ele><time>2026-04-26T08:08:51.055Z</time></trkpt><trkpt lat="45.6395285" lon="10.8781929"><ele>118.0</ele><time>2026-04-26T08:08:52.055Z</time></trkpt><trkpt lat="45.6395974" lon="10.8782711"><ele>118.4</ele><time>2026-04-26T08:08:53.055Z</time></trkpt><trkpt lat="45.6396747" lon="10.8783515"><ele>118.80000000000001</ele><time>2026-04-26T08:08:54.055Z</time></trkpt><trkpt lat="45.6397611" lon="10.8784348"><ele>119.2</ele><time>2026-04-26T08:08:55.056Z</time></trkpt><trkpt lat="45.6398462" lon="10.8785233"><ele>119.6</ele><time>2026-04-26T08:08:56.055Z</time></trkpt><trkpt lat="45.6399348" lon="10.8786029"><ele>120.0</ele><time>2026-04-26T08:08:57.055Z</time></trkpt><trkpt lat="45.640009" lon="10.8786796"><ele>119.4</ele><time>2026-04-26T08:08:58.055Z</time></trkpt><trkpt lat="45.640084" lon="10.8787447"><ele>118.8</ele><time>2026-04-26T08:08:59.055Z</time></trkpt><trkpt lat="45.6401588" lon="10.8788176"><ele>118.19999999999999</ele><time>2026-04-26T08:09:00.056Z</time></trkpt><trkpt lat="45.6402415" lon="10.8788854"><ele>117.6</ele><time>2026-04-26T08:09:01.056Z</time></trkpt><trkpt lat="45.6403256" lon="10.8789516"><ele>117.0</ele><time>2026-04-26T08:09:02.055Z</time></trkpt><trkpt lat="45.6404154" lon="10.8790293"><ele>117.0</ele><time>2026-04-26T08:09:03.055Z</time></trkpt><trkpt lat="45.6405114" lon="10.8791139"><ele>117.0</ele><time>2026-04-26T08:09:04.056Z</time></trkpt><trkpt lat="45.6406141" lon="10.8792013"><ele>117.0</ele><time>2026-04-26T08:09:05.055Z</time></trkpt><trkpt lat="45.6407211" lon="10.8792863"><ele>117.0</ele><time>2026-04-26T08:09:06.056Z</time></trkpt><trkpt lat="45.6408329" lon="10.8793614"><ele>116.75</ele><time>2026-04-26T08:09:07.056Z</time></trkpt><trkpt lat="45.6409544" lon="10.8794355"><ele>116.5</ele><time>2026-04-26T08:09:08.056Z</time></trkpt><trkpt lat="45.6410904" lon="10.8795216"><ele>116.25</ele><time>2026-04-26T08:09:09.055Z</time></trkpt><trkpt lat="45.6412233" lon="10.8796165"><ele>116.0</ele><time>2026-04-26T08:09:10.056Z</time></trkpt><trkpt lat="45.6413513" lon="10.879706"><ele>116.0</ele><time>2026-04-26T08:09:11.055Z</time></trkpt><trkpt lat="45.6414699" lon="10.8797903"><ele>116.0</ele><time>2026-04-26T08:09:12.056Z</time></trkpt><trkpt lat="45.6415789" lon="10.8798697"><ele>116.0</ele><time>2026-04-26T08:09:13.056Z</time></trkpt><trkpt lat="45.6416795" lon="10.8799506"><ele>116.0</ele><time>2026-04-26T08:09:14.056Z</time></trkpt><trkpt lat="45.641779" lon="10.8800359"><ele>115.19999999999999</ele><time>2026-04-26T08:09:15.055Z</time></trkpt><trkpt lat="45.64187" lon="10.8801209"><ele>114.39999999999999</ele><time>2026-04-26T08:09:16.055Z</time></trkpt><trkpt lat="45.6419554" lon="10.8802039"><ele>113.6</ele><time>2026-04-26T08:09:17.056Z</time></trkpt><trkpt lat="45.6420406" lon="10.8802908"><ele>112.8</ele><time>2026-04-26T08:09:18.055Z</time></trkpt><trkpt lat="45.6421247" lon="10.8803881"><ele>112.0</ele><time>2026-04-26T08:09:19.055Z</time></trkpt><trkpt lat="45.6422088" lon="10.8804837"><ele>111.66666666666667</ele><time>2026-04-26T08:09:20.055Z</time></trkpt><trkpt lat="45.6422841" lon="10.8805717"><ele>111.33333333333334</ele><time>2026-04-26T08:09:21.056Z</time></trkpt><trkpt lat="45.6423515" lon="10.8806447"><ele>111.0</ele><time>2026-04-26T08:09:22.056Z</time></trkpt><trkpt lat="45.6424153" lon="10.8807077"><ele>110.66666666666666</ele><time>2026-04-26T08:09:23.056Z</time></trkpt><trkpt lat="45.642472" lon="10.8807571"><ele>110.33333333333333</ele><time>2026-04-26T08:09:24.056Z</time></trkpt><trkpt lat="45.6425734" lon="10.8807702"><ele>110.0</ele><time>2026-04-26T08:09:26.055Z</time></trkpt><trkpt lat="45.6426686" lon="10.8806774"><ele>109.99999999999999</ele><time>2026-04-26T08:09:28.056Z</time></trkpt><trkpt lat="45.6427237" lon="10.8806207"><ele>110.0</ele><time>2026-04-26T08:09:29.056Z</time></trkpt><trkpt lat="45.6427867" lon="10.8805567"><ele>110.0</ele><time>2026-04-26T08:09:30.055Z</time></trkpt><trkpt lat="45.6428494" lon="10.8805079"><ele>110.0</ele><time>2026-04-26T08:09:31.056Z</time></trkpt><trkpt lat="45.6429133" lon="10.8804602"><ele>110.0</ele><time>2026-04-26T08:09:32.055Z</time></trkpt><trkpt lat="45.6429808" lon="10.8804211"><ele>109.99999999999999</ele><time>2026-04-26T08:09:33.056Z</time></trkpt><trkpt lat="45.6430474" lon="10.8803729"><ele>110.0</ele><time>2026-04-26T08:09:34.056Z</time></trkpt><trkpt lat="45.6431111" lon="10.8803076"><ele>109.85714285714285</ele><time>2026-04-26T08:09:35.055Z</time></trkpt><trkpt lat="45.6431707" lon="10.8802403"><ele>109.71428571428571</ele><time>2026-04-26T08:09:36.055Z</time></trkpt><trkpt lat="45.6432279" lon="10.8801754"><ele>109.57142857142857</ele><time>2026-04-26T08:09:37.056Z</time></trkpt><trkpt lat="45.6432765" lon="10.8801138"><ele>109.42857142857142</ele><time>2026-04-26T08:09:38.055Z</time></trkpt><trkpt lat="45.6433166" lon="10.8800413"><ele>109.28571428571429</ele><time>2026-04-26T08:09:39.055Z</time></trkpt><trkpt lat="45.6433453" lon="10.8799428"><ele>109.14285714285714</ele><time>2026-04-26T08:09:40.056Z</time></trkpt><trkpt lat="45.6433616" lon="10.8798157"><ele>109.0</ele><time>2026-04-26T08:09:41.056Z</time></trkpt><trkpt lat="45.6433619" lon="10.8796538"><ele>109.0</ele><time>2026-04-26T08:09:42.055Z</time></trkpt><trkpt lat="45.6433568" lon="10.879486"><ele>109.0</ele><time>2026-04-26T08:09:43.055Z</time></trkpt><trkpt lat="45.6433437" lon="10.879329"><ele>109.0</ele><time>2026-04-26T08:09:44.056Z</time></trkpt><trkpt lat="45.6433206" lon="10.8791725"><ele>109.0</ele><time>2026-04-26T08:09:45.055Z</time></trkpt><trkpt lat="45.643288" lon="10.879023"><ele>109.0</ele><time>2026-04-26T08:09:46.056Z</time></trkpt><trkpt lat="45.6432553" lon="10.8788931"><ele>109.83333333333334</ele><time>2026-04-26T08:09:47.055Z</time></trkpt><trkpt lat="45.6432196" lon="10.8787789"><ele>110.66666666666667</ele><time>2026-04-26T08:09:48.055Z</time></trkpt><trkpt lat="45.643183" lon="10.8786862"><ele>111.5</ele><time>2026-04-26T08:09:49.056Z</time></trkpt><trkpt lat="45.6431453" lon="10.8786079"><ele>112.33333333333334</ele><time>2026-04-26T08:09:50.055Z</time></trkpt><trkpt lat="45.6430911" lon="10.8785138"><ele>113.16666666666667</ele><time>2026-04-26T08:09:52.056Z</time></trkpt><trkpt lat="45.6430999" lon="10.878397"><ele>114.0</ele><time>2026-04-26T08:10:05.055Z</time></trkpt><trkpt lat="45.6431884" lon="10.8783854"><ele>114.0</ele><time>2026-04-26T08:10:07.056Z</time></trkpt><trkpt lat="45.6432794" lon="10.8784247"><ele>114.0</ele><time>2026-04-26T08:10:08.056Z</time></trkpt><trkpt lat="45.643391" lon="10.8784676"><ele>114.0</ele><time>2026-04-26T08:10:09.055Z</time></trkpt><trkpt lat="45.6435076" lon="10.8785049"><ele>114.0</ele><time>2026-04-26T08:10:10.055Z</time></trkpt><trkpt lat="45.6436321" lon="10.8785497"><ele>114.5</ele><time>2026-04-26T08:10:11.056Z</time></trkpt><trkpt lat="45.6437599" lon="10.878601"><ele>115.0</ele><time>2026-04-26T08:10:12.055Z</time></trkpt><trkpt lat="45.6439028" lon="10.8786645"><ele>115.5</ele><time>2026-04-26T08:10:13.056Z</time></trkpt><trkpt lat="45.6440584" lon="10.8787268"><ele>116.0</ele><time>2026-04-26T08:10:14.056Z</time></trkpt><trkpt lat="45.6442201" lon="10.878793"><ele>116.0</ele><time>2026-04-26T08:10:15.055Z</time></trkpt><trkpt lat="45.6443868" lon="10.8788574"><ele>116.0</ele><time>2026-04-26T08:10:16.056Z</time></trkpt><trkpt lat="45.6445648" lon="10.8789123"><ele>116.0</ele><time>2026-04-26T08:10:17.055Z</time></trkpt><trkpt lat="45.6447483" lon="10.8789776"><ele>118.0</ele><time>2026-04-26T08:10:18.056Z</time></trkpt><trkpt lat="45.6449302" lon="10.8790359"><ele>120.0</ele><time>2026-04-26T08:10:19.056Z</time></trkpt><trkpt lat="45.6451174" lon="10.8791036"><ele>122.0</ele><time>2026-04-26T08:10:20.056Z</time></trkpt><trkpt lat="45.6452986" lon="10.8791717"><ele>124.0</ele><time>2026-04-26T08:10:21.056Z</time></trkpt><trkpt lat="45.6454854" lon="10.879244"><ele>126.0</ele><time>2026-04-26T08:10:22.056Z</time></trkpt><trkpt lat="45.6456786" lon="10.879314"><ele>128.0</ele><time>2026-04-26T08:10:23.055Z</time></trkpt><trkpt lat="45.6458734" lon="10.8793672"><ele>129.33333333333331</ele><time>2026-04-26T08:10:24.055Z</time></trkpt><trkpt lat="45.646061" lon="10.8794315"><ele>130.66666666666666</ele><time>2026-04-26T08:10:25.056Z</time></trkpt><trkpt lat="45.6462388" lon="10.8795044"><ele>132.0</ele><time>2026-04-26T08:10:26.056Z</time></trkpt><trkpt lat="45.6464029" lon="10.8796058"><ele>132.0</ele><time>2026-04-26T08:10:27.056Z</time></trkpt><trkpt lat="45.646546" lon="10.8797433"><ele>132.0</ele><time>2026-04-26T08:10:28.055Z</time></trkpt><trkpt lat="45.6466757" lon="10.8799007"><ele>132.0</ele><time>2026-04-26T08:10:29.055Z</time></trkpt><trkpt lat="45.646792" lon="10.8800683"><ele>127.33333333333334</ele><time>2026-04-26T08:10:30.055Z</time></trkpt><trkpt lat="45.6468961" lon="10.8802635"><ele>122.66666666666667</ele><time>2026-04-26T08:10:31.056Z</time></trkpt><trkpt lat="45.6469961" lon="10.8804837"><ele>118.0</ele><time>2026-04-26T08:10:32.055Z</time></trkpt><trkpt lat="45.6470995" lon="10.8807215"><ele>122.66666666666667</ele><time>2026-04-26T08:10:33.056Z</time></trkpt><trkpt lat="45.6472024" lon="10.8809621"><ele>127.33333333333334</ele><time>2026-04-26T08:10:34.056Z</time></trkpt><trkpt lat="45.6473042" lon="10.8811944"><ele>132.0</ele><time>2026-04-26T08:10:35.055Z</time></trkpt><trkpt lat="45.6474022" lon="10.88142"><ele>132.0</ele><time>2026-04-26T08:10:36.056Z</time></trkpt><trkpt lat="45.6474977" lon="10.8816436"><ele>132.0</ele><time>2026-04-26T08:10:37.056Z</time></trkpt><trkpt lat="45.647604" lon="10.8818554"><ele>132.0</ele><time>2026-04-26T08:10:38.056Z</time></trkpt><trkpt lat="45.6477013" lon="10.8820683"><ele>132.33333333333334</ele><time>2026-04-26T08:10:39.056Z</time></trkpt><trkpt lat="45.6477954" lon="10.8822865"><ele>132.66666666666669</ele><time>2026-04-26T08:10:40.055Z</time></trkpt><trkpt lat="45.6478946" lon="10.8824961"><ele>133.0</ele><time>2026-04-26T08:10:41.056Z</time></trkpt><trkpt lat="45.648013" lon="10.8826852"><ele>129.66666666666669</ele><time>2026-04-26T08:10:42.055Z</time></trkpt><trkpt lat="45.6481381" lon="10.8828605"><ele>126.33333333333334</ele><time>2026-04-26T08:10:43.056Z</time></trkpt><trkpt lat="45.6482798" lon="10.8830289"><ele>123.0</ele><time>2026-04-26T08:10:44.056Z</time></trkpt><trkpt lat="45.6484317" lon="10.8832045"><ele>123.0</ele><time>2026-04-26T08:10:45.056Z</time></trkpt><trkpt lat="45.6485916" lon="10.883368"><ele>123.0</ele><time>2026-04-26T08:10:46.056Z</time></trkpt><trkpt lat="45.6487479" lon="10.8835192"><ele>123.0</ele><time>2026-04-26T08:10:47.055Z</time></trkpt><trkpt lat="45.6489002" lon="10.8836568"><ele>123.0</ele><time>2026-04-26T08:10:48.055Z</time></trkpt><trkpt lat="45.6490594" lon="10.8837975"><ele>123.0</ele><time>2026-04-26T08:10:49.055Z</time></trkpt><trkpt lat="45.6492167" lon="10.8839397"><ele>123.0</ele><time>2026-04-26T08:10:50.056Z</time></trkpt><trkpt lat="45.6493816" lon="10.8840958"><ele>125.0</ele><time>2026-04-26T08:10:51.055Z</time></trkpt><trkpt lat="45.6495516" lon="10.8842492"><ele>127.0</ele><time>2026-04-26T08:10:52.056Z</time></trkpt><trkpt lat="45.6497267" lon="10.8844031"><ele>129.0</ele><time>2026-04-26T08:10:53.056Z</time></trkpt><trkpt lat="45.6498983" lon="10.884553"><ele>129.0</ele><time>2026-04-26T08:10:54.055Z</time></trkpt><trkpt lat="45.6500617" lon="10.8847001"><ele>129.0</ele><time>2026-04-26T08:10:55.056Z</time></trkpt><trkpt lat="45.6502235" lon="10.8848522"><ele>129.0</ele><time>2026-04-26T08:10:56.056Z</time></trkpt><trkpt lat="45.6503782" lon="10.8850224"><ele>129.0</ele><time>2026-04-26T08:10:57.056Z</time></trkpt><trkpt lat="45.6505268" lon="10.8852026"><ele>129.0</ele><time>2026-04-26T08:10:58.056Z</time></trkpt><trkpt lat="45.6506565" lon="10.885399"><ele>129.0</ele><time>2026-04-26T08:10:59.056Z</time></trkpt><trkpt lat="45.65079" lon="10.8856065"><ele>129.0</ele><time>2026-04-26T08:11:00.055Z</time></trkpt><trkpt lat="45.6509288" lon="10.8858223"><ele>129.0</ele><time>2026-04-26T08:11:01.055Z</time></trkpt><trkpt lat="45.6510716" lon="10.8860335"><ele>129.0</ele><time>2026-04-26T08:11:02.056Z</time></trkpt><trkpt lat="45.6512072" lon="10.8862442"><ele>128.66666666666666</ele><time>2026-04-26T08:11:03.055Z</time></trkpt><trkpt lat="45.6513374" lon="10.886451"><ele>128.33333333333331</ele><time>2026-04-26T08:11:04.056Z</time></trkpt><trkpt lat="45.6514672" lon="10.8866532"><ele>128.0</ele><time>2026-04-26T08:11:05.056Z</time></trkpt><trkpt lat="45.6516021" lon="10.8868485"><ele>128.0</ele><time>2026-04-26T08:11:06.055Z</time></trkpt><trkpt lat="45.6517261" lon="10.8870243"><ele>128.0</ele><time>2026-04-26T08:11:07.055Z</time></trkpt><trkpt lat="45.65186" lon="10.8871932"><ele>128.0</ele><time>2026-04-26T08:11:08.056Z</time></trkpt><trkpt lat="45.6519793" lon="10.8873568"><ele>129.33333333333331</ele><time>2026-04-26T08:11:09.056Z</time></trkpt><trkpt lat="45.6521004" lon="10.8874995"><ele>130.66666666666666</ele><time>2026-04-26T08:11:10.055Z</time></trkpt><trkpt lat="45.6522171" lon="10.8876487"><ele>132.0</ele><time>2026-04-26T08:11:11.056Z</time></trkpt><trkpt lat="45.6523302" lon="10.8877832"><ele>132.0</ele><time>2026-04-26T08:11:12.055Z</time></trkpt><trkpt lat="45.6524393" lon="10.8879025"><ele>132.0</ele><time>2026-04-26T08:11:13.056Z</time></trkpt><trkpt lat="45.6525485" lon="10.8880101"><ele>132.0</ele><time>2026-04-26T08:11:14.056Z</time></trkpt><trkpt lat="45.652659" lon="10.8881062"><ele>132.0</ele><time>2026-04-26T08:11:15.056Z</time></trkpt><trkpt lat="45.6527602" lon="10.8882014"><ele>131.75</ele><time>2026-04-26T08:11:16.055Z</time></trkpt><trkpt lat="45.6528341" lon="10.8883051"><ele>131.5</ele><time>2026-04-26T08:11:17.056Z</time></trkpt><trkpt lat="45.6528854" lon="10.8884409"><ele>131.25</ele><time>2026-04-26T08:11:18.056Z</time></trkpt><trkpt lat="45.6529263" lon="10.8886191"><ele>131.0</ele><time>2026-04-26T08:11:19.056Z</time></trkpt><trkpt lat="45.6529619" lon="10.88885"><ele>131.0</ele><time>2026-04-26T08:11:20.055Z</time></trkpt><trkpt lat="45.6530175" lon="10.8890917"><ele>131.0</ele><time>2026-04-26T08:11:21.056Z</time></trkpt><trkpt lat="45.6530764" lon="10.8893268"><ele>131.0</ele><time>2026-04-26T08:11:22.056Z</time></trkpt><trkpt lat="45.6531303" lon="10.8895515"><ele>130.33333333333331</ele><time>2026-04-26T08:11:23.056Z</time></trkpt><trkpt lat="45.6531852" lon="10.8897766"><ele>129.66666666666666</ele><time>2026-04-26T08:11:24.056Z</time></trkpt><trkpt lat="45.6532309" lon="10.890009"><ele>129.0</ele><time>2026-04-26T08:11:25.055Z</time></trkpt><trkpt lat="45.6532883" lon="10.8902308"><ele>128.33333333333334</ele><time>2026-04-26T08:11:26.055Z</time></trkpt><trkpt lat="45.6533467" lon="10.8904419"><ele>127.66666666666667</ele><time>2026-04-26T08:11:27.054Z</time></trkpt><trkpt lat="45.6534184" lon="10.8906339"><ele>127.0</ele><time>2026-04-26T08:11:28.054Z</time></trkpt><trkpt lat="45.653502" lon="10.8908067"><ele>127.0</ele><time>2026-04-26T08:11:29.054Z</time></trkpt><trkpt lat="45.653589" lon="10.8909821"><ele>127.0</ele><time>2026-04-26T08:11:30.054Z</time></trkpt><trkpt lat="45.653685" lon="10.8911454"><ele>127.0</ele><time>2026-04-26T08:11:31.054Z</time></trkpt><trkpt lat="45.6537901" lon="10.8913093"><ele>127.0</ele><time>2026-04-26T08:11:32.055Z</time></trkpt><trkpt lat="45.6538944" lon="10.8914759"><ele>127.0</ele><time>2026-04-26T08:11:33.055Z</time></trkpt><trkpt lat="45.6539921" lon="10.8916408"><ele>127.0</ele><time>2026-04-26T08:11:34.054Z</time></trkpt><trkpt lat="45.6540827" lon="10.8918183"><ele>126.75</ele><time>2026-04-26T08:11:35.055Z</time></trkpt><trkpt lat="45.6541695" lon="10.8919947"><ele>126.5</ele><time>2026-04-26T08:11:36.054Z</time></trkpt><trkpt lat="45.6542422" lon="10.8921762"><ele>126.25</ele><time>2026-04-26T08:11:37.054Z</time></trkpt><trkpt lat="45.6543092" lon="10.8923694"><ele>126.0</ele><time>2026-04-26T08:11:38.054Z</time></trkpt><trkpt lat="45.6543586" lon="10.8925633"><ele>125.75</ele><time>2026-04-26T08:11:39.055Z</time></trkpt><trkpt lat="45.654395" lon="10.8927472"><ele>125.5</ele><time>2026-04-26T08:11:40.054Z</time></trkpt><trkpt lat="45.65444" lon="10.8929142"><ele>125.25</ele><time>2026-04-26T08:11:41.054Z</time></trkpt><trkpt lat="45.6544875" lon="10.8930648"><ele>125.0</ele><time>2026-04-26T08:11:42.055Z</time></trkpt><trkpt lat="45.6545362" lon="10.8932008"><ele>124.6</ele><time>2026-04-26T08:11:43.054Z</time></trkpt><trkpt lat="45.6545916" lon="10.8933252"><ele>124.2</ele><time>2026-04-26T08:11:44.055Z</time></trkpt><trkpt lat="45.654653" lon="10.8934498"><ele>123.80000000000001</ele><time>2026-04-26T08:11:45.055Z</time></trkpt><trkpt lat="45.6547323" lon="10.8935742"><ele>123.4</ele><time>2026-04-26T08:11:46.055Z</time></trkpt><trkpt lat="45.6548216" lon="10.8936799"><ele>123.0</ele><time>2026-04-26T08:11:47.054Z</time></trkpt><trkpt lat="45.65493" lon="10.8937511"><ele>122.5</ele><time>2026-04-26T08:11:48.054Z</time></trkpt><trkpt lat="45.6550569" lon="10.8937975"><ele>122.0</ele><time>2026-04-26T08:11:49.054Z</time></trkpt><trkpt lat="45.6551881" lon="10.8938315"><ele>121.5</ele><time>2026-04-26T08:11:50.054Z</time></trkpt><trkpt lat="45.65533" lon="10.8938508"><ele>121.0</ele><time>2026-04-26T08:11:51.055Z</time></trkpt><trkpt lat="45.6554792" lon="10.8938673"><ele>121.0</ele><time>2026-04-26T08:11:52.055Z</time></trkpt><trkpt lat="45.6556346" lon="10.8938751"><ele>121.0</ele><time>2026-04-26T08:11:53.055Z</time></trkpt><trkpt lat="45.6557863" lon="10.8938844"><ele>121.0</ele><time>2026-04-26T08:11:54.054Z</time></trkpt><trkpt lat="45.655937" lon="10.8938977"><ele>121.0</ele><time>2026-04-26T08:11:55.055Z</time></trkpt><trkpt lat="45.656074" lon="10.8939295"><ele>121.0</ele><time>2026-04-26T08:11:56.054Z</time></trkpt><trkpt lat="45.6561911" lon="10.8939722"><ele>121.0</ele><time>2026-04-26T08:11:57.055Z</time></trkpt><trkpt lat="45.6563004" lon="10.8940098"><ele>121.0</ele><time>2026-04-26T08:11:58.055Z</time></trkpt><trkpt lat="45.6564115" lon="10.8940399"><ele>120.66666666666667</ele><time>2026-04-26T08:11:59.055Z</time></trkpt><trkpt lat="45.6565134" lon="10.8940541"><ele>120.33333333333334</ele><time>2026-04-26T08:12:00.055Z</time></trkpt><trkpt lat="45.6566054" lon="10.8940682"><ele>120.0</ele><time>2026-04-26T08:12:01.055Z</time></trkpt><trkpt lat="45.6566811" lon="10.8940875"><ele>119.66666666666666</ele><time>2026-04-26T08:12:02.054Z</time></trkpt><trkpt lat="45.6567357" lon="10.8941331"><ele>119.33333333333333</ele><time>2026-04-26T08:12:03.055Z</time></trkpt><trkpt lat="45.6567872" lon="10.8942554"><ele>119.0</ele><time>2026-04-26T08:12:05.055Z</time></trkpt><trkpt lat="45.6567855" lon="10.8943475"><ele>117.5</ele><time>2026-04-26T08:12:06.055Z</time></trkpt><trkpt lat="45.6567503" lon="10.8945024"><ele>116.0</ele><time>2026-04-26T08:12:07.055Z</time></trkpt><trkpt lat="45.6567093" lon="10.8946688"><ele>114.5</ele><time>2026-04-26T08:12:08.054Z</time></trkpt><trkpt lat="45.6566814" lon="10.8948405"><ele>113.0</ele><time>2026-04-26T08:12:09.055Z</time></trkpt><trkpt lat="45.656661" lon="10.8949983"><ele>113.0</ele><time>2026-04-26T08:12:10.054Z</time></trkpt><trkpt lat="45.6566448" lon="10.895149"><ele>113.00000000000001</ele><time>2026-04-26T08:12:11.055Z</time></trkpt><trkpt lat="45.6566261" lon="10.895297"><ele>113.00000000000001</ele><time>2026-04-26T08:12:12.054Z</time></trkpt><trkpt lat="45.6566099" lon="10.8954328"><ele>113.0</ele><time>2026-04-26T08:12:13.055Z</time></trkpt><trkpt lat="45.656592" lon="10.8955488"><ele>113.0</ele><time>2026-04-26T08:12:14.055Z</time></trkpt><trkpt lat="45.6565775" lon="10.8956601"><ele>113.0</ele><time>2026-04-26T08:12:15.055Z</time></trkpt><trkpt lat="45.6565616" lon="10.895778"><ele>113.00000000000001</ele><time>2026-04-26T08:12:16.054Z</time></trkpt><trkpt lat="45.6565498" lon="10.8959139"><ele>113.00000000000001</ele><time>2026-04-26T08:12:17.055Z</time></trkpt><trkpt lat="45.6565331" lon="10.8960689"><ele>113.0</ele><time>2026-04-26T08:12:18.055Z</time></trkpt><trkpt lat="45.656515" lon="10.8962365"><ele>113.0</ele><time>2026-04-26T08:12:19.055Z</time></trkpt><trkpt lat="45.6564989" lon="10.8964044"><ele>113.80000000000001</ele><time>2026-04-26T08:12:20.055Z</time></trkpt><trkpt lat="45.6564833" lon="10.8965675"><ele>114.60000000000001</ele><time>2026-04-26T08:12:21.054Z</time></trkpt><trkpt lat="45.6564741" lon="10.8967286"><ele>115.39999999999999</ele><time>2026-04-26T08:12:22.054Z</time></trkpt><trkpt lat="45.6564668" lon="10.8968801"><ele>116.19999999999999</ele><time>2026-04-26T08:12:23.054Z</time></trkpt><trkpt lat="45.656453" lon="10.897012"><ele>117.0</ele><time>2026-04-26T08:12:24.054Z</time></trkpt><trkpt lat="45.6564388" lon="10.8971306"><ele>117.28571428571429</ele><time>2026-04-26T08:12:25.055Z</time></trkpt><trkpt lat="45.6564297" lon="10.8972398"><ele>117.57142857142858</ele><time>2026-04-26T08:12:26.055Z</time></trkpt><trkpt lat="45.6564178" lon="10.8973406"><ele>117.85714285714286</ele><time>2026-04-26T08:12:27.054Z</time></trkpt><trkpt lat="45.6564071" lon="10.8974342"><ele>118.14285714285714</ele><time>2026-04-26T08:12:28.055Z</time></trkpt><trkpt lat="45.6563878" lon="10.8975726"><ele>118.42857142857143</ele><time>2026-04-26T08:12:30.055Z</time></trkpt><trkpt lat="45.6563758" lon="10.8976649"><ele>118.71428571428572</ele><time>2026-04-26T08:12:33.055Z</time></trkpt><trkpt lat="45.6563495" lon="10.8977587"><ele>119.0</ele><time>2026-04-26T08:13:29.054Z</time></trkpt><trkpt lat="45.6563656" lon="10.8978533"><ele>119.33333333333333</ele><time>2026-04-26T08:13:31.055Z</time></trkpt><trkpt lat="45.6564287" lon="10.8979148"><ele>119.66666666666666</ele><time>2026-04-26T08:13:33.055Z</time></trkpt><trkpt lat="45.6565053" lon="10.8979518"><ele>120.0</ele><time>2026-04-26T08:13:35.055Z</time></trkpt><trkpt lat="45.6565781" lon="10.8979747"><ele>120.33333333333334</ele><time>2026-04-26T08:13:37.055Z</time></trkpt><trkpt lat="45.6566658" lon="10.8979751"><ele>120.66666666666667</ele><time>2026-04-26T08:14:15.055Z</time></trkpt><trkpt lat="45.6567818" lon="10.8980017"><ele>121.0</ele><time>2026-04-26T08:14:17.055Z</time></trkpt><trkpt lat="45.6568785" lon="10.898043"><ele>120.19999999999999</ele><time>2026-04-26T08:14:18.055Z</time></trkpt><trkpt lat="45.6569827" lon="10.8980742"><ele>119.39999999999999</ele><time>2026-04-26T08:14:19.054Z</time></trkpt><trkpt lat="45.6570721" lon="10.8981098"><ele>118.6</ele><time>2026-04-26T08:14:20.055Z</time></trkpt><trkpt lat="45.6571578" lon="10.8981406"><ele>117.8</ele><time>2026-04-26T08:14:21.055Z</time></trkpt><trkpt lat="45.6572414" lon="10.8981651"><ele>117.0</ele><time>2026-04-26T08:14:22.054Z</time></trkpt><trkpt lat="45.657329" lon="10.8981924"><ele>117.0</ele><time>2026-04-26T08:14:23.055Z</time></trkpt><trkpt lat="45.6574252" lon="10.8982188"><ele>116.99999999999999</ele><time>2026-04-26T08:14:24.055Z</time></trkpt><trkpt lat="45.6575185" lon="10.8982428"><ele>116.99999999999999</ele><time>2026-04-26T08:14:25.055Z</time></trkpt><trkpt lat="45.6576125" lon="10.8982711"><ele>117.0</ele><time>2026-04-26T08:14:26.055Z</time></trkpt><trkpt lat="45.6577027" lon="10.898294"><ele>117.0</ele><time>2026-04-26T08:14:27.055Z</time></trkpt><trkpt lat="45.6577872" lon="10.8983159"><ele>116.83333333333333</ele><time>2026-04-26T08:14:28.054Z</time></trkpt><trkpt lat="45.6578518" lon="10.8983316"><ele>116.66666666666666</ele><time>2026-04-26T08:14:29.054Z</time></trkpt><trkpt lat="45.6579177" lon="10.8983354"><ele>116.5</ele><time>2026-04-26T08:14:31.055Z</time></trkpt><trkpt lat="45.6579378" lon="10.8981972"><ele>116.33333333333333</ele><time>2026-04-26T08:14:48.054Z</time></trkpt><trkpt lat="45.6579504" lon="10.8980902"><ele>116.16666666666666</ele><time>2026-04-26T08:14:49.054Z</time></trkpt><trkpt lat="45.6579657" lon="10.8979659"><ele>116.0</ele><time>2026-04-26T08:14:50.054Z</time></trkpt><trkpt lat="45.6579827" lon="10.8978306"><ele>115.99999999999999</ele><time>2026-04-26T08:14:51.053Z</time></trkpt><trkpt lat="45.6579979" lon="10.8977008"><ele>116.0</ele><time>2026-04-26T08:14:52.053Z</time></trkpt><trkpt lat="45.6580153" lon="10.8975749"><ele>116.0</ele><time>2026-04-26T08:14:53.053Z</time></trkpt><trkpt lat="45.6580292" lon="10.8974592"><ele>116.0</ele><time>2026-04-26T08:14:54.054Z</time></trkpt><trkpt lat="45.65804" lon="10.8973573"><ele>115.99999999999999</ele><time>2026-04-26T08:14:55.054Z</time></trkpt><trkpt lat="45.6580471" lon="10.8972472"><ele>116.0</ele><time>2026-04-26T08:14:56.053Z</time></trkpt><trkpt lat="45.6580625" lon="10.897139"><ele>115.83333333333333</ele><time>2026-04-26T08:14:57.054Z</time></trkpt><trkpt lat="45.6580788" lon="10.8970335"><ele>115.66666666666666</ele><time>2026-04-26T08:14:58.054Z</time></trkpt><trkpt lat="45.6580941" lon="10.8969283"><ele>115.5</ele><time>2026-04-26T08:14:59.053Z</time></trkpt><trkpt lat="45.6581091" lon="10.8968371"><ele>115.33333333333334</ele><time>2026-04-26T08:15:00.054Z</time></trkpt><trkpt lat="45.6581229" lon="10.8967432"><ele>115.16666666666667</ele><time>2026-04-26T08:15:01.054Z</time></trkpt><trkpt lat="45.6581429" lon="10.8965674"><ele>115.0</ele><time>2026-04-26T08:15:03.053Z</time></trkpt><trkpt lat="45.6581498" lon="10.8964723"><ele>114.6</ele><time>2026-04-26T08:15:04.054Z</time></trkpt><trkpt lat="45.6581699" lon="10.8963097"><ele>114.2</ele><time>2026-04-26T08:15:06.054Z</time></trkpt><trkpt lat="45.6581922" lon="10.8962091"><ele>113.80000000000001</ele><time>2026-04-26T08:15:08.053Z</time></trkpt><trkpt lat="45.6581384" lon="10.8961163"><ele>113.4</ele><time>2026-04-26T08:15:11.053Z</time></trkpt><trkpt lat="45.6580238" lon="10.8960644"><ele>113.0</ele><time>2026-04-26T08:15:13.054Z</time></trkpt><trkpt lat="45.6579344" lon="10.8960336"><ele>113.0</ele><time>2026-04-26T08:15:14.053Z</time></trkpt><trkpt lat="45.6578376" lon="10.8960035"><ele>113.00000000000001</ele><time>2026-04-26T08:15:15.053Z</time></trkpt><trkpt lat="45.6577412" lon="10.8959727"><ele>113.00000000000001</ele><time>2026-04-26T08:15:16.054Z</time></trkpt><trkpt lat="45.6576445" lon="10.8959411"><ele>113.0</ele><time>2026-04-26T08:15:17.054Z</time></trkpt><trkpt lat="45.6575555" lon="10.8959096"><ele>113.0</ele><time>2026-04-26T08:15:18.054Z</time></trkpt><trkpt lat="45.6574679" lon="10.895877"><ele>112.60000000000001</ele><time>2026-04-26T08:15:19.054Z</time></trkpt><trkpt lat="45.6573818" lon="10.8958436"><ele>112.20000000000002</ele><time>2026-04-26T08:15:20.054Z</time></trkpt><trkpt lat="45.6572947" lon="10.8958025"><ele>111.8</ele><time>2026-04-26T08:15:21.054Z</time></trkpt><trkpt lat="45.6572063" lon="10.8957608"><ele>111.4</ele><time>2026-04-26T08:15:22.054Z</time></trkpt><trkpt lat="45.6571204" lon="10.8957204"><ele>111.0</ele><time>2026-04-26T08:15:23.053Z</time></trkpt><trkpt lat="45.6570354" lon="10.8956807"><ele>111.0</ele><time>2026-04-26T08:15:24.054Z</time></trkpt><trkpt lat="45.6569539" lon="10.8956506"><ele>111.0</ele><time>2026-04-26T08:15:25.053Z</time></trkpt><trkpt lat="45.6568898" lon="10.8956292"><ele>111.0</ele><time>2026-04-26T08:15:26.054Z</time></trkpt><trkpt lat="45.6568264" lon="10.8956047"><ele>111.0</ele><time>2026-04-26T08:15:27.054Z</time></trkpt><trkpt lat="45.6567615" lon="10.895585"><ele>111.0</ele><time>2026-04-26T08:15:28.054Z</time></trkpt><trkpt lat="45.6566531" lon="10.8955707"><ele>111.0</ele><time>2026-04-26T08:15:30.054Z</time></trkpt><trkpt lat="45.6565762" lon="10.8955737"><ele>111.4</ele><time>2026-04-26T08:15:32.053Z</time></trkpt><trkpt lat="45.6564788" lon="10.8955819"><ele>111.8</ele><time>2026-04-26T08:15:34.054Z</time></trkpt><trkpt lat="45.6563616" lon="10.8955631"><ele>112.20000000000002</ele><time>2026-04-26T08:15:36.054Z</time></trkpt><trkpt lat="45.6562877" lon="10.8955357"><ele>112.60000000000001</ele><time>2026-04-26T08:15:37.053Z</time></trkpt><trkpt lat="45.6562091" lon="10.8955032"><ele>113.0</ele><time>2026-04-26T08:15:38.053Z</time></trkpt><trkpt lat="45.6561331" lon="10.8954817"><ele>113.2</ele><time>2026-04-26T08:15:39.054Z</time></trkpt><trkpt lat="45.6560476" lon="10.8954654"><ele>113.4</ele><time>2026-04-26T08:15:40.054Z</time></trkpt><trkpt lat="45.655952" lon="10.8954533"><ele>113.60000000000001</ele><time>2026-04-26T08:15:41.054Z</time></trkpt><trkpt lat="45.6558447" lon="10.8954459"><ele>113.80000000000001</ele><time>2026-04-26T08:15:42.054Z</time></trkpt><trkpt lat="45.6557303" lon="10.89544"><ele>114.0</ele><time>2026-04-26T08:15:43.053Z</time></trkpt><trkpt lat="45.655605" lon="10.8954391"><ele>114.0</ele><time>2026-04-26T08:15:44.053Z</time></trkpt><trkpt lat="45.6554853" lon="10.8954457"><ele>114.0</ele><time>2026-04-26T08:15:45.054Z</time></trkpt><trkpt lat="45.6553725" lon="10.8954547"><ele>114.0</ele><time>2026-04-26T08:15:46.053Z</time></trkpt><trkpt lat="45.6552588" lon="10.8954724"><ele>114.0</ele><time>2026-04-26T08:15:47.054Z</time></trkpt><trkpt lat="45.6551429" lon="10.8954899"><ele>114.0</ele><time>2026-04-26T08:15:48.053Z</time></trkpt><trkpt lat="45.6550286" lon="10.8955104"><ele>114.0</ele><time>2026-04-26T08:15:49.053Z</time></trkpt><trkpt lat="45.6549297" lon="10.8955266"><ele>114.0</ele><time>2026-04-26T08:15:50.054Z</time></trkpt><trkpt lat="45.6548546" lon="10.8955395"><ele>114.0</ele><time>2026-04-26T08:15:51.053Z</time></trkpt><trkpt lat="45.6547791" lon="10.89557"><ele>114.0</ele><time>2026-04-26T08:15:53.053Z</time></trkpt><trkpt lat="45.6547177" lon="10.8956131"><ele>114.0</ele><time>2026-04-26T08:15:56.054Z</time></trkpt><trkpt lat="45.6546953" lon="10.8957499"><ele>114.0</ele><time>2026-04-26T08:16:43.053Z</time></trkpt><trkpt lat="45.6546876" lon="10.8959081"><ele>114.0</ele><time>2026-04-26T08:16:45.054Z</time></trkpt><trkpt lat="45.6546923" lon="10.8960043"><ele>114.0</ele><time>2026-04-26T08:16:48.053Z</time></trkpt><trkpt lat="45.6546261" lon="10.8960353"><ele>114.0</ele><time>2026-04-26T08:16:52.053Z</time></trkpt><trkpt lat="45.6545001" lon="10.895987"><ele>114.0</ele><time>2026-04-26T08:16:54.054Z</time></trkpt><trkpt lat="45.6544378" lon="10.8959554"><ele>114.0</ele><time>2026-04-26T08:16:55.054Z</time></trkpt><trkpt lat="45.6543703" lon="10.8959245"><ele>114.0</ele><time>2026-04-26T08:16:57.054Z</time></trkpt><trkpt lat="45.654322" lon="10.8958289"><ele>114.0</ele><time>2026-04-26T08:21:14.052Z</time></trkpt><trkpt lat="45.6542992" lon="10.8957256"><ele>114.0</ele><time>2026-04-26T08:21:16.051Z</time></trkpt><trkpt lat="45.6542751" lon="10.8956228"><ele>114.0</ele><time>2026-04-26T08:21:18.052Z</time></trkpt><trkpt lat="45.6541744" lon="10.8956068"><ele>114.0</ele><time>2026-04-26T08:21:21.052Z</time></trkpt><trkpt lat="45.6540534" lon="10.8956336"><ele>114.0</ele><time>2026-04-26T08:21:23.052Z</time></trkpt><trkpt lat="45.6539358" lon="10.8956662"><ele>114.0</ele><time>2026-04-26T08:21:25.052Z</time></trkpt><trkpt lat="45.6538198" lon="10.8956867"><ele>114.0</ele><time>2026-04-26T08:21:27.051Z</time></trkpt><trkpt lat="45.6537506" lon="10.8956969"><ele>114.0</ele><time>2026-04-26T08:21:28.051Z</time></trkpt><trkpt lat="45.6536744" lon="10.8957096"><ele>114.0</ele><time>2026-04-26T08:21:29.052Z</time></trkpt><trkpt lat="45.653588" lon="10.8957227"><ele>114.0</ele><time>2026-04-26T08:21:30.052Z</time></trkpt><trkpt lat="45.6534979" lon="10.8957509"><ele>114.0</ele><time>2026-04-26T08:21:31.052Z</time></trkpt><trkpt lat="45.6534073" lon="10.8957845"><ele>114.0</ele><time>2026-04-26T08:21:32.052Z</time></trkpt><trkpt lat="45.6533233" lon="10.8958247"><ele>114.0</ele><time>2026-04-26T08:21:33.052Z</time></trkpt><trkpt lat="45.6532389" lon="10.8958619"><ele>114.0</ele><time>2026-04-26T08:21:34.051Z</time></trkpt><trkpt lat="45.653159" lon="10.8959028"><ele>114.0</ele><time>2026-04-26T08:21:35.052Z</time></trkpt><trkpt lat="45.6530855" lon="10.8959431"><ele>114.33333333333333</ele><time>2026-04-26T08:21:36.051Z</time></trkpt><trkpt lat="45.6530126" lon="10.8959745"><ele>114.66666666666666</ele><time>2026-04-26T08:21:37.052Z</time></trkpt><trkpt lat="45.6529407" lon="10.8959998"><ele>115.0</ele><time>2026-04-26T08:21:38.051Z</time></trkpt><trkpt lat="45.6528678" lon="10.8960281"><ele>115.33333333333333</ele><time>2026-04-26T08:21:39.052Z</time></trkpt><trkpt lat="45.6527984" lon="10.8960552"><ele>115.66666666666666</ele><time>2026-04-26T08:21:40.051Z</time></trkpt><trkpt lat="45.6527345" lon="10.8960767"><ele>116.0</ele><time>2026-04-26T08:21:41.051Z</time></trkpt><trkpt lat="45.6526538" lon="10.8961275"><ele>116.0</ele><time>2026-04-26T08:21:43.051Z</time></trkpt><trkpt lat="45.6526548" lon="10.8962347"><ele>116.0</ele><time>2026-04-26T08:21:55.052Z</time></trkpt><trkpt lat="45.6526977" lon="10.8964237"><ele>116.0</ele><time>2026-04-26T08:21:57.052Z</time></trkpt><trkpt lat="45.6527283" lon="10.8965624"><ele>116.0</ele><time>2026-04-26T08:21:58.052Z</time></trkpt><trkpt lat="45.6527597" lon="10.8967149"><ele>116.0</ele><time>2026-04-26T08:21:59.052Z</time></trkpt><trkpt lat="45.6527856" lon="10.8968622"><ele>115.8</ele><time>2026-04-26T08:22:00.052Z</time></trkpt><trkpt lat="45.6528071" lon="10.8970001"><ele>115.6</ele><time>2026-04-26T08:22:01.051Z</time></trkpt><trkpt lat="45.6528309" lon="10.897133"><ele>115.4</ele><time>2026-04-26T08:22:02.052Z</time></trkpt><trkpt lat="45.652846" lon="10.8972613"><ele>115.2</ele><time>2026-04-26T08:22:03.052Z</time></trkpt><trkpt lat="45.6528571" lon="10.8973979"><ele>115.0</ele><time>2026-04-26T08:22:04.051Z</time></trkpt><trkpt lat="45.6528611" lon="10.8975417"><ele>115.4</ele><time>2026-04-26T08:22:05.052Z</time></trkpt><trkpt lat="45.6528629" lon="10.897683"><ele>115.8</ele><time>2026-04-26T08:22:06.052Z</time></trkpt><trkpt lat="45.6528634" lon="10.8978253"><ele>116.19999999999999</ele><time>2026-04-26T08:22:07.051Z</time></trkpt><trkpt lat="45.6528643" lon="10.8979621"><ele>116.6</ele><time>2026-04-26T08:22:08.051Z</time></trkpt><trkpt lat="45.652862" lon="10.8980892"><ele>117.0</ele><time>2026-04-26T08:22:09.052Z</time></trkpt><trkpt lat="45.6528638" lon="10.8982016"><ele>117.0</ele><time>2026-04-26T08:22:10.052Z</time></trkpt><trkpt lat="45.6528648" lon="10.8982933"><ele>117.0</ele><time>2026-04-26T08:22:11.052Z</time></trkpt><trkpt lat="45.6528464" lon="10.8984391"><ele>117.0</ele><time>2026-04-26T08:22:13.052Z</time></trkpt><trkpt lat="45.6528207" lon="10.8985951"><ele>117.0</ele><time>2026-04-26T08:22:15.052Z</time></trkpt><trkpt lat="45.6528037" lon="10.8986902"><ele>117.0</ele><time>2026-04-26T08:22:16.051Z</time></trkpt><trkpt lat="45.6527876" lon="10.8987895"><ele>117.0</ele><time>2026-04-26T08:22:17.052Z</time></trkpt><trkpt lat="45.6527696" lon="10.8988898"><ele>117.8</ele><time>2026-04-26T08:22:18.052Z</time></trkpt><trkpt lat="45.6527526" lon="10.8990201"><ele>118.6</ele><time>2026-04-26T08:22:19.051Z</time></trkpt><trkpt lat="45.6527334" lon="10.8991574"><ele>119.39999999999999</ele><time>2026-04-26T08:22:20.052Z</time></trkpt><trkpt lat="45.6527125" lon="10.8993347"><ele>120.19999999999999</ele><time>2026-04-26T08:22:21.051Z</time></trkpt><trkpt lat="45.6526929" lon="10.8995078"><ele>121.0</ele><time>2026-04-26T08:22:22.052Z</time></trkpt><trkpt lat="45.6526887" lon="10.8996615"><ele>121.00000000000001</ele><time>2026-04-26T08:22:23.051Z</time></trkpt><trkpt lat="45.6526931" lon="10.8997854"><ele>121.0</ele><time>2026-04-26T08:22:24.052Z</time></trkpt><trkpt lat="45.6527085" lon="10.8998898"><ele>121.0</ele><time>2026-04-26T08:22:25.051Z</time></trkpt><trkpt lat="45.6527446" lon="10.8999834"><ele>121.0</ele><time>2026-04-26T08:22:26.051Z</time></trkpt><trkpt lat="45.6528104" lon="10.9000553"><ele>121.00000000000001</ele><time>2026-04-26T08:22:27.052Z</time></trkpt><trkpt lat="45.6528893" lon="10.9001201"><ele>121.0</ele><time>2026-04-26T08:22:28.051Z</time></trkpt><trkpt lat="45.6529724" lon="10.9001861"><ele>123.6</ele><time>2026-04-26T08:22:29.051Z</time></trkpt><trkpt lat="45.6530556" lon="10.9002445"><ele>126.19999999999999</ele><time>2026-04-26T08:22:30.052Z</time></trkpt><trkpt lat="45.6531213" lon="10.9002945"><ele>128.8</ele><time>2026-04-26T08:22:31.051Z</time></trkpt><trkpt lat="45.6531777" lon="10.9003637"><ele>131.4</ele><time>2026-04-26T08:22:33.051Z</time></trkpt><trkpt lat="45.6530556" lon="10.9003466"><ele>134.0</ele><time>2026-04-26T08:22:37.052Z</time></trkpt><trkpt lat="45.6529604" lon="10.9002742"><ele>134.0</ele><time>2026-04-26T08:22:38.051Z</time></trkpt><trkpt lat="45.6528445" lon="10.9001785"><ele>134.0</ele><time>2026-04-26T08:22:39.052Z</time></trkpt><trkpt lat="45.652721" lon="10.9000766"><ele>134.0</ele><time>2026-04-26T08:22:40.051Z</time></trkpt><trkpt lat="45.6525844" lon="10.8999781"><ele>134.0</ele><time>2026-04-26T08:22:41.052Z</time></trkpt><trkpt lat="45.6524383" lon="10.8998749"><ele>133.33333333333331</ele><time>2026-04-26T08:22:42.052Z</time></trkpt><trkpt lat="45.6522886" lon="10.8997548"><ele>132.66666666666666</ele><time>2026-04-26T08:22:43.052Z</time></trkpt><trkpt lat="45.6521347" lon="10.899635"><ele>132.0</ele><time>2026-04-26T08:22:44.052Z</time></trkpt><trkpt lat="45.6519829" lon="10.8995135"><ele>130.66666666666666</ele><time>2026-04-26T08:22:45.052Z</time></trkpt><trkpt lat="45.6518308" lon="10.8993839"><ele>129.33333333333331</ele><time>2026-04-26T08:22:46.051Z</time></trkpt><trkpt lat="45.6516691" lon="10.8992526"><ele>128.0</ele><time>2026-04-26T08:22:47.052Z</time></trkpt><trkpt lat="45.6515112" lon="10.8991308"><ele>128.0</ele><time>2026-04-26T08:22:48.052Z</time></trkpt><trkpt lat="45.6513438" lon="10.8990048"><ele>128.0</ele><time>2026-04-26T08:22:49.052Z</time></trkpt><trkpt lat="45.6511614" lon="10.8988912"><ele>128.0</ele><time>2026-04-26T08:22:50.052Z</time></trkpt><trkpt lat="45.6509883" lon="10.8987885"><ele>133.0</ele><time>2026-04-26T08:22:51.052Z</time></trkpt><trkpt lat="45.6508121" lon="10.8986882"><ele>138.0</ele><time>2026-04-26T08:22:52.052Z</time></trkpt><trkpt lat="45.6506356" lon="10.8985882"><ele>143.0</ele><time>2026-04-26T08:22:53.052Z</time></trkpt><trkpt lat="45.6504642" lon="10.8984849"><ele>138.66666666666666</ele><time>2026-04-26T08:22:54.051Z</time></trkpt><trkpt lat="45.6503029" lon="10.8983814"><ele>134.33333333333334</ele><time>2026-04-26T08:22:55.051Z</time></trkpt><trkpt lat="45.6501466" lon="10.898282"><ele>130.0</ele><time>2026-04-26T08:22:56.051Z</time></trkpt><trkpt lat="45.6499893" lon="10.898195"><ele>130.0</ele><time>2026-04-26T08:22:57.052Z</time></trkpt><trkpt lat="45.6498294" lon="10.8981069"><ele>130.0</ele><time>2026-04-26T08:22:58.052Z</time></trkpt><trkpt lat="45.6496695" lon="10.8980194"><ele>130.0</ele><time>2026-04-26T08:22:59.052Z</time></trkpt><trkpt lat="45.6495083" lon="10.8979326"><ele>134.0</ele><time>2026-04-26T08:23:00.052Z</time></trkpt><trkpt lat="45.6493443" lon="10.8978471"><ele>138.0</ele><time>2026-04-26T08:23:01.052Z</time></trkpt><trkpt lat="45.6491819" lon="10.8977593"><ele>142.0</ele><time>2026-04-26T08:23:02.052Z</time></trkpt><trkpt lat="45.64902" lon="10.8976668"><ele>139.66666666666669</ele><time>2026-04-26T08:23:03.051Z</time></trkpt><trkpt lat="45.648866" lon="10.8975658"><ele>137.33333333333334</ele><time>2026-04-26T08:23:04.051Z</time></trkpt><trkpt lat="45.648713" lon="10.8974669"><ele>135.0</ele><time>2026-04-26T08:23:05.051Z</time></trkpt><trkpt lat="45.6485602" lon="10.8973644"><ele>135.0</ele><time>2026-04-26T08:23:06.051Z</time></trkpt><trkpt lat="45.6484099" lon="10.8972569"><ele>135.0</ele><time>2026-04-26T08:23:07.051Z</time></trkpt><trkpt lat="45.6482573" lon="10.8971378"><ele>135.0</ele><time>2026-04-26T08:23:08.051Z</time></trkpt><trkpt lat="45.6481044" lon="10.8970228"><ele>135.0</ele><time>2026-04-26T08:23:09.05Z</time></trkpt><trkpt lat="45.6479539" lon="10.8969044"><ele>135.0</ele><time>2026-04-26T08:23:10.05Z</time></trkpt><trkpt lat="45.647804" lon="10.8967753"><ele>135.0</ele><time>2026-04-26T08:23:11.051Z</time></trkpt><trkpt lat="45.6476532" lon="10.8966319"><ele>134.33333333333334</ele><time>2026-04-26T08:23:12.05Z</time></trkpt><trkpt lat="45.647501" lon="10.8964893"><ele>133.66666666666669</ele><time>2026-04-26T08:23:13.051Z</time></trkpt><trkpt lat="45.6473418" lon="10.8963436"><ele>133.0</ele><time>2026-04-26T08:23:14.051Z</time></trkpt><trkpt lat="45.6471866" lon="10.8962024"><ele>133.0</ele><time>2026-04-26T08:23:15.05Z</time></trkpt><trkpt lat="45.6470302" lon="10.896059"><ele>133.0</ele><time>2026-04-26T08:23:16.051Z</time></trkpt><trkpt lat="45.6468799" lon="10.8959095"><ele>133.0</ele><time>2026-04-26T08:23:17.051Z</time></trkpt><trkpt lat="45.646734" lon="10.8957556"><ele>132.33333333333334</ele><time>2026-04-26T08:23:18.05Z</time></trkpt><trkpt lat="45.6465919" lon="10.8956015"><ele>131.66666666666666</ele><time>2026-04-26T08:23:19.051Z</time></trkpt><trkpt lat="45.6464622" lon="10.8954448"><ele>131.0</ele><time>2026-04-26T08:23:20.051Z</time></trkpt><trkpt lat="45.646336" lon="10.8952692"><ele>132.66666666666666</ele><time>2026-04-26T08:23:21.051Z</time></trkpt><trkpt lat="45.6462158" lon="10.8950834"><ele>134.33333333333334</ele><time>2026-04-26T08:23:22.05Z</time></trkpt><trkpt lat="45.6460925" lon="10.8948755"><ele>136.0</ele><time>2026-04-26T08:23:23.051Z</time></trkpt><trkpt lat="45.6459801" lon="10.8946705"><ele>136.0</ele><time>2026-04-26T08:23:24.051Z</time></trkpt><trkpt lat="45.6458767" lon="10.8944591"><ele>136.0</ele><time>2026-04-26T08:23:25.05Z</time></trkpt><trkpt lat="45.6457758" lon="10.8942407"><ele>136.0</ele><time>2026-04-26T08:23:26.05Z</time></trkpt><trkpt lat="45.6456771" lon="10.8940106"><ele>133.0</ele><time>2026-04-26T08:23:27.051Z</time></trkpt><trkpt lat="45.6455801" lon="10.8937802"><ele>130.0</ele><time>2026-04-26T08:23:28.05Z</time></trkpt><trkpt lat="45.6454882" lon="10.8935494"><ele>127.0</ele><time>2026-04-26T08:23:29.05Z</time></trkpt><trkpt lat="45.6454002" lon="10.8933174"><ele>125.66666666666667</ele><time>2026-04-26T08:23:30.05Z</time></trkpt><trkpt lat="45.6453119" lon="10.8930948"><ele>124.33333333333334</ele><time>2026-04-26T08:23:31.05Z</time></trkpt><trkpt lat="45.6452239" lon="10.8928627"><ele>123.0</ele><time>2026-04-26T08:23:32.05Z</time></trkpt><trkpt lat="45.645136" lon="10.8926268"><ele>126.0</ele><time>2026-04-26T08:23:33.05Z</time></trkpt><trkpt lat="45.6450465" lon="10.8923881"><ele>129.0</ele><time>2026-04-26T08:23:34.05Z</time></trkpt><trkpt lat="45.6449598" lon="10.8921564"><ele>132.0</ele><time>2026-04-26T08:23:35.051Z</time></trkpt><trkpt lat="45.6448699" lon="10.8919396"><ele>130.66666666666666</ele><time>2026-04-26T08:23:36.051Z</time></trkpt><trkpt lat="45.64477" lon="10.8917349"><ele>129.33333333333331</ele><time>2026-04-26T08:23:37.05Z</time></trkpt><trkpt lat="45.6446643" lon="10.891544"><ele>128.0</ele><time>2026-04-26T08:23:38.051Z</time></trkpt><trkpt lat="45.6445434" lon="10.8913532"><ele>129.0</ele><time>2026-04-26T08:23:39.051Z</time></trkpt><trkpt lat="45.6444114" lon="10.8911807"><ele>130.0</ele><time>2026-04-26T08:23:40.051Z</time></trkpt><trkpt lat="45.6442823" lon="10.8910197"><ele>131.0</ele><time>2026-04-26T08:23:41.051Z</time></trkpt><trkpt lat="45.6441524" lon="10.8908607"><ele>131.0</ele><time>2026-04-26T08:23:42.051Z</time></trkpt><trkpt lat="45.644029" lon="10.8907128"><ele>131.0</ele><time>2026-04-26T08:23:43.051Z</time></trkpt><trkpt lat="45.6438982" lon="10.8905662"><ele>131.0</ele><time>2026-04-26T08:23:44.051Z</time></trkpt><trkpt lat="45.6437597" lon="10.8904269"><ele>133.0</ele><time>2026-04-26T08:23:45.051Z</time></trkpt><trkpt lat="45.6436247" lon="10.8903108"><ele>135.0</ele><time>2026-04-26T08:23:46.051Z</time></trkpt><trkpt lat="45.6434878" lon="10.8902226"><ele>137.0</ele><time>2026-04-26T08:23:47.05Z</time></trkpt><trkpt lat="45.6433623" lon="10.8901506"><ele>139.0</ele><time>2026-04-26T08:23:48.051Z</time></trkpt><trkpt lat="45.6432532" lon="10.8900941"><ele>138.2</ele><time>2026-04-26T08:23:49.051Z</time></trkpt><trkpt lat="45.6431694" lon="10.8900469"><ele>137.4</ele><time>2026-04-26T08:23:50.051Z</time></trkpt><trkpt lat="45.6430918" lon="10.8900148"><ele>136.6</ele><time>2026-04-26T08:23:51.051Z</time></trkpt><trkpt lat="45.6430101" lon="10.8899374"><ele>135.8</ele><time>2026-04-26T08:23:53.051Z</time></trkpt><trkpt lat="45.6429707" lon="10.8898476"><ele>135.0</ele><time>2026-04-26T08:23:57.05Z</time></trkpt><trkpt lat="45.6428639" lon="10.889825"><ele>135.42857142857142</ele><time>2026-04-26T08:23:59.05Z</time></trkpt><trkpt lat="45.6427916" lon="10.8898092"><ele>135.85714285714283</ele><time>2026-04-26T08:24:00.051Z</time></trkpt><trkpt lat="45.6427166" lon="10.8897909"><ele>136.28571428571428</ele><time>2026-04-26T08:24:01.051Z</time></trkpt><trkpt lat="45.6426455" lon="10.8897739"><ele>136.71428571428572</ele><time>2026-04-26T08:24:02.051Z</time></trkpt><trkpt lat="45.6425482" lon="10.8897547"><ele>137.14285714285717</ele><time>2026-04-26T08:24:04.051Z</time></trkpt><trkpt lat="45.6425986" lon="10.8898112"><ele>137.57142857142858</ele><time>2026-04-26T08:24:16.05Z</time></trkpt><trkpt lat="45.6426629" lon="10.8898115"><ele>138.0</ele><time>2026-04-26T08:24:17.05Z</time></trkpt><trkpt lat="45.6427431" lon="10.8898191"><ele>137.4</ele><time>2026-04-26T08:24:18.051Z</time></trkpt><trkpt lat="45.642829" lon="10.8898359"><ele>136.8</ele><time>2026-04-26T08:24:19.051Z</time></trkpt><trkpt lat="45.6429032" lon="10.8898552"><ele>136.2</ele><time>2026-04-26T08:24:20.051Z</time></trkpt><trkpt lat="45.6430093" lon="10.8898725"><ele>135.6</ele><time>2026-04-26T08:24:22.05Z</time></trkpt><trkpt lat="45.6430785" lon="10.8898068"><ele>135.0</ele><time>2026-04-26T08:24:25.051Z</time></trkpt><trkpt lat="45.6430985" lon="10.8896563"><ele>135.0</ele><time>2026-04-26T08:24:27.05Z</time></trkpt><trkpt lat="45.6431074" lon="10.8895464"><ele>135.0</ele><time>2026-04-26T08:24:28.051Z</time></trkpt><trkpt lat="45.6431185" lon="10.8894387"><ele>135.0</ele><time>2026-04-26T08:24:29.05Z</time></trkpt><trkpt lat="45.6431258" lon="10.8893432"><ele>135.0</ele><time>2026-04-26T08:24:30.05Z</time></trkpt><trkpt lat="45.6431387" lon="10.8891881"><ele>135.0</ele><time>2026-04-26T08:24:32.051Z</time></trkpt><trkpt lat="45.643132" lon="10.8890918"><ele>135.0</ele><time>2026-04-26T08:24:35.05Z</time></trkpt><trkpt lat="45.6430829" lon="10.8890314"><ele>134.66666666666666</ele><time>2026-04-26T08:24:37.05Z</time></trkpt><trkpt lat="45.6429962" lon="10.8889309"><ele>134.33333333333334</ele><time>2026-04-26T08:24:39.05Z</time></trkpt><trkpt lat="45.6429338" lon="10.8888603"><ele>134.0</ele><time>2026-04-26T08:24:40.05Z</time></trkpt><trkpt lat="45.6428689" lon="10.8887794"><ele>133.66666666666669</ele><time>2026-04-26T08:24:41.05Z</time></trkpt><trkpt lat="45.6428048" lon="10.8887048"><ele>133.33333333333334</ele><time>2026-04-26T08:24:42.05Z</time></trkpt><trkpt lat="45.6427411" lon="10.8886336"><ele>133.0</ele><time>2026-04-26T08:24:43.051Z</time></trkpt><trkpt lat="45.6426755" lon="10.888567"><ele>133.0</ele><time>2026-04-26T08:24:44.05Z</time></trkpt><trkpt lat="45.6426106" lon="10.8885054"><ele>133.0</ele><time>2026-04-26T08:24:45.051Z</time></trkpt><trkpt lat="45.6425504" lon="10.8884477"><ele>133.0</ele><time>2026-04-26T08:24:46.051Z</time></trkpt><trkpt lat="45.64249" lon="10.8883872"><ele>133.0</ele><time>2026-04-26T08:24:47.051Z</time></trkpt><trkpt lat="45.6424297" lon="10.8883222"><ele>133.0</ele><time>2026-04-26T08:24:48.051Z</time></trkpt><trkpt lat="45.6423734" lon="10.888258"><ele>133.0</ele><time>2026-04-26T08:24:49.051Z</time></trkpt><trkpt lat="45.6423221" lon="10.8881935"><ele>133.0</ele><time>2026-04-26T08:24:50.051Z</time></trkpt><trkpt lat="45.6422722" lon="10.8881271"><ele>132.66666666666669</ele><time>2026-04-26T08:24:51.05Z</time></trkpt><trkpt lat="45.6422192" lon="10.8880698"><ele>132.33333333333334</ele><time>2026-04-26T08:24:52.051Z</time></trkpt><trkpt lat="45.6421356" lon="10.8879715"><ele>132.0</ele><time>2026-04-26T08:24:54.051Z</time></trkpt><trkpt lat="45.6420482" lon="10.8878768"><ele>131.66666666666666</ele><time>2026-04-26T08:24:56.051Z</time></trkpt><trkpt lat="45.6419913" lon="10.8878166"><ele>131.33333333333331</ele><time>2026-04-26T08:24:57.05Z</time></trkpt><trkpt lat="45.6419312" lon="10.8877494"><ele>131.0</ele><time>2026-04-26T08:24:58.051Z</time></trkpt><trkpt lat="45.6418701" lon="10.8876832"><ele>131.0</ele><time>2026-04-26T08:24:59.051Z</time></trkpt><trkpt lat="45.6418078" lon="10.8876185"><ele>131.0</ele><time>2026-04-26T08:25:00.05Z</time></trkpt><trkpt lat="45.6417408" lon="10.8875494"><ele>131.0</ele><time>2026-04-26T08:25:01.05Z</time></trkpt><trkpt lat="45.6416753" lon="10.8874794"><ele>131.0</ele><time>2026-04-26T08:25:02.051Z</time></trkpt><trkpt lat="45.6416067" lon="10.8874154"><ele>131.0</ele><time>2026-04-26T08:25:03.051Z</time></trkpt><trkpt lat="45.64154" lon="10.8873545"><ele>131.0</ele><time>2026-04-26T08:25:04.051Z</time></trkpt><trkpt lat="45.6414794" lon="10.8872969"><ele>130.16666666666666</ele><time>2026-04-26T08:25:05.05Z</time></trkpt><trkpt lat="45.6414265" lon="10.8872403"><ele>129.33333333333331</ele><time>2026-04-26T08:25:06.051Z</time></trkpt><trkpt lat="45.6413711" lon="10.8871802"><ele>128.5</ele><time>2026-04-26T08:25:07.051Z</time></trkpt><trkpt lat="45.6413175" lon="10.8871179"><ele>127.66666666666666</ele><time>2026-04-26T08:25:08.05Z</time></trkpt><trkpt lat="45.6412631" lon="10.8870606"><ele>126.83333333333333</ele><time>2026-04-26T08:25:09.051Z</time></trkpt><trkpt lat="45.6412132" lon="10.887005"><ele>126.0</ele><time>2026-04-26T08:25:10.051Z</time></trkpt><trkpt lat="45.641113" lon="10.8869033"><ele>126.0</ele><time>2026-04-26T08:25:12.051Z</time></trkpt><trkpt lat="45.64104" lon="10.886798"><ele>126.0</ele><time>2026-04-26T08:25:14.051Z</time></trkpt><trkpt lat="45.6409919" lon="10.8867374"><ele>126.0</ele><time>2026-04-26T08:25:15.05Z</time></trkpt><trkpt lat="45.6409308" lon="10.8866636"><ele>126.0</ele><time>2026-04-26T08:25:16.051Z</time></trkpt><trkpt lat="45.6408624" lon="10.8865904"><ele>126.0</ele><time>2026-04-26T08:25:17.051Z</time></trkpt><trkpt lat="45.6407918" lon="10.8865158"><ele>126.0</ele><time>2026-04-26T08:25:18.051Z</time></trkpt><trkpt lat="45.640723" lon="10.8864462"><ele>125.83333333333333</ele><time>2026-04-26T08:25:19.05Z</time></trkpt><trkpt lat="45.6406623" lon="10.8863878"><ele>125.66666666666666</ele><time>2026-04-26T08:25:20.051Z</time></trkpt><trkpt lat="45.6405972" lon="10.8863198"><ele>125.5</ele><time>2026-04-26T08:25:21.05Z</time></trkpt><trkpt lat="45.6405239" lon="10.8862498"><ele>125.33333333333333</ele><time>2026-04-26T08:25:22.05Z</time></trkpt><trkpt lat="45.6404565" lon="10.8861797"><ele>125.16666666666666</ele><time>2026-04-26T08:25:23.051Z</time></trkpt><trkpt lat="45.6404005" lon="10.8861235"><ele>125.0</ele><time>2026-04-26T08:25:24.051Z</time></trkpt><trkpt lat="45.640295" lon="10.8860442"><ele>125.0</ele><time>2026-04-26T08:25:26.051Z</time></trkpt><trkpt lat="45.6401946" lon="10.8859482"><ele>125.0</ele><time>2026-04-26T08:25:28.05Z</time></trkpt><trkpt lat="45.6401265" lon="10.8858769"><ele>125.0</ele><time>2026-04-26T08:25:29.051Z</time></trkpt><trkpt lat="45.6400552" lon="10.8858055"><ele>125.0</ele><time>2026-04-26T08:25:30.05Z</time></trkpt><trkpt lat="45.6399831" lon="10.885735"><ele>125.0</ele><time>2026-04-26T08:25:31.051Z</time></trkpt><trkpt lat="45.6399254" lon="10.8856719"><ele>124.99999999999999</ele><time>2026-04-26T08:25:32.051Z</time></trkpt><trkpt lat="45.6398717" lon="10.8856156"><ele>125.0</ele><time>2026-04-26T08:25:33.051Z</time></trkpt><trkpt lat="45.6398072" lon="10.8855668"><ele>125.0</ele><time>2026-04-26T08:25:34.051Z</time></trkpt><trkpt lat="45.6397419" lon="10.8855167"><ele>125.0</ele><time>2026-04-26T08:25:35.05Z</time></trkpt><trkpt lat="45.6396748" lon="10.8854562"><ele>124.99999999999999</ele><time>2026-04-26T08:25:36.051Z</time></trkpt><trkpt lat="45.6395986" lon="10.8853771"><ele>125.0</ele><time>2026-04-26T08:25:37.051Z</time></trkpt><trkpt lat="45.6395252" lon="10.8852998"><ele>124.83333333333333</ele><time>2026-04-26T08:25:38.051Z</time></trkpt><trkpt lat="45.6394525" lon="10.8852377"><ele>124.66666666666666</ele><time>2026-04-26T08:25:39.051Z</time></trkpt><trkpt lat="45.6393787" lon="10.8851792"><ele>124.5</ele><time>2026-04-26T08:25:40.05Z</time></trkpt><trkpt lat="45.6393121" lon="10.8851122"><ele>124.33333333333334</ele><time>2026-04-26T08:25:41.049Z</time></trkpt><trkpt lat="45.639239" lon="10.885035"><ele>124.16666666666667</ele><time>2026-04-26T08:25:42.049Z</time></trkpt><trkpt lat="45.6391718" lon="10.8849606"><ele>124.0</ele><time>2026-04-26T08:25:43.049Z</time></trkpt><trkpt lat="45.6391104" lon="10.8848949"><ele>124.00000000000001</ele><time>2026-04-26T08:25:44.049Z</time></trkpt><trkpt lat="45.6390419" lon="10.8848255"><ele>124.0</ele><time>2026-04-26T08:25:45.049Z</time></trkpt><trkpt lat="45.6389716" lon="10.8847605"><ele>124.0</ele><time>2026-04-26T08:25:46.05Z</time></trkpt><trkpt lat="45.6389081" lon="10.8846969"><ele>124.0</ele><time>2026-04-26T08:25:47.05Z</time></trkpt><trkpt lat="45.6388349" lon="10.8846335"><ele>124.00000000000001</ele><time>2026-04-26T08:25:48.05Z</time></trkpt><trkpt lat="45.6387623" lon="10.8845649"><ele>124.0</ele><time>2026-04-26T08:25:49.049Z</time></trkpt><trkpt lat="45.6386884" lon="10.8844971"><ele>123.83333333333334</ele><time>2026-04-26T08:25:50.05Z</time></trkpt><trkpt lat="45.6386146" lon="10.8844354"><ele>123.66666666666667</ele><time>2026-04-26T08:25:51.049Z</time></trkpt><trkpt lat="45.6385453" lon="10.8843805"><ele>123.5</ele><time>2026-04-26T08:25:52.049Z</time></trkpt><trkpt lat="45.6384786" lon="10.8843218"><ele>123.33333333333334</ele><time>2026-04-26T08:25:53.049Z</time></trkpt><trkpt lat="45.6384164" lon="10.8842635"><ele>123.16666666666667</ele><time>2026-04-26T08:25:54.05Z</time></trkpt><trkpt lat="45.6383562" lon="10.8842059"><ele>123.0</ele><time>2026-04-26T08:25:55.049Z</time></trkpt><trkpt lat="45.6382948" lon="10.8841497"><ele>123.0</ele><time>2026-04-26T08:25:56.049Z</time></trkpt><trkpt lat="45.6382354" lon="10.8840964"><ele>123.0</ele><time>2026-04-26T08:25:57.05Z</time></trkpt><trkpt lat="45.6381688" lon="10.8840336"><ele>123.0</ele><time>2026-04-26T08:25:58.05Z</time></trkpt><trkpt lat="45.6380966" lon="10.8839623"><ele>123.0</ele><time>2026-04-26T08:25:59.05Z</time></trkpt><trkpt lat="45.6380243" lon="10.8838863"><ele>123.0</ele><time>2026-04-26T08:26:00.05Z</time></trkpt><trkpt lat="45.6379508" lon="10.8838117"><ele>123.0</ele><time>2026-04-26T08:26:01.05Z</time></trkpt><trkpt lat="45.6378746" lon="10.8837404"><ele>123.0</ele><time>2026-04-26T08:26:02.049Z</time></trkpt><trkpt lat="45.637804" lon="10.8836677"><ele>123.0</ele><time>2026-04-26T08:26:03.05Z</time></trkpt><trkpt lat="45.6377316" lon="10.8835955"><ele>123.0</ele><time>2026-04-26T08:26:04.049Z</time></trkpt><trkpt lat="45.6376587" lon="10.8835192"><ele>123.0</ele><time>2026-04-26T08:26:05.05Z</time></trkpt><trkpt lat="45.6375856" lon="10.883456"><ele>123.0</ele><time>2026-04-26T08:26:06.05Z</time></trkpt><trkpt lat="45.6375187" lon="10.8833868"><ele>123.0</ele><time>2026-04-26T08:26:07.05Z</time></trkpt><trkpt lat="45.6374523" lon="10.8833219"><ele>123.0</ele><time>2026-04-26T08:26:08.05Z</time></trkpt><trkpt lat="45.6373844" lon="10.8832608"><ele>123.0</ele><time>2026-04-26T08:26:09.05Z</time></trkpt><trkpt lat="45.6373134" lon="10.8831953"><ele>123.0</ele><time>2026-04-26T08:26:10.049Z</time></trkpt><trkpt lat="45.6372344" lon="10.883121"><ele>123.0</ele><time>2026-04-26T08:26:11.049Z</time></trkpt><trkpt lat="45.6371542" lon="10.8830508"><ele>123.0</ele><time>2026-04-26T08:26:12.049Z</time></trkpt><trkpt lat="45.637075" lon="10.8829878"><ele>123.0</ele><time>2026-04-26T08:26:13.05Z</time></trkpt><trkpt lat="45.6369952" lon="10.8829127"><ele>123.16666666666667</ele><time>2026-04-26T08:26:14.05Z</time></trkpt><trkpt lat="45.6369215" lon="10.8828426"><ele>123.33333333333334</ele><time>2026-04-26T08:26:15.049Z</time></trkpt><trkpt lat="45.6368517" lon="10.8827752"><ele>123.5</ele><time>2026-04-26T08:26:16.049Z</time></trkpt><trkpt lat="45.6367818" lon="10.8827037"><ele>123.66666666666667</ele><time>2026-04-26T08:26:17.05Z</time></trkpt><trkpt lat="45.6367104" lon="10.8826322"><ele>123.83333333333334</ele><time>2026-04-26T08:26:18.05Z</time></trkpt><trkpt lat="45.6366362" lon="10.8825638"><ele>124.0</ele><time>2026-04-26T08:26:19.049Z</time></trkpt><trkpt lat="45.6365635" lon="10.8824908"><ele>124.0</ele><time>2026-04-26T08:26:20.05Z</time></trkpt><trkpt lat="45.6364918" lon="10.882416"><ele>124.0</ele><time>2026-04-26T08:26:21.049Z</time></trkpt><trkpt lat="45.6364158" lon="10.8823414"><ele>124.0</ele><time>2026-04-26T08:26:22.049Z</time></trkpt><trkpt lat="45.6363346" lon="10.8822664"><ele>124.0</ele><time>2026-04-26T08:26:23.05Z</time></trkpt><trkpt lat="45.6362542" lon="10.8821902"><ele>124.0</ele><time>2026-04-26T08:26:24.049Z</time></trkpt><trkpt lat="45.6361739" lon="10.882109"><ele>124.00000000000001</ele><time>2026-04-26T08:26:25.05Z</time></trkpt><trkpt lat="45.6360966" lon="10.8820298"><ele>124.0</ele><time>2026-04-26T08:26:26.05Z</time></trkpt><trkpt lat="45.6360242" lon="10.8819573"><ele>124.0</ele><time>2026-04-26T08:26:27.049Z</time></trkpt><trkpt lat="45.6359557" lon="10.8818933"><ele>124.0</ele><time>2026-04-26T08:26:28.05Z</time></trkpt><trkpt lat="45.6358919" lon="10.8818369"><ele>124.00000000000001</ele><time>2026-04-26T08:26:29.05Z</time></trkpt><trkpt lat="45.6358314" lon="10.8817823"><ele>124.0</ele><time>2026-04-26T08:26:30.05Z</time></trkpt><trkpt lat="45.6357457" lon="10.8817049"><ele>124.57142857142858</ele><time>2026-04-26T08:26:32.05Z</time></trkpt><trkpt lat="45.6356986" lon="10.8817712"><ele>125.14285714285715</ele><time>2026-04-26T08:26:36.05Z</time></trkpt><trkpt lat="45.6356937" lon="10.8818867"><ele>125.71428571428572</ele><time>2026-04-26T08:26:38.049Z</time></trkpt><trkpt lat="45.6356805" lon="10.881979"><ele>126.28571428571428</ele><time>2026-04-26T08:26:39.05Z</time></trkpt><trkpt lat="45.6356636" lon="10.8820788"><ele>126.85714285714285</ele><time>2026-04-26T08:26:40.05Z</time></trkpt><trkpt lat="45.6356507" lon="10.8821761"><ele>127.42857142857142</ele><time>2026-04-26T08:26:41.049Z</time></trkpt><trkpt lat="45.635636" lon="10.8822643"><ele>128.0</ele><time>2026-04-26T08:26:42.049Z</time></trkpt><trkpt lat="45.6356157" lon="10.8823922"><ele>128.0</ele><time>2026-04-26T08:26:44.049Z</time></trkpt><trkpt lat="45.6355663" lon="10.8824611"><ele>128.0</ele><time>2026-04-26T08:26:49.049Z</time></trkpt><trkpt lat="45.6355036" lon="10.8824343"><ele>128.0</ele><time>2026-04-26T08:26:51.05Z</time></trkpt><trkpt lat="45.6354145" lon="10.8822851"><ele>128.0</ele><time>2026-04-26T08:26:53.049Z</time></trkpt><trkpt lat="45.6353519" lon="10.8821277"><ele>128.0</ele><time>2026-04-26T08:26:54.049Z</time></trkpt><trkpt lat="45.6352846" lon="10.8819391"><ele>128.66666666666666</ele><time>2026-04-26T08:26:55.05Z</time></trkpt><trkpt lat="45.6352144" lon="10.8817258"><ele>129.33333333333334</ele><time>2026-04-26T08:26:56.05Z</time></trkpt><trkpt lat="45.6351385" lon="10.8815048"><ele>130.0</ele><time>2026-04-26T08:26:57.049Z</time></trkpt><trkpt lat="45.6350502" lon="10.8812878"><ele>130.0</ele><time>2026-04-26T08:26:58.05Z</time></trkpt><trkpt lat="45.6349445" lon="10.8810868"><ele>130.0</ele><time>2026-04-26T08:26:59.049Z</time></trkpt><trkpt lat="45.634824" lon="10.8809019"><ele>130.0</ele><time>2026-04-26T08:27:00.05Z</time></trkpt><trkpt lat="45.6346883" lon="10.8807337"><ele>129.33333333333334</ele><time>2026-04-26T08:27:01.049Z</time></trkpt><trkpt lat="45.6345392" lon="10.8805833"><ele>128.66666666666666</ele><time>2026-04-26T08:27:02.049Z</time></trkpt><trkpt lat="45.6343841" lon="10.8804493"><ele>128.0</ele><time>2026-04-26T08:27:03.049Z</time></trkpt><trkpt lat="45.634216" lon="10.880329"><ele>128.0</ele><time>2026-04-26T08:27:04.05Z</time></trkpt><trkpt lat="45.6340393" lon="10.8802246"><ele>128.0</ele><time>2026-04-26T08:27:05.05Z</time></trkpt><trkpt lat="45.6338616" lon="10.8801402"><ele>128.0</ele><time>2026-04-26T08:27:06.049Z</time></trkpt><trkpt lat="45.633683" lon="10.8800789"><ele>127.0</ele><time>2026-04-26T08:27:07.049Z</time></trkpt><trkpt lat="45.6335066" lon="10.8800337"><ele>126.0</ele><time>2026-04-26T08:27:08.05Z</time></trkpt><trkpt lat="45.6333311" lon="10.8799965"><ele>125.0</ele><time>2026-04-26T08:27:09.05Z</time></trkpt><trkpt lat="45.6331597" lon="10.8799658"><ele>125.0</ele><time>2026-04-26T08:27:10.05Z</time></trkpt><trkpt lat="45.6329861" lon="10.8799302"><ele>125.0</ele><time>2026-04-26T08:27:11.05Z</time></trkpt><trkpt lat="45.6328117" lon="10.8798892"><ele>125.0</ele><time>2026-04-26T08:27:12.05Z</time></trkpt><trkpt lat="45.6326411" lon="10.879844"><ele>126.33333333333333</ele><time>2026-04-26T08:27:13.049Z</time></trkpt><trkpt lat="45.6324705" lon="10.879799"><ele>127.66666666666666</ele><time>2026-04-26T08:27:14.049Z</time></trkpt><trkpt lat="45.6323134" lon="10.8797401"><ele>129.0</ele><time>2026-04-26T08:27:15.049Z</time></trkpt><trkpt lat="45.6321652" lon="10.8796735"><ele>129.0</ele><time>2026-04-26T08:27:16.049Z</time></trkpt><trkpt lat="45.6320271" lon="10.879592"><ele>129.0</ele><time>2026-04-26T08:27:17.05Z</time></trkpt><trkpt lat="45.6318917" lon="10.8795092"><ele>129.0</ele><time>2026-04-26T08:27:18.049Z</time></trkpt><trkpt lat="45.6317639" lon="10.8794321"><ele>129.0</ele><time>2026-04-26T08:27:19.05Z</time></trkpt><trkpt lat="45.631639" lon="10.8793431"><ele>128.0</ele><time>2026-04-26T08:27:20.05Z</time></trkpt><trkpt lat="45.6315192" lon="10.879262"><ele>127.0</ele><time>2026-04-26T08:27:21.05Z</time></trkpt><trkpt lat="45.6314193" lon="10.8791829"><ele>126.0</ele><time>2026-04-26T08:27:22.05Z</time></trkpt><trkpt lat="45.6313354" lon="10.8791076"><ele>125.0</ele><time>2026-04-26T08:27:23.05Z</time></trkpt><trkpt lat="45.6312693" lon="10.8790521"><ele>124.0</ele><time>2026-04-26T08:27:24.05Z</time></trkpt><trkpt lat="45.6311876" lon="10.8789646"><ele>124.0</ele><time>2026-04-26T08:27:26.049Z</time></trkpt><trkpt lat="45.6312578" lon="10.8789473"><ele>124.0</ele><time>2026-04-26T08:27:30.05Z</time></trkpt><trkpt lat="45.6313696" lon="10.879012"><ele>124.0</ele><time>2026-04-26T08:28:03.05Z</time></trkpt><trkpt lat="45.6314669" lon="10.8790886"><ele>124.0</ele><time>2026-04-26T08:28:05.05Z</time></trkpt><trkpt lat="45.6315728" lon="10.8791446"><ele>124.0</ele><time>2026-04-26T08:28:07.05Z</time></trkpt><trkpt lat="45.6316817" lon="10.879206"><ele>124.0</ele><time>2026-04-26T08:28:09.05Z</time></trkpt><trkpt lat="45.6317439" lon="10.879247"><ele>124.0</ele><time>2026-04-26T08:28:10.049Z</time></trkpt><trkpt lat="45.6318029" lon="10.8792811"><ele>124.0</ele><time>2026-04-26T08:28:11.049Z</time></trkpt><trkpt lat="45.6319116" lon="10.8793364"><ele>124.0</ele><time>2026-04-26T08:28:13.049Z</time></trkpt><trkpt lat="45.6320102" lon="10.8793918"><ele>124.0</ele><time>2026-04-26T08:28:15.05Z</time></trkpt><trkpt lat="45.6321169" lon="10.8794576"><ele>124.83333333333334</ele><time>2026-04-26T08:28:17.05Z</time></trkpt><trkpt lat="45.6322239" lon="10.8795387"><ele>125.66666666666667</ele><time>2026-04-26T08:28:19.049Z</time></trkpt><trkpt lat="45.6322906" lon="10.8795419"><ele>126.5</ele><time>2026-04-26T08:28:22.048Z</time></trkpt><trkpt lat="45.6322134" lon="10.879479"><ele>127.33333333333334</ele><time>2026-04-26T08:28:25.048Z</time></trkpt><trkpt lat="45.6321574" lon="10.8794115"><ele>128.16666666666666</ele><time>2026-04-26T08:28:28.049Z</time></trkpt><trkpt lat="45.6321473" lon="10.8793057"><ele>129.0</ele><time>2026-04-26T08:28:32.049Z</time></trkpt><trkpt lat="45.632281" lon="10.8790485"><ele>126.2</ele><time>2026-04-26T08:28:35.082Z</time></trkpt><trkpt lat="45.6323151" lon="10.8788998"><ele>123.4</ele><time>2026-04-26T08:28:36.081Z</time></trkpt><trkpt lat="45.6323295" lon="10.878795"><ele>120.6</ele><time>2026-04-26T08:28:37.082Z</time></trkpt><trkpt lat="45.6323424" lon="10.8787023"><ele>117.8</ele><time>2026-04-26T08:28:44.082Z</time></trkpt><trkpt lat="45.6323787" lon="10.8785794"><ele>115.0</ele><time>2026-04-26T08:28:46.082Z</time></trkpt><trkpt lat="45.6324193" lon="10.8784236"><ele>113.25</ele><time>2026-04-26T08:28:48.082Z</time></trkpt><trkpt lat="45.6324586" lon="10.8782703"><ele>111.5</ele><time>2026-04-26T08:28:50.082Z</time></trkpt><trkpt lat="45.6324938" lon="10.8781027"><ele>109.75</ele><time>2026-04-26T08:28:52.082Z</time></trkpt><trkpt lat="45.6325306" lon="10.8779394"><ele>108.0</ele><time>2026-04-26T08:28:54.081Z</time></trkpt><trkpt lat="45.6325595" lon="10.8777963"><ele>108.0</ele><time>2026-04-26T08:28:56.082Z</time></trkpt><trkpt lat="45.6325519" lon="10.8776962"><ele>108.0</ele><time>2026-04-26T08:28:59.081Z</time></trkpt><trkpt lat="45.6324754" lon="10.8776548"><ele>108.0</ele><time>2026-04-26T08:29:01.082Z</time></trkpt><trkpt lat="45.6324072" lon="10.8776292"><ele>108.0</ele><time>2026-04-26T08:29:02.082Z</time></trkpt><trkpt lat="45.6323347" lon="10.8776026"><ele>108.0</ele><time>2026-04-26T08:29:03.081Z</time></trkpt><trkpt lat="45.6322636" lon="10.8775838"><ele>108.0</ele><time>2026-04-26T08:29:04.081Z</time></trkpt><trkpt lat="45.6321949" lon="10.8775678"><ele>108.0</ele><time>2026-04-26T08:29:05.082Z</time></trkpt><trkpt lat="45.6321231" lon="10.8775528"><ele>108.16666666666667</ele><time>2026-04-26T08:29:06.082Z</time></trkpt><trkpt lat="45.6320467" lon="10.8775422"><ele>108.33333333333334</ele><time>2026-04-26T08:29:07.082Z</time></trkpt><trkpt lat="45.6319628" lon="10.8775299"><ele>108.5</ele><time>2026-04-26T08:29:08.081Z</time></trkpt><trkpt lat="45.6318733" lon="10.8775219"><ele>108.66666666666667</ele><time>2026-04-26T08:29:09.081Z</time></trkpt><trkpt lat="45.6317802" lon="10.8775146"><ele>108.83333333333334</ele><time>2026-04-26T08:29:10.082Z</time></trkpt><trkpt lat="45.6316902" lon="10.8775052"><ele>109.0</ele><time>2026-04-26T08:29:11.081Z</time></trkpt><trkpt lat="45.6316013" lon="10.8774952"><ele>109.0</ele><time>2026-04-26T08:29:12.081Z</time></trkpt><trkpt lat="45.6315115" lon="10.8774841"><ele>109.0</ele><time>2026-04-26T08:29:13.082Z</time></trkpt><trkpt lat="45.6314225" lon="10.8774837"><ele>109.0</ele><time>2026-04-26T08:29:14.082Z</time></trkpt><trkpt lat="45.6313261" lon="10.8774756"><ele>109.0</ele><time>2026-04-26T08:29:15.082Z</time></trkpt><trkpt lat="45.6312304" lon="10.8774791"><ele>109.0</ele><time>2026-04-26T08:29:16.082Z</time></trkpt><trkpt lat="45.6311375" lon="10.8774726"><ele>108.83333333333334</ele><time>2026-04-26T08:29:17.081Z</time></trkpt><trkpt lat="45.6310454" lon="10.8774586"><ele>108.66666666666667</ele><time>2026-04-26T08:29:18.082Z</time></trkpt><trkpt lat="45.6309551" lon="10.8774475"><ele>108.5</ele><time>2026-04-26T08:29:19.081Z</time></trkpt><trkpt lat="45.6308699" lon="10.8774394"><ele>108.33333333333334</ele><time>2026-04-26T08:29:20.082Z</time></trkpt><trkpt lat="45.6307963" lon="10.8774234"><ele>108.16666666666667</ele><time>2026-04-26T08:29:21.082Z</time></trkpt><trkpt lat="45.6307322" lon="10.8774062"><ele>108.0</ele><time>2026-04-26T08:29:22.081Z</time></trkpt><trkpt lat="45.6306564" lon="10.8773899"><ele>108.0</ele><time>2026-04-26T08:29:23.081Z</time></trkpt><trkpt lat="45.6305731" lon="10.8773644"><ele>108.0</ele><time>2026-04-26T08:29:24.082Z</time></trkpt><trkpt lat="45.6304955" lon="10.8773377"><ele>108.0</ele><time>2026-04-26T08:29:25.082Z</time></trkpt><trkpt lat="45.6304212" lon="10.8773161"><ele>108.0</ele><time>2026-04-26T08:29:26.082Z</time></trkpt><trkpt lat="45.6303456" lon="10.8772979"><ele>108.0</ele><time>2026-04-26T08:29:27.082Z</time></trkpt><trkpt lat="45.630271" lon="10.8772707"><ele>108.0</ele><time>2026-04-26T08:29:28.081Z</time></trkpt><trkpt lat="45.6302057" lon="10.8772362"><ele>110.0</ele><time>2026-04-26T08:29:29.081Z</time></trkpt><trkpt lat="45.6301076" lon="10.8771927"><ele>112.00000000000001</ele><time>2026-04-26T08:29:31.082Z</time></trkpt><trkpt lat="45.6300692" lon="10.877269"><ele>114.00000000000001</ele><time>2026-04-26T08:29:38.082Z</time></trkpt><trkpt lat="45.6300551" lon="10.877378"><ele>116.0</ele><time>2026-04-26T08:29:40.081Z</time></trkpt><trkpt lat="45.630135" lon="10.8774683"><ele>118.0</ele><time>2026-04-26T08:29:43.082Z</time></trkpt><trkpt lat="45.6302231" lon="10.8775457"><ele>118.4</ele><time>2026-04-26T08:29:45.082Z</time></trkpt><trkpt lat="45.6303034" lon="10.8776025"><ele>118.80000000000001</ele><time>2026-04-26T08:29:47.082Z</time></trkpt><trkpt lat="45.6303928" lon="10.8776529"><ele>119.2</ele><time>2026-04-26T08:29:49.081Z</time></trkpt><trkpt lat="45.6304838" lon="10.8776946"><ele>119.6</ele><time>2026-04-26T08:29:51.082Z</time></trkpt><trkpt lat="45.6305426" lon="10.8777504"><ele>120.0</ele><time>2026-04-26T08:29:54.082Z</time></trkpt><trkpt lat="45.6304371" lon="10.8777271"><ele>120.0</ele><time>2026-04-26T08:29:59.081Z</time></trkpt><trkpt lat="45.6303659" lon="10.8776844"><ele>120.0</ele><time>2026-04-26T08:30:00.082Z</time></trkpt><trkpt lat="45.6302778" lon="10.8776258"><ele>120.0</ele><time>2026-04-26T08:30:01.082Z</time></trkpt><trkpt lat="45.6301798" lon="10.8775595"><ele>120.0</ele><time>2026-04-26T08:30:02.081Z</time></trkpt><trkpt lat="45.6300817" lon="10.8774956"><ele>120.0</ele><time>2026-04-26T08:30:03.081Z</time></trkpt><trkpt lat="45.6299924" lon="10.8774323"><ele>119.66666666666667</ele><time>2026-04-26T08:30:04.082Z</time></trkpt><trkpt lat="45.6299089" lon="10.8773688"><ele>119.33333333333334</ele><time>2026-04-26T08:30:05.081Z</time></trkpt><trkpt lat="45.6298283" lon="10.8773144"><ele>119.0</ele><time>2026-04-26T08:30:06.081Z</time></trkpt><trkpt lat="45.6297542" lon="10.8772655"><ele>118.66666666666667</ele><time>2026-04-26T08:30:07.082Z</time></trkpt><trkpt lat="45.6296937" lon="10.8772197"><ele>118.33333333333334</ele><time>2026-04-26T08:30:08.082Z</time></trkpt><trkpt lat="45.6296002" lon="10.877176"><ele>118.0</ele><time>2026-04-26T08:30:10.081Z</time></trkpt><trkpt lat="45.6295012" lon="10.8771037"><ele>117.80000000000001</ele><time>2026-04-26T08:30:12.082Z</time></trkpt><trkpt lat="45.6294421" lon="10.8770362"><ele>117.60000000000001</ele><time>2026-04-26T08:30:13.082Z</time></trkpt><trkpt lat="45.6293766" lon="10.8769501"><ele>117.39999999999999</ele><time>2026-04-26T08:30:14.081Z</time></trkpt><trkpt lat="45.6293096" lon="10.8768428"><ele>117.19999999999999</ele><time>2026-04-26T08:30:15.082Z</time></trkpt><trkpt lat="45.6292438" lon="10.8767345"><ele>117.0</ele><time>2026-04-26T08:30:16.082Z</time></trkpt><trkpt lat="45.6291756" lon="10.8766242"><ele>117.0</ele><time>2026-04-26T08:30:17.082Z</time></trkpt><trkpt lat="45.6291068" lon="10.8765151"><ele>116.99999999999999</ele><time>2026-04-26T08:30:18.081Z</time></trkpt><trkpt lat="45.6290329" lon="10.8763966"><ele>116.99999999999999</ele><time>2026-04-26T08:30:19.082Z</time></trkpt><trkpt lat="45.6289553" lon="10.8762758"><ele>117.0</ele><time>2026-04-26T08:30:20.081Z</time></trkpt><trkpt lat="45.6288813" lon="10.8761458"><ele>117.0</ele><time>2026-04-26T08:30:21.082Z</time></trkpt><trkpt lat="45.628808" lon="10.8760127"><ele>118.0</ele><time>2026-04-26T08:30:22.081Z</time></trkpt><trkpt lat="45.6287283" lon="10.8758714"><ele>119.0</ele><time>2026-04-26T08:30:23.082Z</time></trkpt><trkpt lat="45.6286468" lon="10.8757283"><ele>120.0</ele><time>2026-04-26T08:30:24.082Z</time></trkpt><trkpt lat="45.6285564" lon="10.8755913"><ele>121.0</ele><time>2026-04-26T08:30:25.081Z</time></trkpt><trkpt lat="45.6284686" lon="10.8754431"><ele>121.0</ele><time>2026-04-26T08:30:26.081Z</time></trkpt><trkpt lat="45.6283887" lon="10.8753009"><ele>121.0</ele><time>2026-04-26T08:30:27.081Z</time></trkpt><trkpt lat="45.6283125" lon="10.8751717"><ele>121.0</ele><time>2026-04-26T08:30:28.082Z</time></trkpt><trkpt lat="45.6282375" lon="10.8750416"><ele>121.0</ele><time>2026-04-26T08:30:29.081Z</time></trkpt><trkpt lat="45.628165" lon="10.874907"><ele>119.0</ele><time>2026-04-26T08:30:30.082Z</time></trkpt><trkpt lat="45.6280953" lon="10.8747733"><ele>117.0</ele><time>2026-04-26T08:30:31.082Z</time></trkpt><trkpt lat="45.6280212" lon="10.8746365"><ele>115.0</ele><time>2026-04-26T08:30:32.082Z</time></trkpt><trkpt lat="45.6279435" lon="10.8745016"><ele>113.0</ele><time>2026-04-26T08:30:33.082Z</time></trkpt><trkpt lat="45.6278596" lon="10.8743657"><ele>114.25</ele><time>2026-04-26T08:30:34.081Z</time></trkpt><trkpt lat="45.6277775" lon="10.8742329"><ele>115.5</ele><time>2026-04-26T08:30:35.082Z</time></trkpt><trkpt lat="45.627693" lon="10.8741062"><ele>116.75</ele><time>2026-04-26T08:30:36.081Z</time></trkpt><trkpt lat="45.6276107" lon="10.873984"><ele>118.0</ele><time>2026-04-26T08:30:37.082Z</time></trkpt><trkpt lat="45.6275343" lon="10.873872"><ele>118.00000000000001</ele><time>2026-04-26T08:30:38.081Z</time></trkpt><trkpt lat="45.6274616" lon="10.8737755"><ele>118.0</ele><time>2026-04-26T08:30:39.081Z</time></trkpt><trkpt lat="45.6273916" lon="10.8736967"><ele>118.0</ele><time>2026-04-26T08:30:40.081Z</time></trkpt><trkpt lat="45.6273299" lon="10.8736381"><ele>118.0</ele><time>2026-04-26T08:30:41.082Z</time></trkpt><trkpt lat="45.6272545" lon="10.873566"><ele>118.00000000000001</ele><time>2026-04-26T08:30:43.081Z</time></trkpt><trkpt lat="45.6272899" lon="10.8736524"><ele>118.0</ele><time>2026-04-26T08:31:00.08Z</time></trkpt><trkpt lat="45.6273729" lon="10.8737111"><ele>118.0</ele><time>2026-04-26T08:31:02.081Z</time></trkpt><trkpt lat="45.6274566" lon="10.8737527"><ele>118.00000000000001</ele><time>2026-04-26T08:31:04.08Z</time></trkpt><trkpt lat="45.6274905" lon="10.8736285"><ele>118.00000000000001</ele><time>2026-04-26T08:31:07.081Z</time></trkpt><trkpt lat="45.6274297" lon="10.8734717"><ele>118.0</ele><time>2026-04-26T08:31:09.081Z</time></trkpt><trkpt lat="45.6274029" lon="10.8733734"><ele>118.0</ele><time>2026-04-26T08:31:10.081Z</time></trkpt><trkpt lat="45.627374" lon="10.8732766"><ele>116.2</ele><time>2026-04-26T08:31:11.081Z</time></trkpt><trkpt lat="45.6273431" lon="10.8731829"><ele>114.4</ele><time>2026-04-26T08:31:12.08Z</time></trkpt><trkpt lat="45.6272961" lon="10.8730807"><ele>112.60000000000001</ele><time>2026-04-26T08:31:13.08Z</time></trkpt><trkpt lat="45.6272373" lon="10.8729697"><ele>110.80000000000001</ele><time>2026-04-26T08:31:14.08Z</time></trkpt><trkpt lat="45.6271744" lon="10.8728546"><ele>109.0</ele><time>2026-04-26T08:31:15.081Z</time></trkpt><trkpt lat="45.6271" lon="10.8727272"><ele>108.5</ele><time>2026-04-26T08:31:16.081Z</time></trkpt><trkpt lat="45.6270203" lon="10.8725855"><ele>108.0</ele><time>2026-04-26T08:31:17.081Z</time></trkpt><trkpt lat="45.6269444" lon="10.8724393"><ele>107.5</ele><time>2026-04-26T08:31:18.081Z</time></trkpt><trkpt lat="45.6268783" lon="10.8722993"><ele>107.0</ele><time>2026-04-26T08:31:19.081Z</time></trkpt><trkpt lat="45.6268177" lon="10.8721684"><ele>106.99999999999999</ele><time>2026-04-26T08:31:20.08Z</time></trkpt><trkpt lat="45.6267582" lon="10.87205"><ele>107.0</ele><time>2026-04-26T08:31:21.08Z</time></trkpt><trkpt lat="45.6266999" lon="10.871937"><ele>107.0</ele><time>2026-04-26T08:31:22.08Z</time></trkpt><trkpt lat="45.6266513" lon="10.8718525"><ele>107.0</ele><time>2026-04-26T08:31:23.08Z</time></trkpt><trkpt lat="45.6265985" lon="10.871776"><ele>106.99999999999999</ele><time>2026-04-26T08:31:24.08Z</time></trkpt><trkpt lat="45.6265401" lon="10.8717013"><ele>107.0</ele><time>2026-04-26T08:31:25.081Z</time></trkpt><trkpt lat="45.6264725" lon="10.8716176"><ele>107.0</ele><time>2026-04-26T08:31:26.081Z</time></trkpt><trkpt lat="45.6264023" lon="10.8715377"><ele>106.99999999999999</ele><time>2026-04-26T08:31:27.081Z</time></trkpt><trkpt lat="45.6263351" lon="10.8714446"><ele>106.99999999999999</ele><time>2026-04-26T08:31:28.08Z</time></trkpt><trkpt lat="45.6262724" lon="10.8713526"><ele>107.0</ele><time>2026-04-26T08:31:29.081Z</time></trkpt><trkpt lat="45.6262028" lon="10.8712595"><ele>107.0</ele><time>2026-04-26T08:31:30.08Z</time></trkpt><trkpt lat="45.6261219" lon="10.8711719"><ele>107.39999999999999</ele><time>2026-04-26T08:31:31.08Z</time></trkpt><trkpt lat="45.6260266" lon="10.8710808"><ele>107.79999999999998</ele><time>2026-04-26T08:31:32.08Z</time></trkpt><trkpt lat="45.6259284" lon="10.8709852"><ele>108.2</ele><time>2026-04-26T08:31:33.08Z</time></trkpt><trkpt lat="45.6258359" lon="10.8708987"><ele>108.6</ele><time>2026-04-26T08:31:34.081Z</time></trkpt><trkpt lat="45.6257484" lon="10.8708173"><ele>109.0</ele><time>2026-04-26T08:31:35.081Z</time></trkpt><trkpt lat="45.6256616" lon="10.8707271"><ele>109.0</ele><time>2026-04-26T08:31:36.08Z</time></trkpt><trkpt lat="45.6255722" lon="10.8706462"><ele>109.0</ele><time>2026-04-26T08:31:37.081Z</time></trkpt><trkpt lat="45.6254854" lon="10.8705677"><ele>109.0</ele><time>2026-04-26T08:31:38.081Z</time></trkpt><trkpt lat="45.6254019" lon="10.8704963"><ele>109.0</ele><time>2026-04-26T08:31:39.08Z</time></trkpt><trkpt lat="45.6253115" lon="10.8704255"><ele>109.0</ele><time>2026-04-26T08:31:40.081Z</time></trkpt><trkpt lat="45.6252367" lon="10.8703637"><ele>109.16666666666667</ele><time>2026-04-26T08:31:41.081Z</time></trkpt><trkpt lat="45.6251611" lon="10.8703044"><ele>109.33333333333334</ele><time>2026-04-26T08:31:42.081Z</time></trkpt><trkpt lat="45.6250851" lon="10.8702392"><ele>109.5</ele><time>2026-04-26T08:31:43.081Z</time></trkpt><trkpt lat="45.6250132" lon="10.870175"><ele>109.66666666666666</ele><time>2026-04-26T08:31:44.08Z</time></trkpt><trkpt lat="45.6249369" lon="10.870115"><ele>109.83333333333333</ele><time>2026-04-26T08:31:45.08Z</time></trkpt><trkpt lat="45.6248523" lon="10.8700519"><ele>110.0</ele><time>2026-04-26T08:31:46.081Z</time></trkpt><trkpt lat="45.6247633" lon="10.8699839"><ele>109.8</ele><time>2026-04-26T08:31:47.081Z</time></trkpt><trkpt lat="45.6246733" lon="10.8699127"><ele>109.6</ele><time>2026-04-26T08:31:48.081Z</time></trkpt><trkpt lat="45.6245831" lon="10.8698452"><ele>109.4</ele><time>2026-04-26T08:31:49.08Z</time></trkpt><trkpt lat="45.6244949" lon="10.8697843"><ele>109.2</ele><time>2026-04-26T08:31:50.08Z</time></trkpt><trkpt lat="45.6244083" lon="10.8697248"><ele>109.0</ele><time>2026-04-26T08:31:51.08Z</time></trkpt><trkpt lat="45.6243207" lon="10.8696595"><ele>109.0</ele><time>2026-04-26T08:31:52.081Z</time></trkpt><trkpt lat="45.624234" lon="10.86959"><ele>109.0</ele><time>2026-04-26T08:31:53.081Z</time></trkpt><trkpt lat="45.6241452" lon="10.8695224"><ele>109.0</ele><time>2026-04-26T08:31:54.08Z</time></trkpt><trkpt lat="45.6240562" lon="10.8694579"><ele>109.0</ele><time>2026-04-26T08:31:55.081Z</time></trkpt><trkpt lat="45.6239579" lon="10.8693925"><ele>109.0</ele><time>2026-04-26T08:31:56.081Z</time></trkpt><trkpt lat="45.623866" lon="10.8693249"><ele>108.80000000000001</ele><time>2026-04-26T08:31:57.081Z</time></trkpt><trkpt lat="45.6237804" lon="10.8692552"><ele>108.60000000000001</ele><time>2026-04-26T08:31:58.081Z</time></trkpt><trkpt lat="45.6236946" lon="10.8691906"><ele>108.4</ele><time>2026-04-26T08:31:59.081Z</time></trkpt><trkpt lat="45.6236102" lon="10.8691261"><ele>108.2</ele><time>2026-04-26T08:32:00.08Z</time></trkpt><trkpt lat="45.6235232" lon="10.8690492"><ele>108.0</ele><time>2026-04-26T08:32:01.08Z</time></trkpt><trkpt lat="45.6234365" lon="10.8689759"><ele>108.0</ele><time>2026-04-26T08:32:02.081Z</time></trkpt><trkpt lat="45.6233422" lon="10.8689081"><ele>108.00000000000001</ele><time>2026-04-26T08:32:03.08Z</time></trkpt><trkpt lat="45.6232528" lon="10.8688415"><ele>108.00000000000001</ele><time>2026-04-26T08:32:04.08Z</time></trkpt><trkpt lat="45.6231665" lon="10.8687643"><ele>108.0</ele><time>2026-04-26T08:32:05.081Z</time></trkpt><trkpt lat="45.623083" lon="10.8686833"><ele>108.0</ele><time>2026-04-26T08:32:06.08Z</time></trkpt><trkpt lat="45.623008" lon="10.868598"><ele>108.0</ele><time>2026-04-26T08:32:07.08Z</time></trkpt><trkpt lat="45.6229301" lon="10.8685181"><ele>108.00000000000001</ele><time>2026-04-26T08:32:08.08Z</time></trkpt><trkpt lat="45.6228498" lon="10.8684382"><ele>108.00000000000001</ele><time>2026-04-26T08:32:09.081Z</time></trkpt><trkpt lat="45.6227716" lon="10.8683521"><ele>108.0</ele><time>2026-04-26T08:32:10.081Z</time></trkpt><trkpt lat="45.6226992" lon="10.8682716"><ele>108.0</ele><time>2026-04-26T08:32:11.08Z</time></trkpt><trkpt lat="45.6226227" lon="10.868199"><ele>108.33333333333333</ele><time>2026-04-26T08:32:12.081Z</time></trkpt><trkpt lat="45.6225577" lon="10.8681404"><ele>108.66666666666666</ele><time>2026-04-26T08:32:13.08Z</time></trkpt><trkpt lat="45.6224981" lon="10.8680932"><ele>109.0</ele><time>2026-04-26T08:32:14.081Z</time></trkpt><trkpt lat="45.622406" lon="10.868065"><ele>109.33333333333333</ele><time>2026-04-26T08:32:16.081Z</time></trkpt><trkpt lat="45.6223392" lon="10.8681269"><ele>109.66666666666666</ele><time>2026-04-26T08:32:18.081Z</time></trkpt><trkpt lat="45.6222942" lon="10.8682359"><ele>110.0</ele><time>2026-04-26T08:32:20.081Z</time></trkpt><trkpt lat="45.622264" lon="10.8683485"><ele>111.33333333333333</ele><time>2026-04-26T08:32:22.081Z</time></trkpt><trkpt lat="45.6222935" lon="10.8684554"><ele>112.66666666666666</ele><time>2026-04-26T08:32:28.081Z</time></trkpt><trkpt lat="45.6223792" lon="10.8685529"><ele>114.0</ele><time>2026-04-26T08:32:30.08Z</time></trkpt><trkpt lat="45.622469" lon="10.8686359"><ele>115.33333333333334</ele><time>2026-04-26T08:32:32.08Z</time></trkpt><trkpt lat="45.622484" lon="10.8687256"><ele>116.66666666666667</ele><time>2026-04-26T08:32:36.081Z</time></trkpt><trkpt lat="45.6224267" lon="10.868687"><ele>118.0</ele><time>2026-04-26T08:32:39.08Z</time></trkpt><trkpt lat="45.6223265" lon="10.8686051"><ele>118.00000000000001</ele><time>2026-04-26T08:32:41.081Z</time></trkpt><trkpt lat="45.6222589" lon="10.8685573"><ele>118.0</ele><time>2026-04-26T08:32:42.08Z</time></trkpt><trkpt lat="45.6221903" lon="10.8685086"><ele>118.0</ele><time>2026-04-26T08:32:43.08Z</time></trkpt><trkpt lat="45.6221312" lon="10.8684687"><ele>118.0</ele><time>2026-04-26T08:32:44.081Z</time></trkpt><trkpt lat="45.6220446" lon="10.8684201"><ele>118.00000000000001</ele><time>2026-04-26T08:32:46.08Z</time></trkpt><trkpt lat="45.6219446" lon="10.8683618"><ele>118.0</ele><time>2026-04-26T08:32:48.081Z</time></trkpt><trkpt lat="45.6218706" lon="10.868289"><ele>117.80000000000001</ele><time>2026-04-26T08:32:49.08Z</time></trkpt><trkpt lat="45.6217836" lon="10.8682062"><ele>117.60000000000001</ele><time>2026-04-26T08:32:50.081Z</time></trkpt><trkpt lat="45.6216942" lon="10.8681283"><ele>117.39999999999999</ele><time>2026-04-26T08:32:51.081Z</time></trkpt><trkpt lat="45.6216121" lon="10.8680378"><ele>117.19999999999999</ele><time>2026-04-26T08:32:52.081Z</time></trkpt><trkpt lat="45.6215369" lon="10.8679553"><ele>117.0</ele><time>2026-04-26T08:32:53.08Z</time></trkpt><trkpt lat="45.6214583" lon="10.8678764"><ele>117.0</ele><time>2026-04-26T08:32:54.08Z</time></trkpt><trkpt lat="45.6213667" lon="10.8677757"><ele>117.0</ele><time>2026-04-26T08:32:55.081Z</time></trkpt><trkpt lat="45.6212739" lon="10.8676684"><ele>117.0</ele><time>2026-04-26T08:32:56.081Z</time></trkpt><trkpt lat="45.6211661" lon="10.8675593"><ele>117.0</ele><time>2026-04-26T08:32:57.081Z</time></trkpt><trkpt lat="45.6210594" lon="10.8674441"><ele>117.5</ele><time>2026-04-26T08:32:58.08Z</time></trkpt><trkpt lat="45.6209524" lon="10.8673305"><ele>118.0</ele><time>2026-04-26T08:32:59.081Z</time></trkpt><trkpt lat="45.6208465" lon="10.8672178"><ele>118.5</ele><time>2026-04-26T08:33:00.081Z</time></trkpt><trkpt lat="45.6207421" lon="10.8671027"><ele>119.0</ele><time>2026-04-26T08:33:01.081Z</time></trkpt><trkpt lat="45.6206432" lon="10.8669948"><ele>119.0</ele><time>2026-04-26T08:33:02.081Z</time></trkpt><trkpt lat="45.6205399" lon="10.8668872"><ele>119.0</ele><time>2026-04-26T08:33:03.081Z</time></trkpt><trkpt lat="45.620448" lon="10.8667833"><ele>119.0</ele><time>2026-04-26T08:33:04.08Z</time></trkpt><trkpt lat="45.6203595" lon="10.8666862"><ele>119.0</ele><time>2026-04-26T08:33:05.081Z</time></trkpt><trkpt lat="45.620276" lon="10.8665883"><ele>119.6</ele><time>2026-04-26T08:33:06.081Z</time></trkpt><trkpt lat="45.6201923" lon="10.8664902"><ele>120.2</ele><time>2026-04-26T08:33:07.08Z</time></trkpt><trkpt lat="45.6201111" lon="10.8663854"><ele>120.79999999999998</ele><time>2026-04-26T08:33:08.081Z</time></trkpt><trkpt lat="45.6200312" lon="10.8662751"><ele>121.39999999999999</ele><time>2026-04-26T08:33:09.081Z</time></trkpt><trkpt lat="45.6199551" lon="10.8661644"><ele>122.0</ele><time>2026-04-26T08:33:10.081Z</time></trkpt><trkpt lat="45.6198802" lon="10.8660462"><ele>119.75</ele><time>2026-04-26T08:33:11.081Z</time></trkpt><trkpt lat="45.6198045" lon="10.865926"><ele>117.5</ele><time>2026-04-26T08:33:12.081Z</time></trkpt><trkpt lat="45.6197282" lon="10.8658027"><ele>115.25</ele><time>2026-04-26T08:33:13.081Z</time></trkpt><trkpt lat="45.6196451" lon="10.8656778"><ele>113.0</ele><time>2026-04-26T08:33:14.081Z</time></trkpt><trkpt lat="45.6195601" lon="10.8655553"><ele>114.5</ele><time>2026-04-26T08:33:15.08Z</time></trkpt><trkpt lat="45.6194708" lon="10.8654321"><ele>116.0</ele><time>2026-04-26T08:33:16.081Z</time></trkpt><trkpt lat="45.6193806" lon="10.8653098"><ele>117.5</ele><time>2026-04-26T08:33:17.08Z</time></trkpt><trkpt lat="45.6192945" lon="10.8651951"><ele>119.0</ele><time>2026-04-26T08:33:18.08Z</time></trkpt><trkpt lat="45.6192212" lon="10.8650889"><ele>119.0</ele><time>2026-04-26T08:33:19.081Z</time></trkpt><trkpt lat="45.6191534" lon="10.8649873"><ele>119.0</ele><time>2026-04-26T08:33:20.081Z</time></trkpt><trkpt lat="45.6191011" lon="10.8648846"><ele>119.0</ele><time>2026-04-26T08:33:21.08Z</time></trkpt><trkpt lat="45.6190474" lon="10.8647658"><ele>119.0</ele><time>2026-04-26T08:33:22.081Z</time></trkpt><trkpt lat="45.6189827" lon="10.8646458"><ele>119.0</ele><time>2026-04-26T08:33:23.081Z</time></trkpt><trkpt lat="45.6189136" lon="10.8645234"><ele>119.0</ele><time>2026-04-26T08:33:24.08Z</time></trkpt><trkpt lat="45.6188473" lon="10.8643906"><ele>119.0</ele><time>2026-04-26T08:33:25.08Z</time></trkpt><trkpt lat="45.6187861" lon="10.8642424"><ele>119.0</ele><time>2026-04-26T08:33:26.081Z</time></trkpt><trkpt lat="45.618724" lon="10.8640886"><ele>119.0</ele><time>2026-04-26T08:33:27.08Z</time></trkpt><trkpt lat="45.6186596" lon="10.863935"><ele>118.75</ele><time>2026-04-26T08:33:28.081Z</time></trkpt><trkpt lat="45.6185836" lon="10.863782"><ele>118.5</ele><time>2026-04-26T08:33:29.08Z</time></trkpt><trkpt lat="45.6185006" lon="10.863628"><ele>118.25</ele><time>2026-04-26T08:33:30.081Z</time></trkpt><trkpt lat="45.6184156" lon="10.863482"><ele>118.0</ele><time>2026-04-26T08:33:31.08Z</time></trkpt><trkpt lat="45.6183344" lon="10.863351"><ele>117.00000000000001</ele><time>2026-04-26T08:33:32.081Z</time></trkpt><trkpt lat="45.6182694" lon="10.8632449"><ele>116.0</ele><time>2026-04-26T08:33:33.081Z</time></trkpt><trkpt lat="45.6182115" lon="10.8631585"><ele>115.0</ele><time>2026-04-26T08:33:34.081Z</time></trkpt><trkpt lat="45.6181656" lon="10.8630968"><ele>114.0</ele><time>2026-04-26T08:33:35.081Z</time></trkpt><trkpt lat="45.6181106" lon="10.8630377"><ele>113.00000000000001</ele><time>2026-04-26T08:33:38.081Z</time></trkpt><trkpt lat="45.6180603" lon="10.8629366"><ele>112.0</ele><time>2026-04-26T08:33:41.08Z</time></trkpt><trkpt lat="45.6180005" lon="10.8627691"><ele>112.00000000000001</ele><time>2026-04-26T08:33:43.08Z</time></trkpt><trkpt lat="45.6179624" lon="10.862667"><ele>112.0</ele><time>2026-04-26T08:33:44.079Z</time></trkpt><trkpt lat="45.6179235" lon="10.8625578"><ele>112.0</ele><time>2026-04-26T08:33:45.08Z</time></trkpt><trkpt lat="45.6178877" lon="10.8624548"><ele>112.0</ele><time>2026-04-26T08:33:46.079Z</time></trkpt><trkpt lat="45.6178516" lon="10.8623413"><ele>112.00000000000001</ele><time>2026-04-26T08:33:47.08Z</time></trkpt><trkpt lat="45.6178215" lon="10.8622187"><ele>112.0</ele><time>2026-04-26T08:33:48.08Z</time></trkpt><trkpt lat="45.6177969" lon="10.8620947"><ele>113.19999999999999</ele><time>2026-04-26T08:33:49.079Z</time></trkpt><trkpt lat="45.6177765" lon="10.8619626"><ele>114.39999999999999</ele><time>2026-04-26T08:33:50.079Z</time></trkpt><trkpt lat="45.6177588" lon="10.8618304"><ele>115.60000000000001</ele><time>2026-04-26T08:33:51.079Z</time></trkpt><trkpt lat="45.6177487" lon="10.8617021"><ele>116.80000000000001</ele><time>2026-04-26T08:33:52.08Z</time></trkpt><trkpt lat="45.6177369" lon="10.8615681"><ele>118.0</ele><time>2026-04-26T08:33:53.08Z</time></trkpt><trkpt lat="45.6177198" lon="10.8614495"><ele>118.0</ele><time>2026-04-26T08:33:54.079Z</time></trkpt><trkpt lat="45.6177034" lon="10.8613468"><ele>118.00000000000001</ele><time>2026-04-26T08:33:55.08Z</time></trkpt><trkpt lat="45.6176819" lon="10.8611937"><ele>118.00000000000001</ele><time>2026-04-26T08:33:57.079Z</time></trkpt><trkpt lat="45.6176624" lon="10.8610633"><ele>118.0</ele><time>2026-04-26T08:33:59.079Z</time></trkpt><trkpt lat="45.617658" lon="10.8608943"><ele>118.0</ele><time>2026-04-26T08:34:01.08Z</time></trkpt><trkpt lat="45.6176628" lon="10.860777"><ele>118.4</ele><time>2026-04-26T08:34:02.08Z</time></trkpt><trkpt lat="45.617667" lon="10.860642"><ele>118.80000000000001</ele><time>2026-04-26T08:34:03.08Z</time></trkpt><trkpt lat="45.6176659" lon="10.8605039"><ele>119.2</ele><time>2026-04-26T08:34:04.079Z</time></trkpt><trkpt lat="45.6176684" lon="10.8603711"><ele>119.6</ele><time>2026-04-26T08:34:05.08Z</time></trkpt><trkpt lat="45.6176763" lon="10.860241"><ele>120.0</ele><time>2026-04-26T08:34:06.079Z</time></trkpt><trkpt lat="45.6176882" lon="10.8601059"><ele>120.0</ele><time>2026-04-26T08:34:07.079Z</time></trkpt><trkpt lat="45.6177013" lon="10.8599669"><ele>120.0</ele><time>2026-04-26T08:34:08.079Z</time></trkpt><trkpt lat="45.6177246" lon="10.8598242"><ele>120.0</ele><time>2026-04-26T08:34:09.08Z</time></trkpt><trkpt lat="45.6177563" lon="10.8596901"><ele>120.0</ele><time>2026-04-26T08:34:10.079Z</time></trkpt><trkpt lat="45.6177925" lon="10.8595674"><ele>120.0</ele><time>2026-04-26T08:34:11.08Z</time></trkpt><trkpt lat="45.6178374" lon="10.8594451"><ele>118.66666666666667</ele><time>2026-04-26T08:34:12.08Z</time></trkpt><trkpt lat="45.6178868" lon="10.8593303"><ele>117.33333333333334</ele><time>2026-04-26T08:34:13.08Z</time></trkpt><trkpt lat="45.617935" lon="10.8592186"><ele>116.0</ele><time>2026-04-26T08:34:14.08Z</time></trkpt><trkpt lat="45.6179775" lon="10.8591175"><ele>114.66666666666667</ele><time>2026-04-26T08:34:15.079Z</time></trkpt><trkpt lat="45.6180195" lon="10.8590328"><ele>113.33333333333334</ele><time>2026-04-26T08:34:16.079Z</time></trkpt><trkpt lat="45.6180614" lon="10.858963"><ele>112.0</ele><time>2026-04-26T08:34:17.08Z</time></trkpt><trkpt lat="45.6181379" lon="10.8588488"><ele>112.00000000000001</ele><time>2026-04-26T08:34:19.079Z</time></trkpt><trkpt lat="45.6181576" lon="10.858753"><ele>112.0</ele><time>2026-04-26T08:34:21.08Z</time></trkpt><trkpt lat="45.6180897" lon="10.8586525"><ele>112.0</ele><time>2026-04-26T08:34:23.079Z</time></trkpt><trkpt lat="45.6180223" lon="10.8585963"><ele>112.0</ele><time>2026-04-26T08:34:24.079Z</time></trkpt><trkpt lat="45.6179462" lon="10.8585315"><ele>112.00000000000001</ele><time>2026-04-26T08:34:25.08Z</time></trkpt><trkpt lat="45.6178558" lon="10.8584516"><ele>112.0</ele><time>2026-04-26T08:34:26.079Z</time></trkpt><trkpt lat="45.617759" lon="10.85836"><ele>114.0</ele><time>2026-04-26T08:34:27.079Z</time></trkpt><trkpt lat="45.617661" lon="10.8582665"><ele>116.0</ele><time>2026-04-26T08:34:28.079Z</time></trkpt><trkpt lat="45.6175605" lon="10.8581668"><ele>118.0</ele><time>2026-04-26T08:34:29.079Z</time></trkpt><trkpt lat="45.6174644" lon="10.8580753"><ele>120.0</ele><time>2026-04-26T08:34:30.079Z</time></trkpt><trkpt lat="45.6173623" lon="10.8579799"><ele>120.0</ele><time>2026-04-26T08:34:31.08Z</time></trkpt><trkpt lat="45.6172622" lon="10.8578802"><ele>120.0</ele><time>2026-04-26T08:34:32.079Z</time></trkpt><trkpt lat="45.6171625" lon="10.8577749"><ele>120.0</ele><time>2026-04-26T08:34:33.08Z</time></trkpt><trkpt lat="45.6170674" lon="10.857669"><ele>120.0</ele><time>2026-04-26T08:34:34.08Z</time></trkpt><trkpt lat="45.6169795" lon="10.8575743"><ele>120.0</ele><time>2026-04-26T08:34:35.079Z</time></trkpt><trkpt lat="45.616902" lon="10.8574932"><ele>120.0</ele><time>2026-04-26T08:34:36.08Z</time></trkpt><trkpt lat="45.6168255" lon="10.8574228"><ele>120.0</ele><time>2026-04-26T08:34:37.08Z</time></trkpt><trkpt lat="45.6167462" lon="10.8573408"><ele>120.0</ele><time>2026-04-26T08:34:38.08Z</time></trkpt><trkpt lat="45.6166583" lon="10.8572454"><ele>120.0</ele><time>2026-04-26T08:34:39.08Z</time></trkpt><trkpt lat="45.6165557" lon="10.8571359"><ele>120.0</ele><time>2026-04-26T08:34:40.079Z</time></trkpt><trkpt lat="45.6164396" lon="10.8570233"><ele>120.0</ele><time>2026-04-26T08:34:41.08Z</time></trkpt><trkpt lat="45.6163302" lon="10.8569123"><ele>120.0</ele><time>2026-04-26T08:34:42.079Z</time></trkpt><trkpt lat="45.61622" lon="10.8568078"><ele>120.0</ele><time>2026-04-26T08:34:43.08Z</time></trkpt><trkpt lat="45.6161041" lon="10.8567049"><ele>119.75</ele><time>2026-04-26T08:34:44.08Z</time></trkpt><trkpt lat="45.6159911" lon="10.8565952"><ele>119.5</ele><time>2026-04-26T08:34:45.08Z</time></trkpt><trkpt lat="45.6158821" lon="10.8564823"><ele>119.25</ele><time>2026-04-26T08:34:46.08Z</time></trkpt><trkpt lat="45.6157716" lon="10.8563743"><ele>119.0</ele><time>2026-04-26T08:34:47.08Z</time></trkpt><trkpt lat="45.6156607" lon="10.8562704"><ele>119.0</ele><time>2026-04-26T08:34:48.079Z</time></trkpt><trkpt lat="45.6155596" lon="10.8561675"><ele>119.0</ele><time>2026-04-26T08:34:49.079Z</time></trkpt><trkpt lat="45.615466" lon="10.8560752"><ele>119.0</ele><time>2026-04-26T08:34:50.08Z</time></trkpt><trkpt lat="45.6153788" lon="10.8559967"><ele>119.0</ele><time>2026-04-26T08:34:51.079Z</time></trkpt><trkpt lat="45.6153051" lon="10.8559172"><ele>119.0</ele><time>2026-04-26T08:34:52.079Z</time></trkpt><trkpt lat="45.6152347" lon="10.8558457"><ele>119.16666666666666</ele><time>2026-04-26T08:34:53.079Z</time></trkpt><trkpt lat="45.615171" lon="10.8557926"><ele>119.33333333333333</ele><time>2026-04-26T08:34:54.079Z</time></trkpt><trkpt lat="45.6150772" lon="10.8557458"><ele>119.5</ele><time>2026-04-26T08:34:56.079Z</time></trkpt><trkpt lat="45.6150015" lon="10.8558216"><ele>119.66666666666666</ele><time>2026-04-26T08:34:58.08Z</time></trkpt><trkpt lat="45.6149498" lon="10.8559052"><ele>119.83333333333333</ele><time>2026-04-26T08:35:00.079Z</time></trkpt><trkpt lat="45.6149736" lon="10.8557844"><ele>120.0</ele><time>2026-04-26T08:35:04.079Z</time></trkpt><trkpt lat="45.6150204" lon="10.85571"><ele>120.0</ele><time>2026-04-26T08:35:05.08Z</time></trkpt><trkpt lat="45.6150765" lon="10.8556128"><ele>120.0</ele><time>2026-04-26T08:35:06.08Z</time></trkpt><trkpt lat="45.6151412" lon="10.8554961"><ele>120.0</ele><time>2026-04-26T08:35:07.08Z</time></trkpt><trkpt lat="45.6151986" lon="10.8553797"><ele>120.0</ele><time>2026-04-26T08:35:08.08Z</time></trkpt><trkpt lat="45.6152517" lon="10.8552719"><ele>120.0</ele><time>2026-04-26T08:35:09.08Z</time></trkpt><trkpt lat="45.6153006" lon="10.8551805"><ele>119.5</ele><time>2026-04-26T08:35:10.079Z</time></trkpt><trkpt lat="45.6153368" lon="10.8550968"><ele>119.0</ele><time>2026-04-26T08:35:11.08Z</time></trkpt><trkpt lat="45.6153694" lon="10.8550044"><ele>118.5</ele><time>2026-04-26T08:35:12.079Z</time></trkpt><trkpt lat="45.615399" lon="10.8549102"><ele>118.0</ele><time>2026-04-26T08:35:13.08Z</time></trkpt><trkpt lat="45.6154268" lon="10.8548105"><ele>117.5</ele><time>2026-04-26T08:35:14.08Z</time></trkpt><trkpt lat="45.6154459" lon="10.8547181"><ele>117.0</ele><time>2026-04-26T08:35:15.079Z</time></trkpt><trkpt lat="45.6154854" lon="10.8545908"><ele>117.0</ele><time>2026-04-26T08:35:17.08Z</time></trkpt><trkpt lat="45.6155581" lon="10.8545233"><ele>116.99999999999999</ele><time>2026-04-26T08:35:19.079Z</time></trkpt><trkpt lat="45.6156928" lon="10.8545032"><ele>116.99999999999999</ele><time>2026-04-26T08:35:21.08Z</time></trkpt><trkpt lat="45.6157839" lon="10.8545209"><ele>117.0</ele><time>2026-04-26T08:35:22.08Z</time></trkpt><trkpt lat="45.6158851" lon="10.8545471"><ele>117.0</ele><time>2026-04-26T08:35:23.08Z</time></trkpt><trkpt lat="45.6159853" lon="10.8545759"><ele>117.0</ele><time>2026-04-26T08:35:24.079Z</time></trkpt><trkpt lat="45.6160927" lon="10.854601"><ele>117.0</ele><time>2026-04-26T08:35:25.079Z</time></trkpt><trkpt lat="45.6162095" lon="10.8546193"><ele>117.0</ele><time>2026-04-26T08:35:26.08Z</time></trkpt><trkpt lat="45.6163278" lon="10.8546409"><ele>117.0</ele><time>2026-04-26T08:35:27.08Z</time></trkpt><trkpt lat="45.6164494" lon="10.8546626"><ele>116.5</ele><time>2026-04-26T08:35:28.08Z</time></trkpt><trkpt lat="45.6165702" lon="10.8546755"><ele>116.0</ele><time>2026-04-26T08:35:29.08Z</time></trkpt><trkpt lat="45.6166915" lon="10.8546905"><ele>115.5</ele><time>2026-04-26T08:35:30.079Z</time></trkpt><trkpt lat="45.6168061" lon="10.8547074"><ele>115.0</ele><time>2026-04-26T08:35:31.079Z</time></trkpt><trkpt lat="45.6169132" lon="10.8547245"><ele>114.4</ele><time>2026-04-26T08:35:32.079Z</time></trkpt><trkpt lat="45.6170203" lon="10.8547256"><ele>113.8</ele><time>2026-04-26T08:35:33.08Z</time></trkpt><trkpt lat="45.617128" lon="10.8547185"><ele>113.19999999999999</ele><time>2026-04-26T08:35:34.08Z</time></trkpt><trkpt lat="45.6172347" lon="10.8547039"><ele>112.6</ele><time>2026-04-26T08:35:35.08Z</time></trkpt><trkpt lat="45.6173397" lon="10.8547063"><ele>112.0</ele><time>2026-04-26T08:35:36.079Z</time></trkpt><trkpt lat="45.61744" lon="10.8547108"><ele>112.00000000000001</ele><time>2026-04-26T08:35:37.08Z</time></trkpt><trkpt lat="45.6175333" lon="10.8547213"><ele>112.0</ele><time>2026-04-26T08:35:38.08Z</time></trkpt><trkpt lat="45.6176159" lon="10.8547248"><ele>112.0</ele><time>2026-04-26T08:35:39.08Z</time></trkpt><trkpt lat="45.617688" lon="10.8547228"><ele>112.0</ele><time>2026-04-26T08:35:40.08Z</time></trkpt><trkpt lat="45.6177929" lon="10.8547359"><ele>112.00000000000001</ele><time>2026-04-26T08:35:42.08Z</time></trkpt><trkpt lat="45.6178881" lon="10.8547291"><ele>112.0</ele><time>2026-04-26T08:35:44.079Z</time></trkpt><trkpt lat="45.6180079" lon="10.854729"><ele>112.6</ele><time>2026-04-26T08:35:46.08Z</time></trkpt><trkpt lat="45.6180824" lon="10.8547385"><ele>113.19999999999999</ele><time>2026-04-26T08:35:47.079Z</time></trkpt><trkpt lat="45.6181647" lon="10.8547471"><ele>113.8</ele><time>2026-04-26T08:35:48.08Z</time></trkpt><trkpt lat="45.6182593" lon="10.854753"><ele>114.4</ele><time>2026-04-26T08:35:49.08Z</time></trkpt><trkpt lat="45.6183682" lon="10.8547607"><ele>115.0</ele><time>2026-04-26T08:35:50.08Z</time></trkpt><trkpt lat="45.6184834" lon="10.8547694"><ele>115.0</ele><time>2026-04-26T08:35:51.079Z</time></trkpt><trkpt lat="45.618593" lon="10.8547857"><ele>115.0</ele><time>2026-04-26T08:35:52.079Z</time></trkpt><trkpt lat="45.6186943" lon="10.8548068"><ele>115.0</ele><time>2026-04-26T08:35:53.08Z</time></trkpt><trkpt lat="45.6187924" lon="10.8548218"><ele>115.0</ele><time>2026-04-26T08:35:54.08Z</time></trkpt><trkpt lat="45.6188825" lon="10.8548352"><ele>115.0</ele><time>2026-04-26T08:35:55.079Z</time></trkpt><trkpt lat="45.6189716" lon="10.8548565"><ele>114.4</ele><time>2026-04-26T08:35:56.08Z</time></trkpt><trkpt lat="45.6190643" lon="10.8548837"><ele>113.8</ele><time>2026-04-26T08:35:57.08Z</time></trkpt><trkpt lat="45.6191521" lon="10.8549325"><ele>113.19999999999999</ele><time>2026-04-26T08:35:58.079Z</time></trkpt><trkpt lat="45.6192446" lon="10.8549915"><ele>112.6</ele><time>2026-04-26T08:35:59.079Z</time></trkpt><trkpt lat="45.619338" lon="10.8550323"><ele>112.0</ele><time>2026-04-26T08:36:00.08Z</time></trkpt><trkpt lat="45.6194258" lon="10.8550794"><ele>112.00000000000001</ele><time>2026-04-26T08:36:01.08Z</time></trkpt><trkpt lat="45.6195076" lon="10.8551215"><ele>112.0</ele><time>2026-04-26T08:36:02.08Z</time></trkpt><trkpt lat="45.6195884" lon="10.8551701"><ele>112.0</ele><time>2026-04-26T08:36:03.08Z</time></trkpt><trkpt lat="45.6196562" lon="10.8552199"><ele>112.0</ele><time>2026-04-26T08:36:04.08Z</time></trkpt><trkpt lat="45.6197253" lon="10.8552736"><ele>112.00000000000001</ele><time>2026-04-26T08:36:05.079Z</time></trkpt><trkpt lat="45.6197894" lon="10.8553178"><ele>112.0</ele><time>2026-04-26T08:36:06.08Z</time></trkpt><trkpt lat="45.6198933" lon="10.8553972"><ele>112.0</ele><time>2026-04-26T08:36:08.08Z</time></trkpt><trkpt lat="45.6199566" lon="10.8554828"><ele>111.99999999999999</ele><time>2026-04-26T08:36:10.079Z</time></trkpt><trkpt lat="45.6199837" lon="10.8556124"><ele>111.99999999999999</ele><time>2026-04-26T08:36:12.08Z</time></trkpt><trkpt lat="45.6199734" lon="10.8557867"><ele>112.0</ele><time>2026-04-26T08:36:14.079Z</time></trkpt><trkpt lat="45.6199591" lon="10.8558759"><ele>112.0</ele><time>2026-04-26T08:36:15.08Z</time></trkpt><trkpt lat="45.6199385" lon="10.8560081"><ele>112.00000000000001</ele><time>2026-04-26T08:36:17.079Z</time></trkpt><trkpt lat="45.6200107" lon="10.8559225"><ele>112.0</ele><time>2026-04-26T08:36:22.079Z</time></trkpt><trkpt lat="45.6200319" lon="10.8557314"><ele>112.0</ele><time>2026-04-26T08:36:24.078Z</time></trkpt><trkpt lat="45.6200384" lon="10.8556235"><ele>112.0</ele><time>2026-04-26T08:36:25.078Z</time></trkpt><trkpt lat="45.620039" lon="10.8555261"><ele>112.00000000000001</ele><time>2026-04-26T08:36:26.079Z</time></trkpt><trkpt lat="45.6200402" lon="10.8554289"><ele>112.0</ele><time>2026-04-26T08:36:27.079Z</time></trkpt><trkpt lat="45.6200383" lon="10.8552837"><ele>112.0</ele><time>2026-04-26T08:36:29.078Z</time></trkpt><trkpt lat="45.6200042" lon="10.8551807"><ele>111.99999999999999</ele><time>2026-04-26T08:36:31.079Z</time></trkpt><trkpt lat="45.6199097" lon="10.8551044"><ele>111.99999999999999</ele><time>2026-04-26T08:36:33.078Z</time></trkpt><trkpt lat="45.6197889" lon="10.8550453"><ele>112.0</ele><time>2026-04-26T08:36:35.078Z</time></trkpt><trkpt lat="45.6197157" lon="10.8550139"><ele>112.0</ele><time>2026-04-26T08:36:36.078Z</time></trkpt><trkpt lat="45.6196435" lon="10.8549796"><ele>112.00000000000001</ele><time>2026-04-26T08:36:37.079Z</time></trkpt><trkpt lat="45.6195707" lon="10.8549429"><ele>112.0</ele><time>2026-04-26T08:36:38.079Z</time></trkpt><trkpt lat="45.619499" lon="10.8548977"><ele>112.0</ele><time>2026-04-26T08:36:39.079Z</time></trkpt><trkpt lat="45.6194243" lon="10.8548524"><ele>112.0</ele><time>2026-04-26T08:36:40.078Z</time></trkpt><trkpt lat="45.6193501" lon="10.8548031"><ele>112.00000000000001</ele><time>2026-04-26T08:36:41.079Z</time></trkpt><trkpt lat="45.6192765" lon="10.8547532"><ele>112.0</ele><time>2026-04-26T08:36:42.078Z</time></trkpt><trkpt lat="45.6192005" lon="10.8546957"><ele>112.00000000000001</ele><time>2026-04-26T08:36:43.078Z</time></trkpt><trkpt lat="45.6191306" lon="10.8546523"><ele>112.0</ele><time>2026-04-26T08:36:44.079Z</time></trkpt><trkpt lat="45.6190677" lon="10.85461"><ele>112.0</ele><time>2026-04-26T08:36:45.078Z</time></trkpt><trkpt lat="45.6189605" lon="10.8545616"><ele>112.0</ele><time>2026-04-26T08:36:47.078Z</time></trkpt><trkpt lat="45.6188976" lon="10.8545552"><ele>112.00000000000001</ele><time>2026-04-26T08:36:48.079Z</time></trkpt><trkpt lat="45.6187837" lon="10.8545313"><ele>112.0</ele><time>2026-04-26T08:36:50.078Z</time></trkpt><trkpt lat="45.6186817" lon="10.8545342"><ele>112.42857142857143</ele><time>2026-04-26T08:36:52.078Z</time></trkpt><trkpt lat="45.6186182" lon="10.854527"><ele>112.85714285714286</ele><time>2026-04-26T08:36:53.079Z</time></trkpt><trkpt lat="45.6185423" lon="10.8545113"><ele>113.28571428571428</ele><time>2026-04-26T08:36:54.079Z</time></trkpt><trkpt lat="45.6184669" lon="10.8544918"><ele>113.71428571428571</ele><time>2026-04-26T08:36:55.079Z</time></trkpt><trkpt lat="45.6183955" lon="10.8544709"><ele>114.14285714285714</ele><time>2026-04-26T08:36:56.078Z</time></trkpt><trkpt lat="45.618323" lon="10.8544485"><ele>114.57142857142856</ele><time>2026-04-26T08:36:57.079Z</time></trkpt><trkpt lat="45.6182463" lon="10.8544376"><ele>114.99999999999999</ele><time>2026-04-26T08:36:58.079Z</time></trkpt><trkpt lat="45.6181709" lon="10.8544385"><ele>114.99999999999999</ele><time>2026-04-26T08:36:59.079Z</time></trkpt><trkpt lat="45.6181021" lon="10.854451"><ele>115.0</ele><time>2026-04-26T08:37:00.078Z</time></trkpt><trkpt lat="45.6180337" lon="10.8544624"><ele>114.99999999999999</ele><time>2026-04-26T08:37:01.079Z</time></trkpt><trkpt lat="45.6179588" lon="10.8544749"><ele>114.99999999999999</ele><time>2026-04-26T08:37:02.078Z</time></trkpt><trkpt lat="45.6178827" lon="10.8544759"><ele>115.0</ele><time>2026-04-26T08:37:03.078Z</time></trkpt><trkpt lat="45.6178054" lon="10.8544739"><ele>114.99999999999999</ele><time>2026-04-26T08:37:04.079Z</time></trkpt><trkpt lat="45.6177308" lon="10.8544714"><ele>114.99999999999999</ele><time>2026-04-26T08:37:05.078Z</time></trkpt><trkpt lat="45.6176569" lon="10.8544795"><ele>114.50000000000001</ele><time>2026-04-26T08:37:06.078Z</time></trkpt><trkpt lat="45.6175851" lon="10.8544765"><ele>114.0</ele><time>2026-04-26T08:37:07.079Z</time></trkpt><trkpt lat="45.617512" lon="10.8544779"><ele>113.5</ele><time>2026-04-26T08:37:08.079Z</time></trkpt><trkpt lat="45.6174335" lon="10.8544801"><ele>113.0</ele><time>2026-04-26T08:37:09.079Z</time></trkpt><trkpt lat="45.6173458" lon="10.8544759"><ele>112.50000000000001</ele><time>2026-04-26T08:37:10.078Z</time></trkpt><trkpt lat="45.6172548" lon="10.8544673"><ele>112.0</ele><time>2026-04-26T08:37:11.078Z</time></trkpt><trkpt lat="45.617167" lon="10.8544625"><ele>112.0</ele><time>2026-04-26T08:37:12.078Z</time></trkpt><trkpt lat="45.6170916" lon="10.854454"><ele>112.0</ele><time>2026-04-26T08:37:13.079Z</time></trkpt><trkpt lat="45.6170251" lon="10.8544517"><ele>112.0</ele><time>2026-04-26T08:37:14.079Z</time></trkpt><trkpt lat="45.61696" lon="10.854446"><ele>112.0</ele><time>2026-04-26T08:37:15.079Z</time></trkpt><trkpt lat="45.6168896" lon="10.8544358"><ele>112.0</ele><time>2026-04-26T08:37:16.079Z</time></trkpt><trkpt lat="45.6168138" lon="10.8544206"><ele>112.0</ele><time>2026-04-26T08:37:17.078Z</time></trkpt><trkpt lat="45.6167347" lon="10.8544015"><ele>112.0</ele><time>2026-04-26T08:37:18.078Z</time></trkpt><trkpt lat="45.6166544" lon="10.8543877"><ele>112.50000000000001</ele><time>2026-04-26T08:37:19.078Z</time></trkpt><trkpt lat="45.616573" lon="10.8543787"><ele>113.0</ele><time>2026-04-26T08:37:20.079Z</time></trkpt><trkpt lat="45.616498" lon="10.8543729"><ele>113.5</ele><time>2026-04-26T08:37:21.078Z</time></trkpt><trkpt lat="45.6164272" lon="10.8543681"><ele>114.0</ele><time>2026-04-26T08:37:22.079Z</time></trkpt><trkpt lat="45.6163626" lon="10.8543646"><ele>114.50000000000001</ele><time>2026-04-26T08:37:23.078Z</time></trkpt><trkpt lat="45.6162537" lon="10.8543367"><ele>115.0</ele><time>2026-04-26T08:37:25.078Z</time></trkpt><trkpt lat="45.6161476" lon="10.8542895"><ele>113.50000000000001</ele><time>2026-04-26T08:37:27.078Z</time></trkpt><trkpt lat="45.6160206" lon="10.8542536"><ele>112.0</ele><time>2026-04-26T08:37:29.078Z</time></trkpt><trkpt lat="45.6159503" lon="10.8542396"><ele>110.5</ele><time>2026-04-26T08:37:30.078Z</time></trkpt><trkpt lat="45.6158874" lon="10.8542236"><ele>109.0</ele><time>2026-04-26T08:37:31.079Z</time></trkpt><trkpt lat="45.6158232" lon="10.85421"><ele>107.50000000000001</ele><time>2026-04-26T08:37:32.078Z</time></trkpt><trkpt lat="45.6157544" lon="10.854193"><ele>106.0</ele><time>2026-04-26T08:37:33.079Z</time></trkpt><trkpt lat="45.6156781" lon="10.8541795"><ele>106.00000000000001</ele><time>2026-04-26T08:37:34.078Z</time></trkpt><trkpt lat="45.6156031" lon="10.8541716"><ele>106.0</ele><time>2026-04-26T08:37:35.079Z</time></trkpt><trkpt lat="45.6155215" lon="10.8541651"><ele>106.0</ele><time>2026-04-26T08:37:36.079Z</time></trkpt><trkpt lat="45.615439" lon="10.8541669"><ele>106.0</ele><time>2026-04-26T08:37:37.079Z</time></trkpt><trkpt lat="45.6153579" lon="10.8541725"><ele>106.00000000000001</ele><time>2026-04-26T08:37:38.078Z</time></trkpt><trkpt lat="45.6152814" lon="10.8541753"><ele>106.0</ele><time>2026-04-26T08:37:39.079Z</time></trkpt><trkpt lat="45.6152074" lon="10.8541668"><ele>106.00000000000001</ele><time>2026-04-26T08:37:40.078Z</time></trkpt><trkpt lat="45.6151318" lon="10.8541574"><ele>106.0</ele><time>2026-04-26T08:37:41.078Z</time></trkpt><trkpt lat="45.615054" lon="10.854143"><ele>106.0</ele><time>2026-04-26T08:37:42.078Z</time></trkpt><trkpt lat="45.6149702" lon="10.8541309"><ele>106.0</ele><time>2026-04-26T08:37:43.079Z</time></trkpt><trkpt lat="45.6148842" lon="10.8541175"><ele>106.00000000000001</ele><time>2026-04-26T08:37:44.079Z</time></trkpt><trkpt lat="45.6147948" lon="10.8541116"><ele>106.0</ele><time>2026-04-26T08:37:45.078Z</time></trkpt><trkpt lat="45.6146978" lon="10.8541106"><ele>106.00000000000001</ele><time>2026-04-26T08:37:46.079Z</time></trkpt><trkpt lat="45.6145993" lon="10.8541055"><ele>106.0</ele><time>2026-04-26T08:37:47.078Z</time></trkpt><trkpt lat="45.6145037" lon="10.8540953"><ele>106.0</ele><time>2026-04-26T08:37:48.078Z</time></trkpt><trkpt lat="45.6144184" lon="10.854083"><ele>106.0</ele><time>2026-04-26T08:37:49.079Z</time></trkpt><trkpt lat="45.6143378" lon="10.8540734"><ele>106.00000000000001</ele><time>2026-04-26T08:37:50.079Z</time></trkpt><trkpt lat="45.6142624" lon="10.8540686"><ele>106.0</ele><time>2026-04-26T08:37:51.079Z</time></trkpt><trkpt lat="45.6141828" lon="10.8540673"><ele>105.83333333333334</ele><time>2026-04-26T08:37:52.078Z</time></trkpt><trkpt lat="45.6141026" lon="10.8540744"><ele>105.66666666666667</ele><time>2026-04-26T08:37:53.078Z</time></trkpt><trkpt lat="45.6140213" lon="10.8540841"><ele>105.5</ele><time>2026-04-26T08:37:54.078Z</time></trkpt><trkpt lat="45.613942" lon="10.8540858"><ele>105.33333333333334</ele><time>2026-04-26T08:37:55.079Z</time></trkpt><trkpt lat="45.6138659" lon="10.8540843"><ele>105.16666666666667</ele><time>2026-04-26T08:37:56.079Z</time></trkpt><trkpt lat="45.613792" lon="10.8540827"><ele>105.0</ele><time>2026-04-26T08:37:57.079Z</time></trkpt><trkpt lat="45.6136445" lon="10.8540985"><ele>105.0</ele><time>2026-04-26T08:37:59.079Z</time></trkpt><trkpt lat="45.6135096" lon="10.8541461"><ele>105.0</ele><time>2026-04-26T08:38:00.079Z</time></trkpt><trkpt lat="45.6133854" lon="10.8541824"><ele>105.0</ele><time>2026-04-26T08:38:01.078Z</time></trkpt><trkpt lat="45.6132836" lon="10.8541969"><ele>105.0</ele><time>2026-04-26T08:38:02.078Z</time></trkpt><trkpt lat="45.6131975" lon="10.8542025"><ele>105.0</ele><time>2026-04-26T08:38:03.079Z</time></trkpt><trkpt lat="45.6131137" lon="10.8542185"><ele>105.0</ele><time>2026-04-26T08:38:04.079Z</time></trkpt><trkpt lat="45.6130112" lon="10.8542364"><ele>105.0</ele><time>2026-04-26T08:38:05.078Z</time></trkpt><trkpt lat="45.6129187" lon="10.8542462"><ele>105.0</ele><time>2026-04-26T08:38:06.079Z</time></trkpt><trkpt lat="45.6128302" lon="10.8542651"><ele>105.0</ele><time>2026-04-26T08:38:07.078Z</time></trkpt><trkpt lat="45.6127464" lon="10.8542891"><ele>106.0</ele><time>2026-04-26T08:38:08.078Z</time></trkpt><trkpt lat="45.6126677" lon="10.8543161"><ele>107.0</ele><time>2026-04-26T08:38:09.078Z</time></trkpt><trkpt lat="45.6125937" lon="10.854347"><ele>108.0</ele><time>2026-04-26T08:38:10.079Z</time></trkpt><trkpt lat="45.6125141" lon="10.8543866"><ele>109.0</ele><time>2026-04-26T08:38:11.078Z</time></trkpt><trkpt lat="45.6124288" lon="10.8544326"><ele>110.0</ele><time>2026-04-26T08:38:12.079Z</time></trkpt><trkpt lat="45.6123356" lon="10.8544681"><ele>111.0</ele><time>2026-04-26T08:38:13.079Z</time></trkpt><trkpt lat="45.6122461" lon="10.8544905"><ele>111.0</ele><time>2026-04-26T08:38:14.079Z</time></trkpt><trkpt lat="45.6121531" lon="10.8545022"><ele>111.0</ele><time>2026-04-26T08:38:15.078Z</time></trkpt><trkpt lat="45.6120548" lon="10.8545172"><ele>111.0</ele><time>2026-04-26T08:38:16.079Z</time></trkpt><trkpt lat="45.61196" lon="10.8545362"><ele>111.0</ele><time>2026-04-26T08:38:17.078Z</time></trkpt><trkpt lat="45.6118687" lon="10.8545578"><ele>111.0</ele><time>2026-04-26T08:38:18.079Z</time></trkpt><trkpt lat="45.6117807" lon="10.8545862"><ele>110.83333333333333</ele><time>2026-04-26T08:38:19.079Z</time></trkpt><trkpt lat="45.6116999" lon="10.8546115"><ele>110.66666666666666</ele><time>2026-04-26T08:38:20.079Z</time></trkpt><trkpt lat="45.6116185" lon="10.854634"><ele>110.5</ele><time>2026-04-26T08:38:21.078Z</time></trkpt><trkpt lat="45.6115373" lon="10.8546652"><ele>110.33333333333333</ele><time>2026-04-26T08:38:22.079Z</time></trkpt><trkpt lat="45.6114583" lon="10.8546984"><ele>110.16666666666666</ele><time>2026-04-26T08:38:23.079Z</time></trkpt><trkpt lat="45.6113818" lon="10.8547265"><ele>110.0</ele><time>2026-04-26T08:38:24.079Z</time></trkpt><trkpt lat="45.6113085" lon="10.8547574"><ele>109.99999999999999</ele><time>2026-04-26T08:38:25.079Z</time></trkpt><trkpt lat="45.6112412" lon="10.8547936"><ele>110.0</ele><time>2026-04-26T08:38:26.078Z</time></trkpt><trkpt lat="45.6111785" lon="10.8548483"><ele>110.0</ele><time>2026-04-26T08:38:27.078Z</time></trkpt><trkpt lat="45.6111151" lon="10.8548985"><ele>110.0</ele><time>2026-04-26T08:38:28.078Z</time></trkpt><trkpt lat="45.6110519" lon="10.8549408"><ele>110.0</ele><time>2026-04-26T08:38:29.079Z</time></trkpt><trkpt lat="45.6109936" lon="10.854977"><ele>109.99999999999999</ele><time>2026-04-26T08:38:30.079Z</time></trkpt><trkpt lat="45.6109319" lon="10.8550214"><ele>110.0</ele><time>2026-04-26T08:38:31.078Z</time></trkpt><trkpt lat="45.6108641" lon="10.8550665"><ele>109.49999999999999</ele><time>2026-04-26T08:38:32.079Z</time></trkpt><trkpt lat="45.6107962" lon="10.855118"><ele>109.0</ele><time>2026-04-26T08:38:33.079Z</time></trkpt><trkpt lat="45.6107375" lon="10.8551713"><ele>108.5</ele><time>2026-04-26T08:38:34.079Z</time></trkpt><trkpt lat="45.6106493" lon="10.8552631"><ele>108.0</ele><time>2026-04-26T08:38:36.079Z</time></trkpt><trkpt lat="45.6105931" lon="10.8553561"><ele>107.49999999999999</ele><time>2026-04-26T08:38:38.079Z</time></trkpt><trkpt lat="45.6105513" lon="10.8554637"><ele>107.0</ele><time>2026-04-26T08:38:40.079Z</time></trkpt><trkpt lat="45.6105287" lon="10.8555789"><ele>108.8</ele><time>2026-04-26T08:38:42.079Z</time></trkpt><trkpt lat="45.6105231" lon="10.8556971"><ele>110.6</ele><time>2026-04-26T08:38:44.078Z</time></trkpt><trkpt lat="45.6105144" lon="10.8558429"><ele>112.39999999999999</ele><time>2026-04-26T08:38:46.078Z</time></trkpt><trkpt lat="45.6104966" lon="10.8559877"><ele>114.19999999999999</ele><time>2026-04-26T08:38:48.079Z</time></trkpt><trkpt lat="45.6104814" lon="10.8561377"><ele>116.0</ele><time>2026-04-26T08:38:50.079Z</time></trkpt><trkpt lat="45.6104605" lon="10.8562961"><ele>116.19999999999999</ele><time>2026-04-26T08:38:52.078Z</time></trkpt><trkpt lat="45.610432" lon="10.8564636"><ele>116.39999999999999</ele><time>2026-04-26T08:38:54.079Z</time></trkpt><trkpt lat="45.6104144" lon="10.8565915"><ele>116.6</ele><time>2026-04-26T08:38:56.078Z</time></trkpt><trkpt lat="45.6104252" lon="10.8567051"><ele>116.8</ele><time>2026-04-26T08:38:59.079Z</time></trkpt><trkpt lat="45.6104767" lon="10.8568054"><ele>117.0</ele><time>2026-04-26T08:39:01.079Z</time></trkpt><trkpt lat="45.6105321" lon="10.856921"><ele>117.0</ele><time>2026-04-26T08:39:03.079Z</time></trkpt><trkpt lat="45.6105256" lon="10.8570366"><ele>117.0</ele><time>2026-04-26T08:39:05.079Z</time></trkpt><trkpt lat="45.6104573" lon="10.8571666"><ele>117.0</ele><time>2026-04-26T08:39:07.077Z</time></trkpt><trkpt lat="45.6104009" lon="10.857293"><ele>117.0</ele><time>2026-04-26T08:39:09.078Z</time></trkpt><trkpt lat="45.6104233" lon="10.8573778"><ele>117.0</ele><time>2026-04-26T08:39:11.077Z</time></trkpt><trkpt lat="45.6104858" lon="10.8574542"><ele>117.0</ele><time>2026-04-26T08:39:13.078Z</time></trkpt><trkpt lat="45.6105535" lon="10.8575234"><ele>117.0</ele><time>2026-04-26T08:39:15.078Z</time></trkpt><trkpt lat="45.610602" lon="10.8575836"><ele>117.0</ele><time>2026-04-26T08:39:17.078Z</time></trkpt><trkpt lat="45.6106743" lon="10.8576257"><ele>116.0</ele><time>2026-04-26T08:39:20.078Z</time></trkpt><trkpt lat="45.6107409" lon="10.8576511"><ele>116.0</ele><time>2026-04-26T08:39:23.077Z</time></trkpt><trkpt lat="45.6107252" lon="10.8575638"><ele>117.0</ele><time>2026-04-26T08:39:31.078Z</time></trkpt></trkseg><trkseg><trkpt lat="45.61066" lon="10.8575663"><ele>116.85714285714286</ele><time>2026-04-26T09:12:35.079Z</time></trkpt><trkpt lat="45.6106822" lon="10.857656"><ele>116.71428571428572</ele><time>2026-04-26T09:12:49.08Z</time></trkpt><trkpt lat="45.6107369" lon="10.8577048"><ele>116.57142857142858</ele><time>2026-04-26T09:12:53.08Z</time></trkpt><trkpt lat="45.6107862" lon="10.8577652"><ele>116.42857142857144</ele><time>2026-04-26T09:13:00.08Z</time></trkpt><trkpt lat="45.6108562" lon="10.8578293"><ele>116.28571428571429</ele><time>2026-04-26T09:13:03.08Z</time></trkpt><trkpt lat="45.6109166" lon="10.8578598"><ele>116.14285714285717</ele><time>2026-04-26T09:13:05.08Z</time></trkpt><trkpt lat="45.6109919" lon="10.8578381"><ele>116.00000000000001</ele><time>2026-04-26T09:13:08.08Z</time></trkpt><trkpt lat="45.6109273" lon="10.8577992"><ele>115.99999999999999</ele><time>2026-04-26T09:13:32.079Z</time></trkpt><trkpt lat="45.6108461" lon="10.8577592"><ele>116.0</ele><time>2026-04-26T09:13:39.08Z</time></trkpt><trkpt lat="45.6107879" lon="10.85771"><ele>116.0</ele><time>2026-04-26T09:13:42.079Z</time></trkpt><trkpt lat="45.6106793" lon="10.8576327"><ele>116.0</ele><time>2026-04-26T09:13:57.079Z</time></trkpt><trkpt lat="45.610611" lon="10.857562"><ele>115.99999999999999</ele><time>2026-04-26T09:14:00.079Z</time></trkpt><trkpt lat="45.6105388" lon="10.8575176"><ele>116.0</ele><time>2026-04-26T09:14:04.08Z</time></trkpt><trkpt lat="45.6104806" lon="10.8574565"><ele>116.0</ele><time>2026-04-26T09:14:07.08Z</time></trkpt><trkpt lat="45.6104155" lon="10.857383"><ele>116.0</ele><time>2026-04-26T09:14:10.079Z</time></trkpt><trkpt lat="45.6103274" lon="10.8573219"><ele>116.0</ele><time>2026-04-26T09:14:12.08Z</time></trkpt><trkpt lat="45.610231" lon="10.857237"><ele>116.0</ele><time>2026-04-26T09:14:14.08Z</time></trkpt><trkpt lat="45.6101314" lon="10.8571367"><ele>116.0</ele><time>2026-04-26T09:14:16.08Z</time></trkpt><trkpt lat="45.6100222" lon="10.8570665"><ele>116.0</ele><time>2026-04-26T09:14:18.079Z</time></trkpt><trkpt lat="45.609894" lon="10.8570545"><ele>116.0</ele><time>2026-04-26T09:14:20.079Z</time></trkpt><trkpt lat="45.6098124" lon="10.8570689"><ele>116.0</ele><time>2026-04-26T09:14:21.079Z</time></trkpt><trkpt lat="45.6097347" lon="10.8570795"><ele>116.0</ele><time>2026-04-26T09:14:22.08Z</time></trkpt><trkpt lat="45.6096517" lon="10.857088"><ele>116.0</ele><time>2026-04-26T09:14:23.08Z</time></trkpt><trkpt lat="45.6095673" lon="10.8570972"><ele>115.8</ele><time>2026-04-26T09:14:24.079Z</time></trkpt><trkpt lat="45.6094778" lon="10.8571188"><ele>115.6</ele><time>2026-04-26T09:14:25.079Z</time></trkpt><trkpt lat="45.6093834" lon="10.8571337"><ele>115.4</ele><time>2026-04-26T09:14:26.08Z</time></trkpt><trkpt lat="45.6092928" lon="10.8571299"><ele>115.2</ele><time>2026-04-26T09:14:27.079Z</time></trkpt><trkpt lat="45.6091972" lon="10.8571158"><ele>115.0</ele><time>2026-04-26T09:14:28.079Z</time></trkpt><trkpt lat="45.6091081" lon="10.8570815"><ele>115.00000000000001</ele><time>2026-04-26T09:14:29.079Z</time></trkpt><trkpt lat="45.6090245" lon="10.857045"><ele>115.0</ele><time>2026-04-26T09:14:30.079Z</time></trkpt><trkpt lat="45.608946" lon="10.8570007"><ele>115.0</ele><time>2026-04-26T09:14:31.079Z</time></trkpt><trkpt lat="45.6088667" lon="10.85696"><ele>115.0</ele><time>2026-04-26T09:14:32.08Z</time></trkpt><trkpt lat="45.6087797" lon="10.8569266"><ele>115.00000000000001</ele><time>2026-04-26T09:14:33.079Z</time></trkpt><trkpt lat="45.6086917" lon="10.8568878"><ele>115.0</ele><time>2026-04-26T09:14:34.079Z</time></trkpt><trkpt lat="45.6086058" lon="10.8568488"><ele>115.0</ele><time>2026-04-26T09:14:35.079Z</time></trkpt><trkpt lat="45.6085218" lon="10.8568053"><ele>115.0</ele><time>2026-04-26T09:14:36.078Z</time></trkpt><trkpt lat="45.6084383" lon="10.8567593"><ele>115.0</ele><time>2026-04-26T09:14:37.079Z</time></trkpt><trkpt lat="45.6083564" lon="10.8567076"><ele>115.0</ele><time>2026-04-26T09:14:38.079Z</time></trkpt><trkpt lat="45.6082735" lon="10.856658"><ele>115.0</ele><time>2026-04-26T09:14:39.078Z</time></trkpt><trkpt lat="45.6081866" lon="10.856614"><ele>114.00000000000001</ele><time>2026-04-26T09:14:40.079Z</time></trkpt><trkpt lat="45.6080986" lon="10.8565731"><ele>113.0</ele><time>2026-04-26T09:14:41.079Z</time></trkpt><trkpt lat="45.6080176" lon="10.8565314"><ele>112.0</ele><time>2026-04-26T09:14:42.079Z</time></trkpt><trkpt lat="45.6079405" lon="10.8564944"><ele>111.0</ele><time>2026-04-26T09:14:43.078Z</time></trkpt><trkpt lat="45.6078687" lon="10.8564563"><ele>110.00000000000001</ele><time>2026-04-26T09:14:44.079Z</time></trkpt><trkpt lat="45.607806" lon="10.8564156"><ele>109.0</ele><time>2026-04-26T09:14:45.079Z</time></trkpt><trkpt lat="45.6077065" lon="10.8563392"><ele>109.0</ele><time>2026-04-26T09:14:47.078Z</time></trkpt><trkpt lat="45.6076189" lon="10.8563457"><ele>109.0</ele><time>2026-04-26T09:14:49.079Z</time></trkpt><trkpt lat="45.6075451" lon="10.856424"><ele>109.0</ele><time>2026-04-26T09:14:51.079Z</time></trkpt><trkpt lat="45.6074817" lon="10.8565607"><ele>109.0</ele><time>2026-04-26T09:14:53.078Z</time></trkpt><trkpt lat="45.6074326" lon="10.8566776"><ele>109.0</ele><time>2026-04-26T09:14:55.079Z</time></trkpt><trkpt lat="45.6073591" lon="10.8567374"><ele>109.0</ele><time>2026-04-26T09:14:57.079Z</time></trkpt><trkpt lat="45.6072483" lon="10.8566883"><ele>109.0</ele><time>2026-04-26T09:14:59.078Z</time></trkpt><trkpt lat="45.6071656" lon="10.856657"><ele>109.0</ele><time>2026-04-26T09:15:01.079Z</time></trkpt><trkpt lat="45.6070859" lon="10.8566532"><ele>109.0</ele><time>2026-04-26T09:15:04.078Z</time></trkpt><trkpt lat="45.6069917" lon="10.8565657"><ele>109.0</ele><time>2026-04-26T09:15:06.078Z</time></trkpt><trkpt lat="45.6069273" lon="10.8565013"><ele>110.2</ele><time>2026-04-26T09:15:07.078Z</time></trkpt><trkpt lat="45.6068556" lon="10.856429"><ele>111.4</ele><time>2026-04-26T09:15:08.079Z</time></trkpt><trkpt lat="45.6067733" lon="10.856346"><ele>112.6</ele><time>2026-04-26T09:15:09.079Z</time></trkpt><trkpt lat="45.6066773" lon="10.8562716"><ele>113.8</ele><time>2026-04-26T09:15:10.078Z</time></trkpt><trkpt lat="45.6065727" lon="10.8561978"><ele>115.0</ele><time>2026-04-26T09:15:11.079Z</time></trkpt><trkpt lat="45.6064661" lon="10.856111"><ele>115.0</ele><time>2026-04-26T09:15:12.079Z</time></trkpt><trkpt lat="45.6063536" lon="10.8560205"><ele>115.0</ele><time>2026-04-26T09:15:13.078Z</time></trkpt><trkpt lat="45.6062511" lon="10.8559094"><ele>115.0</ele><time>2026-04-26T09:15:14.079Z</time></trkpt><trkpt lat="45.6061606" lon="10.8557898"><ele>115.0</ele><time>2026-04-26T09:15:15.078Z</time></trkpt><trkpt lat="45.606069" lon="10.8556706"><ele>116.25</ele><time>2026-04-26T09:15:16.078Z</time></trkpt><trkpt lat="45.6059724" lon="10.8555617"><ele>117.5</ele><time>2026-04-26T09:15:17.079Z</time></trkpt><trkpt lat="45.6058805" lon="10.8554436"><ele>118.75</ele><time>2026-04-26T09:15:18.078Z</time></trkpt><trkpt lat="45.6058005" lon="10.8553167"><ele>120.0</ele><time>2026-04-26T09:15:19.078Z</time></trkpt><trkpt lat="45.6057213" lon="10.8551836"><ele>118.25</ele><time>2026-04-26T09:15:20.079Z</time></trkpt><trkpt lat="45.6056505" lon="10.8550431"><ele>116.5</ele><time>2026-04-26T09:15:21.079Z</time></trkpt><trkpt lat="45.605571" lon="10.8549049"><ele>114.75</ele><time>2026-04-26T09:15:22.079Z</time></trkpt><trkpt lat="45.6054846" lon="10.8547695"><ele>113.0</ele><time>2026-04-26T09:15:23.079Z</time></trkpt><trkpt lat="45.6053929" lon="10.8546465"><ele>113.5</ele><time>2026-04-26T09:15:24.078Z</time></trkpt><trkpt lat="45.6052992" lon="10.8545284"><ele>114.0</ele><time>2026-04-26T09:15:25.079Z</time></trkpt><trkpt lat="45.6051966" lon="10.8544159"><ele>114.5</ele><time>2026-04-26T09:15:26.078Z</time></trkpt><trkpt lat="45.6050897" lon="10.8543032"><ele>115.0</ele><time>2026-04-26T09:15:27.079Z</time></trkpt><trkpt lat="45.6049822" lon="10.8541767"><ele>115.0</ele><time>2026-04-26T09:15:28.079Z</time></trkpt><trkpt lat="45.6048674" lon="10.8540535"><ele>115.0</ele><time>2026-04-26T09:15:29.078Z</time></trkpt><trkpt lat="45.6047544" lon="10.8539307"><ele>115.0</ele><time>2026-04-26T09:15:30.078Z</time></trkpt><trkpt lat="45.6046432" lon="10.8538104"><ele>115.0</ele><time>2026-04-26T09:15:31.079Z</time></trkpt><trkpt lat="45.6045228" lon="10.8536876"><ele>115.25</ele><time>2026-04-26T09:15:32.079Z</time></trkpt><trkpt lat="45.6044046" lon="10.8535647"><ele>115.5</ele><time>2026-04-26T09:15:33.079Z</time></trkpt><trkpt lat="45.6042863" lon="10.8534472"><ele>115.75</ele><time>2026-04-26T09:15:34.078Z</time></trkpt><trkpt lat="45.604173" lon="10.8533378"><ele>116.0</ele><time>2026-04-26T09:15:35.078Z</time></trkpt><trkpt lat="45.6040622" lon="10.8532244"><ele>116.0</ele><time>2026-04-26T09:15:36.078Z</time></trkpt><trkpt lat="45.6039469" lon="10.8531119"><ele>116.0</ele><time>2026-04-26T09:15:37.079Z</time></trkpt><trkpt lat="45.6038304" lon="10.8530095"><ele>116.0</ele><time>2026-04-26T09:15:38.078Z</time></trkpt><trkpt lat="45.603706" lon="10.8529196"><ele>116.0</ele><time>2026-04-26T09:15:39.079Z</time></trkpt><trkpt lat="45.6035751" lon="10.852832"><ele>115.75</ele><time>2026-04-26T09:15:40.078Z</time></trkpt><trkpt lat="45.6034425" lon="10.8527567"><ele>115.5</ele><time>2026-04-26T09:15:41.078Z</time></trkpt><trkpt lat="45.6033083" lon="10.8526819"><ele>115.25</ele><time>2026-04-26T09:15:42.078Z</time></trkpt><trkpt lat="45.6031698" lon="10.8526057"><ele>115.0</ele><time>2026-04-26T09:15:43.078Z</time></trkpt><trkpt lat="45.6030219" lon="10.8525365"><ele>115.0</ele><time>2026-04-26T09:15:44.079Z</time></trkpt><trkpt lat="45.602869" lon="10.8524644"><ele>115.0</ele><time>2026-04-26T09:15:45.079Z</time></trkpt><trkpt lat="45.6027224" lon="10.8523903"><ele>115.0</ele><time>2026-04-26T09:15:46.078Z</time></trkpt><trkpt lat="45.6025775" lon="10.8523163"><ele>115.0</ele><time>2026-04-26T09:15:47.079Z</time></trkpt><trkpt lat="45.602431" lon="10.852242"><ele>115.0</ele><time>2026-04-26T09:15:48.078Z</time></trkpt><trkpt lat="45.6022794" lon="10.8521656"><ele>115.0</ele><time>2026-04-26T09:15:49.079Z</time></trkpt><trkpt lat="45.6021306" lon="10.852094"><ele>115.25</ele><time>2026-04-26T09:15:50.078Z</time></trkpt><trkpt lat="45.6019906" lon="10.8520196"><ele>115.5</ele><time>2026-04-26T09:15:51.079Z</time></trkpt><trkpt lat="45.6018621" lon="10.851948"><ele>115.75</ele><time>2026-04-26T09:15:52.078Z</time></trkpt><trkpt lat="45.6017454" lon="10.8518703"><ele>116.0</ele><time>2026-04-26T09:15:53.078Z</time></trkpt><trkpt lat="45.6016362" lon="10.8517868"><ele>115.4</ele><time>2026-04-26T09:15:54.079Z</time></trkpt><trkpt lat="45.6015388" lon="10.851708"><ele>114.8</ele><time>2026-04-26T09:15:55.078Z</time></trkpt><trkpt lat="45.6014518" lon="10.8516298"><ele>114.20000000000002</ele><time>2026-04-26T09:15:56.079Z</time></trkpt><trkpt lat="45.6013783" lon="10.8515599"><ele>113.60000000000001</ele><time>2026-04-26T09:15:57.079Z</time></trkpt><trkpt lat="45.6013073" lon="10.8515016"><ele>113.0</ele><time>2026-04-26T09:15:58.079Z</time></trkpt><trkpt lat="45.6012489" lon="10.8514522"><ele>113.0</ele><time>2026-04-26T09:15:59.078Z</time></trkpt><trkpt lat="45.601235" lon="10.8513386"><ele>113.00000000000001</ele><time>2026-04-26T09:16:02.078Z</time></trkpt><trkpt lat="45.6013489" lon="10.8512283"><ele>113.00000000000001</ele><time>2026-04-26T09:16:04.078Z</time></trkpt><trkpt lat="45.6014199" lon="10.8511807"><ele>113.0</ele><time>2026-04-26T09:16:05.078Z</time></trkpt><trkpt lat="45.6014859" lon="10.8511319"><ele>113.0</ele><time>2026-04-26T09:16:06.078Z</time></trkpt><trkpt lat="45.6015705" lon="10.8510568"><ele>113.0</ele><time>2026-04-26T09:16:08.079Z</time></trkpt><trkpt lat="45.6016432" lon="10.8509947"><ele>113.00000000000001</ele><time>2026-04-26T09:16:11.079Z</time></trkpt><trkpt lat="45.6017316" lon="10.8509066"><ele>113.00000000000001</ele><time>2026-04-26T09:16:13.079Z</time></trkpt><trkpt lat="45.6018374" lon="10.850815"><ele>113.0</ele><time>2026-04-26T09:16:15.078Z</time></trkpt><trkpt lat="45.6019497" lon="10.8507509"><ele>113.0</ele><time>2026-04-26T09:16:17.079Z</time></trkpt><trkpt lat="45.601997" lon="10.8506193"><ele>112.83333333333333</ele><time>2026-04-26T09:16:19.079Z</time></trkpt><trkpt lat="45.6019667" lon="10.8505343"><ele>112.66666666666666</ele><time>2026-04-26T09:16:20.078Z</time></trkpt><trkpt lat="45.6019068" lon="10.8504426"><ele>112.5</ele><time>2026-04-26T09:16:21.079Z</time></trkpt><trkpt lat="45.6018344" lon="10.8503673"><ele>112.33333333333334</ele><time>2026-04-26T09:16:22.078Z</time></trkpt><trkpt lat="45.6017503" lon="10.8503011"><ele>112.16666666666667</ele><time>2026-04-26T09:16:23.079Z</time></trkpt><trkpt lat="45.6016508" lon="10.8502477"><ele>112.0</ele><time>2026-04-26T09:16:24.079Z</time></trkpt><trkpt lat="45.60156" lon="10.850217"><ele>112.0</ele><time>2026-04-26T09:16:25.079Z</time></trkpt><trkpt lat="45.6014636" lon="10.8501848"><ele>111.99999999999999</ele><time>2026-04-26T09:16:26.079Z</time></trkpt><trkpt lat="45.6013596" lon="10.8501664"><ele>111.99999999999999</ele><time>2026-04-26T09:16:27.078Z</time></trkpt><trkpt lat="45.6012512" lon="10.8501609"><ele>112.0</ele><time>2026-04-26T09:16:28.079Z</time></trkpt><trkpt lat="45.6011504" lon="10.8501564"><ele>112.0</ele><time>2026-04-26T09:16:29.079Z</time></trkpt><trkpt lat="45.6010457" lon="10.8501356"><ele>112.0</ele><time>2026-04-26T09:16:30.078Z</time></trkpt><trkpt lat="45.6009424" lon="10.8501101"><ele>111.99999999999999</ele><time>2026-04-26T09:16:31.078Z</time></trkpt><trkpt lat="45.6008407" lon="10.8500893"><ele>111.99999999999999</ele><time>2026-04-26T09:16:32.078Z</time></trkpt><trkpt lat="45.6007387" lon="10.8500578"><ele>112.0</ele><time>2026-04-26T09:16:33.079Z</time></trkpt><trkpt lat="45.6006315" lon="10.850025"><ele>112.0</ele><time>2026-04-26T09:16:34.079Z</time></trkpt><trkpt lat="45.6005286" lon="10.8499864"><ele>112.0</ele><time>2026-04-26T09:16:35.078Z</time></trkpt><trkpt lat="45.6004234" lon="10.8499429"><ele>111.99999999999999</ele><time>2026-04-26T09:16:36.079Z</time></trkpt><trkpt lat="45.6003125" lon="10.849905"><ele>111.99999999999999</ele><time>2026-04-26T09:16:37.079Z</time></trkpt><trkpt lat="45.6002111" lon="10.8498644"><ele>112.0</ele><time>2026-04-26T09:16:38.078Z</time></trkpt><trkpt lat="45.6001255" lon="10.8498317"><ele>112.0</ele><time>2026-04-26T09:16:39.079Z</time></trkpt><trkpt lat="45.6000476" lon="10.8498004"><ele>111.50000000000001</ele><time>2026-04-26T09:16:40.078Z</time></trkpt><trkpt lat="45.599984" lon="10.8497793"><ele>111.0</ele><time>2026-04-26T09:16:41.078Z</time></trkpt><trkpt lat="45.5999159" lon="10.8497066"><ele>110.5</ele><time>2026-04-26T09:16:43.079Z</time></trkpt><trkpt lat="45.5999229" lon="10.8495926"><ele>110.0</ele><time>2026-04-26T09:16:45.078Z</time></trkpt><trkpt lat="45.5999644" lon="10.8494345"><ele>109.50000000000001</ele><time>2026-04-26T09:16:47.079Z</time></trkpt><trkpt lat="45.599992" lon="10.8493357"><ele>109.0</ele><time>2026-04-26T09:16:48.078Z</time></trkpt><trkpt lat="45.6000193" lon="10.8492347"><ele>108.66666666666667</ele><time>2026-04-26T09:16:49.079Z</time></trkpt><trkpt lat="45.6000431" lon="10.8491433"><ele>108.33333333333334</ele><time>2026-04-26T09:16:50.079Z</time></trkpt><trkpt lat="45.6000677" lon="10.8490533"><ele>108.0</ele><time>2026-04-26T09:16:51.079Z</time></trkpt><trkpt lat="45.600093" lon="10.8489536"><ele>107.66666666666666</ele><time>2026-04-26T09:16:52.078Z</time></trkpt><trkpt lat="45.6001213" lon="10.848836"><ele>107.33333333333333</ele><time>2026-04-26T09:16:53.079Z</time></trkpt><trkpt lat="45.6001554" lon="10.848708"><ele>107.0</ele><time>2026-04-26T09:16:54.078Z</time></trkpt><trkpt lat="45.6001938" lon="10.8485726"><ele>106.8</ele><time>2026-04-26T09:16:55.079Z</time></trkpt><trkpt lat="45.6002306" lon="10.848448"><ele>106.6</ele><time>2026-04-26T09:16:56.078Z</time></trkpt><trkpt lat="45.6002652" lon="10.848354"><ele>106.39999999999999</ele><time>2026-04-26T09:16:57.079Z</time></trkpt><trkpt lat="45.600297" lon="10.8482663"><ele>106.19999999999999</ele><time>2026-04-26T09:16:58.078Z</time></trkpt><trkpt lat="45.600361" lon="10.8481247"><ele>106.0</ele><time>2026-04-26T09:17:00.078Z</time></trkpt><trkpt lat="45.6004165" lon="10.8480157"><ele>106.00000000000001</ele><time>2026-04-26T09:17:02.079Z</time></trkpt><trkpt lat="45.6004762" lon="10.8479424"><ele>106.0</ele><time>2026-04-26T09:17:04.079Z</time></trkpt><trkpt lat="45.6005466" lon="10.8479449"><ele>106.0</ele><time>2026-04-26T09:17:08.079Z</time></trkpt><trkpt lat="45.6006368" lon="10.8479732"><ele>106.0</ele><time>2026-04-26T09:17:11.079Z</time></trkpt><trkpt lat="45.6006993" lon="10.8479396"><ele>106.00000000000001</ele><time>2026-04-26T09:17:14.079Z</time></trkpt><trkpt lat="45.6006742" lon="10.8478235"><ele>106.0</ele><time>2026-04-26T09:17:21.077Z</time></trkpt><trkpt lat="45.6006672" lon="10.8477025"><ele>105.83333333333334</ele><time>2026-04-26T09:17:24.078Z</time></trkpt><trkpt lat="45.6006806" lon="10.8475984"><ele>105.66666666666667</ele><time>2026-04-26T09:17:27.077Z</time></trkpt><trkpt lat="45.6006702" lon="10.847483"><ele>105.5</ele><time>2026-04-26T09:17:32.077Z</time></trkpt><trkpt lat="45.6006177" lon="10.8473474"><ele>105.33333333333334</ele><time>2026-04-26T09:17:34.077Z</time></trkpt><trkpt lat="45.6005781" lon="10.8472683"><ele>105.16666666666667</ele><time>2026-04-26T09:17:35.078Z</time></trkpt><trkpt lat="45.6005203" lon="10.8471739"><ele>105.0</ele><time>2026-04-26T09:17:36.077Z</time></trkpt><trkpt lat="45.6004448" lon="10.8470603"><ele>105.0</ele><time>2026-04-26T09:17:37.077Z</time></trkpt><trkpt lat="45.6003793" lon="10.8469611"><ele>105.0</ele><time>2026-04-26T09:17:38.077Z</time></trkpt><trkpt lat="45.6003076" lon="10.846875"><ele>105.0</ele><time>2026-04-26T09:17:39.077Z</time></trkpt><trkpt lat="45.6002387" lon="10.8467843"><ele>105.0</ele><time>2026-04-26T09:17:40.078Z</time></trkpt><trkpt lat="45.6001661" lon="10.8466987"><ele>105.0</ele><time>2026-04-26T09:17:41.077Z</time></trkpt><trkpt lat="45.6000889" lon="10.8466112"><ele>104.33333333333333</ele><time>2026-04-26T09:17:42.078Z</time></trkpt><trkpt lat="45.6000154" lon="10.8465342"><ele>103.66666666666666</ele><time>2026-04-26T09:17:43.077Z</time></trkpt><trkpt lat="45.5999515" lon="10.8464838"><ele>103.0</ele><time>2026-04-26T09:17:44.077Z</time></trkpt><trkpt lat="45.5998776" lon="10.8464532"><ele>102.33333333333333</ele><time>2026-04-26T09:17:45.078Z</time></trkpt><trkpt lat="45.5997941" lon="10.8464166"><ele>101.66666666666666</ele><time>2026-04-26T09:17:46.078Z</time></trkpt><trkpt lat="45.5997132" lon="10.8463715"><ele>101.0</ele><time>2026-04-26T09:17:47.077Z</time></trkpt><trkpt lat="45.599635" lon="10.846321"><ele>100.99999999999999</ele><time>2026-04-26T09:17:48.077Z</time></trkpt><trkpt lat="45.5995676" lon="10.8462645"><ele>101.0</ele><time>2026-04-26T09:17:49.078Z</time></trkpt><trkpt lat="45.5995036" lon="10.8462042"><ele>101.0</ele><time>2026-04-26T09:17:50.077Z</time></trkpt><trkpt lat="45.5994333" lon="10.8461394"><ele>101.0</ele><time>2026-04-26T09:17:51.077Z</time></trkpt><trkpt lat="45.5993696" lon="10.8460787"><ele>100.99999999999999</ele><time>2026-04-26T09:17:52.078Z</time></trkpt><trkpt lat="45.599295" lon="10.8460262"><ele>101.0</ele><time>2026-04-26T09:17:53.077Z</time></trkpt><trkpt lat="45.5992162" lon="10.8459674"><ele>100.8</ele><time>2026-04-26T09:17:54.078Z</time></trkpt><trkpt lat="45.5991327" lon="10.8459108"><ele>100.6</ele><time>2026-04-26T09:17:55.077Z</time></trkpt><trkpt lat="45.5990479" lon="10.8458564"><ele>100.4</ele><time>2026-04-26T09:17:56.078Z</time></trkpt><trkpt lat="45.5989572" lon="10.8457934"><ele>100.2</ele><time>2026-04-26T09:17:57.077Z</time></trkpt><trkpt lat="45.5988649" lon="10.8457383"><ele>100.0</ele><time>2026-04-26T09:17:58.077Z</time></trkpt><trkpt lat="45.5987725" lon="10.8456753"><ele>100.00000000000001</ele><time>2026-04-26T09:17:59.077Z</time></trkpt><trkpt lat="45.5986806" lon="10.8456181"><ele>100.0</ele><time>2026-04-26T09:18:00.077Z</time></trkpt><trkpt lat="45.5985946" lon="10.8455812"><ele>100.0</ele><time>2026-04-26T09:18:01.078Z</time></trkpt><trkpt lat="45.5985232" lon="10.8455642"><ele>100.0</ele><time>2026-04-26T09:18:02.078Z</time></trkpt><trkpt lat="45.5984592" lon="10.8455523"><ele>100.00000000000001</ele><time>2026-04-26T09:18:03.077Z</time></trkpt><trkpt lat="45.5983939" lon="10.8455194"><ele>100.0</ele><time>2026-04-26T09:18:04.078Z</time></trkpt><trkpt lat="45.5983266" lon="10.8454685"><ele>100.00000000000001</ele><time>2026-04-26T09:18:05.077Z</time></trkpt><trkpt lat="45.5982618" lon="10.8454107"><ele>100.0</ele><time>2026-04-26T09:18:06.077Z</time></trkpt><trkpt lat="45.5981989" lon="10.8453535"><ele>100.0</ele><time>2026-04-26T09:18:07.077Z</time></trkpt><trkpt lat="45.5981351" lon="10.8452973"><ele>100.0</ele><time>2026-04-26T09:18:08.078Z</time></trkpt><trkpt lat="45.5980635" lon="10.8452459"><ele>100.00000000000001</ele><time>2026-04-26T09:18:09.077Z</time></trkpt><trkpt lat="45.5979883" lon="10.8451966"><ele>100.0</ele><time>2026-04-26T09:18:10.078Z</time></trkpt><trkpt lat="45.59792" lon="10.8451519"><ele>100.00000000000001</ele><time>2026-04-26T09:18:11.077Z</time></trkpt><trkpt lat="45.5978564" lon="10.8451118"><ele>100.0</ele><time>2026-04-26T09:18:12.077Z</time></trkpt><trkpt lat="45.5977555" lon="10.8450557"><ele>100.0</ele><time>2026-04-26T09:18:14.077Z</time></trkpt><trkpt lat="45.5976634" lon="10.8450247"><ele>100.0</ele><time>2026-04-26T09:18:16.077Z</time></trkpt><trkpt lat="45.5976072" lon="10.8450765"><ele>100.00000000000001</ele><time>2026-04-26T09:18:19.077Z</time></trkpt><trkpt lat="45.5976168" lon="10.8451727"><ele>100.0</ele><time>2026-04-26T09:18:21.077Z</time></trkpt><trkpt lat="45.5977143" lon="10.8452701"><ele>100.00000000000001</ele><time>2026-04-26T09:18:23.078Z</time></trkpt><trkpt lat="45.5977837" lon="10.845308"><ele>100.0</ele><time>2026-04-26T09:18:24.078Z</time></trkpt><trkpt lat="45.5978505" lon="10.8453402"><ele>100.0</ele><time>2026-04-26T09:18:25.078Z</time></trkpt><trkpt lat="45.5979433" lon="10.8453791"><ele>100.0</ele><time>2026-04-26T09:18:27.078Z</time></trkpt><trkpt lat="45.5979998" lon="10.8454329"><ele>100.00000000000001</ele><time>2026-04-26T09:18:32.078Z</time></trkpt><trkpt lat="45.5979368" lon="10.8454546"><ele>100.0</ele><time>2026-04-26T09:18:41.078Z</time></trkpt><trkpt lat="45.5978491" lon="10.8454014"><ele>100.16666666666667</ele><time>2026-04-26T09:18:43.077Z</time></trkpt><trkpt lat="45.5977716" lon="10.8453576"><ele>100.33333333333334</ele><time>2026-04-26T09:18:45.078Z</time></trkpt><trkpt lat="45.5976777" lon="10.8453115"><ele>100.5</ele><time>2026-04-26T09:18:47.078Z</time></trkpt><trkpt lat="45.597563" lon="10.8452479"><ele>100.66666666666666</ele><time>2026-04-26T09:18:49.077Z</time></trkpt><trkpt lat="45.5975012" lon="10.8452134"><ele>100.83333333333333</ele><time>2026-04-26T09:18:50.078Z</time></trkpt><trkpt lat="45.5974385" lon="10.8451834"><ele>101.0</ele><time>2026-04-26T09:18:51.078Z</time></trkpt><trkpt lat="45.5973668" lon="10.845153"><ele>100.99999999999999</ele><time>2026-04-26T09:18:52.078Z</time></trkpt><trkpt lat="45.5972955" lon="10.8451173"><ele>101.0</ele><time>2026-04-26T09:18:53.078Z</time></trkpt><trkpt lat="45.597221" lon="10.8450757"><ele>101.0</ele><time>2026-04-26T09:18:54.078Z</time></trkpt><trkpt lat="45.5971495" lon="10.8450422"><ele>101.0</ele><time>2026-04-26T09:18:55.078Z</time></trkpt><trkpt lat="45.5970792" lon="10.8450072"><ele>100.99999999999999</ele><time>2026-04-26T09:18:56.078Z</time></trkpt><trkpt lat="45.5970128" lon="10.8449717"><ele>101.0</ele><time>2026-04-26T09:18:57.077Z</time></trkpt><trkpt lat="45.5969408" lon="10.8449265"><ele>100.99999999999999</ele><time>2026-04-26T09:18:58.078Z</time></trkpt><trkpt lat="45.5968633" lon="10.844882"><ele>101.0</ele><time>2026-04-26T09:18:59.078Z</time></trkpt><trkpt lat="45.5967833" lon="10.8448365"><ele>101.0</ele><time>2026-04-26T09:19:00.078Z</time></trkpt><trkpt lat="45.5966979" lon="10.8447789"><ele>101.0</ele><time>2026-04-26T09:19:01.077Z</time></trkpt><trkpt lat="45.5966171" lon="10.8447229"><ele>100.99999999999999</ele><time>2026-04-26T09:19:02.078Z</time></trkpt><trkpt lat="45.5965304" lon="10.8446722"><ele>101.0</ele><time>2026-04-26T09:19:03.077Z</time></trkpt><trkpt lat="45.5964548" lon="10.8446279"><ele>100.99999999999999</ele><time>2026-04-26T09:19:04.078Z</time></trkpt><trkpt lat="45.5963837" lon="10.8445822"><ele>101.0</ele><time>2026-04-26T09:19:05.078Z</time></trkpt><trkpt lat="45.5963097" lon="10.8445427"><ele>101.0</ele><time>2026-04-26T09:19:06.078Z</time></trkpt><trkpt lat="45.596228" lon="10.8445027"><ele>101.0</ele><time>2026-04-26T09:19:07.078Z</time></trkpt><trkpt lat="45.5961465" lon="10.8444673"><ele>100.99999999999999</ele><time>2026-04-26T09:19:08.077Z</time></trkpt><trkpt lat="45.59607" lon="10.8444367"><ele>101.0</ele><time>2026-04-26T09:19:09.078Z</time></trkpt><trkpt lat="45.5959961" lon="10.8444054"><ele>101.19999999999999</ele><time>2026-04-26T09:19:10.078Z</time></trkpt><trkpt lat="45.595916" lon="10.8443663"><ele>101.39999999999999</ele><time>2026-04-26T09:19:11.078Z</time></trkpt><trkpt lat="45.5958277" lon="10.844321"><ele>101.6</ele><time>2026-04-26T09:19:12.077Z</time></trkpt><trkpt lat="45.5957336" lon="10.8442829"><ele>101.8</ele><time>2026-04-26T09:19:13.078Z</time></trkpt><trkpt lat="45.5956405" lon="10.8442412"><ele>102.0</ele><time>2026-04-26T09:19:14.077Z</time></trkpt><trkpt lat="45.5955473" lon="10.8442037"><ele>102.0</ele><time>2026-04-26T09:19:15.078Z</time></trkpt><trkpt lat="45.595468" lon="10.8441728"><ele>102.0</ele><time>2026-04-26T09:19:16.078Z</time></trkpt><trkpt lat="45.5953979" lon="10.844155"><ele>102.0</ele><time>2026-04-26T09:19:17.078Z</time></trkpt><trkpt lat="45.5952792" lon="10.8441476"><ele>102.0</ele><time>2026-04-26T09:19:19.077Z</time></trkpt><trkpt lat="45.5951791" lon="10.8441434"><ele>102.0</ele><time>2026-04-26T09:19:21.077Z</time></trkpt><trkpt lat="45.5950962" lon="10.8441088"><ele>101.66666666666667</ele><time>2026-04-26T09:19:23.077Z</time></trkpt><trkpt lat="45.5949962" lon="10.8440795"><ele>101.33333333333334</ele><time>2026-04-26T09:19:25.078Z</time></trkpt><trkpt lat="45.5949017" lon="10.8440609"><ele>101.0</ele><time>2026-04-26T09:19:27.077Z</time></trkpt><trkpt lat="45.5948031" lon="10.8440436"><ele>100.66666666666667</ele><time>2026-04-26T09:19:29.078Z</time></trkpt><trkpt lat="45.5947354" lon="10.8440308"><ele>100.33333333333334</ele><time>2026-04-26T09:19:30.078Z</time></trkpt><trkpt lat="45.5946729" lon="10.8440164"><ele>100.0</ele><time>2026-04-26T09:19:31.077Z</time></trkpt><trkpt lat="45.594572" lon="10.8439791"><ele>100.00000000000001</ele><time>2026-04-26T09:19:33.077Z</time></trkpt><trkpt lat="45.5945069" lon="10.8439878"><ele>100.0</ele><time>2026-04-26T09:19:35.078Z</time></trkpt><trkpt lat="45.5944399" lon="10.844075"><ele>100.0</ele><time>2026-04-26T09:19:37.077Z</time></trkpt><trkpt lat="45.5944075" lon="10.844162"><ele>100.0</ele><time>2026-04-26T09:19:38.078Z</time></trkpt><trkpt lat="45.5943837" lon="10.8442793"><ele>100.00000000000001</ele><time>2026-04-26T09:19:39.077Z</time></trkpt><trkpt lat="45.5943558" lon="10.8444162"><ele>100.0</ele><time>2026-04-26T09:19:40.078Z</time></trkpt><trkpt lat="45.5943284" lon="10.8445736"><ele>100.0</ele><time>2026-04-26T09:19:41.078Z</time></trkpt><trkpt lat="45.5943009" lon="10.8447247"><ele>100.0</ele><time>2026-04-26T09:19:42.078Z</time></trkpt><trkpt lat="45.5942735" lon="10.844865"><ele>100.0</ele><time>2026-04-26T09:19:43.078Z</time></trkpt><trkpt lat="45.5942507" lon="10.844995"><ele>100.0</ele><time>2026-04-26T09:19:44.077Z</time></trkpt><trkpt lat="45.594235" lon="10.8451107"><ele>100.0</ele><time>2026-04-26T09:19:45.078Z</time></trkpt><trkpt lat="45.5942214" lon="10.8452101"><ele>100.00000000000001</ele><time>2026-04-26T09:19:46.078Z</time></trkpt><trkpt lat="45.5941913" lon="10.845337"><ele>100.0</ele><time>2026-04-26T09:19:48.078Z</time></trkpt><trkpt lat="45.5941431" lon="10.845401"><ele>100.0</ele><time>2026-04-26T09:19:50.077Z</time></trkpt><trkpt lat="45.5940556" lon="10.8453666"><ele>100.0</ele><time>2026-04-26T09:19:52.078Z</time></trkpt><trkpt lat="45.5939833" lon="10.8453167"><ele>100.00000000000001</ele><time>2026-04-26T09:19:53.077Z</time></trkpt><trkpt lat="45.5938897" lon="10.8452496"><ele>100.0</ele><time>2026-04-26T09:19:54.077Z</time></trkpt><trkpt lat="45.5937971" lon="10.8451824"><ele>100.00000000000001</ele><time>2026-04-26T09:19:55.078Z</time></trkpt><trkpt lat="45.5937156" lon="10.8451331"><ele>100.0</ele><time>2026-04-26T09:19:56.076Z</time></trkpt><trkpt lat="45.5936471" lon="10.8451023"><ele>100.0</ele><time>2026-04-26T09:19:57.077Z</time></trkpt><trkpt lat="45.5935462" lon="10.8450411"><ele>100.0</ele><time>2026-04-26T09:19:59.077Z</time></trkpt><trkpt lat="45.5935097" lon="10.8449331"><ele>100.00000000000001</ele><time>2026-04-26T09:20:01.077Z</time></trkpt><trkpt lat="45.5935128" lon="10.8448372"><ele>100.0</ele><time>2026-04-26T09:20:02.076Z</time></trkpt><trkpt lat="45.5935307" lon="10.8447084"><ele>100.4</ele><time>2026-04-26T09:20:03.077Z</time></trkpt><trkpt lat="45.5935607" lon="10.8445737"><ele>100.8</ele><time>2026-04-26T09:20:04.076Z</time></trkpt><trkpt lat="45.5935862" lon="10.8444648"><ele>101.19999999999999</ele><time>2026-04-26T09:20:05.076Z</time></trkpt><trkpt lat="45.5936017" lon="10.8443354"><ele>101.6</ele><time>2026-04-26T09:20:07.077Z</time></trkpt><trkpt lat="45.5935363" lon="10.8442816"><ele>102.0</ele><time>2026-04-26T09:20:10.077Z</time></trkpt><trkpt lat="45.5934003" lon="10.8442668"><ele>102.0</ele><time>2026-04-26T09:20:12.076Z</time></trkpt><trkpt lat="45.5933042" lon="10.844258"><ele>102.0</ele><time>2026-04-26T09:20:13.077Z</time></trkpt><trkpt lat="45.5932074" lon="10.8442572"><ele>102.0</ele><time>2026-04-26T09:20:14.076Z</time></trkpt><trkpt lat="45.5931136" lon="10.8442566"><ele>102.0</ele><time>2026-04-26T09:20:15.076Z</time></trkpt><trkpt lat="45.5930281" lon="10.8442567"><ele>102.0</ele><time>2026-04-26T09:20:16.077Z</time></trkpt><trkpt lat="45.5929605" lon="10.8442545"><ele>102.0</ele><time>2026-04-26T09:20:17.077Z</time></trkpt><trkpt lat="45.5928781" lon="10.844243"><ele>102.0</ele><time>2026-04-26T09:20:19.076Z</time></trkpt><trkpt lat="45.5928626" lon="10.844091"><ele>102.0</ele><time>2026-04-26T09:20:22.076Z</time></trkpt><trkpt lat="45.5928803" lon="10.8439956"><ele>102.0</ele><time>2026-04-26T09:20:23.077Z</time></trkpt><trkpt lat="45.5928914" lon="10.8439033"><ele>102.0</ele><time>2026-04-26T09:20:24.077Z</time></trkpt><trkpt lat="45.5928836" lon="10.8437927"><ele>102.0</ele><time>2026-04-26T09:20:26.076Z</time></trkpt><trkpt lat="45.592808" lon="10.8437512"><ele>102.0</ele><time>2026-04-26T09:20:28.076Z</time></trkpt><trkpt lat="45.59273" lon="10.8437672"><ele>101.5</ele><time>2026-04-26T09:20:29.077Z</time></trkpt><trkpt lat="45.5926437" lon="10.843787"><ele>101.0</ele><time>2026-04-26T09:20:30.077Z</time></trkpt><trkpt lat="45.5925544" lon="10.8438081"><ele>100.5</ele><time>2026-04-26T09:20:31.076Z</time></trkpt><trkpt lat="45.5924714" lon="10.8438256"><ele>100.0</ele><time>2026-04-26T09:20:32.077Z</time></trkpt><trkpt lat="45.5923848" lon="10.8438379"><ele>99.5</ele><time>2026-04-26T09:20:33.076Z</time></trkpt><trkpt lat="45.5922958" lon="10.8438571"><ele>99.0</ele><time>2026-04-26T09:20:34.076Z</time></trkpt><trkpt lat="45.5922024" lon="10.843874"><ele>99.0</ele><time>2026-04-26T09:20:35.077Z</time></trkpt><trkpt lat="45.5921056" lon="10.8438892"><ele>99.0</ele><time>2026-04-26T09:20:36.076Z</time></trkpt><trkpt lat="45.5920122" lon="10.8438988"><ele>99.0</ele><time>2026-04-26T09:20:37.076Z</time></trkpt><trkpt lat="45.5919193" lon="10.8439087"><ele>99.0</ele><time>2026-04-26T09:20:38.077Z</time></trkpt><trkpt lat="45.5918342" lon="10.8439187"><ele>99.0</ele><time>2026-04-26T09:20:39.077Z</time></trkpt><trkpt lat="45.5917514" lon="10.8439274"><ele>99.5</ele><time>2026-04-26T09:20:40.076Z</time></trkpt><trkpt lat="45.5916691" lon="10.8439344"><ele>100.0</ele><time>2026-04-26T09:20:41.077Z</time></trkpt><trkpt lat="45.5915908" lon="10.8439471"><ele>100.5</ele><time>2026-04-26T09:20:42.077Z</time></trkpt><trkpt lat="45.5915194" lon="10.8439603"><ele>101.0</ele><time>2026-04-26T09:20:43.076Z</time></trkpt><trkpt lat="45.591451" lon="10.8439729"><ele>101.5</ele><time>2026-04-26T09:20:44.076Z</time></trkpt><trkpt lat="45.591386" lon="10.843986"><ele>102.0</ele><time>2026-04-26T09:20:45.077Z</time></trkpt><trkpt lat="45.5912643" lon="10.8439912"><ele>102.0</ele><time>2026-04-26T09:20:47.077Z</time></trkpt><trkpt lat="45.5911999" lon="10.8439747"><ele>102.0</ele><time>2026-04-26T09:20:48.077Z</time></trkpt><trkpt lat="45.5910656" lon="10.8439656"><ele>102.0</ele><time>2026-04-26T09:20:50.077Z</time></trkpt><trkpt lat="45.5909865" lon="10.8439817"><ele>102.0</ele><time>2026-04-26T09:20:51.076Z</time></trkpt><trkpt lat="45.5908962" lon="10.8440031"><ele>102.0</ele><time>2026-04-26T09:20:52.077Z</time></trkpt><trkpt lat="45.5907954" lon="10.8440278"><ele>101.8</ele><time>2026-04-26T09:20:53.076Z</time></trkpt><trkpt lat="45.5906886" lon="10.8440587"><ele>101.6</ele><time>2026-04-26T09:20:54.077Z</time></trkpt><trkpt lat="45.5905818" lon="10.8440801"><ele>101.39999999999999</ele><time>2026-04-26T09:20:55.077Z</time></trkpt><trkpt lat="45.5904742" lon="10.8441088"><ele>101.19999999999999</ele><time>2026-04-26T09:20:56.077Z</time></trkpt><trkpt lat="45.5903633" lon="10.8441347"><ele>101.0</ele><time>2026-04-26T09:20:57.077Z</time></trkpt><trkpt lat="45.5902492" lon="10.8441571"><ele>101.0</ele><time>2026-04-26T09:20:58.076Z</time></trkpt><trkpt lat="45.5901378" lon="10.844184"><ele>101.0</ele><time>2026-04-26T09:20:59.077Z</time></trkpt><trkpt lat="45.5900286" lon="10.8442084"><ele>101.0</ele><time>2026-04-26T09:21:00.076Z</time></trkpt><trkpt lat="45.5899227" lon="10.8442375"><ele>101.0</ele><time>2026-04-26T09:21:01.076Z</time></trkpt><trkpt lat="45.5898149" lon="10.8442616"><ele>101.0</ele><time>2026-04-26T09:21:02.076Z</time></trkpt><trkpt lat="45.5897052" lon="10.8442792"><ele>101.0</ele><time>2026-04-26T09:21:03.076Z</time></trkpt><trkpt lat="45.5895914" lon="10.8442979"><ele>101.0</ele><time>2026-04-26T09:21:04.077Z</time></trkpt><trkpt lat="45.5894727" lon="10.8443186"><ele>101.0</ele><time>2026-04-26T09:21:05.076Z</time></trkpt><trkpt lat="45.5893566" lon="10.8443305"><ele>101.0</ele><time>2026-04-26T09:21:06.076Z</time></trkpt><trkpt lat="45.5892402" lon="10.8443523"><ele>101.0</ele><time>2026-04-26T09:21:07.077Z</time></trkpt><trkpt lat="45.5891314" lon="10.8443721"><ele>101.0</ele><time>2026-04-26T09:21:08.076Z</time></trkpt><trkpt lat="45.5890185" lon="10.8443985"><ele>101.0</ele><time>2026-04-26T09:21:09.077Z</time></trkpt><trkpt lat="45.5889053" lon="10.844432"><ele>101.0</ele><time>2026-04-26T09:21:10.076Z</time></trkpt><trkpt lat="45.5887931" lon="10.8444704"><ele>101.0</ele><time>2026-04-26T09:21:11.076Z</time></trkpt><trkpt lat="45.5886821" lon="10.8445107"><ele>101.0</ele><time>2026-04-26T09:21:12.077Z</time></trkpt><trkpt lat="45.5885716" lon="10.8445611"><ele>101.0</ele><time>2026-04-26T09:21:13.077Z</time></trkpt><trkpt lat="45.5884641" lon="10.8446085"><ele>101.0</ele><time>2026-04-26T09:21:14.077Z</time></trkpt><trkpt lat="45.5883565" lon="10.8446517"><ele>100.8</ele><time>2026-04-26T09:21:15.076Z</time></trkpt><trkpt lat="45.5882514" lon="10.8446843"><ele>100.6</ele><time>2026-04-26T09:21:16.076Z</time></trkpt><trkpt lat="45.5881492" lon="10.8447129"><ele>100.4</ele><time>2026-04-26T09:21:17.076Z</time></trkpt><trkpt lat="45.5880579" lon="10.8447336"><ele>100.2</ele><time>2026-04-26T09:21:18.076Z</time></trkpt><trkpt lat="45.5879693" lon="10.8447589"><ele>100.0</ele><time>2026-04-26T09:21:19.076Z</time></trkpt><trkpt lat="45.5878905" lon="10.8447889"><ele>99.66666666666667</ele><time>2026-04-26T09:21:20.077Z</time></trkpt><trkpt lat="45.5878214" lon="10.844823"><ele>99.33333333333334</ele><time>2026-04-26T09:21:21.076Z</time></trkpt><trkpt lat="45.5877601" lon="10.8448613"><ele>99.0</ele><time>2026-04-26T09:21:22.076Z</time></trkpt><trkpt lat="45.5876747" lon="10.8449611"><ele>98.66666666666666</ele><time>2026-04-26T09:21:24.076Z</time></trkpt><trkpt lat="45.5876304" lon="10.8451103"><ele>98.33333333333333</ele><time>2026-04-26T09:21:26.076Z</time></trkpt><trkpt lat="45.5876152" lon="10.8452071"><ele>98.0</ele><time>2026-04-26T09:21:27.076Z</time></trkpt><trkpt lat="45.587599" lon="10.8453007"><ele>98.80000000000001</ele><time>2026-04-26T09:21:28.077Z</time></trkpt><trkpt lat="45.5875742" lon="10.8454546"><ele>99.6</ele><time>2026-04-26T09:21:30.076Z</time></trkpt><trkpt lat="45.5875915" lon="10.8455547"><ele>100.4</ele><time>2026-04-26T09:21:33.077Z</time></trkpt><trkpt lat="45.5876926" lon="10.8455908"><ele>101.19999999999999</ele><time>2026-04-26T09:21:35.076Z</time></trkpt><trkpt lat="45.5877762" lon="10.8456122"><ele>102.0</ele><time>2026-04-26T09:21:36.076Z</time></trkpt><trkpt lat="45.5878783" lon="10.8456398"><ele>102.0</ele><time>2026-04-26T09:21:37.077Z</time></trkpt><trkpt lat="45.5879839" lon="10.8456765"><ele>102.0</ele><time>2026-04-26T09:21:38.076Z</time></trkpt><trkpt lat="45.5880895" lon="10.845721"><ele>102.0</ele><time>2026-04-26T09:21:39.076Z</time></trkpt><trkpt lat="45.588199" lon="10.8457699"><ele>102.0</ele><time>2026-04-26T09:21:40.076Z</time></trkpt><trkpt lat="45.5882998" lon="10.8458088"><ele>102.0</ele><time>2026-04-26T09:21:41.077Z</time></trkpt><trkpt lat="45.588399" lon="10.845851"><ele>102.0</ele><time>2026-04-26T09:21:42.077Z</time></trkpt><trkpt lat="45.5884997" lon="10.8458758"><ele>102.0</ele><time>2026-04-26T09:21:43.076Z</time></trkpt><trkpt lat="45.5885971" lon="10.8458997"><ele>102.0</ele><time>2026-04-26T09:21:44.077Z</time></trkpt><trkpt lat="45.5886877" lon="10.8459304"><ele>102.0</ele><time>2026-04-26T09:21:45.076Z</time></trkpt><trkpt lat="45.5887689" lon="10.8459717"><ele>102.0</ele><time>2026-04-26T09:21:46.077Z</time></trkpt><trkpt lat="45.5888538" lon="10.8459999"><ele>102.39999999999999</ele><time>2026-04-26T09:21:47.077Z</time></trkpt><trkpt lat="45.5889342" lon="10.8460364"><ele>102.8</ele><time>2026-04-26T09:21:48.077Z</time></trkpt><trkpt lat="45.58902" lon="10.8460657"><ele>103.2</ele><time>2026-04-26T09:21:49.076Z</time></trkpt><trkpt lat="45.5891234" lon="10.8460981"><ele>103.6</ele><time>2026-04-26T09:21:50.077Z</time></trkpt><trkpt lat="45.589234" lon="10.8461243"><ele>104.0</ele><time>2026-04-26T09:21:51.076Z</time></trkpt><trkpt lat="45.589339" lon="10.8461547"><ele>104.0</ele><time>2026-04-26T09:21:52.077Z</time></trkpt><trkpt lat="45.5894421" lon="10.8461864"><ele>104.0</ele><time>2026-04-26T09:21:53.077Z</time></trkpt><trkpt lat="45.5895458" lon="10.8462228"><ele>104.0</ele><time>2026-04-26T09:21:54.077Z</time></trkpt><trkpt lat="45.5896482" lon="10.8462702"><ele>104.0</ele><time>2026-04-26T09:21:55.076Z</time></trkpt><trkpt lat="45.5897487" lon="10.8463144"><ele>104.0</ele><time>2026-04-26T09:21:56.077Z</time></trkpt><trkpt lat="45.5898523" lon="10.8463552"><ele>103.80000000000001</ele><time>2026-04-26T09:21:57.077Z</time></trkpt><trkpt lat="45.5899533" lon="10.8463946"><ele>103.60000000000001</ele><time>2026-04-26T09:21:58.077Z</time></trkpt><trkpt lat="45.5900596" lon="10.846434"><ele>103.4</ele><time>2026-04-26T09:21:59.077Z</time></trkpt><trkpt lat="45.5901633" lon="10.8464706"><ele>103.2</ele><time>2026-04-26T09:22:00.077Z</time></trkpt><trkpt lat="45.5902584" lon="10.846507"><ele>103.0</ele><time>2026-04-26T09:22:01.076Z</time></trkpt><trkpt lat="45.5903445" lon="10.8465342"><ele>103.00000000000001</ele><time>2026-04-26T09:22:02.077Z</time></trkpt><trkpt lat="45.5904207" lon="10.8465555"><ele>103.0</ele><time>2026-04-26T09:22:03.077Z</time></trkpt><trkpt lat="45.5904856" lon="10.8465658"><ele>103.0</ele><time>2026-04-26T09:22:04.077Z</time></trkpt><trkpt lat="45.5905761" lon="10.8465923"><ele>103.0</ele><time>2026-04-26T09:22:06.076Z</time></trkpt><trkpt lat="45.5906356" lon="10.8466795"><ele>103.00000000000001</ele><time>2026-04-26T09:22:09.077Z</time></trkpt><trkpt lat="45.5906172" lon="10.8468204"><ele>103.0</ele><time>2026-04-26T09:22:12.077Z</time></trkpt><trkpt lat="45.5905825" lon="10.8469215"><ele>103.0</ele><time>2026-04-26T09:22:13.076Z</time></trkpt><trkpt lat="45.5905121" lon="10.8470978"><ele>103.0</ele><time>2026-04-26T09:22:14.077Z</time></trkpt><trkpt lat="45.590458" lon="10.8472598"><ele>103.0</ele><time>2026-04-26T09:22:15.076Z</time></trkpt><trkpt lat="45.5904193" lon="10.8473997"><ele>103.0</ele><time>2026-04-26T09:22:16.076Z</time></trkpt><trkpt lat="45.590394" lon="10.8475286"><ele>103.00000000000001</ele><time>2026-04-26T09:22:17.076Z</time></trkpt><trkpt lat="45.5903727" lon="10.8476436"><ele>103.0</ele><time>2026-04-26T09:22:18.077Z</time></trkpt><trkpt lat="45.5903491" lon="10.847743"><ele>103.0</ele><time>2026-04-26T09:22:19.077Z</time></trkpt><trkpt lat="45.5903018" lon="10.8478867"><ele>103.0</ele><time>2026-04-26T09:22:21.076Z</time></trkpt><trkpt lat="45.590238" lon="10.8479623"><ele>103.00000000000001</ele><time>2026-04-26T09:22:23.076Z</time></trkpt><trkpt lat="45.5901484" lon="10.8479566"><ele>103.0</ele><time>2026-04-26T09:22:25.077Z</time></trkpt><trkpt lat="45.5900842" lon="10.8479172"><ele>103.0</ele><time>2026-04-26T09:22:26.077Z</time></trkpt><trkpt lat="45.5900066" lon="10.8478538"><ele>103.0</ele><time>2026-04-26T09:22:27.076Z</time></trkpt><trkpt lat="45.5899167" lon="10.8477775"><ele>103.0</ele><time>2026-04-26T09:22:28.077Z</time></trkpt><trkpt lat="45.5898246" lon="10.8477064"><ele>103.0</ele><time>2026-04-26T09:22:29.076Z</time></trkpt><trkpt lat="45.5897264" lon="10.847635"><ele>103.0</ele><time>2026-04-26T09:22:30.077Z</time></trkpt><trkpt lat="45.5896265" lon="10.8475788"><ele>103.0</ele><time>2026-04-26T09:22:31.076Z</time></trkpt><trkpt lat="45.5895287" lon="10.8475306"><ele>103.0</ele><time>2026-04-26T09:22:32.077Z</time></trkpt><trkpt lat="45.5894189" lon="10.8474814"><ele>103.0</ele><time>2026-04-26T09:22:33.076Z</time></trkpt><trkpt lat="45.5893052" lon="10.8474275"><ele>103.0</ele><time>2026-04-26T09:22:34.076Z</time></trkpt><trkpt lat="45.589199" lon="10.847375"><ele>104.16666666666667</ele><time>2026-04-26T09:22:35.077Z</time></trkpt><trkpt lat="45.5891059" lon="10.8473298"><ele>105.33333333333334</ele><time>2026-04-26T09:22:36.077Z</time></trkpt><trkpt lat="45.5890243" lon="10.8472826"><ele>106.5</ele><time>2026-04-26T09:22:37.075Z</time></trkpt><trkpt lat="45.5889446" lon="10.8472297"><ele>107.66666666666666</ele><time>2026-04-26T09:22:38.075Z</time></trkpt><trkpt lat="45.5888765" lon="10.8471794"><ele>108.83333333333333</ele><time>2026-04-26T09:22:39.076Z</time></trkpt><trkpt lat="45.5888191" lon="10.8471383"><ele>110.0</ele><time>2026-04-26T09:22:40.076Z</time></trkpt><trkpt lat="45.5887243" lon="10.8471011"><ele>109.99999999999999</ele><time>2026-04-26T09:22:42.075Z</time></trkpt><trkpt lat="45.5886312" lon="10.8470844"><ele>110.0</ele><time>2026-04-26T09:22:44.075Z</time></trkpt><trkpt lat="45.5886945" lon="10.8471671"><ele>110.0</ele><time>2026-04-26T09:22:50.076Z</time></trkpt><trkpt lat="45.5887841" lon="10.8472519"><ele>110.0</ele><time>2026-04-26T09:22:52.075Z</time></trkpt><trkpt lat="45.5888383" lon="10.8472992"><ele>109.99999999999999</ele><time>2026-04-26T09:22:53.076Z</time></trkpt><trkpt lat="45.5889112" lon="10.8473496"><ele>110.0</ele><time>2026-04-26T09:22:54.076Z</time></trkpt><trkpt lat="45.5889943" lon="10.8473997"><ele>109.99999999999999</ele><time>2026-04-26T09:22:55.075Z</time></trkpt><trkpt lat="45.5890816" lon="10.8474448"><ele>110.0</ele><time>2026-04-26T09:22:56.075Z</time></trkpt><trkpt lat="45.5891691" lon="10.8474899"><ele>110.0</ele><time>2026-04-26T09:22:57.075Z</time></trkpt><trkpt lat="45.5892501" lon="10.8475263"><ele>110.0</ele><time>2026-04-26T09:22:58.076Z</time></trkpt><trkpt lat="45.5893157" lon="10.8475609"><ele>109.99999999999999</ele><time>2026-04-26T09:22:59.075Z</time></trkpt><trkpt lat="45.5894151" lon="10.8476105"><ele>110.0</ele><time>2026-04-26T09:23:01.076Z</time></trkpt><trkpt lat="45.5894975" lon="10.8476841"><ele>110.16666666666666</ele><time>2026-04-26T09:23:03.076Z</time></trkpt><trkpt lat="45.5896023" lon="10.8477589"><ele>110.33333333333333</ele><time>2026-04-26T09:23:05.076Z</time></trkpt><trkpt lat="45.5896689" lon="10.8478004"><ele>110.5</ele><time>2026-04-26T09:23:06.076Z</time></trkpt><trkpt lat="45.5897337" lon="10.847842"><ele>110.66666666666666</ele><time>2026-04-26T09:23:07.076Z</time></trkpt><trkpt lat="45.5897982" lon="10.8478842"><ele>110.83333333333333</ele><time>2026-04-26T09:23:08.076Z</time></trkpt><trkpt lat="45.5898678" lon="10.8479254"><ele>111.0</ele><time>2026-04-26T09:23:09.076Z</time></trkpt><trkpt lat="45.5899384" lon="10.8479685"><ele>111.0</ele><time>2026-04-26T09:23:10.075Z</time></trkpt><trkpt lat="45.5900098" lon="10.8480136"><ele>111.0</ele><time>2026-04-26T09:23:11.075Z</time></trkpt><trkpt lat="45.5900773" lon="10.8480636"><ele>111.0</ele><time>2026-04-26T09:23:12.076Z</time></trkpt><trkpt lat="45.5901411" lon="10.84811"><ele>111.0</ele><time>2026-04-26T09:23:13.076Z</time></trkpt><trkpt lat="45.590196" lon="10.848156"><ele>111.0</ele><time>2026-04-26T09:23:14.076Z</time></trkpt><trkpt lat="45.5902869" lon="10.8482565"><ele>111.0</ele><time>2026-04-26T09:23:16.075Z</time></trkpt><trkpt lat="45.5903579" lon="10.8483309"><ele>111.0</ele><time>2026-04-26T09:23:18.075Z</time></trkpt><trkpt lat="45.5903843" lon="10.8484393"><ele>111.0</ele><time>2026-04-26T09:23:21.075Z</time></trkpt><trkpt lat="45.590306" lon="10.8484628"><ele>111.0</ele><time>2026-04-26T09:23:25.076Z</time></trkpt><trkpt lat="45.5902" lon="10.8483471"><ele>111.0</ele><time>2026-04-26T09:23:27.076Z</time></trkpt><trkpt lat="45.5901238" lon="10.848268"><ele>111.0</ele><time>2026-04-26T09:23:28.076Z</time></trkpt><trkpt lat="45.5900352" lon="10.8481813"><ele>111.0</ele><time>2026-04-26T09:23:29.076Z</time></trkpt><trkpt lat="45.5899421" lon="10.8480984"><ele>111.0</ele><time>2026-04-26T09:23:30.076Z</time></trkpt><trkpt lat="45.5898366" lon="10.8480144"><ele>111.0</ele><time>2026-04-26T09:23:31.076Z</time></trkpt><trkpt lat="45.5897263" lon="10.847937"><ele>111.0</ele><time>2026-04-26T09:23:32.075Z</time></trkpt><trkpt lat="45.5896055" lon="10.8478642"><ele>110.75</ele><time>2026-04-26T09:23:33.075Z</time></trkpt><trkpt lat="45.5894757" lon="10.8478031"><ele>110.5</ele><time>2026-04-26T09:23:34.075Z</time></trkpt><trkpt lat="45.5893423" lon="10.8477337"><ele>110.25</ele><time>2026-04-26T09:23:35.076Z</time></trkpt><trkpt lat="45.5891947" lon="10.8476715"><ele>110.0</ele><time>2026-04-26T09:23:36.076Z</time></trkpt><trkpt lat="45.589047" lon="10.84761"><ele>110.0</ele><time>2026-04-26T09:23:37.076Z</time></trkpt><trkpt lat="45.5888847" lon="10.8475519"><ele>110.0</ele><time>2026-04-26T09:23:38.076Z</time></trkpt><trkpt lat="45.5887241" lon="10.8474978"><ele>110.0</ele><time>2026-04-26T09:23:39.076Z</time></trkpt><trkpt lat="45.5885646" lon="10.8474496"><ele>112.66666666666666</ele><time>2026-04-26T09:23:40.076Z</time></trkpt><trkpt lat="45.5884104" lon="10.8474006"><ele>115.33333333333334</ele><time>2026-04-26T09:23:41.076Z</time></trkpt><trkpt lat="45.5882582" lon="10.8473287"><ele>118.0</ele><time>2026-04-26T09:23:42.075Z</time></trkpt><trkpt lat="45.5881105" lon="10.8472383"><ele>118.0</ele><time>2026-04-26T09:23:43.076Z</time></trkpt><trkpt lat="45.5879665" lon="10.8471349"><ele>118.0</ele><time>2026-04-26T09:23:44.076Z</time></trkpt><trkpt lat="45.5878237" lon="10.8470164"><ele>118.0</ele><time>2026-04-26T09:23:45.076Z</time></trkpt><trkpt lat="45.5876853" lon="10.8468919"><ele>116.33333333333334</ele><time>2026-04-26T09:23:46.075Z</time></trkpt><trkpt lat="45.5875431" lon="10.8467691"><ele>114.66666666666666</ele><time>2026-04-26T09:23:47.076Z</time></trkpt><trkpt lat="45.5873937" lon="10.8466486"><ele>113.0</ele><time>2026-04-26T09:23:48.076Z</time></trkpt><trkpt lat="45.5872413" lon="10.8465254"><ele>113.0</ele><time>2026-04-26T09:23:49.075Z</time></trkpt><trkpt lat="45.5870895" lon="10.8463915"><ele>113.0</ele><time>2026-04-26T09:23:50.076Z</time></trkpt><trkpt lat="45.5869538" lon="10.8462644"><ele>113.0</ele><time>2026-04-26T09:23:51.076Z</time></trkpt><trkpt lat="45.5868154" lon="10.8461306"><ele>112.0</ele><time>2026-04-26T09:23:52.075Z</time></trkpt><trkpt lat="45.5866739" lon="10.8459998"><ele>111.0</ele><time>2026-04-26T09:23:53.076Z</time></trkpt><trkpt lat="45.5865363" lon="10.8458627"><ele>110.0</ele><time>2026-04-26T09:23:54.075Z</time></trkpt><trkpt lat="45.5864011" lon="10.8457378"><ele>110.0</ele><time>2026-04-26T09:23:55.075Z</time></trkpt><trkpt lat="45.5862675" lon="10.8456018"><ele>110.0</ele><time>2026-04-26T09:23:56.075Z</time></trkpt><trkpt lat="45.5861231" lon="10.845461"><ele>110.0</ele><time>2026-04-26T09:23:57.075Z</time></trkpt><trkpt lat="45.5859726" lon="10.8453122"><ele>110.33333333333333</ele><time>2026-04-26T09:23:58.075Z</time></trkpt><trkpt lat="45.5858192" lon="10.845172"><ele>110.66666666666666</ele><time>2026-04-26T09:23:59.076Z</time></trkpt><trkpt lat="45.5856637" lon="10.8450202"><ele>111.0</ele><time>2026-04-26T09:24:00.075Z</time></trkpt><trkpt lat="45.5854981" lon="10.8448699"><ele>118.33333333333334</ele><time>2026-04-26T09:24:01.076Z</time></trkpt><trkpt lat="45.5853337" lon="10.8447113"><ele>125.66666666666667</ele><time>2026-04-26T09:24:02.076Z</time></trkpt><trkpt lat="45.5851706" lon="10.8445463"><ele>133.0</ele><time>2026-04-26T09:24:03.075Z</time></trkpt><trkpt lat="45.5850093" lon="10.844381"><ele>126.0</ele><time>2026-04-26T09:24:04.076Z</time></trkpt><trkpt lat="45.5848476" lon="10.8442125"><ele>119.0</ele><time>2026-04-26T09:24:05.075Z</time></trkpt><trkpt lat="45.5846908" lon="10.8440462"><ele>112.0</ele><time>2026-04-26T09:24:06.075Z</time></trkpt><trkpt lat="45.5845381" lon="10.8438756"><ele>114.66666666666667</ele><time>2026-04-26T09:24:07.076Z</time></trkpt><trkpt lat="45.5843829" lon="10.8437005"><ele>117.33333333333334</ele><time>2026-04-26T09:24:08.076Z</time></trkpt><trkpt lat="45.5842373" lon="10.8435142"><ele>120.0</ele><time>2026-04-26T09:24:09.076Z</time></trkpt><trkpt lat="45.5840992" lon="10.8433154"><ele>120.0</ele><time>2026-04-26T09:24:10.076Z</time></trkpt><trkpt lat="45.5839637" lon="10.8431151"><ele>120.0</ele><time>2026-04-26T09:24:11.075Z</time></trkpt><trkpt lat="45.5838359" lon="10.8429013"><ele>120.0</ele><time>2026-04-26T09:24:12.075Z</time></trkpt><trkpt lat="45.5837066" lon="10.8426794"><ele>123.0</ele><time>2026-04-26T09:24:13.075Z</time></trkpt><trkpt lat="45.5835851" lon="10.8424629"><ele>126.0</ele><time>2026-04-26T09:24:14.076Z</time></trkpt><trkpt lat="45.5834642" lon="10.8422533"><ele>129.0</ele><time>2026-04-26T09:24:15.076Z</time></trkpt><trkpt lat="45.5833419" lon="10.8420445"><ele>129.0</ele><time>2026-04-26T09:24:16.075Z</time></trkpt><trkpt lat="45.5832254" lon="10.8418284"><ele>129.0</ele><time>2026-04-26T09:24:17.076Z</time></trkpt><trkpt lat="45.5831083" lon="10.8416099"><ele>129.0</ele><time>2026-04-26T09:24:18.076Z</time></trkpt><trkpt lat="45.5829958" lon="10.8413835"><ele>128.66666666666666</ele><time>2026-04-26T09:24:19.076Z</time></trkpt><trkpt lat="45.5828888" lon="10.8411505"><ele>128.33333333333331</ele><time>2026-04-26T09:24:20.075Z</time></trkpt><trkpt lat="45.582783" lon="10.8409249"><ele>128.0</ele><time>2026-04-26T09:24:21.076Z</time></trkpt><trkpt lat="45.5826777" lon="10.8407046"><ele>128.0</ele><time>2026-04-26T09:24:22.076Z</time></trkpt><trkpt lat="45.5825812" lon="10.840483"><ele>128.0</ele><time>2026-04-26T09:24:23.075Z</time></trkpt><trkpt lat="45.5824946" lon="10.8402483"><ele>128.0</ele><time>2026-04-26T09:24:24.076Z</time></trkpt><trkpt lat="45.5824156" lon="10.8400056"><ele>122.66666666666666</ele><time>2026-04-26T09:24:25.075Z</time></trkpt><trkpt lat="45.5823398" lon="10.8397713"><ele>117.33333333333334</ele><time>2026-04-26T09:24:26.075Z</time></trkpt><trkpt lat="45.5822627" lon="10.839519"><ele>112.0</ele><time>2026-04-26T09:24:27.076Z</time></trkpt><trkpt lat="45.5821778" lon="10.8392646"><ele>110.0</ele><time>2026-04-26T09:24:28.075Z</time></trkpt><trkpt lat="45.5820917" lon="10.8390073"><ele>108.0</ele><time>2026-04-26T09:24:29.075Z</time></trkpt><trkpt lat="45.5820026" lon="10.8387386"><ele>106.0</ele><time>2026-04-26T09:24:30.076Z</time></trkpt><trkpt lat="45.5819152" lon="10.8384796"><ele>109.66666666666667</ele><time>2026-04-26T09:24:31.076Z</time></trkpt><trkpt lat="45.5818294" lon="10.8382304"><ele>113.33333333333334</ele><time>2026-04-26T09:24:32.076Z</time></trkpt><trkpt lat="45.5817456" lon="10.8379859"><ele>117.0</ele><time>2026-04-26T09:24:33.076Z</time></trkpt><trkpt lat="45.5816612" lon="10.8377357"><ele>113.66666666666666</ele><time>2026-04-26T09:24:34.075Z</time></trkpt><trkpt lat="45.5815661" lon="10.8375058"><ele>110.33333333333333</ele><time>2026-04-26T09:24:35.076Z</time></trkpt><trkpt lat="45.5814776" lon="10.8372666"><ele>107.0</ele><time>2026-04-26T09:24:36.075Z</time></trkpt><trkpt lat="45.5814029" lon="10.8370249"><ele>106.0</ele><time>2026-04-26T09:24:37.075Z</time></trkpt><trkpt lat="45.5813175" lon="10.8367959"><ele>105.0</ele><time>2026-04-26T09:24:38.076Z</time></trkpt><trkpt lat="45.5812351" lon="10.8365669"><ele>104.0</ele><time>2026-04-26T09:24:39.075Z</time></trkpt><trkpt lat="45.5811588" lon="10.8363416"><ele>104.0</ele><time>2026-04-26T09:24:40.076Z</time></trkpt><trkpt lat="45.5810943" lon="10.8361189"><ele>104.0</ele><time>2026-04-26T09:24:41.075Z</time></trkpt><trkpt lat="45.5810291" lon="10.8359033"><ele>104.0</ele><time>2026-04-26T09:24:42.075Z</time></trkpt><trkpt lat="45.5809501" lon="10.8357094"><ele>104.0</ele><time>2026-04-26T09:24:43.076Z</time></trkpt><trkpt lat="45.5808855" lon="10.8355261"><ele>104.0</ele><time>2026-04-26T09:24:44.076Z</time></trkpt><trkpt lat="45.5808358" lon="10.8353426"><ele>104.0</ele><time>2026-04-26T09:24:45.075Z</time></trkpt><trkpt lat="45.5807816" lon="10.8351765"><ele>104.0</ele><time>2026-04-26T09:24:46.076Z</time></trkpt><trkpt lat="45.5807225" lon="10.8350288"><ele>103.80000000000001</ele><time>2026-04-26T09:24:47.076Z</time></trkpt><trkpt lat="45.5806676" lon="10.8349029"><ele>103.60000000000001</ele><time>2026-04-26T09:24:48.075Z</time></trkpt><trkpt lat="45.5806052" lon="10.83478"><ele>103.4</ele><time>2026-04-26T09:24:49.076Z</time></trkpt><trkpt lat="45.5805423" lon="10.8346648"><ele>103.2</ele><time>2026-04-26T09:24:50.076Z</time></trkpt><trkpt lat="45.5804909" lon="10.8345646"><ele>103.0</ele><time>2026-04-26T09:24:51.075Z</time></trkpt><trkpt lat="45.5804426" lon="10.8344746"><ele>103.00000000000001</ele><time>2026-04-26T09:24:52.076Z</time></trkpt><trkpt lat="45.5803887" lon="10.8343926"><ele>103.0</ele><time>2026-04-26T09:24:53.076Z</time></trkpt><trkpt lat="45.5803418" lon="10.8343169"><ele>103.0</ele><time>2026-04-26T09:24:54.076Z</time></trkpt><trkpt lat="45.5802889" lon="10.8342575"><ele>103.0</ele><time>2026-04-26T09:24:55.076Z</time></trkpt><trkpt lat="45.5801961" lon="10.8341652"><ele>103.00000000000001</ele><time>2026-04-26T09:24:57.076Z</time></trkpt><trkpt lat="45.5802577" lon="10.8342156"><ele>103.0</ele><time>2026-04-26T09:25:04.075Z</time></trkpt><trkpt lat="45.5803224" lon="10.834307"><ele>103.0</ele><time>2026-04-26T09:25:05.076Z</time></trkpt><trkpt lat="45.5803906" lon="10.8344272"><ele>103.0</ele><time>2026-04-26T09:25:06.076Z</time></trkpt><trkpt lat="45.5804653" lon="10.834569"><ele>103.0</ele><time>2026-04-26T09:25:07.075Z</time></trkpt><trkpt lat="45.5805485" lon="10.8347178"><ele>103.0</ele><time>2026-04-26T09:25:08.076Z</time></trkpt><trkpt lat="45.5806242" lon="10.8348615"><ele>103.0</ele><time>2026-04-26T09:25:09.076Z</time></trkpt><trkpt lat="45.5806879" lon="10.8350064"><ele>103.0</ele><time>2026-04-26T09:25:10.075Z</time></trkpt><trkpt lat="45.5807493" lon="10.8351555"><ele>103.0</ele><time>2026-04-26T09:25:11.075Z</time></trkpt><trkpt lat="45.5808013" lon="10.8352911"><ele>103.0</ele><time>2026-04-26T09:25:12.075Z</time></trkpt><trkpt lat="45.5808516" lon="10.8354123"><ele>103.0</ele><time>2026-04-26T09:25:13.075Z</time></trkpt><trkpt lat="45.5808955" lon="10.8355054"><ele>103.00000000000001</ele><time>2026-04-26T09:25:14.076Z</time></trkpt><trkpt lat="45.5809635" lon="10.8356139"><ele>103.0</ele><time>2026-04-26T09:25:16.076Z</time></trkpt><trkpt lat="45.5810248" lon="10.8356418"><ele>103.0</ele><time>2026-04-26T09:25:19.076Z</time></trkpt><trkpt lat="45.5811128" lon="10.8355903"><ele>103.0</ele><time>2026-04-26T09:25:22.074Z</time></trkpt><trkpt lat="45.5811729" lon="10.8355509"><ele>103.00000000000001</ele><time>2026-04-26T09:25:24.075Z</time></trkpt><trkpt lat="45.5812119" lon="10.8354792"><ele>103.0</ele><time>2026-04-26T09:25:26.075Z</time></trkpt><trkpt lat="45.5812227" lon="10.8353809"><ele>103.0</ele><time>2026-04-26T09:25:28.075Z</time></trkpt><trkpt lat="45.5811971" lon="10.8352118"><ele>103.0</ele><time>2026-04-26T09:25:30.075Z</time></trkpt><trkpt lat="45.5811833" lon="10.8350937"><ele>103.0</ele><time>2026-04-26T09:25:31.075Z</time></trkpt><trkpt lat="45.5811604" lon="10.834975"><ele>103.0</ele><time>2026-04-26T09:25:32.075Z</time></trkpt><trkpt lat="45.5811264" lon="10.834843"><ele>103.0</ele><time>2026-04-26T09:25:33.074Z</time></trkpt><trkpt lat="45.5811006" lon="10.8347137"><ele>103.00000000000001</ele><time>2026-04-26T09:25:34.075Z</time></trkpt><trkpt lat="45.5810759" lon="10.8345878"><ele>103.0</ele><time>2026-04-26T09:25:35.074Z</time></trkpt><trkpt lat="45.5810496" lon="10.8344721"><ele>103.0</ele><time>2026-04-26T09:25:36.074Z</time></trkpt><trkpt lat="45.5810319" lon="10.8343612"><ele>103.0</ele><time>2026-04-26T09:25:37.074Z</time></trkpt><trkpt lat="45.5810294" lon="10.8342557"><ele>103.00000000000001</ele><time>2026-04-26T09:25:38.074Z</time></trkpt><trkpt lat="45.5810358" lon="10.8341465"><ele>103.0</ele><time>2026-04-26T09:25:39.074Z</time></trkpt><trkpt lat="45.5810297" lon="10.8340364"><ele>102.83333333333334</ele><time>2026-04-26T09:25:40.074Z</time></trkpt><trkpt lat="45.5810171" lon="10.8339238"><ele>102.66666666666667</ele><time>2026-04-26T09:25:41.075Z</time></trkpt><trkpt lat="45.5810076" lon="10.8338053"><ele>102.5</ele><time>2026-04-26T09:25:42.075Z</time></trkpt><trkpt lat="45.5809952" lon="10.8336892"><ele>102.33333333333334</ele><time>2026-04-26T09:25:43.074Z</time></trkpt><trkpt lat="45.5809819" lon="10.8335723"><ele>102.16666666666667</ele><time>2026-04-26T09:25:44.075Z</time></trkpt><trkpt lat="45.5809793" lon="10.8334627"><ele>102.0</ele><time>2026-04-26T09:25:45.075Z</time></trkpt><trkpt lat="45.5809772" lon="10.8333513"><ele>101.5</ele><time>2026-04-26T09:25:46.074Z</time></trkpt><trkpt lat="45.5809709" lon="10.8332334"><ele>101.0</ele><time>2026-04-26T09:25:47.074Z</time></trkpt><trkpt lat="45.5809696" lon="10.8331088"><ele>100.5</ele><time>2026-04-26T09:25:48.074Z</time></trkpt><trkpt lat="45.5809657" lon="10.8329816"><ele>100.0</ele><time>2026-04-26T09:25:49.075Z</time></trkpt><trkpt lat="45.580961" lon="10.8328625"><ele>99.5</ele><time>2026-04-26T09:25:50.075Z</time></trkpt><trkpt lat="45.580956" lon="10.8327457"><ele>99.0</ele><time>2026-04-26T09:25:51.074Z</time></trkpt><trkpt lat="45.5809498" lon="10.8326382"><ele>98.83333333333333</ele><time>2026-04-26T09:25:52.075Z</time></trkpt><trkpt lat="45.5809448" lon="10.8325333"><ele>98.66666666666666</ele><time>2026-04-26T09:25:53.075Z</time></trkpt><trkpt lat="45.5809439" lon="10.8324317"><ele>98.5</ele><time>2026-04-26T09:25:54.074Z</time></trkpt><trkpt lat="45.5809441" lon="10.8323239"><ele>98.33333333333333</ele><time>2026-04-26T09:25:55.074Z</time></trkpt><trkpt lat="45.5809458" lon="10.8322133"><ele>98.16666666666666</ele><time>2026-04-26T09:25:56.074Z</time></trkpt><trkpt lat="45.5809527" lon="10.8321033"><ele>98.0</ele><time>2026-04-26T09:25:57.075Z</time></trkpt><trkpt lat="45.5809612" lon="10.8319928"><ele>98.0</ele><time>2026-04-26T09:25:58.074Z</time></trkpt><trkpt lat="45.5809784" lon="10.8318748"><ele>98.0</ele><time>2026-04-26T09:25:59.075Z</time></trkpt><trkpt lat="45.5809896" lon="10.8317409"><ele>98.0</ele><time>2026-04-26T09:26:00.075Z</time></trkpt><trkpt lat="45.5810015" lon="10.8315959"><ele>98.0</ele><time>2026-04-26T09:26:01.075Z</time></trkpt><trkpt lat="45.5810179" lon="10.8314368"><ele>98.0</ele><time>2026-04-26T09:26:02.075Z</time></trkpt><trkpt lat="45.5810379" lon="10.831264"><ele>98.0</ele><time>2026-04-26T09:26:03.074Z</time></trkpt><trkpt lat="45.5810559" lon="10.8310868"><ele>98.0</ele><time>2026-04-26T09:26:04.075Z</time></trkpt><trkpt lat="45.5810751" lon="10.8309133"><ele>98.0</ele><time>2026-04-26T09:26:05.075Z</time></trkpt><trkpt lat="45.5810875" lon="10.8307457"><ele>98.0</ele><time>2026-04-26T09:26:06.074Z</time></trkpt><trkpt lat="45.5811013" lon="10.8305752"><ele>98.0</ele><time>2026-04-26T09:26:07.075Z</time></trkpt><trkpt lat="45.5811135" lon="10.8304067"><ele>98.0</ele><time>2026-04-26T09:26:08.074Z</time></trkpt><trkpt lat="45.581125" lon="10.8302493"><ele>98.0</ele><time>2026-04-26T09:26:09.075Z</time></trkpt><trkpt lat="45.5811256" lon="10.8300991"><ele>98.0</ele><time>2026-04-26T09:26:10.074Z</time></trkpt><trkpt lat="45.5811095" lon="10.829961"><ele>98.0</ele><time>2026-04-26T09:26:11.075Z</time></trkpt><trkpt lat="45.5810828" lon="10.8298254"><ele>98.2</ele><time>2026-04-26T09:26:12.075Z</time></trkpt><trkpt lat="45.5810431" lon="10.8297054"><ele>98.4</ele><time>2026-04-26T09:26:13.074Z</time></trkpt><trkpt lat="45.5809803" lon="10.8295862"><ele>98.60000000000001</ele><time>2026-04-26T09:26:14.074Z</time></trkpt><trkpt lat="45.5809134" lon="10.8294564"><ele>98.80000000000001</ele><time>2026-04-26T09:26:15.074Z</time></trkpt><trkpt lat="45.580848" lon="10.8293188"><ele>99.0</ele><time>2026-04-26T09:26:16.074Z</time></trkpt><trkpt lat="45.5807816" lon="10.8291894"><ele>99.4</ele><time>2026-04-26T09:26:17.075Z</time></trkpt><trkpt lat="45.5807222" lon="10.8290614"><ele>99.80000000000001</ele><time>2026-04-26T09:26:18.074Z</time></trkpt><trkpt lat="45.5806603" lon="10.828935"><ele>100.19999999999999</ele><time>2026-04-26T09:26:19.075Z</time></trkpt><trkpt lat="45.5805993" lon="10.8288154"><ele>100.6</ele><time>2026-04-26T09:26:20.075Z</time></trkpt><trkpt lat="45.5805434" lon="10.8287131"><ele>101.0</ele><time>2026-04-26T09:26:21.075Z</time></trkpt><trkpt lat="45.5804854" lon="10.8286214"><ele>101.0</ele><time>2026-04-26T09:26:22.075Z</time></trkpt><trkpt lat="45.580409" lon="10.8285522"><ele>101.0</ele><time>2026-04-26T09:26:23.074Z</time></trkpt><trkpt lat="45.5803268" lon="10.828496"><ele>101.0</ele><time>2026-04-26T09:26:24.075Z</time></trkpt><trkpt lat="45.5802387" lon="10.8284135"><ele>101.0</ele><time>2026-04-26T09:26:25.074Z</time></trkpt><trkpt lat="45.580152" lon="10.8283013"><ele>101.0</ele><time>2026-04-26T09:26:26.075Z</time></trkpt><trkpt lat="45.5800623" lon="10.8281711"><ele>100.8</ele><time>2026-04-26T09:26:27.074Z</time></trkpt><trkpt lat="45.5799759" lon="10.8280368"><ele>100.6</ele><time>2026-04-26T09:26:28.074Z</time></trkpt><trkpt lat="45.5799008" lon="10.827918"><ele>100.4</ele><time>2026-04-26T09:26:29.074Z</time></trkpt><trkpt lat="45.5798366" lon="10.827816"><ele>100.2</ele><time>2026-04-26T09:26:30.074Z</time></trkpt><trkpt lat="45.5797818" lon="10.8277326"><ele>100.0</ele><time>2026-04-26T09:26:31.075Z</time></trkpt><trkpt lat="45.579735" lon="10.8276182"><ele>100.0</ele><time>2026-04-26T09:26:33.074Z</time></trkpt><trkpt lat="45.579791" lon="10.8275291"><ele>100.0</ele><time>2026-04-26T09:26:35.075Z</time></trkpt><trkpt lat="45.5798517" lon="10.8274592"><ele>100.0</ele><time>2026-04-26T09:26:36.075Z</time></trkpt><trkpt lat="45.579924" lon="10.8273679"><ele>100.0</ele><time>2026-04-26T09:26:37.075Z</time></trkpt><trkpt lat="45.579999" lon="10.8272678"><ele>100.0</ele><time>2026-04-26T09:26:38.074Z</time></trkpt><trkpt lat="45.5800706" lon="10.8271614"><ele>100.0</ele><time>2026-04-26T09:26:39.075Z</time></trkpt><trkpt lat="45.5801366" lon="10.8270539"><ele>100.0</ele><time>2026-04-26T09:26:40.075Z</time></trkpt><trkpt lat="45.5802026" lon="10.8269406"><ele>100.0</ele><time>2026-04-26T09:26:41.074Z</time></trkpt><trkpt lat="45.5802734" lon="10.8268209"><ele>100.0</ele><time>2026-04-26T09:26:42.075Z</time></trkpt><trkpt lat="45.5803455" lon="10.8267001"><ele>100.0</ele><time>2026-04-26T09:26:43.075Z</time></trkpt><trkpt lat="45.58042" lon="10.8265844"><ele>100.0</ele><time>2026-04-26T09:26:44.075Z</time></trkpt><trkpt lat="45.5804971" lon="10.8264743"><ele>100.0</ele><time>2026-04-26T09:26:45.074Z</time></trkpt><trkpt lat="45.5805639" lon="10.8263567"><ele>100.0</ele><time>2026-04-26T09:26:46.075Z</time></trkpt><trkpt lat="45.580625" lon="10.8262468"><ele>100.0</ele><time>2026-04-26T09:26:47.075Z</time></trkpt><trkpt lat="45.5806846" lon="10.8261461"><ele>100.0</ele><time>2026-04-26T09:26:48.074Z</time></trkpt><trkpt lat="45.5807437" lon="10.826046"><ele>99.83333333333334</ele><time>2026-04-26T09:26:49.074Z</time></trkpt><trkpt lat="45.5807987" lon="10.8259502"><ele>99.66666666666667</ele><time>2026-04-26T09:26:50.075Z</time></trkpt><trkpt lat="45.5808491" lon="10.8258511"><ele>99.5</ele><time>2026-04-26T09:26:51.075Z</time></trkpt><trkpt lat="45.580896" lon="10.8257489"><ele>99.33333333333334</ele><time>2026-04-26T09:26:52.075Z</time></trkpt><trkpt lat="45.5809437" lon="10.8256552"><ele>99.16666666666667</ele><time>2026-04-26T09:26:53.075Z</time></trkpt><trkpt lat="45.5809961" lon="10.8255753"><ele>99.0</ele><time>2026-04-26T09:26:54.075Z</time></trkpt><trkpt lat="45.5810564" lon="10.8255063"><ele>99.0</ele><time>2026-04-26T09:26:55.074Z</time></trkpt><trkpt lat="45.5811145" lon="10.825427"><ele>99.0</ele><time>2026-04-26T09:26:56.075Z</time></trkpt><trkpt lat="45.5811622" lon="10.8253446"><ele>99.0</ele><time>2026-04-26T09:26:57.074Z</time></trkpt><trkpt lat="45.5812055" lon="10.8252636"><ele>99.0</ele><time>2026-04-26T09:26:58.075Z</time></trkpt><trkpt lat="45.5812833" lon="10.8251436"><ele>99.0</ele><time>2026-04-26T09:27:00.074Z</time></trkpt><trkpt lat="45.5813337" lon="10.8250751"><ele>99.0</ele><time>2026-04-26T09:27:02.074Z</time></trkpt><trkpt lat="45.5813419" lon="10.8249795"><ele>99.0</ele><time>2026-04-26T09:27:28.074Z</time></trkpt><trkpt lat="45.5813279" lon="10.8248591"><ele>99.0</ele><time>2026-04-26T09:27:30.074Z</time></trkpt><trkpt lat="45.5812604" lon="10.8246862"><ele>99.0</ele><time>2026-04-26T09:27:32.074Z</time></trkpt><trkpt lat="45.5812128" lon="10.8245815"><ele>99.0</ele><time>2026-04-26T09:27:33.075Z</time></trkpt><trkpt lat="45.5811622" lon="10.8244702"><ele>99.0</ele><time>2026-04-26T09:27:34.074Z</time></trkpt><trkpt lat="45.5811135" lon="10.8243634"><ele>99.33333333333333</ele><time>2026-04-26T09:27:35.074Z</time></trkpt><trkpt lat="45.5810614" lon="10.8242658"><ele>99.66666666666666</ele><time>2026-04-26T09:27:36.074Z</time></trkpt><trkpt lat="45.5810055" lon="10.8241813"><ele>100.0</ele><time>2026-04-26T09:27:37.075Z</time></trkpt><trkpt lat="45.5809459" lon="10.824093"><ele>100.33333333333333</ele><time>2026-04-26T09:27:38.074Z</time></trkpt><trkpt lat="45.5808822" lon="10.8239984"><ele>100.66666666666666</ele><time>2026-04-26T09:27:39.075Z</time></trkpt><trkpt lat="45.5808143" lon="10.8239073"><ele>101.0</ele><time>2026-04-26T09:27:40.075Z</time></trkpt><trkpt lat="45.580748" lon="10.8238206"><ele>100.99999999999999</ele><time>2026-04-26T09:27:41.075Z</time></trkpt><trkpt lat="45.5806797" lon="10.8237467"><ele>101.0</ele><time>2026-04-26T09:27:42.075Z</time></trkpt><trkpt lat="45.5806061" lon="10.8236798"><ele>101.0</ele><time>2026-04-26T09:27:43.074Z</time></trkpt><trkpt lat="45.5805467" lon="10.8236345"><ele>101.0</ele><time>2026-04-26T09:27:44.075Z</time></trkpt><trkpt lat="45.5804735" lon="10.8236003"><ele>100.99999999999999</ele><time>2026-04-26T09:27:45.075Z</time></trkpt><trkpt lat="45.5803875" lon="10.8235654"><ele>101.0</ele><time>2026-04-26T09:27:46.075Z</time></trkpt><trkpt lat="45.5802918" lon="10.8235308"><ele>100.6</ele><time>2026-04-26T09:27:47.074Z</time></trkpt><trkpt lat="45.5801982" lon="10.823499"><ele>100.19999999999999</ele><time>2026-04-26T09:27:48.075Z</time></trkpt><trkpt lat="45.5801068" lon="10.8234607"><ele>99.80000000000001</ele><time>2026-04-26T09:27:49.074Z</time></trkpt><trkpt lat="45.5800074" lon="10.8234233"><ele>99.4</ele><time>2026-04-26T09:27:50.075Z</time></trkpt><trkpt lat="45.5799033" lon="10.8233879"><ele>99.0</ele><time>2026-04-26T09:27:51.074Z</time></trkpt><trkpt lat="45.5798007" lon="10.8233547"><ele>99.0</ele><time>2026-04-26T09:27:52.074Z</time></trkpt><trkpt lat="45.5796987" lon="10.8233299"><ele>99.0</ele><time>2026-04-26T09:27:53.075Z</time></trkpt><trkpt lat="45.5796033" lon="10.8233174"><ele>99.0</ele><time>2026-04-26T09:27:54.074Z</time></trkpt><trkpt lat="45.5795107" lon="10.823304"><ele>99.0</ele><time>2026-04-26T09:27:55.074Z</time></trkpt><trkpt lat="45.5794125" lon="10.8232822"><ele>99.0</ele><time>2026-04-26T09:27:56.074Z</time></trkpt><trkpt lat="45.5793186" lon="10.8232577"><ele>98.4</ele><time>2026-04-26T09:27:57.074Z</time></trkpt><trkpt lat="45.5792181" lon="10.823233"><ele>97.80000000000001</ele><time>2026-04-26T09:27:58.074Z</time></trkpt><trkpt lat="45.579126" lon="10.8232106"><ele>97.19999999999999</ele><time>2026-04-26T09:27:59.075Z</time></trkpt><trkpt lat="45.5790378" lon="10.8231859"><ele>96.6</ele><time>2026-04-26T09:28:00.075Z</time></trkpt><trkpt lat="45.5789507" lon="10.823159"><ele>96.0</ele><time>2026-04-26T09:28:01.074Z</time></trkpt><trkpt lat="45.5788683" lon="10.823125"><ele>96.0</ele><time>2026-04-26T09:28:02.075Z</time></trkpt><trkpt lat="45.5787817" lon="10.8230857"><ele>96.0</ele><time>2026-04-26T09:28:03.074Z</time></trkpt><trkpt lat="45.5786989" lon="10.8230408"><ele>96.0</ele><time>2026-04-26T09:28:04.074Z</time></trkpt><trkpt lat="45.5786158" lon="10.8229911"><ele>96.0</ele><time>2026-04-26T09:28:05.074Z</time></trkpt><trkpt lat="45.5785315" lon="10.8229405"><ele>96.0</ele><time>2026-04-26T09:28:06.075Z</time></trkpt><trkpt lat="45.5784514" lon="10.8228856"><ele>96.0</ele><time>2026-04-26T09:28:07.075Z</time></trkpt><trkpt lat="45.5783763" lon="10.8228349"><ele>96.0</ele><time>2026-04-26T09:28:08.075Z</time></trkpt><trkpt lat="45.5783005" lon="10.822788"><ele>96.0</ele><time>2026-04-26T09:28:09.073Z</time></trkpt><trkpt lat="45.5782205" lon="10.8227409"><ele>96.0</ele><time>2026-04-26T09:28:10.073Z</time></trkpt><trkpt lat="45.5781404" lon="10.8226813"><ele>96.0</ele><time>2026-04-26T09:28:11.074Z</time></trkpt><trkpt lat="45.5780604" lon="10.8226165"><ele>96.0</ele><time>2026-04-26T09:28:12.074Z</time></trkpt><trkpt lat="45.5779754" lon="10.8225605"><ele>96.0</ele><time>2026-04-26T09:28:13.073Z</time></trkpt><trkpt lat="45.5778915" lon="10.8225027"><ele>96.0</ele><time>2026-04-26T09:28:14.074Z</time></trkpt><trkpt lat="45.5778051" lon="10.822453"><ele>96.0</ele><time>2026-04-26T09:28:15.073Z</time></trkpt><trkpt lat="45.5777142" lon="10.82241"><ele>96.0</ele><time>2026-04-26T09:28:16.074Z</time></trkpt><trkpt lat="45.5776234" lon="10.8223517"><ele>96.0</ele><time>2026-04-26T09:28:17.074Z</time></trkpt><trkpt lat="45.5775408" lon="10.8222811"><ele>96.0</ele><time>2026-04-26T09:28:18.073Z</time></trkpt><trkpt lat="45.5774606" lon="10.8222296"><ele>96.0</ele><time>2026-04-26T09:28:19.073Z</time></trkpt><trkpt lat="45.577381" lon="10.8221901"><ele>96.0</ele><time>2026-04-26T09:28:20.074Z</time></trkpt><trkpt lat="45.5772987" lon="10.8221747"><ele>96.0</ele><time>2026-04-26T09:28:21.074Z</time></trkpt><trkpt lat="45.5772083" lon="10.8221724"><ele>96.0</ele><time>2026-04-26T09:28:22.074Z</time></trkpt><trkpt lat="45.577111" lon="10.8221657"><ele>96.0</ele><time>2026-04-26T09:28:23.074Z</time></trkpt><trkpt lat="45.5770167" lon="10.8221507"><ele>96.4</ele><time>2026-04-26T09:28:24.074Z</time></trkpt><trkpt lat="45.5769302" lon="10.8221206"><ele>96.8</ele><time>2026-04-26T09:28:25.073Z</time></trkpt><trkpt lat="45.5768465" lon="10.8220856"><ele>97.2</ele><time>2026-04-26T09:28:26.074Z</time></trkpt><trkpt lat="45.5767589" lon="10.8220554"><ele>97.60000000000001</ele><time>2026-04-26T09:28:27.073Z</time></trkpt><trkpt lat="45.5766628" lon="10.8220332"><ele>98.0</ele><time>2026-04-26T09:28:28.074Z</time></trkpt><trkpt lat="45.5765627" lon="10.8220076"><ele>98.0</ele><time>2026-04-26T09:28:29.073Z</time></trkpt><trkpt lat="45.576453" lon="10.8219843"><ele>98.0</ele><time>2026-04-26T09:28:30.073Z</time></trkpt><trkpt lat="45.5763452" lon="10.8219607"><ele>98.0</ele><time>2026-04-26T09:28:31.073Z</time></trkpt><trkpt lat="45.5762433" lon="10.8219277"><ele>98.0</ele><time>2026-04-26T09:28:32.074Z</time></trkpt><trkpt lat="45.5761468" lon="10.8219005"><ele>98.0</ele><time>2026-04-26T09:28:33.074Z</time></trkpt><trkpt lat="45.5760606" lon="10.8218818"><ele>97.80000000000001</ele><time>2026-04-26T09:28:34.074Z</time></trkpt><trkpt lat="45.5759787" lon="10.8218636"><ele>97.6</ele><time>2026-04-26T09:28:35.074Z</time></trkpt><trkpt lat="45.5758914" lon="10.8218411"><ele>97.4</ele><time>2026-04-26T09:28:36.074Z</time></trkpt><trkpt lat="45.575801" lon="10.8218037"><ele>97.19999999999999</ele><time>2026-04-26T09:28:37.074Z</time></trkpt><trkpt lat="45.575702" lon="10.82177"><ele>97.0</ele><time>2026-04-26T09:28:38.073Z</time></trkpt><trkpt lat="45.5755978" lon="10.8217331"><ele>96.5</ele><time>2026-04-26T09:28:39.074Z</time></trkpt><trkpt lat="45.5754855" lon="10.8216814"><ele>96.0</ele><time>2026-04-26T09:28:40.074Z</time></trkpt><trkpt lat="45.5753646" lon="10.8216352"><ele>95.5</ele><time>2026-04-26T09:28:41.073Z</time></trkpt><trkpt lat="45.5752434" lon="10.8215801"><ele>95.0</ele><time>2026-04-26T09:28:42.074Z</time></trkpt><trkpt lat="45.5751367" lon="10.8215211"><ele>95.0</ele><time>2026-04-26T09:28:43.073Z</time></trkpt><trkpt lat="45.5750418" lon="10.8214738"><ele>95.0</ele><time>2026-04-26T09:28:44.074Z</time></trkpt><trkpt lat="45.5749558" lon="10.8214362"><ele>95.0</ele><time>2026-04-26T09:28:45.073Z</time></trkpt><trkpt lat="45.5748836" lon="10.8213963"><ele>95.0</ele><time>2026-04-26T09:28:46.074Z</time></trkpt><trkpt lat="45.5748071" lon="10.821356"><ele>95.0</ele><time>2026-04-26T09:28:47.074Z</time></trkpt><trkpt lat="45.574722" lon="10.8213191"><ele>95.0</ele><time>2026-04-26T09:28:48.074Z</time></trkpt><trkpt lat="45.5746282" lon="10.8212798"><ele>95.0</ele><time>2026-04-26T09:28:49.074Z</time></trkpt><trkpt lat="45.5745345" lon="10.8212526"><ele>95.0</ele><time>2026-04-26T09:28:50.074Z</time></trkpt><trkpt lat="45.5744415" lon="10.8212404"><ele>95.0</ele><time>2026-04-26T09:28:51.074Z</time></trkpt><trkpt lat="45.5743501" lon="10.8212189"><ele>95.0</ele><time>2026-04-26T09:28:52.074Z</time></trkpt><trkpt lat="45.5742596" lon="10.8211812"><ele>95.0</ele><time>2026-04-26T09:28:53.074Z</time></trkpt><trkpt lat="45.5741676" lon="10.8211264"><ele>95.0</ele><time>2026-04-26T09:28:54.073Z</time></trkpt><trkpt lat="45.5740738" lon="10.8210701"><ele>95.0</ele><time>2026-04-26T09:28:55.074Z</time></trkpt><trkpt lat="45.5739822" lon="10.8210169"><ele>95.0</ele><time>2026-04-26T09:28:56.073Z</time></trkpt><trkpt lat="45.5738763" lon="10.8209747"><ele>95.0</ele><time>2026-04-26T09:28:57.073Z</time></trkpt><trkpt lat="45.5737703" lon="10.820934"><ele>95.0</ele><time>2026-04-26T09:28:58.073Z</time></trkpt><trkpt lat="45.573669" lon="10.820896"><ele>95.6</ele><time>2026-04-26T09:28:59.074Z</time></trkpt><trkpt lat="45.5735792" lon="10.8208486"><ele>96.2</ele><time>2026-04-26T09:29:00.074Z</time></trkpt><trkpt lat="45.5734974" lon="10.820798"><ele>96.80000000000001</ele><time>2026-04-26T09:29:01.074Z</time></trkpt><trkpt lat="45.5734191" lon="10.8207521"><ele>97.4</ele><time>2026-04-26T09:29:02.074Z</time></trkpt><trkpt lat="45.573335" lon="10.8207102"><ele>98.0</ele><time>2026-04-26T09:29:03.074Z</time></trkpt><trkpt lat="45.5732489" lon="10.8206618"><ele>98.0</ele><time>2026-04-26T09:29:04.073Z</time></trkpt><trkpt lat="45.5731572" lon="10.8206168"><ele>98.0</ele><time>2026-04-26T09:29:05.074Z</time></trkpt><trkpt lat="45.5730624" lon="10.8205693"><ele>98.0</ele><time>2026-04-26T09:29:06.073Z</time></trkpt><trkpt lat="45.5729669" lon="10.8205221"><ele>98.0</ele><time>2026-04-26T09:29:07.073Z</time></trkpt><trkpt lat="45.572872" lon="10.8204693"><ele>98.0</ele><time>2026-04-26T09:29:08.074Z</time></trkpt><trkpt lat="45.5727884" lon="10.8204136"><ele>98.16666666666666</ele><time>2026-04-26T09:29:09.074Z</time></trkpt><trkpt lat="45.5726987" lon="10.8203582"><ele>98.33333333333333</ele><time>2026-04-26T09:29:10.073Z</time></trkpt><trkpt lat="45.5726115" lon="10.8203109"><ele>98.5</ele><time>2026-04-26T09:29:11.073Z</time></trkpt><trkpt lat="45.5725291" lon="10.8202632"><ele>98.66666666666666</ele><time>2026-04-26T09:29:12.073Z</time></trkpt><trkpt lat="45.5724543" lon="10.8202197"><ele>98.83333333333333</ele><time>2026-04-26T09:29:13.073Z</time></trkpt><trkpt lat="45.5723804" lon="10.8201837"><ele>99.0</ele><time>2026-04-26T09:29:14.073Z</time></trkpt><trkpt lat="45.5723145" lon="10.8201517"><ele>99.0</ele><time>2026-04-26T09:29:15.073Z</time></trkpt><trkpt lat="45.5722105" lon="10.8201139"><ele>99.0</ele><time>2026-04-26T09:29:17.074Z</time></trkpt><trkpt lat="45.5721383" lon="10.8201433"><ele>99.0</ele><time>2026-04-26T09:29:19.074Z</time></trkpt><trkpt lat="45.5720932" lon="10.8202686"><ele>99.0</ele><time>2026-04-26T09:29:21.074Z</time></trkpt><trkpt lat="45.5720719" lon="10.8203875"><ele>99.0</ele><time>2026-04-26T09:29:22.074Z</time></trkpt><trkpt lat="45.5720528" lon="10.8205395"><ele>99.0</ele><time>2026-04-26T09:29:23.074Z</time></trkpt><trkpt lat="45.5720295" lon="10.8206946"><ele>99.0</ele><time>2026-04-26T09:29:24.074Z</time></trkpt><trkpt lat="45.5720073" lon="10.8208242"><ele>99.0</ele><time>2026-04-26T09:29:25.074Z</time></trkpt><trkpt lat="45.5719886" lon="10.8209261"><ele>99.0</ele><time>2026-04-26T09:29:26.073Z</time></trkpt><trkpt lat="45.571949" lon="10.8210438"><ele>99.0</ele><time>2026-04-26T09:29:28.074Z</time></trkpt><trkpt lat="45.5718704" lon="10.8210223"><ele>98.4</ele><time>2026-04-26T09:29:30.074Z</time></trkpt><trkpt lat="45.5717865" lon="10.8209661"><ele>97.80000000000001</ele><time>2026-04-26T09:29:31.073Z</time></trkpt><trkpt lat="45.5716848" lon="10.8208988"><ele>97.19999999999999</ele><time>2026-04-26T09:29:32.074Z</time></trkpt><trkpt lat="45.5715717" lon="10.8208387"><ele>96.6</ele><time>2026-04-26T09:29:33.074Z</time></trkpt><trkpt lat="45.571457" lon="10.820784"><ele>96.0</ele><time>2026-04-26T09:29:34.074Z</time></trkpt><trkpt lat="45.5713352" lon="10.8207287"><ele>96.0</ele><time>2026-04-26T09:29:35.074Z</time></trkpt><trkpt lat="45.5712096" lon="10.8206756"><ele>96.0</ele><time>2026-04-26T09:29:36.073Z</time></trkpt><trkpt lat="45.5710883" lon="10.820622"><ele>96.0</ele><time>2026-04-26T09:29:37.074Z</time></trkpt><trkpt lat="45.570974" lon="10.8205751"><ele>96.0</ele><time>2026-04-26T09:29:38.073Z</time></trkpt><trkpt lat="45.5708622" lon="10.8205269"><ele>95.8</ele><time>2026-04-26T09:29:39.074Z</time></trkpt><trkpt lat="45.57076" lon="10.8204898"><ele>95.6</ele><time>2026-04-26T09:29:40.074Z</time></trkpt><trkpt lat="45.5706666" lon="10.8204533"><ele>95.4</ele><time>2026-04-26T09:29:41.073Z</time></trkpt><trkpt lat="45.5705661" lon="10.8204016"><ele>95.2</ele><time>2026-04-26T09:29:42.074Z</time></trkpt><trkpt lat="45.570454" lon="10.820346"><ele>95.0</ele><time>2026-04-26T09:29:43.074Z</time></trkpt><trkpt lat="45.570336" lon="10.8202955"><ele>95.0</ele><time>2026-04-26T09:29:44.073Z</time></trkpt><trkpt lat="45.5702143" lon="10.820246"><ele>95.0</ele><time>2026-04-26T09:29:45.073Z</time></trkpt><trkpt lat="45.5700986" lon="10.8202076"><ele>95.0</ele><time>2026-04-26T09:29:46.073Z</time></trkpt><trkpt lat="45.5699918" lon="10.8201715"><ele>95.0</ele><time>2026-04-26T09:29:47.074Z</time></trkpt><trkpt lat="45.5698914" lon="10.8201309"><ele>95.0</ele><time>2026-04-26T09:29:48.073Z</time></trkpt><trkpt lat="45.5697938" lon="10.8200885"><ele>95.0</ele><time>2026-04-26T09:29:49.073Z</time></trkpt><trkpt lat="45.5697014" lon="10.8200483"><ele>95.0</ele><time>2026-04-26T09:29:50.074Z</time></trkpt><trkpt lat="45.569609" lon="10.8200096"><ele>95.0</ele><time>2026-04-26T09:29:51.074Z</time></trkpt><trkpt lat="45.5695216" lon="10.8199676"><ele>95.0</ele><time>2026-04-26T09:29:52.074Z</time></trkpt><trkpt lat="45.5694459" lon="10.8199377"><ele>95.0</ele><time>2026-04-26T09:29:53.073Z</time></trkpt><trkpt lat="45.569375" lon="10.8199214"><ele>95.0</ele><time>2026-04-26T09:29:54.073Z</time></trkpt><trkpt lat="45.5692846" lon="10.8199403"><ele>95.0</ele><time>2026-04-26T09:29:56.074Z</time></trkpt><trkpt lat="45.5692411" lon="10.8200641"><ele>95.0</ele><time>2026-04-26T09:29:58.074Z</time></trkpt><trkpt lat="45.5692387" lon="10.8201578"><ele>95.0</ele><time>2026-04-26T09:29:59.074Z</time></trkpt><trkpt lat="45.5692518" lon="10.8202492"><ele>95.0</ele><time>2026-04-26T09:30:00.074Z</time></trkpt><trkpt lat="45.5692898" lon="10.8203427"><ele>95.0</ele><time>2026-04-26T09:30:01.073Z</time></trkpt><trkpt lat="45.5693516" lon="10.8204492"><ele>95.0</ele><time>2026-04-26T09:30:02.074Z</time></trkpt><trkpt lat="45.5694297" lon="10.8205709"><ele>95.0</ele><time>2026-04-26T09:30:03.074Z</time></trkpt><trkpt lat="45.569518" lon="10.8207125"><ele>95.0</ele><time>2026-04-26T09:30:04.073Z</time></trkpt><trkpt lat="45.5696041" lon="10.8208527"><ele>95.4</ele><time>2026-04-26T09:30:05.073Z</time></trkpt><trkpt lat="45.5696823" lon="10.8209966"><ele>95.8</ele><time>2026-04-26T09:30:06.074Z</time></trkpt><trkpt lat="45.5697433" lon="10.8211329"><ele>96.19999999999999</ele><time>2026-04-26T09:30:07.074Z</time></trkpt><trkpt lat="45.5697893" lon="10.8212467"><ele>96.6</ele><time>2026-04-26T09:30:08.074Z</time></trkpt><trkpt lat="45.5698298" lon="10.8213517"><ele>97.0</ele><time>2026-04-26T09:30:09.073Z</time></trkpt><trkpt lat="45.569862" lon="10.8214589"><ele>97.00000000000001</ele><time>2026-04-26T09:30:10.073Z</time></trkpt><trkpt lat="45.5698939" lon="10.8215688"><ele>97.0</ele><time>2026-04-26T09:30:11.073Z</time></trkpt><trkpt lat="45.5699161" lon="10.8216703"><ele>97.0</ele><time>2026-04-26T09:30:12.073Z</time></trkpt><trkpt lat="45.5699341" lon="10.8217616"><ele>97.0</ele><time>2026-04-26T09:30:13.074Z</time></trkpt><trkpt lat="45.5699525" lon="10.8219072"><ele>97.00000000000001</ele><time>2026-04-26T09:30:15.074Z</time></trkpt><trkpt lat="45.5699722" lon="10.822001"><ele>97.0</ele><time>2026-04-26T09:30:18.074Z</time></trkpt><trkpt lat="45.570002" lon="10.8221139"><ele>97.19999999999999</ele><time>2026-04-26T09:30:43.074Z</time></trkpt><trkpt lat="45.5700544" lon="10.8222198"><ele>97.4</ele><time>2026-04-26T09:30:45.074Z</time></trkpt><trkpt lat="45.5701604" lon="10.8222852"><ele>97.6</ele><time>2026-04-26T09:30:47.074Z</time></trkpt><trkpt lat="45.5702259" lon="10.8223209"><ele>97.80000000000001</ele><time>2026-04-26T09:30:48.074Z</time></trkpt><trkpt lat="45.5703022" lon="10.8223627"><ele>98.0</ele><time>2026-04-26T09:30:49.074Z</time></trkpt><trkpt lat="45.5703999" lon="10.8224183"><ele>98.0</ele><time>2026-04-26T09:30:50.073Z</time></trkpt><trkpt lat="45.5704956" lon="10.8224735"><ele>98.0</ele><time>2026-04-26T09:30:51.073Z</time></trkpt><trkpt lat="45.5705891" lon="10.8225205"><ele>98.0</ele><time>2026-04-26T09:30:52.074Z</time></trkpt><trkpt lat="45.5706744" lon="10.822572"><ele>98.0</ele><time>2026-04-26T09:30:53.074Z</time></trkpt><trkpt lat="45.570761" lon="10.8226204"><ele>98.0</ele><time>2026-04-26T09:30:54.074Z</time></trkpt><trkpt lat="45.5708515" lon="10.8226678"><ele>98.99999999999999</ele><time>2026-04-26T09:30:55.072Z</time></trkpt><trkpt lat="45.5709418" lon="10.8227203"><ele>100.0</ele><time>2026-04-26T09:30:56.073Z</time></trkpt><trkpt lat="45.5710274" lon="10.8227643"><ele>101.0</ele><time>2026-04-26T09:30:57.073Z</time></trkpt><trkpt lat="45.5711021" lon="10.8227998"><ele>102.0</ele><time>2026-04-26T09:30:58.073Z</time></trkpt><trkpt lat="45.5711777" lon="10.8228299"><ele>102.99999999999999</ele><time>2026-04-26T09:30:59.072Z</time></trkpt><trkpt lat="45.5712513" lon="10.8228645"><ele>104.0</ele><time>2026-04-26T09:31:00.073Z</time></trkpt><trkpt lat="45.5713225" lon="10.8229031"><ele>103.99999999999999</ele><time>2026-04-26T09:31:01.073Z</time></trkpt><trkpt lat="45.5714018" lon="10.8229457"><ele>104.0</ele><time>2026-04-26T09:31:02.073Z</time></trkpt><trkpt lat="45.5714889" lon="10.8229939"><ele>104.0</ele><time>2026-04-26T09:31:03.073Z</time></trkpt><trkpt lat="45.5715732" lon="10.8230384"><ele>104.0</ele><time>2026-04-26T09:31:04.072Z</time></trkpt><trkpt lat="45.571653" lon="10.8230765"><ele>103.99999999999999</ele><time>2026-04-26T09:31:05.072Z</time></trkpt><trkpt lat="45.5717314" lon="10.8231129"><ele>104.0</ele><time>2026-04-26T09:31:06.073Z</time></trkpt><trkpt lat="45.5718068" lon="10.8231427"><ele>103.99999999999999</ele><time>2026-04-26T09:31:07.073Z</time></trkpt><trkpt lat="45.5718761" lon="10.8231614"><ele>104.0</ele><time>2026-04-26T09:31:08.072Z</time></trkpt><trkpt lat="45.5719377" lon="10.8231836"><ele>104.0</ele><time>2026-04-26T09:31:09.073Z</time></trkpt><trkpt lat="45.5720472" lon="10.8232275"><ele>104.0</ele><time>2026-04-26T09:31:11.072Z</time></trkpt><trkpt lat="45.5721286" lon="10.8232776"><ele>103.99999999999999</ele><time>2026-04-26T09:31:13.072Z</time></trkpt><trkpt lat="45.5721877" lon="10.8233726"><ele>104.0</ele><time>2026-04-26T09:31:15.073Z</time></trkpt><trkpt lat="45.572242" lon="10.8235154"><ele>103.33333333333333</ele><time>2026-04-26T09:31:17.073Z</time></trkpt><trkpt lat="45.5722463" lon="10.8236058"><ele>102.66666666666666</ele><time>2026-04-26T09:31:18.073Z</time></trkpt><trkpt lat="45.5721907" lon="10.8237728"><ele>102.0</ele><time>2026-04-26T09:31:20.073Z</time></trkpt><trkpt lat="45.5721462" lon="10.8238474"><ele>101.33333333333334</ele><time>2026-04-26T09:31:21.072Z</time></trkpt><trkpt lat="45.5720991" lon="10.8239266"><ele>100.66666666666667</ele><time>2026-04-26T09:31:22.072Z</time></trkpt><trkpt lat="45.5720562" lon="10.8240055"><ele>100.0</ele><time>2026-04-26T09:31:23.072Z</time></trkpt><trkpt lat="45.5720227" lon="10.8240839"><ele>101.83333333333334</ele><time>2026-04-26T09:31:24.073Z</time></trkpt><trkpt lat="45.5719782" lon="10.8242124"><ele>103.66666666666667</ele><time>2026-04-26T09:31:26.073Z</time></trkpt><trkpt lat="45.5719896" lon="10.8243134"><ele>105.5</ele><time>2026-04-26T09:31:28.073Z</time></trkpt><trkpt lat="45.5719978" lon="10.8244296"><ele>107.33333333333334</ele><time>2026-04-26T09:31:31.073Z</time></trkpt><trkpt lat="45.5719333" lon="10.8244809"><ele>109.16666666666667</ele><time>2026-04-26T09:31:36.073Z</time></trkpt><trkpt lat="45.571906" lon="10.8245642"><ele>111.0</ele><time>2026-04-26T09:31:39.072Z</time></trkpt><trkpt lat="45.571885" lon="10.8246503"><ele>111.0</ele><time>2026-04-26T09:32:09.073Z</time></trkpt><trkpt lat="45.5718975" lon="10.8245382"><ele>111.0</ele><time>2026-04-26T09:32:15.073Z</time></trkpt><trkpt lat="45.5719065" lon="10.824398"><ele>111.0</ele><time>2026-04-26T09:32:17.073Z</time></trkpt><trkpt lat="45.5719219" lon="10.8242991"><ele>111.0</ele><time>2026-04-26T09:32:18.073Z</time></trkpt><trkpt lat="45.5719408" lon="10.8241809"><ele>111.0</ele><time>2026-04-26T09:32:19.072Z</time></trkpt><trkpt lat="45.5719606" lon="10.8240643"><ele>111.0</ele><time>2026-04-26T09:32:20.073Z</time></trkpt><trkpt lat="45.5719635" lon="10.8239617"><ele>111.0</ele><time>2026-04-26T09:32:21.073Z</time></trkpt><trkpt lat="45.5719088" lon="10.8238473"><ele>111.0</ele><time>2026-04-26T09:32:23.072Z</time></trkpt><trkpt lat="45.5718187" lon="10.8238316"><ele>111.0</ele><time>2026-04-26T09:32:25.073Z</time></trkpt><trkpt lat="45.5717519" lon="10.8239142"><ele>111.0</ele><time>2026-04-26T09:32:27.073Z</time></trkpt><trkpt lat="45.5717032" lon="10.8240921"><ele>111.0</ele><time>2026-04-26T09:32:29.073Z</time></trkpt><trkpt lat="45.5716965" lon="10.8242072"><ele>111.8</ele><time>2026-04-26T09:32:30.073Z</time></trkpt><trkpt lat="45.5717008" lon="10.8243358"><ele>112.6</ele><time>2026-04-26T09:32:31.072Z</time></trkpt><trkpt lat="45.5717229" lon="10.8244787"><ele>113.4</ele><time>2026-04-26T09:32:32.072Z</time></trkpt><trkpt lat="45.5717553" lon="10.8246224"><ele>114.2</ele><time>2026-04-26T09:32:33.072Z</time></trkpt><trkpt lat="45.5717868" lon="10.8247568"><ele>115.0</ele><time>2026-04-26T09:32:34.072Z</time></trkpt><trkpt lat="45.5718121" lon="10.8248925"><ele>115.00000000000001</ele><time>2026-04-26T09:32:35.073Z</time></trkpt><trkpt lat="45.5718351" lon="10.8250171"><ele>115.0</ele><time>2026-04-26T09:32:36.073Z</time></trkpt><trkpt lat="45.5718597" lon="10.8251351"><ele>115.0</ele><time>2026-04-26T09:32:37.072Z</time></trkpt><trkpt lat="45.5718817" lon="10.8252319"><ele>115.0</ele><time>2026-04-26T09:32:38.072Z</time></trkpt><trkpt lat="45.5719036" lon="10.8253663"><ele>115.00000000000001</ele><time>2026-04-26T09:32:40.073Z</time></trkpt><trkpt lat="45.5718232" lon="10.8254373"><ele>115.0</ele><time>2026-04-26T09:32:44.073Z</time></trkpt><trkpt lat="45.5716905" lon="10.8254217"><ele>115.6</ele><time>2026-04-26T09:32:46.073Z</time></trkpt><trkpt lat="45.5716126" lon="10.8254219"><ele>116.2</ele><time>2026-04-26T09:32:47.072Z</time></trkpt><trkpt lat="45.5715258" lon="10.8254244"><ele>116.80000000000001</ele><time>2026-04-26T09:32:48.072Z</time></trkpt><trkpt lat="45.5714354" lon="10.8254118"><ele>117.4</ele><time>2026-04-26T09:32:49.072Z</time></trkpt><trkpt lat="45.5712612" lon="10.8254569"><ele>118.0</ele><time>2026-04-26T09:32:50.073Z</time></trkpt><trkpt lat="45.5710954" lon="10.8255173"><ele>118.0</ele><time>2026-04-26T09:32:51.073Z</time></trkpt><trkpt lat="45.5709469" lon="10.8255837"><ele>118.0</ele><time>2026-04-26T09:32:52.072Z</time></trkpt><trkpt lat="45.5708067" lon="10.8256347"><ele>118.0</ele><time>2026-04-26T09:32:53.072Z</time></trkpt><trkpt lat="45.5706853" lon="10.8256929"><ele>118.0</ele><time>2026-04-26T09:32:54.072Z</time></trkpt><trkpt lat="45.5705827" lon="10.8257364"><ele>118.0</ele><time>2026-04-26T09:32:55.073Z</time></trkpt><trkpt lat="45.5704804" lon="10.8257813"><ele>118.00000000000001</ele><time>2026-04-26T09:32:56.072Z</time></trkpt><trkpt lat="45.5703868" lon="10.8258271"><ele>118.00000000000001</ele><time>2026-04-26T09:32:57.072Z</time></trkpt><trkpt lat="45.5703106" lon="10.8258756"><ele>118.0</ele><time>2026-04-26T09:32:58.073Z</time></trkpt><trkpt lat="45.5702351" lon="10.8259183"><ele>118.0</ele><time>2026-04-26T09:32:59.073Z</time></trkpt><trkpt lat="45.5701608" lon="10.8259684"><ele>119.16666666666667</ele><time>2026-04-26T09:33:00.072Z</time></trkpt><trkpt lat="45.5700913" lon="10.8260327"><ele>120.33333333333334</ele><time>2026-04-26T09:33:01.072Z</time></trkpt><trkpt lat="45.5700183" lon="10.8260957"><ele>121.5</ele><time>2026-04-26T09:33:02.072Z</time></trkpt><trkpt lat="45.5699456" lon="10.8261569"><ele>122.66666666666666</ele><time>2026-04-26T09:33:03.073Z</time></trkpt><trkpt lat="45.5698705" lon="10.8262133"><ele>123.83333333333333</ele><time>2026-04-26T09:33:04.072Z</time></trkpt><trkpt lat="45.5697981" lon="10.8262727"><ele>125.0</ele><time>2026-04-26T09:33:05.073Z</time></trkpt><trkpt lat="45.5697281" lon="10.8263425"><ele>124.99999999999999</ele><time>2026-04-26T09:33:06.073Z</time></trkpt><trkpt lat="45.5696628" lon="10.8264163"><ele>125.0</ele><time>2026-04-26T09:33:07.072Z</time></trkpt><trkpt lat="45.5696087" lon="10.8264715"><ele>125.0</ele><time>2026-04-26T09:33:08.072Z</time></trkpt><trkpt lat="45.5695277" lon="10.8265709"><ele>125.0</ele><time>2026-04-26T09:33:10.073Z</time></trkpt><trkpt lat="45.5694255" lon="10.8266429"><ele>124.99999999999999</ele><time>2026-04-26T09:33:12.072Z</time></trkpt><trkpt lat="45.5693554" lon="10.8266819"><ele>125.0</ele><time>2026-04-26T09:33:13.073Z</time></trkpt><trkpt lat="45.5692578" lon="10.8267222"><ele>124.5</ele><time>2026-04-26T09:33:14.072Z</time></trkpt><trkpt lat="45.569136" lon="10.8267558"><ele>124.0</ele><time>2026-04-26T09:33:15.073Z</time></trkpt><trkpt lat="45.5690045" lon="10.8268018"><ele>123.5</ele><time>2026-04-26T09:33:16.072Z</time></trkpt><trkpt lat="45.5688635" lon="10.8268431"><ele>123.0</ele><time>2026-04-26T09:33:17.073Z</time></trkpt><trkpt lat="45.5687173" lon="10.8268801"><ele>137.33333333333334</ele><time>2026-04-26T09:33:18.072Z</time></trkpt><trkpt lat="45.5685698" lon="10.8269028"><ele>151.66666666666669</ele><time>2026-04-26T09:33:19.072Z</time></trkpt><trkpt lat="45.5684162" lon="10.826914"><ele>166.0</ele><time>2026-04-26T09:33:20.072Z</time></trkpt><trkpt lat="45.568265" lon="10.8269146"><ele>166.0</ele><time>2026-04-26T09:33:21.073Z</time></trkpt><trkpt lat="45.5681174" lon="10.8268965"><ele>166.0</ele><time>2026-04-26T09:33:22.073Z</time></trkpt><trkpt lat="45.5679773" lon="10.8268538"><ele>166.0</ele><time>2026-04-26T09:33:23.073Z</time></trkpt><trkpt lat="45.5678568" lon="10.8267807"><ele>166.0</ele><time>2026-04-26T09:33:24.073Z</time></trkpt><trkpt lat="45.5677407" lon="10.8266829"><ele>166.0</ele><time>2026-04-26T09:33:25.073Z</time></trkpt><trkpt lat="45.5676171" lon="10.8265934"><ele>166.0</ele><time>2026-04-26T09:33:26.073Z</time></trkpt><trkpt lat="45.5674832" lon="10.826513"><ele>166.0</ele><time>2026-04-26T09:33:27.072Z</time></trkpt><trkpt lat="45.5673362" lon="10.8264605"><ele>166.0</ele><time>2026-04-26T09:33:28.073Z</time></trkpt><trkpt lat="45.5671796" lon="10.8264219"><ele>191.0</ele><time>2026-04-26T09:33:29.073Z</time></trkpt><trkpt lat="45.5670192" lon="10.8263882"><ele>216.0</ele><time>2026-04-26T09:33:30.073Z</time></trkpt><trkpt lat="45.5668515" lon="10.8263366"><ele>241.0</ele><time>2026-04-26T09:33:31.072Z</time></trkpt><trkpt lat="45.5666796" lon="10.8262806"><ele>241.0</ele><time>2026-04-26T09:33:32.073Z</time></trkpt><trkpt lat="45.5665042" lon="10.8262232"><ele>241.0</ele><time>2026-04-26T09:33:33.073Z</time></trkpt><trkpt lat="45.5663253" lon="10.8261708"><ele>241.0</ele><time>2026-04-26T09:33:34.073Z</time></trkpt><trkpt lat="45.5661434" lon="10.8261264"><ele>234.0</ele><time>2026-04-26T09:33:35.073Z</time></trkpt><trkpt lat="45.5659596" lon="10.8260871"><ele>227.0</ele><time>2026-04-26T09:33:36.073Z</time></trkpt><trkpt lat="45.5657623" lon="10.8259677"><ele>220.0</ele><time>2026-04-26T09:33:37.073Z</time></trkpt><trkpt lat="45.5655815" lon="10.8259034"><ele>199.25</ele><time>2026-04-26T09:33:38.072Z</time></trkpt><trkpt lat="45.5654132" lon="10.8258595"><ele>178.5</ele><time>2026-04-26T09:33:39.073Z</time></trkpt><trkpt lat="45.5652846" lon="10.8259095"><ele>157.75</ele><time>2026-04-26T09:33:40.072Z</time></trkpt><trkpt lat="45.565151" lon="10.8259182"><ele>137.0</ele><time>2026-04-26T09:33:41.071Z</time></trkpt><trkpt lat="45.56501" lon="10.8259112"><ele>137.0</ele><time>2026-04-26T09:33:42.072Z</time></trkpt><trkpt lat="45.5648627" lon="10.8259132"><ele>137.0</ele><time>2026-04-26T09:33:43.072Z</time></trkpt><trkpt lat="45.5647096" lon="10.8258981"><ele>137.0</ele><time>2026-04-26T09:33:44.071Z</time></trkpt><trkpt lat="45.5645546" lon="10.8258851"><ele>128.66666666666666</ele><time>2026-04-26T09:33:45.072Z</time></trkpt><trkpt lat="45.5643956" lon="10.8258765"><ele>120.33333333333334</ele><time>2026-04-26T09:33:46.072Z</time></trkpt><trkpt lat="45.5642409" lon="10.8258766"><ele>112.0</ele><time>2026-04-26T09:33:47.071Z</time></trkpt><trkpt lat="45.5640912" lon="10.8258853"><ele>112.0</ele><time>2026-04-26T09:33:48.072Z</time></trkpt><trkpt lat="45.5639426" lon="10.8259082"><ele>112.0</ele><time>2026-04-26T09:33:49.072Z</time></trkpt><trkpt lat="45.5637969" lon="10.8259566"><ele>112.0</ele><time>2026-04-26T09:33:50.071Z</time></trkpt><trkpt lat="45.5636523" lon="10.8260168"><ele>114.5</ele><time>2026-04-26T09:33:51.072Z</time></trkpt><trkpt lat="45.5635096" lon="10.8260736"><ele>117.0</ele><time>2026-04-26T09:33:52.072Z</time></trkpt><trkpt lat="45.5633721" lon="10.8261376"><ele>119.5</ele><time>2026-04-26T09:33:53.072Z</time></trkpt><trkpt lat="45.5632361" lon="10.8262103"><ele>122.0</ele><time>2026-04-26T09:33:54.072Z</time></trkpt><trkpt lat="45.5631066" lon="10.826301"><ele>122.0</ele><time>2026-04-26T09:33:55.072Z</time></trkpt><trkpt lat="45.5629792" lon="10.8263893"><ele>122.0</ele><time>2026-04-26T09:33:56.071Z</time></trkpt><trkpt lat="45.5628546" lon="10.8264792"><ele>122.0</ele><time>2026-04-26T09:33:57.071Z</time></trkpt><trkpt lat="45.5627378" lon="10.8265984"><ele>122.0</ele><time>2026-04-26T09:33:58.072Z</time></trkpt><trkpt lat="45.5626234" lon="10.8267439"><ele>113.66666666666666</ele><time>2026-04-26T09:33:59.071Z</time></trkpt><trkpt lat="45.5625162" lon="10.8269088"><ele>105.33333333333334</ele><time>2026-04-26T09:34:00.072Z</time></trkpt><trkpt lat="45.5624116" lon="10.8270955"><ele>97.0</ele><time>2026-04-26T09:34:01.072Z</time></trkpt><trkpt lat="45.562303" lon="10.8272843"><ele>97.0</ele><time>2026-04-26T09:34:02.072Z</time></trkpt><trkpt lat="45.5621818" lon="10.8274589"><ele>97.0</ele><time>2026-04-26T09:34:03.072Z</time></trkpt><trkpt lat="45.5620579" lon="10.8276335"><ele>97.0</ele><time>2026-04-26T09:34:04.072Z</time></trkpt><trkpt lat="45.5619248" lon="10.8277806"><ele>104.0</ele><time>2026-04-26T09:34:05.071Z</time></trkpt><trkpt lat="45.5617831" lon="10.8279164"><ele>111.0</ele><time>2026-04-26T09:34:06.072Z</time></trkpt><trkpt lat="45.5616456" lon="10.8280574"><ele>118.0</ele><time>2026-04-26T09:34:07.071Z</time></trkpt><trkpt lat="45.5615198" lon="10.8282279"><ele>118.0</ele><time>2026-04-26T09:34:08.071Z</time></trkpt><trkpt lat="45.5613995" lon="10.8284089"><ele>118.0</ele><time>2026-04-26T09:34:09.072Z</time></trkpt><trkpt lat="45.561277" lon="10.8285876"><ele>118.0</ele><time>2026-04-26T09:34:10.072Z</time></trkpt><trkpt lat="45.5611481" lon="10.8287508"><ele>118.0</ele><time>2026-04-26T09:34:11.071Z</time></trkpt><trkpt lat="45.5610183" lon="10.8289201"><ele>118.0</ele><time>2026-04-26T09:34:12.072Z</time></trkpt><trkpt lat="45.5608959" lon="10.8290953"><ele>118.0</ele><time>2026-04-26T09:34:13.071Z</time></trkpt><trkpt lat="45.5607863" lon="10.8292791"><ele>118.0</ele><time>2026-04-26T09:34:14.072Z</time></trkpt><trkpt lat="45.5606869" lon="10.8294629"><ele>118.0</ele><time>2026-04-26T09:34:15.072Z</time></trkpt><trkpt lat="45.5605847" lon="10.8296476"><ele>118.0</ele><time>2026-04-26T09:34:16.072Z</time></trkpt><trkpt lat="45.5604772" lon="10.8298326"><ele>118.0</ele><time>2026-04-26T09:34:17.072Z</time></trkpt><trkpt lat="45.5603663" lon="10.830005"><ele>118.0</ele><time>2026-04-26T09:34:18.071Z</time></trkpt><trkpt lat="45.5602504" lon="10.8301771"><ele>118.0</ele><time>2026-04-26T09:34:19.071Z</time></trkpt><trkpt lat="45.5601339" lon="10.8303459"><ele>118.0</ele><time>2026-04-26T09:34:20.072Z</time></trkpt><trkpt lat="45.5600112" lon="10.8305004"><ele>118.0</ele><time>2026-04-26T09:34:21.072Z</time></trkpt><trkpt lat="45.5598786" lon="10.8306352"><ele>118.0</ele><time>2026-04-26T09:34:22.072Z</time></trkpt><trkpt lat="45.5597332" lon="10.8307469"><ele>145.0</ele><time>2026-04-26T09:34:23.072Z</time></trkpt><trkpt lat="45.5595784" lon="10.8308548"><ele>172.0</ele><time>2026-04-26T09:34:24.071Z</time></trkpt><trkpt lat="45.5594159" lon="10.8309667"><ele>199.0</ele><time>2026-04-26T09:34:25.072Z</time></trkpt><trkpt lat="45.559254" lon="10.8310769"><ele>199.0</ele><time>2026-04-26T09:34:26.072Z</time></trkpt><trkpt lat="45.5590876" lon="10.8311745"><ele>199.0</ele><time>2026-04-26T09:34:27.071Z</time></trkpt><trkpt lat="45.5589202" lon="10.831254"><ele>199.0</ele><time>2026-04-26T09:34:28.072Z</time></trkpt><trkpt lat="45.5587539" lon="10.8313469"><ele>205.66666666666666</ele><time>2026-04-26T09:34:29.072Z</time></trkpt><trkpt lat="45.5585956" lon="10.8314558"><ele>212.33333333333331</ele><time>2026-04-26T09:34:30.072Z</time></trkpt><trkpt lat="45.558426" lon="10.8315605"><ele>219.0</ele><time>2026-04-26T09:34:31.071Z</time></trkpt><trkpt lat="45.5582632" lon="10.8316573"><ele>219.0</ele><time>2026-04-26T09:34:32.072Z</time></trkpt><trkpt lat="45.5580987" lon="10.8317317"><ele>219.0</ele><time>2026-04-26T09:34:33.071Z</time></trkpt><trkpt lat="45.5579312" lon="10.8317801"><ele>219.0</ele><time>2026-04-26T09:34:34.071Z</time></trkpt><trkpt lat="45.5577603" lon="10.8318115"><ele>218.33333333333331</ele><time>2026-04-26T09:34:35.071Z</time></trkpt><trkpt lat="45.5575796" lon="10.8318196"><ele>217.66666666666666</ele><time>2026-04-26T09:34:36.071Z</time></trkpt><trkpt lat="45.5573887" lon="10.8318097"><ele>217.0</ele><time>2026-04-26T09:34:37.071Z</time></trkpt><trkpt lat="45.5572029" lon="10.8317741"><ele>206.0</ele><time>2026-04-26T09:34:38.072Z</time></trkpt><trkpt lat="45.5570346" lon="10.8317173"><ele>195.0</ele><time>2026-04-26T09:34:39.072Z</time></trkpt><trkpt lat="45.5568612" lon="10.8316593"><ele>184.0</ele><time>2026-04-26T09:34:40.072Z</time></trkpt><trkpt lat="45.5566849" lon="10.8316063"><ele>184.0</ele><time>2026-04-26T09:34:41.071Z</time></trkpt><trkpt lat="45.5565034" lon="10.8315665"><ele>184.0</ele><time>2026-04-26T09:34:42.072Z</time></trkpt><trkpt lat="45.5563196" lon="10.8315359"><ele>184.0</ele><time>2026-04-26T09:34:43.071Z</time></trkpt><trkpt lat="45.5561286" lon="10.8314845"><ele>201.33333333333334</ele><time>2026-04-26T09:34:44.072Z</time></trkpt><trkpt lat="45.5559495" lon="10.8314102"><ele>218.66666666666669</ele><time>2026-04-26T09:34:45.071Z</time></trkpt><trkpt lat="45.5557784" lon="10.8313189"><ele>236.0</ele><time>2026-04-26T09:34:46.072Z</time></trkpt><trkpt lat="45.5556153" lon="10.8312169"><ele>236.0</ele><time>2026-04-26T09:34:47.071Z</time></trkpt><trkpt lat="45.555455" lon="10.8311094"><ele>236.0</ele><time>2026-04-26T09:34:48.071Z</time></trkpt><trkpt lat="45.5553028" lon="10.8309859"><ele>236.0</ele><time>2026-04-26T09:34:49.071Z</time></trkpt><trkpt lat="45.5551629" lon="10.8308397"><ele>188.33333333333334</ele><time>2026-04-26T09:34:50.072Z</time></trkpt><trkpt lat="45.5550328" lon="10.830687"><ele>140.66666666666669</ele><time>2026-04-26T09:34:51.072Z</time></trkpt><trkpt lat="45.5548977" lon="10.8305354"><ele>93.0</ele><time>2026-04-26T09:34:52.072Z</time></trkpt><trkpt lat="45.5547515" lon="10.8303851"><ele>93.0</ele><time>2026-04-26T09:34:53.072Z</time></trkpt><trkpt lat="45.5545981" lon="10.8302448"><ele>93.0</ele><time>2026-04-26T09:34:54.072Z</time></trkpt><trkpt lat="45.5544376" lon="10.8301076"><ele>93.0</ele><time>2026-04-26T09:34:55.071Z</time></trkpt><trkpt lat="45.5542716" lon="10.8300033"><ele>95.66666666666666</ele><time>2026-04-26T09:34:56.072Z</time></trkpt><trkpt lat="45.5540966" lon="10.8299066"><ele>98.33333333333333</ele><time>2026-04-26T09:34:57.071Z</time></trkpt><trkpt lat="45.5539146" lon="10.829819"><ele>101.0</ele><time>2026-04-26T09:34:58.072Z</time></trkpt><trkpt lat="45.5537326" lon="10.8297334"><ele>105.33333333333333</ele><time>2026-04-26T09:34:59.072Z</time></trkpt><trkpt lat="45.5535556" lon="10.8296841"><ele>109.66666666666666</ele><time>2026-04-26T09:35:00.071Z</time></trkpt><trkpt lat="45.5533743" lon="10.8296278"><ele>114.0</ele><time>2026-04-26T09:35:01.072Z</time></trkpt><trkpt lat="45.5531971" lon="10.8295632"><ele>114.0</ele><time>2026-04-26T09:35:02.071Z</time></trkpt><trkpt lat="45.5530243" lon="10.8294755"><ele>114.0</ele><time>2026-04-26T09:35:03.072Z</time></trkpt><trkpt lat="45.5528591" lon="10.8293738"><ele>114.0</ele><time>2026-04-26T09:35:04.072Z</time></trkpt><trkpt lat="45.5527011" lon="10.8292577"><ele>110.66666666666666</ele><time>2026-04-26T09:35:05.072Z</time></trkpt><trkpt lat="45.5525416" lon="10.8291121"><ele>107.33333333333333</ele><time>2026-04-26T09:35:06.072Z</time></trkpt><trkpt lat="45.5523928" lon="10.8289586"><ele>104.0</ele><time>2026-04-26T09:35:07.071Z</time></trkpt><trkpt lat="45.5522442" lon="10.8287977"><ele>104.0</ele><time>2026-04-26T09:35:08.072Z</time></trkpt><trkpt lat="45.5521001" lon="10.8286315"><ele>104.0</ele><time>2026-04-26T09:35:09.071Z</time></trkpt><trkpt lat="45.5519558" lon="10.8284625"><ele>104.0</ele><time>2026-04-26T09:35:10.071Z</time></trkpt><trkpt lat="45.551815" lon="10.8282784"><ele>110.0</ele><time>2026-04-26T09:35:11.072Z</time></trkpt><trkpt lat="45.5516739" lon="10.8281091"><ele>116.0</ele><time>2026-04-26T09:35:12.072Z</time></trkpt><trkpt lat="45.5515459" lon="10.8279429"><ele>122.0</ele><time>2026-04-26T09:35:13.071Z</time></trkpt><trkpt lat="45.5514265" lon="10.8277736"><ele>115.66666666666666</ele><time>2026-04-26T09:35:14.071Z</time></trkpt><trkpt lat="45.5513205" lon="10.8275861"><ele>109.33333333333334</ele><time>2026-04-26T09:35:15.072Z</time></trkpt><trkpt lat="45.5512164" lon="10.8273954"><ele>103.0</ele><time>2026-04-26T09:35:16.071Z</time></trkpt><trkpt lat="45.5511088" lon="10.8271986"><ele>103.0</ele><time>2026-04-26T09:35:17.072Z</time></trkpt><trkpt lat="45.5509948" lon="10.8269859"><ele>103.0</ele><time>2026-04-26T09:35:18.072Z</time></trkpt><trkpt lat="45.55088" lon="10.8267847"><ele>103.0</ele><time>2026-04-26T09:35:19.071Z</time></trkpt><trkpt lat="45.5507647" lon="10.8265911"><ele>99.33333333333334</ele><time>2026-04-26T09:35:20.071Z</time></trkpt><trkpt lat="45.5506543" lon="10.8263929"><ele>95.66666666666667</ele><time>2026-04-26T09:35:21.072Z</time></trkpt><trkpt lat="45.5505455" lon="10.8261964"><ele>92.0</ele><time>2026-04-26T09:35:22.072Z</time></trkpt><trkpt lat="45.550436" lon="10.8260026"><ele>93.0</ele><time>2026-04-26T09:35:23.071Z</time></trkpt><trkpt lat="45.5503251" lon="10.8258143"><ele>94.0</ele><time>2026-04-26T09:35:24.072Z</time></trkpt><trkpt lat="45.5502172" lon="10.8256386"><ele>95.0</ele><time>2026-04-26T09:35:25.071Z</time></trkpt><trkpt lat="45.5501155" lon="10.825476"><ele>95.0</ele><time>2026-04-26T09:35:26.072Z</time></trkpt><trkpt lat="45.5500194" lon="10.8253281"><ele>95.0</ele><time>2026-04-26T09:35:27.072Z</time></trkpt><trkpt lat="45.5499185" lon="10.8251796"><ele>95.0</ele><time>2026-04-26T09:35:28.071Z</time></trkpt><trkpt lat="45.549808" lon="10.8250439"><ele>95.0</ele><time>2026-04-26T09:35:29.072Z</time></trkpt><trkpt lat="45.5496925" lon="10.8249186"><ele>94.5</ele><time>2026-04-26T09:35:30.071Z</time></trkpt><trkpt lat="45.5495771" lon="10.8247994"><ele>94.0</ele><time>2026-04-26T09:35:31.072Z</time></trkpt><trkpt lat="45.5494633" lon="10.824678"><ele>93.5</ele><time>2026-04-26T09:35:32.071Z</time></trkpt><trkpt lat="45.5493573" lon="10.8245566"><ele>93.0</ele><time>2026-04-26T09:35:33.071Z</time></trkpt><trkpt lat="45.5492509" lon="10.8244446"><ele>93.75</ele><time>2026-04-26T09:35:34.072Z</time></trkpt><trkpt lat="45.549138" lon="10.8243316"><ele>94.5</ele><time>2026-04-26T09:35:35.072Z</time></trkpt><trkpt lat="45.5490243" lon="10.8242094"><ele>95.25</ele><time>2026-04-26T09:35:36.072Z</time></trkpt><trkpt lat="45.5489067" lon="10.8240847"><ele>96.0</ele><time>2026-04-26T09:35:37.071Z</time></trkpt><trkpt lat="45.5487894" lon="10.8239587"><ele>96.0</ele><time>2026-04-26T09:35:38.072Z</time></trkpt><trkpt lat="45.5486724" lon="10.8238427"><ele>96.0</ele><time>2026-04-26T09:35:39.072Z</time></trkpt><trkpt lat="45.5485482" lon="10.823745"><ele>96.0</ele><time>2026-04-26T09:35:40.072Z</time></trkpt><trkpt lat="45.5484244" lon="10.8236554"><ele>96.0</ele><time>2026-04-26T09:35:41.072Z</time></trkpt><trkpt lat="45.5483084" lon="10.8235708"><ele>96.0</ele><time>2026-04-26T09:35:42.071Z</time></trkpt><trkpt lat="45.5481887" lon="10.8234972"><ele>96.0</ele><time>2026-04-26T09:35:43.071Z</time></trkpt><trkpt lat="45.5480704" lon="10.8234306"><ele>96.0</ele><time>2026-04-26T09:35:44.072Z</time></trkpt><trkpt lat="45.5479562" lon="10.8233765"><ele>96.0</ele><time>2026-04-26T09:35:45.071Z</time></trkpt><trkpt lat="45.5478456" lon="10.8233222"><ele>96.75</ele><time>2026-04-26T09:35:46.071Z</time></trkpt><trkpt lat="45.5477345" lon="10.823273"><ele>97.5</ele><time>2026-04-26T09:35:47.072Z</time></trkpt><trkpt lat="45.5476181" lon="10.8232288"><ele>98.25</ele><time>2026-04-26T09:35:48.071Z</time></trkpt><trkpt lat="45.5474973" lon="10.8231953"><ele>99.0</ele><time>2026-04-26T09:35:49.072Z</time></trkpt><trkpt lat="45.5473716" lon="10.8231658"><ele>99.0</ele><time>2026-04-26T09:35:50.072Z</time></trkpt><trkpt lat="45.5472469" lon="10.8231408"><ele>99.0</ele><time>2026-04-26T09:35:51.071Z</time></trkpt><trkpt lat="45.5471361" lon="10.8231205"><ele>99.0</ele><time>2026-04-26T09:35:52.072Z</time></trkpt><trkpt lat="45.5470236" lon="10.8231009"><ele>99.0</ele><time>2026-04-26T09:35:53.071Z</time></trkpt><trkpt lat="45.5469087" lon="10.8230812"><ele>100.25</ele><time>2026-04-26T09:35:54.072Z</time></trkpt><trkpt lat="45.5467956" lon="10.8230657"><ele>101.5</ele><time>2026-04-26T09:35:55.072Z</time></trkpt><trkpt lat="45.546679" lon="10.8230553"><ele>102.75</ele><time>2026-04-26T09:35:56.071Z</time></trkpt><trkpt lat="45.5465664" lon="10.8230457"><ele>104.0</ele><time>2026-04-26T09:35:57.072Z</time></trkpt><trkpt lat="45.546456" lon="10.8230364"><ele>104.0</ele><time>2026-04-26T09:35:58.071Z</time></trkpt><trkpt lat="45.5463462" lon="10.8230241"><ele>104.0</ele><time>2026-04-26T09:35:59.071Z</time></trkpt><trkpt lat="45.5462338" lon="10.8230189"><ele>104.0</ele><time>2026-04-26T09:36:00.072Z</time></trkpt><trkpt lat="45.5461183" lon="10.8230069"><ele>104.0</ele><time>2026-04-26T09:36:01.072Z</time></trkpt><trkpt lat="45.5460042" lon="10.8229897"><ele>104.0</ele><time>2026-04-26T09:36:02.072Z</time></trkpt><trkpt lat="45.5458868" lon="10.8229754"><ele>104.0</ele><time>2026-04-26T09:36:03.071Z</time></trkpt><trkpt lat="45.545768" lon="10.8229642"><ele>104.0</ele><time>2026-04-26T09:36:04.071Z</time></trkpt><trkpt lat="45.5456513" lon="10.8229529"><ele>104.0</ele><time>2026-04-26T09:36:05.071Z</time></trkpt><trkpt lat="45.5455279" lon="10.8229453"><ele>104.0</ele><time>2026-04-26T09:36:06.071Z</time></trkpt><trkpt lat="45.5454042" lon="10.8229408"><ele>104.0</ele><time>2026-04-26T09:36:07.072Z</time></trkpt><trkpt lat="45.5452832" lon="10.822933"><ele>104.0</ele><time>2026-04-26T09:36:08.072Z</time></trkpt><trkpt lat="45.5451625" lon="10.8229262"><ele>104.0</ele><time>2026-04-26T09:36:09.072Z</time></trkpt><trkpt lat="45.5450342" lon="10.8229198"><ele>104.5</ele><time>2026-04-26T09:36:10.071Z</time></trkpt><trkpt lat="45.5449003" lon="10.8229083"><ele>105.0</ele><time>2026-04-26T09:36:11.071Z</time></trkpt><trkpt lat="45.5447652" lon="10.8229056"><ele>105.5</ele><time>2026-04-26T09:36:12.071Z</time></trkpt><trkpt lat="45.5446335" lon="10.8228935"><ele>106.0</ele><time>2026-04-26T09:36:13.072Z</time></trkpt><trkpt lat="45.5445063" lon="10.8228797"><ele>106.75</ele><time>2026-04-26T09:36:14.072Z</time></trkpt><trkpt lat="45.5443794" lon="10.8228641"><ele>107.5</ele><time>2026-04-26T09:36:15.072Z</time></trkpt><trkpt lat="45.5442593" lon="10.8228495"><ele>108.25</ele><time>2026-04-26T09:36:16.072Z</time></trkpt><trkpt lat="45.5441343" lon="10.8228407"><ele>109.0</ele><time>2026-04-26T09:36:17.072Z</time></trkpt><trkpt lat="45.5440062" lon="10.8228306"><ele>109.0</ele><time>2026-04-26T09:36:18.072Z</time></trkpt><trkpt lat="45.5438782" lon="10.822823"><ele>109.0</ele><time>2026-04-26T09:36:19.071Z</time></trkpt><trkpt lat="45.543751" lon="10.8228177"><ele>109.0</ele><time>2026-04-26T09:36:20.072Z</time></trkpt><trkpt lat="45.5436265" lon="10.8228078"><ele>109.0</ele><time>2026-04-26T09:36:21.071Z</time></trkpt><trkpt lat="45.5435006" lon="10.8227949"><ele>109.25</ele><time>2026-04-26T09:36:22.071Z</time></trkpt><trkpt lat="45.5433743" lon="10.8227888"><ele>109.5</ele><time>2026-04-26T09:36:23.072Z</time></trkpt><trkpt lat="45.5432507" lon="10.8227785"><ele>109.75</ele><time>2026-04-26T09:36:24.072Z</time></trkpt><trkpt lat="45.5431364" lon="10.822773"><ele>110.0</ele><time>2026-04-26T09:36:25.071Z</time></trkpt><trkpt lat="45.543022" lon="10.8227611"><ele>110.0</ele><time>2026-04-26T09:36:26.071Z</time></trkpt><trkpt lat="45.5428995" lon="10.8227444"><ele>110.0</ele><time>2026-04-26T09:36:27.071Z</time></trkpt><trkpt lat="45.542779" lon="10.8227146"><ele>110.0</ele><time>2026-04-26T09:36:28.072Z</time></trkpt><trkpt lat="45.542651" lon="10.8226856"><ele>110.0</ele><time>2026-04-26T09:36:29.072Z</time></trkpt><trkpt lat="45.5425234" lon="10.822659"><ele>110.5</ele><time>2026-04-26T09:36:30.072Z</time></trkpt><trkpt lat="45.5423936" lon="10.8226286"><ele>111.0</ele><time>2026-04-26T09:36:31.071Z</time></trkpt><trkpt lat="45.5422641" lon="10.8225834"><ele>111.5</ele><time>2026-04-26T09:36:32.071Z</time></trkpt><trkpt lat="45.542119" lon="10.8225314"><ele>112.0</ele><time>2026-04-26T09:36:33.071Z</time></trkpt><trkpt lat="45.5419756" lon="10.8224667"><ele>112.33333333333334</ele><time>2026-04-26T09:36:34.071Z</time></trkpt><trkpt lat="45.5418293" lon="10.8224009"><ele>112.66666666666666</ele><time>2026-04-26T09:36:35.071Z</time></trkpt><trkpt lat="45.5416801" lon="10.8223331"><ele>113.0</ele><time>2026-04-26T09:36:36.071Z</time></trkpt><trkpt lat="45.5415451" lon="10.8222625"><ele>113.0</ele><time>2026-04-26T09:36:37.07Z</time></trkpt><trkpt lat="45.5414081" lon="10.8221877"><ele>113.0</ele><time>2026-04-26T09:36:38.071Z</time></trkpt><trkpt lat="45.5412704" lon="10.8221117"><ele>113.0</ele><time>2026-04-26T09:36:39.07Z</time></trkpt><trkpt lat="45.5411361" lon="10.8220409"><ele>113.0</ele><time>2026-04-26T09:36:40.071Z</time></trkpt><trkpt lat="45.5410079" lon="10.8219675"><ele>113.25</ele><time>2026-04-26T09:36:41.07Z</time></trkpt><trkpt lat="45.5408865" lon="10.8219014"><ele>113.5</ele><time>2026-04-26T09:36:42.071Z</time></trkpt><trkpt lat="45.5407637" lon="10.8218366"><ele>113.75</ele><time>2026-04-26T09:36:43.071Z</time></trkpt><trkpt lat="45.5406464" lon="10.8217771"><ele>114.0</ele><time>2026-04-26T09:36:44.07Z</time></trkpt><trkpt lat="45.5405304" lon="10.8217201"><ele>114.25</ele><time>2026-04-26T09:36:45.071Z</time></trkpt><trkpt lat="45.5404169" lon="10.8216612"><ele>114.5</ele><time>2026-04-26T09:36:46.071Z</time></trkpt><trkpt lat="45.5403029" lon="10.8216026"><ele>114.75</ele><time>2026-04-26T09:36:47.07Z</time></trkpt><trkpt lat="45.5401881" lon="10.8215392"><ele>115.0</ele><time>2026-04-26T09:36:48.07Z</time></trkpt><trkpt lat="45.5400683" lon="10.821476"><ele>114.25</ele><time>2026-04-26T09:36:49.071Z</time></trkpt><trkpt lat="45.5399428" lon="10.8214101"><ele>113.5</ele><time>2026-04-26T09:36:50.07Z</time></trkpt><trkpt lat="45.5398115" lon="10.8213365"><ele>112.75</ele><time>2026-04-26T09:36:51.071Z</time></trkpt><trkpt lat="45.5396899" lon="10.8212573"><ele>112.0</ele><time>2026-04-26T09:36:52.07Z</time></trkpt><trkpt lat="45.5395671" lon="10.8211909"><ele>112.25</ele><time>2026-04-26T09:36:53.07Z</time></trkpt><trkpt lat="45.5394483" lon="10.8211349"><ele>112.5</ele><time>2026-04-26T09:36:54.07Z</time></trkpt><trkpt lat="45.5393317" lon="10.8210757"><ele>112.75</ele><time>2026-04-26T09:36:55.07Z</time></trkpt><trkpt lat="45.539214" lon="10.821014"><ele>113.0</ele><time>2026-04-26T09:36:56.071Z</time></trkpt><trkpt lat="45.5390966" lon="10.8209523"><ele>112.5</ele><time>2026-04-26T09:36:57.071Z</time></trkpt><trkpt lat="45.538972" lon="10.8208866"><ele>112.0</ele><time>2026-04-26T09:36:58.071Z</time></trkpt><trkpt lat="45.5388443" lon="10.820824"><ele>111.5</ele><time>2026-04-26T09:36:59.07Z</time></trkpt><trkpt lat="45.5387186" lon="10.8207528"><ele>111.0</ele><time>2026-04-26T09:37:00.071Z</time></trkpt><trkpt lat="45.5385921" lon="10.8206764"><ele>111.0</ele><time>2026-04-26T09:37:01.071Z</time></trkpt><trkpt lat="45.5384664" lon="10.8205909"><ele>111.0</ele><time>2026-04-26T09:37:02.071Z</time></trkpt><trkpt lat="45.5383439" lon="10.8204997"><ele>111.0</ele><time>2026-04-26T09:37:03.071Z</time></trkpt><trkpt lat="45.5382222" lon="10.8204035"><ele>111.0</ele><time>2026-04-26T09:37:04.071Z</time></trkpt><trkpt lat="45.5381019" lon="10.8203028"><ele>111.0</ele><time>2026-04-26T09:37:05.07Z</time></trkpt><trkpt lat="45.5379806" lon="10.8202015"><ele>111.0</ele><time>2026-04-26T09:37:06.07Z</time></trkpt><trkpt lat="45.5378589" lon="10.820106"><ele>111.0</ele><time>2026-04-26T09:37:07.071Z</time></trkpt><trkpt lat="45.5377398" lon="10.8200154"><ele>111.0</ele><time>2026-04-26T09:37:08.07Z</time></trkpt><trkpt lat="45.5376159" lon="10.8199385"><ele>111.5</ele><time>2026-04-26T09:37:09.071Z</time></trkpt><trkpt lat="45.5374992" lon="10.8198578"><ele>112.0</ele><time>2026-04-26T09:37:10.07Z</time></trkpt><trkpt lat="45.5373864" lon="10.8197773"><ele>112.5</ele><time>2026-04-26T09:37:11.07Z</time></trkpt><trkpt lat="45.5372711" lon="10.8196877"><ele>113.0</ele><time>2026-04-26T09:37:12.071Z</time></trkpt><trkpt lat="45.5371494" lon="10.8195986"><ele>112.5</ele><time>2026-04-26T09:37:13.07Z</time></trkpt><trkpt lat="45.5370208" lon="10.8195097"><ele>112.0</ele><time>2026-04-26T09:37:14.07Z</time></trkpt><trkpt lat="45.5368868" lon="10.8194213"><ele>111.5</ele><time>2026-04-26T09:37:15.071Z</time></trkpt><trkpt lat="45.5367586" lon="10.8193269"><ele>111.0</ele><time>2026-04-26T09:37:16.07Z</time></trkpt><trkpt lat="45.5366278" lon="10.8192446"><ele>111.0</ele><time>2026-04-26T09:37:17.07Z</time></trkpt><trkpt lat="45.5365099" lon="10.8191645"><ele>111.0</ele><time>2026-04-26T09:37:18.07Z</time></trkpt><trkpt lat="45.5363971" lon="10.8190763"><ele>111.0</ele><time>2026-04-26T09:37:19.07Z</time></trkpt><trkpt lat="45.5362784" lon="10.8189961"><ele>111.0</ele><time>2026-04-26T09:37:20.071Z</time></trkpt><trkpt lat="45.536153" lon="10.8189159"><ele>110.75</ele><time>2026-04-26T09:37:21.07Z</time></trkpt><trkpt lat="45.5360244" lon="10.8188291"><ele>110.5</ele><time>2026-04-26T09:37:22.07Z</time></trkpt><trkpt lat="45.5359036" lon="10.8187543"><ele>110.25</ele><time>2026-04-26T09:37:23.071Z</time></trkpt><trkpt lat="45.5357917" lon="10.818687"><ele>110.0</ele><time>2026-04-26T09:37:24.07Z</time></trkpt><trkpt lat="45.5356788" lon="10.8186245"><ele>110.0</ele><time>2026-04-26T09:37:25.07Z</time></trkpt><trkpt lat="45.5355673" lon="10.8185683"><ele>110.0</ele><time>2026-04-26T09:37:26.071Z</time></trkpt><trkpt lat="45.5354527" lon="10.818528"><ele>110.0</ele><time>2026-04-26T09:37:27.071Z</time></trkpt><trkpt lat="45.5353318" lon="10.8185004"><ele>110.0</ele><time>2026-04-26T09:37:28.071Z</time></trkpt><trkpt lat="45.535203" lon="10.8184741"><ele>110.0</ele><time>2026-04-26T09:37:29.071Z</time></trkpt><trkpt lat="45.535071" lon="10.8184499"><ele>110.0</ele><time>2026-04-26T09:37:30.07Z</time></trkpt><trkpt lat="45.5349372" lon="10.8184249"><ele>110.0</ele><time>2026-04-26T09:37:31.07Z</time></trkpt><trkpt lat="45.5348055" lon="10.8184045"><ele>110.0</ele><time>2026-04-26T09:37:32.071Z</time></trkpt><trkpt lat="45.5346757" lon="10.8183868"><ele>110.25</ele><time>2026-04-26T09:37:33.071Z</time></trkpt><trkpt lat="45.5345447" lon="10.8183632"><ele>110.5</ele><time>2026-04-26T09:37:34.07Z</time></trkpt><trkpt lat="45.5344109" lon="10.8183429"><ele>110.75</ele><time>2026-04-26T09:37:35.07Z</time></trkpt><trkpt lat="45.534276" lon="10.8183289"><ele>111.0</ele><time>2026-04-26T09:37:36.071Z</time></trkpt><trkpt lat="45.534137" lon="10.818312"><ele>111.0</ele><time>2026-04-26T09:37:37.071Z</time></trkpt><trkpt lat="45.5340095" lon="10.818297"><ele>111.0</ele><time>2026-04-26T09:37:38.071Z</time></trkpt><trkpt lat="45.5338828" lon="10.8182812"><ele>111.0</ele><time>2026-04-26T09:37:39.07Z</time></trkpt><trkpt lat="45.5337538" lon="10.8182711"><ele>111.0</ele><time>2026-04-26T09:37:40.071Z</time></trkpt><trkpt lat="45.533618" lon="10.8182511"><ele>111.5</ele><time>2026-04-26T09:37:41.071Z</time></trkpt><trkpt lat="45.5334846" lon="10.818236"><ele>112.0</ele><time>2026-04-26T09:37:42.071Z</time></trkpt><trkpt lat="45.5333469" lon="10.8182265"><ele>112.5</ele><time>2026-04-26T09:37:43.07Z</time></trkpt><trkpt lat="45.5332057" lon="10.8182176"><ele>113.0</ele><time>2026-04-26T09:37:44.071Z</time></trkpt><trkpt lat="45.533064" lon="10.8182185"><ele>113.0</ele><time>2026-04-26T09:37:45.071Z</time></trkpt><trkpt lat="45.5329212" lon="10.8182138"><ele>113.0</ele><time>2026-04-26T09:37:46.071Z</time></trkpt><trkpt lat="45.5327781" lon="10.8182077"><ele>113.0</ele><time>2026-04-26T09:37:47.071Z</time></trkpt><trkpt lat="45.532636" lon="10.8181988"><ele>113.0</ele><time>2026-04-26T09:37:48.07Z</time></trkpt><trkpt lat="45.5324991" lon="10.8181943"><ele>113.0</ele><time>2026-04-26T09:37:49.07Z</time></trkpt><trkpt lat="45.5323624" lon="10.8181907"><ele>113.0</ele><time>2026-04-26T09:37:50.071Z</time></trkpt><trkpt lat="45.5322233" lon="10.8181934"><ele>113.0</ele><time>2026-04-26T09:37:51.071Z</time></trkpt><trkpt lat="45.532085" lon="10.8182099"><ele>113.0</ele><time>2026-04-26T09:37:52.071Z</time></trkpt><trkpt lat="45.5319479" lon="10.8182364"><ele>113.0</ele><time>2026-04-26T09:37:53.07Z</time></trkpt><trkpt lat="45.5318149" lon="10.8182551"><ele>113.0</ele><time>2026-04-26T09:37:54.071Z</time></trkpt><trkpt lat="45.5316793" lon="10.8182666"><ele>113.0</ele><time>2026-04-26T09:37:55.07Z</time></trkpt><trkpt lat="45.5315459" lon="10.8182641"><ele>113.0</ele><time>2026-04-26T09:37:56.071Z</time></trkpt><trkpt lat="45.5314159" lon="10.8182661"><ele>113.0</ele><time>2026-04-26T09:37:57.07Z</time></trkpt><trkpt lat="45.5312927" lon="10.8182598"><ele>113.0</ele><time>2026-04-26T09:37:58.07Z</time></trkpt><trkpt lat="45.5311701" lon="10.8182566"><ele>113.0</ele><time>2026-04-26T09:37:59.071Z</time></trkpt><trkpt lat="45.5310449" lon="10.8182529"><ele>113.0</ele><time>2026-04-26T09:38:00.071Z</time></trkpt><trkpt lat="45.53091" lon="10.8182462"><ele>112.5</ele><time>2026-04-26T09:38:01.071Z</time></trkpt><trkpt lat="45.5307743" lon="10.818235"><ele>112.0</ele><time>2026-04-26T09:38:02.071Z</time></trkpt><trkpt lat="45.5306396" lon="10.8182304"><ele>111.5</ele><time>2026-04-26T09:38:03.07Z</time></trkpt><trkpt lat="45.5305016" lon="10.8182303"><ele>111.0</ele><time>2026-04-26T09:38:04.07Z</time></trkpt><trkpt lat="45.5303641" lon="10.8182333"><ele>111.0</ele><time>2026-04-26T09:38:05.07Z</time></trkpt><trkpt lat="45.5302346" lon="10.8182469"><ele>111.0</ele><time>2026-04-26T09:38:06.071Z</time></trkpt><trkpt lat="45.5301061" lon="10.8182622"><ele>111.0</ele><time>2026-04-26T09:38:07.071Z</time></trkpt><trkpt lat="45.529977" lon="10.8182693"><ele>111.0</ele><time>2026-04-26T09:38:08.071Z</time></trkpt><trkpt lat="45.5298512" lon="10.8182793"><ele>111.0</ele><time>2026-04-26T09:38:09.071Z</time></trkpt><trkpt lat="45.5297128" lon="10.8183122"><ele>111.0</ele><time>2026-04-26T09:38:10.07Z</time></trkpt><trkpt lat="45.5295769" lon="10.8183409"><ele>111.0</ele><time>2026-04-26T09:38:11.07Z</time></trkpt><trkpt lat="45.5294418" lon="10.8183668"><ele>111.0</ele><time>2026-04-26T09:38:12.07Z</time></trkpt><trkpt lat="45.5293031" lon="10.8183864"><ele>111.25</ele><time>2026-04-26T09:38:13.071Z</time></trkpt><trkpt lat="45.5291683" lon="10.8183866"><ele>111.5</ele><time>2026-04-26T09:38:14.071Z</time></trkpt><trkpt lat="45.5290394" lon="10.8183819"><ele>111.75</ele><time>2026-04-26T09:38:15.071Z</time></trkpt><trkpt lat="45.5289085" lon="10.8183693"><ele>112.0</ele><time>2026-04-26T09:38:16.07Z</time></trkpt><trkpt lat="45.528776" lon="10.8183545"><ele>111.75</ele><time>2026-04-26T09:38:17.071Z</time></trkpt><trkpt lat="45.5286478" lon="10.8183379"><ele>111.5</ele><time>2026-04-26T09:38:18.071Z</time></trkpt><trkpt lat="45.5285301" lon="10.8183197"><ele>111.25</ele><time>2026-04-26T09:38:19.071Z</time></trkpt><trkpt lat="45.5284129" lon="10.8183082"><ele>111.0</ele><time>2026-04-26T09:38:20.07Z</time></trkpt><trkpt lat="45.5282941" lon="10.8182971"><ele>111.0</ele><time>2026-04-26T09:38:21.071Z</time></trkpt><trkpt lat="45.5281718" lon="10.8182896"><ele>111.0</ele><time>2026-04-26T09:38:22.071Z</time></trkpt><trkpt lat="45.5280546" lon="10.8182845"><ele>111.0</ele><time>2026-04-26T09:38:23.071Z</time></trkpt><trkpt lat="45.5279353" lon="10.8182789"><ele>111.0</ele><time>2026-04-26T09:38:24.071Z</time></trkpt><trkpt lat="45.5278203" lon="10.8182752"><ele>111.8</ele><time>2026-04-26T09:38:25.07Z</time></trkpt><trkpt lat="45.5277083" lon="10.818273"><ele>112.6</ele><time>2026-04-26T09:38:26.071Z</time></trkpt><trkpt lat="45.5275976" lon="10.8182652"><ele>113.4</ele><time>2026-04-26T09:38:27.071Z</time></trkpt><trkpt lat="45.5274966" lon="10.8182499"><ele>114.2</ele><time>2026-04-26T09:38:28.071Z</time></trkpt><trkpt lat="45.5273998" lon="10.8182433"><ele>115.0</ele><time>2026-04-26T09:38:29.071Z</time></trkpt><trkpt lat="45.5273142" lon="10.8182391"><ele>115.00000000000001</ele><time>2026-04-26T09:38:30.071Z</time></trkpt><trkpt lat="45.527235" lon="10.8182305"><ele>115.0</ele><time>2026-04-26T09:38:31.071Z</time></trkpt><trkpt lat="45.5271636" lon="10.8182241"><ele>115.0</ele><time>2026-04-26T09:38:32.07Z</time></trkpt><trkpt lat="45.527081" lon="10.8182178"><ele>115.0</ele><time>2026-04-26T09:38:34.07Z</time></trkpt><trkpt lat="45.5270148" lon="10.8182233"><ele>115.00000000000001</ele><time>2026-04-26T09:38:39.07Z</time></trkpt><trkpt lat="45.5269132" lon="10.8182308"><ele>115.0</ele><time>2026-04-26T09:38:47.071Z</time></trkpt><trkpt lat="45.526846" lon="10.8182273"><ele>115.0</ele><time>2026-04-26T09:38:48.07Z</time></trkpt><trkpt lat="45.5267435" lon="10.8182974"><ele>115.0</ele><time>2026-04-26T09:38:50.071Z</time></trkpt><trkpt lat="45.5267056" lon="10.8184836"><ele>115.0</ele><time>2026-04-26T09:38:52.07Z</time></trkpt><trkpt lat="45.5267094" lon="10.8186111"><ele>115.0</ele><time>2026-04-26T09:38:53.07Z</time></trkpt><trkpt lat="45.5267189" lon="10.8187463"><ele>115.0</ele><time>2026-04-26T09:38:54.07Z</time></trkpt><trkpt lat="45.5267204" lon="10.8188663"><ele>115.00000000000001</ele><time>2026-04-26T09:38:55.07Z</time></trkpt><trkpt lat="45.5267155" lon="10.8189753"><ele>115.0</ele><time>2026-04-26T09:38:56.071Z</time></trkpt><trkpt lat="45.5267031" lon="10.8190755"><ele>115.0</ele><time>2026-04-26T09:38:57.071Z</time></trkpt><trkpt lat="45.5266777" lon="10.8191733"><ele>115.0</ele><time>2026-04-26T09:38:58.07Z</time></trkpt><trkpt lat="45.5266323" lon="10.8192548"><ele>115.00000000000001</ele><time>2026-04-26T09:38:59.071Z</time></trkpt><trkpt lat="45.5265734" lon="10.819329"><ele>115.0</ele><time>2026-04-26T09:39:00.071Z</time></trkpt><trkpt lat="45.5264954" lon="10.8193919"><ele>115.0</ele><time>2026-04-26T09:39:01.071Z</time></trkpt><trkpt lat="45.5263928" lon="10.819435"><ele>115.0</ele><time>2026-04-26T09:39:02.07Z</time></trkpt><trkpt lat="45.5262696" lon="10.819434"><ele>115.0</ele><time>2026-04-26T09:39:03.07Z</time></trkpt><trkpt lat="45.5261316" lon="10.8194067"><ele>115.0</ele><time>2026-04-26T09:39:04.071Z</time></trkpt><trkpt lat="45.5259912" lon="10.8193778"><ele>115.25</ele><time>2026-04-26T09:39:05.071Z</time></trkpt><trkpt lat="45.525846" lon="10.8193604"><ele>115.5</ele><time>2026-04-26T09:39:06.071Z</time></trkpt><trkpt lat="45.5257044" lon="10.8193573"><ele>115.75</ele><time>2026-04-26T09:39:07.07Z</time></trkpt><trkpt lat="45.5255679" lon="10.8193556"><ele>116.0</ele><time>2026-04-26T09:39:08.071Z</time></trkpt><trkpt lat="45.52543" lon="10.8193699"><ele>115.8</ele><time>2026-04-26T09:39:09.071Z</time></trkpt><trkpt lat="45.5253072" lon="10.8193855"><ele>115.6</ele><time>2026-04-26T09:39:10.071Z</time></trkpt><trkpt lat="45.525189" lon="10.8193973"><ele>115.4</ele><time>2026-04-26T09:39:11.071Z</time></trkpt><trkpt lat="45.5250822" lon="10.8194145"><ele>115.2</ele><time>2026-04-26T09:39:12.071Z</time></trkpt><trkpt lat="45.5249924" lon="10.8194342"><ele>115.0</ele><time>2026-04-26T09:39:13.07Z</time></trkpt><trkpt lat="45.5249202" lon="10.8194704"><ele>115.0</ele><time>2026-04-26T09:39:14.07Z</time></trkpt><trkpt lat="45.5248631" lon="10.8195316"><ele>115.0</ele><time>2026-04-26T09:39:15.071Z</time></trkpt><trkpt lat="45.524816" lon="10.8196439"><ele>115.0</ele><time>2026-04-26T09:39:16.071Z</time></trkpt><trkpt lat="45.5247816" lon="10.8197977"><ele>115.0</ele><time>2026-04-26T09:39:17.07Z</time></trkpt><trkpt lat="45.5247548" lon="10.8199803"><ele>115.0</ele><time>2026-04-26T09:39:18.07Z</time></trkpt><trkpt lat="45.5247292" lon="10.8201713"><ele>115.25</ele><time>2026-04-26T09:39:19.071Z</time></trkpt><trkpt lat="45.5247066" lon="10.8203628"><ele>115.5</ele><time>2026-04-26T09:39:20.07Z</time></trkpt><trkpt lat="45.5246857" lon="10.8205408"><ele>115.75</ele><time>2026-04-26T09:39:21.07Z</time></trkpt><trkpt lat="45.524668" lon="10.8207231"><ele>116.0</ele><time>2026-04-26T09:39:22.071Z</time></trkpt><trkpt lat="45.5246533" lon="10.8209141"><ele>116.25</ele><time>2026-04-26T09:39:23.07Z</time></trkpt><trkpt lat="45.5246463" lon="10.8211135"><ele>116.5</ele><time>2026-04-26T09:39:24.071Z</time></trkpt><trkpt lat="45.5246131" lon="10.8212936"><ele>116.75</ele><time>2026-04-26T09:39:25.071Z</time></trkpt><trkpt lat="45.5245685" lon="10.8214621"><ele>117.0</ele><time>2026-04-26T09:39:26.071Z</time></trkpt><trkpt lat="45.5244844" lon="10.8216123"><ele>117.0</ele><time>2026-04-26T09:39:27.071Z</time></trkpt><trkpt lat="45.5243916" lon="10.8217558"><ele>117.0</ele><time>2026-04-26T09:39:28.071Z</time></trkpt><trkpt lat="45.5242973" lon="10.8218794"><ele>117.0</ele><time>2026-04-26T09:39:29.071Z</time></trkpt><trkpt lat="45.5241868" lon="10.8219859"><ele>117.0</ele><time>2026-04-26T09:39:30.07Z</time></trkpt><trkpt lat="45.5240696" lon="10.8220794"><ele>117.0</ele><time>2026-04-26T09:39:31.07Z</time></trkpt><trkpt lat="45.523911" lon="10.8221314"><ele>117.0</ele><time>2026-04-26T09:39:32.071Z</time></trkpt><trkpt lat="45.5237459" lon="10.8221674"><ele>117.0</ele><time>2026-04-26T09:39:33.07Z</time></trkpt><trkpt lat="45.5235829" lon="10.8221974"><ele>117.33333333333334</ele><time>2026-04-26T09:39:34.071Z</time></trkpt><trkpt lat="45.523422" lon="10.8222095"><ele>117.66666666666667</ele><time>2026-04-26T09:39:35.071Z</time></trkpt><trkpt lat="45.5232611" lon="10.8222255"><ele>118.0</ele><time>2026-04-26T09:39:36.07Z</time></trkpt><trkpt lat="45.5231032" lon="10.8222436"><ele>118.0</ele><time>2026-04-26T09:39:37.07Z</time></trkpt><trkpt lat="45.5229477" lon="10.8222682"><ele>118.0</ele><time>2026-04-26T09:39:38.07Z</time></trkpt><trkpt lat="45.5228087" lon="10.8222955"><ele>118.0</ele><time>2026-04-26T09:39:39.07Z</time></trkpt><trkpt lat="45.5226868" lon="10.8223111"><ele>118.0</ele><time>2026-04-26T09:39:40.069Z</time></trkpt><trkpt lat="45.5225788" lon="10.8223254"><ele>118.0</ele><time>2026-04-26T09:39:41.07Z</time></trkpt><trkpt lat="45.5224866" lon="10.8223365"><ele>118.00000000000001</ele><time>2026-04-26T09:39:42.07Z</time></trkpt><trkpt lat="45.5224013" lon="10.8223392"><ele>118.00000000000001</ele><time>2026-04-26T09:39:43.069Z</time></trkpt><trkpt lat="45.52231" lon="10.8223358"><ele>118.0</ele><time>2026-04-26T09:39:44.069Z</time></trkpt><trkpt lat="45.5222055" lon="10.822328"><ele>118.0</ele><time>2026-04-26T09:39:45.07Z</time></trkpt><trkpt lat="45.522092" lon="10.8223321"><ele>117.5</ele><time>2026-04-26T09:39:46.069Z</time></trkpt><trkpt lat="45.5219685" lon="10.822352"><ele>117.0</ele><time>2026-04-26T09:39:47.07Z</time></trkpt><trkpt lat="45.5218342" lon="10.8223878"><ele>116.5</ele><time>2026-04-26T09:39:48.069Z</time></trkpt><trkpt lat="45.5217107" lon="10.8224156"><ele>116.0</ele><time>2026-04-26T09:39:49.069Z</time></trkpt><trkpt lat="45.5215832" lon="10.8224408"><ele>116.0</ele><time>2026-04-26T09:39:50.069Z</time></trkpt><trkpt lat="45.5214496" lon="10.8224478"><ele>116.0</ele><time>2026-04-26T09:39:51.07Z</time></trkpt><trkpt lat="45.5213074" lon="10.8224434"><ele>116.0</ele><time>2026-04-26T09:39:52.069Z</time></trkpt><trkpt lat="45.5211667" lon="10.822445"><ele>116.0</ele><time>2026-04-26T09:39:53.07Z</time></trkpt><trkpt lat="45.5210005" lon="10.8224261"><ele>115.75</ele><time>2026-04-26T09:39:54.07Z</time></trkpt><trkpt lat="45.5208593" lon="10.8224371"><ele>115.5</ele><time>2026-04-26T09:39:55.07Z</time></trkpt><trkpt lat="45.5207385" lon="10.8224425"><ele>115.25</ele><time>2026-04-26T09:39:56.07Z</time></trkpt><trkpt lat="45.5206151" lon="10.8224397"><ele>115.0</ele><time>2026-04-26T09:39:57.069Z</time></trkpt><trkpt lat="45.5204849" lon="10.822432"><ele>115.25</ele><time>2026-04-26T09:39:58.07Z</time></trkpt><trkpt lat="45.5203601" lon="10.8224313"><ele>115.5</ele><time>2026-04-26T09:39:59.069Z</time></trkpt><trkpt lat="45.5202409" lon="10.8224358"><ele>115.75</ele><time>2026-04-26T09:40:00.07Z</time></trkpt><trkpt lat="45.5201277" lon="10.8224396"><ele>116.0</ele><time>2026-04-26T09:40:01.069Z</time></trkpt><trkpt lat="45.5200038" lon="10.8224429"><ele>116.0</ele><time>2026-04-26T09:40:02.07Z</time></trkpt><trkpt lat="45.5198819" lon="10.8224657"><ele>116.0</ele><time>2026-04-26T09:40:03.069Z</time></trkpt><trkpt lat="45.5197654" lon="10.8224843"><ele>116.0</ele><time>2026-04-26T09:40:04.07Z</time></trkpt><trkpt lat="45.5196531" lon="10.8225014"><ele>116.0</ele><time>2026-04-26T09:40:05.07Z</time></trkpt><trkpt lat="45.5195466" lon="10.8225164"><ele>116.6</ele><time>2026-04-26T09:40:06.07Z</time></trkpt><trkpt lat="45.5194404" lon="10.8225542"><ele>117.19999999999999</ele><time>2026-04-26T09:40:07.07Z</time></trkpt><trkpt lat="45.5193426" lon="10.8226183"><ele>117.80000000000001</ele><time>2026-04-26T09:40:08.07Z</time></trkpt><trkpt lat="45.519249" lon="10.8226828"><ele>118.4</ele><time>2026-04-26T09:40:09.07Z</time></trkpt><trkpt lat="45.5191686" lon="10.8227468"><ele>119.0</ele><time>2026-04-26T09:40:10.069Z</time></trkpt><trkpt lat="45.5190868" lon="10.8228059"><ele>119.49999999999999</ele><time>2026-04-26T09:40:11.069Z</time></trkpt><trkpt lat="45.5190167" lon="10.8228599"><ele>120.0</ele><time>2026-04-26T09:40:12.069Z</time></trkpt><trkpt lat="45.5189575" lon="10.8229065"><ele>120.5</ele><time>2026-04-26T09:40:13.07Z</time></trkpt><trkpt lat="45.5188657" lon="10.8229853"><ele>121.0</ele><time>2026-04-26T09:40:15.069Z</time></trkpt><trkpt lat="45.5187934" lon="10.8230398"><ele>121.49999999999999</ele><time>2026-04-26T09:40:18.069Z</time></trkpt><trkpt lat="45.5187023" lon="10.8230894"><ele>122.0</ele><time>2026-04-26T09:40:39.069Z</time></trkpt><trkpt lat="45.5186587" lon="10.8231616"><ele>122.0</ele><time>2026-04-26T09:40:40.07Z</time></trkpt><trkpt lat="45.5186033" lon="10.8233064"><ele>122.0</ele><time>2026-04-26T09:40:41.069Z</time></trkpt><trkpt lat="45.5185559" lon="10.8234879"><ele>122.0</ele><time>2026-04-26T09:40:42.069Z</time></trkpt><trkpt lat="45.5185188" lon="10.823676"><ele>122.0</ele><time>2026-04-26T09:40:43.07Z</time></trkpt><trkpt lat="45.5184946" lon="10.8238784"><ele>122.75</ele><time>2026-04-26T09:40:44.07Z</time></trkpt><trkpt lat="45.5184714" lon="10.8240775"><ele>123.5</ele><time>2026-04-26T09:40:45.069Z</time></trkpt><trkpt lat="45.5184448" lon="10.8242759"><ele>124.25</ele><time>2026-04-26T09:40:46.069Z</time></trkpt><trkpt lat="45.51842" lon="10.8244799"><ele>125.0</ele><time>2026-04-26T09:40:47.07Z</time></trkpt><trkpt lat="45.5183995" lon="10.8246921"><ele>126.5</ele><time>2026-04-26T09:40:48.07Z</time></trkpt><trkpt lat="45.518379" lon="10.8249039"><ele>128.0</ele><time>2026-04-26T09:40:49.07Z</time></trkpt><trkpt lat="45.5183658" lon="10.8251177"><ele>129.5</ele><time>2026-04-26T09:40:50.07Z</time></trkpt><trkpt lat="45.5183699" lon="10.8253255"><ele>131.0</ele><time>2026-04-26T09:40:51.069Z</time></trkpt><trkpt lat="45.5183739" lon="10.8255356"><ele>131.66666666666666</ele><time>2026-04-26T09:40:52.07Z</time></trkpt><trkpt lat="45.5183819" lon="10.825757"><ele>132.33333333333334</ele><time>2026-04-26T09:40:53.069Z</time></trkpt><trkpt lat="45.5183897" lon="10.8259708"><ele>133.0</ele><time>2026-04-26T09:40:54.069Z</time></trkpt><trkpt lat="45.5184034" lon="10.8261854"><ele>133.75</ele><time>2026-04-26T09:40:55.069Z</time></trkpt><trkpt lat="45.5184207" lon="10.8263963"><ele>134.5</ele><time>2026-04-26T09:40:56.07Z</time></trkpt><trkpt lat="45.5184379" lon="10.8265952"><ele>135.25</ele><time>2026-04-26T09:40:57.07Z</time></trkpt><trkpt lat="45.5184549" lon="10.8267946"><ele>136.0</ele><time>2026-04-26T09:40:58.069Z</time></trkpt><trkpt lat="45.5184642" lon="10.8270015"><ele>136.5</ele><time>2026-04-26T09:40:59.069Z</time></trkpt><trkpt lat="45.5184752" lon="10.8272128"><ele>137.0</ele><time>2026-04-26T09:41:00.069Z</time></trkpt><trkpt lat="45.5184864" lon="10.8274245"><ele>137.5</ele><time>2026-04-26T09:41:01.07Z</time></trkpt><trkpt lat="45.5184912" lon="10.8276353"><ele>138.0</ele><time>2026-04-26T09:41:02.07Z</time></trkpt><trkpt lat="45.5184957" lon="10.8278457"><ele>138.75</ele><time>2026-04-26T09:41:03.069Z</time></trkpt><trkpt lat="45.5184993" lon="10.8280519"><ele>139.5</ele><time>2026-04-26T09:41:04.07Z</time></trkpt><trkpt lat="45.5185029" lon="10.8282384"><ele>140.25</ele><time>2026-04-26T09:41:05.07Z</time></trkpt><trkpt lat="45.5185088" lon="10.8284276"><ele>141.0</ele><time>2026-04-26T09:41:06.07Z</time></trkpt><trkpt lat="45.5185114" lon="10.8286213"><ele>141.0</ele><time>2026-04-26T09:41:07.07Z</time></trkpt><trkpt lat="45.5185155" lon="10.8288067"><ele>141.0</ele><time>2026-04-26T09:41:08.07Z</time></trkpt><trkpt lat="45.5185226" lon="10.8289944"><ele>141.0</ele><time>2026-04-26T09:41:09.07Z</time></trkpt><trkpt lat="45.5185348" lon="10.8291929"><ele>141.0</ele><time>2026-04-26T09:41:10.07Z</time></trkpt><trkpt lat="45.5185546" lon="10.8294018"><ele>141.25</ele><time>2026-04-26T09:41:11.07Z</time></trkpt><trkpt lat="45.518586" lon="10.8296002"><ele>141.5</ele><time>2026-04-26T09:41:12.07Z</time></trkpt><trkpt lat="45.5186259" lon="10.8297787"><ele>141.75</ele><time>2026-04-26T09:41:13.07Z</time></trkpt><trkpt lat="45.5186706" lon="10.8299498"><ele>142.0</ele><time>2026-04-26T09:41:14.07Z</time></trkpt><trkpt lat="45.5187123" lon="10.830101"><ele>144.5</ele><time>2026-04-26T09:41:15.07Z</time></trkpt><trkpt lat="45.5187559" lon="10.8302415"><ele>147.0</ele><time>2026-04-26T09:41:16.07Z</time></trkpt><trkpt lat="45.5187979" lon="10.8303679"><ele>149.5</ele><time>2026-04-26T09:41:17.069Z</time></trkpt><trkpt lat="45.5188308" lon="10.8304717"><ele>152.0</ele><time>2026-04-26T09:41:18.069Z</time></trkpt><trkpt lat="45.5188472" lon="10.8305804"><ele>154.5</ele><time>2026-04-26T09:41:19.069Z</time></trkpt><trkpt lat="45.5188478" lon="10.8306904"><ele>157.0</ele><time>2026-04-26T09:41:20.07Z</time></trkpt><trkpt lat="45.5188311" lon="10.8307962"><ele>156.99999999999997</ele><time>2026-04-26T09:41:21.069Z</time></trkpt><trkpt lat="45.518812" lon="10.8309069"><ele>157.0</ele><time>2026-04-26T09:41:22.07Z</time></trkpt><trkpt lat="45.5188081" lon="10.8310203"><ele>157.0</ele><time>2026-04-26T09:41:23.069Z</time></trkpt><trkpt lat="45.5188253" lon="10.8311234"><ele>157.0</ele><time>2026-04-26T09:41:24.07Z</time></trkpt><trkpt lat="45.5188766" lon="10.8311857"><ele>157.0</ele><time>2026-04-26T09:41:25.07Z</time></trkpt><trkpt lat="45.5189402" lon="10.8312101"><ele>156.99999999999997</ele><time>2026-04-26T09:41:26.069Z</time></trkpt><trkpt lat="45.5190146" lon="10.8311928"><ele>157.0</ele><time>2026-04-26T09:41:27.069Z</time></trkpt><trkpt lat="45.5190836" lon="10.8311422"><ele>157.0</ele><time>2026-04-26T09:41:28.07Z</time></trkpt><trkpt lat="45.5191404" lon="10.8310617"><ele>157.0</ele><time>2026-04-26T09:41:29.07Z</time></trkpt><trkpt lat="45.5191784" lon="10.8309447"><ele>157.0</ele><time>2026-04-26T09:41:30.07Z</time></trkpt><trkpt lat="45.5191995" lon="10.830792"><ele>157.0</ele><time>2026-04-26T09:41:31.069Z</time></trkpt><trkpt lat="45.519229" lon="10.8306231"><ele>157.0</ele><time>2026-04-26T09:41:32.069Z</time></trkpt><trkpt lat="45.5192694" lon="10.8304491"><ele>157.0</ele><time>2026-04-26T09:41:33.069Z</time></trkpt><trkpt lat="45.519322" lon="10.8302797"><ele>157.0</ele><time>2026-04-26T09:41:34.07Z</time></trkpt><trkpt lat="45.5193814" lon="10.830105"><ele>157.0</ele><time>2026-04-26T09:41:35.069Z</time></trkpt><trkpt lat="45.5194422" lon="10.8299215"><ele>157.0</ele><time>2026-04-26T09:41:36.07Z</time></trkpt><trkpt lat="45.519506" lon="10.8297282"><ele>158.0</ele><time>2026-04-26T09:41:37.07Z</time></trkpt><trkpt lat="45.519575" lon="10.8295315"><ele>159.0</ele><time>2026-04-26T09:41:38.07Z</time></trkpt><trkpt lat="45.5196537" lon="10.829352"><ele>160.0</ele><time>2026-04-26T09:41:39.07Z</time></trkpt><trkpt lat="45.5197424" lon="10.8291871"><ele>161.0</ele><time>2026-04-26T09:41:40.069Z</time></trkpt><trkpt lat="45.519844" lon="10.8290164"><ele>161.0</ele><time>2026-04-26T09:41:41.069Z</time></trkpt><trkpt lat="45.5199496" lon="10.8288464"><ele>161.0</ele><time>2026-04-26T09:41:42.07Z</time></trkpt><trkpt lat="45.5200434" lon="10.8286721"><ele>161.0</ele><time>2026-04-26T09:41:43.07Z</time></trkpt><trkpt lat="45.5201197" lon="10.828493"><ele>161.66666666666666</ele><time>2026-04-26T09:41:44.07Z</time></trkpt><trkpt lat="45.5201784" lon="10.8282976"><ele>162.33333333333334</ele><time>2026-04-26T09:41:45.07Z</time></trkpt><trkpt lat="45.5202173" lon="10.8280832"><ele>163.0</ele><time>2026-04-26T09:41:46.07Z</time></trkpt><trkpt lat="45.5202413" lon="10.8278623"><ele>163.33333333333334</ele><time>2026-04-26T09:41:47.069Z</time></trkpt><trkpt lat="45.5202577" lon="10.8276328"><ele>163.66666666666666</ele><time>2026-04-26T09:41:48.07Z</time></trkpt><trkpt lat="45.5202752" lon="10.8274065"><ele>164.0</ele><time>2026-04-26T09:41:49.069Z</time></trkpt><trkpt lat="45.5202965" lon="10.8271865"><ele>164.0</ele><time>2026-04-26T09:41:50.069Z</time></trkpt><trkpt lat="45.5203264" lon="10.826967"><ele>164.0</ele><time>2026-04-26T09:41:51.069Z</time></trkpt><trkpt lat="45.5203555" lon="10.8267503"><ele>164.0</ele><time>2026-04-26T09:41:52.07Z</time></trkpt><trkpt lat="45.5203892" lon="10.826525"><ele>169.66666666666666</ele><time>2026-04-26T09:41:53.07Z</time></trkpt><trkpt lat="45.5204266" lon="10.8263047"><ele>175.33333333333334</ele><time>2026-04-26T09:41:54.07Z</time></trkpt><trkpt lat="45.5204591" lon="10.8260929"><ele>181.0</ele><time>2026-04-26T09:41:55.069Z</time></trkpt><trkpt lat="45.5204906" lon="10.8258874"><ele>181.0</ele><time>2026-04-26T09:41:56.07Z</time></trkpt><trkpt lat="45.5205357" lon="10.8256841"><ele>181.0</ele><time>2026-04-26T09:41:57.069Z</time></trkpt><trkpt lat="45.5206087" lon="10.8255083"><ele>181.0</ele><time>2026-04-26T09:41:58.07Z</time></trkpt><trkpt lat="45.5207015" lon="10.8253586"><ele>181.0</ele><time>2026-04-26T09:41:59.07Z</time></trkpt><trkpt lat="45.5208071" lon="10.8252369"><ele>181.0</ele><time>2026-04-26T09:42:00.07Z</time></trkpt><trkpt lat="45.5209236" lon="10.8251496"><ele>181.0</ele><time>2026-04-26T09:42:01.069Z</time></trkpt><trkpt lat="45.5210586" lon="10.8250823"><ele>181.0</ele><time>2026-04-26T09:42:02.069Z</time></trkpt><trkpt lat="45.5212024" lon="10.825048"><ele>181.0</ele><time>2026-04-26T09:42:03.069Z</time></trkpt><trkpt lat="45.5213477" lon="10.8250574"><ele>178.75</ele><time>2026-04-26T09:42:04.07Z</time></trkpt><trkpt lat="45.5214973" lon="10.8250882"><ele>176.5</ele><time>2026-04-26T09:42:05.07Z</time></trkpt><trkpt lat="45.5216398" lon="10.8251607"><ele>174.25</ele><time>2026-04-26T09:42:06.069Z</time></trkpt><trkpt lat="45.5217662" lon="10.8252652"><ele>172.0</ele><time>2026-04-26T09:42:07.069Z</time></trkpt><trkpt lat="45.5218887" lon="10.8254002"><ele>175.66666666666669</ele><time>2026-04-26T09:42:08.07Z</time></trkpt><trkpt lat="45.5220053" lon="10.8255483"><ele>179.33333333333334</ele><time>2026-04-26T09:42:09.07Z</time></trkpt><trkpt lat="45.522119" lon="10.8257132"><ele>183.0</ele><time>2026-04-26T09:42:10.07Z</time></trkpt><trkpt lat="45.5222392" lon="10.8258769"><ele>188.33333333333331</ele><time>2026-04-26T09:42:11.07Z</time></trkpt><trkpt lat="45.5223553" lon="10.8260376"><ele>193.66666666666666</ele><time>2026-04-26T09:42:12.07Z</time></trkpt><trkpt lat="45.5224718" lon="10.8261997"><ele>199.0</ele><time>2026-04-26T09:42:13.069Z</time></trkpt><trkpt lat="45.5225837" lon="10.8263525"><ele>199.0</ele><time>2026-04-26T09:42:14.069Z</time></trkpt><trkpt lat="45.522694" lon="10.8265026"><ele>199.0</ele><time>2026-04-26T09:42:15.07Z</time></trkpt><trkpt lat="45.5228005" lon="10.8266466"><ele>199.0</ele><time>2026-04-26T09:42:16.069Z</time></trkpt><trkpt lat="45.5229018" lon="10.8267833"><ele>199.0</ele><time>2026-04-26T09:42:17.07Z</time></trkpt><trkpt lat="45.5229892" lon="10.8268996"><ele>200.39999999999998</ele><time>2026-04-26T09:42:18.07Z</time></trkpt><trkpt lat="45.5230746" lon="10.8269966"><ele>201.8</ele><time>2026-04-26T09:42:19.07Z</time></trkpt><trkpt lat="45.5231596" lon="10.827068"><ele>203.2</ele><time>2026-04-26T09:42:20.069Z</time></trkpt><trkpt lat="45.5232664" lon="10.8271057"><ele>204.60000000000002</ele><time>2026-04-26T09:42:21.069Z</time></trkpt><trkpt lat="45.5233856" lon="10.8270979"><ele>206.0</ele><time>2026-04-26T09:42:22.07Z</time></trkpt><trkpt lat="45.5235088" lon="10.8270427"><ele>206.0</ele><time>2026-04-26T09:42:23.069Z</time></trkpt><trkpt lat="45.5236292" lon="10.8269668"><ele>206.0</ele><time>2026-04-26T09:42:24.069Z</time></trkpt><trkpt lat="45.5237599" lon="10.8268418"><ele>206.0</ele><time>2026-04-26T09:42:25.069Z</time></trkpt><trkpt lat="45.5238862" lon="10.8267121"><ele>206.0</ele><time>2026-04-26T09:42:26.069Z</time></trkpt><trkpt lat="45.5240104" lon="10.826594"><ele>208.0</ele><time>2026-04-26T09:42:27.069Z</time></trkpt><trkpt lat="45.5241436" lon="10.8264758"><ele>210.0</ele><time>2026-04-26T09:42:28.069Z</time></trkpt><trkpt lat="45.5242724" lon="10.826366"><ele>212.0</ele><time>2026-04-26T09:42:29.069Z</time></trkpt><trkpt lat="45.5244022" lon="10.8262647"><ele>212.0</ele><time>2026-04-26T09:42:30.07Z</time></trkpt><trkpt lat="45.524535" lon="10.8261813"><ele>212.0</ele><time>2026-04-26T09:42:31.07Z</time></trkpt><trkpt lat="45.5246735" lon="10.8261164"><ele>212.0</ele><time>2026-04-26T09:42:32.07Z</time></trkpt><trkpt lat="45.5248087" lon="10.8260761"><ele>212.0</ele><time>2026-04-26T09:42:33.069Z</time></trkpt><trkpt lat="45.5249651" lon="10.8260664"><ele>215.33333333333334</ele><time>2026-04-26T09:42:34.07Z</time></trkpt><trkpt lat="45.525124" lon="10.8260731"><ele>218.66666666666669</ele><time>2026-04-26T09:42:35.069Z</time></trkpt><trkpt lat="45.5252799" lon="10.8260876"><ele>222.0</ele><time>2026-04-26T09:42:36.07Z</time></trkpt><trkpt lat="45.5254375" lon="10.82611"><ele>222.33333333333331</ele><time>2026-04-26T09:42:37.069Z</time></trkpt><trkpt lat="45.5255979" lon="10.8261306"><ele>222.66666666666666</ele><time>2026-04-26T09:42:38.07Z</time></trkpt><trkpt lat="45.5257582" lon="10.8261549"><ele>223.0</ele><time>2026-04-26T09:42:39.069Z</time></trkpt><trkpt lat="45.5259292" lon="10.8261776"><ele>223.0</ele><time>2026-04-26T09:42:40.069Z</time></trkpt><trkpt lat="45.5261" lon="10.826196"><ele>223.0</ele><time>2026-04-26T09:42:41.069Z</time></trkpt><trkpt lat="45.5262702" lon="10.826218"><ele>223.0</ele><time>2026-04-26T09:42:42.069Z</time></trkpt><trkpt lat="45.5264377" lon="10.8262421"><ele>225.33333333333331</ele><time>2026-04-26T09:42:43.069Z</time></trkpt><trkpt lat="45.5266006" lon="10.8262804"><ele>227.66666666666669</ele><time>2026-04-26T09:42:44.069Z</time></trkpt><trkpt lat="45.5267622" lon="10.8263165"><ele>230.0</ele><time>2026-04-26T09:42:45.068Z</time></trkpt><trkpt lat="45.5269175" lon="10.8263248"><ele>230.0</ele><time>2026-04-26T09:42:46.068Z</time></trkpt><trkpt lat="45.52706" lon="10.8262915"><ele>230.0</ele><time>2026-04-26T09:42:47.069Z</time></trkpt><trkpt lat="45.5272031" lon="10.8262471"><ele>230.0</ele><time>2026-04-26T09:42:48.068Z</time></trkpt><trkpt lat="45.5273431" lon="10.8261869"><ele>230.0</ele><time>2026-04-26T09:42:49.069Z</time></trkpt><trkpt lat="45.5274822" lon="10.8261096"><ele>231.0</ele><time>2026-04-26T09:42:50.068Z</time></trkpt><trkpt lat="45.5276326" lon="10.8260165"><ele>232.0</ele><time>2026-04-26T09:42:51.069Z</time></trkpt><trkpt lat="45.5277756" lon="10.8259036"><ele>233.0</ele><time>2026-04-26T09:42:52.069Z</time></trkpt><trkpt lat="45.5279069" lon="10.8257747"><ele>233.0</ele><time>2026-04-26T09:42:53.069Z</time></trkpt><trkpt lat="45.5280298" lon="10.8256662"><ele>233.0</ele><time>2026-04-26T09:42:54.068Z</time></trkpt><trkpt lat="45.5281602" lon="10.8255581"><ele>233.0</ele><time>2026-04-26T09:42:55.069Z</time></trkpt><trkpt lat="45.5282968" lon="10.825462"><ele>233.0</ele><time>2026-04-26T09:42:56.069Z</time></trkpt><trkpt lat="45.5284368" lon="10.825389"><ele>233.0</ele><time>2026-04-26T09:42:57.069Z</time></trkpt><trkpt lat="45.5285889" lon="10.8253295"><ele>233.0</ele><time>2026-04-26T09:42:58.069Z</time></trkpt><trkpt lat="45.5287406" lon="10.8252911"><ele>233.0</ele><time>2026-04-26T09:42:59.068Z</time></trkpt><trkpt lat="45.5288869" lon="10.8252435"><ele>232.25</ele><time>2026-04-26T09:43:00.069Z</time></trkpt><trkpt lat="45.5290279" lon="10.8251763"><ele>231.5</ele><time>2026-04-26T09:43:01.068Z</time></trkpt><trkpt lat="45.5291654" lon="10.8251371"><ele>230.75</ele><time>2026-04-26T09:43:02.068Z</time></trkpt><trkpt lat="45.5293029" lon="10.8251119"><ele>230.0</ele><time>2026-04-26T09:43:03.069Z</time></trkpt><trkpt lat="45.5294332" lon="10.8251042"><ele>229.0</ele><time>2026-04-26T09:43:04.069Z</time></trkpt><trkpt lat="45.5295665" lon="10.8251345"><ele>228.0</ele><time>2026-04-26T09:43:05.069Z</time></trkpt><trkpt lat="45.5296903" lon="10.8251876"><ele>227.0</ele><time>2026-04-26T09:43:06.069Z</time></trkpt><trkpt lat="45.5298159" lon="10.8252708"><ele>226.0</ele><time>2026-04-26T09:43:07.069Z</time></trkpt><trkpt lat="45.5299374" lon="10.8253771"><ele>230.5</ele><time>2026-04-26T09:43:08.068Z</time></trkpt><trkpt lat="45.530055" lon="10.825491"><ele>235.0</ele><time>2026-04-26T09:43:09.069Z</time></trkpt><trkpt lat="45.5301823" lon="10.8255873"><ele>239.5</ele><time>2026-04-26T09:43:10.068Z</time></trkpt><trkpt lat="45.5303127" lon="10.8256765"><ele>244.0</ele><time>2026-04-26T09:43:11.069Z</time></trkpt><trkpt lat="45.5304491" lon="10.8257522"><ele>244.0</ele><time>2026-04-26T09:43:12.068Z</time></trkpt><trkpt lat="45.5305976" lon="10.8258206"><ele>244.0</ele><time>2026-04-26T09:43:13.069Z</time></trkpt><trkpt lat="45.530748" lon="10.8258812"><ele>244.0</ele><time>2026-04-26T09:43:14.068Z</time></trkpt><trkpt lat="45.5308911" lon="10.8259304"><ele>244.0</ele><time>2026-04-26T09:43:15.069Z</time></trkpt><trkpt lat="45.5310211" lon="10.8259722"><ele>244.0</ele><time>2026-04-26T09:43:16.069Z</time></trkpt><trkpt lat="45.5311487" lon="10.8259971"><ele>244.0</ele><time>2026-04-26T09:43:17.069Z</time></trkpt><trkpt lat="45.5312654" lon="10.8260223"><ele>244.0</ele><time>2026-04-26T09:43:18.069Z</time></trkpt><trkpt lat="45.5313727" lon="10.8260343"><ele>247.2</ele><time>2026-04-26T09:43:19.068Z</time></trkpt><trkpt lat="45.5314739" lon="10.8260643"><ele>250.39999999999998</ele><time>2026-04-26T09:43:20.069Z</time></trkpt><trkpt lat="45.53157" lon="10.8260996"><ele>253.6</ele><time>2026-04-26T09:43:21.069Z</time></trkpt><trkpt lat="45.5316584" lon="10.826141"><ele>256.8</ele><time>2026-04-26T09:43:22.069Z</time></trkpt><trkpt lat="45.5317474" lon="10.8261911"><ele>260.0</ele><time>2026-04-26T09:43:23.069Z</time></trkpt><trkpt lat="45.531831" lon="10.8262482"><ele>260.0</ele><time>2026-04-26T09:43:24.069Z</time></trkpt><trkpt lat="45.5319098" lon="10.8263043"><ele>260.0</ele><time>2026-04-26T09:43:25.069Z</time></trkpt><trkpt lat="45.5319838" lon="10.826355"><ele>260.0</ele><time>2026-04-26T09:43:26.069Z</time></trkpt><trkpt lat="45.5320502" lon="10.8264042"><ele>260.0</ele><time>2026-04-26T09:43:27.069Z</time></trkpt><trkpt lat="45.5321081" lon="10.8264498"><ele>260.0</ele><time>2026-04-26T09:43:28.068Z</time></trkpt><trkpt lat="45.5322071" lon="10.8265352"><ele>260.0</ele><time>2026-04-26T09:43:30.069Z</time></trkpt><trkpt lat="45.5322986" lon="10.8266664"><ele>260.6</ele><time>2026-04-26T09:43:32.068Z</time></trkpt><trkpt lat="45.5323451" lon="10.8267538"><ele>261.2</ele><time>2026-04-26T09:43:33.068Z</time></trkpt><trkpt lat="45.5323924" lon="10.8268546"><ele>261.8</ele><time>2026-04-26T09:43:34.069Z</time></trkpt><trkpt lat="45.5324371" lon="10.8269707"><ele>262.4</ele><time>2026-04-26T09:43:35.068Z</time></trkpt><trkpt lat="45.5324745" lon="10.8271046"><ele>263.0</ele><time>2026-04-26T09:43:36.068Z</time></trkpt><trkpt lat="45.5325066" lon="10.8272368"><ele>263.0</ele><time>2026-04-26T09:43:37.069Z</time></trkpt><trkpt lat="45.5325356" lon="10.8273853"><ele>263.0</ele><time>2026-04-26T09:43:38.069Z</time></trkpt><trkpt lat="45.5325694" lon="10.8275083"><ele>263.0</ele><time>2026-04-26T09:43:39.069Z</time></trkpt><trkpt lat="45.5326062" lon="10.8276056"><ele>263.0</ele><time>2026-04-26T09:43:40.069Z</time></trkpt><trkpt lat="45.5326589" lon="10.8276758"><ele>263.0</ele><time>2026-04-26T09:43:41.069Z</time></trkpt><trkpt lat="45.5327342" lon="10.8277302"><ele>263.0</ele><time>2026-04-26T09:43:42.068Z</time></trkpt><trkpt lat="45.5328112" lon="10.8277538"><ele>263.0</ele><time>2026-04-26T09:43:43.068Z</time></trkpt><trkpt lat="45.532897" lon="10.8277518"><ele>263.0</ele><time>2026-04-26T09:43:44.069Z</time></trkpt><trkpt lat="45.5329836" lon="10.8277433"><ele>263.0</ele><time>2026-04-26T09:43:45.069Z</time></trkpt><trkpt lat="45.5330826" lon="10.8277301"><ele>263.0</ele><time>2026-04-26T09:43:46.069Z</time></trkpt><trkpt lat="45.5331853" lon="10.8277133"><ele>263.0</ele><time>2026-04-26T09:43:47.069Z</time></trkpt><trkpt lat="45.5332979" lon="10.8277094"><ele>263.0</ele><time>2026-04-26T09:43:48.068Z</time></trkpt><trkpt lat="45.5334001" lon="10.8277189"><ele>263.0</ele><time>2026-04-26T09:43:49.068Z</time></trkpt><trkpt lat="45.5334918" lon="10.8277348"><ele>263.0</ele><time>2026-04-26T09:43:50.069Z</time></trkpt><trkpt lat="45.5335694" lon="10.827755"><ele>263.0</ele><time>2026-04-26T09:43:51.069Z</time></trkpt><trkpt lat="45.5336394" lon="10.8277691"><ele>263.0</ele><time>2026-04-26T09:43:52.068Z</time></trkpt><trkpt lat="45.5337513" lon="10.8278411"><ele>262.0</ele><time>2026-04-26T09:43:54.069Z</time></trkpt><trkpt lat="45.5338333" lon="10.8279612"><ele>261.0</ele><time>2026-04-26T09:43:56.068Z</time></trkpt><trkpt lat="45.5339173" lon="10.8280768"><ele>260.0</ele><time>2026-04-26T09:43:58.069Z</time></trkpt><trkpt lat="45.5339873" lon="10.8281729"><ele>259.0</ele><time>2026-04-26T09:44:00.069Z</time></trkpt><trkpt lat="45.5340536" lon="10.8282885"><ele>258.0</ele><time>2026-04-26T09:44:02.068Z</time></trkpt><trkpt lat="45.5340927" lon="10.8284182"><ele>256.2</ele><time>2026-04-26T09:44:04.068Z</time></trkpt><trkpt lat="45.534105" lon="10.8285505"><ele>254.4</ele><time>2026-04-26T09:44:06.069Z</time></trkpt><trkpt lat="45.5340728" lon="10.8286674"><ele>252.59999999999997</ele><time>2026-04-26T09:44:08.068Z</time></trkpt><trkpt lat="45.5340057" lon="10.8287676"><ele>250.79999999999998</ele><time>2026-04-26T09:44:11.069Z</time></trkpt><trkpt lat="45.5338883" lon="10.8288511"><ele>249.0</ele><time>2026-04-26T09:44:13.068Z</time></trkpt><trkpt lat="45.5338142" lon="10.8288968"><ele>249.0</ele><time>2026-04-26T09:44:14.069Z</time></trkpt><trkpt lat="45.5337328" lon="10.8289359"><ele>249.0</ele><time>2026-04-26T09:44:15.069Z</time></trkpt><trkpt lat="45.5336493" lon="10.8289798"><ele>249.0</ele><time>2026-04-26T09:44:16.069Z</time></trkpt><trkpt lat="45.5335683" lon="10.8290397"><ele>249.0</ele><time>2026-04-26T09:44:17.068Z</time></trkpt><trkpt lat="45.5334926" lon="10.8290936"><ele>249.0</ele><time>2026-04-26T09:44:18.069Z</time></trkpt><trkpt lat="45.5334185" lon="10.8291545"><ele>249.0</ele><time>2026-04-26T09:44:19.069Z</time></trkpt><trkpt lat="45.5333349" lon="10.829223"><ele>249.39999999999998</ele><time>2026-04-26T09:44:20.069Z</time></trkpt><trkpt lat="45.5332627" lon="10.829312"><ele>249.79999999999998</ele><time>2026-04-26T09:44:21.069Z</time></trkpt><trkpt lat="45.5332015" lon="10.8294134"><ele>250.20000000000002</ele><time>2026-04-26T09:44:22.068Z</time></trkpt><trkpt lat="45.5331396" lon="10.8295193"><ele>250.60000000000002</ele><time>2026-04-26T09:44:23.068Z</time></trkpt><trkpt lat="45.5330724" lon="10.8296193"><ele>251.0</ele><time>2026-04-26T09:44:24.068Z</time></trkpt><trkpt lat="45.5330148" lon="10.8297185"><ele>251.00000000000003</ele><time>2026-04-26T09:44:25.069Z</time></trkpt><trkpt lat="45.5329649" lon="10.829821"><ele>251.0</ele><time>2026-04-26T09:44:26.068Z</time></trkpt><trkpt lat="45.5329235" lon="10.8299317"><ele>251.0</ele><time>2026-04-26T09:44:27.069Z</time></trkpt><trkpt lat="45.5328752" lon="10.8300412"><ele>251.0</ele><time>2026-04-26T09:44:28.069Z</time></trkpt><trkpt lat="45.5328272" lon="10.8301509"><ele>251.00000000000003</ele><time>2026-04-26T09:44:29.069Z</time></trkpt><trkpt lat="45.5327818" lon="10.830262"><ele>251.0</ele><time>2026-04-26T09:44:30.069Z</time></trkpt><trkpt lat="45.532741" lon="10.8303754"><ele>251.4</ele><time>2026-04-26T09:44:31.069Z</time></trkpt><trkpt lat="45.5327067" lon="10.8305169"><ele>251.8</ele><time>2026-04-26T09:44:32.068Z</time></trkpt><trkpt lat="45.5326756" lon="10.8306676"><ele>252.20000000000002</ele><time>2026-04-26T09:44:33.069Z</time></trkpt><trkpt lat="45.5326519" lon="10.8308101"><ele>252.60000000000002</ele><time>2026-04-26T09:44:34.069Z</time></trkpt><trkpt lat="45.5326245" lon="10.8309354"><ele>253.0</ele><time>2026-04-26T09:44:35.068Z</time></trkpt><trkpt lat="45.5325975" lon="10.8310513"><ele>253.00000000000003</ele><time>2026-04-26T09:44:36.068Z</time></trkpt><trkpt lat="45.5325655" lon="10.8311406"><ele>253.0</ele><time>2026-04-26T09:44:37.069Z</time></trkpt><trkpt lat="45.5325344" lon="10.8312205"><ele>253.00000000000003</ele><time>2026-04-26T09:44:38.068Z</time></trkpt><trkpt lat="45.5324959" lon="10.831307"><ele>253.00000000000003</ele><time>2026-04-26T09:44:39.069Z</time></trkpt><trkpt lat="45.5324506" lon="10.8313972"><ele>253.0</ele><time>2026-04-26T09:44:40.068Z</time></trkpt><trkpt lat="45.5324085" lon="10.8314908"><ele>253.00000000000003</ele><time>2026-04-26T09:44:41.069Z</time></trkpt><trkpt lat="45.5323638" lon="10.8315869"><ele>253.00000000000003</ele><time>2026-04-26T09:44:42.068Z</time></trkpt><trkpt lat="45.5323196" lon="10.8316942"><ele>252.99999999999997</ele><time>2026-04-26T09:44:43.068Z</time></trkpt><trkpt lat="45.5322774" lon="10.8317955"><ele>253.0</ele><time>2026-04-26T09:44:44.068Z</time></trkpt><trkpt lat="45.5322357" lon="10.8318935"><ele>253.0</ele><time>2026-04-26T09:44:45.068Z</time></trkpt><trkpt lat="45.5321867" lon="10.831989"><ele>253.0</ele><time>2026-04-26T09:44:46.069Z</time></trkpt><trkpt lat="45.5321482" lon="10.8320815"><ele>252.99999999999997</ele><time>2026-04-26T09:44:47.069Z</time></trkpt><trkpt lat="45.5321115" lon="10.8321765"><ele>253.0</ele><time>2026-04-26T09:44:48.068Z</time></trkpt><trkpt lat="45.5320586" lon="10.8322862"><ele>252.49999999999997</ele><time>2026-04-26T09:44:49.069Z</time></trkpt><trkpt lat="45.5320074" lon="10.8323888"><ele>252.0</ele><time>2026-04-26T09:44:50.069Z</time></trkpt><trkpt lat="45.531958" lon="10.8324893"><ele>251.5</ele><time>2026-04-26T09:44:51.068Z</time></trkpt><trkpt lat="45.5319028" lon="10.8325929"><ele>251.0</ele><time>2026-04-26T09:44:52.069Z</time></trkpt><trkpt lat="45.5318523" lon="10.8326916"><ele>250.49999999999997</ele><time>2026-04-26T09:44:53.069Z</time></trkpt><trkpt lat="45.5318034" lon="10.8327929"><ele>250.0</ele><time>2026-04-26T09:44:54.069Z</time></trkpt><trkpt lat="45.5317592" lon="10.8329038"><ele>250.0</ele><time>2026-04-26T09:44:55.068Z</time></trkpt><trkpt lat="45.531717" lon="10.8330366"><ele>250.0</ele><time>2026-04-26T09:44:56.068Z</time></trkpt><trkpt lat="45.5316751" lon="10.8331743"><ele>250.0</ele><time>2026-04-26T09:44:57.069Z</time></trkpt><trkpt lat="45.5316411" lon="10.8332945"><ele>250.0</ele><time>2026-04-26T09:44:58.069Z</time></trkpt><trkpt lat="45.5316087" lon="10.8333963"><ele>250.0</ele><time>2026-04-26T09:44:59.068Z</time></trkpt><trkpt lat="45.5315713" lon="10.8334897"><ele>250.0</ele><time>2026-04-26T09:45:00.069Z</time></trkpt><trkpt lat="45.5315234" lon="10.8335916"><ele>250.0</ele><time>2026-04-26T09:45:01.069Z</time></trkpt><trkpt lat="45.5314601" lon="10.833701"><ele>250.0</ele><time>2026-04-26T09:45:02.069Z</time></trkpt><trkpt lat="45.5313941" lon="10.8338058"><ele>250.0</ele><time>2026-04-26T09:45:03.069Z</time></trkpt><trkpt lat="45.5313333" lon="10.8338993"><ele>250.0</ele><time>2026-04-26T09:45:04.068Z</time></trkpt><trkpt lat="45.5312757" lon="10.8339867"><ele>250.4</ele><time>2026-04-26T09:45:05.068Z</time></trkpt><trkpt lat="45.5312026" lon="10.8341329"><ele>250.8</ele><time>2026-04-26T09:45:07.069Z</time></trkpt><trkpt lat="45.5312132" lon="10.8342885"><ele>251.2</ele><time>2026-04-26T09:45:09.068Z</time></trkpt><trkpt lat="45.5312492" lon="10.8344039"><ele>251.6</ele><time>2026-04-26T09:45:10.069Z</time></trkpt><trkpt lat="45.5312798" lon="10.8345109"><ele>252.0</ele><time>2026-04-26T09:45:11.068Z</time></trkpt><trkpt lat="45.5313071" lon="10.8346037"><ele>252.2</ele><time>2026-04-26T09:45:12.069Z</time></trkpt><trkpt lat="45.5313311" lon="10.8347711"><ele>252.39999999999998</ele><time>2026-04-26T09:45:14.069Z</time></trkpt><trkpt lat="45.5313284" lon="10.8348724"><ele>252.60000000000002</ele><time>2026-04-26T09:45:15.069Z</time></trkpt><trkpt lat="45.5313122" lon="10.8349906"><ele>252.8</ele><time>2026-04-26T09:45:16.068Z</time></trkpt><trkpt lat="45.5312655" lon="10.835104"><ele>253.0</ele><time>2026-04-26T09:45:17.069Z</time></trkpt><trkpt lat="45.5312179" lon="10.8352048"><ele>252.99999999999997</ele><time>2026-04-26T09:45:18.069Z</time></trkpt><trkpt lat="45.5311863" lon="10.8353014"><ele>253.0</ele><time>2026-04-26T09:45:19.069Z</time></trkpt><trkpt lat="45.5311611" lon="10.835385"><ele>253.0</ele><time>2026-04-26T09:45:20.068Z</time></trkpt><trkpt lat="45.5311619" lon="10.8354864"><ele>253.0</ele><time>2026-04-26T09:45:22.069Z</time></trkpt><trkpt lat="45.5312282" lon="10.8354301"><ele>252.99999999999997</ele><time>2026-04-26T09:45:25.069Z</time></trkpt><trkpt lat="45.531271" lon="10.8352559"><ele>253.0</ele><time>2026-04-26T09:45:27.068Z</time></trkpt><trkpt lat="45.5313116" lon="10.835116"><ele>253.0</ele><time>2026-04-26T09:45:28.068Z</time></trkpt><trkpt lat="45.5313586" lon="10.8349656"><ele>253.0</ele><time>2026-04-26T09:45:29.069Z</time></trkpt><trkpt lat="45.5314096" lon="10.8348147"><ele>253.0</ele><time>2026-04-26T09:45:30.068Z</time></trkpt><trkpt lat="45.5314683" lon="10.8346781"><ele>253.0</ele><time>2026-04-26T09:45:31.068Z</time></trkpt><trkpt lat="45.5315487" lon="10.8345633"><ele>253.0</ele><time>2026-04-26T09:45:32.069Z</time></trkpt><trkpt lat="45.5316462" lon="10.8344647"><ele>253.0</ele><time>2026-04-26T09:45:33.069Z</time></trkpt><trkpt lat="45.5317617" lon="10.8344007"><ele>253.0</ele><time>2026-04-26T09:45:34.068Z</time></trkpt><trkpt lat="45.5319017" lon="10.8343519"><ele>253.0</ele><time>2026-04-26T09:45:35.069Z</time></trkpt><trkpt lat="45.5320542" lon="10.834324"><ele>255.66666666666666</ele><time>2026-04-26T09:45:36.068Z</time></trkpt><trkpt lat="45.5322127" lon="10.8342794"><ele>258.3333333333333</ele><time>2026-04-26T09:45:37.067Z</time></trkpt><trkpt lat="45.5323768" lon="10.8342223"><ele>261.0</ele><time>2026-04-26T09:45:38.068Z</time></trkpt><trkpt lat="45.5325438" lon="10.8341449"><ele>261.0</ele><time>2026-04-26T09:45:39.067Z</time></trkpt><trkpt lat="45.5327132" lon="10.8340561"><ele>261.0</ele><time>2026-04-26T09:45:40.068Z</time></trkpt><trkpt lat="45.5328787" lon="10.8339564"><ele>261.0</ele><time>2026-04-26T09:45:41.068Z</time></trkpt><trkpt lat="45.5330442" lon="10.8338569"><ele>265.6666666666667</ele><time>2026-04-26T09:45:42.068Z</time></trkpt><trkpt lat="45.5332135" lon="10.8337693"><ele>270.33333333333337</ele><time>2026-04-26T09:45:43.068Z</time></trkpt><trkpt lat="45.5333812" lon="10.8336911"><ele>275.0</ele><time>2026-04-26T09:45:44.067Z</time></trkpt><trkpt lat="45.5335349" lon="10.8336082"><ele>275.0</ele><time>2026-04-26T09:45:45.067Z</time></trkpt><trkpt lat="45.5336829" lon="10.8335297"><ele>275.0</ele><time>2026-04-26T09:45:46.067Z</time></trkpt><trkpt lat="45.5338205" lon="10.8334595"><ele>275.0</ele><time>2026-04-26T09:45:47.067Z</time></trkpt><trkpt lat="45.5339556" lon="10.8333987"><ele>275.0</ele><time>2026-04-26T09:45:48.068Z</time></trkpt><trkpt lat="45.5340835" lon="10.8333759"><ele>275.0</ele><time>2026-04-26T09:45:49.067Z</time></trkpt><trkpt lat="45.5342175" lon="10.8333956"><ele>275.0</ele><time>2026-04-26T09:45:50.067Z</time></trkpt><trkpt lat="45.5343535" lon="10.8334281"><ele>275.0</ele><time>2026-04-26T09:45:51.067Z</time></trkpt><trkpt lat="45.5344843" lon="10.8334314"><ele>275.0</ele><time>2026-04-26T09:45:52.067Z</time></trkpt><trkpt lat="45.5346287" lon="10.8334139"><ele>275.0</ele><time>2026-04-26T09:45:53.068Z</time></trkpt><trkpt lat="45.5347938" lon="10.8333644"><ele>275.0</ele><time>2026-04-26T09:45:54.068Z</time></trkpt><trkpt lat="45.5349601" lon="10.8332978"><ele>275.0</ele><time>2026-04-26T09:45:55.067Z</time></trkpt><trkpt lat="45.5351239" lon="10.8332266"><ele>275.0</ele><time>2026-04-26T09:45:56.068Z</time></trkpt><trkpt lat="45.5352849" lon="10.8331701"><ele>275.0</ele><time>2026-04-26T09:45:57.068Z</time></trkpt><trkpt lat="45.5354322" lon="10.8331034"><ele>275.0</ele><time>2026-04-26T09:45:58.068Z</time></trkpt><trkpt lat="45.5355696" lon="10.8330125"><ele>274.75</ele><time>2026-04-26T09:45:59.068Z</time></trkpt><trkpt lat="45.5356959" lon="10.8328882"><ele>274.5</ele><time>2026-04-26T09:46:00.067Z</time></trkpt><trkpt lat="45.5358002" lon="10.8327502"><ele>274.25</ele><time>2026-04-26T09:46:01.068Z</time></trkpt><trkpt lat="45.5359075" lon="10.8326076"><ele>274.0</ele><time>2026-04-26T09:46:02.067Z</time></trkpt><trkpt lat="45.5360163" lon="10.8324804"><ele>274.0</ele><time>2026-04-26T09:46:03.067Z</time></trkpt><trkpt lat="45.5361217" lon="10.8323746"><ele>274.0</ele><time>2026-04-26T09:46:04.068Z</time></trkpt><trkpt lat="45.536238" lon="10.8323034"><ele>274.0</ele><time>2026-04-26T09:46:05.068Z</time></trkpt><trkpt lat="45.5363541" lon="10.8322973"><ele>274.0</ele><time>2026-04-26T09:46:06.068Z</time></trkpt><trkpt lat="45.5364668" lon="10.8323397"><ele>276.5</ele><time>2026-04-26T09:46:07.068Z</time></trkpt><trkpt lat="45.536587" lon="10.8324215"><ele>279.0</ele><time>2026-04-26T09:46:08.068Z</time></trkpt><trkpt lat="45.5367169" lon="10.8325272"><ele>281.5</ele><time>2026-04-26T09:46:09.068Z</time></trkpt><trkpt lat="45.5368587" lon="10.8326336"><ele>284.0</ele><time>2026-04-26T09:46:10.067Z</time></trkpt><trkpt lat="45.5369928" lon="10.8327339"><ele>289.6666666666667</ele><time>2026-04-26T09:46:11.068Z</time></trkpt><trkpt lat="45.5371399" lon="10.832839"><ele>295.3333333333333</ele><time>2026-04-26T09:46:12.067Z</time></trkpt><trkpt lat="45.5372892" lon="10.8329137"><ele>301.0</ele><time>2026-04-26T09:46:13.068Z</time></trkpt><trkpt lat="45.5374393" lon="10.8329506"><ele>301.0</ele><time>2026-04-26T09:46:14.067Z</time></trkpt><trkpt lat="45.5375745" lon="10.8329174"><ele>301.0</ele><time>2026-04-26T09:46:15.067Z</time></trkpt><trkpt lat="45.5377216" lon="10.8328365"><ele>301.0</ele><time>2026-04-26T09:46:16.067Z</time></trkpt><trkpt lat="45.5378726" lon="10.8327397"><ele>299.0</ele><time>2026-04-26T09:46:17.067Z</time></trkpt><trkpt lat="45.538014" lon="10.832631"><ele>297.0</ele><time>2026-04-26T09:46:18.067Z</time></trkpt><trkpt lat="45.5381543" lon="10.8325238"><ele>295.0</ele><time>2026-04-26T09:46:19.067Z</time></trkpt><trkpt lat="45.5382885" lon="10.8324228"><ele>295.0</ele><time>2026-04-26T09:46:20.068Z</time></trkpt><trkpt lat="45.5384153" lon="10.832341"><ele>295.0</ele><time>2026-04-26T09:46:21.067Z</time></trkpt><trkpt lat="45.5385373" lon="10.8323018"><ele>295.0</ele><time>2026-04-26T09:46:22.068Z</time></trkpt><trkpt lat="45.5386727" lon="10.8323006"><ele>295.0</ele><time>2026-04-26T09:46:23.067Z</time></trkpt><trkpt lat="45.5388003" lon="10.8323437"><ele>295.25</ele><time>2026-04-26T09:46:24.068Z</time></trkpt><trkpt lat="45.538925" lon="10.8324289"><ele>295.5</ele><time>2026-04-26T09:46:25.067Z</time></trkpt><trkpt lat="45.5390559" lon="10.8325391"><ele>295.75</ele><time>2026-04-26T09:46:26.068Z</time></trkpt><trkpt lat="45.5391806" lon="10.8326511"><ele>296.0</ele><time>2026-04-26T09:46:27.068Z</time></trkpt><trkpt lat="45.5392935" lon="10.8327713"><ele>298.5</ele><time>2026-04-26T09:46:28.068Z</time></trkpt><trkpt lat="45.5393915" lon="10.8328962"><ele>301.0</ele><time>2026-04-26T09:46:29.068Z</time></trkpt><trkpt lat="45.539469" lon="10.8330441"><ele>303.5</ele><time>2026-04-26T09:46:30.068Z</time></trkpt><trkpt lat="45.5395271" lon="10.8332099"><ele>306.0</ele><time>2026-04-26T09:46:31.068Z</time></trkpt><trkpt lat="45.5395705" lon="10.8333838"><ele>308.75</ele><time>2026-04-26T09:46:32.068Z</time></trkpt><trkpt lat="45.53962" lon="10.833541"><ele>311.5</ele><time>2026-04-26T09:46:33.067Z</time></trkpt><trkpt lat="45.539686" lon="10.8336817"><ele>314.25</ele><time>2026-04-26T09:46:34.067Z</time></trkpt><trkpt lat="45.5397818" lon="10.8337756"><ele>317.0</ele><time>2026-04-26T09:46:35.068Z</time></trkpt><trkpt lat="45.5399048" lon="10.8338519"><ele>317.0</ele><time>2026-04-26T09:46:36.067Z</time></trkpt><trkpt lat="45.5400381" lon="10.8338788"><ele>317.0</ele><time>2026-04-26T09:46:37.068Z</time></trkpt><trkpt lat="45.5401783" lon="10.83389"><ele>317.0</ele><time>2026-04-26T09:46:38.067Z</time></trkpt><trkpt lat="45.5403325" lon="10.8339019"><ele>317.0</ele><time>2026-04-26T09:46:39.067Z</time></trkpt><trkpt lat="45.5404936" lon="10.8339018"><ele>318.6666666666667</ele><time>2026-04-26T09:46:40.068Z</time></trkpt><trkpt lat="45.5406519" lon="10.8339063"><ele>320.3333333333333</ele><time>2026-04-26T09:46:41.068Z</time></trkpt><trkpt lat="45.5408125" lon="10.8339156"><ele>322.0</ele><time>2026-04-26T09:46:42.067Z</time></trkpt><trkpt lat="45.5409684" lon="10.8339314"><ele>322.0</ele><time>2026-04-26T09:46:43.067Z</time></trkpt><trkpt lat="45.5411147" lon="10.8339516"><ele>322.0</ele><time>2026-04-26T09:46:44.068Z</time></trkpt><trkpt lat="45.5412566" lon="10.8339687"><ele>322.0</ele><time>2026-04-26T09:46:45.068Z</time></trkpt><trkpt lat="45.5413911" lon="10.8339742"><ele>322.0</ele><time>2026-04-26T09:46:46.067Z</time></trkpt><trkpt lat="45.5415289" lon="10.8339766"><ele>322.5</ele><time>2026-04-26T09:46:47.067Z</time></trkpt><trkpt lat="45.5416628" lon="10.833994"><ele>323.0</ele><time>2026-04-26T09:46:48.067Z</time></trkpt><trkpt lat="45.5417903" lon="10.8340272"><ele>323.5</ele><time>2026-04-26T09:46:49.068Z</time></trkpt><trkpt lat="45.5419089" lon="10.8340859"><ele>324.0</ele><time>2026-04-26T09:46:50.068Z</time></trkpt><trkpt lat="45.5420245" lon="10.8341781"><ele>322.25</ele><time>2026-04-26T09:46:51.067Z</time></trkpt><trkpt lat="45.5421294" lon="10.8342821"><ele>320.5</ele><time>2026-04-26T09:46:52.068Z</time></trkpt><trkpt lat="45.5422363" lon="10.8343776"><ele>318.75</ele><time>2026-04-26T09:46:53.067Z</time></trkpt><trkpt lat="45.5423473" lon="10.8344688"><ele>317.0</ele><time>2026-04-26T09:46:54.067Z</time></trkpt><trkpt lat="45.5424694" lon="10.8345436"><ele>320.75</ele><time>2026-04-26T09:46:55.067Z</time></trkpt><trkpt lat="45.5425986" lon="10.8346029"><ele>324.5</ele><time>2026-04-26T09:46:56.068Z</time></trkpt><trkpt lat="45.5427449" lon="10.8346494"><ele>328.25</ele><time>2026-04-26T09:46:57.067Z</time></trkpt><trkpt lat="45.5429057" lon="10.8346584"><ele>332.0</ele><time>2026-04-26T09:46:58.068Z</time></trkpt><trkpt lat="45.5430888" lon="10.8346747"><ele>332.0</ele><time>2026-04-26T09:46:59.067Z</time></trkpt><trkpt lat="45.5432867" lon="10.8346824"><ele>332.0</ele><time>2026-04-26T09:47:00.068Z</time></trkpt><trkpt lat="45.5434808" lon="10.8347081"><ele>332.0</ele><time>2026-04-26T09:47:01.068Z</time></trkpt><trkpt lat="45.543672" lon="10.8347355"><ele>333.33333333333337</ele><time>2026-04-26T09:47:02.068Z</time></trkpt><trkpt lat="45.5438652" lon="10.8347492"><ele>334.6666666666667</ele><time>2026-04-26T09:47:03.068Z</time></trkpt><trkpt lat="45.544046" lon="10.8347537"><ele>336.0</ele><time>2026-04-26T09:47:04.067Z</time></trkpt><trkpt lat="45.5442142" lon="10.834766"><ele>336.0</ele><time>2026-04-26T09:47:05.067Z</time></trkpt><trkpt lat="45.5443695" lon="10.8347747"><ele>336.0</ele><time>2026-04-26T09:47:06.068Z</time></trkpt><trkpt lat="45.5445156" lon="10.8347961"><ele>336.0</ele><time>2026-04-26T09:47:07.067Z</time></trkpt><trkpt lat="45.5446417" lon="10.8348331"><ele>336.0</ele><time>2026-04-26T09:47:08.068Z</time></trkpt><trkpt lat="45.5447591" lon="10.8348742"><ele>335.75</ele><time>2026-04-26T09:47:09.068Z</time></trkpt><trkpt lat="45.5448698" lon="10.8349206"><ele>335.5</ele><time>2026-04-26T09:47:10.067Z</time></trkpt><trkpt lat="45.5449681" lon="10.8349773"><ele>335.25</ele><time>2026-04-26T09:47:11.068Z</time></trkpt><trkpt lat="45.5450644" lon="10.8350545"><ele>335.0</ele><time>2026-04-26T09:47:12.068Z</time></trkpt><trkpt lat="45.5451582" lon="10.8351639"><ele>336.25</ele><time>2026-04-26T09:47:13.068Z</time></trkpt><trkpt lat="45.5452474" lon="10.8352859"><ele>337.5</ele><time>2026-04-26T09:47:14.067Z</time></trkpt><trkpt lat="45.5453267" lon="10.8354278"><ele>338.75</ele><time>2026-04-26T09:47:15.067Z</time></trkpt><trkpt lat="45.5454009" lon="10.8355679"><ele>340.0</ele><time>2026-04-26T09:47:16.068Z</time></trkpt><trkpt lat="45.5454629" lon="10.8357144"><ele>340.0</ele><time>2026-04-26T09:47:17.068Z</time></trkpt><trkpt lat="45.5455033" lon="10.8358774"><ele>340.0</ele><time>2026-04-26T09:47:18.068Z</time></trkpt><trkpt lat="45.5455227" lon="10.8360245"><ele>340.0</ele><time>2026-04-26T09:47:19.068Z</time></trkpt><trkpt lat="45.5455111" lon="10.8361585"><ele>340.0</ele><time>2026-04-26T09:47:20.067Z</time></trkpt><trkpt lat="45.5454762" lon="10.8362936"><ele>340.0</ele><time>2026-04-26T09:47:21.068Z</time></trkpt><trkpt lat="45.54542" lon="10.8364088"><ele>342.2</ele><time>2026-04-26T09:47:22.067Z</time></trkpt><trkpt lat="45.5453541" lon="10.8365166"><ele>344.4</ele><time>2026-04-26T09:47:23.068Z</time></trkpt><trkpt lat="45.5452751" lon="10.8366149"><ele>346.6</ele><time>2026-04-26T09:47:24.067Z</time></trkpt><trkpt lat="45.5451742" lon="10.8366987"><ele>348.8</ele><time>2026-04-26T09:47:25.068Z</time></trkpt><trkpt lat="45.5450562" lon="10.836759"><ele>351.0</ele><time>2026-04-26T09:47:26.068Z</time></trkpt><trkpt lat="45.5449278" lon="10.8368059"><ele>351.0</ele><time>2026-04-26T09:47:27.067Z</time></trkpt><trkpt lat="45.5448019" lon="10.8368384"><ele>351.0</ele><time>2026-04-26T09:47:28.068Z</time></trkpt><trkpt lat="45.5446882" lon="10.8368614"><ele>351.0</ele><time>2026-04-26T09:47:29.068Z</time></trkpt><trkpt lat="45.5445973" lon="10.8368745"><ele>351.0</ele><time>2026-04-26T09:47:30.068Z</time></trkpt><trkpt lat="45.5445048" lon="10.836899"><ele>351.0</ele><time>2026-04-26T09:47:32.067Z</time></trkpt><trkpt lat="45.5445902" lon="10.836957"><ele>351.0</ele><time>2026-04-26T09:47:40.068Z</time></trkpt><trkpt lat="45.5447518" lon="10.8368992"><ele>351.0</ele><time>2026-04-26T09:47:42.068Z</time></trkpt><trkpt lat="45.5448691" lon="10.8368398"><ele>351.0</ele><time>2026-04-26T09:47:43.068Z</time></trkpt><trkpt lat="45.5449965" lon="10.836776"><ele>351.0</ele><time>2026-04-26T09:47:44.068Z</time></trkpt><trkpt lat="45.545118" lon="10.8367079"><ele>351.25</ele><time>2026-04-26T09:47:45.068Z</time></trkpt><trkpt lat="45.5452229" lon="10.8366298"><ele>351.5</ele><time>2026-04-26T09:47:46.068Z</time></trkpt><trkpt lat="45.5453196" lon="10.8365318"><ele>351.75</ele><time>2026-04-26T09:47:47.067Z</time></trkpt><trkpt lat="45.5454071" lon="10.8364135"><ele>352.0</ele><time>2026-04-26T09:47:48.068Z</time></trkpt><trkpt lat="45.5454757" lon="10.8362845"><ele>350.40000000000003</ele><time>2026-04-26T09:47:49.067Z</time></trkpt><trkpt lat="45.5455266" lon="10.8361379"><ele>348.8</ele><time>2026-04-26T09:47:50.067Z</time></trkpt><trkpt lat="45.5455525" lon="10.8359931"><ele>347.2</ele><time>2026-04-26T09:47:51.068Z</time></trkpt><trkpt lat="45.5455515" lon="10.8358528"><ele>345.6</ele><time>2026-04-26T09:47:52.068Z</time></trkpt><trkpt lat="45.5455194" lon="10.8357103"><ele>344.0</ele><time>2026-04-26T09:47:53.068Z</time></trkpt><trkpt lat="45.5454571" lon="10.8355692"><ele>344.5</ele><time>2026-04-26T09:47:54.067Z</time></trkpt><trkpt lat="45.5453686" lon="10.8354134"><ele>345.0</ele><time>2026-04-26T09:47:55.068Z</time></trkpt><trkpt lat="45.545267" lon="10.8352637"><ele>345.5</ele><time>2026-04-26T09:47:56.068Z</time></trkpt><trkpt lat="45.5451511" lon="10.8351125"><ele>346.0</ele><time>2026-04-26T09:47:57.067Z</time></trkpt><trkpt lat="45.5450254" lon="10.8349832"><ele>343.25</ele><time>2026-04-26T09:47:58.068Z</time></trkpt><trkpt lat="45.544902" lon="10.8348767"><ele>340.5</ele><time>2026-04-26T09:47:59.067Z</time></trkpt><trkpt lat="45.5447812" lon="10.8348028"><ele>337.75</ele><time>2026-04-26T09:48:00.067Z</time></trkpt><trkpt lat="45.5446781" lon="10.8347682"><ele>335.0</ele><time>2026-04-26T09:48:01.068Z</time></trkpt><trkpt lat="45.5445819" lon="10.8347507"><ele>335.0</ele><time>2026-04-26T09:48:02.068Z</time></trkpt><trkpt lat="45.5445001" lon="10.8347427"><ele>335.0</ele><time>2026-04-26T09:48:03.068Z</time></trkpt><trkpt lat="45.5444358" lon="10.8347367"><ele>335.0</ele><time>2026-04-26T09:48:04.068Z</time></trkpt><trkpt lat="45.5443674" lon="10.8347501"><ele>335.0</ele><time>2026-04-26T09:48:07.067Z</time></trkpt><trkpt lat="45.5444139" lon="10.83468"><ele>335.0</ele><time>2026-04-26T09:48:32.066Z</time></trkpt><trkpt lat="45.5445232" lon="10.8346869"><ele>335.0</ele><time>2026-04-26T09:48:34.066Z</time></trkpt><trkpt lat="45.5446083" lon="10.8347019"><ele>335.0</ele><time>2026-04-26T09:48:35.067Z</time></trkpt><trkpt lat="45.5447056" lon="10.8347198"><ele>335.0</ele><time>2026-04-26T09:48:36.066Z</time></trkpt><trkpt lat="45.5448033" lon="10.8347498"><ele>335.0</ele><time>2026-04-26T09:48:37.067Z</time></trkpt><trkpt lat="45.5448924" lon="10.8347884"><ele>335.0</ele><time>2026-04-26T09:48:38.067Z</time></trkpt><trkpt lat="45.5449788" lon="10.8348308"><ele>335.0</ele><time>2026-04-26T09:48:39.067Z</time></trkpt><trkpt lat="45.5450669" lon="10.8348705"><ele>335.0</ele><time>2026-04-26T09:48:40.067Z</time></trkpt><trkpt lat="45.5451543" lon="10.8349131"><ele>335.0</ele><time>2026-04-26T09:48:41.066Z</time></trkpt><trkpt lat="45.545231" lon="10.8349672"><ele>335.0</ele><time>2026-04-26T09:48:42.067Z</time></trkpt><trkpt lat="45.5453112" lon="10.8350323"><ele>335.0</ele><time>2026-04-26T09:48:43.066Z</time></trkpt><trkpt lat="45.5454003" lon="10.8351127"><ele>335.0</ele><time>2026-04-26T09:48:44.067Z</time></trkpt><trkpt lat="45.545492" lon="10.8351989"><ele>336.0</ele><time>2026-04-26T09:48:45.066Z</time></trkpt><trkpt lat="45.5455814" lon="10.8352847"><ele>337.0</ele><time>2026-04-26T09:48:46.067Z</time></trkpt><trkpt lat="45.545669" lon="10.8353727"><ele>338.0</ele><time>2026-04-26T09:48:47.067Z</time></trkpt><trkpt lat="45.5457562" lon="10.8354555"><ele>339.0</ele><time>2026-04-26T09:48:48.067Z</time></trkpt><trkpt lat="45.545852" lon="10.8355201"><ele>340.0</ele><time>2026-04-26T09:48:49.067Z</time></trkpt><trkpt lat="45.5459542" lon="10.8355708"><ele>340.0</ele><time>2026-04-26T09:48:50.067Z</time></trkpt><trkpt lat="45.5460643" lon="10.8356111"><ele>340.0</ele><time>2026-04-26T09:48:51.067Z</time></trkpt><trkpt lat="45.5461764" lon="10.8356448"><ele>340.0</ele><time>2026-04-26T09:48:52.067Z</time></trkpt><trkpt lat="45.5462924" lon="10.8356769"><ele>340.0</ele><time>2026-04-26T09:48:53.066Z</time></trkpt><trkpt lat="45.5464083" lon="10.8356999"><ele>338.0</ele><time>2026-04-26T09:48:54.067Z</time></trkpt><trkpt lat="45.5465301" lon="10.8357312"><ele>336.0</ele><time>2026-04-26T09:48:55.066Z</time></trkpt><trkpt lat="45.5466448" lon="10.8357633"><ele>334.0</ele><time>2026-04-26T09:48:56.067Z</time></trkpt><trkpt lat="45.5467614" lon="10.8358017"><ele>332.0</ele><time>2026-04-26T09:48:57.066Z</time></trkpt><trkpt lat="45.5468784" lon="10.8358433"><ele>332.0</ele><time>2026-04-26T09:48:58.066Z</time></trkpt><trkpt lat="45.5469926" lon="10.8358866"><ele>332.0</ele><time>2026-04-26T09:48:59.066Z</time></trkpt><trkpt lat="45.547105" lon="10.8359286"><ele>332.0</ele><time>2026-04-26T09:49:00.066Z</time></trkpt><trkpt lat="45.5472204" lon="10.8359673"><ele>332.0</ele><time>2026-04-26T09:49:01.067Z</time></trkpt><trkpt lat="45.547331" lon="10.8360019"><ele>332.40000000000003</ele><time>2026-04-26T09:49:02.066Z</time></trkpt><trkpt lat="45.5474318" lon="10.8360361"><ele>332.8</ele><time>2026-04-26T09:49:03.067Z</time></trkpt><trkpt lat="45.5475274" lon="10.8360631"><ele>333.2</ele><time>2026-04-26T09:49:04.066Z</time></trkpt><trkpt lat="45.5476181" lon="10.8360839"><ele>333.6</ele><time>2026-04-26T09:49:05.066Z</time></trkpt><trkpt lat="45.5477038" lon="10.8360964"><ele>334.0</ele><time>2026-04-26T09:49:06.067Z</time></trkpt><trkpt lat="45.5477842" lon="10.8361069"><ele>334.0</ele><time>2026-04-26T09:49:07.067Z</time></trkpt><trkpt lat="45.5478581" lon="10.8361192"><ele>334.0</ele><time>2026-04-26T09:49:08.066Z</time></trkpt><trkpt lat="45.5479219" lon="10.8361319"><ele>334.0</ele><time>2026-04-26T09:49:09.067Z</time></trkpt><trkpt lat="45.5479892" lon="10.8361596"><ele>334.0</ele><time>2026-04-26T09:49:10.067Z</time></trkpt><trkpt lat="45.5480605" lon="10.8361932"><ele>334.0</ele><time>2026-04-26T09:49:11.066Z</time></trkpt><trkpt lat="45.5481399" lon="10.8362441"><ele>334.0</ele><time>2026-04-26T09:49:12.066Z</time></trkpt><trkpt lat="45.5482188" lon="10.8363127"><ele>333.5</ele><time>2026-04-26T09:49:13.067Z</time></trkpt><trkpt lat="45.5482906" lon="10.8363988"><ele>333.0</ele><time>2026-04-26T09:49:14.066Z</time></trkpt><trkpt lat="45.5483515" lon="10.8364984"><ele>332.5</ele><time>2026-04-26T09:49:15.067Z</time></trkpt><trkpt lat="45.5484002" lon="10.83661"><ele>332.0</ele><time>2026-04-26T09:49:16.066Z</time></trkpt><trkpt lat="45.5484397" lon="10.8367157"><ele>331.5</ele><time>2026-04-26T09:49:17.067Z</time></trkpt><trkpt lat="45.5484784" lon="10.8368184"><ele>331.0</ele><time>2026-04-26T09:49:18.067Z</time></trkpt><trkpt lat="45.54852" lon="10.836897"><ele>331.8</ele><time>2026-04-26T09:49:19.067Z</time></trkpt><trkpt lat="45.5485813" lon="10.8369513"><ele>332.6</ele><time>2026-04-26T09:49:21.067Z</time></trkpt><trkpt lat="45.5486464" lon="10.8369349"><ele>333.4</ele><time>2026-04-26T09:49:23.067Z</time></trkpt><trkpt lat="45.5487281" lon="10.8368662"><ele>334.2</ele><time>2026-04-26T09:49:25.067Z</time></trkpt><trkpt lat="45.5488106" lon="10.836708"><ele>335.0</ele><time>2026-04-26T09:49:27.067Z</time></trkpt><trkpt lat="45.5488687" lon="10.83658"><ele>335.0</ele><time>2026-04-26T09:49:28.067Z</time></trkpt><trkpt lat="45.5489418" lon="10.8364488"><ele>335.0</ele><time>2026-04-26T09:49:29.067Z</time></trkpt><trkpt lat="45.5490204" lon="10.8362985"><ele>335.0</ele><time>2026-04-26T09:49:30.067Z</time></trkpt><trkpt lat="45.5490924" lon="10.836154"><ele>335.0</ele><time>2026-04-26T09:49:31.066Z</time></trkpt><trkpt lat="45.5491547" lon="10.8360244"><ele>333.2</ele><time>2026-04-26T09:49:32.066Z</time></trkpt><trkpt lat="45.5492153" lon="10.8359169"><ele>331.4</ele><time>2026-04-26T09:49:33.067Z</time></trkpt><trkpt lat="45.5492812" lon="10.8358073"><ele>329.6</ele><time>2026-04-26T09:49:34.067Z</time></trkpt><trkpt lat="45.5493536" lon="10.8357062"><ele>327.8</ele><time>2026-04-26T09:49:35.067Z</time></trkpt><trkpt lat="45.5494255" lon="10.8355938"><ele>326.0</ele><time>2026-04-26T09:49:36.067Z</time></trkpt><trkpt lat="45.5494979" lon="10.8354825"><ele>327.20000000000005</ele><time>2026-04-26T09:49:37.067Z</time></trkpt><trkpt lat="45.5495751" lon="10.8353821"><ele>328.40000000000003</ele><time>2026-04-26T09:49:38.067Z</time></trkpt><trkpt lat="45.5496602" lon="10.8352828"><ele>329.6</ele><time>2026-04-26T09:49:39.067Z</time></trkpt><trkpt lat="45.549746" lon="10.8351944"><ele>330.8</ele><time>2026-04-26T09:49:40.067Z</time></trkpt><trkpt lat="45.5498317" lon="10.8351157"><ele>332.0</ele><time>2026-04-26T09:49:41.066Z</time></trkpt><trkpt lat="45.5499118" lon="10.8350452"><ele>330.0</ele><time>2026-04-26T09:49:42.067Z</time></trkpt><trkpt lat="45.5499935" lon="10.83499"><ele>328.0</ele><time>2026-04-26T09:49:43.067Z</time></trkpt><trkpt lat="45.5500659" lon="10.8349538"><ele>326.0</ele><time>2026-04-26T09:49:44.067Z</time></trkpt><trkpt lat="45.5501363" lon="10.8349526"><ele>324.0</ele><time>2026-04-26T09:49:45.067Z</time></trkpt><trkpt lat="45.5502131" lon="10.8349713"><ele>322.0</ele><time>2026-04-26T09:49:46.066Z</time></trkpt><trkpt lat="45.5502979" lon="10.8350083"><ele>320.0</ele><time>2026-04-26T09:49:47.066Z</time></trkpt><trkpt lat="45.5503885" lon="10.8350634"><ele>322.4</ele><time>2026-04-26T09:49:48.067Z</time></trkpt><trkpt lat="45.5504934" lon="10.8351409"><ele>324.8</ele><time>2026-04-26T09:49:49.067Z</time></trkpt><trkpt lat="45.5505996" lon="10.8352284"><ele>327.20000000000005</ele><time>2026-04-26T09:49:50.067Z</time></trkpt><trkpt lat="45.5506976" lon="10.835301"><ele>329.6</ele><time>2026-04-26T09:49:51.066Z</time></trkpt><trkpt lat="45.5507865" lon="10.8353612"><ele>332.0</ele><time>2026-04-26T09:49:52.066Z</time></trkpt><trkpt lat="45.5508733" lon="10.8354222"><ele>332.0</ele><time>2026-04-26T09:49:53.067Z</time></trkpt><trkpt lat="45.5509606" lon="10.8354821"><ele>332.0</ele><time>2026-04-26T09:49:54.067Z</time></trkpt><trkpt lat="45.5510577" lon="10.8355452"><ele>332.0</ele><time>2026-04-26T09:49:55.067Z</time></trkpt><trkpt lat="45.5511573" lon="10.8356003"><ele>332.0</ele><time>2026-04-26T09:49:56.066Z</time></trkpt><trkpt lat="45.5512507" lon="10.8356525"><ele>332.0</ele><time>2026-04-26T09:49:57.067Z</time></trkpt><trkpt lat="45.5513383" lon="10.835713"><ele>331.20000000000005</ele><time>2026-04-26T09:49:58.066Z</time></trkpt><trkpt lat="45.5514221" lon="10.8357704"><ele>330.4</ele><time>2026-04-26T09:49:59.066Z</time></trkpt><trkpt lat="45.5515048" lon="10.8358041"><ele>329.6</ele><time>2026-04-26T09:50:00.067Z</time></trkpt><trkpt lat="45.5515904" lon="10.8358308"><ele>328.79999999999995</ele><time>2026-04-26T09:50:01.067Z</time></trkpt><trkpt lat="45.5516847" lon="10.8358475"><ele>328.0</ele><time>2026-04-26T09:50:02.067Z</time></trkpt><trkpt lat="45.5517786" lon="10.8358554"><ele>328.0</ele><time>2026-04-26T09:50:03.066Z</time></trkpt><trkpt lat="45.5518734" lon="10.8358468"><ele>328.0</ele><time>2026-04-26T09:50:04.067Z</time></trkpt><trkpt lat="45.551973" lon="10.8358324"><ele>328.0</ele><time>2026-04-26T09:50:05.067Z</time></trkpt><trkpt lat="45.5520767" lon="10.835823"><ele>328.0</ele><time>2026-04-26T09:50:06.067Z</time></trkpt><trkpt lat="45.552177" lon="10.8358169"><ele>328.0</ele><time>2026-04-26T09:50:07.067Z</time></trkpt><trkpt lat="45.5522709" lon="10.8358044"><ele>327.4</ele><time>2026-04-26T09:50:08.067Z</time></trkpt><trkpt lat="45.55236" lon="10.8358047"><ele>326.79999999999995</ele><time>2026-04-26T09:50:09.067Z</time></trkpt><trkpt lat="45.5524524" lon="10.8358187"><ele>326.2</ele><time>2026-04-26T09:50:10.067Z</time></trkpt><trkpt lat="45.5525545" lon="10.835842"><ele>325.6</ele><time>2026-04-26T09:50:11.067Z</time></trkpt><trkpt lat="45.5526564" lon="10.8358661"><ele>325.0</ele><time>2026-04-26T09:50:12.066Z</time></trkpt><trkpt lat="45.5527522" lon="10.8358909"><ele>325.0</ele><time>2026-04-26T09:50:13.066Z</time></trkpt><trkpt lat="45.5528442" lon="10.8359079"><ele>325.0</ele><time>2026-04-26T09:50:14.066Z</time></trkpt><trkpt lat="45.5529317" lon="10.8359253"><ele>325.0</ele><time>2026-04-26T09:50:15.067Z</time></trkpt><trkpt lat="45.5530134" lon="10.83595"><ele>325.0</ele><time>2026-04-26T09:50:16.067Z</time></trkpt><trkpt lat="45.5530888" lon="10.8359807"><ele>325.0</ele><time>2026-04-26T09:50:17.067Z</time></trkpt><trkpt lat="45.55316" lon="10.8360189"><ele>325.0</ele><time>2026-04-26T09:50:18.066Z</time></trkpt><trkpt lat="45.5532305" lon="10.8360602"><ele>325.66666666666663</ele><time>2026-04-26T09:50:19.067Z</time></trkpt><trkpt lat="45.5533033" lon="10.8360949"><ele>326.3333333333333</ele><time>2026-04-26T09:50:20.067Z</time></trkpt><trkpt lat="45.5533762" lon="10.836137"><ele>327.0</ele><time>2026-04-26T09:50:21.066Z</time></trkpt><trkpt lat="45.553457" lon="10.8361927"><ele>327.6666666666667</ele><time>2026-04-26T09:50:22.066Z</time></trkpt><trkpt lat="45.5535415" lon="10.8362522"><ele>328.33333333333337</ele><time>2026-04-26T09:50:23.067Z</time></trkpt><trkpt lat="45.5536264" lon="10.8363107"><ele>329.0</ele><time>2026-04-26T09:50:24.066Z</time></trkpt><trkpt lat="45.5537131" lon="10.8363613"><ele>329.0</ele><time>2026-04-26T09:50:25.066Z</time></trkpt><trkpt lat="45.5537928" lon="10.836407"><ele>329.0</ele><time>2026-04-26T09:50:26.066Z</time></trkpt><trkpt lat="45.5538701" lon="10.8364387"><ele>329.0</ele><time>2026-04-26T09:50:27.066Z</time></trkpt><trkpt lat="45.5539553" lon="10.8364534"><ele>329.0</ele><time>2026-04-26T09:50:28.066Z</time></trkpt><trkpt lat="45.5540484" lon="10.8364606"><ele>329.0</ele><time>2026-04-26T09:50:29.067Z</time></trkpt><trkpt lat="45.5541464" lon="10.8364566"><ele>329.0</ele><time>2026-04-26T09:50:30.067Z</time></trkpt><trkpt lat="45.5542429" lon="10.8364592"><ele>329.0</ele><time>2026-04-26T09:50:31.066Z</time></trkpt><trkpt lat="45.5543317" lon="10.8364648"><ele>329.0</ele><time>2026-04-26T09:50:32.066Z</time></trkpt><trkpt lat="45.5544153" lon="10.8364772"><ele>329.0</ele><time>2026-04-26T09:50:33.067Z</time></trkpt><trkpt lat="45.5544916" lon="10.8364949"><ele>329.0</ele><time>2026-04-26T09:50:34.067Z</time></trkpt><trkpt lat="45.5545602" lon="10.836522"><ele>329.0</ele><time>2026-04-26T09:50:35.066Z</time></trkpt><trkpt lat="45.5546323" lon="10.83656"><ele>329.0</ele><time>2026-04-26T09:50:36.067Z</time></trkpt><trkpt lat="45.5547068" lon="10.8366054"><ele>328.83333333333337</ele><time>2026-04-26T09:50:37.067Z</time></trkpt><trkpt lat="45.5547786" lon="10.836659"><ele>328.6666666666667</ele><time>2026-04-26T09:50:38.066Z</time></trkpt><trkpt lat="45.5548518" lon="10.8367207"><ele>328.5</ele><time>2026-04-26T09:50:39.067Z</time></trkpt><trkpt lat="45.5549236" lon="10.8367903"><ele>328.3333333333333</ele><time>2026-04-26T09:50:40.066Z</time></trkpt><trkpt lat="45.5549949" lon="10.8368675"><ele>328.16666666666663</ele><time>2026-04-26T09:50:41.066Z</time></trkpt><trkpt lat="45.5550661" lon="10.8369418"><ele>328.0</ele><time>2026-04-26T09:50:42.066Z</time></trkpt><trkpt lat="45.5551388" lon="10.8370093"><ele>328.0</ele><time>2026-04-26T09:50:43.067Z</time></trkpt><trkpt lat="45.5552042" lon="10.8370842"><ele>328.0</ele><time>2026-04-26T09:50:44.067Z</time></trkpt><trkpt lat="45.5552655" lon="10.8371611"><ele>328.0</ele><time>2026-04-26T09:50:45.067Z</time></trkpt><trkpt lat="45.5553211" lon="10.8372361"><ele>328.0</ele><time>2026-04-26T09:50:46.066Z</time></trkpt><trkpt lat="45.5553678" lon="10.8373143"><ele>328.0</ele><time>2026-04-26T09:50:47.067Z</time></trkpt><trkpt lat="45.5554009" lon="10.8373965"><ele>328.0</ele><time>2026-04-26T09:50:48.067Z</time></trkpt><trkpt lat="45.5554275" lon="10.8374975"><ele>326.4285714285714</ele><time>2026-04-26T09:50:49.066Z</time></trkpt><trkpt lat="45.5554468" lon="10.8376086"><ele>324.85714285714283</ele><time>2026-04-26T09:50:50.067Z</time></trkpt><trkpt lat="45.5554667" lon="10.837722"><ele>323.2857142857143</ele><time>2026-04-26T09:50:51.067Z</time></trkpt><trkpt lat="45.5554756" lon="10.8378236"><ele>321.71428571428567</ele><time>2026-04-26T09:50:52.066Z</time></trkpt><trkpt lat="45.5554834" lon="10.8379224"><ele>320.1428571428571</ele><time>2026-04-26T09:50:53.066Z</time></trkpt><trkpt lat="45.5554764" lon="10.8380229"><ele>318.57142857142856</ele><time>2026-04-26T09:50:54.066Z</time></trkpt><trkpt lat="45.5554621" lon="10.838121"><ele>317.0</ele><time>2026-04-26T09:50:55.067Z</time></trkpt><trkpt lat="45.5554457" lon="10.8382213"><ele>317.0</ele><time>2026-04-26T09:50:56.066Z</time></trkpt><trkpt lat="45.5554232" lon="10.838329"><ele>317.0</ele><time>2026-04-26T09:50:57.066Z</time></trkpt><trkpt lat="45.555387" lon="10.838441"><ele>317.0</ele><time>2026-04-26T09:50:58.067Z</time></trkpt><trkpt lat="45.5553467" lon="10.8385344"><ele>317.0</ele><time>2026-04-26T09:50:59.067Z</time></trkpt><trkpt lat="45.5553074" lon="10.8386205"><ele>317.0</ele><time>2026-04-26T09:51:00.067Z</time></trkpt><trkpt lat="45.5552747" lon="10.8387748"><ele>317.0</ele><time>2026-04-26T09:51:02.066Z</time></trkpt><trkpt lat="45.5553063" lon="10.8389127"><ele>319.8</ele><time>2026-04-26T09:51:04.066Z</time></trkpt><trkpt lat="45.5554079" lon="10.8389396"><ele>322.6</ele><time>2026-04-26T09:51:06.066Z</time></trkpt><trkpt lat="45.555488" lon="10.8389034"><ele>325.40000000000003</ele><time>2026-04-26T09:51:07.066Z</time></trkpt><trkpt lat="45.5555785" lon="10.8388491"><ele>328.2</ele><time>2026-04-26T09:51:08.067Z</time></trkpt><trkpt lat="45.5556787" lon="10.8387932"><ele>331.0</ele><time>2026-04-26T09:51:09.067Z</time></trkpt><trkpt lat="45.5557806" lon="10.8387361"><ele>331.0</ele><time>2026-04-26T09:51:10.067Z</time></trkpt><trkpt lat="45.5558864" lon="10.8386949"><ele>331.0</ele><time>2026-04-26T09:51:11.067Z</time></trkpt><trkpt lat="45.5559783" lon="10.8386702"><ele>331.0</ele><time>2026-04-26T09:51:12.067Z</time></trkpt><trkpt lat="45.5560616" lon="10.8386714"><ele>331.0</ele><time>2026-04-26T09:51:13.066Z</time></trkpt><trkpt lat="45.5561172" lon="10.8387187"><ele>331.0</ele><time>2026-04-26T09:51:14.067Z</time></trkpt><trkpt lat="45.5561631" lon="10.8387972"><ele>331.0</ele><time>2026-04-26T09:51:15.067Z</time></trkpt><trkpt lat="45.5562087" lon="10.8389025"><ele>331.0</ele><time>2026-04-26T09:51:16.066Z</time></trkpt><trkpt lat="45.5562485" lon="10.8390242"><ele>331.0</ele><time>2026-04-26T09:51:17.067Z</time></trkpt><trkpt lat="45.5562841" lon="10.8391409"><ele>331.0</ele><time>2026-04-26T09:51:18.066Z</time></trkpt><trkpt lat="45.5563181" lon="10.8392507"><ele>331.0</ele><time>2026-04-26T09:51:19.066Z</time></trkpt><trkpt lat="45.5563337" lon="10.8393543"><ele>331.0</ele><time>2026-04-26T09:51:20.066Z</time></trkpt><trkpt lat="45.5563327" lon="10.8394539"><ele>331.0</ele><time>2026-04-26T09:51:21.066Z</time></trkpt><trkpt lat="45.5563167" lon="10.8395449"><ele>331.0</ele><time>2026-04-26T09:51:22.065Z</time></trkpt><trkpt lat="45.5563308" lon="10.8396908"><ele>331.0</ele><time>2026-04-26T09:51:24.066Z</time></trkpt><trkpt lat="45.5563873" lon="10.8397764"><ele>331.0</ele><time>2026-04-26T09:51:26.066Z</time></trkpt><trkpt lat="45.5565356" lon="10.8397242"><ele>331.0</ele><time>2026-04-26T09:51:28.066Z</time></trkpt><trkpt lat="45.5566296" lon="10.8396839"><ele>331.0</ele><time>2026-04-26T09:51:29.066Z</time></trkpt><trkpt lat="45.556721" lon="10.8396572"><ele>331.0</ele><time>2026-04-26T09:51:30.066Z</time></trkpt><trkpt lat="45.5567918" lon="10.8396679"><ele>331.0</ele><time>2026-04-26T09:51:31.066Z</time></trkpt><trkpt lat="45.5568478" lon="10.8397124"><ele>331.0</ele><time>2026-04-26T09:51:32.065Z</time></trkpt><trkpt lat="45.5569032" lon="10.8397853"><ele>331.0</ele><time>2026-04-26T09:51:33.066Z</time></trkpt><trkpt lat="45.5569457" lon="10.8398792"><ele>331.0</ele><time>2026-04-26T09:51:34.066Z</time></trkpt><trkpt lat="45.5569892" lon="10.8399935"><ele>331.0</ele><time>2026-04-26T09:51:35.065Z</time></trkpt><trkpt lat="45.5570192" lon="10.8401135"><ele>332.3333333333333</ele><time>2026-04-26T09:51:36.066Z</time></trkpt><trkpt lat="45.5570639" lon="10.8402292"><ele>333.66666666666663</ele><time>2026-04-26T09:51:37.065Z</time></trkpt><trkpt lat="45.5571024" lon="10.8403307"><ele>335.0</ele><time>2026-04-26T09:51:38.065Z</time></trkpt><trkpt lat="45.5571305" lon="10.8404179"><ele>336.3333333333333</ele><time>2026-04-26T09:51:39.066Z</time></trkpt><trkpt lat="45.5572091" lon="10.840547"><ele>337.6666666666667</ele><time>2026-04-26T09:51:41.065Z</time></trkpt><trkpt lat="45.5572673" lon="10.8406088"><ele>339.0</ele><time>2026-04-26T09:51:42.065Z</time></trkpt><trkpt lat="45.5573294" lon="10.8406761"><ele>339.0</ele><time>2026-04-26T09:51:43.066Z</time></trkpt><trkpt lat="45.557394" lon="10.8407399"><ele>339.0</ele><time>2026-04-26T09:51:44.065Z</time></trkpt><trkpt lat="45.5574581" lon="10.8407835"><ele>339.0</ele><time>2026-04-26T09:51:45.066Z</time></trkpt><trkpt lat="45.5575218" lon="10.8408028"><ele>339.0</ele><time>2026-04-26T09:51:46.065Z</time></trkpt><trkpt lat="45.5576123" lon="10.8408193"><ele>339.0</ele><time>2026-04-26T09:51:47.066Z</time></trkpt><trkpt lat="45.5577042" lon="10.8407415"><ele>339.0</ele><time>2026-04-26T09:51:49.066Z</time></trkpt><trkpt lat="45.5577183" lon="10.8406033"><ele>339.0</ele><time>2026-04-26T09:51:51.066Z</time></trkpt><trkpt lat="45.5576807" lon="10.8405257"><ele>339.0</ele><time>2026-04-26T09:51:52.066Z</time></trkpt><trkpt lat="45.5576255" lon="10.8404394"><ele>339.0</ele><time>2026-04-26T09:51:53.066Z</time></trkpt><trkpt lat="45.5575867" lon="10.8403307"><ele>339.0</ele><time>2026-04-26T09:51:54.066Z</time></trkpt><trkpt lat="45.5575583" lon="10.8402251"><ele>339.0</ele><time>2026-04-26T09:51:55.065Z</time></trkpt><trkpt lat="45.5575377" lon="10.8401241"><ele>339.0</ele><time>2026-04-26T09:51:56.066Z</time></trkpt><trkpt lat="45.5575163" lon="10.8400315"><ele>337.0</ele><time>2026-04-26T09:51:57.066Z</time></trkpt><trkpt lat="45.5574969" lon="10.8399247"><ele>335.0</ele><time>2026-04-26T09:51:58.066Z</time></trkpt><trkpt lat="45.5574826" lon="10.8398118"><ele>333.0</ele><time>2026-04-26T09:51:59.066Z</time></trkpt><trkpt lat="45.5574671" lon="10.8396935"><ele>331.0</ele><time>2026-04-26T09:52:00.065Z</time></trkpt><trkpt lat="45.5574597" lon="10.8395542"><ele>329.0</ele><time>2026-04-26T09:52:01.065Z</time></trkpt><trkpt lat="45.5574496" lon="10.8394023"><ele>327.0</ele><time>2026-04-26T09:52:02.066Z</time></trkpt><trkpt lat="45.557432" lon="10.8392484"><ele>326.40000000000003</ele><time>2026-04-26T09:52:03.066Z</time></trkpt><trkpt lat="45.5574131" lon="10.8390976"><ele>325.8</ele><time>2026-04-26T09:52:04.066Z</time></trkpt><trkpt lat="45.5573906" lon="10.8389585"><ele>325.2</ele><time>2026-04-26T09:52:05.066Z</time></trkpt><trkpt lat="45.5573633" lon="10.8388303"><ele>324.6</ele><time>2026-04-26T09:52:06.066Z</time></trkpt><trkpt lat="45.5573198" lon="10.8386996"><ele>324.0</ele><time>2026-04-26T09:52:07.065Z</time></trkpt><trkpt lat="45.5572831" lon="10.8385673"><ele>324.0</ele><time>2026-04-26T09:52:08.065Z</time></trkpt><trkpt lat="45.557259" lon="10.8384355"><ele>324.0</ele><time>2026-04-26T09:52:09.066Z</time></trkpt><trkpt lat="45.557253" lon="10.8383158"><ele>324.0</ele><time>2026-04-26T09:52:10.066Z</time></trkpt><trkpt lat="45.5572726" lon="10.8382068"><ele>324.0</ele><time>2026-04-26T09:52:11.065Z</time></trkpt><trkpt lat="45.5573087" lon="10.8380943"><ele>324.0</ele><time>2026-04-26T09:52:12.065Z</time></trkpt><trkpt lat="45.5573646" lon="10.8379636"><ele>324.0</ele><time>2026-04-26T09:52:13.066Z</time></trkpt><trkpt lat="45.5574249" lon="10.8378227"><ele>324.0</ele><time>2026-04-26T09:52:14.066Z</time></trkpt><trkpt lat="45.5574836" lon="10.8376871"><ele>324.0</ele><time>2026-04-26T09:52:15.065Z</time></trkpt><trkpt lat="45.5575349" lon="10.8375637"><ele>324.0</ele><time>2026-04-26T09:52:16.065Z</time></trkpt><trkpt lat="45.5575976" lon="10.837439"><ele>324.0</ele><time>2026-04-26T09:52:17.065Z</time></trkpt><trkpt lat="45.5576719" lon="10.8373083"><ele>323.25</ele><time>2026-04-26T09:52:18.065Z</time></trkpt><trkpt lat="45.5577573" lon="10.8371706"><ele>322.5</ele><time>2026-04-26T09:52:19.066Z</time></trkpt><trkpt lat="45.5578301" lon="10.8370314"><ele>321.75</ele><time>2026-04-26T09:52:20.066Z</time></trkpt><trkpt lat="45.5578946" lon="10.8368846"><ele>321.0</ele><time>2026-04-26T09:52:21.065Z</time></trkpt><trkpt lat="45.5579436" lon="10.8367281"><ele>321.0</ele><time>2026-04-26T09:52:22.066Z</time></trkpt><trkpt lat="45.5579791" lon="10.8365677"><ele>321.0</ele><time>2026-04-26T09:52:23.066Z</time></trkpt><trkpt lat="45.5580162" lon="10.8364195"><ele>321.0</ele><time>2026-04-26T09:52:24.066Z</time></trkpt><trkpt lat="45.5580546" lon="10.8362754"><ele>321.0</ele><time>2026-04-26T09:52:25.065Z</time></trkpt><trkpt lat="45.5580984" lon="10.8361348"><ele>321.0</ele><time>2026-04-26T09:52:26.065Z</time></trkpt><trkpt lat="45.5581533" lon="10.8359855"><ele>320.0</ele><time>2026-04-26T09:52:27.066Z</time></trkpt><trkpt lat="45.5582149" lon="10.8358429"><ele>319.0</ele><time>2026-04-26T09:52:28.066Z</time></trkpt><trkpt lat="45.5582754" lon="10.8357243"><ele>318.0</ele><time>2026-04-26T09:52:29.066Z</time></trkpt><trkpt lat="45.5583403" lon="10.8356319"><ele>317.0</ele><time>2026-04-26T09:52:30.065Z</time></trkpt><trkpt lat="45.5584028" lon="10.8355767"><ele>316.0</ele><time>2026-04-26T09:52:31.066Z</time></trkpt><trkpt lat="45.5584658" lon="10.8355329"><ele>316.0</ele><time>2026-04-26T09:52:32.066Z</time></trkpt><trkpt lat="45.5585308" lon="10.8354949"><ele>316.0</ele><time>2026-04-26T09:52:33.066Z</time></trkpt><trkpt lat="45.5585983" lon="10.8354704"><ele>316.0</ele><time>2026-04-26T09:52:34.066Z</time></trkpt><trkpt lat="45.558663" lon="10.8354676"><ele>316.0</ele><time>2026-04-26T09:52:35.065Z</time></trkpt><trkpt lat="45.5587737" lon="10.835524"><ele>316.0</ele><time>2026-04-26T09:52:37.065Z</time></trkpt><trkpt lat="45.5588281" lon="10.8355848"><ele>316.0</ele><time>2026-04-26T09:52:38.066Z</time></trkpt><trkpt lat="45.5588713" lon="10.8356558"><ele>315.0</ele><time>2026-04-26T09:52:39.066Z</time></trkpt><trkpt lat="45.5589076" lon="10.8357418"><ele>314.0</ele><time>2026-04-26T09:52:40.066Z</time></trkpt><trkpt lat="45.5589389" lon="10.8358457"><ele>313.0</ele><time>2026-04-26T09:52:41.066Z</time></trkpt><trkpt lat="45.5589616" lon="10.8359754"><ele>312.0</ele><time>2026-04-26T09:52:42.066Z</time></trkpt><trkpt lat="45.5589782" lon="10.8361013"><ele>311.0</ele><time>2026-04-26T09:52:43.066Z</time></trkpt><trkpt lat="45.5590021" lon="10.8362068"><ele>310.0</ele><time>2026-04-26T09:52:44.066Z</time></trkpt><trkpt lat="45.5590485" lon="10.836294"><ele>312.16666666666663</ele><time>2026-04-26T09:52:45.066Z</time></trkpt><trkpt lat="45.5591032" lon="10.8363654"><ele>314.3333333333333</ele><time>2026-04-26T09:52:46.065Z</time></trkpt><trkpt lat="45.5591635" lon="10.8364178"><ele>316.5</ele><time>2026-04-26T09:52:47.066Z</time></trkpt><trkpt lat="45.5592366" lon="10.8364591"><ele>318.6666666666667</ele><time>2026-04-26T09:52:48.065Z</time></trkpt><trkpt lat="45.5593146" lon="10.8365037"><ele>320.83333333333337</ele><time>2026-04-26T09:52:49.066Z</time></trkpt><trkpt lat="45.5593812" lon="10.8365458"><ele>323.0</ele><time>2026-04-26T09:52:50.065Z</time></trkpt><trkpt lat="45.5594383" lon="10.8366087"><ele>323.0</ele><time>2026-04-26T09:52:51.066Z</time></trkpt><trkpt lat="45.559497" lon="10.8366866"><ele>323.0</ele><time>2026-04-26T09:52:52.066Z</time></trkpt><trkpt lat="45.5595677" lon="10.8367869"><ele>323.0</ele><time>2026-04-26T09:52:53.066Z</time></trkpt><trkpt lat="45.5596509" lon="10.8368906"><ele>323.0</ele><time>2026-04-26T09:52:54.065Z</time></trkpt><trkpt lat="45.5597403" lon="10.8369848"><ele>323.0</ele><time>2026-04-26T09:52:55.066Z</time></trkpt><trkpt lat="45.5598272" lon="10.8370694"><ele>323.59999999999997</ele><time>2026-04-26T09:52:56.066Z</time></trkpt><trkpt lat="45.5599114" lon="10.8371455"><ele>324.2</ele><time>2026-04-26T09:52:57.066Z</time></trkpt><trkpt lat="45.5599948" lon="10.8372127"><ele>324.8</ele><time>2026-04-26T09:52:58.065Z</time></trkpt><trkpt lat="45.5600769" lon="10.837275"><ele>325.4</ele><time>2026-04-26T09:52:59.065Z</time></trkpt><trkpt lat="45.560169" lon="10.8373371"><ele>326.0</ele><time>2026-04-26T09:53:00.066Z</time></trkpt><trkpt lat="45.5602614" lon="10.8373948"><ele>326.0</ele><time>2026-04-26T09:53:01.066Z</time></trkpt><trkpt lat="45.5603428" lon="10.8374483"><ele>326.0</ele><time>2026-04-26T09:53:02.066Z</time></trkpt><trkpt lat="45.5604126" lon="10.8375001"><ele>326.0</ele><time>2026-04-26T09:53:03.066Z</time></trkpt><trkpt lat="45.5604738" lon="10.8375583"><ele>326.0</ele><time>2026-04-26T09:53:04.065Z</time></trkpt><trkpt lat="45.5605384" lon="10.8376077"><ele>326.0</ele><time>2026-04-26T09:53:05.065Z</time></trkpt><trkpt lat="45.5606091" lon="10.8376491"><ele>326.0</ele><time>2026-04-26T09:53:06.066Z</time></trkpt><trkpt lat="45.5606847" lon="10.8376577"><ele>326.33333333333337</ele><time>2026-04-26T09:53:07.065Z</time></trkpt><trkpt lat="45.5607607" lon="10.8376414"><ele>326.6666666666667</ele><time>2026-04-26T09:53:08.066Z</time></trkpt><trkpt lat="45.5608418" lon="10.8376159"><ele>327.0</ele><time>2026-04-26T09:53:09.065Z</time></trkpt><trkpt lat="45.560917" lon="10.8375762"><ele>327.3333333333333</ele><time>2026-04-26T09:53:10.066Z</time></trkpt><trkpt lat="45.5609826" lon="10.8375222"><ele>327.66666666666663</ele><time>2026-04-26T09:53:11.066Z</time></trkpt><trkpt lat="45.5610686" lon="10.8374217"><ele>328.0</ele><time>2026-04-26T09:53:13.066Z</time></trkpt><trkpt lat="45.56112" lon="10.8372673"><ele>327.2</ele><time>2026-04-26T09:53:15.066Z</time></trkpt><trkpt lat="45.5611129" lon="10.8371541"><ele>326.4</ele><time>2026-04-26T09:53:16.065Z</time></trkpt><trkpt lat="45.561092" lon="10.8370155"><ele>325.59999999999997</ele><time>2026-04-26T09:53:17.065Z</time></trkpt><trkpt lat="45.5610681" lon="10.8368677"><ele>324.79999999999995</ele><time>2026-04-26T09:53:18.066Z</time></trkpt><trkpt lat="45.561053" lon="10.8367102"><ele>324.0</ele><time>2026-04-26T09:53:19.065Z</time></trkpt><trkpt lat="45.561046" lon="10.8365441"><ele>323.5</ele><time>2026-04-26T09:53:20.065Z</time></trkpt><trkpt lat="45.5610539" lon="10.8363932"><ele>323.0</ele><time>2026-04-26T09:53:21.065Z</time></trkpt><trkpt lat="45.5610782" lon="10.8362635"><ele>322.5</ele><time>2026-04-26T09:53:22.065Z</time></trkpt><trkpt lat="45.5611204" lon="10.8361478"><ele>322.0</ele><time>2026-04-26T09:53:23.066Z</time></trkpt><trkpt lat="45.5611751" lon="10.8360618"><ele>321.5</ele><time>2026-04-26T09:53:24.065Z</time></trkpt><trkpt lat="45.5612327" lon="10.8360129"><ele>321.0</ele><time>2026-04-26T09:53:25.065Z</time></trkpt><trkpt lat="45.561329" lon="10.8359808"><ele>322.8333333333333</ele><time>2026-04-26T09:53:27.066Z</time></trkpt><trkpt lat="45.5613938" lon="10.8360112"><ele>324.6666666666667</ele><time>2026-04-26T09:53:29.066Z</time></trkpt><trkpt lat="45.5614712" lon="10.8360854"><ele>326.5</ele><time>2026-04-26T09:53:31.065Z</time></trkpt><trkpt lat="45.5615477" lon="10.8361314"><ele>328.33333333333337</ele><time>2026-04-26T09:53:33.066Z</time></trkpt><trkpt lat="45.5615939" lon="10.8362141"><ele>330.1666666666667</ele><time>2026-04-26T09:53:55.065Z</time></trkpt><trkpt lat="45.5615708" lon="10.8363504"><ele>332.0</ele><time>2026-04-26T09:53:58.066Z</time></trkpt><trkpt lat="45.5615699" lon="10.8365257"><ele>332.0</ele><time>2026-04-26T09:54:00.065Z</time></trkpt><trkpt lat="45.5615672" lon="10.8366399"><ele>332.0</ele><time>2026-04-26T09:54:01.066Z</time></trkpt><trkpt lat="45.5615646" lon="10.836752"><ele>332.0</ele><time>2026-04-26T09:54:02.065Z</time></trkpt><trkpt lat="45.561565" lon="10.8368552"><ele>332.0</ele><time>2026-04-26T09:54:03.065Z</time></trkpt><trkpt lat="45.5615802" lon="10.8369559"><ele>332.0</ele><time>2026-04-26T09:54:04.066Z</time></trkpt><trkpt lat="45.5616041" lon="10.8370676"><ele>332.0</ele><time>2026-04-26T09:54:05.066Z</time></trkpt><trkpt lat="45.5616368" lon="10.837194"><ele>332.6666666666667</ele><time>2026-04-26T09:54:06.065Z</time></trkpt><trkpt lat="45.5616786" lon="10.8373104"><ele>333.33333333333337</ele><time>2026-04-26T09:54:07.065Z</time></trkpt><trkpt lat="45.5617243" lon="10.8374149"><ele>334.0</ele><time>2026-04-26T09:54:08.064Z</time></trkpt><trkpt lat="45.5617825" lon="10.8375065"><ele>334.6666666666667</ele><time>2026-04-26T09:54:09.064Z</time></trkpt><trkpt lat="45.561849" lon="10.8375842"><ele>335.3333333333333</ele><time>2026-04-26T09:54:10.065Z</time></trkpt><trkpt lat="45.5619236" lon="10.8376387"><ele>336.0</ele><time>2026-04-26T09:54:11.064Z</time></trkpt><trkpt lat="45.5620032" lon="10.8376826"><ele>338.6666666666667</ele><time>2026-04-26T09:54:12.065Z</time></trkpt><trkpt lat="45.5620843" lon="10.8377224"><ele>341.3333333333333</ele><time>2026-04-26T09:54:13.065Z</time></trkpt><trkpt lat="45.5621593" lon="10.837769"><ele>344.0</ele><time>2026-04-26T09:54:14.065Z</time></trkpt><trkpt lat="45.5622328" lon="10.8378364"><ele>346.66666666666663</ele><time>2026-04-26T09:54:15.065Z</time></trkpt><trkpt lat="45.5623073" lon="10.8379098"><ele>349.3333333333333</ele><time>2026-04-26T09:54:16.064Z</time></trkpt><trkpt lat="45.5623805" lon="10.8379967"><ele>352.0</ele><time>2026-04-26T09:54:17.065Z</time></trkpt><trkpt lat="45.5624598" lon="10.8380882"><ele>352.0</ele><time>2026-04-26T09:54:18.064Z</time></trkpt><trkpt lat="45.562543" lon="10.838179"><ele>352.0</ele><time>2026-04-26T09:54:19.064Z</time></trkpt><trkpt lat="45.5626278" lon="10.8382667"><ele>352.0</ele><time>2026-04-26T09:54:20.065Z</time></trkpt><trkpt lat="45.5627112" lon="10.8383487"><ele>352.0</ele><time>2026-04-26T09:54:21.065Z</time></trkpt><trkpt lat="45.5627987" lon="10.8384204"><ele>352.0</ele><time>2026-04-26T09:54:22.065Z</time></trkpt><trkpt lat="45.562886" lon="10.8384914"><ele>355.8</ele><time>2026-04-26T09:54:23.064Z</time></trkpt><trkpt lat="45.5629804" lon="10.8385581"><ele>359.6</ele><time>2026-04-26T09:54:24.065Z</time></trkpt><trkpt lat="45.5630762" lon="10.838616"><ele>363.40000000000003</ele><time>2026-04-26T09:54:25.065Z</time></trkpt><trkpt lat="45.5631732" lon="10.8386694"><ele>367.20000000000005</ele><time>2026-04-26T09:54:26.065Z</time></trkpt><trkpt lat="45.5632659" lon="10.8387152"><ele>371.0</ele><time>2026-04-26T09:54:27.065Z</time></trkpt><trkpt lat="45.5633409" lon="10.8387613"><ele>371.0</ele><time>2026-04-26T09:54:28.065Z</time></trkpt><trkpt lat="45.563411" lon="10.8388059"><ele>371.0</ele><time>2026-04-26T09:54:29.065Z</time></trkpt><trkpt lat="45.5634791" lon="10.8388529"><ele>371.0</ele><time>2026-04-26T09:54:30.064Z</time></trkpt><trkpt lat="45.5635532" lon="10.8388886"><ele>371.0</ele><time>2026-04-26T09:54:31.065Z</time></trkpt><trkpt lat="45.5636273" lon="10.8389241"><ele>371.0</ele><time>2026-04-26T09:54:32.065Z</time></trkpt><trkpt lat="45.5636972" lon="10.8389765"><ele>371.0</ele><time>2026-04-26T09:54:33.065Z</time></trkpt><trkpt lat="45.5637648" lon="10.8390377"><ele>372.42857142857144</ele><time>2026-04-26T09:54:34.065Z</time></trkpt><trkpt lat="45.5638271" lon="10.8391082"><ele>373.8571428571429</ele><time>2026-04-26T09:54:35.065Z</time></trkpt><trkpt lat="45.5638854" lon="10.8391867"><ele>375.2857142857143</ele><time>2026-04-26T09:54:36.065Z</time></trkpt><trkpt lat="45.5639314" lon="10.8392624"><ele>376.7142857142857</ele><time>2026-04-26T09:54:37.064Z</time></trkpt><trkpt lat="45.5639785" lon="10.8393333"><ele>378.14285714285717</ele><time>2026-04-26T09:54:38.064Z</time></trkpt><trkpt lat="45.5640254" lon="10.8394045"><ele>379.57142857142856</ele><time>2026-04-26T09:54:39.064Z</time></trkpt><trkpt lat="45.5640705" lon="10.8394786"><ele>381.0</ele><time>2026-04-26T09:54:40.064Z</time></trkpt><trkpt lat="45.5641177" lon="10.8395589"><ele>381.8333333333333</ele><time>2026-04-26T09:54:41.065Z</time></trkpt><trkpt lat="45.5641694" lon="10.8396423"><ele>382.66666666666663</ele><time>2026-04-26T09:54:42.064Z</time></trkpt><trkpt lat="45.5642227" lon="10.8397321"><ele>383.5</ele><time>2026-04-26T09:54:43.064Z</time></trkpt><trkpt lat="45.564281" lon="10.8398119"><ele>384.3333333333333</ele><time>2026-04-26T09:54:44.065Z</time></trkpt><trkpt lat="45.564333" lon="10.8398849"><ele>385.16666666666663</ele><time>2026-04-26T09:54:45.064Z</time></trkpt><trkpt lat="45.5644145" lon="10.8399614"><ele>386.0</ele><time>2026-04-26T09:54:47.065Z</time></trkpt><trkpt lat="45.5645043" lon="10.8399911"><ele>388.66666666666663</ele><time>2026-04-26T09:54:49.065Z</time></trkpt><trkpt lat="45.5646149" lon="10.8400004"><ele>391.3333333333333</ele><time>2026-04-26T09:54:51.065Z</time></trkpt><trkpt lat="45.5646772" lon="10.8399862"><ele>394.0</ele><time>2026-04-26T09:54:52.064Z</time></trkpt><trkpt lat="45.5647988" lon="10.8399408"><ele>396.66666666666663</ele><time>2026-04-26T09:54:54.064Z</time></trkpt><trkpt lat="45.5648595" lon="10.8399141"><ele>399.3333333333333</ele><time>2026-04-26T09:54:55.064Z</time></trkpt><trkpt lat="45.5649224" lon="10.8398907"><ele>402.0</ele><time>2026-04-26T09:54:56.064Z</time></trkpt><trkpt lat="45.5650501" lon="10.8398849"><ele>402.0</ele><time>2026-04-26T09:54:58.065Z</time></trkpt><trkpt lat="45.5651182" lon="10.8398992"><ele>402.0</ele><time>2026-04-26T09:54:59.064Z</time></trkpt><trkpt lat="45.5651826" lon="10.8399384"><ele>402.0</ele><time>2026-04-26T09:55:00.065Z</time></trkpt><trkpt lat="45.5652458" lon="10.8399945"><ele>402.0</ele><time>2026-04-26T09:55:01.065Z</time></trkpt><trkpt lat="45.5653099" lon="10.8400546"><ele>402.0</ele><time>2026-04-26T09:55:02.064Z</time></trkpt><trkpt lat="45.5653696" lon="10.8400935"><ele>402.0</ele><time>2026-04-26T09:55:03.064Z</time></trkpt><trkpt lat="45.5654308" lon="10.8401163"><ele>402.0</ele><time>2026-04-26T09:55:04.064Z</time></trkpt><trkpt lat="45.5655595" lon="10.8401134"><ele>404.7142857142857</ele><time>2026-04-26T09:55:06.065Z</time></trkpt><trkpt lat="45.5656251" lon="10.8400896"><ele>407.42857142857144</ele><time>2026-04-26T09:55:07.064Z</time></trkpt><trkpt lat="45.5656916" lon="10.8400497"><ele>410.14285714285717</ele><time>2026-04-26T09:55:08.065Z</time></trkpt><trkpt lat="45.5657596" lon="10.8400164"><ele>412.8571428571429</ele><time>2026-04-26T09:55:09.065Z</time></trkpt><trkpt lat="45.5658252" lon="10.8400009"><ele>415.57142857142856</ele><time>2026-04-26T09:55:10.065Z</time></trkpt><trkpt lat="45.5658941" lon="10.8399958"><ele>418.28571428571433</ele><time>2026-04-26T09:55:11.065Z</time></trkpt><trkpt lat="45.5659617" lon="10.8400022"><ele>421.0</ele><time>2026-04-26T09:55:12.064Z</time></trkpt><trkpt lat="45.5660278" lon="10.8400135"><ele>421.0</ele><time>2026-04-26T09:55:13.064Z</time></trkpt><trkpt lat="45.5660933" lon="10.8400223"><ele>421.0</ele><time>2026-04-26T09:55:14.065Z</time></trkpt><trkpt lat="45.5661574" lon="10.8400369"><ele>421.0</ele><time>2026-04-26T09:55:15.064Z</time></trkpt><trkpt lat="45.5662655" lon="10.84011"><ele>421.0</ele><time>2026-04-26T09:55:17.065Z</time></trkpt><trkpt lat="45.5663502" lon="10.8402423"><ele>421.0</ele><time>2026-04-26T09:55:19.064Z</time></trkpt><trkpt lat="45.5664014" lon="10.8403229"><ele>425.00000000000006</ele><time>2026-04-26T09:55:20.065Z</time></trkpt><trkpt lat="45.5664509" lon="10.8403871"><ele>429.0</ele><time>2026-04-26T09:55:21.064Z</time></trkpt><trkpt lat="45.5665089" lon="10.8404459"><ele>433.0</ele><time>2026-04-26T09:55:22.065Z</time></trkpt><trkpt lat="45.5665611" lon="10.8404979"><ele>437.0</ele><time>2026-04-26T09:55:23.064Z</time></trkpt><trkpt lat="45.5666276" lon="10.8406153"><ele>441.00000000000006</ele><time>2026-04-26T09:55:25.064Z</time></trkpt><trkpt lat="45.5666605" lon="10.840773"><ele>445.0</ele><time>2026-04-26T09:55:27.065Z</time></trkpt><trkpt lat="45.566703" lon="10.840903"><ele>444.83333333333337</ele><time>2026-04-26T09:55:29.065Z</time></trkpt><trkpt lat="45.5667666" lon="10.8410063"><ele>444.6666666666667</ele><time>2026-04-26T09:55:31.064Z</time></trkpt><trkpt lat="45.5668215" lon="10.841096"><ele>444.5</ele><time>2026-04-26T09:55:33.065Z</time></trkpt><trkpt lat="45.5668911" lon="10.8411641"><ele>444.33333333333337</ele><time>2026-04-26T09:55:35.064Z</time></trkpt><trkpt lat="45.5669583" lon="10.8411963"><ele>444.1666666666667</ele><time>2026-04-26T09:55:37.065Z</time></trkpt><trkpt lat="45.5669918" lon="10.8413072"><ele>444.0</ele><time>2026-04-26T09:55:42.065Z</time></trkpt><trkpt lat="45.5669807" lon="10.8414462"><ele>444.0</ele><time>2026-04-26T09:55:44.064Z</time></trkpt><trkpt lat="45.566962" lon="10.8415538"><ele>444.0</ele><time>2026-04-26T09:55:45.065Z</time></trkpt><trkpt lat="45.5669443" lon="10.8416778"><ele>444.0</ele><time>2026-04-26T09:55:46.064Z</time></trkpt><trkpt lat="45.5669277" lon="10.8418117"><ele>444.0</ele><time>2026-04-26T09:55:47.064Z</time></trkpt><trkpt lat="45.5669211" lon="10.8419796"><ele>444.0</ele><time>2026-04-26T09:55:48.065Z</time></trkpt><trkpt lat="45.5669265" lon="10.8421409"><ele>443.2</ele><time>2026-04-26T09:55:49.065Z</time></trkpt><trkpt lat="45.5669443" lon="10.8422942"><ele>442.4</ele><time>2026-04-26T09:55:50.065Z</time></trkpt><trkpt lat="45.566968" lon="10.8424376"><ele>441.6</ele><time>2026-04-26T09:55:51.065Z</time></trkpt><trkpt lat="45.5669899" lon="10.8425696"><ele>440.8</ele><time>2026-04-26T09:55:52.064Z</time></trkpt><trkpt lat="45.5670053" lon="10.8426929"><ele>440.0</ele><time>2026-04-26T09:55:53.065Z</time></trkpt><trkpt lat="45.5670114" lon="10.842808"><ele>439.99999999999994</ele><time>2026-04-26T09:55:54.065Z</time></trkpt><trkpt lat="45.5670066" lon="10.8429144"><ele>440.0</ele><time>2026-04-26T09:55:55.065Z</time></trkpt><trkpt lat="45.5669867" lon="10.8430223"><ele>440.0</ele><time>2026-04-26T09:55:56.064Z</time></trkpt><trkpt lat="45.5669509" lon="10.8431176"><ele>440.0</ele><time>2026-04-26T09:55:57.065Z</time></trkpt><trkpt lat="45.5668952" lon="10.843193"><ele>439.99999999999994</ele><time>2026-04-26T09:55:58.065Z</time></trkpt><trkpt lat="45.5668187" lon="10.8432603"><ele>440.0</ele><time>2026-04-26T09:55:59.064Z</time></trkpt><trkpt lat="45.5667454" lon="10.84334"><ele>440.0</ele><time>2026-04-26T09:56:00.065Z</time></trkpt><trkpt lat="45.5666872" lon="10.8434405"><ele>440.0</ele><time>2026-04-26T09:56:01.064Z</time></trkpt><trkpt lat="45.5666466" lon="10.8435756"><ele>440.0</ele><time>2026-04-26T09:56:02.065Z</time></trkpt><trkpt lat="45.5666174" lon="10.8437301"><ele>440.0</ele><time>2026-04-26T09:56:03.064Z</time></trkpt><trkpt lat="45.5665942" lon="10.8438858"><ele>440.0</ele><time>2026-04-26T09:56:04.065Z</time></trkpt><trkpt lat="45.5665736" lon="10.8440271"><ele>440.3333333333333</ele><time>2026-04-26T09:56:05.065Z</time></trkpt><trkpt lat="45.5665561" lon="10.8441456"><ele>440.66666666666663</ele><time>2026-04-26T09:56:06.064Z</time></trkpt><trkpt lat="45.5665446" lon="10.8442572"><ele>441.0</ele><time>2026-04-26T09:56:07.064Z</time></trkpt><trkpt lat="45.566531" lon="10.8443512"><ele>441.33333333333337</ele><time>2026-04-26T09:56:08.065Z</time></trkpt><trkpt lat="45.566534" lon="10.8444802"><ele>441.6666666666667</ele><time>2026-04-26T09:56:10.064Z</time></trkpt><trkpt lat="45.5665945" lon="10.8446013"><ele>442.0</ele><time>2026-04-26T09:56:12.065Z</time></trkpt><trkpt lat="45.5666428" lon="10.8446799"><ele>442.40000000000003</ele><time>2026-04-26T09:56:13.064Z</time></trkpt><trkpt lat="45.5666997" lon="10.8447781"><ele>442.80000000000007</ele><time>2026-04-26T09:56:14.064Z</time></trkpt><trkpt lat="45.566749" lon="10.8448946"><ele>443.2</ele><time>2026-04-26T09:56:15.065Z</time></trkpt><trkpt lat="45.5667889" lon="10.8450219"><ele>443.6</ele><time>2026-04-26T09:56:16.065Z</time></trkpt><trkpt lat="45.5668196" lon="10.8451617"><ele>444.0</ele><time>2026-04-26T09:56:17.064Z</time></trkpt><trkpt lat="45.5668388" lon="10.8452995"><ele>444.5</ele><time>2026-04-26T09:56:18.065Z</time></trkpt><trkpt lat="45.5668709" lon="10.8454391"><ele>445.0</ele><time>2026-04-26T09:56:19.064Z</time></trkpt><trkpt lat="45.566927" lon="10.8455758"><ele>445.5</ele><time>2026-04-26T09:56:20.064Z</time></trkpt><trkpt lat="45.5670059" lon="10.8457029"><ele>446.0</ele><time>2026-04-26T09:56:21.065Z</time></trkpt><trkpt lat="45.5670978" lon="10.8458141"><ele>449.0</ele><time>2026-04-26T09:56:22.065Z</time></trkpt><trkpt lat="45.5671985" lon="10.8459192"><ele>452.0</ele><time>2026-04-26T09:56:23.064Z</time></trkpt><trkpt lat="45.5672817" lon="10.8460187"><ele>455.0</ele><time>2026-04-26T09:56:24.065Z</time></trkpt><trkpt lat="45.567355" lon="10.8461272"><ele>458.0</ele><time>2026-04-26T09:56:25.065Z</time></trkpt><trkpt lat="45.567403" lon="10.8462553"><ele>461.0</ele><time>2026-04-26T09:56:26.065Z</time></trkpt><trkpt lat="45.5674429" lon="10.8463959"><ele>461.25</ele><time>2026-04-26T09:56:27.064Z</time></trkpt><trkpt lat="45.5674854" lon="10.8465511"><ele>461.5</ele><time>2026-04-26T09:56:28.064Z</time></trkpt><trkpt lat="45.5675317" lon="10.8467111"><ele>461.75</ele><time>2026-04-26T09:56:29.065Z</time></trkpt><trkpt lat="45.5675722" lon="10.8468767"><ele>462.0</ele><time>2026-04-26T09:56:30.065Z</time></trkpt><trkpt lat="45.5676104" lon="10.8470204"><ele>462.8333333333333</ele><time>2026-04-26T09:56:31.064Z</time></trkpt><trkpt lat="45.5676431" lon="10.8471514"><ele>463.66666666666663</ele><time>2026-04-26T09:56:32.064Z</time></trkpt><trkpt lat="45.5676786" lon="10.8472605"><ele>464.5</ele><time>2026-04-26T09:56:33.065Z</time></trkpt><trkpt lat="45.5677262" lon="10.8473526"><ele>465.3333333333333</ele><time>2026-04-26T09:56:34.064Z</time></trkpt><trkpt lat="45.5677901" lon="10.8474381"><ele>466.16666666666663</ele><time>2026-04-26T09:56:35.065Z</time></trkpt><trkpt lat="45.567861" lon="10.8475299"><ele>467.0</ele><time>2026-04-26T09:56:36.065Z</time></trkpt><trkpt lat="45.5679267" lon="10.8476324"><ele>470.8</ele><time>2026-04-26T09:56:37.064Z</time></trkpt><trkpt lat="45.5679852" lon="10.8477499"><ele>474.6</ele><time>2026-04-26T09:56:38.064Z</time></trkpt><trkpt lat="45.5680229" lon="10.8478901"><ele>478.40000000000003</ele><time>2026-04-26T09:56:39.065Z</time></trkpt><trkpt lat="45.5680476" lon="10.8480547"><ele>482.20000000000005</ele><time>2026-04-26T09:56:40.065Z</time></trkpt><trkpt lat="45.5680739" lon="10.8482144"><ele>486.0</ele><time>2026-04-26T09:56:41.064Z</time></trkpt><trkpt lat="45.5681102" lon="10.8483649"><ele>486.6</ele><time>2026-04-26T09:56:42.065Z</time></trkpt><trkpt lat="45.5681568" lon="10.8485053"><ele>487.20000000000005</ele><time>2026-04-26T09:56:43.064Z</time></trkpt><trkpt lat="45.5682064" lon="10.848629"><ele>487.79999999999995</ele><time>2026-04-26T09:56:44.065Z</time></trkpt><trkpt lat="45.5682517" lon="10.8487315"><ele>488.4</ele><time>2026-04-26T09:56:45.065Z</time></trkpt><trkpt lat="45.5682903" lon="10.8488274"><ele>489.0</ele><time>2026-04-26T09:56:46.064Z</time></trkpt><trkpt lat="45.5683176" lon="10.8489714"><ele>489.0</ele><time>2026-04-26T09:56:48.065Z</time></trkpt><trkpt lat="45.5682267" lon="10.8490061"><ele>489.0</ele><time>2026-04-26T09:56:50.064Z</time></trkpt><trkpt lat="45.5681619" lon="10.8489705"><ele>489.0</ele><time>2026-04-26T09:56:51.065Z</time></trkpt><trkpt lat="45.5680941" lon="10.8489191"><ele>489.0</ele><time>2026-04-26T09:56:52.064Z</time></trkpt><trkpt lat="45.5680257" lon="10.8488633"><ele>489.0</ele><time>2026-04-26T09:56:53.064Z</time></trkpt><trkpt lat="45.5679431" lon="10.8487673"><ele>489.0</ele><time>2026-04-26T09:56:54.063Z</time></trkpt><trkpt lat="45.5678587" lon="10.8486296"><ele>487.25</ele><time>2026-04-26T09:56:55.064Z</time></trkpt><trkpt lat="45.5677659" lon="10.8485027"><ele>485.5</ele><time>2026-04-26T09:56:56.064Z</time></trkpt><trkpt lat="45.5676793" lon="10.848417"><ele>483.75</ele><time>2026-04-26T09:56:57.064Z</time></trkpt><trkpt lat="45.5675813" lon="10.8483743"><ele>482.0</ele><time>2026-04-26T09:56:58.064Z</time></trkpt><trkpt lat="45.5674668" lon="10.8483657"><ele>482.0</ele><time>2026-04-26T09:56:59.064Z</time></trkpt><trkpt lat="45.5673394" lon="10.8483753"><ele>482.0</ele><time>2026-04-26T09:57:00.063Z</time></trkpt><trkpt lat="45.5672132" lon="10.8483866"><ele>482.0</ele><time>2026-04-26T09:57:01.064Z</time></trkpt><trkpt lat="45.5670824" lon="10.8484118"><ele>482.0</ele><time>2026-04-26T09:57:02.063Z</time></trkpt><trkpt lat="45.5669472" lon="10.8484507"><ele>486.5</ele><time>2026-04-26T09:57:03.064Z</time></trkpt><trkpt lat="45.5668085" lon="10.8485052"><ele>491.0</ele><time>2026-04-26T09:57:04.063Z</time></trkpt><trkpt lat="45.5666717" lon="10.8485724"><ele>495.5</ele><time>2026-04-26T09:57:05.064Z</time></trkpt><trkpt lat="45.5665281" lon="10.8486305"><ele>500.0</ele><time>2026-04-26T09:57:06.064Z</time></trkpt><trkpt lat="45.5663731" lon="10.8486734"><ele>500.0</ele><time>2026-04-26T09:57:07.064Z</time></trkpt><trkpt lat="45.566232" lon="10.8486999"><ele>500.0</ele><time>2026-04-26T09:57:08.064Z</time></trkpt><trkpt lat="45.5661047" lon="10.8486982"><ele>500.0</ele><time>2026-04-26T09:57:09.063Z</time></trkpt><trkpt lat="45.5659875" lon="10.8486769"><ele>500.0</ele><time>2026-04-26T09:57:10.064Z</time></trkpt><trkpt lat="45.5658731" lon="10.8486574"><ele>500.6</ele><time>2026-04-26T09:57:11.064Z</time></trkpt><trkpt lat="45.565763" lon="10.8486404"><ele>501.2</ele><time>2026-04-26T09:57:12.064Z</time></trkpt><trkpt lat="45.5656553" lon="10.8486231"><ele>501.79999999999995</ele><time>2026-04-26T09:57:13.064Z</time></trkpt><trkpt lat="45.5655508" lon="10.8486284"><ele>502.4</ele><time>2026-04-26T09:57:14.063Z</time></trkpt><trkpt lat="45.5654587" lon="10.8486586"><ele>503.0</ele><time>2026-04-26T09:57:15.064Z</time></trkpt><trkpt lat="45.5653841" lon="10.8487236"><ele>503.0</ele><time>2026-04-26T09:57:16.064Z</time></trkpt><trkpt lat="45.5653204" lon="10.8488171"><ele>502.99999999999994</ele><time>2026-04-26T09:57:17.063Z</time></trkpt><trkpt lat="45.5652623" lon="10.8489303"><ele>502.99999999999994</ele><time>2026-04-26T09:57:18.064Z</time></trkpt><trkpt lat="45.5651983" lon="10.8490376"><ele>503.0</ele><time>2026-04-26T09:57:19.063Z</time></trkpt><trkpt lat="45.5651344" lon="10.8491248"><ele>503.0</ele><time>2026-04-26T09:57:20.064Z</time></trkpt><trkpt lat="45.565041" lon="10.8491822"><ele>503.0</ele><time>2026-04-26T09:57:21.064Z</time></trkpt><trkpt lat="45.5649318" lon="10.8492173"><ele>503.0</ele><time>2026-04-26T09:57:22.064Z</time></trkpt><trkpt lat="45.5648084" lon="10.8492489"><ele>503.0</ele><time>2026-04-26T09:57:23.063Z</time></trkpt><trkpt lat="45.5646767" lon="10.8492805"><ele>503.0</ele><time>2026-04-26T09:57:24.064Z</time></trkpt><trkpt lat="45.5645443" lon="10.8492939"><ele>504.5</ele><time>2026-04-26T09:57:25.064Z</time></trkpt><trkpt lat="45.5644091" lon="10.8492917"><ele>506.0</ele><time>2026-04-26T09:57:26.063Z</time></trkpt><trkpt lat="45.5642734" lon="10.8492842"><ele>507.5</ele><time>2026-04-26T09:57:27.064Z</time></trkpt><trkpt lat="45.5641523" lon="10.8492769"><ele>509.0</ele><time>2026-04-26T09:57:28.064Z</time></trkpt><trkpt lat="45.5640308" lon="10.8492747"><ele>509.0</ele><time>2026-04-26T09:57:29.064Z</time></trkpt><trkpt lat="45.5639195" lon="10.8492644"><ele>509.0</ele><time>2026-04-26T09:57:30.064Z</time></trkpt><trkpt lat="45.5638171" lon="10.8492668"><ele>509.0</ele><time>2026-04-26T09:57:31.064Z</time></trkpt><trkpt lat="45.5637357" lon="10.8492667"><ele>509.0</ele><time>2026-04-26T09:57:32.064Z</time></trkpt><trkpt lat="45.5636453" lon="10.8492639"><ele>509.0</ele><time>2026-04-26T09:57:34.064Z</time></trkpt><trkpt lat="45.5635896" lon="10.8491672"><ele>508.8333333333333</ele><time>2026-04-26T09:57:38.063Z</time></trkpt><trkpt lat="45.5635267" lon="10.8490584"><ele>508.66666666666663</ele><time>2026-04-26T09:57:40.063Z</time></trkpt><trkpt lat="45.5634712" lon="10.8490146"><ele>508.5</ele><time>2026-04-26T09:57:41.064Z</time></trkpt><trkpt lat="45.5634077" lon="10.8489932"><ele>508.33333333333337</ele><time>2026-04-26T09:57:42.063Z</time></trkpt><trkpt lat="45.5633413" lon="10.8489961"><ele>508.1666666666667</ele><time>2026-04-26T09:57:43.064Z</time></trkpt><trkpt lat="45.5632639" lon="10.8490337"><ele>508.0</ele><time>2026-04-26T09:57:44.063Z</time></trkpt><trkpt lat="45.5631835" lon="10.8490644"><ele>508.0</ele><time>2026-04-26T09:57:45.063Z</time></trkpt><trkpt lat="45.5631034" lon="10.8490995"><ele>507.99999999999994</ele><time>2026-04-26T09:57:46.063Z</time></trkpt><trkpt lat="45.5630185" lon="10.8491367"><ele>507.99999999999994</ele><time>2026-04-26T09:57:47.063Z</time></trkpt><trkpt lat="45.5629163" lon="10.8491749"><ele>508.0</ele><time>2026-04-26T09:57:48.063Z</time></trkpt><trkpt lat="45.5628049" lon="10.8492152"><ele>508.0</ele><time>2026-04-26T09:57:49.064Z</time></trkpt><trkpt lat="45.5626928" lon="10.8492554"><ele>506.0</ele><time>2026-04-26T09:57:50.064Z</time></trkpt><trkpt lat="45.5625799" lon="10.8492787"><ele>504.0</ele><time>2026-04-26T09:57:51.064Z</time></trkpt><trkpt lat="45.5624601" lon="10.8492898"><ele>502.0</ele><time>2026-04-26T09:57:52.064Z</time></trkpt><trkpt lat="45.5623366" lon="10.8492903"><ele>500.0</ele><time>2026-04-26T09:57:53.064Z</time></trkpt><trkpt lat="45.5622198" lon="10.8492859"><ele>498.8</ele><time>2026-04-26T09:57:54.064Z</time></trkpt><trkpt lat="45.5621097" lon="10.8492964"><ele>497.6</ele><time>2026-04-26T09:57:55.064Z</time></trkpt><trkpt lat="45.5620091" lon="10.8493346"><ele>496.4</ele><time>2026-04-26T09:57:56.063Z</time></trkpt><trkpt lat="45.5619101" lon="10.8494122"><ele>495.2</ele><time>2026-04-26T09:57:57.064Z</time></trkpt><trkpt lat="45.5618267" lon="10.8495267"><ele>494.0</ele><time>2026-04-26T09:57:58.064Z</time></trkpt><trkpt lat="45.5617546" lon="10.8496751"><ele>494.0</ele><time>2026-04-26T09:57:59.063Z</time></trkpt><trkpt lat="45.5617058" lon="10.8498544"><ele>494.0</ele><time>2026-04-26T09:58:00.064Z</time></trkpt><trkpt lat="45.5616704" lon="10.8500521"><ele>494.0</ele><time>2026-04-26T09:58:01.063Z</time></trkpt><trkpt lat="45.5616378" lon="10.8502538"><ele>494.0</ele><time>2026-04-26T09:58:02.063Z</time></trkpt><trkpt lat="45.5616065" lon="10.8504392"><ele>494.5</ele><time>2026-04-26T09:58:03.063Z</time></trkpt><trkpt lat="45.5615634" lon="10.8506138"><ele>495.0</ele><time>2026-04-26T09:58:04.063Z</time></trkpt><trkpt lat="45.5615247" lon="10.8507944"><ele>495.5</ele><time>2026-04-26T09:58:05.064Z</time></trkpt><trkpt lat="45.5614926" lon="10.8509631"><ele>496.0</ele><time>2026-04-26T09:58:06.063Z</time></trkpt><trkpt lat="45.5614596" lon="10.8511068"><ele>496.8</ele><time>2026-04-26T09:58:07.064Z</time></trkpt><trkpt lat="45.5614073" lon="10.8512494"><ele>497.6</ele><time>2026-04-26T09:58:08.064Z</time></trkpt><trkpt lat="45.5613371" lon="10.8513515"><ele>498.4</ele><time>2026-04-26T09:58:09.063Z</time></trkpt><trkpt lat="45.5612463" lon="10.8514099"><ele>499.2</ele><time>2026-04-26T09:58:10.064Z</time></trkpt><trkpt lat="45.5611321" lon="10.8514507"><ele>500.0</ele><time>2026-04-26T09:58:11.063Z</time></trkpt><trkpt lat="45.5610113" lon="10.8514663"><ele>497.4</ele><time>2026-04-26T09:58:12.064Z</time></trkpt><trkpt lat="45.5609068" lon="10.8514526"><ele>494.8</ele><time>2026-04-26T09:58:13.064Z</time></trkpt><trkpt lat="45.5608335" lon="10.8514251"><ele>492.20000000000005</ele><time>2026-04-26T09:58:14.063Z</time></trkpt><trkpt lat="45.560754" lon="10.8513772"><ele>489.6</ele><time>2026-04-26T09:58:16.064Z</time></trkpt><trkpt lat="45.5607046" lon="10.8514995"><ele>487.0</ele><time>2026-04-26T09:58:28.064Z</time></trkpt><trkpt lat="45.5606062" lon="10.8515525"><ele>487.0</ele><time>2026-04-26T09:58:30.064Z</time></trkpt><trkpt lat="45.5604637" lon="10.8515368"><ele>487.00000000000006</ele><time>2026-04-26T09:58:32.063Z</time></trkpt><trkpt lat="45.5603798" lon="10.8515179"><ele>487.00000000000006</ele><time>2026-04-26T09:58:33.064Z</time></trkpt><trkpt lat="45.5602947" lon="10.8515027"><ele>487.0</ele><time>2026-04-26T09:58:34.063Z</time></trkpt><trkpt lat="45.5602162" lon="10.8514871"><ele>487.0</ele><time>2026-04-26T09:58:35.063Z</time></trkpt><trkpt lat="45.5601424" lon="10.8514568"><ele>486.83333333333337</ele><time>2026-04-26T09:58:36.063Z</time></trkpt><trkpt lat="45.560065" lon="10.8514373"><ele>486.6666666666667</ele><time>2026-04-26T09:58:37.064Z</time></trkpt><trkpt lat="45.5599907" lon="10.8514276"><ele>486.5</ele><time>2026-04-26T09:58:38.064Z</time></trkpt><trkpt lat="45.5599189" lon="10.8514341"><ele>486.33333333333337</ele><time>2026-04-26T09:58:39.064Z</time></trkpt><trkpt lat="45.5598425" lon="10.8514562"><ele>486.1666666666667</ele><time>2026-04-26T09:58:40.064Z</time></trkpt><trkpt lat="45.5597608" lon="10.8514906"><ele>486.0</ele><time>2026-04-26T09:58:41.063Z</time></trkpt><trkpt lat="45.5596822" lon="10.8515245"><ele>486.0</ele><time>2026-04-26T09:58:42.064Z</time></trkpt><trkpt lat="45.5596048" lon="10.851558"><ele>486.0</ele><time>2026-04-26T09:58:43.064Z</time></trkpt><trkpt lat="45.5595239" lon="10.8515855"><ele>486.0</ele><time>2026-04-26T09:58:44.064Z</time></trkpt><trkpt lat="45.5594396" lon="10.8515923"><ele>486.0</ele><time>2026-04-26T09:58:45.064Z</time></trkpt><trkpt lat="45.5593546" lon="10.8515936"><ele>486.0</ele><time>2026-04-26T09:58:46.063Z</time></trkpt><trkpt lat="45.5592719" lon="10.8515996"><ele>486.0</ele><time>2026-04-26T09:58:47.063Z</time></trkpt><trkpt lat="45.5591894" lon="10.8516141"><ele>485.8333333333333</ele><time>2026-04-26T09:58:48.063Z</time></trkpt><trkpt lat="45.5591086" lon="10.8516335"><ele>485.66666666666663</ele><time>2026-04-26T09:58:49.063Z</time></trkpt><trkpt lat="45.5590259" lon="10.8516553"><ele>485.5</ele><time>2026-04-26T09:58:50.063Z</time></trkpt><trkpt lat="45.5589404" lon="10.8516785"><ele>485.3333333333333</ele><time>2026-04-26T09:58:51.063Z</time></trkpt><trkpt lat="45.5588667" lon="10.8516861"><ele>485.16666666666663</ele><time>2026-04-26T09:58:52.063Z</time></trkpt><trkpt lat="45.5587963" lon="10.851685"><ele>485.0</ele><time>2026-04-26T09:58:53.064Z</time></trkpt><trkpt lat="45.5587045" lon="10.85165"><ele>485.49999999999994</ele><time>2026-04-26T09:58:55.064Z</time></trkpt><trkpt lat="45.5586484" lon="10.8515788"><ele>486.0</ele><time>2026-04-26T09:58:57.064Z</time></trkpt><trkpt lat="45.5585658" lon="10.8514677"><ele>486.5</ele><time>2026-04-26T09:58:59.064Z</time></trkpt><trkpt lat="45.5585108" lon="10.8514157"><ele>487.0</ele><time>2026-04-26T09:59:00.064Z</time></trkpt><trkpt lat="45.5584436" lon="10.8513679"><ele>487.49999999999994</ele><time>2026-04-26T09:59:01.064Z</time></trkpt><trkpt lat="45.5583634" lon="10.8513155"><ele>488.0</ele><time>2026-04-26T09:59:02.063Z</time></trkpt><trkpt lat="45.5582722" lon="10.8512588"><ele>488.0</ele><time>2026-04-26T09:59:03.064Z</time></trkpt><trkpt lat="45.5581748" lon="10.8511986"><ele>487.99999999999994</ele><time>2026-04-26T09:59:04.063Z</time></trkpt><trkpt lat="45.5580793" lon="10.8511361"><ele>487.99999999999994</ele><time>2026-04-26T09:59:05.063Z</time></trkpt><trkpt lat="45.5579873" lon="10.8510663"><ele>488.0</ele><time>2026-04-26T09:59:06.063Z</time></trkpt><trkpt lat="45.5579027" lon="10.8509998"><ele>488.0</ele><time>2026-04-26T09:59:07.064Z</time></trkpt><trkpt lat="45.5578179" lon="10.8509132"><ele>488.99999999999994</ele><time>2026-04-26T09:59:08.063Z</time></trkpt><trkpt lat="45.557734" lon="10.8508389"><ele>490.0</ele><time>2026-04-26T09:59:09.063Z</time></trkpt><trkpt lat="45.557657" lon="10.8507868"><ele>491.0</ele><time>2026-04-26T09:59:10.063Z</time></trkpt><trkpt lat="45.5575875" lon="10.8507489"><ele>492.0</ele><time>2026-04-26T09:59:11.063Z</time></trkpt><trkpt lat="45.5575279" lon="10.8507126"><ele>492.99999999999994</ele><time>2026-04-26T09:59:12.064Z</time></trkpt><trkpt lat="45.5574267" lon="10.8506356"><ele>494.0</ele><time>2026-04-26T09:59:14.064Z</time></trkpt><trkpt lat="45.5573697" lon="10.8505938"><ele>494.0</ele><time>2026-04-26T09:59:15.064Z</time></trkpt><trkpt lat="45.5573123" lon="10.8505439"><ele>494.0</ele><time>2026-04-26T09:59:16.064Z</time></trkpt><trkpt lat="45.557217" lon="10.8504336"><ele>494.0</ele><time>2026-04-26T09:59:18.064Z</time></trkpt><trkpt lat="45.5571243" lon="10.8503195"><ele>494.0</ele><time>2026-04-26T09:59:20.064Z</time></trkpt><trkpt lat="45.5570664" lon="10.8502603"><ele>494.0</ele><time>2026-04-26T09:59:21.063Z</time></trkpt><trkpt lat="45.5570011" lon="10.8502024"><ele>493.7142857142857</ele><time>2026-04-26T09:59:22.063Z</time></trkpt><trkpt lat="45.5569292" lon="10.8501503"><ele>493.42857142857144</ele><time>2026-04-26T09:59:23.064Z</time></trkpt><trkpt lat="45.5568628" lon="10.8501124"><ele>493.14285714285717</ele><time>2026-04-26T09:59:24.063Z</time></trkpt><trkpt lat="45.5567988" lon="10.8500809"><ele>492.8571428571429</ele><time>2026-04-26T09:59:25.064Z</time></trkpt><trkpt lat="45.5567388" lon="10.8500527"><ele>492.57142857142856</ele><time>2026-04-26T09:59:26.063Z</time></trkpt><trkpt lat="45.5566741" lon="10.8500207"><ele>492.28571428571433</ele><time>2026-04-26T09:59:27.064Z</time></trkpt><trkpt lat="45.556613" lon="10.8499866"><ele>492.00000000000006</ele><time>2026-04-26T09:59:28.064Z</time></trkpt><trkpt lat="45.5565051" lon="10.8499299"><ele>492.0</ele><time>2026-04-26T09:59:30.064Z</time></trkpt><trkpt lat="45.5563908" lon="10.8498921"><ele>492.0</ele><time>2026-04-26T09:59:32.063Z</time></trkpt><trkpt lat="45.5562944" lon="10.8498835"><ele>492.0</ele><time>2026-04-26T09:59:34.063Z</time></trkpt><trkpt lat="45.5562191" lon="10.8498924"><ele>492.0</ele><time>2026-04-26T09:59:36.064Z</time></trkpt><trkpt lat="45.556131" lon="10.8499247"><ele>492.0</ele><time>2026-04-26T09:59:39.063Z</time></trkpt><trkpt lat="45.5560678" lon="10.8499358"><ele>492.0</ele><time>2026-04-26T09:59:41.063Z</time></trkpt><trkpt lat="45.5560027" lon="10.8499681"><ele>492.0</ele><time>2026-04-26T09:59:43.063Z</time></trkpt><trkpt lat="45.5559217" lon="10.8500055"><ele>492.00000000000006</ele><time>2026-04-26T09:59:45.063Z</time></trkpt><trkpt lat="45.5558185" lon="10.8500878"><ele>492.00000000000006</ele><time>2026-04-26T09:59:47.062Z</time></trkpt><trkpt lat="45.5557624" lon="10.8501423"><ele>492.0</ele><time>2026-04-26T09:59:48.062Z</time></trkpt><trkpt lat="45.5556769" lon="10.8502482"><ele>492.0</ele><time>2026-04-26T09:59:50.062Z</time></trkpt><trkpt lat="45.5556006" lon="10.850359"><ele>494.0</ele><time>2026-04-26T09:59:52.063Z</time></trkpt><trkpt lat="45.5555428" lon="10.8504703"><ele>496.00000000000006</ele><time>2026-04-26T09:59:54.063Z</time></trkpt><trkpt lat="45.5554933" lon="10.8505767"><ele>498.00000000000006</ele><time>2026-04-26T09:59:56.062Z</time></trkpt><trkpt lat="45.5554465" lon="10.8506593"><ele>500.0</ele><time>2026-04-26T09:59:58.063Z</time></trkpt><trkpt lat="45.5553635" lon="10.8507537"><ele>502.0</ele><time>2026-04-26T10:00:00.063Z</time></trkpt><trkpt lat="45.5552604" lon="10.8508554"><ele>502.00000000000006</ele><time>2026-04-26T10:00:02.063Z</time></trkpt><trkpt lat="45.55516" lon="10.850929"><ele>502.0</ele><time>2026-04-26T10:00:04.063Z</time></trkpt><trkpt lat="45.5550849" lon="10.8509193"><ele>502.0</ele><time>2026-04-26T10:00:06.063Z</time></trkpt><trkpt lat="45.5550467" lon="10.8508119"><ele>502.0</ele><time>2026-04-26T10:00:08.062Z</time></trkpt><trkpt lat="45.5550254" lon="10.8507248"><ele>502.00000000000006</ele><time>2026-04-26T10:00:09.063Z</time></trkpt><trkpt lat="45.5549992" lon="10.8506218"><ele>502.0</ele><time>2026-04-26T10:00:10.063Z</time></trkpt><trkpt lat="45.5549639" lon="10.8504952"><ele>502.0</ele><time>2026-04-26T10:00:11.062Z</time></trkpt><trkpt lat="45.5549203" lon="10.8503742"><ele>502.00000000000006</ele><time>2026-04-26T10:00:12.063Z</time></trkpt><trkpt lat="45.5548779" lon="10.8502679"><ele>502.00000000000006</ele><time>2026-04-26T10:00:13.063Z</time></trkpt><trkpt lat="45.5548174" lon="10.850172"><ele>502.0</ele><time>2026-04-26T10:00:14.062Z</time></trkpt><trkpt lat="45.5547531" lon="10.8500845"><ele>502.0</ele><time>2026-04-26T10:00:15.062Z</time></trkpt><trkpt lat="45.5546782" lon="10.8500052"><ele>500.6666666666667</ele><time>2026-04-26T10:00:16.063Z</time></trkpt><trkpt lat="45.5546157" lon="10.8499257"><ele>499.33333333333337</ele><time>2026-04-26T10:00:17.063Z</time></trkpt><trkpt lat="45.5545652" lon="10.8498332"><ele>498.0</ele><time>2026-04-26T10:00:18.063Z</time></trkpt><trkpt lat="45.5545259" lon="10.8497272"><ele>496.66666666666663</ele><time>2026-04-26T10:00:19.063Z</time></trkpt><trkpt lat="45.5544991" lon="10.8496304"><ele>495.3333333333333</ele><time>2026-04-26T10:00:20.062Z</time></trkpt><trkpt lat="45.5544962" lon="10.8495243"><ele>494.0</ele><time>2026-04-26T10:00:21.062Z</time></trkpt><trkpt lat="45.5544925" lon="10.8494313"><ele>495.8333333333333</ele><time>2026-04-26T10:00:22.063Z</time></trkpt><trkpt lat="45.5544532" lon="10.8492755"><ele>497.66666666666663</ele><time>2026-04-26T10:00:24.063Z</time></trkpt><trkpt lat="45.5544122" lon="10.8492063"><ele>499.5</ele><time>2026-04-26T10:00:25.063Z</time></trkpt><trkpt lat="45.5543577" lon="10.8491419"><ele>501.33333333333337</ele><time>2026-04-26T10:00:26.062Z</time></trkpt><trkpt lat="45.5542929" lon="10.8490834"><ele>503.1666666666667</ele><time>2026-04-26T10:00:27.063Z</time></trkpt><trkpt lat="45.5542159" lon="10.8490312"><ele>505.0</ele><time>2026-04-26T10:00:28.062Z</time></trkpt><trkpt lat="45.5541298" lon="10.848968"><ele>505.00000000000006</ele><time>2026-04-26T10:00:29.063Z</time></trkpt><trkpt lat="45.5540488" lon="10.8489102"><ele>505.0</ele><time>2026-04-26T10:00:30.063Z</time></trkpt><trkpt lat="45.5539854" lon="10.848861"><ele>505.0</ele><time>2026-04-26T10:00:31.062Z</time></trkpt><trkpt lat="45.553925" lon="10.8488184"><ele>505.0</ele><time>2026-04-26T10:00:33.063Z</time></trkpt><trkpt lat="45.5539852" lon="10.8489632"><ele>505.00000000000006</ele><time>2026-04-26T10:00:43.063Z</time></trkpt><trkpt lat="45.5540319" lon="10.8490526"><ele>505.0</ele><time>2026-04-26T10:00:44.063Z</time></trkpt><trkpt lat="45.5540859" lon="10.8491676"><ele>505.00000000000006</ele><time>2026-04-26T10:00:45.062Z</time></trkpt><trkpt lat="45.5541332" lon="10.849289"><ele>505.0</ele><time>2026-04-26T10:00:46.062Z</time></trkpt><trkpt lat="45.5541661" lon="10.849406"><ele>505.0</ele><time>2026-04-26T10:00:47.062Z</time></trkpt><trkpt lat="45.5541677" lon="10.8495019"><ele>505.0</ele><time>2026-04-26T10:00:48.063Z</time></trkpt><trkpt lat="45.5540801" lon="10.8495982"><ele>505.00000000000006</ele><time>2026-04-26T10:00:50.063Z</time></trkpt><trkpt lat="45.554011" lon="10.8496031"><ele>505.0</ele><time>2026-04-26T10:00:51.062Z</time></trkpt><trkpt lat="45.5539346" lon="10.8495798"><ele>506.4</ele><time>2026-04-26T10:00:52.063Z</time></trkpt><trkpt lat="45.553846" lon="10.8495335"><ele>507.8</ele><time>2026-04-26T10:00:53.062Z</time></trkpt><trkpt lat="45.5537437" lon="10.849474"><ele>509.20000000000005</ele><time>2026-04-26T10:00:54.063Z</time></trkpt><trkpt lat="45.5536369" lon="10.849416"><ele>510.6</ele><time>2026-04-26T10:00:55.062Z</time></trkpt><trkpt lat="45.5535216" lon="10.8493753"><ele>512.0</ele><time>2026-04-26T10:00:56.062Z</time></trkpt><trkpt lat="45.5534026" lon="10.8493701"><ele>515.25</ele><time>2026-04-26T10:00:57.062Z</time></trkpt><trkpt lat="45.5532741" lon="10.8493768"><ele>518.5</ele><time>2026-04-26T10:00:58.062Z</time></trkpt><trkpt lat="45.5531368" lon="10.8494006"><ele>521.75</ele><time>2026-04-26T10:00:59.062Z</time></trkpt><trkpt lat="45.5529995" lon="10.8494065"><ele>525.0</ele><time>2026-04-26T10:01:00.062Z</time></trkpt><trkpt lat="45.5528669" lon="10.8493925"><ele>526.0</ele><time>2026-04-26T10:01:01.062Z</time></trkpt><trkpt lat="45.5527361" lon="10.849388"><ele>527.0</ele><time>2026-04-26T10:01:02.063Z</time></trkpt><trkpt lat="45.5526061" lon="10.8493932"><ele>528.0</ele><time>2026-04-26T10:01:03.062Z</time></trkpt><trkpt lat="45.552482" lon="10.8494249"><ele>529.0</ele><time>2026-04-26T10:01:04.063Z</time></trkpt><trkpt lat="45.5523577" lon="10.8494681"><ele>529.0</ele><time>2026-04-26T10:01:05.063Z</time></trkpt><trkpt lat="45.5522238" lon="10.8495237"><ele>529.0</ele><time>2026-04-26T10:01:06.063Z</time></trkpt><trkpt lat="45.5520889" lon="10.8495659"><ele>529.0</ele><time>2026-04-26T10:01:07.062Z</time></trkpt><trkpt lat="45.5519534" lon="10.8495956"><ele>529.0</ele><time>2026-04-26T10:01:08.063Z</time></trkpt><trkpt lat="45.5518116" lon="10.8496193"><ele>530.5</ele><time>2026-04-26T10:01:09.063Z</time></trkpt><trkpt lat="45.5516734" lon="10.8496344"><ele>532.0</ele><time>2026-04-26T10:01:10.062Z</time></trkpt><trkpt lat="45.551534" lon="10.8496463"><ele>533.5</ele><time>2026-04-26T10:01:11.063Z</time></trkpt><trkpt lat="45.5513883" lon="10.8496635"><ele>535.0</ele><time>2026-04-26T10:01:12.063Z</time></trkpt><trkpt lat="45.5512437" lon="10.849675"><ele>536.5</ele><time>2026-04-26T10:01:13.063Z</time></trkpt><trkpt lat="45.5510975" lon="10.8496936"><ele>538.0</ele><time>2026-04-26T10:01:14.063Z</time></trkpt><trkpt lat="45.550946" lon="10.8497141"><ele>539.5</ele><time>2026-04-26T10:01:15.063Z</time></trkpt><trkpt lat="45.550797" lon="10.8497327"><ele>541.0</ele><time>2026-04-26T10:01:16.063Z</time></trkpt><trkpt lat="45.550649" lon="10.8497526"><ele>541.0</ele><time>2026-04-26T10:01:17.063Z</time></trkpt><trkpt lat="45.5505123" lon="10.8497847"><ele>541.0</ele><time>2026-04-26T10:01:18.062Z</time></trkpt><trkpt lat="45.5504041" lon="10.84981"><ele>541.0</ele><time>2026-04-26T10:01:19.062Z</time></trkpt><trkpt lat="45.5503295" lon="10.8498345"><ele>541.0</ele><time>2026-04-26T10:01:20.062Z</time></trkpt><trkpt lat="45.5502479" lon="10.8498925"><ele>541.0</ele><time>2026-04-26T10:01:22.063Z</time></trkpt><trkpt lat="45.5503266" lon="10.8499833"><ele>541.0</ele><time>2026-04-26T10:01:25.062Z</time></trkpt><trkpt lat="45.5504166" lon="10.8499806"><ele>541.0</ele><time>2026-04-26T10:01:26.062Z</time></trkpt><trkpt lat="45.5505243" lon="10.8499746"><ele>541.0</ele><time>2026-04-26T10:01:27.063Z</time></trkpt><trkpt lat="45.5506305" lon="10.8499869"><ele>541.0</ele><time>2026-04-26T10:01:28.062Z</time></trkpt><trkpt lat="45.5507608" lon="10.8500488"><ele>541.0</ele><time>2026-04-26T10:01:29.062Z</time></trkpt><trkpt lat="45.5508746" lon="10.850102"><ele>543.3333333333334</ele><time>2026-04-26T10:01:30.062Z</time></trkpt><trkpt lat="45.5509734" lon="10.8501475"><ele>545.6666666666667</ele><time>2026-04-26T10:01:31.062Z</time></trkpt><trkpt lat="45.5510479" lon="10.8501897"><ele>548.0</ele><time>2026-04-26T10:01:32.063Z</time></trkpt><trkpt lat="45.5511012" lon="10.8502522"><ele>550.3333333333334</ele><time>2026-04-26T10:01:34.063Z</time></trkpt><trkpt lat="45.5510339" lon="10.8503707"><ele>552.6666666666666</ele><time>2026-04-26T10:01:37.062Z</time></trkpt><trkpt lat="45.5509812" lon="10.8504374"><ele>555.0</ele><time>2026-04-26T10:01:38.062Z</time></trkpt><trkpt lat="45.5509279" lon="10.8505229"><ele>555.0</ele><time>2026-04-26T10:01:39.063Z</time></trkpt><trkpt lat="45.5508791" lon="10.8506259"><ele>555.0</ele><time>2026-04-26T10:01:40.062Z</time></trkpt><trkpt lat="45.5508332" lon="10.8507399"><ele>555.0</ele><time>2026-04-26T10:01:41.062Z</time></trkpt><trkpt lat="45.5507846" lon="10.8508634"><ele>555.0</ele><time>2026-04-26T10:01:42.063Z</time></trkpt><trkpt lat="45.5507386" lon="10.8509844"><ele>555.0</ele><time>2026-04-26T10:01:43.062Z</time></trkpt><trkpt lat="45.5506975" lon="10.8510933"><ele>557.6666666666666</ele><time>2026-04-26T10:01:44.063Z</time></trkpt><trkpt lat="45.5506658" lon="10.8511971"><ele>560.3333333333334</ele><time>2026-04-26T10:01:45.062Z</time></trkpt><trkpt lat="45.5506386" lon="10.8513018"><ele>563.0</ele><time>2026-04-26T10:01:46.062Z</time></trkpt><trkpt lat="45.5506032" lon="10.8514105"><ele>565.6666666666667</ele><time>2026-04-26T10:01:47.063Z</time></trkpt><trkpt lat="45.5505654" lon="10.8515248"><ele>568.3333333333334</ele><time>2026-04-26T10:01:48.063Z</time></trkpt><trkpt lat="45.5505244" lon="10.8516422"><ele>571.0</ele><time>2026-04-26T10:01:49.063Z</time></trkpt><trkpt lat="45.5504821" lon="10.8517543"><ele>571.6666666666667</ele><time>2026-04-26T10:01:50.062Z</time></trkpt><trkpt lat="45.5504496" lon="10.851857"><ele>572.3333333333334</ele><time>2026-04-26T10:01:51.063Z</time></trkpt><trkpt lat="45.5504213" lon="10.8519467"><ele>573.0</ele><time>2026-04-26T10:01:52.062Z</time></trkpt><trkpt lat="45.55037" lon="10.8520621"><ele>573.6666666666666</ele><time>2026-04-26T10:01:54.063Z</time></trkpt><trkpt lat="45.5502848" lon="10.8521225"><ele>574.3333333333333</ele><time>2026-04-26T10:01:56.062Z</time></trkpt><trkpt lat="45.5502065" lon="10.8521559"><ele>575.0</ele><time>2026-04-26T10:01:57.062Z</time></trkpt><trkpt lat="45.5500983" lon="10.8522136"><ele>575.0</ele><time>2026-04-26T10:01:58.062Z</time></trkpt><trkpt lat="45.5499688" lon="10.8522875"><ele>575.0</ele><time>2026-04-26T10:01:59.063Z</time></trkpt><trkpt lat="45.5498353" lon="10.8523662"><ele>575.0</ele><time>2026-04-26T10:02:00.062Z</time></trkpt><trkpt lat="45.5497064" lon="10.8524508"><ele>575.0</ele><time>2026-04-26T10:02:01.063Z</time></trkpt><trkpt lat="45.54958" lon="10.8525376"><ele>577.0</ele><time>2026-04-26T10:02:02.062Z</time></trkpt><trkpt lat="45.5494478" lon="10.8526278"><ele>579.0</ele><time>2026-04-26T10:02:03.063Z</time></trkpt><trkpt lat="45.5493157" lon="10.8527123"><ele>581.0</ele><time>2026-04-26T10:02:04.062Z</time></trkpt><trkpt lat="45.5491874" lon="10.8527922"><ele>583.0</ele><time>2026-04-26T10:02:05.063Z</time></trkpt><trkpt lat="45.5490677" lon="10.8528652"><ele>583.0</ele><time>2026-04-26T10:02:06.062Z</time></trkpt><trkpt lat="45.5489489" lon="10.8529394"><ele>583.0</ele><time>2026-04-26T10:02:07.063Z</time></trkpt><trkpt lat="45.5488381" lon="10.8530048"><ele>583.0</ele><time>2026-04-26T10:02:08.062Z</time></trkpt><trkpt lat="45.5487261" lon="10.853057"><ele>583.0</ele><time>2026-04-26T10:02:09.062Z</time></trkpt><trkpt lat="45.5486163" lon="10.8531139"><ele>583.4</ele><time>2026-04-26T10:02:10.062Z</time></trkpt><trkpt lat="45.5485109" lon="10.8531916"><ele>583.8</ele><time>2026-04-26T10:02:11.063Z</time></trkpt><trkpt lat="45.548419" lon="10.8532795"><ele>584.2</ele><time>2026-04-26T10:02:12.063Z</time></trkpt><trkpt lat="45.5483389" lon="10.8533777"><ele>584.6</ele><time>2026-04-26T10:02:13.062Z</time></trkpt><trkpt lat="45.5482686" lon="10.8534813"><ele>585.0</ele><time>2026-04-26T10:02:14.062Z</time></trkpt><trkpt lat="45.54821" lon="10.8535992"><ele>585.8</ele><time>2026-04-26T10:02:15.062Z</time></trkpt><trkpt lat="45.5481542" lon="10.8537113"><ele>586.6</ele><time>2026-04-26T10:02:16.062Z</time></trkpt><trkpt lat="45.5481042" lon="10.853845"><ele>587.4</ele><time>2026-04-26T10:02:17.063Z</time></trkpt><trkpt lat="45.5480609" lon="10.8539835"><ele>588.2</ele><time>2026-04-26T10:02:18.063Z</time></trkpt><trkpt lat="45.5480187" lon="10.8541376"><ele>589.0</ele><time>2026-04-26T10:02:19.063Z</time></trkpt><trkpt lat="45.5479742" lon="10.8543098"><ele>590.0</ele><time>2026-04-26T10:02:20.062Z</time></trkpt><trkpt lat="45.5479409" lon="10.8544966"><ele>591.0</ele><time>2026-04-26T10:02:21.063Z</time></trkpt><trkpt lat="45.5479171" lon="10.8546983"><ele>592.0</ele><time>2026-04-26T10:02:22.063Z</time></trkpt><trkpt lat="45.5478941" lon="10.8549018"><ele>593.0</ele><time>2026-04-26T10:02:23.062Z</time></trkpt><trkpt lat="45.5478804" lon="10.8550919"><ele>590.6</ele><time>2026-04-26T10:02:24.062Z</time></trkpt><trkpt lat="45.5478639" lon="10.855266"><ele>588.1999999999999</ele><time>2026-04-26T10:02:25.063Z</time></trkpt><trkpt lat="45.5478504" lon="10.8554313"><ele>585.8</ele><time>2026-04-26T10:02:26.063Z</time></trkpt><trkpt lat="45.5478436" lon="10.8555802"><ele>583.4</ele><time>2026-04-26T10:02:27.062Z</time></trkpt><trkpt lat="45.547833" lon="10.8557047"><ele>581.0</ele><time>2026-04-26T10:02:28.062Z</time></trkpt><trkpt lat="45.5478274" lon="10.8558103"><ele>581.0</ele><time>2026-04-26T10:02:29.062Z</time></trkpt><trkpt lat="45.54781" lon="10.8559091"><ele>581.0</ele><time>2026-04-26T10:02:30.062Z</time></trkpt><trkpt lat="45.54779" lon="10.8560027"><ele>581.0</ele><time>2026-04-26T10:02:31.063Z</time></trkpt><trkpt lat="45.5477607" lon="10.856088"><ele>581.0</ele><time>2026-04-26T10:02:32.063Z</time></trkpt><trkpt lat="45.5477103" lon="10.8561529"><ele>581.0</ele><time>2026-04-26T10:02:33.062Z</time></trkpt><trkpt lat="45.547645" lon="10.8561831"><ele>581.0</ele><time>2026-04-26T10:02:34.062Z</time></trkpt><trkpt lat="45.5475593" lon="10.856171"><ele>581.0</ele><time>2026-04-26T10:02:35.062Z</time></trkpt><trkpt lat="45.5474292" lon="10.8561618"><ele>579.75</ele><time>2026-04-26T10:02:36.062Z</time></trkpt><trkpt lat="45.5472857" lon="10.8561751"><ele>578.5</ele><time>2026-04-26T10:02:37.062Z</time></trkpt><trkpt lat="45.5471457" lon="10.8562031"><ele>577.25</ele><time>2026-04-26T10:02:38.062Z</time></trkpt><trkpt lat="45.5470218" lon="10.8562462"><ele>576.0</ele><time>2026-04-26T10:02:39.062Z</time></trkpt><trkpt lat="45.5469077" lon="10.8563053"><ele>576.0</ele><time>2026-04-26T10:02:40.062Z</time></trkpt><trkpt lat="45.5467969" lon="10.856371"><ele>576.0</ele><time>2026-04-26T10:02:41.061Z</time></trkpt><trkpt lat="45.5466913" lon="10.85644"><ele>576.0</ele><time>2026-04-26T10:02:42.062Z</time></trkpt><trkpt lat="45.5465981" lon="10.8565042"><ele>576.0</ele><time>2026-04-26T10:02:43.061Z</time></trkpt><trkpt lat="45.546509" lon="10.8565681"><ele>576.0</ele><time>2026-04-26T10:02:44.061Z</time></trkpt><trkpt lat="45.5464224" lon="10.8566359"><ele>576.0</ele><time>2026-04-26T10:02:45.061Z</time></trkpt><trkpt lat="45.5463489" lon="10.8567204"><ele>576.0</ele><time>2026-04-26T10:02:46.062Z</time></trkpt><trkpt lat="45.5462788" lon="10.8568163"><ele>576.0</ele><time>2026-04-26T10:02:47.061Z</time></trkpt><trkpt lat="45.5462196" lon="10.8569145"><ele>576.0</ele><time>2026-04-26T10:02:48.061Z</time></trkpt><trkpt lat="45.5461644" lon="10.8569981"><ele>576.0</ele><time>2026-04-26T10:02:49.062Z</time></trkpt><trkpt lat="45.5461156" lon="10.8570616"><ele>576.0</ele><time>2026-04-26T10:02:50.061Z</time></trkpt><trkpt lat="45.5460772" lon="10.8571712"><ele>574.6</ele><time>2026-04-26T10:02:52.061Z</time></trkpt><trkpt lat="45.5461587" lon="10.8573103"><ele>573.2</ele><time>2026-04-26T10:02:54.062Z</time></trkpt><trkpt lat="45.546216" lon="10.8574102"><ele>571.8</ele><time>2026-04-26T10:02:55.062Z</time></trkpt><trkpt lat="45.5462883" lon="10.8575215"><ele>570.4</ele><time>2026-04-26T10:02:56.062Z</time></trkpt><trkpt lat="45.5463702" lon="10.8576462"><ele>569.0</ele><time>2026-04-26T10:02:57.062Z</time></trkpt><trkpt lat="45.5464653" lon="10.8577767"><ele>564.5</ele><time>2026-04-26T10:02:58.062Z</time></trkpt><trkpt lat="45.5465544" lon="10.8579131"><ele>560.0</ele><time>2026-04-26T10:02:59.061Z</time></trkpt><trkpt lat="45.5466451" lon="10.8580539"><ele>555.5</ele><time>2026-04-26T10:03:00.062Z</time></trkpt><trkpt lat="45.546735" lon="10.8581945"><ele>551.0</ele><time>2026-04-26T10:03:01.061Z</time></trkpt><trkpt lat="45.5468197" lon="10.8583386"><ele>553.5</ele><time>2026-04-26T10:03:02.062Z</time></trkpt><trkpt lat="45.5469074" lon="10.8584841"><ele>556.0</ele><time>2026-04-26T10:03:03.061Z</time></trkpt><trkpt lat="45.546997" lon="10.8586326"><ele>558.5</ele><time>2026-04-26T10:03:04.062Z</time></trkpt><trkpt lat="45.547087" lon="10.8587804"><ele>561.0</ele><time>2026-04-26T10:03:05.062Z</time></trkpt><trkpt lat="45.5471713" lon="10.8589172"><ele>561.0</ele><time>2026-04-26T10:03:06.061Z</time></trkpt><trkpt lat="45.5472519" lon="10.859051"><ele>561.0</ele><time>2026-04-26T10:03:07.062Z</time></trkpt><trkpt lat="45.5473256" lon="10.8591803"><ele>561.0</ele><time>2026-04-26T10:03:08.062Z</time></trkpt><trkpt lat="45.5473941" lon="10.8593133"><ele>561.0</ele><time>2026-04-26T10:03:09.062Z</time></trkpt><trkpt lat="45.5474566" lon="10.8594335"><ele>557.2</ele><time>2026-04-26T10:03:10.061Z</time></trkpt><trkpt lat="45.5475097" lon="10.8595596"><ele>553.4000000000001</ele><time>2026-04-26T10:03:11.061Z</time></trkpt><trkpt lat="45.547538" lon="10.8597078"><ele>549.6</ele><time>2026-04-26T10:03:12.062Z</time></trkpt><trkpt lat="45.5475562" lon="10.859864"><ele>545.8000000000001</ele><time>2026-04-26T10:03:13.062Z</time></trkpt><trkpt lat="45.5475837" lon="10.8600172"><ele>542.0</ele><time>2026-04-26T10:03:14.061Z</time></trkpt><trkpt lat="45.5476183" lon="10.8601683"><ele>538.0</ele><time>2026-04-26T10:03:15.062Z</time></trkpt><trkpt lat="45.5476578" lon="10.8603143"><ele>534.0</ele><time>2026-04-26T10:03:16.061Z</time></trkpt><trkpt lat="45.5477116" lon="10.8604654"><ele>530.0</ele><time>2026-04-26T10:03:17.062Z</time></trkpt><trkpt lat="45.5477548" lon="10.8606082"><ele>526.0</ele><time>2026-04-26T10:03:18.062Z</time></trkpt><trkpt lat="45.5478164" lon="10.8607662"><ele>526.0</ele><time>2026-04-26T10:03:19.061Z</time></trkpt><trkpt lat="45.5478682" lon="10.86093"><ele>526.0</ele><time>2026-04-26T10:03:20.061Z</time></trkpt><trkpt lat="45.5479033" lon="10.8610989"><ele>526.0</ele><time>2026-04-26T10:03:21.062Z</time></trkpt><trkpt lat="45.5479162" lon="10.8612604"><ele>526.0</ele><time>2026-04-26T10:03:22.061Z</time></trkpt><trkpt lat="45.5479128" lon="10.8614067"><ele>526.2</ele><time>2026-04-26T10:03:23.062Z</time></trkpt><trkpt lat="45.5478902" lon="10.8615303"><ele>526.4000000000001</ele><time>2026-04-26T10:03:24.061Z</time></trkpt><trkpt lat="45.5478563" lon="10.8616495"><ele>526.6</ele><time>2026-04-26T10:03:25.061Z</time></trkpt><trkpt lat="45.5477975" lon="10.8617454"><ele>526.8000000000001</ele><time>2026-04-26T10:03:26.061Z</time></trkpt><trkpt lat="45.5477166" lon="10.8618324"><ele>527.0</ele><time>2026-04-26T10:03:27.062Z</time></trkpt><trkpt lat="45.5476316" lon="10.8619174"><ele>521.0</ele><time>2026-04-26T10:03:28.062Z</time></trkpt><trkpt lat="45.547541" lon="10.8620152"><ele>515.0</ele><time>2026-04-26T10:03:29.061Z</time></trkpt><trkpt lat="45.5474501" lon="10.8621227"><ele>509.0</ele><time>2026-04-26T10:03:30.062Z</time></trkpt><trkpt lat="45.5473607" lon="10.8622151"><ele>503.0</ele><time>2026-04-26T10:03:31.062Z</time></trkpt><trkpt lat="45.5472614" lon="10.8622985"><ele>503.0</ele><time>2026-04-26T10:03:32.061Z</time></trkpt><trkpt lat="45.5471553" lon="10.862375"><ele>503.0</ele><time>2026-04-26T10:03:33.061Z</time></trkpt><trkpt lat="45.5470459" lon="10.8624343"><ele>503.0</ele><time>2026-04-26T10:03:34.061Z</time></trkpt><trkpt lat="45.5469332" lon="10.8624893"><ele>503.0</ele><time>2026-04-26T10:03:35.061Z</time></trkpt><trkpt lat="45.5468354" lon="10.8625374"><ele>501.66666666666663</ele><time>2026-04-26T10:03:36.061Z</time></trkpt><trkpt lat="45.5467575" lon="10.8625659"><ele>500.3333333333333</ele><time>2026-04-26T10:03:37.061Z</time></trkpt><trkpt lat="45.5466673" lon="10.8626186"><ele>499.0</ele><time>2026-04-26T10:03:39.061Z</time></trkpt><trkpt lat="45.5466007" lon="10.8625666"><ele>497.66666666666663</ele><time>2026-04-26T10:03:41.062Z</time></trkpt><trkpt lat="45.5465578" lon="10.8624282"><ele>496.3333333333333</ele><time>2026-04-26T10:03:43.061Z</time></trkpt><trkpt lat="45.5465485" lon="10.8623131"><ele>495.0</ele><time>2026-04-26T10:03:44.061Z</time></trkpt><trkpt lat="45.5465527" lon="10.8621761"><ele>495.0</ele><time>2026-04-26T10:03:45.061Z</time></trkpt><trkpt lat="45.5465531" lon="10.8620247"><ele>495.0</ele><time>2026-04-26T10:03:46.062Z</time></trkpt><trkpt lat="45.5465457" lon="10.8618614"><ele>495.0</ele><time>2026-04-26T10:03:47.062Z</time></trkpt><trkpt lat="45.546529" lon="10.8617098"><ele>495.0</ele><time>2026-04-26T10:03:48.061Z</time></trkpt><trkpt lat="45.5465049" lon="10.8615528"><ele>495.0</ele><time>2026-04-26T10:03:49.062Z</time></trkpt><trkpt lat="45.5464693" lon="10.8613914"><ele>497.2</ele><time>2026-04-26T10:03:50.062Z</time></trkpt><trkpt lat="45.5464346" lon="10.861241"><ele>499.4</ele><time>2026-04-26T10:03:51.062Z</time></trkpt><trkpt lat="45.5463996" lon="10.8611237"><ele>501.6</ele><time>2026-04-26T10:03:52.062Z</time></trkpt><trkpt lat="45.5463514" lon="10.8609996"><ele>503.8</ele><time>2026-04-26T10:03:54.061Z</time></trkpt><trkpt lat="45.5463067" lon="10.8608773"><ele>506.0</ele><time>2026-04-26T10:03:57.061Z</time></trkpt><trkpt lat="45.5462489" lon="10.8607039"><ele>505.99999999999994</ele><time>2026-04-26T10:03:59.061Z</time></trkpt><trkpt lat="45.5462183" lon="10.8606"><ele>506.0</ele><time>2026-04-26T10:04:00.061Z</time></trkpt><trkpt lat="45.5461914" lon="10.8604912"><ele>506.0</ele><time>2026-04-26T10:04:01.061Z</time></trkpt><trkpt lat="45.5461665" lon="10.8603651"><ele>506.0</ele><time>2026-04-26T10:04:02.061Z</time></trkpt><trkpt lat="45.5461439" lon="10.860232"><ele>505.99999999999994</ele><time>2026-04-26T10:04:03.061Z</time></trkpt><trkpt lat="45.5461181" lon="10.8601059"><ele>506.0</ele><time>2026-04-26T10:04:04.061Z</time></trkpt><trkpt lat="45.5460906" lon="10.8599855"><ele>505.99999999999994</ele><time>2026-04-26T10:04:05.061Z</time></trkpt><trkpt lat="45.5460549" lon="10.859874"><ele>506.0</ele><time>2026-04-26T10:04:06.062Z</time></trkpt><trkpt lat="45.5460214" lon="10.8597642"><ele>506.0</ele><time>2026-04-26T10:04:07.062Z</time></trkpt><trkpt lat="45.5459858" lon="10.8596711"><ele>506.0</ele><time>2026-04-26T10:04:08.062Z</time></trkpt><trkpt lat="45.5459547" lon="10.8595721"><ele>505.99999999999994</ele><time>2026-04-26T10:04:09.061Z</time></trkpt><trkpt lat="45.5459285" lon="10.8594639"><ele>506.0</ele><time>2026-04-26T10:04:10.062Z</time></trkpt><trkpt lat="45.5458976" lon="10.8593596"><ele>508.16666666666663</ele><time>2026-04-26T10:04:11.061Z</time></trkpt><trkpt lat="45.5458728" lon="10.8592565"><ele>510.3333333333333</ele><time>2026-04-26T10:04:12.062Z</time></trkpt><trkpt lat="45.545855" lon="10.85916"><ele>512.5</ele><time>2026-04-26T10:04:13.061Z</time></trkpt><trkpt lat="45.5458372" lon="10.8590712"><ele>514.6666666666666</ele><time>2026-04-26T10:04:14.061Z</time></trkpt><trkpt lat="45.5457606" lon="10.8589089"><ele>516.8333333333334</ele><time>2026-04-26T10:04:16.061Z</time></trkpt><trkpt lat="45.5457049" lon="10.8588227"><ele>519.0</ele><time>2026-04-26T10:04:17.062Z</time></trkpt><trkpt lat="45.545655" lon="10.8587455"><ele>519.0</ele><time>2026-04-26T10:04:18.062Z</time></trkpt><trkpt lat="45.5455907" lon="10.8585937"><ele>519.0</ele><time>2026-04-26T10:04:20.062Z</time></trkpt><trkpt lat="45.545562" lon="10.8584164"><ele>519.0</ele><time>2026-04-26T10:04:22.062Z</time></trkpt><trkpt lat="45.5455229" lon="10.8583238"><ele>519.0</ele><time>2026-04-26T10:04:23.062Z</time></trkpt><trkpt lat="45.5454659" lon="10.8582294"><ele>519.0</ele><time>2026-04-26T10:04:24.062Z</time></trkpt><trkpt lat="45.5454002" lon="10.8581432"><ele>518.2</ele><time>2026-04-26T10:04:25.061Z</time></trkpt><trkpt lat="45.5453228" lon="10.8580569"><ele>517.4</ele><time>2026-04-26T10:04:26.061Z</time></trkpt><trkpt lat="45.5452382" lon="10.857972"><ele>516.6</ele><time>2026-04-26T10:04:27.062Z</time></trkpt><trkpt lat="45.5451544" lon="10.8579008"><ele>515.8</ele><time>2026-04-26T10:04:28.062Z</time></trkpt><trkpt lat="45.5450689" lon="10.8578367"><ele>515.0</ele><time>2026-04-26T10:04:29.062Z</time></trkpt><trkpt lat="45.5449846" lon="10.8577608"><ele>515.0</ele><time>2026-04-26T10:04:30.061Z</time></trkpt><trkpt lat="45.5449057" lon="10.8576712"><ele>515.0</ele><time>2026-04-26T10:04:31.062Z</time></trkpt><trkpt lat="45.5448251" lon="10.8575926"><ele>515.0</ele><time>2026-04-26T10:04:32.061Z</time></trkpt><trkpt lat="45.5447529" lon="10.8575211"><ele>515.0</ele><time>2026-04-26T10:04:33.061Z</time></trkpt><trkpt lat="45.544683" lon="10.8574574"><ele>515.0</ele><time>2026-04-26T10:04:34.062Z</time></trkpt><trkpt lat="45.5446097" lon="10.8573874"><ele>516.8333333333333</ele><time>2026-04-26T10:04:35.061Z</time></trkpt><trkpt lat="45.5445342" lon="10.857328"><ele>518.6666666666666</ele><time>2026-04-26T10:04:36.061Z</time></trkpt><trkpt lat="45.5444605" lon="10.8572782"><ele>520.5</ele><time>2026-04-26T10:04:37.062Z</time></trkpt><trkpt lat="45.5443909" lon="10.857241"><ele>522.3333333333334</ele><time>2026-04-26T10:04:38.061Z</time></trkpt><trkpt lat="45.5443223" lon="10.8571952"><ele>524.1666666666667</ele><time>2026-04-26T10:04:39.061Z</time></trkpt><trkpt lat="45.5442516" lon="10.8571337"><ele>526.0</ele><time>2026-04-26T10:04:40.061Z</time></trkpt><trkpt lat="45.5441828" lon="10.8570609"><ele>526.0</ele><time>2026-04-26T10:04:41.062Z</time></trkpt><trkpt lat="45.5441127" lon="10.8570077"><ele>526.0</ele><time>2026-04-26T10:04:42.061Z</time></trkpt><trkpt lat="45.5440046" lon="10.8569407"><ele>526.0</ele><time>2026-04-26T10:04:44.062Z</time></trkpt><trkpt lat="45.5438931" lon="10.856899"><ele>526.0</ele><time>2026-04-26T10:04:46.062Z</time></trkpt><trkpt lat="45.5438299" lon="10.8568766"><ele>526.0</ele><time>2026-04-26T10:04:47.062Z</time></trkpt><trkpt lat="45.5437644" lon="10.8568544"><ele>526.0</ele><time>2026-04-26T10:04:48.061Z</time></trkpt><trkpt lat="45.5437023" lon="10.8568273"><ele>525.2</ele><time>2026-04-26T10:04:49.062Z</time></trkpt><trkpt lat="45.5435859" lon="10.8567892"><ele>524.4000000000001</ele><time>2026-04-26T10:04:51.061Z</time></trkpt><trkpt lat="45.5435161" lon="10.8567687"><ele>523.6</ele><time>2026-04-26T10:04:52.061Z</time></trkpt><trkpt lat="45.5434329" lon="10.8567499"><ele>522.8000000000001</ele><time>2026-04-26T10:04:53.062Z</time></trkpt><trkpt lat="45.5433421" lon="10.8567328"><ele>522.0</ele><time>2026-04-26T10:04:54.062Z</time></trkpt><trkpt lat="45.5432443" lon="10.8567183"><ele>522.0</ele><time>2026-04-26T10:04:55.062Z</time></trkpt><trkpt lat="45.5431529" lon="10.8566993"><ele>522.0</ele><time>2026-04-26T10:04:56.062Z</time></trkpt><trkpt lat="45.5430563" lon="10.8566747"><ele>522.0</ele><time>2026-04-26T10:04:57.062Z</time></trkpt><trkpt lat="45.5429477" lon="10.8566463"><ele>522.0</ele><time>2026-04-26T10:04:58.062Z</time></trkpt><trkpt lat="45.5428383" lon="10.8566195"><ele>522.0</ele><time>2026-04-26T10:04:59.062Z</time></trkpt><trkpt lat="45.5427293" lon="10.8565909"><ele>521.0</ele><time>2026-04-26T10:05:00.062Z</time></trkpt><trkpt lat="45.5426166" lon="10.8565634"><ele>520.0</ele><time>2026-04-26T10:05:01.061Z</time></trkpt><trkpt lat="45.5425018" lon="10.8565342"><ele>519.0</ele><time>2026-04-26T10:05:02.062Z</time></trkpt><trkpt lat="45.5423882" lon="10.8565107"><ele>518.0</ele><time>2026-04-26T10:05:03.061Z</time></trkpt><trkpt lat="45.5422729" lon="10.8565007"><ele>518.0</ele><time>2026-04-26T10:05:04.062Z</time></trkpt><trkpt lat="45.5421622" lon="10.8564851"><ele>518.0</ele><time>2026-04-26T10:05:05.062Z</time></trkpt><trkpt lat="45.5420498" lon="10.8564579"><ele>518.0</ele><time>2026-04-26T10:05:06.062Z</time></trkpt><trkpt lat="45.5419352" lon="10.856434"><ele>518.0</ele><time>2026-04-26T10:05:07.061Z</time></trkpt><trkpt lat="45.5418232" lon="10.856414"><ele>515.75</ele><time>2026-04-26T10:05:08.062Z</time></trkpt><trkpt lat="45.5417135" lon="10.8563884"><ele>513.5</ele><time>2026-04-26T10:05:09.061Z</time></trkpt><trkpt lat="45.5415982" lon="10.8563777"><ele>511.25</ele><time>2026-04-26T10:05:10.062Z</time></trkpt><trkpt lat="45.5414849" lon="10.8563708"><ele>509.0</ele><time>2026-04-26T10:05:11.062Z</time></trkpt><trkpt lat="45.5413736" lon="10.8563635"><ele>508.99999999999994</ele><time>2026-04-26T10:05:12.061Z</time></trkpt><trkpt lat="45.5412691" lon="10.8563522"><ele>509.0</ele><time>2026-04-26T10:05:13.061Z</time></trkpt><trkpt lat="45.541175" lon="10.8563348"><ele>509.0</ele><time>2026-04-26T10:05:14.062Z</time></trkpt><trkpt lat="45.5410891" lon="10.856319"><ele>509.0</ele><time>2026-04-26T10:05:15.061Z</time></trkpt><trkpt lat="45.5410161" lon="10.8563352"><ele>508.99999999999994</ele><time>2026-04-26T10:05:16.061Z</time></trkpt><trkpt lat="45.5409503" lon="10.8563688"><ele>509.0</ele><time>2026-04-26T10:05:17.062Z</time></trkpt><trkpt lat="45.540901" lon="10.8564406"><ele>506.6</ele><time>2026-04-26T10:05:18.062Z</time></trkpt><trkpt lat="45.54087" lon="10.8565429"><ele>504.2</ele><time>2026-04-26T10:05:19.062Z</time></trkpt><trkpt lat="45.5408533" lon="10.8566707"><ele>501.80000000000007</ele><time>2026-04-26T10:05:20.062Z</time></trkpt><trkpt lat="45.5408403" lon="10.8568177"><ele>499.40000000000003</ele><time>2026-04-26T10:05:21.062Z</time></trkpt><trkpt lat="45.5408337" lon="10.8569735"><ele>497.0</ele><time>2026-04-26T10:05:22.061Z</time></trkpt><trkpt lat="45.5408214" lon="10.8571231"><ele>496.40000000000003</ele><time>2026-04-26T10:05:23.062Z</time></trkpt><trkpt lat="45.5408033" lon="10.8572729"><ele>495.80000000000007</ele><time>2026-04-26T10:05:24.061Z</time></trkpt><trkpt lat="45.5407856" lon="10.8574165"><ele>495.2</ele><time>2026-04-26T10:05:25.062Z</time></trkpt><trkpt lat="45.5407711" lon="10.8575557"><ele>494.6</ele><time>2026-04-26T10:05:26.062Z</time></trkpt><trkpt lat="45.5407632" lon="10.8576695"><ele>494.0</ele><time>2026-04-26T10:05:27.061Z</time></trkpt><trkpt lat="45.5407604" lon="10.8577798"><ele>494.2</ele><time>2026-04-26T10:05:28.061Z</time></trkpt><trkpt lat="45.5408265" lon="10.8579401"><ele>494.4</ele><time>2026-04-26T10:05:30.062Z</time></trkpt><trkpt lat="45.5409053" lon="10.8579977"><ele>494.6</ele><time>2026-04-26T10:05:31.061Z</time></trkpt><trkpt lat="45.5410017" lon="10.8580573"><ele>494.8</ele><time>2026-04-26T10:05:32.062Z</time></trkpt><trkpt lat="45.5411049" lon="10.8581217"><ele>495.0</ele><time>2026-04-26T10:05:33.061Z</time></trkpt><trkpt lat="45.541217" lon="10.8581725"><ele>495.0</ele><time>2026-04-26T10:05:34.062Z</time></trkpt><trkpt lat="45.5413325" lon="10.8582246"><ele>495.0</ele><time>2026-04-26T10:05:35.062Z</time></trkpt><trkpt lat="45.5414439" lon="10.8582683"><ele>495.0</ele><time>2026-04-26T10:05:36.061Z</time></trkpt><trkpt lat="45.5415487" lon="10.8583171"><ele>495.0</ele><time>2026-04-26T10:05:37.062Z</time></trkpt><trkpt lat="45.5416309" lon="10.8583696"><ele>495.0</ele><time>2026-04-26T10:05:38.061Z</time></trkpt><trkpt lat="45.541696" lon="10.8584129"><ele>492.4</ele><time>2026-04-26T10:05:39.061Z</time></trkpt><trkpt lat="45.5417585" lon="10.8584689"><ele>489.8</ele><time>2026-04-26T10:05:40.061Z</time></trkpt><trkpt lat="45.5418334" lon="10.8585213"><ele>487.20000000000005</ele><time>2026-04-26T10:05:41.062Z</time></trkpt><trkpt lat="45.5419207" lon="10.8585574"><ele>484.6</ele><time>2026-04-26T10:05:42.061Z</time></trkpt><trkpt lat="45.5420306" lon="10.8585872"><ele>482.0</ele><time>2026-04-26T10:05:43.061Z</time></trkpt><trkpt lat="45.5421542" lon="10.858615"><ele>482.0</ele><time>2026-04-26T10:05:44.06Z</time></trkpt><trkpt lat="45.5422846" lon="10.8586257"><ele>482.0</ele><time>2026-04-26T10:05:45.06Z</time></trkpt><trkpt lat="45.5424222" lon="10.8586289"><ele>482.0</ele><time>2026-04-26T10:05:46.061Z</time></trkpt><trkpt lat="45.5425544" lon="10.8586214"><ele>482.0</ele><time>2026-04-26T10:05:47.061Z</time></trkpt><trkpt lat="45.5426862" lon="10.8586131"><ele>482.0</ele><time>2026-04-26T10:05:48.061Z</time></trkpt><trkpt lat="45.5428117" lon="10.8586057"><ele>482.0</ele><time>2026-04-26T10:05:49.06Z</time></trkpt><trkpt lat="45.5429273" lon="10.8585943"><ele>482.0</ele><time>2026-04-26T10:05:50.06Z</time></trkpt><trkpt lat="45.5430275" lon="10.8585557"><ele>482.0</ele><time>2026-04-26T10:05:51.061Z</time></trkpt><trkpt lat="45.5431372" lon="10.8585165"><ele>482.0</ele><time>2026-04-26T10:05:52.061Z</time></trkpt><trkpt lat="45.5432597" lon="10.8584594"><ele>482.0</ele><time>2026-04-26T10:05:53.061Z</time></trkpt><trkpt lat="45.5433765" lon="10.8584074"><ele>482.0</ele><time>2026-04-26T10:05:54.06Z</time></trkpt><trkpt lat="45.5434817" lon="10.858356"><ele>482.0</ele><time>2026-04-26T10:05:55.061Z</time></trkpt><trkpt lat="45.5435804" lon="10.8583323"><ele>482.20000000000005</ele><time>2026-04-26T10:05:56.06Z</time></trkpt><trkpt lat="45.5436825" lon="10.8583368"><ele>482.40000000000003</ele><time>2026-04-26T10:05:57.061Z</time></trkpt><trkpt lat="45.5437784" lon="10.8583599"><ele>482.59999999999997</ele><time>2026-04-26T10:05:58.061Z</time></trkpt><trkpt lat="45.5438778" lon="10.8584011"><ele>482.79999999999995</ele><time>2026-04-26T10:05:59.06Z</time></trkpt><trkpt lat="45.5439813" lon="10.8584689"><ele>483.0</ele><time>2026-04-26T10:06:00.061Z</time></trkpt><trkpt lat="45.5440927" lon="10.8585386"><ele>483.0</ele><time>2026-04-26T10:06:01.061Z</time></trkpt><trkpt lat="45.544208" lon="10.8586076"><ele>483.0</ele><time>2026-04-26T10:06:02.06Z</time></trkpt><trkpt lat="45.5443229" lon="10.858671"><ele>483.0</ele><time>2026-04-26T10:06:03.061Z</time></trkpt><trkpt lat="45.5444215" lon="10.85876"><ele>483.0</ele><time>2026-04-26T10:06:04.061Z</time></trkpt><trkpt lat="45.5445121" lon="10.8588729"><ele>483.0</ele><time>2026-04-26T10:06:05.061Z</time></trkpt><trkpt lat="45.544581" lon="10.859008"><ele>483.0</ele><time>2026-04-26T10:06:06.06Z</time></trkpt><trkpt lat="45.5446482" lon="10.8591612"><ele>483.0</ele><time>2026-04-26T10:06:07.06Z</time></trkpt><trkpt lat="45.5447156" lon="10.8593134"><ele>483.0</ele><time>2026-04-26T10:06:08.06Z</time></trkpt><trkpt lat="45.5447884" lon="10.8594624"><ele>483.0</ele><time>2026-04-26T10:06:09.06Z</time></trkpt><trkpt lat="45.5448479" lon="10.8596019"><ele>483.0</ele><time>2026-04-26T10:06:10.061Z</time></trkpt><trkpt lat="45.5449002" lon="10.8597458"><ele>483.0</ele><time>2026-04-26T10:06:11.06Z</time></trkpt><trkpt lat="45.5449463" lon="10.8599043"><ele>483.0</ele><time>2026-04-26T10:06:12.061Z</time></trkpt><trkpt lat="45.5449804" lon="10.8600568"><ele>481.4</ele><time>2026-04-26T10:06:13.06Z</time></trkpt><trkpt lat="45.5450076" lon="10.8602005"><ele>479.79999999999995</ele><time>2026-04-26T10:06:14.061Z</time></trkpt><trkpt lat="45.54503" lon="10.8603424"><ele>478.2</ele><time>2026-04-26T10:06:15.06Z</time></trkpt><trkpt lat="45.5450444" lon="10.8604847"><ele>476.6</ele><time>2026-04-26T10:06:16.06Z</time></trkpt><trkpt lat="45.5450591" lon="10.8606335"><ele>475.0</ele><time>2026-04-26T10:06:17.06Z</time></trkpt><trkpt lat="45.5450708" lon="10.8607995"><ele>473.8</ele><time>2026-04-26T10:06:18.061Z</time></trkpt><trkpt lat="45.5450739" lon="10.8609663"><ele>472.6</ele><time>2026-04-26T10:06:19.061Z</time></trkpt><trkpt lat="45.5450732" lon="10.8611201"><ele>471.4</ele><time>2026-04-26T10:06:20.06Z</time></trkpt><trkpt lat="45.5450707" lon="10.8612744"><ele>470.2</ele><time>2026-04-26T10:06:21.06Z</time></trkpt><trkpt lat="45.5450582" lon="10.8614375"><ele>469.0</ele><time>2026-04-26T10:06:22.061Z</time></trkpt><trkpt lat="45.5450441" lon="10.8616029"><ele>469.0</ele><time>2026-04-26T10:06:23.06Z</time></trkpt><trkpt lat="45.5450417" lon="10.8617559"><ele>469.0</ele><time>2026-04-26T10:06:24.06Z</time></trkpt><trkpt lat="45.5450546" lon="10.8619062"><ele>469.0</ele><time>2026-04-26T10:06:25.06Z</time></trkpt><trkpt lat="45.5450956" lon="10.8620407"><ele>469.0</ele><time>2026-04-26T10:06:26.061Z</time></trkpt><trkpt lat="45.5451513" lon="10.8621634"><ele>469.0</ele><time>2026-04-26T10:06:27.06Z</time></trkpt><trkpt lat="45.5452168" lon="10.862261"><ele>470.33333333333337</ele><time>2026-04-26T10:06:28.06Z</time></trkpt><trkpt lat="45.5452968" lon="10.8623339"><ele>471.6666666666667</ele><time>2026-04-26T10:06:29.06Z</time></trkpt><trkpt lat="45.5453871" lon="10.8623769"><ele>473.0</ele><time>2026-04-26T10:06:30.061Z</time></trkpt><trkpt lat="45.5454834" lon="10.8623969"><ele>474.33333333333337</ele><time>2026-04-26T10:06:31.061Z</time></trkpt><trkpt lat="45.5455713" lon="10.8624131"><ele>475.6666666666667</ele><time>2026-04-26T10:06:32.061Z</time></trkpt><trkpt lat="45.5456373" lon="10.862436"><ele>477.0</ele><time>2026-04-26T10:06:33.06Z</time></trkpt><trkpt lat="45.5456988" lon="10.862544"><ele>473.0</ele><time>2026-04-26T10:06:35.061Z</time></trkpt><trkpt lat="45.5457456" lon="10.862714"><ele>469.00000000000006</ele><time>2026-04-26T10:06:37.06Z</time></trkpt><trkpt lat="45.5457839" lon="10.8628218"><ele>465.00000000000006</ele><time>2026-04-26T10:06:38.061Z</time></trkpt><trkpt lat="45.5458281" lon="10.8629391"><ele>461.0</ele><time>2026-04-26T10:06:39.06Z</time></trkpt><trkpt lat="45.5458808" lon="10.8630673"><ele>457.0</ele><time>2026-04-26T10:06:40.061Z</time></trkpt><trkpt lat="45.5459496" lon="10.8631874"><ele>457.0</ele><time>2026-04-26T10:06:41.061Z</time></trkpt><trkpt lat="45.5460388" lon="10.8632915"><ele>457.0</ele><time>2026-04-26T10:06:42.061Z</time></trkpt><trkpt lat="45.5461511" lon="10.8633965"><ele>457.0</ele><time>2026-04-26T10:06:43.06Z</time></trkpt><trkpt lat="45.5462722" lon="10.8634966"><ele>457.0</ele><time>2026-04-26T10:06:44.06Z</time></trkpt><trkpt lat="45.5463913" lon="10.8635943"><ele>459.0</ele><time>2026-04-26T10:06:45.06Z</time></trkpt><trkpt lat="45.5465088" lon="10.8637083"><ele>461.0</ele><time>2026-04-26T10:06:46.06Z</time></trkpt><trkpt lat="45.5466188" lon="10.8638251"><ele>463.0</ele><time>2026-04-26T10:06:47.061Z</time></trkpt><trkpt lat="45.5467275" lon="10.8639428"><ele>465.0</ele><time>2026-04-26T10:06:48.061Z</time></trkpt><trkpt lat="45.5468349" lon="10.8640602"><ele>465.0</ele><time>2026-04-26T10:06:49.061Z</time></trkpt><trkpt lat="45.5469381" lon="10.8641558"><ele>465.0</ele><time>2026-04-26T10:06:50.06Z</time></trkpt><trkpt lat="45.5470404" lon="10.8642447"><ele>465.0</ele><time>2026-04-26T10:06:51.06Z</time></trkpt><trkpt lat="45.5471444" lon="10.8643156"><ele>465.0</ele><time>2026-04-26T10:06:52.061Z</time></trkpt><trkpt lat="45.5472465" lon="10.8643675"><ele>465.6666666666667</ele><time>2026-04-26T10:06:53.06Z</time></trkpt><trkpt lat="45.5473423" lon="10.8644112"><ele>466.33333333333337</ele><time>2026-04-26T10:06:54.06Z</time></trkpt><trkpt lat="45.547428" lon="10.8644569"><ele>467.0</ele><time>2026-04-26T10:06:55.06Z</time></trkpt><trkpt lat="45.5475019" lon="10.8644953"><ele>467.6666666666667</ele><time>2026-04-26T10:06:56.06Z</time></trkpt><trkpt lat="45.5475604" lon="10.8645359"><ele>468.33333333333337</ele><time>2026-04-26T10:06:57.061Z</time></trkpt><trkpt lat="45.5476217" lon="10.8645779"><ele>469.0</ele><time>2026-04-26T10:06:59.061Z</time></trkpt><trkpt lat="45.5475938" lon="10.8646673"><ele>469.0</ele><time>2026-04-26T10:07:02.06Z</time></trkpt><trkpt lat="45.5475528" lon="10.8647979"><ele>469.0</ele><time>2026-04-26T10:07:04.061Z</time></trkpt><trkpt lat="45.5475078" lon="10.8649678"><ele>469.0</ele><time>2026-04-26T10:07:06.061Z</time></trkpt><trkpt lat="45.5474898" lon="10.8650542"><ele>469.0</ele><time>2026-04-26T10:07:07.06Z</time></trkpt><trkpt lat="45.5474619" lon="10.8652103"><ele>469.0</ele><time>2026-04-26T10:07:09.06Z</time></trkpt><trkpt lat="45.5474375" lon="10.8653993"><ele>467.50000000000006</ele><time>2026-04-26T10:07:11.06Z</time></trkpt><trkpt lat="45.5474347" lon="10.8655235"><ele>466.0</ele><time>2026-04-26T10:07:12.061Z</time></trkpt><trkpt lat="45.5474389" lon="10.8656429"><ele>464.5</ele><time>2026-04-26T10:07:13.061Z</time></trkpt><trkpt lat="45.5474458" lon="10.865752"><ele>463.0</ele><time>2026-04-26T10:07:14.061Z</time></trkpt><trkpt lat="45.5474573" lon="10.86585"><ele>461.50000000000006</ele><time>2026-04-26T10:07:15.06Z</time></trkpt><trkpt lat="45.5474834" lon="10.8660061"><ele>460.0</ele><time>2026-04-26T10:07:17.061Z</time></trkpt><trkpt lat="45.5475066" lon="10.8661161"><ele>458.33333333333337</ele><time>2026-04-26T10:07:19.061Z</time></trkpt><trkpt lat="45.547499" lon="10.8662219"><ele>456.6666666666667</ele><time>2026-04-26T10:07:22.06Z</time></trkpt><trkpt lat="45.5474705" lon="10.8663117"><ele>455.0</ele><time>2026-04-26T10:07:26.06Z</time></trkpt><trkpt lat="45.547411" lon="10.8663846"><ele>453.33333333333337</ele><time>2026-04-26T10:07:28.061Z</time></trkpt><trkpt lat="45.547334" lon="10.8664948"><ele>451.6666666666667</ele><time>2026-04-26T10:07:30.06Z</time></trkpt><trkpt lat="45.5472791" lon="10.866644"><ele>450.0</ele><time>2026-04-26T10:07:32.061Z</time></trkpt><trkpt lat="45.5472968" lon="10.8668183"><ele>447.8</ele><time>2026-04-26T10:07:34.061Z</time></trkpt><trkpt lat="45.5473387" lon="10.8669036"><ele>445.6</ele><time>2026-04-26T10:07:35.06Z</time></trkpt><trkpt lat="45.5473773" lon="10.8669788"><ele>443.4</ele><time>2026-04-26T10:07:36.061Z</time></trkpt><trkpt lat="45.5474225" lon="10.8671309"><ele>441.2</ele><time>2026-04-26T10:07:38.06Z</time></trkpt><trkpt lat="45.5473785" lon="10.8672218"><ele>439.0</ele><time>2026-04-26T10:07:41.06Z</time></trkpt><trkpt lat="45.5472504" lon="10.8671907"><ele>439.0</ele><time>2026-04-26T10:07:43.061Z</time></trkpt><trkpt lat="45.5471575" lon="10.8671472"><ele>439.0</ele><time>2026-04-26T10:07:44.06Z</time></trkpt><trkpt lat="45.5470539" lon="10.8670984"><ele>439.0</ele><time>2026-04-26T10:07:45.06Z</time></trkpt><trkpt lat="45.5469456" lon="10.8670467"><ele>439.0</ele><time>2026-04-26T10:07:46.06Z</time></trkpt><trkpt lat="45.5468369" lon="10.8669994"><ele>439.0</ele><time>2026-04-26T10:07:47.061Z</time></trkpt><trkpt lat="45.5467267" lon="10.8669524"><ele>440.25</ele><time>2026-04-26T10:07:48.061Z</time></trkpt><trkpt lat="45.5466103" lon="10.8669"><ele>441.5</ele><time>2026-04-26T10:07:49.061Z</time></trkpt><trkpt lat="45.5464876" lon="10.8668367"><ele>442.75</ele><time>2026-04-26T10:07:50.061Z</time></trkpt><trkpt lat="45.5463685" lon="10.8667549"><ele>444.0</ele><time>2026-04-26T10:07:51.06Z</time></trkpt><trkpt lat="45.5462494" lon="10.8666668"><ele>440.25</ele><time>2026-04-26T10:07:52.061Z</time></trkpt><trkpt lat="45.5461355" lon="10.8665806"><ele>436.5</ele><time>2026-04-26T10:07:53.061Z</time></trkpt><trkpt lat="45.5460214" lon="10.8664909"><ele>432.75</ele><time>2026-04-26T10:07:54.061Z</time></trkpt><trkpt lat="45.5458939" lon="10.8663931"><ele>429.0</ele><time>2026-04-26T10:07:55.061Z</time></trkpt><trkpt lat="45.5457642" lon="10.8663039"><ele>429.0</ele><time>2026-04-26T10:07:56.061Z</time></trkpt><trkpt lat="45.545633" lon="10.8662195"><ele>429.0</ele><time>2026-04-26T10:07:57.06Z</time></trkpt><trkpt lat="45.5455083" lon="10.8661471"><ele>429.0</ele><time>2026-04-26T10:07:58.06Z</time></trkpt><trkpt lat="45.5453916" lon="10.8660645"><ele>429.0</ele><time>2026-04-26T10:07:59.061Z</time></trkpt><trkpt lat="45.5452847" lon="10.8659525"><ele>427.25</ele><time>2026-04-26T10:08:00.06Z</time></trkpt><trkpt lat="45.5451856" lon="10.8658128"><ele>425.5</ele><time>2026-04-26T10:08:01.061Z</time></trkpt><trkpt lat="45.5450884" lon="10.865659"><ele>423.75</ele><time>2026-04-26T10:08:02.061Z</time></trkpt><trkpt lat="45.5449925" lon="10.8654955"><ele>422.0</ele><time>2026-04-26T10:08:03.06Z</time></trkpt><trkpt lat="45.5449069" lon="10.8653316"><ele>422.0</ele><time>2026-04-26T10:08:04.061Z</time></trkpt><trkpt lat="45.544824" lon="10.8651774"><ele>422.0</ele><time>2026-04-26T10:08:05.06Z</time></trkpt><trkpt lat="45.5447418" lon="10.8650362"><ele>422.0</ele><time>2026-04-26T10:08:06.061Z</time></trkpt><trkpt lat="45.5446518" lon="10.864901"><ele>422.0</ele><time>2026-04-26T10:08:07.061Z</time></trkpt><trkpt lat="45.5445444" lon="10.864785"><ele>419.25</ele><time>2026-04-26T10:08:08.061Z</time></trkpt><trkpt lat="45.5444265" lon="10.8646919"><ele>416.5</ele><time>2026-04-26T10:08:09.06Z</time></trkpt><trkpt lat="45.5443019" lon="10.86462"><ele>413.75</ele><time>2026-04-26T10:08:10.06Z</time></trkpt><trkpt lat="45.5441795" lon="10.8646015"><ele>411.0</ele><time>2026-04-26T10:08:11.061Z</time></trkpt><trkpt lat="45.5440587" lon="10.864622"><ele>411.0</ele><time>2026-04-26T10:08:12.06Z</time></trkpt><trkpt lat="45.5439492" lon="10.8646657"><ele>411.0</ele><time>2026-04-26T10:08:13.06Z</time></trkpt><trkpt lat="45.5438543" lon="10.8647177"><ele>411.0</ele><time>2026-04-26T10:08:14.06Z</time></trkpt><trkpt lat="45.5437891" lon="10.8647635"><ele>411.0</ele><time>2026-04-26T10:08:15.06Z</time></trkpt><trkpt lat="45.5437312" lon="10.8648446"><ele>411.0</ele><time>2026-04-26T10:08:17.06Z</time></trkpt><trkpt lat="45.5437637" lon="10.8647408"><ele>411.0</ele><time>2026-04-26T10:08:25.061Z</time></trkpt><trkpt lat="45.5438119" lon="10.8646542"><ele>411.0</ele><time>2026-04-26T10:08:27.061Z</time></trkpt><trkpt lat="45.5437741" lon="10.8645732"><ele>411.0</ele><time>2026-04-26T10:08:32.06Z</time></trkpt><trkpt lat="45.5437109" lon="10.8645959"><ele>411.0</ele><time>2026-04-26T10:08:34.061Z</time></trkpt><trkpt lat="45.54361" lon="10.8646464"><ele>411.0</ele><time>2026-04-26T10:08:36.06Z</time></trkpt><trkpt lat="45.5434865" lon="10.8647021"><ele>411.0</ele><time>2026-04-26T10:08:38.06Z</time></trkpt><trkpt lat="45.5434206" lon="10.8647136"><ele>411.0</ele><time>2026-04-26T10:08:39.061Z</time></trkpt><trkpt lat="45.5432978" lon="10.8647212"><ele>409.2857142857143</ele><time>2026-04-26T10:08:41.061Z</time></trkpt><trkpt lat="45.5432268" lon="10.8647346"><ele>407.57142857142856</ele><time>2026-04-26T10:08:42.061Z</time></trkpt><trkpt lat="45.5431546" lon="10.864763"><ele>405.8571428571429</ele><time>2026-04-26T10:08:43.06Z</time></trkpt><trkpt lat="45.5430874" lon="10.864803"><ele>404.1428571428571</ele><time>2026-04-26T10:08:44.059Z</time></trkpt><trkpt lat="45.543029" lon="10.8648613"><ele>402.42857142857144</ele><time>2026-04-26T10:08:45.059Z</time></trkpt><trkpt lat="45.542964" lon="10.8649176"><ele>400.7142857142857</ele><time>2026-04-26T10:08:46.06Z</time></trkpt><trkpt lat="45.5428985" lon="10.8649752"><ele>399.0</ele><time>2026-04-26T10:08:47.06Z</time></trkpt><trkpt lat="45.5428293" lon="10.8650076"><ele>396.3333333333333</ele><time>2026-04-26T10:08:48.06Z</time></trkpt><trkpt lat="45.5427639" lon="10.865034"><ele>393.6666666666667</ele><time>2026-04-26T10:08:49.06Z</time></trkpt><trkpt lat="45.5427013" lon="10.865061"><ele>391.0</ele><time>2026-04-26T10:08:50.06Z</time></trkpt><trkpt lat="45.5426313" lon="10.8650904"><ele>388.33333333333337</ele><time>2026-04-26T10:08:51.06Z</time></trkpt><trkpt lat="45.5425505" lon="10.8651195"><ele>385.6666666666667</ele><time>2026-04-26T10:08:52.06Z</time></trkpt><trkpt lat="45.5424701" lon="10.8651556"><ele>383.0</ele><time>2026-04-26T10:08:53.059Z</time></trkpt><trkpt lat="45.542393" lon="10.8651933"><ele>383.0</ele><time>2026-04-26T10:08:54.059Z</time></trkpt><trkpt lat="45.5423211" lon="10.8652239"><ele>383.0</ele><time>2026-04-26T10:08:55.06Z</time></trkpt><trkpt lat="45.5422523" lon="10.8652488"><ele>383.0</ele><time>2026-04-26T10:08:56.06Z</time></trkpt><trkpt lat="45.5421863" lon="10.8652779"><ele>383.0</ele><time>2026-04-26T10:08:57.06Z</time></trkpt><trkpt lat="45.5421214" lon="10.8653032"><ele>383.0</ele><time>2026-04-26T10:08:58.059Z</time></trkpt><trkpt lat="45.5420561" lon="10.8653284"><ele>383.0</ele><time>2026-04-26T10:08:59.06Z</time></trkpt><trkpt lat="45.5419953" lon="10.8653586"><ele>383.0</ele><time>2026-04-26T10:09:00.059Z</time></trkpt><trkpt lat="45.541887" lon="10.8654357"><ele>381.1428571428571</ele><time>2026-04-26T10:09:02.06Z</time></trkpt><trkpt lat="45.5418298" lon="10.8654768"><ele>379.2857142857143</ele><time>2026-04-26T10:09:03.059Z</time></trkpt><trkpt lat="45.5417684" lon="10.8655107"><ele>377.42857142857144</ele><time>2026-04-26T10:09:04.059Z</time></trkpt><trkpt lat="45.541702" lon="10.8655411"><ele>375.57142857142856</ele><time>2026-04-26T10:09:05.06Z</time></trkpt><trkpt lat="45.5416404" lon="10.8655729"><ele>373.7142857142857</ele><time>2026-04-26T10:09:06.06Z</time></trkpt><trkpt lat="45.541579" lon="10.865604"><ele>371.85714285714283</ele><time>2026-04-26T10:09:07.06Z</time></trkpt><trkpt lat="45.5415174" lon="10.8656318"><ele>370.0</ele><time>2026-04-26T10:09:08.059Z</time></trkpt><trkpt lat="45.5414086" lon="10.8656762"><ele>370.0</ele><time>2026-04-26T10:09:10.06Z</time></trkpt><trkpt lat="45.5413106" lon="10.8656789"><ele>370.0</ele><time>2026-04-26T10:09:12.059Z</time></trkpt><trkpt lat="45.5412316" lon="10.8657348"><ele>370.0</ele><time>2026-04-26T10:17:21.058Z</time></trkpt><trkpt lat="45.5411831" lon="10.86583"><ele>370.0</ele><time>2026-04-26T10:17:23.057Z</time></trkpt><trkpt lat="45.5411247" lon="10.8659165"><ele>370.0</ele><time>2026-04-26T10:17:25.058Z</time></trkpt><trkpt lat="45.5410678" lon="10.8660043"><ele>370.0</ele><time>2026-04-26T10:17:27.057Z</time></trkpt><trkpt lat="45.5409903" lon="10.8661309"><ele>367.1428571428571</ele><time>2026-04-26T10:17:29.058Z</time></trkpt><trkpt lat="45.5409473" lon="10.8661989"><ele>364.2857142857143</ele><time>2026-04-26T10:17:30.058Z</time></trkpt><trkpt lat="45.5408996" lon="10.8662821"><ele>361.42857142857144</ele><time>2026-04-26T10:17:31.058Z</time></trkpt><trkpt lat="45.5408497" lon="10.8663558"><ele>358.57142857142856</ele><time>2026-04-26T10:17:32.058Z</time></trkpt><trkpt lat="45.5407959" lon="10.8664433"><ele>355.7142857142857</ele><time>2026-04-26T10:17:33.058Z</time></trkpt><trkpt lat="45.5407538" lon="10.8665159"><ele>352.85714285714283</ele><time>2026-04-26T10:17:34.057Z</time></trkpt><trkpt lat="45.5407086" lon="10.866586"><ele>350.0</ele><time>2026-04-26T10:17:35.058Z</time></trkpt><trkpt lat="45.5406049" lon="10.8666824"><ele>350.0</ele><time>2026-04-26T10:17:37.058Z</time></trkpt><trkpt lat="45.5405294" lon="10.8667331"><ele>350.0</ele><time>2026-04-26T10:17:38.057Z</time></trkpt><trkpt lat="45.5404393" lon="10.8667798"><ele>350.0</ele><time>2026-04-26T10:17:39.058Z</time></trkpt><trkpt lat="45.5403451" lon="10.8668336"><ele>350.0</ele><time>2026-04-26T10:17:40.058Z</time></trkpt><trkpt lat="45.5402491" lon="10.8668814"><ele>350.0</ele><time>2026-04-26T10:17:41.058Z</time></trkpt><trkpt lat="45.540157" lon="10.8669396"><ele>346.0</ele><time>2026-04-26T10:17:42.058Z</time></trkpt><trkpt lat="45.540074" lon="10.8669835"><ele>342.0</ele><time>2026-04-26T10:17:43.058Z</time></trkpt><trkpt lat="45.5399951" lon="10.8670162"><ele>338.0</ele><time>2026-04-26T10:17:44.057Z</time></trkpt><trkpt lat="45.5399237" lon="10.8670437"><ele>334.0</ele><time>2026-04-26T10:17:45.057Z</time></trkpt><trkpt lat="45.5398579" lon="10.8670643"><ele>330.0</ele><time>2026-04-26T10:17:46.056Z</time></trkpt><trkpt lat="45.5397922" lon="10.8670768"><ele>326.0</ele><time>2026-04-26T10:17:47.056Z</time></trkpt><trkpt lat="45.5397233" lon="10.8670789"><ele>322.0</ele><time>2026-04-26T10:17:48.057Z</time></trkpt><trkpt lat="45.5396595" lon="10.8670833"><ele>322.0</ele><time>2026-04-26T10:17:49.056Z</time></trkpt><trkpt lat="45.5395911" lon="10.8670872"><ele>322.0</ele><time>2026-04-26T10:17:50.057Z</time></trkpt><trkpt lat="45.53952" lon="10.8670974"><ele>322.0</ele><time>2026-04-26T10:17:51.056Z</time></trkpt><trkpt lat="45.539444" lon="10.8671145"><ele>322.0</ele><time>2026-04-26T10:17:52.057Z</time></trkpt><trkpt lat="45.5393644" lon="10.8671245"><ele>322.0</ele><time>2026-04-26T10:17:53.056Z</time></trkpt><trkpt lat="45.5392792" lon="10.8671383"><ele>322.0</ele><time>2026-04-26T10:17:54.057Z</time></trkpt><trkpt lat="45.5391925" lon="10.8671505"><ele>320.3333333333333</ele><time>2026-04-26T10:17:55.056Z</time></trkpt><trkpt lat="45.5391105" lon="10.8671658"><ele>318.66666666666663</ele><time>2026-04-26T10:17:56.056Z</time></trkpt><trkpt lat="45.5390273" lon="10.8671739"><ele>317.0</ele><time>2026-04-26T10:17:57.056Z</time></trkpt><trkpt lat="45.5389437" lon="10.8671919"><ele>315.3333333333333</ele><time>2026-04-26T10:17:58.056Z</time></trkpt><trkpt lat="45.5388553" lon="10.8672079"><ele>313.6666666666667</ele><time>2026-04-26T10:17:59.056Z</time></trkpt><trkpt lat="45.5387743" lon="10.867215"><ele>312.0</ele><time>2026-04-26T10:18:00.057Z</time></trkpt><trkpt lat="45.5386955" lon="10.8672324"><ele>310.2</ele><time>2026-04-26T10:18:01.057Z</time></trkpt><trkpt lat="45.5386147" lon="10.8672541"><ele>308.4</ele><time>2026-04-26T10:18:02.057Z</time></trkpt><trkpt lat="45.5385255" lon="10.867274"><ele>306.6</ele><time>2026-04-26T10:18:03.056Z</time></trkpt><trkpt lat="45.5384339" lon="10.8672944"><ele>304.8</ele><time>2026-04-26T10:18:04.057Z</time></trkpt><trkpt lat="45.5383265" lon="10.8673246"><ele>303.0</ele><time>2026-04-26T10:18:05.056Z</time></trkpt><trkpt lat="45.5382069" lon="10.867349"><ele>303.0</ele><time>2026-04-26T10:18:06.056Z</time></trkpt><trkpt lat="45.5380924" lon="10.8673663"><ele>303.0</ele><time>2026-04-26T10:18:07.056Z</time></trkpt><trkpt lat="45.5379791" lon="10.8673797"><ele>303.0</ele><time>2026-04-26T10:18:08.057Z</time></trkpt><trkpt lat="45.5378722" lon="10.8674026"><ele>303.0</ele><time>2026-04-26T10:18:09.057Z</time></trkpt><trkpt lat="45.5377742" lon="10.8674205"><ele>303.0</ele><time>2026-04-26T10:18:10.057Z</time></trkpt><trkpt lat="45.5376766" lon="10.8674407"><ele>301.0</ele><time>2026-04-26T10:18:11.057Z</time></trkpt><trkpt lat="45.5375748" lon="10.8674521"><ele>299.0</ele><time>2026-04-26T10:18:12.056Z</time></trkpt><trkpt lat="45.5374606" lon="10.8674664"><ele>297.0</ele><time>2026-04-26T10:18:13.056Z</time></trkpt><trkpt lat="45.537347" lon="10.8674871"><ele>295.0</ele><time>2026-04-26T10:18:14.056Z</time></trkpt><trkpt lat="45.5372321" lon="10.867507"><ele>293.0</ele><time>2026-04-26T10:18:15.056Z</time></trkpt><trkpt lat="45.5371124" lon="10.8675338"><ele>291.2</ele><time>2026-04-26T10:18:16.056Z</time></trkpt><trkpt lat="45.5369944" lon="10.8675576"><ele>289.4</ele><time>2026-04-26T10:18:17.057Z</time></trkpt><trkpt lat="45.5368824" lon="10.8675747"><ele>287.59999999999997</ele><time>2026-04-26T10:18:18.057Z</time></trkpt><trkpt lat="45.5367774" lon="10.867597"><ele>285.8</ele><time>2026-04-26T10:18:19.056Z</time></trkpt><trkpt lat="45.5366788" lon="10.8676201"><ele>284.0</ele><time>2026-04-26T10:18:20.057Z</time></trkpt><trkpt lat="45.5365843" lon="10.8676353"><ele>282.33333333333337</ele><time>2026-04-26T10:18:21.057Z</time></trkpt><trkpt lat="45.5364945" lon="10.867662"><ele>280.6666666666667</ele><time>2026-04-26T10:18:22.056Z</time></trkpt><trkpt lat="45.5364117" lon="10.8677001"><ele>279.0</ele><time>2026-04-26T10:18:23.056Z</time></trkpt><trkpt lat="45.536332" lon="10.8677357"><ele>277.3333333333333</ele><time>2026-04-26T10:18:24.057Z</time></trkpt><trkpt lat="45.5362536" lon="10.8677584"><ele>275.66666666666663</ele><time>2026-04-26T10:18:25.057Z</time></trkpt><trkpt lat="45.5361748" lon="10.8677771"><ele>274.0</ele><time>2026-04-26T10:18:26.057Z</time></trkpt><trkpt lat="45.5360937" lon="10.8677979"><ele>273.5714285714286</ele><time>2026-04-26T10:18:27.056Z</time></trkpt><trkpt lat="45.5360146" lon="10.8678348"><ele>273.14285714285717</ele><time>2026-04-26T10:18:28.056Z</time></trkpt><trkpt lat="45.5359489" lon="10.8678778"><ele>272.7142857142857</ele><time>2026-04-26T10:18:29.056Z</time></trkpt><trkpt lat="45.5358839" lon="10.8679215"><ele>272.28571428571433</ele><time>2026-04-26T10:18:30.057Z</time></trkpt><trkpt lat="45.5358214" lon="10.8679693"><ele>271.8571428571429</ele><time>2026-04-26T10:18:31.056Z</time></trkpt><trkpt lat="45.5357524" lon="10.868009"><ele>271.42857142857144</ele><time>2026-04-26T10:18:32.056Z</time></trkpt><trkpt lat="45.5356796" lon="10.8680423"><ele>271.0</ele><time>2026-04-26T10:18:33.057Z</time></trkpt><trkpt lat="45.5356084" lon="10.8680746"><ele>271.0</ele><time>2026-04-26T10:18:34.056Z</time></trkpt><trkpt lat="45.5355341" lon="10.8681165"><ele>271.0</ele><time>2026-04-26T10:18:35.057Z</time></trkpt><trkpt lat="45.5354584" lon="10.8681574"><ele>271.0</ele><time>2026-04-26T10:18:36.057Z</time></trkpt><trkpt lat="45.535383" lon="10.868196"><ele>271.0</ele><time>2026-04-26T10:18:37.056Z</time></trkpt><trkpt lat="45.5353153" lon="10.8682396"><ele>271.0</ele><time>2026-04-26T10:18:38.056Z</time></trkpt><trkpt lat="45.5352475" lon="10.8682839"><ele>271.0</ele><time>2026-04-26T10:18:39.056Z</time></trkpt><trkpt lat="45.5351764" lon="10.8683172"><ele>269.2</ele><time>2026-04-26T10:18:40.056Z</time></trkpt><trkpt lat="45.535102" lon="10.8683552"><ele>267.40000000000003</ele><time>2026-04-26T10:18:41.057Z</time></trkpt><trkpt lat="45.5350178" lon="10.8683733"><ele>265.6</ele><time>2026-04-26T10:18:42.056Z</time></trkpt><trkpt lat="45.5349168" lon="10.8684105"><ele>263.8</ele><time>2026-04-26T10:18:43.057Z</time></trkpt><trkpt lat="45.5348079" lon="10.8684517"><ele>262.0</ele><time>2026-04-26T10:18:44.056Z</time></trkpt><trkpt lat="45.5346954" lon="10.8684952"><ele>259.8</ele><time>2026-04-26T10:18:45.056Z</time></trkpt><trkpt lat="45.5345901" lon="10.8685373"><ele>257.6</ele><time>2026-04-26T10:18:46.056Z</time></trkpt><trkpt lat="45.5344895" lon="10.8685874"><ele>255.40000000000003</ele><time>2026-04-26T10:18:47.056Z</time></trkpt><trkpt lat="45.5343938" lon="10.8686331"><ele>253.20000000000002</ele><time>2026-04-26T10:18:48.056Z</time></trkpt><trkpt lat="45.5342937" lon="10.8686808"><ele>251.0</ele><time>2026-04-26T10:18:49.056Z</time></trkpt><trkpt lat="45.5341953" lon="10.8687219"><ele>250.00000000000003</ele><time>2026-04-26T10:18:50.056Z</time></trkpt><trkpt lat="45.5341109" lon="10.8687505"><ele>249.0</ele><time>2026-04-26T10:18:51.056Z</time></trkpt><trkpt lat="45.5340239" lon="10.8687667"><ele>248.0</ele><time>2026-04-26T10:18:52.057Z</time></trkpt><trkpt lat="45.5339429" lon="10.8687788"><ele>247.0</ele><time>2026-04-26T10:18:53.057Z</time></trkpt><trkpt lat="45.5338688" lon="10.868766"><ele>246.00000000000003</ele><time>2026-04-26T10:18:54.057Z</time></trkpt><trkpt lat="45.5338001" lon="10.8687388"><ele>245.0</ele><time>2026-04-26T10:18:55.057Z</time></trkpt><trkpt lat="45.5337574" lon="10.8686721"><ele>245.0</ele><time>2026-04-26T10:18:56.056Z</time></trkpt><trkpt lat="45.5337269" lon="10.8685863"><ele>245.0</ele><time>2026-04-26T10:18:57.056Z</time></trkpt><trkpt lat="45.5336995" lon="10.8684745"><ele>245.0</ele><time>2026-04-26T10:18:58.057Z</time></trkpt><trkpt lat="45.5336836" lon="10.8683386"><ele>245.0</ele><time>2026-04-26T10:18:59.057Z</time></trkpt><trkpt lat="45.5336742" lon="10.8681798"><ele>245.0</ele><time>2026-04-26T10:19:00.057Z</time></trkpt><trkpt lat="45.5336656" lon="10.8680179"><ele>244.8</ele><time>2026-04-26T10:19:01.056Z</time></trkpt><trkpt lat="45.5336612" lon="10.8678673"><ele>244.6</ele><time>2026-04-26T10:19:02.056Z</time></trkpt><trkpt lat="45.5336545" lon="10.867724"><ele>244.39999999999998</ele><time>2026-04-26T10:19:03.057Z</time></trkpt><trkpt lat="45.5336569" lon="10.8675915"><ele>244.2</ele><time>2026-04-26T10:19:04.057Z</time></trkpt><trkpt lat="45.533668" lon="10.8674613"><ele>244.0</ele><time>2026-04-26T10:19:05.056Z</time></trkpt><trkpt lat="45.533704" lon="10.867338"><ele>245.79999999999998</ele><time>2026-04-26T10:19:06.056Z</time></trkpt><trkpt lat="45.5337495" lon="10.867216"><ele>247.59999999999997</ele><time>2026-04-26T10:19:07.056Z</time></trkpt><trkpt lat="45.5337985" lon="10.8670972"><ele>249.4</ele><time>2026-04-26T10:19:08.056Z</time></trkpt><trkpt lat="45.5338613" lon="10.8669967"><ele>251.2</ele><time>2026-04-26T10:19:09.057Z</time></trkpt><trkpt lat="45.5339422" lon="10.8669186"><ele>253.0</ele><time>2026-04-26T10:19:10.057Z</time></trkpt><trkpt lat="45.5340344" lon="10.8668525"><ele>253.0</ele><time>2026-04-26T10:19:11.057Z</time></trkpt><trkpt lat="45.5341322" lon="10.866801"><ele>253.0</ele><time>2026-04-26T10:19:12.057Z</time></trkpt><trkpt lat="45.5342178" lon="10.8667395"><ele>253.0</ele><time>2026-04-26T10:19:13.056Z</time></trkpt><trkpt lat="45.5342821" lon="10.8666685"><ele>253.0</ele><time>2026-04-26T10:19:14.056Z</time></trkpt><trkpt lat="45.5343285" lon="10.8665925"><ele>253.0</ele><time>2026-04-26T10:19:15.056Z</time></trkpt><trkpt lat="45.5342932" lon="10.8664254"><ele>251.0</ele><time>2026-04-26T10:19:17.057Z</time></trkpt><trkpt lat="45.5342252" lon="10.8663207"><ele>249.0</ele><time>2026-04-26T10:19:18.056Z</time></trkpt><trkpt lat="45.5341044" lon="10.8661868"><ele>247.0</ele><time>2026-04-26T10:19:19.056Z</time></trkpt><trkpt lat="45.5339973" lon="10.8660566"><ele>245.0</ele><time>2026-04-26T10:19:20.057Z</time></trkpt><trkpt lat="45.5338817" lon="10.865929"><ele>244.5</ele><time>2026-04-26T10:19:21.057Z</time></trkpt><trkpt lat="45.533776" lon="10.8658062"><ele>244.0</ele><time>2026-04-26T10:19:22.057Z</time></trkpt><trkpt lat="45.5336766" lon="10.8656957"><ele>243.5</ele><time>2026-04-26T10:19:23.057Z</time></trkpt><trkpt lat="45.5335822" lon="10.8655812"><ele>243.0</ele><time>2026-04-26T10:19:24.057Z</time></trkpt><trkpt lat="45.5334804" lon="10.8654901"><ele>240.4</ele><time>2026-04-26T10:19:25.057Z</time></trkpt><trkpt lat="45.5333787" lon="10.8653996"><ele>237.8</ele><time>2026-04-26T10:19:26.057Z</time></trkpt><trkpt lat="45.5332862" lon="10.865313"><ele>235.2</ele><time>2026-04-26T10:19:27.057Z</time></trkpt><trkpt lat="45.5332053" lon="10.8652353"><ele>232.6</ele><time>2026-04-26T10:19:28.056Z</time></trkpt><trkpt lat="45.5331245" lon="10.8651536"><ele>230.0</ele><time>2026-04-26T10:19:29.057Z</time></trkpt><trkpt lat="45.5330363" lon="10.8650891"><ele>230.0</ele><time>2026-04-26T10:19:30.056Z</time></trkpt><trkpt lat="45.5329371" lon="10.8650383"><ele>230.0</ele><time>2026-04-26T10:19:31.057Z</time></trkpt><trkpt lat="45.5328238" lon="10.865"><ele>230.0</ele><time>2026-04-26T10:19:32.056Z</time></trkpt><trkpt lat="45.5327018" lon="10.8649731"><ele>230.0</ele><time>2026-04-26T10:19:33.057Z</time></trkpt><trkpt lat="45.5325853" lon="10.8649464"><ele>228.2</ele><time>2026-04-26T10:19:34.057Z</time></trkpt><trkpt lat="45.5324829" lon="10.8649102"><ele>226.4</ele><time>2026-04-26T10:19:35.057Z</time></trkpt><trkpt lat="45.5323821" lon="10.8648815"><ele>224.60000000000002</ele><time>2026-04-26T10:19:36.056Z</time></trkpt><trkpt lat="45.5322887" lon="10.8648539"><ele>222.8</ele><time>2026-04-26T10:19:37.056Z</time></trkpt><trkpt lat="45.5321972" lon="10.8648251"><ele>221.0</ele><time>2026-04-26T10:19:38.057Z</time></trkpt><trkpt lat="45.5321062" lon="10.8647973"><ele>220.20000000000002</ele><time>2026-04-26T10:19:39.056Z</time></trkpt><trkpt lat="45.532003" lon="10.86476"><ele>219.40000000000003</ele><time>2026-04-26T10:19:40.057Z</time></trkpt><trkpt lat="45.5319056" lon="10.8647027"><ele>218.6</ele><time>2026-04-26T10:19:41.056Z</time></trkpt><trkpt lat="45.5317996" lon="10.8646325"><ele>217.8</ele><time>2026-04-26T10:19:42.057Z</time></trkpt><trkpt lat="45.5316934" lon="10.8645588"><ele>217.0</ele><time>2026-04-26T10:19:43.057Z</time></trkpt><trkpt lat="45.5315845" lon="10.8644658"><ele>217.0</ele><time>2026-04-26T10:19:44.056Z</time></trkpt><trkpt lat="45.5314738" lon="10.8643839"><ele>217.0</ele><time>2026-04-26T10:19:45.057Z</time></trkpt><trkpt lat="45.5313605" lon="10.8643089"><ele>217.0</ele><time>2026-04-26T10:19:46.057Z</time></trkpt><trkpt lat="45.5312482" lon="10.8642285"><ele>217.0</ele><time>2026-04-26T10:19:47.057Z</time></trkpt><trkpt lat="45.5311413" lon="10.8641361"><ele>214.75</ele><time>2026-04-26T10:19:48.057Z</time></trkpt><trkpt lat="45.5310353" lon="10.8640418"><ele>212.5</ele><time>2026-04-26T10:19:49.056Z</time></trkpt><trkpt lat="45.530931" lon="10.8639409"><ele>210.25</ele><time>2026-04-26T10:19:50.057Z</time></trkpt><trkpt lat="45.5308335" lon="10.8638197"><ele>208.0</ele><time>2026-04-26T10:19:51.056Z</time></trkpt><trkpt lat="45.5307431" lon="10.8636978"><ele>208.0</ele><time>2026-04-26T10:19:52.057Z</time></trkpt><trkpt lat="45.5306588" lon="10.8635848"><ele>208.0</ele><time>2026-04-26T10:19:53.057Z</time></trkpt><trkpt lat="45.5305924" lon="10.8634694"><ele>208.0</ele><time>2026-04-26T10:19:54.057Z</time></trkpt><trkpt lat="45.5305474" lon="10.8633509"><ele>208.0</ele><time>2026-04-26T10:19:55.056Z</time></trkpt><trkpt lat="45.5305216" lon="10.8632251"><ele>208.0</ele><time>2026-04-26T10:19:56.056Z</time></trkpt><trkpt lat="45.5305178" lon="10.8631066"><ele>206.33333333333331</ele><time>2026-04-26T10:19:57.056Z</time></trkpt><trkpt lat="45.5305499" lon="10.8629981"><ele>204.66666666666666</ele><time>2026-04-26T10:19:58.057Z</time></trkpt><trkpt lat="45.5305979" lon="10.8629028"><ele>203.0</ele><time>2026-04-26T10:19:59.056Z</time></trkpt><trkpt lat="45.5306406" lon="10.8627984"><ele>201.33333333333331</ele><time>2026-04-26T10:20:00.057Z</time></trkpt><trkpt lat="45.5306547" lon="10.8626891"><ele>199.66666666666666</ele><time>2026-04-26T10:20:01.057Z</time></trkpt><trkpt lat="45.5306214" lon="10.862593"><ele>198.0</ele><time>2026-04-26T10:20:02.057Z</time></trkpt><trkpt lat="45.5305622" lon="10.8625241"><ele>197.8</ele><time>2026-04-26T10:20:03.056Z</time></trkpt><trkpt lat="45.5304724" lon="10.8624623"><ele>197.60000000000002</ele><time>2026-04-26T10:20:04.057Z</time></trkpt><trkpt lat="45.530366" lon="10.8624076"><ele>197.39999999999998</ele><time>2026-04-26T10:20:05.057Z</time></trkpt><trkpt lat="45.5302537" lon="10.8623614"><ele>197.2</ele><time>2026-04-26T10:20:06.057Z</time></trkpt><trkpt lat="45.5301525" lon="10.8623185"><ele>197.0</ele><time>2026-04-26T10:20:07.057Z</time></trkpt><trkpt lat="45.5300696" lon="10.8622761"><ele>196.16666666666669</ele><time>2026-04-26T10:20:08.057Z</time></trkpt><trkpt lat="45.53" lon="10.8622256"><ele>195.33333333333334</ele><time>2026-04-26T10:20:09.057Z</time></trkpt><trkpt lat="45.5299402" lon="10.8621601"><ele>194.5</ele><time>2026-04-26T10:20:10.057Z</time></trkpt><trkpt lat="45.5298889" lon="10.8620748"><ele>193.66666666666669</ele><time>2026-04-26T10:20:11.056Z</time></trkpt><trkpt lat="45.5298541" lon="10.8619607"><ele>192.83333333333334</ele><time>2026-04-26T10:20:12.057Z</time></trkpt><trkpt lat="45.5298201" lon="10.8618346"><ele>192.0</ele><time>2026-04-26T10:20:13.057Z</time></trkpt><trkpt lat="45.5297825" lon="10.8617086"><ele>192.0</ele><time>2026-04-26T10:20:14.056Z</time></trkpt><trkpt lat="45.5297423" lon="10.8615897"><ele>192.0</ele><time>2026-04-26T10:20:15.057Z</time></trkpt><trkpt lat="45.5297001" lon="10.8614795"><ele>192.0</ele><time>2026-04-26T10:20:16.056Z</time></trkpt><trkpt lat="45.5296576" lon="10.8613784"><ele>192.0</ele><time>2026-04-26T10:20:17.056Z</time></trkpt><trkpt lat="45.5296166" lon="10.8612916"><ele>192.0</ele><time>2026-04-26T10:20:18.057Z</time></trkpt><trkpt lat="45.529574" lon="10.8611639"><ele>192.0</ele><time>2026-04-26T10:20:20.057Z</time></trkpt><trkpt lat="45.5295537" lon="10.8610681"><ele>190.0</ele><time>2026-04-26T10:20:22.056Z</time></trkpt><trkpt lat="45.529459" lon="10.8611011"><ele>188.0</ele><time>2026-04-26T10:20:26.056Z</time></trkpt><trkpt lat="45.5293484" lon="10.8612492"><ele>186.0</ele><time>2026-04-26T10:20:28.056Z</time></trkpt><trkpt lat="45.5292733" lon="10.8613603"><ele>184.0</ele><time>2026-04-26T10:20:29.056Z</time></trkpt><trkpt lat="45.5291823" lon="10.8614833"><ele>184.0</ele><time>2026-04-26T10:20:30.056Z</time></trkpt><trkpt lat="45.5290857" lon="10.8616151"><ele>184.0</ele><time>2026-04-26T10:20:31.056Z</time></trkpt><trkpt lat="45.5289963" lon="10.8617487"><ele>184.0</ele><time>2026-04-26T10:20:32.056Z</time></trkpt><trkpt lat="45.5289099" lon="10.8618811"><ele>184.0</ele><time>2026-04-26T10:20:33.055Z</time></trkpt><trkpt lat="45.5288332" lon="10.8620164"><ele>183.75</ele><time>2026-04-26T10:20:34.056Z</time></trkpt><trkpt lat="45.5287615" lon="10.8621658"><ele>183.5</ele><time>2026-04-26T10:20:35.056Z</time></trkpt><trkpt lat="45.5286904" lon="10.8623103"><ele>183.25</ele><time>2026-04-26T10:20:36.056Z</time></trkpt><trkpt lat="45.5286177" lon="10.8624462"><ele>183.0</ele><time>2026-04-26T10:20:37.055Z</time></trkpt><trkpt lat="45.5285378" lon="10.8625718"><ele>181.75</ele><time>2026-04-26T10:20:38.055Z</time></trkpt><trkpt lat="45.5284467" lon="10.8626847"><ele>180.5</ele><time>2026-04-26T10:20:39.056Z</time></trkpt><trkpt lat="45.5283513" lon="10.8627888"><ele>179.25</ele><time>2026-04-26T10:20:40.056Z</time></trkpt><trkpt lat="45.5282472" lon="10.8628803"><ele>178.0</ele><time>2026-04-26T10:20:41.056Z</time></trkpt><trkpt lat="45.5281386" lon="10.8629678"><ele>178.0</ele><time>2026-04-26T10:20:42.055Z</time></trkpt><trkpt lat="45.5280253" lon="10.8630535"><ele>178.0</ele><time>2026-04-26T10:20:43.055Z</time></trkpt><trkpt lat="45.5279137" lon="10.8631439"><ele>178.0</ele><time>2026-04-26T10:20:44.055Z</time></trkpt><trkpt lat="45.5278047" lon="10.86323"><ele>178.0</ele><time>2026-04-26T10:20:45.056Z</time></trkpt><trkpt lat="45.5276952" lon="10.8632953"><ele>178.0</ele><time>2026-04-26T10:20:46.055Z</time></trkpt><trkpt lat="45.5275842" lon="10.8633542"><ele>178.0</ele><time>2026-04-26T10:20:47.056Z</time></trkpt><trkpt lat="45.5274749" lon="10.8633914"><ele>178.0</ele><time>2026-04-26T10:20:48.056Z</time></trkpt><trkpt lat="45.5273669" lon="10.8634026"><ele>178.0</ele><time>2026-04-26T10:20:49.056Z</time></trkpt><trkpt lat="45.527247" lon="10.8634287"><ele>176.75</ele><time>2026-04-26T10:20:50.055Z</time></trkpt><trkpt lat="45.5271238" lon="10.8634535"><ele>175.5</ele><time>2026-04-26T10:20:51.056Z</time></trkpt><trkpt lat="45.5269997" lon="10.8634729"><ele>174.25</ele><time>2026-04-26T10:20:52.056Z</time></trkpt><trkpt lat="45.5268744" lon="10.8634898"><ele>173.0</ele><time>2026-04-26T10:20:53.055Z</time></trkpt><trkpt lat="45.5267438" lon="10.8635191"><ele>171.5</ele><time>2026-04-26T10:20:54.056Z</time></trkpt><trkpt lat="45.5266099" lon="10.8635685"><ele>170.0</ele><time>2026-04-26T10:20:55.055Z</time></trkpt><trkpt lat="45.5264686" lon="10.8636548"><ele>168.5</ele><time>2026-04-26T10:20:56.056Z</time></trkpt><trkpt lat="45.5263368" lon="10.8637523"><ele>167.0</ele><time>2026-04-26T10:20:57.056Z</time></trkpt><trkpt lat="45.5262042" lon="10.8638563"><ele>165.33333333333331</ele><time>2026-04-26T10:20:58.056Z</time></trkpt><trkpt lat="45.5260758" lon="10.8639691"><ele>163.66666666666666</ele><time>2026-04-26T10:20:59.056Z</time></trkpt><trkpt lat="45.5259459" lon="10.8640771"><ele>162.0</ele><time>2026-04-26T10:21:00.055Z</time></trkpt><trkpt lat="45.5258156" lon="10.8641787"><ele>161.25</ele><time>2026-04-26T10:21:01.056Z</time></trkpt><trkpt lat="45.5256931" lon="10.864285"><ele>160.5</ele><time>2026-04-26T10:21:02.056Z</time></trkpt><trkpt lat="45.5255692" lon="10.8643828"><ele>159.75</ele><time>2026-04-26T10:21:03.056Z</time></trkpt><trkpt lat="45.5254628" lon="10.8644534"><ele>159.0</ele><time>2026-04-26T10:21:04.055Z</time></trkpt><trkpt lat="45.5253616" lon="10.8645281"><ele>159.0</ele><time>2026-04-26T10:21:05.055Z</time></trkpt><trkpt lat="45.5252653" lon="10.8646059"><ele>159.0</ele><time>2026-04-26T10:21:06.056Z</time></trkpt><trkpt lat="45.5251676" lon="10.864685"><ele>159.0</ele><time>2026-04-26T10:21:07.055Z</time></trkpt><trkpt lat="45.5250741" lon="10.8647583"><ele>159.0</ele><time>2026-04-26T10:21:08.055Z</time></trkpt><trkpt lat="45.5249872" lon="10.8648201"><ele>159.0</ele><time>2026-04-26T10:21:09.055Z</time></trkpt><trkpt lat="45.5248943" lon="10.8648948"><ele>159.0</ele><time>2026-04-26T10:21:10.056Z</time></trkpt><trkpt lat="45.5247984" lon="10.8649725"><ele>159.0</ele><time>2026-04-26T10:21:11.055Z</time></trkpt><trkpt lat="45.5247018" lon="10.865052"><ele>159.0</ele><time>2026-04-26T10:21:12.056Z</time></trkpt><trkpt lat="45.5246051" lon="10.8651317"><ele>159.0</ele><time>2026-04-26T10:21:13.056Z</time></trkpt><trkpt lat="45.5245081" lon="10.8652052"><ele>159.0</ele><time>2026-04-26T10:21:14.055Z</time></trkpt><trkpt lat="45.52441" lon="10.8652722"><ele>158.0</ele><time>2026-04-26T10:21:15.055Z</time></trkpt><trkpt lat="45.5243128" lon="10.8653448"><ele>157.0</ele><time>2026-04-26T10:21:16.056Z</time></trkpt><trkpt lat="45.5242149" lon="10.8654146"><ele>156.0</ele><time>2026-04-26T10:21:17.056Z</time></trkpt><trkpt lat="45.5241208" lon="10.8654933"><ele>155.0</ele><time>2026-04-26T10:21:18.056Z</time></trkpt><trkpt lat="45.5240286" lon="10.865568"><ele>154.0</ele><time>2026-04-26T10:21:19.056Z</time></trkpt><trkpt lat="45.5239343" lon="10.865639"><ele>154.0</ele><time>2026-04-26T10:21:20.055Z</time></trkpt><trkpt lat="45.5238383" lon="10.8657026"><ele>154.0</ele><time>2026-04-26T10:21:21.055Z</time></trkpt><trkpt lat="45.5237468" lon="10.8657616"><ele>154.0</ele><time>2026-04-26T10:21:22.055Z</time></trkpt><trkpt lat="45.5236582" lon="10.8658304"><ele>154.0</ele><time>2026-04-26T10:21:23.055Z</time></trkpt><trkpt lat="45.5235679" lon="10.8658887"><ele>154.0</ele><time>2026-04-26T10:21:24.055Z</time></trkpt><trkpt lat="45.5234796" lon="10.8659491"><ele>153.4</ele><time>2026-04-26T10:21:25.055Z</time></trkpt><trkpt lat="45.5233933" lon="10.866008"><ele>152.8</ele><time>2026-04-26T10:21:26.055Z</time></trkpt><trkpt lat="45.5233126" lon="10.8660697"><ele>152.2</ele><time>2026-04-26T10:21:27.056Z</time></trkpt><trkpt lat="45.5232385" lon="10.866123"><ele>151.6</ele><time>2026-04-26T10:21:28.056Z</time></trkpt><trkpt lat="45.5231722" lon="10.8661735"><ele>151.0</ele><time>2026-04-26T10:21:29.056Z</time></trkpt><trkpt lat="45.5230622" lon="10.8662242"><ele>151.0</ele><time>2026-04-26T10:21:31.056Z</time></trkpt><trkpt lat="45.5230027" lon="10.866135"><ele>151.0</ele><time>2026-04-26T10:21:39.055Z</time></trkpt><trkpt lat="45.5229574" lon="10.8660365"><ele>151.0</ele><time>2026-04-26T10:21:40.055Z</time></trkpt><trkpt lat="45.5229129" lon="10.8658829"><ele>151.0</ele><time>2026-04-26T10:21:41.056Z</time></trkpt><trkpt lat="45.5228614" lon="10.8657014"><ele>151.0</ele><time>2026-04-26T10:21:42.055Z</time></trkpt><trkpt lat="45.5228098" lon="10.8655137"><ele>150.5</ele><time>2026-04-26T10:21:43.055Z</time></trkpt><trkpt lat="45.5227547" lon="10.8653176"><ele>150.0</ele><time>2026-04-26T10:21:44.056Z</time></trkpt><trkpt lat="45.522712" lon="10.8651208"><ele>149.5</ele><time>2026-04-26T10:21:45.055Z</time></trkpt><trkpt lat="45.5226572" lon="10.8649252"><ele>149.0</ele><time>2026-04-26T10:21:46.056Z</time></trkpt><trkpt lat="45.5225966" lon="10.8647279"><ele>148.33333333333331</ele><time>2026-04-26T10:21:47.056Z</time></trkpt><trkpt lat="45.5225282" lon="10.864517"><ele>147.66666666666666</ele><time>2026-04-26T10:21:48.056Z</time></trkpt><trkpt lat="45.522464" lon="10.8643037"><ele>147.0</ele><time>2026-04-26T10:21:49.056Z</time></trkpt><trkpt lat="45.5223927" lon="10.8640906"><ele>146.33333333333334</ele><time>2026-04-26T10:21:50.056Z</time></trkpt><trkpt lat="45.5223256" lon="10.8638808"><ele>145.66666666666669</ele><time>2026-04-26T10:21:51.055Z</time></trkpt><trkpt lat="45.5222616" lon="10.8636869"><ele>145.0</ele><time>2026-04-26T10:21:52.055Z</time></trkpt><trkpt lat="45.5222015" lon="10.8634958"><ele>145.75</ele><time>2026-04-26T10:21:53.056Z</time></trkpt><trkpt lat="45.522146" lon="10.8632957"><ele>146.5</ele><time>2026-04-26T10:21:54.056Z</time></trkpt><trkpt lat="45.5220981" lon="10.8630959"><ele>147.25</ele><time>2026-04-26T10:21:55.056Z</time></trkpt><trkpt lat="45.5220549" lon="10.8629018"><ele>148.0</ele><time>2026-04-26T10:21:56.055Z</time></trkpt><trkpt lat="45.5220167" lon="10.8627097"><ele>146.25</ele><time>2026-04-26T10:21:57.055Z</time></trkpt><trkpt lat="45.5219833" lon="10.8625355"><ele>144.5</ele><time>2026-04-26T10:21:58.056Z</time></trkpt><trkpt lat="45.5219609" lon="10.8623626"><ele>142.75</ele><time>2026-04-26T10:21:59.056Z</time></trkpt><trkpt lat="45.5219379" lon="10.8622059"><ele>141.0</ele><time>2026-04-26T10:22:00.056Z</time></trkpt><trkpt lat="45.5219169" lon="10.8620587"><ele>141.0</ele><time>2026-04-26T10:22:01.056Z</time></trkpt><trkpt lat="45.5218987" lon="10.8619159"><ele>141.0</ele><time>2026-04-26T10:22:02.055Z</time></trkpt><trkpt lat="45.5218836" lon="10.8617991"><ele>141.0</ele><time>2026-04-26T10:22:03.056Z</time></trkpt><trkpt lat="45.5218731" lon="10.8617017"><ele>141.0</ele><time>2026-04-26T10:22:04.055Z</time></trkpt><trkpt lat="45.5218591" lon="10.8615581"><ele>141.0</ele><time>2026-04-26T10:22:06.055Z</time></trkpt><trkpt lat="45.5217545" lon="10.8615412"><ele>141.2</ele><time>2026-04-26T10:22:09.056Z</time></trkpt><trkpt lat="45.5216902" lon="10.8615462"><ele>141.39999999999998</ele><time>2026-04-26T10:22:10.056Z</time></trkpt><trkpt lat="45.521607" lon="10.8615388"><ele>141.6</ele><time>2026-04-26T10:22:11.056Z</time></trkpt><trkpt lat="45.5215142" lon="10.8615332"><ele>141.79999999999998</ele><time>2026-04-26T10:22:12.056Z</time></trkpt><trkpt lat="45.5214105" lon="10.8615178"><ele>142.0</ele><time>2026-04-26T10:22:13.055Z</time></trkpt><trkpt lat="45.5212928" lon="10.8614994"><ele>141.0</ele><time>2026-04-26T10:22:14.056Z</time></trkpt><trkpt lat="45.5211603" lon="10.8614808"><ele>140.0</ele><time>2026-04-26T10:22:15.055Z</time></trkpt><trkpt lat="45.5210167" lon="10.8614658"><ele>139.0</ele><time>2026-04-26T10:22:16.055Z</time></trkpt><trkpt lat="45.520865" lon="10.8614497"><ele>138.0</ele><time>2026-04-26T10:22:17.055Z</time></trkpt><trkpt lat="45.520713" lon="10.8614288"><ele>138.0</ele><time>2026-04-26T10:22:18.055Z</time></trkpt><trkpt lat="45.5205649" lon="10.8614055"><ele>138.0</ele><time>2026-04-26T10:22:19.056Z</time></trkpt><trkpt lat="45.5204158" lon="10.8613716"><ele>138.0</ele><time>2026-04-26T10:22:20.055Z</time></trkpt><trkpt lat="45.5202671" lon="10.8613336"><ele>138.0</ele><time>2026-04-26T10:22:21.056Z</time></trkpt><trkpt lat="45.5201189" lon="10.861304"><ele>138.0</ele><time>2026-04-26T10:22:22.056Z</time></trkpt><trkpt lat="45.5199858" lon="10.8612652"><ele>138.0</ele><time>2026-04-26T10:22:23.055Z</time></trkpt><trkpt lat="45.519851" lon="10.8612292"><ele>138.0</ele><time>2026-04-26T10:22:24.056Z</time></trkpt><trkpt lat="45.5197177" lon="10.8611901"><ele>138.0</ele><time>2026-04-26T10:22:25.055Z</time></trkpt><trkpt lat="45.5195883" lon="10.8611409"><ele>138.0</ele><time>2026-04-26T10:22:26.055Z</time></trkpt><trkpt lat="45.519455" lon="10.8610924"><ele>138.0</ele><time>2026-04-26T10:22:27.055Z</time></trkpt><trkpt lat="45.519324" lon="10.8610291"><ele>138.0</ele><time>2026-04-26T10:22:28.056Z</time></trkpt><trkpt lat="45.5191912" lon="10.8609484"><ele>138.25</ele><time>2026-04-26T10:22:29.056Z</time></trkpt><trkpt lat="45.5190518" lon="10.8608592"><ele>138.5</ele><time>2026-04-26T10:22:30.055Z</time></trkpt><trkpt lat="45.5189237" lon="10.8607721"><ele>138.75</ele><time>2026-04-26T10:22:31.055Z</time></trkpt><trkpt lat="45.5187933" lon="10.8606819"><ele>139.0</ele><time>2026-04-26T10:22:32.056Z</time></trkpt><trkpt lat="45.5186639" lon="10.8605855"><ele>138.5</ele><time>2026-04-26T10:22:33.056Z</time></trkpt><trkpt lat="45.5185384" lon="10.860474"><ele>138.0</ele><time>2026-04-26T10:22:34.056Z</time></trkpt><trkpt lat="45.5184224" lon="10.8603661"><ele>137.5</ele><time>2026-04-26T10:22:35.056Z</time></trkpt><trkpt lat="45.5183004" lon="10.8602609"><ele>137.0</ele><time>2026-04-26T10:22:36.055Z</time></trkpt><trkpt lat="45.5181802" lon="10.8601457"><ele>136.66666666666666</ele><time>2026-04-26T10:22:37.056Z</time></trkpt><trkpt lat="45.5180573" lon="10.8600435"><ele>136.33333333333334</ele><time>2026-04-26T10:22:38.056Z</time></trkpt><trkpt lat="45.5179189" lon="10.8599336"><ele>136.0</ele><time>2026-04-26T10:22:39.055Z</time></trkpt><trkpt lat="45.5177644" lon="10.8598161"><ele>135.66666666666669</ele><time>2026-04-26T10:22:40.056Z</time></trkpt><trkpt lat="45.5176081" lon="10.859695"><ele>135.33333333333334</ele><time>2026-04-26T10:22:41.056Z</time></trkpt><trkpt lat="45.5174559" lon="10.859579"><ele>135.0</ele><time>2026-04-26T10:22:42.056Z</time></trkpt><trkpt lat="45.5173093" lon="10.8594689"><ele>135.0</ele><time>2026-04-26T10:22:43.056Z</time></trkpt><trkpt lat="45.5171755" lon="10.8593686"><ele>135.0</ele><time>2026-04-26T10:22:44.056Z</time></trkpt><trkpt lat="45.5170385" lon="10.8592648"><ele>135.0</ele><time>2026-04-26T10:22:45.056Z</time></trkpt><trkpt lat="45.5169147" lon="10.8591526"><ele>134.75</ele><time>2026-04-26T10:22:46.056Z</time></trkpt><trkpt lat="45.5168084" lon="10.8590366"><ele>134.5</ele><time>2026-04-26T10:22:47.055Z</time></trkpt><trkpt lat="45.5166968" lon="10.8589243"><ele>134.25</ele><time>2026-04-26T10:22:48.055Z</time></trkpt><trkpt lat="45.5165712" lon="10.8588292"><ele>134.0</ele><time>2026-04-26T10:22:49.056Z</time></trkpt><trkpt lat="45.5164372" lon="10.8587277"><ele>134.0</ele><time>2026-04-26T10:22:50.055Z</time></trkpt><trkpt lat="45.51629" lon="10.85863"><ele>134.0</ele><time>2026-04-26T10:22:51.056Z</time></trkpt><trkpt lat="45.5161374" lon="10.8585393"><ele>134.0</ele><time>2026-04-26T10:22:52.055Z</time></trkpt><trkpt lat="45.5159818" lon="10.8584484"><ele>134.25</ele><time>2026-04-26T10:22:53.056Z</time></trkpt><trkpt lat="45.5158365" lon="10.8583675"><ele>134.5</ele><time>2026-04-26T10:22:54.055Z</time></trkpt><trkpt lat="45.5157019" lon="10.8583048"><ele>134.75</ele><time>2026-04-26T10:22:55.055Z</time></trkpt><trkpt lat="45.5155771" lon="10.8582513"><ele>135.0</ele><time>2026-04-26T10:22:56.055Z</time></trkpt><trkpt lat="45.5154628" lon="10.8581907"><ele>135.0</ele><time>2026-04-26T10:22:57.056Z</time></trkpt><trkpt lat="45.5153559" lon="10.8581226"><ele>135.0</ele><time>2026-04-26T10:22:58.056Z</time></trkpt><trkpt lat="45.5152596" lon="10.8580418"><ele>135.0</ele><time>2026-04-26T10:22:59.056Z</time></trkpt><trkpt lat="45.5151711" lon="10.8579609"><ele>135.0</ele><time>2026-04-26T10:23:00.056Z</time></trkpt><trkpt lat="45.5150991" lon="10.8578814"><ele>135.0</ele><time>2026-04-26T10:23:01.055Z</time></trkpt><trkpt lat="45.5150378" lon="10.8578138"><ele>135.0</ele><time>2026-04-26T10:23:02.056Z</time></trkpt><trkpt lat="45.5149541" lon="10.8576997"><ele>135.0</ele><time>2026-04-26T10:23:04.055Z</time></trkpt><trkpt lat="45.5149217" lon="10.8576209"><ele>135.0</ele><time>2026-04-26T10:23:05.055Z</time></trkpt><trkpt lat="45.5148839" lon="10.8575306"><ele>135.0</ele><time>2026-04-26T10:23:06.056Z</time></trkpt><trkpt lat="45.5148291" lon="10.8574481"><ele>135.0</ele><time>2026-04-26T10:23:07.055Z</time></trkpt><trkpt lat="45.514774" lon="10.857376"><ele>135.0</ele><time>2026-04-26T10:23:08.056Z</time></trkpt><trkpt lat="45.5147131" lon="10.8573171"><ele>134.75</ele><time>2026-04-26T10:23:09.056Z</time></trkpt><trkpt lat="45.5146421" lon="10.8572467"><ele>134.5</ele><time>2026-04-26T10:23:10.055Z</time></trkpt><trkpt lat="45.5145545" lon="10.8571555"><ele>134.25</ele><time>2026-04-26T10:23:11.055Z</time></trkpt><trkpt lat="45.5144563" lon="10.8570513"><ele>134.0</ele><time>2026-04-26T10:23:12.056Z</time></trkpt><trkpt lat="45.5143518" lon="10.8569315"><ele>134.0</ele><time>2026-04-26T10:23:13.055Z</time></trkpt><trkpt lat="45.5142535" lon="10.8568234"><ele>134.0</ele><time>2026-04-26T10:23:14.056Z</time></trkpt><trkpt lat="45.5141583" lon="10.8567158"><ele>134.0</ele><time>2026-04-26T10:23:15.055Z</time></trkpt><trkpt lat="45.5140575" lon="10.8566007"><ele>134.0</ele><time>2026-04-26T10:23:16.055Z</time></trkpt><trkpt lat="45.5139614" lon="10.8564734"><ele>134.0</ele><time>2026-04-26T10:23:17.055Z</time></trkpt><trkpt lat="45.5138619" lon="10.8563483"><ele>134.0</ele><time>2026-04-26T10:23:18.055Z</time></trkpt><trkpt lat="45.5137595" lon="10.8562266"><ele>134.0</ele><time>2026-04-26T10:23:19.054Z</time></trkpt><trkpt lat="45.5136536" lon="10.8561003"><ele>134.0</ele><time>2026-04-26T10:23:20.055Z</time></trkpt><trkpt lat="45.5135455" lon="10.8559734"><ele>134.0</ele><time>2026-04-26T10:23:21.054Z</time></trkpt><trkpt lat="45.513442" lon="10.8558408"><ele>134.0</ele><time>2026-04-26T10:23:22.054Z</time></trkpt><trkpt lat="45.5133428" lon="10.8557178"><ele>134.0</ele><time>2026-04-26T10:23:23.055Z</time></trkpt><trkpt lat="45.5132566" lon="10.8555959"><ele>134.0</ele><time>2026-04-26T10:23:24.055Z</time></trkpt><trkpt lat="45.5131732" lon="10.8554815"><ele>134.0</ele><time>2026-04-26T10:23:25.054Z</time></trkpt><trkpt lat="45.5130959" lon="10.8553742"><ele>134.0</ele><time>2026-04-26T10:23:26.055Z</time></trkpt><trkpt lat="45.5130179" lon="10.8552773"><ele>134.0</ele><time>2026-04-26T10:23:27.055Z</time></trkpt><trkpt lat="45.5129444" lon="10.8551849"><ele>134.0</ele><time>2026-04-26T10:23:28.055Z</time></trkpt><trkpt lat="45.5128741" lon="10.8550908"><ele>134.0</ele><time>2026-04-26T10:23:29.054Z</time></trkpt><trkpt lat="45.512803" lon="10.8549955"><ele>134.16666666666666</ele><time>2026-04-26T10:23:30.054Z</time></trkpt><trkpt lat="45.5127293" lon="10.8548967"><ele>134.33333333333331</ele><time>2026-04-26T10:23:31.055Z</time></trkpt><trkpt lat="45.5126582" lon="10.8548167"><ele>134.5</ele><time>2026-04-26T10:23:32.054Z</time></trkpt><trkpt lat="45.5125972" lon="10.8547432"><ele>134.66666666666666</ele><time>2026-04-26T10:23:33.055Z</time></trkpt><trkpt lat="45.5125417" lon="10.8546725"><ele>134.83333333333334</ele><time>2026-04-26T10:23:34.054Z</time></trkpt><trkpt lat="45.5124912" lon="10.8546148"><ele>135.0</ele><time>2026-04-26T10:23:35.054Z</time></trkpt><trkpt lat="45.5124046" lon="10.8545134"><ele>135.0</ele><time>2026-04-26T10:23:37.055Z</time></trkpt><trkpt lat="45.5123529" lon="10.8544062"><ele>135.0</ele><time>2026-04-26T10:23:39.055Z</time></trkpt><trkpt lat="45.5123176" lon="10.8542586"><ele>135.0</ele><time>2026-04-26T10:23:41.055Z</time></trkpt><trkpt lat="45.5123071" lon="10.8541653"><ele>135.0</ele><time>2026-04-26T10:23:42.054Z</time></trkpt><trkpt lat="45.5122962" lon="10.8540606"><ele>135.0</ele><time>2026-04-26T10:23:43.055Z</time></trkpt><trkpt lat="45.512287" lon="10.8539558"><ele>135.0</ele><time>2026-04-26T10:23:44.055Z</time></trkpt><trkpt lat="45.5122767" lon="10.8538561"><ele>134.85714285714286</ele><time>2026-04-26T10:23:45.055Z</time></trkpt><trkpt lat="45.5122577" lon="10.8537521"><ele>134.7142857142857</ele><time>2026-04-26T10:23:46.054Z</time></trkpt><trkpt lat="45.5122353" lon="10.8536484"><ele>134.57142857142856</ele><time>2026-04-26T10:23:47.054Z</time></trkpt><trkpt lat="45.5122228" lon="10.8535515"><ele>134.42857142857142</ele><time>2026-04-26T10:23:48.055Z</time></trkpt><trkpt lat="45.5122008" lon="10.8534568"><ele>134.28571428571428</ele><time>2026-04-26T10:23:49.054Z</time></trkpt><trkpt lat="45.512179" lon="10.8533622"><ele>134.14285714285714</ele><time>2026-04-26T10:23:50.055Z</time></trkpt><trkpt lat="45.5121576" lon="10.8532676"><ele>134.0</ele><time>2026-04-26T10:23:51.054Z</time></trkpt><trkpt lat="45.5121399" lon="10.8531668"><ele>133.83333333333331</ele><time>2026-04-26T10:23:52.055Z</time></trkpt><trkpt lat="45.5121179" lon="10.853066"><ele>133.66666666666666</ele><time>2026-04-26T10:23:53.055Z</time></trkpt><trkpt lat="45.5120866" lon="10.8529504"><ele>133.5</ele><time>2026-04-26T10:23:54.054Z</time></trkpt><trkpt lat="45.5120374" lon="10.8528387"><ele>133.33333333333334</ele><time>2026-04-26T10:23:55.055Z</time></trkpt><trkpt lat="45.5119819" lon="10.852739"><ele>133.16666666666669</ele><time>2026-04-26T10:23:56.055Z</time></trkpt><trkpt lat="45.511911" lon="10.8526539"><ele>133.0</ele><time>2026-04-26T10:23:57.055Z</time></trkpt><trkpt lat="45.5118246" lon="10.8525881"><ele>129.75</ele><time>2026-04-26T10:23:58.055Z</time></trkpt><trkpt lat="45.5117186" lon="10.8525335"><ele>126.5</ele><time>2026-04-26T10:23:59.055Z</time></trkpt><trkpt lat="45.5116109" lon="10.8524881"><ele>123.25</ele><time>2026-04-26T10:24:00.055Z</time></trkpt><trkpt lat="45.5114995" lon="10.8524491"><ele>120.0</ele><time>2026-04-26T10:24:01.055Z</time></trkpt><trkpt lat="45.5113843" lon="10.8524089"><ele>120.0</ele><time>2026-04-26T10:24:02.054Z</time></trkpt><trkpt lat="45.5112588" lon="10.852362"><ele>120.0</ele><time>2026-04-26T10:24:03.055Z</time></trkpt><trkpt lat="45.5111299" lon="10.8523106"><ele>120.0</ele><time>2026-04-26T10:24:04.055Z</time></trkpt><trkpt lat="45.5110007" lon="10.8522609"><ele>120.0</ele><time>2026-04-26T10:24:05.055Z</time></trkpt><trkpt lat="45.5108678" lon="10.8522131"><ele>119.25</ele><time>2026-04-26T10:24:06.055Z</time></trkpt><trkpt lat="45.5107413" lon="10.8521637"><ele>118.5</ele><time>2026-04-26T10:24:07.054Z</time></trkpt><trkpt lat="45.5106118" lon="10.8521092"><ele>117.75</ele><time>2026-04-26T10:24:08.054Z</time></trkpt><trkpt lat="45.5104854" lon="10.852065"><ele>117.0</ele><time>2026-04-26T10:24:09.055Z</time></trkpt><trkpt lat="45.5103552" lon="10.8520185"><ele>116.75</ele><time>2026-04-26T10:24:10.054Z</time></trkpt><trkpt lat="45.510223" lon="10.8519734"><ele>116.5</ele><time>2026-04-26T10:24:11.054Z</time></trkpt><trkpt lat="45.5100938" lon="10.8519317"><ele>116.25</ele><time>2026-04-26T10:24:12.055Z</time></trkpt><trkpt lat="45.5099607" lon="10.8518943"><ele>116.0</ele><time>2026-04-26T10:24:13.055Z</time></trkpt><trkpt lat="45.5098324" lon="10.8518461"><ele>116.0</ele><time>2026-04-26T10:24:14.054Z</time></trkpt><trkpt lat="45.5097012" lon="10.8517866"><ele>116.0</ele><time>2026-04-26T10:24:15.055Z</time></trkpt><trkpt lat="45.509561" lon="10.8517328"><ele>116.0</ele><time>2026-04-26T10:24:16.055Z</time></trkpt><trkpt lat="45.5094212" lon="10.8516778"><ele>116.0</ele><time>2026-04-26T10:24:17.054Z</time></trkpt><trkpt lat="45.5092818" lon="10.851612"><ele>115.75</ele><time>2026-04-26T10:24:18.054Z</time></trkpt><trkpt lat="45.5091501" lon="10.851551"><ele>115.5</ele><time>2026-04-26T10:24:19.055Z</time></trkpt><trkpt lat="45.5090208" lon="10.8514998"><ele>115.25</ele><time>2026-04-26T10:24:20.054Z</time></trkpt><trkpt lat="45.5088888" lon="10.851455"><ele>115.0</ele><time>2026-04-26T10:24:21.055Z</time></trkpt><trkpt lat="45.5087545" lon="10.8514066"><ele>115.75</ele><time>2026-04-26T10:24:22.055Z</time></trkpt><trkpt lat="45.5086182" lon="10.8513532"><ele>116.5</ele><time>2026-04-26T10:24:23.054Z</time></trkpt><trkpt lat="45.5084765" lon="10.8513006"><ele>117.25</ele><time>2026-04-26T10:24:24.055Z</time></trkpt><trkpt lat="45.5083358" lon="10.8512514"><ele>118.0</ele><time>2026-04-26T10:24:25.055Z</time></trkpt><trkpt lat="45.5082029" lon="10.8511945"><ele>118.0</ele><time>2026-04-26T10:24:26.054Z</time></trkpt><trkpt lat="45.5080624" lon="10.8511427"><ele>118.0</ele><time>2026-04-26T10:24:27.055Z</time></trkpt><trkpt lat="45.5079195" lon="10.8510921"><ele>118.0</ele><time>2026-04-26T10:24:28.054Z</time></trkpt><trkpt lat="45.5077786" lon="10.8510499"><ele>118.0</ele><time>2026-04-26T10:24:29.054Z</time></trkpt><trkpt lat="45.5076389" lon="10.8510004"><ele>118.0</ele><time>2026-04-26T10:24:30.055Z</time></trkpt><trkpt lat="45.5075007" lon="10.8509369"><ele>118.0</ele><time>2026-04-26T10:24:31.055Z</time></trkpt><trkpt lat="45.5073624" lon="10.8508906"><ele>118.0</ele><time>2026-04-26T10:24:32.054Z</time></trkpt><trkpt lat="45.5072137" lon="10.8508424"><ele>118.0</ele><time>2026-04-26T10:24:33.055Z</time></trkpt><trkpt lat="45.5070683" lon="10.8507902"><ele>117.25</ele><time>2026-04-26T10:24:34.055Z</time></trkpt><trkpt lat="45.5069267" lon="10.8507393"><ele>116.5</ele><time>2026-04-26T10:24:35.055Z</time></trkpt><trkpt lat="45.5067901" lon="10.8506833"><ele>115.75</ele><time>2026-04-26T10:24:36.054Z</time></trkpt><trkpt lat="45.5066586" lon="10.8506305"><ele>115.0</ele><time>2026-04-26T10:24:37.055Z</time></trkpt><trkpt lat="45.5065284" lon="10.8505811"><ele>115.0</ele><time>2026-04-26T10:24:38.055Z</time></trkpt><trkpt lat="45.5063886" lon="10.8505287"><ele>115.0</ele><time>2026-04-26T10:24:39.055Z</time></trkpt><trkpt lat="45.5062547" lon="10.8504697"><ele>115.0</ele><time>2026-04-26T10:24:40.054Z</time></trkpt><trkpt lat="45.5061139" lon="10.8504238"><ele>115.0</ele><time>2026-04-26T10:24:41.055Z</time></trkpt><trkpt lat="45.5059727" lon="10.8503848"><ele>114.5</ele><time>2026-04-26T10:24:42.055Z</time></trkpt><trkpt lat="45.5058311" lon="10.8503453"><ele>114.0</ele><time>2026-04-26T10:24:43.054Z</time></trkpt><trkpt lat="45.5056817" lon="10.8502967"><ele>113.5</ele><time>2026-04-26T10:24:44.055Z</time></trkpt><trkpt lat="45.5055358" lon="10.8502739"><ele>113.0</ele><time>2026-04-26T10:24:45.054Z</time></trkpt><trkpt lat="45.5054017" lon="10.8502079"><ele>113.80000000000001</ele><time>2026-04-26T10:24:46.055Z</time></trkpt><trkpt lat="45.5052851" lon="10.8501417"><ele>114.60000000000001</ele><time>2026-04-26T10:24:47.055Z</time></trkpt><trkpt lat="45.5051801" lon="10.8500891"><ele>115.39999999999999</ele><time>2026-04-26T10:24:48.054Z</time></trkpt><trkpt lat="45.5050889" lon="10.8500406"><ele>116.19999999999999</ele><time>2026-04-26T10:24:49.055Z</time></trkpt><trkpt lat="45.5050069" lon="10.849998"><ele>117.0</ele><time>2026-04-26T10:24:50.055Z</time></trkpt><trkpt lat="45.5049286" lon="10.8499577"><ele>117.0</ele><time>2026-04-26T10:24:51.055Z</time></trkpt><trkpt lat="45.5048378" lon="10.849917"><ele>116.99999999999999</ele><time>2026-04-26T10:24:52.054Z</time></trkpt><trkpt lat="45.5047355" lon="10.8498671"><ele>116.99999999999999</ele><time>2026-04-26T10:24:53.055Z</time></trkpt><trkpt lat="45.5046251" lon="10.8498234"><ele>117.0</ele><time>2026-04-26T10:24:54.055Z</time></trkpt><trkpt lat="45.5045056" lon="10.8497856"><ele>117.0</ele><time>2026-04-26T10:24:55.055Z</time></trkpt><trkpt lat="45.5043913" lon="10.8497398"><ele>117.0</ele><time>2026-04-26T10:24:56.055Z</time></trkpt><trkpt lat="45.5042797" lon="10.8496921"><ele>117.0</ele><time>2026-04-26T10:24:57.054Z</time></trkpt><trkpt lat="45.5041854" lon="10.8496585"><ele>117.0</ele><time>2026-04-26T10:24:58.055Z</time></trkpt><trkpt lat="45.5040976" lon="10.8496344"><ele>117.0</ele><time>2026-04-26T10:24:59.055Z</time></trkpt><trkpt lat="45.5040333" lon="10.8496095"><ele>117.0</ele><time>2026-04-26T10:25:00.055Z</time></trkpt><trkpt lat="45.5039704" lon="10.8495785"><ele>117.0</ele><time>2026-04-26T10:25:02.055Z</time></trkpt><trkpt lat="45.5039738" lon="10.849488"><ele>117.0</ele><time>2026-04-26T10:25:08.055Z</time></trkpt><trkpt lat="45.5039941" lon="10.8493984"><ele>116.99999999999999</ele><time>2026-04-26T10:25:09.055Z</time></trkpt><trkpt lat="45.5040284" lon="10.8492839"><ele>116.99999999999999</ele><time>2026-04-26T10:25:10.054Z</time></trkpt><trkpt lat="45.5040752" lon="10.849155"><ele>117.0</ele><time>2026-04-26T10:25:11.055Z</time></trkpt><trkpt lat="45.5041198" lon="10.849025"><ele>117.0</ele><time>2026-04-26T10:25:12.055Z</time></trkpt><trkpt lat="45.5041594" lon="10.8488886"><ele>117.25</ele><time>2026-04-26T10:25:13.055Z</time></trkpt><trkpt lat="45.5041991" lon="10.8487357"><ele>117.5</ele><time>2026-04-26T10:25:14.054Z</time></trkpt><trkpt lat="45.5042466" lon="10.8485695"><ele>117.75</ele><time>2026-04-26T10:25:15.054Z</time></trkpt><trkpt lat="45.5043001" lon="10.848407"><ele>118.0</ele><time>2026-04-26T10:25:16.054Z</time></trkpt><trkpt lat="45.5043531" lon="10.8482335"><ele>118.0</ele><time>2026-04-26T10:25:17.055Z</time></trkpt><trkpt lat="45.504408" lon="10.8480639"><ele>118.0</ele><time>2026-04-26T10:25:18.054Z</time></trkpt><trkpt lat="45.5044691" lon="10.8478904"><ele>118.0</ele><time>2026-04-26T10:25:19.054Z</time></trkpt><trkpt lat="45.504524" lon="10.8477077"><ele>118.0</ele><time>2026-04-26T10:25:20.055Z</time></trkpt><trkpt lat="45.5045764" lon="10.8475372"><ele>118.75</ele><time>2026-04-26T10:25:21.055Z</time></trkpt><trkpt lat="45.5046384" lon="10.8473532"><ele>119.5</ele><time>2026-04-26T10:25:22.055Z</time></trkpt><trkpt lat="45.5047102" lon="10.8471667"><ele>120.25</ele><time>2026-04-26T10:25:23.055Z</time></trkpt><trkpt lat="45.5047841" lon="10.8469863"><ele>121.0</ele><time>2026-04-26T10:25:24.054Z</time></trkpt><trkpt lat="45.5048603" lon="10.8468256"><ele>120.5</ele><time>2026-04-26T10:25:25.055Z</time></trkpt><trkpt lat="45.5049457" lon="10.846656"><ele>120.0</ele><time>2026-04-26T10:25:26.054Z</time></trkpt><trkpt lat="45.5050358" lon="10.8464903"><ele>119.5</ele><time>2026-04-26T10:25:27.054Z</time></trkpt><trkpt lat="45.5051246" lon="10.8463088"><ele>119.0</ele><time>2026-04-26T10:25:28.055Z</time></trkpt><trkpt lat="45.505226" lon="10.8461385"><ele>119.0</ele><time>2026-04-26T10:25:29.055Z</time></trkpt><trkpt lat="45.5053305" lon="10.8459702"><ele>119.0</ele><time>2026-04-26T10:25:30.054Z</time></trkpt><trkpt lat="45.5054306" lon="10.845808"><ele>119.0</ele><time>2026-04-26T10:25:31.054Z</time></trkpt><trkpt lat="45.5055244" lon="10.8456412"><ele>119.0</ele><time>2026-04-26T10:25:32.054Z</time></trkpt><trkpt lat="45.505613" lon="10.8454759"><ele>119.0</ele><time>2026-04-26T10:25:33.055Z</time></trkpt><trkpt lat="45.5056865" lon="10.8453031"><ele>119.0</ele><time>2026-04-26T10:25:34.054Z</time></trkpt><trkpt lat="45.5057548" lon="10.845128"><ele>119.0</ele><time>2026-04-26T10:25:35.054Z</time></trkpt><trkpt lat="45.5058157" lon="10.8449547"><ele>119.5</ele><time>2026-04-26T10:25:36.055Z</time></trkpt><trkpt lat="45.5058682" lon="10.8447842"><ele>120.0</ele><time>2026-04-26T10:25:37.054Z</time></trkpt><trkpt lat="45.5059269" lon="10.8445783"><ele>120.5</ele><time>2026-04-26T10:25:38.055Z</time></trkpt><trkpt lat="45.5059658" lon="10.8443853"><ele>121.0</ele><time>2026-04-26T10:25:39.055Z</time></trkpt><trkpt lat="45.5059921" lon="10.8441973"><ele>121.0</ele><time>2026-04-26T10:25:40.055Z</time></trkpt><trkpt lat="45.5060223" lon="10.8440184"><ele>121.0</ele><time>2026-04-26T10:25:41.055Z</time></trkpt><trkpt lat="45.5060552" lon="10.843855"><ele>121.0</ele><time>2026-04-26T10:25:42.054Z</time></trkpt><trkpt lat="45.5060888" lon="10.8437034"><ele>121.0</ele><time>2026-04-26T10:25:43.055Z</time></trkpt><trkpt lat="45.5061229" lon="10.8435679"><ele>120.8</ele><time>2026-04-26T10:25:44.055Z</time></trkpt><trkpt lat="45.5061563" lon="10.8434442"><ele>120.6</ele><time>2026-04-26T10:25:45.054Z</time></trkpt><trkpt lat="45.5061774" lon="10.8433389"><ele>120.4</ele><time>2026-04-26T10:25:46.055Z</time></trkpt><trkpt lat="45.506241" lon="10.8432246"><ele>120.2</ele><time>2026-04-26T10:25:48.055Z</time></trkpt><trkpt lat="45.5063598" lon="10.8431513"><ele>120.0</ele><time>2026-04-26T10:25:50.055Z</time></trkpt><trkpt lat="45.5064139" lon="10.8430881"><ele>119.66666666666667</ele><time>2026-04-26T10:25:51.055Z</time></trkpt><trkpt lat="45.5064461" lon="10.8430027"><ele>119.33333333333334</ele><time>2026-04-26T10:25:52.055Z</time></trkpt><trkpt lat="45.5064565" lon="10.8429013"><ele>119.0</ele><time>2026-04-26T10:25:53.054Z</time></trkpt><trkpt lat="45.5064425" lon="10.842794"><ele>118.66666666666667</ele><time>2026-04-26T10:25:54.054Z</time></trkpt><trkpt lat="45.50642" lon="10.8426694"><ele>118.33333333333334</ele><time>2026-04-26T10:25:55.054Z</time></trkpt><trkpt lat="45.5063957" lon="10.8425278"><ele>118.0</ele><time>2026-04-26T10:25:56.055Z</time></trkpt><trkpt lat="45.5063907" lon="10.8423733"><ele>118.0</ele><time>2026-04-26T10:25:57.055Z</time></trkpt><trkpt lat="45.5064002" lon="10.8422179"><ele>118.0</ele><time>2026-04-26T10:25:58.054Z</time></trkpt><trkpt lat="45.5064206" lon="10.8420548"><ele>118.0</ele><time>2026-04-26T10:25:59.055Z</time></trkpt><trkpt lat="45.5064523" lon="10.8418867"><ele>118.0</ele><time>2026-04-26T10:26:00.055Z</time></trkpt><trkpt lat="45.5064864" lon="10.8417128"><ele>118.5</ele><time>2026-04-26T10:26:01.055Z</time></trkpt><trkpt lat="45.5065269" lon="10.8415328"><ele>119.0</ele><time>2026-04-26T10:26:02.055Z</time></trkpt><trkpt lat="45.5065654" lon="10.8413457"><ele>119.5</ele><time>2026-04-26T10:26:03.055Z</time></trkpt><trkpt lat="45.5066053" lon="10.8411541"><ele>120.0</ele><time>2026-04-26T10:26:04.055Z</time></trkpt><trkpt lat="45.5066468" lon="10.8409657"><ele>120.0</ele><time>2026-04-26T10:26:05.055Z</time></trkpt><trkpt lat="45.5066876" lon="10.8407687"><ele>120.0</ele><time>2026-04-26T10:26:06.055Z</time></trkpt><trkpt lat="45.5067265" lon="10.8405657"><ele>120.0</ele><time>2026-04-26T10:26:07.055Z</time></trkpt><trkpt lat="45.5067607" lon="10.8403552"><ele>120.0</ele><time>2026-04-26T10:26:08.055Z</time></trkpt><trkpt lat="45.5067887" lon="10.8401368"><ele>119.66666666666666</ele><time>2026-04-26T10:26:09.053Z</time></trkpt><trkpt lat="45.5068185" lon="10.8399323"><ele>119.33333333333333</ele><time>2026-04-26T10:26:10.053Z</time></trkpt><trkpt lat="45.5068462" lon="10.8397141"><ele>119.0</ele><time>2026-04-26T10:26:11.054Z</time></trkpt><trkpt lat="45.5068742" lon="10.8395066"><ele>119.25</ele><time>2026-04-26T10:26:12.054Z</time></trkpt><trkpt lat="45.5069009" lon="10.8392997"><ele>119.5</ele><time>2026-04-26T10:26:13.054Z</time></trkpt><trkpt lat="45.5069287" lon="10.8390962"><ele>119.75</ele><time>2026-04-26T10:26:14.054Z</time></trkpt><trkpt lat="45.5069555" lon="10.8389089"><ele>120.0</ele><time>2026-04-26T10:26:15.053Z</time></trkpt><trkpt lat="45.5069778" lon="10.8387374"><ele>120.0</ele><time>2026-04-26T10:26:16.054Z</time></trkpt><trkpt lat="45.5069987" lon="10.8385813"><ele>120.0</ele><time>2026-04-26T10:26:17.053Z</time></trkpt><trkpt lat="45.5070173" lon="10.8384349"><ele>120.0</ele><time>2026-04-26T10:26:18.054Z</time></trkpt><trkpt lat="45.5070366" lon="10.8383102"><ele>120.0</ele><time>2026-04-26T10:26:19.053Z</time></trkpt><trkpt lat="45.5070614" lon="10.8382067"><ele>120.0</ele><time>2026-04-26T10:26:20.054Z</time></trkpt><trkpt lat="45.5071168" lon="10.8380832"><ele>120.4</ele><time>2026-04-26T10:26:22.054Z</time></trkpt><trkpt lat="45.5071678" lon="10.8380245"><ele>120.8</ele><time>2026-04-26T10:26:25.054Z</time></trkpt><trkpt lat="45.5072849" lon="10.8379268"><ele>121.19999999999999</ele><time>2026-04-26T10:29:23.053Z</time></trkpt><trkpt lat="45.5072538" lon="10.8378032"><ele>121.6</ele><time>2026-04-26T10:32:11.051Z</time></trkpt><trkpt lat="45.5072346" lon="10.8377023"><ele>122.0</ele><time>2026-04-26T10:32:13.051Z</time></trkpt><trkpt lat="45.5072094" lon="10.8375847"><ele>122.25</ele><time>2026-04-26T10:32:16.052Z</time></trkpt><trkpt lat="45.507189" lon="10.837433"><ele>122.5</ele><time>2026-04-26T10:32:30.052Z</time></trkpt><trkpt lat="45.5072039" lon="10.8373083"><ele>122.75</ele><time>2026-04-26T10:32:31.052Z</time></trkpt><trkpt lat="45.5072299" lon="10.8371516"><ele>123.0</ele><time>2026-04-26T10:32:32.052Z</time></trkpt><trkpt lat="45.5072609" lon="10.8369548"><ele>123.0</ele><time>2026-04-26T10:32:33.052Z</time></trkpt><trkpt lat="45.5073031" lon="10.8367055"><ele>123.0</ele><time>2026-04-26T10:32:34.052Z</time></trkpt><trkpt lat="45.5073406" lon="10.8364289"><ele>123.0</ele><time>2026-04-26T10:32:35.051Z</time></trkpt><trkpt lat="45.5073795" lon="10.8361682"><ele>122.33333333333334</ele><time>2026-04-26T10:32:36.051Z</time></trkpt><trkpt lat="45.5074149" lon="10.8359303"><ele>121.66666666666667</ele><time>2026-04-26T10:32:37.052Z</time></trkpt><trkpt lat="45.50745" lon="10.8356958"><ele>121.0</ele><time>2026-04-26T10:32:38.051Z</time></trkpt><trkpt lat="45.5074823" lon="10.8354561"><ele>121.0</ele><time>2026-04-26T10:32:39.051Z</time></trkpt><trkpt lat="45.5075118" lon="10.8352223"><ele>121.0</ele><time>2026-04-26T10:32:40.052Z</time></trkpt><trkpt lat="45.5075579" lon="10.8349963"><ele>121.0</ele><time>2026-04-26T10:32:41.052Z</time></trkpt><trkpt lat="45.5076113" lon="10.8347702"><ele>121.0</ele><time>2026-04-26T10:32:42.052Z</time></trkpt><trkpt lat="45.5076644" lon="10.8345404"><ele>121.0</ele><time>2026-04-26T10:32:43.051Z</time></trkpt><trkpt lat="45.5077241" lon="10.8343099"><ele>121.0</ele><time>2026-04-26T10:32:44.052Z</time></trkpt><trkpt lat="45.5077806" lon="10.8340886"><ele>121.0</ele><time>2026-04-26T10:32:45.052Z</time></trkpt><trkpt lat="45.5078394" lon="10.8338646"><ele>121.0</ele><time>2026-04-26T10:32:46.051Z</time></trkpt><trkpt lat="45.5078916" lon="10.8336371"><ele>121.0</ele><time>2026-04-26T10:32:47.052Z</time></trkpt><trkpt lat="45.5079373" lon="10.8334076"><ele>120.0</ele><time>2026-04-26T10:32:48.051Z</time></trkpt><trkpt lat="45.5079805" lon="10.8331787"><ele>119.0</ele><time>2026-04-26T10:32:49.051Z</time></trkpt><trkpt lat="45.5080233" lon="10.8329485"><ele>118.0</ele><time>2026-04-26T10:32:50.052Z</time></trkpt><trkpt lat="45.5080754" lon="10.8327146"><ele>118.66666666666667</ele><time>2026-04-26T10:32:51.051Z</time></trkpt><trkpt lat="45.5081313" lon="10.8324748"><ele>119.33333333333334</ele><time>2026-04-26T10:32:52.051Z</time></trkpt><trkpt lat="45.5081858" lon="10.8322382"><ele>120.0</ele><time>2026-04-26T10:32:53.051Z</time></trkpt><trkpt lat="45.5082363" lon="10.8320103"><ele>118.66666666666666</ele><time>2026-04-26T10:32:54.051Z</time></trkpt><trkpt lat="45.5083035" lon="10.8317717"><ele>117.33333333333333</ele><time>2026-04-26T10:32:55.051Z</time></trkpt><trkpt lat="45.5083673" lon="10.8315338"><ele>116.0</ele><time>2026-04-26T10:32:56.052Z</time></trkpt><trkpt lat="45.5084353" lon="10.8313172"><ele>116.0</ele><time>2026-04-26T10:32:57.052Z</time></trkpt><trkpt lat="45.5085019" lon="10.8311288"><ele>116.0</ele><time>2026-04-26T10:32:58.052Z</time></trkpt><trkpt lat="45.5085841" lon="10.8309516"><ele>116.0</ele><time>2026-04-26T10:32:59.052Z</time></trkpt><trkpt lat="45.5086659" lon="10.8307695"><ele>116.0</ele><time>2026-04-26T10:33:00.051Z</time></trkpt><trkpt lat="45.50875" lon="10.8305739"><ele>116.66666666666666</ele><time>2026-04-26T10:33:01.052Z</time></trkpt><trkpt lat="45.5088411" lon="10.830396"><ele>117.33333333333334</ele><time>2026-04-26T10:33:02.052Z</time></trkpt><trkpt lat="45.5089341" lon="10.8302276"><ele>118.0</ele><time>2026-04-26T10:33:03.051Z</time></trkpt><trkpt lat="45.5090316" lon="10.8300565"><ele>118.0</ele><time>2026-04-26T10:33:04.052Z</time></trkpt><trkpt lat="45.5091319" lon="10.8298872"><ele>118.0</ele><time>2026-04-26T10:33:05.051Z</time></trkpt><trkpt lat="45.5092458" lon="10.8297135"><ele>118.0</ele><time>2026-04-26T10:33:06.051Z</time></trkpt><trkpt lat="45.5093649" lon="10.8295395"><ele>118.0</ele><time>2026-04-26T10:33:07.052Z</time></trkpt><trkpt lat="45.5094903" lon="10.8293748"><ele>118.0</ele><time>2026-04-26T10:33:08.052Z</time></trkpt><trkpt lat="45.5096207" lon="10.8292213"><ele>118.0</ele><time>2026-04-26T10:33:09.051Z</time></trkpt><trkpt lat="45.509757" lon="10.8290685"><ele>117.66666666666667</ele><time>2026-04-26T10:33:10.052Z</time></trkpt><trkpt lat="45.5098898" lon="10.828935"><ele>117.33333333333334</ele><time>2026-04-26T10:33:11.052Z</time></trkpt><trkpt lat="45.510025" lon="10.8287986"><ele>117.0</ele><time>2026-04-26T10:33:12.052Z</time></trkpt><trkpt lat="45.5101679" lon="10.8286555"><ele>117.0</ele><time>2026-04-26T10:33:13.052Z</time></trkpt><trkpt lat="45.5103054" lon="10.8285054"><ele>117.0</ele><time>2026-04-26T10:33:14.052Z</time></trkpt><trkpt lat="45.5104391" lon="10.8283487"><ele>117.0</ele><time>2026-04-26T10:33:15.052Z</time></trkpt><trkpt lat="45.5105813" lon="10.8281995"><ele>116.66666666666666</ele><time>2026-04-26T10:33:16.051Z</time></trkpt><trkpt lat="45.5107358" lon="10.8280456"><ele>116.33333333333333</ele><time>2026-04-26T10:33:17.052Z</time></trkpt><trkpt lat="45.5108861" lon="10.8278931"><ele>116.0</ele><time>2026-04-26T10:33:18.051Z</time></trkpt><trkpt lat="45.5110351" lon="10.82774"><ele>115.66666666666666</ele><time>2026-04-26T10:33:19.052Z</time></trkpt><trkpt lat="45.5111798" lon="10.8275942"><ele>115.33333333333334</ele><time>2026-04-26T10:33:20.052Z</time></trkpt><trkpt lat="45.5113257" lon="10.8274356"><ele>115.0</ele><time>2026-04-26T10:33:21.051Z</time></trkpt><trkpt lat="45.5114622" lon="10.827293"><ele>116.33333333333334</ele><time>2026-04-26T10:33:22.051Z</time></trkpt><trkpt lat="45.5115841" lon="10.8271535"><ele>117.66666666666666</ele><time>2026-04-26T10:33:23.051Z</time></trkpt><trkpt lat="45.5117104" lon="10.827014"><ele>119.0</ele><time>2026-04-26T10:33:24.051Z</time></trkpt><trkpt lat="45.5118371" lon="10.8268787"><ele>118.0</ele><time>2026-04-26T10:33:25.051Z</time></trkpt><trkpt lat="45.5119606" lon="10.8267436"><ele>117.0</ele><time>2026-04-26T10:33:26.052Z</time></trkpt><trkpt lat="45.5120909" lon="10.826616"><ele>116.0</ele><time>2026-04-26T10:33:27.051Z</time></trkpt><trkpt lat="45.5122256" lon="10.8264761"><ele>115.66666666666666</ele><time>2026-04-26T10:33:28.051Z</time></trkpt><trkpt lat="45.512354" lon="10.8263413"><ele>115.33333333333334</ele><time>2026-04-26T10:33:29.051Z</time></trkpt><trkpt lat="45.5124789" lon="10.8262006"><ele>115.0</ele><time>2026-04-26T10:33:30.051Z</time></trkpt><trkpt lat="45.512596" lon="10.8260859"><ele>115.0</ele><time>2026-04-26T10:33:31.051Z</time></trkpt><trkpt lat="45.5126922" lon="10.8259821"><ele>115.0</ele><time>2026-04-26T10:33:32.052Z</time></trkpt><trkpt lat="45.5127813" lon="10.8258907"><ele>115.0</ele><time>2026-04-26T10:33:33.051Z</time></trkpt><trkpt lat="45.5128604" lon="10.8257962"><ele>115.0</ele><time>2026-04-26T10:33:34.052Z</time></trkpt><trkpt lat="45.5129378" lon="10.8257044"><ele>115.0</ele><time>2026-04-26T10:33:35.051Z</time></trkpt><trkpt lat="45.5129917" lon="10.8256256"><ele>114.83333333333334</ele><time>2026-04-26T10:33:36.052Z</time></trkpt><trkpt lat="45.5129941" lon="10.8254898"><ele>114.66666666666667</ele><time>2026-04-26T10:33:38.052Z</time></trkpt><trkpt lat="45.5129422" lon="10.8254328"><ele>114.5</ele><time>2026-04-26T10:33:39.051Z</time></trkpt><trkpt lat="45.5128748" lon="10.8253764"><ele>114.33333333333334</ele><time>2026-04-26T10:33:40.051Z</time></trkpt><trkpt lat="45.5128012" lon="10.8253318"><ele>114.16666666666667</ele><time>2026-04-26T10:33:41.051Z</time></trkpt><trkpt lat="45.5127182" lon="10.8252987"><ele>114.0</ele><time>2026-04-26T10:33:42.052Z</time></trkpt><trkpt lat="45.5126237" lon="10.8252822"><ele>114.0</ele><time>2026-04-26T10:33:43.052Z</time></trkpt><trkpt lat="45.5125232" lon="10.825278"><ele>114.0</ele><time>2026-04-26T10:33:44.052Z</time></trkpt><trkpt lat="45.512412" lon="10.8252859"><ele>114.0</ele><time>2026-04-26T10:33:45.051Z</time></trkpt><trkpt lat="45.5123008" lon="10.8252931"><ele>114.0</ele><time>2026-04-26T10:33:46.052Z</time></trkpt><trkpt lat="45.5122" lon="10.8252769"><ele>114.0</ele><time>2026-04-26T10:33:47.052Z</time></trkpt><trkpt lat="45.5121026" lon="10.8252521"><ele>114.16666666666667</ele><time>2026-04-26T10:33:48.052Z</time></trkpt><trkpt lat="45.5120091" lon="10.8252108"><ele>114.33333333333334</ele><time>2026-04-26T10:33:49.052Z</time></trkpt><trkpt lat="45.5119252" lon="10.8251791"><ele>114.5</ele><time>2026-04-26T10:33:50.052Z</time></trkpt><trkpt lat="45.5118461" lon="10.8251581"><ele>114.66666666666667</ele><time>2026-04-26T10:33:51.052Z</time></trkpt><trkpt lat="45.5117697" lon="10.8251232"><ele>114.83333333333334</ele><time>2026-04-26T10:33:52.051Z</time></trkpt><trkpt lat="45.5116976" lon="10.8250713"><ele>115.0</ele><time>2026-04-26T10:33:53.051Z</time></trkpt><trkpt lat="45.5116292" lon="10.8249965"><ele>115.0</ele><time>2026-04-26T10:33:54.051Z</time></trkpt><trkpt lat="45.5115547" lon="10.8249072"><ele>115.0</ele><time>2026-04-26T10:33:55.052Z</time></trkpt><trkpt lat="45.5114704" lon="10.824827"><ele>115.0</ele><time>2026-04-26T10:33:56.052Z</time></trkpt><trkpt lat="45.5113827" lon="10.8247645"><ele>115.0</ele><time>2026-04-26T10:33:57.051Z</time></trkpt><trkpt lat="45.5112996" lon="10.8247057"><ele>115.0</ele><time>2026-04-26T10:33:58.051Z</time></trkpt><trkpt lat="45.5112311" lon="10.8246556"><ele>114.66666666666667</ele><time>2026-04-26T10:33:59.052Z</time></trkpt><trkpt lat="45.5111768" lon="10.824587"><ele>114.33333333333334</ele><time>2026-04-26T10:34:00.051Z</time></trkpt><trkpt lat="45.5111312" lon="10.8245006"><ele>114.0</ele><time>2026-04-26T10:34:01.051Z</time></trkpt><trkpt lat="45.5110925" lon="10.8243867"><ele>113.66666666666666</ele><time>2026-04-26T10:34:02.052Z</time></trkpt><trkpt lat="45.5110566" lon="10.8242595"><ele>113.33333333333333</ele><time>2026-04-26T10:34:03.052Z</time></trkpt><trkpt lat="45.5110137" lon="10.8241324"><ele>113.0</ele><time>2026-04-26T10:34:04.051Z</time></trkpt><trkpt lat="45.510948" lon="10.8240187"><ele>112.75</ele><time>2026-04-26T10:34:05.052Z</time></trkpt><trkpt lat="45.5108556" lon="10.8239267"><ele>112.5</ele><time>2026-04-26T10:34:06.051Z</time></trkpt><trkpt lat="45.5107429" lon="10.8238433"><ele>112.25</ele><time>2026-04-26T10:34:07.051Z</time></trkpt><trkpt lat="45.5106214" lon="10.8237807"><ele>112.0</ele><time>2026-04-26T10:34:08.052Z</time></trkpt><trkpt lat="45.5104982" lon="10.8237226"><ele>112.0</ele><time>2026-04-26T10:34:09.052Z</time></trkpt><trkpt lat="45.5103713" lon="10.8236614"><ele>112.0</ele><time>2026-04-26T10:34:10.051Z</time></trkpt><trkpt lat="45.5102567" lon="10.8236132"><ele>112.0</ele><time>2026-04-26T10:34:11.051Z</time></trkpt><trkpt lat="45.5101465" lon="10.8235707"><ele>112.0</ele><time>2026-04-26T10:34:12.051Z</time></trkpt><trkpt lat="45.5100453" lon="10.8235275"><ele>112.00000000000001</ele><time>2026-04-26T10:34:13.051Z</time></trkpt><trkpt lat="45.5099552" lon="10.823488"><ele>112.0</ele><time>2026-04-26T10:34:14.051Z</time></trkpt><trkpt lat="45.5098778" lon="10.8234502"><ele>112.0</ele><time>2026-04-26T10:34:15.052Z</time></trkpt><trkpt lat="45.5098167" lon="10.8234183"><ele>112.0</ele><time>2026-04-26T10:34:16.051Z</time></trkpt><trkpt lat="45.5097407" lon="10.8233337"><ele>112.00000000000001</ele><time>2026-04-26T10:34:18.051Z</time></trkpt><trkpt lat="45.5097299" lon="10.8232111"><ele>112.0</ele><time>2026-04-26T10:34:20.051Z</time></trkpt><trkpt lat="45.509748" lon="10.8231064"><ele>111.5</ele><time>2026-04-26T10:34:21.052Z</time></trkpt><trkpt lat="45.5097871" lon="10.8229646"><ele>111.0</ele><time>2026-04-26T10:34:22.051Z</time></trkpt><trkpt lat="45.5098428" lon="10.8227941"><ele>110.5</ele><time>2026-04-26T10:34:23.052Z</time></trkpt><trkpt lat="45.5099031" lon="10.8226107"><ele>110.0</ele><time>2026-04-26T10:34:24.052Z</time></trkpt><trkpt lat="45.5099582" lon="10.8224179"><ele>109.66666666666666</ele><time>2026-04-26T10:34:25.051Z</time></trkpt><trkpt lat="45.5100073" lon="10.8222275"><ele>109.33333333333334</ele><time>2026-04-26T10:34:26.052Z</time></trkpt><trkpt lat="45.5100644" lon="10.8220248"><ele>109.0</ele><time>2026-04-26T10:34:27.051Z</time></trkpt><trkpt lat="45.51012" lon="10.8218191"><ele>109.33333333333334</ele><time>2026-04-26T10:34:28.052Z</time></trkpt><trkpt lat="45.5101757" lon="10.8216111"><ele>109.66666666666666</ele><time>2026-04-26T10:34:29.051Z</time></trkpt><trkpt lat="45.5102351" lon="10.8214032"><ele>110.0</ele><time>2026-04-26T10:34:30.052Z</time></trkpt><trkpt lat="45.5102944" lon="10.8212069"><ele>110.0</ele><time>2026-04-26T10:34:31.051Z</time></trkpt><trkpt lat="45.5103525" lon="10.8210129"><ele>110.0</ele><time>2026-04-26T10:34:32.052Z</time></trkpt><trkpt lat="45.5104028" lon="10.820822"><ele>110.0</ele><time>2026-04-26T10:34:33.052Z</time></trkpt><trkpt lat="45.5104515" lon="10.8206218"><ele>110.0</ele><time>2026-04-26T10:34:34.052Z</time></trkpt><trkpt lat="45.510499" lon="10.8204127"><ele>110.0</ele><time>2026-04-26T10:34:35.051Z</time></trkpt><trkpt lat="45.5105442" lon="10.8202118"><ele>110.0</ele><time>2026-04-26T10:34:36.051Z</time></trkpt><trkpt lat="45.5105823" lon="10.8200217"><ele>110.0</ele><time>2026-04-26T10:34:37.052Z</time></trkpt><trkpt lat="45.510616" lon="10.8198517"><ele>110.0</ele><time>2026-04-26T10:34:38.051Z</time></trkpt><trkpt lat="45.5106471" lon="10.819695"><ele>109.99999999999999</ele><time>2026-04-26T10:34:39.052Z</time></trkpt><trkpt lat="45.5106701" lon="10.8195554"><ele>110.0</ele><time>2026-04-26T10:34:40.052Z</time></trkpt><trkpt lat="45.5106788" lon="10.8194352"><ele>110.0</ele><time>2026-04-26T10:34:41.052Z</time></trkpt><trkpt lat="45.5106873" lon="10.8193312"><ele>110.0</ele><time>2026-04-26T10:34:42.051Z</time></trkpt><trkpt lat="45.5107004" lon="10.8192247"><ele>109.99999999999999</ele><time>2026-04-26T10:34:43.052Z</time></trkpt><trkpt lat="45.5107311" lon="10.8191053"><ele>110.0</ele><time>2026-04-26T10:34:44.052Z</time></trkpt><trkpt lat="45.5107704" lon="10.8189583"><ele>110.75</ele><time>2026-04-26T10:34:45.052Z</time></trkpt><trkpt lat="45.5108139" lon="10.8187975"><ele>111.5</ele><time>2026-04-26T10:34:46.052Z</time></trkpt><trkpt lat="45.5108573" lon="10.8186326"><ele>112.25</ele><time>2026-04-26T10:34:47.052Z</time></trkpt><trkpt lat="45.5109" lon="10.8184692"><ele>113.0</ele><time>2026-04-26T10:34:48.051Z</time></trkpt><trkpt lat="45.510945" lon="10.8183084"><ele>113.0</ele><time>2026-04-26T10:34:49.052Z</time></trkpt><trkpt lat="45.5109906" lon="10.8181554"><ele>113.00000000000001</ele><time>2026-04-26T10:34:50.052Z</time></trkpt><trkpt lat="45.5110398" lon="10.8180136"><ele>113.00000000000001</ele><time>2026-04-26T10:34:51.05Z</time></trkpt><trkpt lat="45.5110949" lon="10.8178965"><ele>113.0</ele><time>2026-04-26T10:34:52.05Z</time></trkpt><trkpt lat="45.5111463" lon="10.817796"><ele>113.0</ele><time>2026-04-26T10:34:53.051Z</time></trkpt><trkpt lat="45.5111909" lon="10.8176962"><ele>113.0</ele><time>2026-04-26T10:34:54.05Z</time></trkpt><trkpt lat="45.5112324" lon="10.8175726"><ele>113.00000000000001</ele><time>2026-04-26T10:34:55.051Z</time></trkpt><trkpt lat="45.5112763" lon="10.8174447"><ele>113.00000000000001</ele><time>2026-04-26T10:34:56.05Z</time></trkpt><trkpt lat="45.5113224" lon="10.817315"><ele>113.0</ele><time>2026-04-26T10:34:57.05Z</time></trkpt><trkpt lat="45.5113652" lon="10.8171735"><ele>113.0</ele><time>2026-04-26T10:34:58.05Z</time></trkpt><trkpt lat="45.5113988" lon="10.8170424"><ele>113.0</ele><time>2026-04-26T10:34:59.05Z</time></trkpt><trkpt lat="45.511427" lon="10.8169184"><ele>113.00000000000001</ele><time>2026-04-26T10:35:00.051Z</time></trkpt><trkpt lat="45.5114522" lon="10.816794"><ele>113.00000000000001</ele><time>2026-04-26T10:35:01.05Z</time></trkpt><trkpt lat="45.5114863" lon="10.8166627"><ele>113.0</ele><time>2026-04-26T10:35:02.051Z</time></trkpt><trkpt lat="45.5115218" lon="10.8165321"><ele>113.0</ele><time>2026-04-26T10:35:03.05Z</time></trkpt><trkpt lat="45.5115602" lon="10.8163968"><ele>113.0</ele><time>2026-04-26T10:35:04.051Z</time></trkpt><trkpt lat="45.5115986" lon="10.8162602"><ele>113.00000000000001</ele><time>2026-04-26T10:35:05.051Z</time></trkpt><trkpt lat="45.5116408" lon="10.8161287"><ele>113.00000000000001</ele><time>2026-04-26T10:35:06.05Z</time></trkpt><trkpt lat="45.5116797" lon="10.8159967"><ele>113.0</ele><time>2026-04-26T10:35:07.05Z</time></trkpt><trkpt lat="45.5117188" lon="10.8158721"><ele>113.0</ele><time>2026-04-26T10:35:08.05Z</time></trkpt><trkpt lat="45.5117583" lon="10.8157436"><ele>113.2</ele><time>2026-04-26T10:35:09.051Z</time></trkpt><trkpt lat="45.5117954" lon="10.8156079"><ele>113.4</ele><time>2026-04-26T10:35:10.05Z</time></trkpt><trkpt lat="45.511835" lon="10.8154644"><ele>113.60000000000001</ele><time>2026-04-26T10:35:11.05Z</time></trkpt><trkpt lat="45.5118702" lon="10.8153281"><ele>113.80000000000001</ele><time>2026-04-26T10:35:12.051Z</time></trkpt><trkpt lat="45.5119006" lon="10.8151851"><ele>114.0</ele><time>2026-04-26T10:35:13.051Z</time></trkpt><trkpt lat="45.5119257" lon="10.815052"><ele>114.0</ele><time>2026-04-26T10:35:14.05Z</time></trkpt><trkpt lat="45.5119511" lon="10.8149411"><ele>114.0</ele><time>2026-04-26T10:35:15.05Z</time></trkpt><trkpt lat="45.5119785" lon="10.814842"><ele>114.0</ele><time>2026-04-26T10:35:16.051Z</time></trkpt><trkpt lat="45.5120077" lon="10.814741"><ele>114.0</ele><time>2026-04-26T10:35:17.051Z</time></trkpt><trkpt lat="45.5120486" lon="10.8146405"><ele>114.0</ele><time>2026-04-26T10:35:18.051Z</time></trkpt><trkpt lat="45.5120996" lon="10.814545"><ele>114.0</ele><time>2026-04-26T10:35:19.051Z</time></trkpt><trkpt lat="45.5121608" lon="10.8144618"><ele>114.0</ele><time>2026-04-26T10:35:20.051Z</time></trkpt><trkpt lat="45.5122216" lon="10.8143909"><ele>114.0</ele><time>2026-04-26T10:35:21.05Z</time></trkpt><trkpt lat="45.5122981" lon="10.8142707"><ele>114.0</ele><time>2026-04-26T10:35:23.051Z</time></trkpt><trkpt lat="45.5123149" lon="10.814125"><ele>114.0</ele><time>2026-04-26T10:35:25.051Z</time></trkpt><trkpt lat="45.512303" lon="10.8140111"><ele>114.0</ele><time>2026-04-26T10:35:26.05Z</time></trkpt><trkpt lat="45.5122769" lon="10.813872"><ele>114.0</ele><time>2026-04-26T10:35:27.05Z</time></trkpt><trkpt lat="45.5122338" lon="10.8137049"><ele>114.0</ele><time>2026-04-26T10:35:28.05Z</time></trkpt><trkpt lat="45.5121852" lon="10.813531"><ele>114.0</ele><time>2026-04-26T10:35:29.051Z</time></trkpt><trkpt lat="45.5121415" lon="10.813347"><ele>114.0</ele><time>2026-04-26T10:35:30.05Z</time></trkpt><trkpt lat="45.5121079" lon="10.8131657"><ele>114.25</ele><time>2026-04-26T10:35:31.05Z</time></trkpt><trkpt lat="45.5120854" lon="10.8129873"><ele>114.5</ele><time>2026-04-26T10:35:32.05Z</time></trkpt><trkpt lat="45.5120737" lon="10.8128129"><ele>114.75</ele><time>2026-04-26T10:35:33.05Z</time></trkpt><trkpt lat="45.512071" lon="10.8126409"><ele>115.0</ele><time>2026-04-26T10:35:34.05Z</time></trkpt><trkpt lat="45.5120834" lon="10.812463"><ele>115.33333333333334</ele><time>2026-04-26T10:35:35.05Z</time></trkpt><trkpt lat="45.5121128" lon="10.8122664"><ele>115.66666666666666</ele><time>2026-04-26T10:35:36.051Z</time></trkpt><trkpt lat="45.5121588" lon="10.8120584"><ele>116.0</ele><time>2026-04-26T10:35:37.051Z</time></trkpt><trkpt lat="45.5122154" lon="10.8118512"><ele>115.75</ele><time>2026-04-26T10:35:38.051Z</time></trkpt><trkpt lat="45.512271" lon="10.8116514"><ele>115.5</ele><time>2026-04-26T10:35:39.05Z</time></trkpt><trkpt lat="45.5123202" lon="10.8114556"><ele>115.25</ele><time>2026-04-26T10:35:40.051Z</time></trkpt><trkpt lat="45.5123725" lon="10.8112714"><ele>115.0</ele><time>2026-04-26T10:35:41.05Z</time></trkpt><trkpt lat="45.5124235" lon="10.8110907"><ele>114.75</ele><time>2026-04-26T10:35:42.051Z</time></trkpt><trkpt lat="45.5124705" lon="10.8109154"><ele>114.5</ele><time>2026-04-26T10:35:43.05Z</time></trkpt><trkpt lat="45.5125192" lon="10.8107521"><ele>114.25</ele><time>2026-04-26T10:35:44.05Z</time></trkpt><trkpt lat="45.5125721" lon="10.8106008"><ele>114.0</ele><time>2026-04-26T10:35:45.051Z</time></trkpt><trkpt lat="45.5126214" lon="10.8104682"><ele>114.0</ele><time>2026-04-26T10:35:46.05Z</time></trkpt><trkpt lat="45.5126544" lon="10.8103431"><ele>114.0</ele><time>2026-04-26T10:35:47.05Z</time></trkpt><trkpt lat="45.5126807" lon="10.8102333"><ele>114.0</ele><time>2026-04-26T10:35:48.051Z</time></trkpt><trkpt lat="45.5127011" lon="10.8101449"><ele>114.0</ele><time>2026-04-26T10:35:49.051Z</time></trkpt><trkpt lat="45.5127435" lon="10.8100197"><ele>114.0</ele><time>2026-04-26T10:35:51.051Z</time></trkpt><trkpt lat="45.5128231" lon="10.810008"><ele>114.0</ele><time>2026-04-26T10:35:54.051Z</time></trkpt><trkpt lat="45.5129499" lon="10.8100784"><ele>113.75</ele><time>2026-04-26T10:35:56.051Z</time></trkpt><trkpt lat="45.513051" lon="10.8101487"><ele>113.5</ele><time>2026-04-26T10:35:57.05Z</time></trkpt><trkpt lat="45.5131731" lon="10.8102227"><ele>113.25</ele><time>2026-04-26T10:35:58.051Z</time></trkpt><trkpt lat="45.51331" lon="10.810305"><ele>113.0</ele><time>2026-04-26T10:35:59.05Z</time></trkpt><trkpt lat="45.5134587" lon="10.8103916"><ele>113.0</ele><time>2026-04-26T10:36:00.051Z</time></trkpt><trkpt lat="45.5136069" lon="10.8104851"><ele>113.0</ele><time>2026-04-26T10:36:01.051Z</time></trkpt><trkpt lat="45.5137577" lon="10.8105874"><ele>113.0</ele><time>2026-04-26T10:36:02.05Z</time></trkpt><trkpt lat="45.5139119" lon="10.8106781"><ele>113.0</ele><time>2026-04-26T10:36:03.051Z</time></trkpt><trkpt lat="45.5140724" lon="10.8107707"><ele>113.0</ele><time>2026-04-26T10:36:04.05Z</time></trkpt><trkpt lat="45.514227" lon="10.8108719"><ele>113.0</ele><time>2026-04-26T10:36:05.051Z</time></trkpt><trkpt lat="45.5143835" lon="10.8109671"><ele>113.66666666666666</ele><time>2026-04-26T10:36:06.051Z</time></trkpt><trkpt lat="45.5145416" lon="10.8110641"><ele>114.33333333333334</ele><time>2026-04-26T10:36:07.051Z</time></trkpt><trkpt lat="45.5146952" lon="10.8111498"><ele>115.0</ele><time>2026-04-26T10:36:08.05Z</time></trkpt><trkpt lat="45.5148424" lon="10.8112411"><ele>115.33333333333334</ele><time>2026-04-26T10:36:09.051Z</time></trkpt><trkpt lat="45.5149904" lon="10.8113404"><ele>115.66666666666666</ele><time>2026-04-26T10:36:10.051Z</time></trkpt><trkpt lat="45.5151477" lon="10.8114332"><ele>116.0</ele><time>2026-04-26T10:36:11.05Z</time></trkpt><trkpt lat="45.5153103" lon="10.8115249"><ele>115.66666666666666</ele><time>2026-04-26T10:36:12.05Z</time></trkpt><trkpt lat="45.5154776" lon="10.8116094"><ele>115.33333333333334</ele><time>2026-04-26T10:36:13.051Z</time></trkpt><trkpt lat="45.5156464" lon="10.8116813"><ele>115.0</ele><time>2026-04-26T10:36:14.05Z</time></trkpt><trkpt lat="45.5158195" lon="10.8117319"><ele>115.0</ele><time>2026-04-26T10:36:15.05Z</time></trkpt><trkpt lat="45.5160004" lon="10.8117682"><ele>115.0</ele><time>2026-04-26T10:36:16.051Z</time></trkpt><trkpt lat="45.5161861" lon="10.8118096"><ele>115.0</ele><time>2026-04-26T10:36:17.05Z</time></trkpt><trkpt lat="45.5163833" lon="10.8118496"><ele>115.33333333333334</ele><time>2026-04-26T10:36:18.05Z</time></trkpt><trkpt lat="45.5165772" lon="10.8118907"><ele>115.66666666666666</ele><time>2026-04-26T10:36:19.051Z</time></trkpt><trkpt lat="45.5167634" lon="10.8119393"><ele>116.0</ele><time>2026-04-26T10:36:20.051Z</time></trkpt><trkpt lat="45.5169483" lon="10.8119863"><ele>117.0</ele><time>2026-04-26T10:36:21.051Z</time></trkpt><trkpt lat="45.5171266" lon="10.8120329"><ele>118.0</ele><time>2026-04-26T10:36:22.051Z</time></trkpt><trkpt lat="45.5172917" lon="10.8120634"><ele>119.0</ele><time>2026-04-26T10:36:23.051Z</time></trkpt><trkpt lat="45.517449" lon="10.8120817"><ele>119.0</ele><time>2026-04-26T10:36:24.051Z</time></trkpt><trkpt lat="45.5176037" lon="10.8121077"><ele>119.0</ele><time>2026-04-26T10:36:25.05Z</time></trkpt><trkpt lat="45.5177493" lon="10.8121322"><ele>119.0</ele><time>2026-04-26T10:36:26.051Z</time></trkpt><trkpt lat="45.517882" lon="10.8121611"><ele>119.0</ele><time>2026-04-26T10:36:27.051Z</time></trkpt><trkpt lat="45.5179903" lon="10.8121903"><ele>118.57142857142857</ele><time>2026-04-26T10:36:28.05Z</time></trkpt><trkpt lat="45.5180652" lon="10.8122007"><ele>118.14285714285714</ele><time>2026-04-26T10:36:29.05Z</time></trkpt><trkpt lat="45.5181328" lon="10.8122355"><ele>117.71428571428572</ele><time>2026-04-26T10:36:30.051Z</time></trkpt><trkpt lat="45.5181949" lon="10.812285"><ele>117.28571428571429</ele><time>2026-04-26T10:36:31.05Z</time></trkpt><trkpt lat="45.518249" lon="10.8123389"><ele>116.85714285714286</ele><time>2026-04-26T10:36:32.05Z</time></trkpt><trkpt lat="45.5183097" lon="10.8123732"><ele>116.42857142857144</ele><time>2026-04-26T10:36:33.051Z</time></trkpt><trkpt lat="45.518387" lon="10.8123727"><ele>116.00000000000001</ele><time>2026-04-26T10:36:34.05Z</time></trkpt><trkpt lat="45.5184594" lon="10.8123277"><ele>116.0</ele><time>2026-04-26T10:36:35.051Z</time></trkpt><trkpt lat="45.5185451" lon="10.8122331"><ele>116.0</ele><time>2026-04-26T10:36:36.05Z</time></trkpt><trkpt lat="45.5186484" lon="10.8121433"><ele>116.0</ele><time>2026-04-26T10:36:37.05Z</time></trkpt><trkpt lat="45.5187731" lon="10.8120746"><ele>116.0</ele><time>2026-04-26T10:36:38.051Z</time></trkpt><trkpt lat="45.5189183" lon="10.8120207"><ele>115.33333333333333</ele><time>2026-04-26T10:36:39.051Z</time></trkpt><trkpt lat="45.5190782" lon="10.8119851"><ele>114.66666666666666</ele><time>2026-04-26T10:36:40.051Z</time></trkpt><trkpt lat="45.5192432" lon="10.8119674"><ele>114.0</ele><time>2026-04-26T10:36:41.051Z</time></trkpt><trkpt lat="45.5194033" lon="10.8119554"><ele>114.0</ele><time>2026-04-26T10:36:42.05Z</time></trkpt><trkpt lat="45.5195659" lon="10.8119434"><ele>114.0</ele><time>2026-04-26T10:36:43.05Z</time></trkpt><trkpt lat="45.5197233" lon="10.8119445"><ele>114.0</ele><time>2026-04-26T10:36:44.05Z</time></trkpt><trkpt lat="45.5198626" lon="10.811947"><ele>114.0</ele><time>2026-04-26T10:36:45.051Z</time></trkpt><trkpt lat="45.5199928" lon="10.8119504"><ele>114.0</ele><time>2026-04-26T10:36:46.051Z</time></trkpt><trkpt lat="45.5200996" lon="10.8119579"><ele>114.0</ele><time>2026-04-26T10:36:47.051Z</time></trkpt><trkpt lat="45.5202075" lon="10.8119688"><ele>114.0</ele><time>2026-04-26T10:36:48.051Z</time></trkpt><trkpt lat="45.5203116" lon="10.8119831"><ele>113.6</ele><time>2026-04-26T10:36:49.051Z</time></trkpt><trkpt lat="45.5204148" lon="10.8119977"><ele>113.2</ele><time>2026-04-26T10:36:50.051Z</time></trkpt><trkpt lat="45.5205056" lon="10.8119975"><ele>112.79999999999998</ele><time>2026-04-26T10:36:51.051Z</time></trkpt><trkpt lat="45.5205903" lon="10.8119693"><ele>112.39999999999999</ele><time>2026-04-26T10:36:52.051Z</time></trkpt><trkpt lat="45.5206624" lon="10.8119224"><ele>112.0</ele><time>2026-04-26T10:36:53.05Z</time></trkpt><trkpt lat="45.520743" lon="10.8118667"><ele>112.0</ele><time>2026-04-26T10:36:54.051Z</time></trkpt><trkpt lat="45.5208262" lon="10.8118315"><ele>112.0</ele><time>2026-04-26T10:36:55.051Z</time></trkpt><trkpt lat="45.5209299" lon="10.8118295"><ele>112.0</ele><time>2026-04-26T10:36:56.05Z</time></trkpt><trkpt lat="45.521056" lon="10.8118502"><ele>112.0</ele><time>2026-04-26T10:36:57.05Z</time></trkpt><trkpt lat="45.521192" lon="10.8118772"><ele>112.5</ele><time>2026-04-26T10:36:58.05Z</time></trkpt><trkpt lat="45.5213384" lon="10.8119036"><ele>113.0</ele><time>2026-04-26T10:36:59.05Z</time></trkpt><trkpt lat="45.52148" lon="10.8119249"><ele>113.5</ele><time>2026-04-26T10:37:00.051Z</time></trkpt><trkpt lat="45.5216233" lon="10.811943"><ele>114.0</ele><time>2026-04-26T10:37:01.05Z</time></trkpt><trkpt lat="45.5217616" lon="10.8119671"><ele>114.0</ele><time>2026-04-26T10:37:02.05Z</time></trkpt><trkpt lat="45.5219024" lon="10.8119901"><ele>114.0</ele><time>2026-04-26T10:37:03.051Z</time></trkpt><trkpt lat="45.5220443" lon="10.8120028"><ele>114.0</ele><time>2026-04-26T10:37:04.051Z</time></trkpt><trkpt lat="45.52218" lon="10.8119924"><ele>114.0</ele><time>2026-04-26T10:37:05.051Z</time></trkpt><trkpt lat="45.5223203" lon="10.8119768"><ele>113.75</ele><time>2026-04-26T10:37:06.051Z</time></trkpt><trkpt lat="45.5224533" lon="10.8119445"><ele>113.5</ele><time>2026-04-26T10:37:07.05Z</time></trkpt><trkpt lat="45.5225911" lon="10.8119029"><ele>113.25</ele><time>2026-04-26T10:37:08.05Z</time></trkpt><trkpt lat="45.5227338" lon="10.8118603"><ele>113.0</ele><time>2026-04-26T10:37:09.051Z</time></trkpt><trkpt lat="45.5228725" lon="10.8118222"><ele>112.5</ele><time>2026-04-26T10:37:10.051Z</time></trkpt><trkpt lat="45.5229988" lon="10.8117927"><ele>112.0</ele><time>2026-04-26T10:37:11.051Z</time></trkpt><trkpt lat="45.5231152" lon="10.8117724"><ele>111.5</ele><time>2026-04-26T10:37:12.051Z</time></trkpt><trkpt lat="45.5232264" lon="10.8117413"><ele>111.0</ele><time>2026-04-26T10:37:13.05Z</time></trkpt><trkpt lat="45.523326" lon="10.8117097"><ele>111.0</ele><time>2026-04-26T10:37:14.051Z</time></trkpt><trkpt lat="45.523416" lon="10.8116804"><ele>111.0</ele><time>2026-04-26T10:37:15.05Z</time></trkpt><trkpt lat="45.5234947" lon="10.8116499"><ele>111.0</ele><time>2026-04-26T10:37:16.051Z</time></trkpt><trkpt lat="45.5235579" lon="10.8116199"><ele>111.0</ele><time>2026-04-26T10:37:17.05Z</time></trkpt><trkpt lat="45.5236398" lon="10.8115933"><ele>111.0</ele><time>2026-04-26T10:37:19.05Z</time></trkpt><trkpt lat="45.5236981" lon="10.8114887"><ele>111.0</ele><time>2026-04-26T10:37:37.049Z</time></trkpt><trkpt lat="45.5236806" lon="10.8113396"><ele>111.0</ele><time>2026-04-26T10:37:39.049Z</time></trkpt><trkpt lat="45.5236442" lon="10.8112411"><ele>111.0</ele><time>2026-04-26T10:37:40.05Z</time></trkpt><trkpt lat="45.5235899" lon="10.8111135"><ele>111.0</ele><time>2026-04-26T10:37:41.049Z</time></trkpt><trkpt lat="45.5235289" lon="10.8109543"><ele>111.0</ele><time>2026-04-26T10:37:42.049Z</time></trkpt><trkpt lat="45.5234639" lon="10.8107712"><ele>111.0</ele><time>2026-04-26T10:37:43.049Z</time></trkpt><trkpt lat="45.5233973" lon="10.8105681"><ele>111.0</ele><time>2026-04-26T10:37:44.05Z</time></trkpt><trkpt lat="45.5233298" lon="10.8103615"><ele>111.0</ele><time>2026-04-26T10:37:45.049Z</time></trkpt><trkpt lat="45.5232644" lon="10.8101342"><ele>111.0</ele><time>2026-04-26T10:37:46.049Z</time></trkpt><trkpt lat="45.5231984" lon="10.8099113"><ele>111.0</ele><time>2026-04-26T10:37:47.05Z</time></trkpt><trkpt lat="45.5231332" lon="10.8097024"><ele>111.0</ele><time>2026-04-26T10:37:48.049Z</time></trkpt><trkpt lat="45.5230759" lon="10.809513"><ele>111.0</ele><time>2026-04-26T10:37:49.05Z</time></trkpt><trkpt lat="45.5230064" lon="10.809335"><ele>111.0</ele><time>2026-04-26T10:37:50.049Z</time></trkpt><trkpt lat="45.5229445" lon="10.8091501"><ele>111.0</ele><time>2026-04-26T10:37:51.05Z</time></trkpt><trkpt lat="45.5228882" lon="10.8089644"><ele>111.0</ele><time>2026-04-26T10:37:52.05Z</time></trkpt><trkpt lat="45.5228419" lon="10.8087812"><ele>110.75</ele><time>2026-04-26T10:37:53.05Z</time></trkpt><trkpt lat="45.5227961" lon="10.808599"><ele>110.5</ele><time>2026-04-26T10:37:54.05Z</time></trkpt><trkpt lat="45.5227513" lon="10.8084146"><ele>110.25</ele><time>2026-04-26T10:37:55.05Z</time></trkpt><trkpt lat="45.5226965" lon="10.8082395"><ele>110.0</ele><time>2026-04-26T10:37:56.049Z</time></trkpt><trkpt lat="45.5226407" lon="10.8080708"><ele>110.0</ele><time>2026-04-26T10:37:57.049Z</time></trkpt><trkpt lat="45.5225784" lon="10.8079014"><ele>110.0</ele><time>2026-04-26T10:37:58.049Z</time></trkpt><trkpt lat="45.5225131" lon="10.8077293"><ele>110.0</ele><time>2026-04-26T10:37:59.049Z</time></trkpt><trkpt lat="45.5224536" lon="10.8075537"><ele>110.0</ele><time>2026-04-26T10:38:00.05Z</time></trkpt><trkpt lat="45.5223938" lon="10.8073722"><ele>109.75</ele><time>2026-04-26T10:38:01.05Z</time></trkpt><trkpt lat="45.5223324" lon="10.8071989"><ele>109.5</ele><time>2026-04-26T10:38:02.05Z</time></trkpt><trkpt lat="45.5222672" lon="10.8070351"><ele>109.25</ele><time>2026-04-26T10:38:03.05Z</time></trkpt><trkpt lat="45.5222078" lon="10.8068721"><ele>109.0</ele><time>2026-04-26T10:38:04.05Z</time></trkpt><trkpt lat="45.522153" lon="10.8067289"><ele>107.5</ele><time>2026-04-26T10:38:05.049Z</time></trkpt><trkpt lat="45.5221071" lon="10.8065803"><ele>106.0</ele><time>2026-04-26T10:38:06.05Z</time></trkpt><trkpt lat="45.5220845" lon="10.8064183"><ele>104.5</ele><time>2026-04-26T10:38:07.049Z</time></trkpt><trkpt lat="45.5220766" lon="10.80625"><ele>103.0</ele><time>2026-04-26T10:38:08.05Z</time></trkpt><trkpt lat="45.5220907" lon="10.8060533"><ele>101.0</ele><time>2026-04-26T10:38:09.049Z</time></trkpt><trkpt lat="45.5221146" lon="10.8058641"><ele>99.0</ele><time>2026-04-26T10:38:10.049Z</time></trkpt><trkpt lat="45.5221482" lon="10.805684"><ele>97.0</ele><time>2026-04-26T10:38:11.05Z</time></trkpt><trkpt lat="45.5221875" lon="10.8055057"><ele>95.0</ele><time>2026-04-26T10:38:12.05Z</time></trkpt><trkpt lat="45.5222319" lon="10.8053291"><ele>94.25</ele><time>2026-04-26T10:38:13.05Z</time></trkpt><trkpt lat="45.5222799" lon="10.8051286"><ele>93.5</ele><time>2026-04-26T10:38:14.049Z</time></trkpt><trkpt lat="45.5223322" lon="10.8049434"><ele>92.75</ele><time>2026-04-26T10:38:15.049Z</time></trkpt><trkpt lat="45.5223792" lon="10.8047622"><ele>92.0</ele><time>2026-04-26T10:38:16.049Z</time></trkpt><trkpt lat="45.5224175" lon="10.8045881"><ele>92.0</ele><time>2026-04-26T10:38:17.049Z</time></trkpt><trkpt lat="45.5224573" lon="10.8044201"><ele>92.0</ele><time>2026-04-26T10:38:18.05Z</time></trkpt><trkpt lat="45.5224972" lon="10.8042563"><ele>92.0</ele><time>2026-04-26T10:38:19.05Z</time></trkpt><trkpt lat="45.5225431" lon="10.8040949"><ele>92.0</ele><time>2026-04-26T10:38:20.049Z</time></trkpt><trkpt lat="45.5225843" lon="10.8039433"><ele>92.5</ele><time>2026-04-26T10:38:21.05Z</time></trkpt><trkpt lat="45.5226217" lon="10.8038199"><ele>93.0</ele><time>2026-04-26T10:38:22.05Z</time></trkpt><trkpt lat="45.5226545" lon="10.8037018"><ele>93.5</ele><time>2026-04-26T10:38:23.049Z</time></trkpt><trkpt lat="45.5226871" lon="10.8035955"><ele>94.0</ele><time>2026-04-26T10:38:24.049Z</time></trkpt><trkpt lat="45.5227198" lon="10.8034907"><ele>94.5</ele><time>2026-04-26T10:38:25.049Z</time></trkpt><trkpt lat="45.522754" lon="10.8033916"><ele>95.0</ele><time>2026-04-26T10:38:26.05Z</time></trkpt><trkpt lat="45.5227918" lon="10.8032975"><ele>95.33333333333334</ele><time>2026-04-26T10:38:27.049Z</time></trkpt><trkpt lat="45.5228328" lon="10.8032085"><ele>95.66666666666667</ele><time>2026-04-26T10:38:28.05Z</time></trkpt><trkpt lat="45.5228837" lon="10.8031137"><ele>96.0</ele><time>2026-04-26T10:38:29.05Z</time></trkpt><trkpt lat="45.5229457" lon="10.8030155"><ele>96.33333333333334</ele><time>2026-04-26T10:38:30.05Z</time></trkpt><trkpt lat="45.5230156" lon="10.8029095"><ele>96.66666666666667</ele><time>2026-04-26T10:38:31.049Z</time></trkpt><trkpt lat="45.5230921" lon="10.8028266"><ele>97.0</ele><time>2026-04-26T10:38:32.05Z</time></trkpt><trkpt lat="45.5231784" lon="10.8027702"><ele>97.25</ele><time>2026-04-26T10:38:33.05Z</time></trkpt><trkpt lat="45.5232763" lon="10.8027451"><ele>97.5</ele><time>2026-04-26T10:38:34.05Z</time></trkpt><trkpt lat="45.5233955" lon="10.8027552"><ele>97.75</ele><time>2026-04-26T10:38:35.049Z</time></trkpt><trkpt lat="45.5235191" lon="10.8027612"><ele>98.0</ele><time>2026-04-26T10:38:36.05Z</time></trkpt><trkpt lat="45.5236377" lon="10.802731"><ele>98.0</ele><time>2026-04-26T10:38:37.05Z</time></trkpt><trkpt lat="45.5237548" lon="10.8026838"><ele>98.0</ele><time>2026-04-26T10:38:38.05Z</time></trkpt><trkpt lat="45.5238586" lon="10.8025951"><ele>98.0</ele><time>2026-04-26T10:38:39.05Z</time></trkpt><trkpt lat="45.5239636" lon="10.8024771"><ele>98.0</ele><time>2026-04-26T10:38:40.05Z</time></trkpt><trkpt lat="45.5240711" lon="10.8023293"><ele>98.0</ele><time>2026-04-26T10:38:41.049Z</time></trkpt><trkpt lat="45.5241853" lon="10.8021601"><ele>98.0</ele><time>2026-04-26T10:38:42.049Z</time></trkpt><trkpt lat="45.5243077" lon="10.8020011"><ele>98.0</ele><time>2026-04-26T10:38:43.049Z</time></trkpt><trkpt lat="45.524444" lon="10.8018792"><ele>98.33333333333333</ele><time>2026-04-26T10:38:44.05Z</time></trkpt><trkpt lat="45.5245964" lon="10.8017699"><ele>98.66666666666666</ele><time>2026-04-26T10:38:45.049Z</time></trkpt><trkpt lat="45.5247555" lon="10.8016807"><ele>99.0</ele><time>2026-04-26T10:38:46.049Z</time></trkpt><trkpt lat="45.5249167" lon="10.8016007"><ele>99.0</ele><time>2026-04-26T10:38:47.049Z</time></trkpt><trkpt lat="45.5250656" lon="10.8015226"><ele>99.0</ele><time>2026-04-26T10:38:48.049Z</time></trkpt><trkpt lat="45.5252047" lon="10.8014316"><ele>99.0</ele><time>2026-04-26T10:38:49.05Z</time></trkpt><trkpt lat="45.5253301" lon="10.8013258"><ele>99.25</ele><time>2026-04-26T10:38:50.05Z</time></trkpt><trkpt lat="45.5254482" lon="10.8012252"><ele>99.5</ele><time>2026-04-26T10:38:51.049Z</time></trkpt><trkpt lat="45.5255674" lon="10.8011219"><ele>99.75</ele><time>2026-04-26T10:38:52.05Z</time></trkpt><trkpt lat="45.5256799" lon="10.8010116"><ele>100.0</ele><time>2026-04-26T10:38:53.049Z</time></trkpt><trkpt lat="45.525782" lon="10.8008849"><ele>100.0</ele><time>2026-04-26T10:38:54.05Z</time></trkpt><trkpt lat="45.5258799" lon="10.8007391"><ele>100.0</ele><time>2026-04-26T10:38:55.049Z</time></trkpt><trkpt lat="45.525984" lon="10.8006131"><ele>100.0</ele><time>2026-04-26T10:38:56.05Z</time></trkpt><trkpt lat="45.5260745" lon="10.8004556"><ele>100.0</ele><time>2026-04-26T10:38:57.05Z</time></trkpt><trkpt lat="45.5261693" lon="10.800307"><ele>100.25</ele><time>2026-04-26T10:38:58.05Z</time></trkpt><trkpt lat="45.5262698" lon="10.8002018"><ele>100.5</ele><time>2026-04-26T10:38:59.05Z</time></trkpt><trkpt lat="45.526377" lon="10.8001439"><ele>100.75</ele><time>2026-04-26T10:39:00.05Z</time></trkpt><trkpt lat="45.5265039" lon="10.8001274"><ele>101.0</ele><time>2026-04-26T10:39:01.05Z</time></trkpt><trkpt lat="45.5266464" lon="10.8001372"><ele>101.0</ele><time>2026-04-26T10:39:02.049Z</time></trkpt><trkpt lat="45.5267935" lon="10.8001536"><ele>101.0</ele><time>2026-04-26T10:39:03.049Z</time></trkpt><trkpt lat="45.5269393" lon="10.8001798"><ele>101.0</ele><time>2026-04-26T10:39:04.05Z</time></trkpt><trkpt lat="45.5270737" lon="10.8002296"><ele>101.0</ele><time>2026-04-26T10:39:05.05Z</time></trkpt><trkpt lat="45.527212" lon="10.8003038"><ele>103.0</ele><time>2026-04-26T10:39:06.049Z</time></trkpt><trkpt lat="45.5273459" lon="10.8003904"><ele>105.0</ele><time>2026-04-26T10:39:07.049Z</time></trkpt><trkpt lat="45.5274859" lon="10.8004754"><ele>107.0</ele><time>2026-04-26T10:39:08.049Z</time></trkpt><trkpt lat="45.5276256" lon="10.8005689"><ele>107.0</ele><time>2026-04-26T10:39:09.049Z</time></trkpt><trkpt lat="45.5277773" lon="10.8006331"><ele>107.0</ele><time>2026-04-26T10:39:10.05Z</time></trkpt><trkpt lat="45.5279387" lon="10.8006832"><ele>107.0</ele><time>2026-04-26T10:39:11.05Z</time></trkpt><trkpt lat="45.528105" lon="10.8007348"><ele>109.66666666666666</ele><time>2026-04-26T10:39:12.049Z</time></trkpt><trkpt lat="45.5282748" lon="10.8008035"><ele>112.33333333333334</ele><time>2026-04-26T10:39:13.049Z</time></trkpt><trkpt lat="45.5284538" lon="10.8008685"><ele>115.0</ele><time>2026-04-26T10:39:14.05Z</time></trkpt><trkpt lat="45.5286285" lon="10.8009421"><ele>114.0</ele><time>2026-04-26T10:39:15.05Z</time></trkpt><trkpt lat="45.528802" lon="10.8010071"><ele>113.0</ele><time>2026-04-26T10:39:16.049Z</time></trkpt><trkpt lat="45.5289795" lon="10.8010924"><ele>112.0</ele><time>2026-04-26T10:39:17.049Z</time></trkpt><trkpt lat="45.5291609" lon="10.8011798"><ele>112.0</ele><time>2026-04-26T10:39:18.049Z</time></trkpt><trkpt lat="45.5293465" lon="10.8012644"><ele>112.0</ele><time>2026-04-26T10:39:19.05Z</time></trkpt><trkpt lat="45.5295234" lon="10.8013579"><ele>112.0</ele><time>2026-04-26T10:39:20.049Z</time></trkpt><trkpt lat="45.5296845" lon="10.8014561"><ele>115.0</ele><time>2026-04-26T10:39:21.05Z</time></trkpt><trkpt lat="45.5298497" lon="10.801543"><ele>118.0</ele><time>2026-04-26T10:39:22.049Z</time></trkpt><trkpt lat="45.5300094" lon="10.8016241"><ele>121.0</ele><time>2026-04-26T10:39:23.05Z</time></trkpt><trkpt lat="45.5301595" lon="10.8017016"><ele>121.0</ele><time>2026-04-26T10:39:24.05Z</time></trkpt><trkpt lat="45.530304" lon="10.8017764"><ele>121.0</ele><time>2026-04-26T10:39:25.049Z</time></trkpt><trkpt lat="45.530444" lon="10.801853"><ele>121.0</ele><time>2026-04-26T10:39:26.05Z</time></trkpt><trkpt lat="45.5305805" lon="10.8019341"><ele>119.75</ele><time>2026-04-26T10:39:27.049Z</time></trkpt><trkpt lat="45.5307135" lon="10.8020068"><ele>118.5</ele><time>2026-04-26T10:39:28.05Z</time></trkpt><trkpt lat="45.5308434" lon="10.8020811"><ele>117.25</ele><time>2026-04-26T10:39:29.049Z</time></trkpt><trkpt lat="45.5309679" lon="10.8021519"><ele>116.0</ele><time>2026-04-26T10:39:30.049Z</time></trkpt><trkpt lat="45.5310968" lon="10.8022353"><ele>116.0</ele><time>2026-04-26T10:39:31.049Z</time></trkpt><trkpt lat="45.5312208" lon="10.8022913"><ele>116.0</ele><time>2026-04-26T10:39:32.05Z</time></trkpt><trkpt lat="45.5313402" lon="10.802326"><ele>116.0</ele><time>2026-04-26T10:39:33.049Z</time></trkpt><trkpt lat="45.5314654" lon="10.8023169"><ele>116.0</ele><time>2026-04-26T10:39:34.05Z</time></trkpt><trkpt lat="45.5315831" lon="10.8022716"><ele>118.75</ele><time>2026-04-26T10:39:35.05Z</time></trkpt><trkpt lat="45.5317164" lon="10.8021922"><ele>121.5</ele><time>2026-04-26T10:39:36.049Z</time></trkpt><trkpt lat="45.5318524" lon="10.802108"><ele>124.25</ele><time>2026-04-26T10:39:37.05Z</time></trkpt><trkpt lat="45.5319918" lon="10.802026"><ele>127.0</ele><time>2026-04-26T10:39:38.049Z</time></trkpt><trkpt lat="45.5321442" lon="10.8019584"><ele>129.33333333333334</ele><time>2026-04-26T10:39:39.049Z</time></trkpt><trkpt lat="45.5323069" lon="10.8019146"><ele>131.66666666666666</ele><time>2026-04-26T10:39:40.05Z</time></trkpt><trkpt lat="45.5324707" lon="10.8018862"><ele>134.0</ele><time>2026-04-26T10:39:41.05Z</time></trkpt><trkpt lat="45.532636" lon="10.8018674"><ele>134.0</ele><time>2026-04-26T10:39:42.049Z</time></trkpt><trkpt lat="45.5327937" lon="10.8018553"><ele>134.0</ele><time>2026-04-26T10:39:43.05Z</time></trkpt><trkpt lat="45.5329421" lon="10.8018374"><ele>134.0</ele><time>2026-04-26T10:39:44.05Z</time></trkpt><trkpt lat="45.5330834" lon="10.8018222"><ele>134.0</ele><time>2026-04-26T10:39:45.05Z</time></trkpt><trkpt lat="45.5332192" lon="10.8018049"><ele>135.25</ele><time>2026-04-26T10:39:46.05Z</time></trkpt><trkpt lat="45.5333516" lon="10.801798"><ele>136.5</ele><time>2026-04-26T10:39:47.049Z</time></trkpt><trkpt lat="45.5334913" lon="10.8017953"><ele>137.75</ele><time>2026-04-26T10:39:48.05Z</time></trkpt><trkpt lat="45.5336228" lon="10.8018124"><ele>139.0</ele><time>2026-04-26T10:39:49.05Z</time></trkpt><trkpt lat="45.5337575" lon="10.8018373"><ele>139.0</ele><time>2026-04-26T10:39:50.05Z</time></trkpt><trkpt lat="45.5338996" lon="10.8018637"><ele>139.0</ele><time>2026-04-26T10:39:51.049Z</time></trkpt><trkpt lat="45.5340544" lon="10.8018895"><ele>139.0</ele><time>2026-04-26T10:39:52.049Z</time></trkpt><trkpt lat="45.5342161" lon="10.8019205"><ele>139.0</ele><time>2026-04-26T10:39:53.05Z</time></trkpt><trkpt lat="45.5343857" lon="10.8019508"><ele>139.0</ele><time>2026-04-26T10:39:54.05Z</time></trkpt><trkpt lat="45.5345632" lon="10.8019767"><ele>139.0</ele><time>2026-04-26T10:39:55.05Z</time></trkpt><trkpt lat="45.5347415" lon="10.8019953"><ele>140.0</ele><time>2026-04-26T10:39:56.05Z</time></trkpt><trkpt lat="45.5349207" lon="10.8020202"><ele>141.0</ele><time>2026-04-26T10:39:57.05Z</time></trkpt><trkpt lat="45.5350963" lon="10.8020523"><ele>142.0</ele><time>2026-04-26T10:39:58.05Z</time></trkpt><trkpt lat="45.5352695" lon="10.8020823"><ele>143.33333333333334</ele><time>2026-04-26T10:39:59.049Z</time></trkpt><trkpt lat="45.5354492" lon="10.802105"><ele>144.66666666666666</ele><time>2026-04-26T10:40:00.05Z</time></trkpt><trkpt lat="45.5356334" lon="10.8021209"><ele>146.0</ele><time>2026-04-26T10:40:01.049Z</time></trkpt><trkpt lat="45.5358152" lon="10.802141"><ele>146.0</ele><time>2026-04-26T10:40:02.049Z</time></trkpt><trkpt lat="45.5359973" lon="10.8021611"><ele>146.0</ele><time>2026-04-26T10:40:03.05Z</time></trkpt><trkpt lat="45.5361746" lon="10.8021708"><ele>146.0</ele><time>2026-04-26T10:40:04.05Z</time></trkpt><trkpt lat="45.5363536" lon="10.8021669"><ele>146.33333333333331</ele><time>2026-04-26T10:40:05.049Z</time></trkpt><trkpt lat="45.5365293" lon="10.8021477"><ele>146.66666666666666</ele><time>2026-04-26T10:40:06.05Z</time></trkpt><trkpt lat="45.5367047" lon="10.8021136"><ele>147.0</ele><time>2026-04-26T10:40:07.049Z</time></trkpt><trkpt lat="45.5368822" lon="10.8020846"><ele>147.66666666666666</ele><time>2026-04-26T10:40:08.05Z</time></trkpt><trkpt lat="45.5370607" lon="10.8020586"><ele>148.33333333333331</ele><time>2026-04-26T10:40:09.05Z</time></trkpt><trkpt lat="45.5372391" lon="10.8020383"><ele>149.0</ele><time>2026-04-26T10:40:10.05Z</time></trkpt><trkpt lat="45.5374089" lon="10.802019"><ele>149.0</ele><time>2026-04-26T10:40:11.049Z</time></trkpt><trkpt lat="45.5375764" lon="10.8019959"><ele>149.0</ele><time>2026-04-26T10:40:12.049Z</time></trkpt><trkpt lat="45.5377341" lon="10.8019716"><ele>149.0</ele><time>2026-04-26T10:40:13.049Z</time></trkpt><trkpt lat="45.5378808" lon="10.8019539"><ele>148.75</ele><time>2026-04-26T10:40:14.049Z</time></trkpt><trkpt lat="45.5380203" lon="10.8019325"><ele>148.5</ele><time>2026-04-26T10:40:15.049Z</time></trkpt><trkpt lat="45.5381584" lon="10.8019048"><ele>148.25</ele><time>2026-04-26T10:40:16.049Z</time></trkpt><trkpt lat="45.5383026" lon="10.8018818"><ele>148.0</ele><time>2026-04-26T10:40:17.049Z</time></trkpt><trkpt lat="45.5384471" lon="10.8018563"><ele>148.0</ele><time>2026-04-26T10:40:18.049Z</time></trkpt><trkpt lat="45.5385892" lon="10.8018375"><ele>148.0</ele><time>2026-04-26T10:40:19.049Z</time></trkpt><trkpt lat="45.538725" lon="10.8018259"><ele>148.0</ele><time>2026-04-26T10:40:20.049Z</time></trkpt><trkpt lat="45.5388596" lon="10.8018212"><ele>148.0</ele><time>2026-04-26T10:40:21.049Z</time></trkpt><trkpt lat="45.5389912" lon="10.8018127"><ele>148.75</ele><time>2026-04-26T10:40:22.049Z</time></trkpt><trkpt lat="45.5391248" lon="10.8018131"><ele>149.5</ele><time>2026-04-26T10:40:23.049Z</time></trkpt><trkpt lat="45.5392641" lon="10.8018181"><ele>150.25</ele><time>2026-04-26T10:40:24.049Z</time></trkpt><trkpt lat="45.5394299" lon="10.8018331"><ele>151.0</ele><time>2026-04-26T10:40:25.049Z</time></trkpt><trkpt lat="45.5395976" lon="10.8018496"><ele>151.0</ele><time>2026-04-26T10:40:26.049Z</time></trkpt><trkpt lat="45.5397695" lon="10.801865"><ele>151.0</ele><time>2026-04-26T10:40:27.049Z</time></trkpt><trkpt lat="45.5399354" lon="10.8018822"><ele>151.0</ele><time>2026-04-26T10:40:28.048Z</time></trkpt><trkpt lat="45.5400943" lon="10.8018919"><ele>151.0</ele><time>2026-04-26T10:40:29.049Z</time></trkpt><trkpt lat="45.5402514" lon="10.8019116"><ele>151.0</ele><time>2026-04-26T10:40:30.049Z</time></trkpt><trkpt lat="45.5404166" lon="10.8019315"><ele>151.0</ele><time>2026-04-26T10:40:31.048Z</time></trkpt><trkpt lat="45.540567" lon="10.8019601"><ele>151.75</ele><time>2026-04-26T10:40:32.049Z</time></trkpt><trkpt lat="45.5407126" lon="10.8020014"><ele>152.5</ele><time>2026-04-26T10:40:33.048Z</time></trkpt><trkpt lat="45.5408537" lon="10.8020343"><ele>153.25</ele><time>2026-04-26T10:40:34.049Z</time></trkpt><trkpt lat="45.5409825" lon="10.8020651"><ele>154.0</ele><time>2026-04-26T10:40:35.049Z</time></trkpt><trkpt lat="45.5411121" lon="10.8020853"><ele>154.2</ele><time>2026-04-26T10:40:36.049Z</time></trkpt><trkpt lat="45.5412338" lon="10.8020984"><ele>154.4</ele><time>2026-04-26T10:40:37.049Z</time></trkpt><trkpt lat="45.5413477" lon="10.8021064"><ele>154.6</ele><time>2026-04-26T10:40:38.049Z</time></trkpt><trkpt lat="45.5414527" lon="10.8021094"><ele>154.8</ele><time>2026-04-26T10:40:39.048Z</time></trkpt><trkpt lat="45.5415441" lon="10.8021139"><ele>155.0</ele><time>2026-04-26T10:40:40.048Z</time></trkpt><trkpt lat="45.5416203" lon="10.8021217"><ele>155.0</ele><time>2026-04-26T10:40:41.049Z</time></trkpt><trkpt lat="45.5416849" lon="10.8021278"><ele>155.0</ele><time>2026-04-26T10:40:42.048Z</time></trkpt><trkpt lat="45.5417747" lon="10.8021007"><ele>155.0</ele><time>2026-04-26T10:40:44.049Z</time></trkpt><trkpt lat="45.5417977" lon="10.8019532"><ele>155.0</ele><time>2026-04-26T10:40:46.048Z</time></trkpt><trkpt lat="45.5418005" lon="10.8018602"><ele>155.0</ele><time>2026-04-26T10:40:47.048Z</time></trkpt><trkpt lat="45.5417997" lon="10.8017533"><ele>155.0</ele><time>2026-04-26T10:40:48.049Z</time></trkpt><trkpt lat="45.5418035" lon="10.8016328"><ele>155.6</ele><time>2026-04-26T10:40:49.049Z</time></trkpt><trkpt lat="45.5418107" lon="10.8015029"><ele>156.2</ele><time>2026-04-26T10:40:50.049Z</time></trkpt><trkpt lat="45.5418191" lon="10.801365"><ele>156.8</ele><time>2026-04-26T10:40:51.049Z</time></trkpt><trkpt lat="45.5418269" lon="10.8012224"><ele>157.4</ele><time>2026-04-26T10:40:52.048Z</time></trkpt><trkpt lat="45.5418368" lon="10.8010739"><ele>158.0</ele><time>2026-04-26T10:40:53.049Z</time></trkpt><trkpt lat="45.5418479" lon="10.80093"><ele>159.2</ele><time>2026-04-26T10:40:54.049Z</time></trkpt><trkpt lat="45.5418593" lon="10.8007837"><ele>160.4</ele><time>2026-04-26T10:40:55.049Z</time></trkpt><trkpt lat="45.5418691" lon="10.8006323"><ele>161.6</ele><time>2026-04-26T10:40:56.048Z</time></trkpt><trkpt lat="45.5418828" lon="10.8004705"><ele>162.79999999999998</ele><time>2026-04-26T10:40:57.049Z</time></trkpt><trkpt lat="45.5418946" lon="10.8003053"><ele>164.0</ele><time>2026-04-26T10:40:58.048Z</time></trkpt><trkpt lat="45.5419089" lon="10.8001523"><ele>164.16666666666666</ele><time>2026-04-26T10:40:59.048Z</time></trkpt><trkpt lat="45.5419247" lon="10.8000042"><ele>164.33333333333331</ele><time>2026-04-26T10:41:00.049Z</time></trkpt><trkpt lat="45.5419383" lon="10.7998764"><ele>164.5</ele><time>2026-04-26T10:41:01.049Z</time></trkpt><trkpt lat="45.5419467" lon="10.7997663"><ele>164.66666666666666</ele><time>2026-04-26T10:41:02.049Z</time></trkpt><trkpt lat="45.5419548" lon="10.7996625"><ele>164.83333333333334</ele><time>2026-04-26T10:41:03.049Z</time></trkpt><trkpt lat="45.5419718" lon="10.7995401"><ele>165.0</ele><time>2026-04-26T10:41:04.048Z</time></trkpt><trkpt lat="45.5419905" lon="10.7994101"><ele>165.0</ele><time>2026-04-26T10:41:05.048Z</time></trkpt><trkpt lat="45.5420084" lon="10.7992658"><ele>165.0</ele><time>2026-04-26T10:41:06.049Z</time></trkpt><trkpt lat="45.5420233" lon="10.7991143"><ele>165.0</ele><time>2026-04-26T10:41:07.048Z</time></trkpt><trkpt lat="45.5420294" lon="10.7989586"><ele>165.0</ele><time>2026-04-26T10:41:08.049Z</time></trkpt><trkpt lat="45.5420369" lon="10.7988048"><ele>165.0</ele><time>2026-04-26T10:41:09.048Z</time></trkpt><trkpt lat="45.5420416" lon="10.7986348"><ele>165.75</ele><time>2026-04-26T10:41:10.049Z</time></trkpt><trkpt lat="45.5420515" lon="10.7984678"><ele>166.5</ele><time>2026-04-26T10:41:11.049Z</time></trkpt><trkpt lat="45.5420687" lon="10.798302"><ele>167.25</ele><time>2026-04-26T10:41:12.049Z</time></trkpt><trkpt lat="45.5420856" lon="10.798143"><ele>168.0</ele><time>2026-04-26T10:41:13.048Z</time></trkpt><trkpt lat="45.5421061" lon="10.7979787"><ele>168.0</ele><time>2026-04-26T10:41:14.049Z</time></trkpt><trkpt lat="45.5421236" lon="10.7978139"><ele>168.0</ele><time>2026-04-26T10:41:15.048Z</time></trkpt><trkpt lat="45.5421358" lon="10.7976642"><ele>168.0</ele><time>2026-04-26T10:41:16.049Z</time></trkpt><trkpt lat="45.5421552" lon="10.7975079"><ele>168.0</ele><time>2026-04-26T10:41:17.049Z</time></trkpt><trkpt lat="45.5421747" lon="10.7973355"><ele>168.5</ele><time>2026-04-26T10:41:18.049Z</time></trkpt><trkpt lat="45.5421863" lon="10.797142"><ele>169.0</ele><time>2026-04-26T10:41:19.049Z</time></trkpt><trkpt lat="45.5421954" lon="10.796946"><ele>169.5</ele><time>2026-04-26T10:41:20.049Z</time></trkpt><trkpt lat="45.5422028" lon="10.7967657"><ele>170.0</ele><time>2026-04-26T10:41:21.048Z</time></trkpt><trkpt lat="45.5422138" lon="10.7966051"><ele>170.0</ele><time>2026-04-26T10:41:22.048Z</time></trkpt><trkpt lat="45.5422258" lon="10.7964697"><ele>170.0</ele><time>2026-04-26T10:41:23.049Z</time></trkpt><trkpt lat="45.5422374" lon="10.796361"><ele>170.0</ele><time>2026-04-26T10:41:24.049Z</time></trkpt><trkpt lat="45.5422874" lon="10.7962181"><ele>170.0</ele><time>2026-04-26T10:41:26.048Z</time></trkpt><trkpt lat="45.5424284" lon="10.7961821"><ele>170.0</ele><time>2026-04-26T10:41:28.049Z</time></trkpt><trkpt lat="45.5425646" lon="10.7962347"><ele>170.0</ele><time>2026-04-26T10:41:29.048Z</time></trkpt><trkpt lat="45.5427111" lon="10.7962995"><ele>170.0</ele><time>2026-04-26T10:41:30.048Z</time></trkpt><trkpt lat="45.5428522" lon="10.7963469"><ele>170.0</ele><time>2026-04-26T10:41:31.049Z</time></trkpt><trkpt lat="45.542985" lon="10.7963915"><ele>170.0</ele><time>2026-04-26T10:41:32.048Z</time></trkpt><trkpt lat="45.5431183" lon="10.796427"><ele>170.75</ele><time>2026-04-26T10:41:33.048Z</time></trkpt><trkpt lat="45.5432398" lon="10.7964511"><ele>171.5</ele><time>2026-04-26T10:41:34.048Z</time></trkpt><trkpt lat="45.5433532" lon="10.7964714"><ele>172.25</ele><time>2026-04-26T10:41:35.049Z</time></trkpt><trkpt lat="45.5434666" lon="10.7964829"><ele>173.0</ele><time>2026-04-26T10:41:36.049Z</time></trkpt><trkpt lat="45.5435774" lon="10.7965008"><ele>173.0</ele><time>2026-04-26T10:41:37.049Z</time></trkpt><trkpt lat="45.5436946" lon="10.7965213"><ele>173.0</ele><time>2026-04-26T10:41:38.049Z</time></trkpt><trkpt lat="45.5438098" lon="10.7965325"><ele>173.0</ele><time>2026-04-26T10:41:39.049Z</time></trkpt><trkpt lat="45.5439248" lon="10.7965489"><ele>173.0</ele><time>2026-04-26T10:41:40.049Z</time></trkpt><trkpt lat="45.5440423" lon="10.7965659"><ele>173.5</ele><time>2026-04-26T10:41:41.049Z</time></trkpt><trkpt lat="45.5441617" lon="10.7965889"><ele>174.0</ele><time>2026-04-26T10:41:42.049Z</time></trkpt><trkpt lat="45.5442779" lon="10.7966108"><ele>174.5</ele><time>2026-04-26T10:41:43.049Z</time></trkpt><trkpt lat="45.5444006" lon="10.7966323"><ele>175.0</ele><time>2026-04-26T10:41:44.049Z</time></trkpt><trkpt lat="45.5445192" lon="10.796653"><ele>175.0</ele><time>2026-04-26T10:41:45.049Z</time></trkpt><trkpt lat="45.5446439" lon="10.7966842"><ele>175.0</ele><time>2026-04-26T10:41:46.049Z</time></trkpt><trkpt lat="45.5447618" lon="10.7967194"><ele>175.0</ele><time>2026-04-26T10:41:47.049Z</time></trkpt><trkpt lat="45.5448773" lon="10.7967448"><ele>175.0</ele><time>2026-04-26T10:41:48.049Z</time></trkpt><trkpt lat="45.5449883" lon="10.7967648"><ele>175.0</ele><time>2026-04-26T10:41:49.049Z</time></trkpt><trkpt lat="45.5450908" lon="10.7967782"><ele>175.0</ele><time>2026-04-26T10:41:50.049Z</time></trkpt><trkpt lat="45.5451966" lon="10.7967968"><ele>175.0</ele><time>2026-04-26T10:41:51.048Z</time></trkpt><trkpt lat="45.5452965" lon="10.796815"><ele>175.0</ele><time>2026-04-26T10:41:52.048Z</time></trkpt><trkpt lat="45.5453886" lon="10.7968358"><ele>175.0</ele><time>2026-04-26T10:41:53.049Z</time></trkpt><trkpt lat="45.5454696" lon="10.7968587"><ele>174.83333333333334</ele><time>2026-04-26T10:41:54.048Z</time></trkpt><trkpt lat="45.5455377" lon="10.7968781"><ele>174.66666666666669</ele><time>2026-04-26T10:41:55.049Z</time></trkpt><trkpt lat="45.5456202" lon="10.7968966"><ele>174.5</ele><time>2026-04-26T10:41:57.048Z</time></trkpt><trkpt lat="45.5456838" lon="10.7968721"><ele>174.33333333333334</ele><time>2026-04-26T10:42:01.049Z</time></trkpt><trkpt lat="45.5457359" lon="10.7967528"><ele>174.16666666666666</ele><time>2026-04-26T10:42:03.048Z</time></trkpt><trkpt lat="45.5457598" lon="10.7966353"><ele>174.0</ele><time>2026-04-26T10:42:04.048Z</time></trkpt><trkpt lat="45.5457805" lon="10.79648"><ele>174.75</ele><time>2026-04-26T10:42:05.049Z</time></trkpt><trkpt lat="45.5458041" lon="10.7962975"><ele>175.5</ele><time>2026-04-26T10:42:06.049Z</time></trkpt><trkpt lat="45.5458302" lon="10.7961113"><ele>176.25</ele><time>2026-04-26T10:42:07.048Z</time></trkpt><trkpt lat="45.5458521" lon="10.7959249"><ele>177.0</ele><time>2026-04-26T10:42:08.048Z</time></trkpt><trkpt lat="45.5458741" lon="10.7957415"><ele>177.25</ele><time>2026-04-26T10:42:09.049Z</time></trkpt><trkpt lat="45.5458958" lon="10.7955521"><ele>177.5</ele><time>2026-04-26T10:42:10.049Z</time></trkpt><trkpt lat="45.5459238" lon="10.7953711"><ele>177.75</ele><time>2026-04-26T10:42:11.049Z</time></trkpt><trkpt lat="45.5459589" lon="10.7952039"><ele>178.0</ele><time>2026-04-26T10:42:12.049Z</time></trkpt><trkpt lat="45.5459918" lon="10.7950318"><ele>178.5</ele><time>2026-04-26T10:42:13.049Z</time></trkpt><trkpt lat="45.5460158" lon="10.7948691"><ele>179.0</ele><time>2026-04-26T10:42:14.049Z</time></trkpt><trkpt lat="45.5460439" lon="10.794707"><ele>179.5</ele><time>2026-04-26T10:42:15.049Z</time></trkpt><trkpt lat="45.5460721" lon="10.7945537"><ele>180.0</ele><time>2026-04-26T10:42:16.048Z</time></trkpt><trkpt lat="45.5461023" lon="10.7944029"><ele>180.8</ele><time>2026-04-26T10:42:17.049Z</time></trkpt><trkpt lat="45.5461196" lon="10.7942578"><ele>181.6</ele><time>2026-04-26T10:42:18.048Z</time></trkpt><trkpt lat="45.5461358" lon="10.7941115"><ele>182.39999999999998</ele><time>2026-04-26T10:42:19.048Z</time></trkpt><trkpt lat="45.5461523" lon="10.7939731"><ele>183.2</ele><time>2026-04-26T10:42:20.049Z</time></trkpt><trkpt lat="45.5461654" lon="10.7938403"><ele>184.0</ele><time>2026-04-26T10:42:21.049Z</time></trkpt><trkpt lat="45.5461812" lon="10.7937193"><ele>184.0</ele><time>2026-04-26T10:42:22.048Z</time></trkpt><trkpt lat="45.5461963" lon="10.7936043"><ele>184.0</ele><time>2026-04-26T10:42:23.048Z</time></trkpt><trkpt lat="45.5462073" lon="10.793503"><ele>184.0</ele><time>2026-04-26T10:42:24.048Z</time></trkpt><trkpt lat="45.5462327" lon="10.7933303"><ele>184.0</ele><time>2026-04-26T10:42:26.049Z</time></trkpt><trkpt lat="45.5462683" lon="10.7931728"><ele>184.0</ele><time>2026-04-26T10:42:28.049Z</time></trkpt><trkpt lat="45.5463233" lon="10.7930749"><ele>183.6</ele><time>2026-04-26T10:42:30.049Z</time></trkpt><trkpt lat="45.5464095" lon="10.7930592"><ele>183.2</ele><time>2026-04-26T10:42:32.049Z</time></trkpt><trkpt lat="45.5465445" lon="10.7931024"><ele>182.79999999999998</ele><time>2026-04-26T10:42:34.048Z</time></trkpt><trkpt lat="45.5466263" lon="10.7931518"><ele>182.39999999999998</ele><time>2026-04-26T10:42:35.049Z</time></trkpt><trkpt lat="45.5467132" lon="10.7932021"><ele>182.0</ele><time>2026-04-26T10:42:36.048Z</time></trkpt><trkpt lat="45.5468011" lon="10.7932508"><ele>182.0</ele><time>2026-04-26T10:42:37.049Z</time></trkpt><trkpt lat="45.5468899" lon="10.7932973"><ele>182.0</ele><time>2026-04-26T10:42:38.049Z</time></trkpt><trkpt lat="45.5469827" lon="10.7933391"><ele>182.0</ele><time>2026-04-26T10:42:39.048Z</time></trkpt><trkpt lat="45.5470677" lon="10.7933756"><ele>182.0</ele><time>2026-04-26T10:42:40.049Z</time></trkpt><trkpt lat="45.5471414" lon="10.7934147"><ele>182.0</ele><time>2026-04-26T10:42:41.049Z</time></trkpt><trkpt lat="45.5472126" lon="10.7934507"><ele>182.0</ele><time>2026-04-26T10:42:42.048Z</time></trkpt><trkpt lat="45.5472815" lon="10.7934829"><ele>182.0</ele><time>2026-04-26T10:42:43.048Z</time></trkpt><trkpt lat="45.5473448" lon="10.793506"><ele>182.0</ele><time>2026-04-26T10:42:44.049Z</time></trkpt><trkpt lat="45.5474488" lon="10.793498"><ele>182.0</ele><time>2026-04-26T10:42:46.049Z</time></trkpt><trkpt lat="45.5475087" lon="10.7934027"><ele>182.0</ele><time>2026-04-26T10:42:48.048Z</time></trkpt><trkpt lat="45.5475156" lon="10.7932081"><ele>182.0</ele><time>2026-04-26T10:42:50.049Z</time></trkpt><trkpt lat="45.5475292" lon="10.7930784"><ele>182.0</ele><time>2026-04-26T10:42:51.048Z</time></trkpt><trkpt lat="45.5475495" lon="10.7929309"><ele>182.0</ele><time>2026-04-26T10:42:52.049Z</time></trkpt><trkpt lat="45.5475735" lon="10.7927778"><ele>182.0</ele><time>2026-04-26T10:42:53.048Z</time></trkpt><trkpt lat="45.5475977" lon="10.7926385"><ele>182.0</ele><time>2026-04-26T10:42:54.047Z</time></trkpt><trkpt lat="45.5476115" lon="10.7925167"><ele>182.0</ele><time>2026-04-26T10:42:55.048Z</time></trkpt><trkpt lat="45.5476394" lon="10.7924271"><ele>181.8</ele><time>2026-04-26T10:42:56.047Z</time></trkpt><trkpt lat="45.5477282" lon="10.792337"><ele>181.6</ele><time>2026-04-26T10:42:58.048Z</time></trkpt><trkpt lat="45.547856" lon="10.7923497"><ele>181.4</ele><time>2026-04-26T10:43:00.047Z</time></trkpt><trkpt lat="45.547916" lon="10.792398"><ele>181.20000000000002</ele><time>2026-04-26T10:43:01.047Z</time></trkpt><trkpt lat="45.5479719" lon="10.7924698"><ele>181.0</ele><time>2026-04-26T10:43:02.048Z</time></trkpt><trkpt lat="45.5480346" lon="10.7925621"><ele>181.4</ele><time>2026-04-26T10:43:03.047Z</time></trkpt><trkpt lat="45.5481097" lon="10.7926504"><ele>181.8</ele><time>2026-04-26T10:43:04.047Z</time></trkpt><trkpt lat="45.5481963" lon="10.7927175"><ele>182.20000000000002</ele><time>2026-04-26T10:43:05.048Z</time></trkpt><trkpt lat="45.5482945" lon="10.7927647"><ele>182.60000000000002</ele><time>2026-04-26T10:43:06.047Z</time></trkpt><trkpt lat="45.5483997" lon="10.7927962"><ele>183.0</ele><time>2026-04-26T10:43:07.048Z</time></trkpt><trkpt lat="45.5485051" lon="10.7928137"><ele>183.0</ele><time>2026-04-26T10:43:08.047Z</time></trkpt><trkpt lat="45.5486048" lon="10.7928177"><ele>183.0</ele><time>2026-04-26T10:43:09.048Z</time></trkpt><trkpt lat="45.5487064" lon="10.7928228"><ele>183.0</ele><time>2026-04-26T10:43:10.047Z</time></trkpt><trkpt lat="45.5488068" lon="10.79282"><ele>183.0</ele><time>2026-04-26T10:43:11.048Z</time></trkpt><trkpt lat="45.5488963" lon="10.7928099"><ele>183.0</ele><time>2026-04-26T10:43:12.047Z</time></trkpt><trkpt lat="45.5489876" lon="10.7927937"><ele>183.8</ele><time>2026-04-26T10:43:13.047Z</time></trkpt><trkpt lat="45.5490776" lon="10.7927665"><ele>184.60000000000002</ele><time>2026-04-26T10:43:14.047Z</time></trkpt><trkpt lat="45.5491679" lon="10.7927345"><ele>185.39999999999998</ele><time>2026-04-26T10:43:15.048Z</time></trkpt><trkpt lat="45.5492569" lon="10.7927098"><ele>186.2</ele><time>2026-04-26T10:43:16.047Z</time></trkpt><trkpt lat="45.5493489" lon="10.7926886"><ele>187.0</ele><time>2026-04-26T10:43:17.047Z</time></trkpt><trkpt lat="45.5494367" lon="10.7926794"><ele>187.0</ele><time>2026-04-26T10:43:18.047Z</time></trkpt><trkpt lat="45.5495304" lon="10.7926902"><ele>187.0</ele><time>2026-04-26T10:43:19.048Z</time></trkpt><trkpt lat="45.5496166" lon="10.7927261"><ele>187.0</ele><time>2026-04-26T10:43:20.048Z</time></trkpt><trkpt lat="45.549686" lon="10.792766"><ele>187.0</ele><time>2026-04-26T10:43:21.047Z</time></trkpt><trkpt lat="45.5497488" lon="10.7928133"><ele>187.0</ele><time>2026-04-26T10:43:22.048Z</time></trkpt><trkpt lat="45.5498566" lon="10.7929113"><ele>186.83333333333334</ele><time>2026-04-26T10:43:24.048Z</time></trkpt><trkpt lat="45.5499135" lon="10.7929771"><ele>186.66666666666669</ele><time>2026-04-26T10:43:25.048Z</time></trkpt><trkpt lat="45.5499798" lon="10.7930477"><ele>186.5</ele><time>2026-04-26T10:43:26.048Z</time></trkpt><trkpt lat="45.5500493" lon="10.7931044"><ele>186.33333333333334</ele><time>2026-04-26T10:43:27.048Z</time></trkpt><trkpt lat="45.5501065" lon="10.793163"><ele>186.16666666666666</ele><time>2026-04-26T10:43:28.048Z</time></trkpt><trkpt lat="45.55016" lon="10.7932293"><ele>186.0</ele><time>2026-04-26T10:43:29.047Z</time></trkpt><trkpt lat="45.550218" lon="10.7933143"><ele>186.0</ele><time>2026-04-26T10:43:30.048Z</time></trkpt><trkpt lat="45.5502774" lon="10.7934193"><ele>186.0</ele><time>2026-04-26T10:43:31.047Z</time></trkpt><trkpt lat="45.5503347" lon="10.7935325"><ele>186.0</ele><time>2026-04-26T10:43:32.048Z</time></trkpt><trkpt lat="45.5503928" lon="10.7936502"><ele>186.0</ele><time>2026-04-26T10:43:33.047Z</time></trkpt><trkpt lat="45.5504539" lon="10.7937706"><ele>186.0</ele><time>2026-04-26T10:43:34.048Z</time></trkpt><trkpt lat="45.5505159" lon="10.7938888"><ele>186.0</ele><time>2026-04-26T10:43:35.048Z</time></trkpt><trkpt lat="45.5505794" lon="10.7939973"><ele>186.0</ele><time>2026-04-26T10:43:36.047Z</time></trkpt><trkpt lat="45.5506406" lon="10.7941116"><ele>186.0</ele><time>2026-04-26T10:43:37.048Z</time></trkpt><trkpt lat="45.5506993" lon="10.7942153"><ele>186.0</ele><time>2026-04-26T10:43:38.047Z</time></trkpt><trkpt lat="45.5507499" lon="10.7943164"><ele>186.0</ele><time>2026-04-26T10:43:39.048Z</time></trkpt><trkpt lat="45.5507876" lon="10.7944089"><ele>186.0</ele><time>2026-04-26T10:43:40.048Z</time></trkpt><trkpt lat="45.5508108" lon="10.7944931"><ele>186.0</ele><time>2026-04-26T10:43:41.047Z</time></trkpt><trkpt lat="45.5507999" lon="10.7946679"><ele>186.0</ele><time>2026-04-26T10:43:43.047Z</time></trkpt><trkpt lat="45.5507807" lon="10.7947849"><ele>186.0</ele><time>2026-04-26T10:43:44.047Z</time></trkpt><trkpt lat="45.5507689" lon="10.7949245"><ele>186.0</ele><time>2026-04-26T10:43:45.047Z</time></trkpt><trkpt lat="45.5507635" lon="10.7950742"><ele>186.0</ele><time>2026-04-26T10:43:46.048Z</time></trkpt><trkpt lat="45.5507573" lon="10.7952362"><ele>186.0</ele><time>2026-04-26T10:43:47.048Z</time></trkpt><trkpt lat="45.5507539" lon="10.7954099"><ele>186.0</ele><time>2026-04-26T10:43:48.047Z</time></trkpt><trkpt lat="45.5507467" lon="10.795568"><ele>186.0</ele><time>2026-04-26T10:43:49.048Z</time></trkpt><trkpt lat="45.5507412" lon="10.7957219"><ele>186.0</ele><time>2026-04-26T10:43:50.047Z</time></trkpt><trkpt lat="45.5507424" lon="10.7958667"><ele>186.0</ele><time>2026-04-26T10:43:51.048Z</time></trkpt><trkpt lat="45.5507509" lon="10.7959989"><ele>186.0</ele><time>2026-04-26T10:43:52.047Z</time></trkpt><trkpt lat="45.5507627" lon="10.7961291"><ele>186.0</ele><time>2026-04-26T10:43:53.047Z</time></trkpt><trkpt lat="45.5507757" lon="10.7962599"><ele>186.0</ele><time>2026-04-26T10:43:54.048Z</time></trkpt><trkpt lat="45.5507828" lon="10.7963909"><ele>186.0</ele><time>2026-04-26T10:43:55.048Z</time></trkpt><trkpt lat="45.5507898" lon="10.796515"><ele>186.0</ele><time>2026-04-26T10:43:56.047Z</time></trkpt><trkpt lat="45.550797" lon="10.7966215"><ele>186.0</ele><time>2026-04-26T10:43:57.048Z</time></trkpt><trkpt lat="45.5508051" lon="10.796714"><ele>186.0</ele><time>2026-04-26T10:43:58.047Z</time></trkpt><trkpt lat="45.5508303" lon="10.7968529"><ele>186.0</ele><time>2026-04-26T10:44:00.047Z</time></trkpt><trkpt lat="45.5508489" lon="10.7970469"><ele>186.0</ele><time>2026-04-26T10:44:02.047Z</time></trkpt><trkpt lat="45.5508463" lon="10.7971856"><ele>186.0</ele><time>2026-04-26T10:44:03.047Z</time></trkpt><trkpt lat="45.5508383" lon="10.7973502"><ele>186.0</ele><time>2026-04-26T10:44:04.047Z</time></trkpt><trkpt lat="45.5508329" lon="10.7975264"><ele>186.0</ele><time>2026-04-26T10:44:05.048Z</time></trkpt><trkpt lat="45.550827" lon="10.7976913"><ele>186.0</ele><time>2026-04-26T10:44:06.047Z</time></trkpt><trkpt lat="45.5508231" lon="10.7978491"><ele>186.0</ele><time>2026-04-26T10:44:07.048Z</time></trkpt><trkpt lat="45.5508165" lon="10.7980023"><ele>186.0</ele><time>2026-04-26T10:44:08.048Z</time></trkpt><trkpt lat="45.5508021" lon="10.7981531"><ele>186.0</ele><time>2026-04-26T10:44:09.047Z</time></trkpt><trkpt lat="45.5507896" lon="10.7983135"><ele>186.0</ele><time>2026-04-26T10:44:10.048Z</time></trkpt><trkpt lat="45.5507844" lon="10.7984584"><ele>185.83333333333334</ele><time>2026-04-26T10:44:11.048Z</time></trkpt><trkpt lat="45.550775" lon="10.7985834"><ele>185.66666666666666</ele><time>2026-04-26T10:44:12.048Z</time></trkpt><trkpt lat="45.5507716" lon="10.7987016"><ele>185.5</ele><time>2026-04-26T10:44:13.048Z</time></trkpt><trkpt lat="45.5507701" lon="10.7988101"><ele>185.33333333333331</ele><time>2026-04-26T10:44:14.047Z</time></trkpt><trkpt lat="45.55077" lon="10.7989053"><ele>185.16666666666666</ele><time>2026-04-26T10:44:15.048Z</time></trkpt><trkpt lat="45.5507809" lon="10.7990611"><ele>185.0</ele><time>2026-04-26T10:44:17.048Z</time></trkpt><trkpt lat="45.5508119" lon="10.799167"><ele>185.0</ele><time>2026-04-26T10:44:19.048Z</time></trkpt><trkpt lat="45.5508924" lon="10.7992986"><ele>185.0</ele><time>2026-04-26T10:44:21.048Z</time></trkpt><trkpt lat="45.5509306" lon="10.7993762"><ele>185.0</ele><time>2026-04-26T10:44:22.048Z</time></trkpt><trkpt lat="45.550999" lon="10.7995087"><ele>185.0</ele><time>2026-04-26T10:44:24.048Z</time></trkpt><trkpt lat="45.5511066" lon="10.7996384"><ele>185.0</ele><time>2026-04-26T10:44:26.047Z</time></trkpt><trkpt lat="45.5511798" lon="10.7997164"><ele>185.4</ele><time>2026-04-26T10:44:27.047Z</time></trkpt><trkpt lat="45.5512569" lon="10.7997873"><ele>185.8</ele><time>2026-04-26T10:44:28.047Z</time></trkpt><trkpt lat="45.5513329" lon="10.799851"><ele>186.2</ele><time>2026-04-26T10:44:29.047Z</time></trkpt><trkpt lat="45.5514175" lon="10.7999064"><ele>186.6</ele><time>2026-04-26T10:44:30.048Z</time></trkpt><trkpt lat="45.5515173" lon="10.7999571"><ele>187.0</ele><time>2026-04-26T10:44:31.047Z</time></trkpt><trkpt lat="45.5516307" lon="10.8000191"><ele>187.0</ele><time>2026-04-26T10:44:32.048Z</time></trkpt><trkpt lat="45.5517496" lon="10.8000869"><ele>187.0</ele><time>2026-04-26T10:44:33.048Z</time></trkpt><trkpt lat="45.5518708" lon="10.8001623"><ele>187.0</ele><time>2026-04-26T10:44:34.048Z</time></trkpt><trkpt lat="45.5519915" lon="10.8002269"><ele>187.0</ele><time>2026-04-26T10:44:35.047Z</time></trkpt><trkpt lat="45.5520996" lon="10.8002904"><ele>187.0</ele><time>2026-04-26T10:44:36.047Z</time></trkpt><trkpt lat="45.5521928" lon="10.8003458"><ele>187.0</ele><time>2026-04-26T10:44:37.048Z</time></trkpt><trkpt lat="45.5522835" lon="10.8003877"><ele>187.0</ele><time>2026-04-26T10:44:38.047Z</time></trkpt><trkpt lat="45.5523685" lon="10.8004223"><ele>187.0</ele><time>2026-04-26T10:44:39.047Z</time></trkpt><trkpt lat="45.5524452" lon="10.8004438"><ele>187.0</ele><time>2026-04-26T10:44:40.047Z</time></trkpt><trkpt lat="45.5525209" lon="10.8004551"><ele>187.0</ele><time>2026-04-26T10:44:41.047Z</time></trkpt><trkpt lat="45.5526134" lon="10.8004584"><ele>187.0</ele><time>2026-04-26T10:44:42.048Z</time></trkpt><trkpt lat="45.5527243" lon="10.8004732"><ele>187.0</ele><time>2026-04-26T10:44:43.047Z</time></trkpt><trkpt lat="45.5528434" lon="10.8004912"><ele>187.0</ele><time>2026-04-26T10:44:44.047Z</time></trkpt><trkpt lat="45.5529592" lon="10.8005062"><ele>187.0</ele><time>2026-04-26T10:44:45.048Z</time></trkpt><trkpt lat="45.5530677" lon="10.800531"><ele>187.0</ele><time>2026-04-26T10:44:46.048Z</time></trkpt><trkpt lat="45.5531877" lon="10.8005595"><ele>187.0</ele><time>2026-04-26T10:44:47.047Z</time></trkpt><trkpt lat="45.5533028" lon="10.8005849"><ele>187.0</ele><time>2026-04-26T10:44:48.048Z</time></trkpt><trkpt lat="45.5534121" lon="10.8006119"><ele>187.0</ele><time>2026-04-26T10:44:49.047Z</time></trkpt><trkpt lat="45.553512" lon="10.8006294"><ele>187.0</ele><time>2026-04-26T10:44:50.048Z</time></trkpt><trkpt lat="45.5536016" lon="10.8006425"><ele>187.0</ele><time>2026-04-26T10:44:51.047Z</time></trkpt><trkpt lat="45.5536882" lon="10.8006558"><ele>187.0</ele><time>2026-04-26T10:44:52.047Z</time></trkpt><trkpt lat="45.5537592" lon="10.8006741"><ele>187.0</ele><time>2026-04-26T10:44:53.047Z</time></trkpt><trkpt lat="45.5538544" lon="10.8006452"><ele>187.0</ele><time>2026-04-26T10:44:55.048Z</time></trkpt><trkpt lat="45.5538941" lon="10.8005695"><ele>187.0</ele><time>2026-04-26T10:44:57.048Z</time></trkpt><trkpt lat="45.553892" lon="10.8004409"><ele>187.16666666666669</ele><time>2026-04-26T10:44:59.047Z</time></trkpt><trkpt lat="45.5538836" lon="10.8003096"><ele>187.33333333333334</ele><time>2026-04-26T10:45:01.047Z</time></trkpt><trkpt lat="45.5539189" lon="10.8002049"><ele>187.5</ele><time>2026-04-26T10:45:03.047Z</time></trkpt><trkpt lat="45.5539993" lon="10.8001303"><ele>187.66666666666666</ele><time>2026-04-26T10:45:05.047Z</time></trkpt><trkpt lat="45.5540655" lon="10.8001095"><ele>187.83333333333331</ele><time>2026-04-26T10:45:06.048Z</time></trkpt><trkpt lat="45.5541486" lon="10.8000876"><ele>188.0</ele><time>2026-04-26T10:45:07.048Z</time></trkpt><trkpt lat="45.5542465" lon="10.8000706"><ele>188.4</ele><time>2026-04-26T10:45:08.047Z</time></trkpt><trkpt lat="45.5543506" lon="10.8000504"><ele>188.8</ele><time>2026-04-26T10:45:09.048Z</time></trkpt><trkpt lat="45.5544566" lon="10.8000315"><ele>189.2</ele><time>2026-04-26T10:45:10.048Z</time></trkpt><trkpt lat="45.5545499" lon="10.8000156"><ele>189.6</ele><time>2026-04-26T10:45:11.047Z</time></trkpt><trkpt lat="45.5546336" lon="10.7999949"><ele>190.0</ele><time>2026-04-26T10:45:12.048Z</time></trkpt><trkpt lat="45.5547058" lon="10.7999909"><ele>190.16666666666669</ele><time>2026-04-26T10:45:13.047Z</time></trkpt><trkpt lat="45.5547741" lon="10.8000001"><ele>190.33333333333334</ele><time>2026-04-26T10:45:14.047Z</time></trkpt><trkpt lat="45.5548472" lon="10.8000236"><ele>190.5</ele><time>2026-04-26T10:45:15.048Z</time></trkpt><trkpt lat="45.5549268" lon="10.8000494"><ele>190.66666666666666</ele><time>2026-04-26T10:45:16.048Z</time></trkpt><trkpt lat="45.5550016" lon="10.800082"><ele>190.83333333333331</ele><time>2026-04-26T10:45:17.047Z</time></trkpt><trkpt lat="45.5550714" lon="10.8001071"><ele>191.0</ele><time>2026-04-26T10:45:18.048Z</time></trkpt><trkpt lat="45.5551867" lon="10.800118"><ele>191.0</ele><time>2026-04-26T10:45:20.048Z</time></trkpt><trkpt lat="45.5552619" lon="10.8000607"><ele>191.0</ele><time>2026-04-26T10:45:22.048Z</time></trkpt><trkpt lat="45.5552878" lon="10.7999029"><ele>191.0</ele><time>2026-04-26T10:45:24.048Z</time></trkpt><trkpt lat="45.5553" lon="10.799769"><ele>191.0</ele><time>2026-04-26T10:45:26.048Z</time></trkpt><trkpt lat="45.5553067" lon="10.7996508"><ele>191.0</ele><time>2026-04-26T10:45:29.046Z</time></trkpt><trkpt lat="45.5552626" lon="10.7997177"><ele>191.0</ele><time>2026-04-26T10:45:56.047Z</time></trkpt><trkpt lat="45.5552492" lon="10.7998959"><ele>191.0</ele><time>2026-04-26T10:45:58.047Z</time></trkpt><trkpt lat="45.5552342" lon="10.7999862"><ele>191.0</ele><time>2026-04-26T10:45:59.047Z</time></trkpt><trkpt lat="45.555186" lon="10.8001019"><ele>191.0</ele><time>2026-04-26T10:46:01.046Z</time></trkpt><trkpt lat="45.5551147" lon="10.800107"><ele>191.0</ele><time>2026-04-26T10:46:03.047Z</time></trkpt><trkpt lat="45.5549718" lon="10.8000545"><ele>191.0</ele><time>2026-04-26T10:46:05.047Z</time></trkpt><trkpt lat="45.5548865" lon="10.8000166"><ele>191.0</ele><time>2026-04-26T10:46:06.047Z</time></trkpt><trkpt lat="45.5548105" lon="10.7999758"><ele>191.0</ele><time>2026-04-26T10:46:07.046Z</time></trkpt><trkpt lat="45.5547461" lon="10.7999407"><ele>191.0</ele><time>2026-04-26T10:46:08.047Z</time></trkpt><trkpt lat="45.5546352" lon="10.7999447"><ele>191.0</ele><time>2026-04-26T10:46:10.046Z</time></trkpt><trkpt lat="45.5545058" lon="10.7999894"><ele>191.0</ele><time>2026-04-26T10:46:12.046Z</time></trkpt><trkpt lat="45.5544306" lon="10.8000134"><ele>190.83333333333331</ele><time>2026-04-26T10:46:13.046Z</time></trkpt><trkpt lat="45.5543507" lon="10.8000439"><ele>190.66666666666666</ele><time>2026-04-26T10:46:14.046Z</time></trkpt><trkpt lat="45.5542682" lon="10.800073"><ele>190.5</ele><time>2026-04-26T10:46:15.046Z</time></trkpt><trkpt lat="45.5541759" lon="10.8001037"><ele>190.33333333333334</ele><time>2026-04-26T10:46:16.047Z</time></trkpt><trkpt lat="45.5540904" lon="10.8001261"><ele>190.16666666666669</ele><time>2026-04-26T10:46:17.047Z</time></trkpt><trkpt lat="45.5540113" lon="10.8001546"><ele>190.0</ele><time>2026-04-26T10:46:18.047Z</time></trkpt><trkpt lat="45.5539428" lon="10.8001756"><ele>189.6</ele><time>2026-04-26T10:46:19.047Z</time></trkpt><trkpt lat="45.5538501" lon="10.8002379"><ele>189.2</ele><time>2026-04-26T10:46:21.046Z</time></trkpt><trkpt lat="45.5538094" lon="10.8003392"><ele>188.8</ele><time>2026-04-26T10:46:23.047Z</time></trkpt><trkpt lat="45.5538153" lon="10.8004997"><ele>188.4</ele><time>2026-04-26T10:46:25.046Z</time></trkpt><trkpt lat="45.5538238" lon="10.8006269"><ele>188.0</ele><time>2026-04-26T10:46:27.046Z</time></trkpt><trkpt lat="45.5537913" lon="10.8007065"><ele>188.0</ele><time>2026-04-26T10:46:50.047Z</time></trkpt><trkpt lat="45.5538539" lon="10.8007733"><ele>188.0</ele><time>2026-04-26T10:46:53.047Z</time></trkpt><trkpt lat="45.553919" lon="10.8008354"><ele>188.0</ele><time>2026-04-26T10:46:57.046Z</time></trkpt><trkpt lat="45.5539869" lon="10.8008633"><ele>188.0</ele><time>2026-04-26T10:46:59.046Z</time></trkpt><trkpt lat="45.5540533" lon="10.8009151"><ele>188.0</ele><time>2026-04-26T10:47:01.047Z</time></trkpt><trkpt lat="45.554121" lon="10.8009488"><ele>188.0</ele><time>2026-04-26T10:47:03.047Z</time></trkpt><trkpt lat="45.554195" lon="10.8009808"><ele>188.0</ele><time>2026-04-26T10:47:06.047Z</time></trkpt><trkpt lat="45.5542638" lon="10.8009923"><ele>188.0</ele><time>2026-04-26T10:47:10.047Z</time></trkpt><trkpt lat="45.5543527" lon="10.8010073"><ele>188.0</ele><time>2026-04-26T10:47:15.046Z</time></trkpt><trkpt lat="45.5544236" lon="10.8010083"><ele>188.0</ele><time>2026-04-26T10:47:17.047Z</time></trkpt><trkpt lat="45.554512" lon="10.801003"><ele>188.0</ele><time>2026-04-26T10:47:19.047Z</time></trkpt><trkpt lat="45.5545829" lon="10.8010222"><ele>188.0</ele><time>2026-04-26T10:47:21.047Z</time></trkpt><trkpt lat="45.5546238" lon="10.8011312"><ele>186.66666666666666</ele><time>2026-04-26T10:47:24.047Z</time></trkpt><trkpt lat="45.5546299" lon="10.8012379"><ele>185.33333333333331</ele><time>2026-04-26T10:47:30.046Z</time></trkpt><trkpt lat="45.5546397" lon="10.8013579"><ele>184.0</ele><time>2026-04-26T10:47:32.046Z</time></trkpt><trkpt lat="45.5546257" lon="10.8014739"><ele>182.66666666666666</ele><time>2026-04-26T10:47:34.047Z</time></trkpt><trkpt lat="45.5545765" lon="10.8015913"><ele>181.33333333333334</ele><time>2026-04-26T10:47:36.046Z</time></trkpt><trkpt lat="45.5545228" lon="10.8017155"><ele>180.0</ele><time>2026-04-26T10:47:38.047Z</time></trkpt><trkpt lat="45.5544451" lon="10.8018187"><ele>178.8</ele><time>2026-04-26T10:47:40.047Z</time></trkpt><trkpt lat="45.5543773" lon="10.8019366"><ele>177.6</ele><time>2026-04-26T10:47:42.046Z</time></trkpt><trkpt lat="45.5543311" lon="10.8021129"><ele>176.39999999999998</ele><time>2026-04-26T10:47:44.046Z</time></trkpt><trkpt lat="45.5543009" lon="10.8022186"><ele>175.2</ele><time>2026-04-26T10:47:45.046Z</time></trkpt><trkpt lat="45.5542615" lon="10.8023413"><ele>174.0</ele><time>2026-04-26T10:47:46.046Z</time></trkpt><trkpt lat="45.5542255" lon="10.8024669"><ele>174.0</ele><time>2026-04-26T10:47:47.047Z</time></trkpt><trkpt lat="45.5541847" lon="10.8026043"><ele>174.0</ele><time>2026-04-26T10:47:48.046Z</time></trkpt><trkpt lat="45.5541454" lon="10.802726"><ele>174.0</ele><time>2026-04-26T10:47:49.046Z</time></trkpt><trkpt lat="45.5541072" lon="10.8028384"><ele>174.0</ele><time>2026-04-26T10:47:50.046Z</time></trkpt><trkpt lat="45.5540733" lon="10.8029411"><ele>174.0</ele><time>2026-04-26T10:47:51.047Z</time></trkpt><trkpt lat="45.5540434" lon="10.803036"><ele>174.0</ele><time>2026-04-26T10:47:52.047Z</time></trkpt><trkpt lat="45.554017" lon="10.8031214"><ele>174.2</ele><time>2026-04-26T10:47:53.047Z</time></trkpt><trkpt lat="45.5540043" lon="10.803285"><ele>174.39999999999998</ele><time>2026-04-26T10:47:55.046Z</time></trkpt><trkpt lat="45.5540465" lon="10.8034023"><ele>174.6</ele><time>2026-04-26T10:47:57.047Z</time></trkpt><trkpt lat="45.5540963" lon="10.803476"><ele>174.8</ele><time>2026-04-26T10:47:59.046Z</time></trkpt><trkpt lat="45.5541527" lon="10.8035377"><ele>175.0</ele><time>2026-04-26T10:48:14.046Z</time></trkpt><trkpt lat="45.5542879" lon="10.8035662"><ele>175.0</ele><time>2026-04-26T10:48:16.046Z</time></trkpt><trkpt lat="45.5544138" lon="10.8035825"><ele>175.0</ele><time>2026-04-26T10:48:17.046Z</time></trkpt><trkpt lat="45.5545547" lon="10.8036018"><ele>175.0</ele><time>2026-04-26T10:48:18.045Z</time></trkpt><trkpt lat="45.5547006" lon="10.8036215"><ele>175.0</ele><time>2026-04-26T10:48:19.045Z</time></trkpt><trkpt lat="45.5548467" lon="10.8036308"><ele>175.75</ele><time>2026-04-26T10:48:20.045Z</time></trkpt><trkpt lat="45.5549891" lon="10.8036086"><ele>176.5</ele><time>2026-04-26T10:48:21.045Z</time></trkpt><trkpt lat="45.5551311" lon="10.8035698"><ele>177.25</ele><time>2026-04-26T10:48:22.046Z</time></trkpt><trkpt lat="45.5552722" lon="10.8035183"><ele>178.0</ele><time>2026-04-26T10:48:23.045Z</time></trkpt><trkpt lat="45.5554123" lon="10.8034461"><ele>178.0</ele><time>2026-04-26T10:48:24.046Z</time></trkpt><trkpt lat="45.5555494" lon="10.8033506"><ele>178.0</ele><time>2026-04-26T10:48:25.046Z</time></trkpt><trkpt lat="45.5556829" lon="10.8032409"><ele>178.0</ele><time>2026-04-26T10:48:26.045Z</time></trkpt><trkpt lat="45.5558159" lon="10.8031308"><ele>178.0</ele><time>2026-04-26T10:48:27.045Z</time></trkpt><trkpt lat="45.5559465" lon="10.8030048"><ele>178.0</ele><time>2026-04-26T10:48:28.046Z</time></trkpt><trkpt lat="45.5560739" lon="10.8028891"><ele>178.0</ele><time>2026-04-26T10:48:29.046Z</time></trkpt><trkpt lat="45.5562018" lon="10.8027724"><ele>178.66666666666669</ele><time>2026-04-26T10:48:30.045Z</time></trkpt><trkpt lat="45.5563324" lon="10.8026467"><ele>179.33333333333334</ele><time>2026-04-26T10:48:31.046Z</time></trkpt><trkpt lat="45.5564668" lon="10.8025215"><ele>180.0</ele><time>2026-04-26T10:48:32.046Z</time></trkpt><trkpt lat="45.5566038" lon="10.8023968"><ele>180.0</ele><time>2026-04-26T10:48:33.046Z</time></trkpt><trkpt lat="45.5567423" lon="10.8022761"><ele>180.0</ele><time>2026-04-26T10:48:34.045Z</time></trkpt><trkpt lat="45.5568836" lon="10.8021439"><ele>180.0</ele><time>2026-04-26T10:48:35.046Z</time></trkpt><trkpt lat="45.5570231" lon="10.8020179"><ele>181.0</ele><time>2026-04-26T10:48:36.045Z</time></trkpt><trkpt lat="45.5571567" lon="10.8018937"><ele>182.0</ele><time>2026-04-26T10:48:37.045Z</time></trkpt><trkpt lat="45.557283" lon="10.8017672"><ele>183.0</ele><time>2026-04-26T10:48:38.046Z</time></trkpt><trkpt lat="45.5574081" lon="10.8016484"><ele>183.0</ele><time>2026-04-26T10:48:39.045Z</time></trkpt><trkpt lat="45.5575332" lon="10.8015413"><ele>183.0</ele><time>2026-04-26T10:48:40.046Z</time></trkpt><trkpt lat="45.5576527" lon="10.8014534"><ele>183.0</ele><time>2026-04-26T10:48:41.045Z</time></trkpt><trkpt lat="45.5577698" lon="10.8013711"><ele>183.0</ele><time>2026-04-26T10:48:42.046Z</time></trkpt><trkpt lat="45.5578865" lon="10.801278"><ele>183.5</ele><time>2026-04-26T10:48:43.045Z</time></trkpt><trkpt lat="45.5580033" lon="10.8011878"><ele>184.0</ele><time>2026-04-26T10:48:44.045Z</time></trkpt><trkpt lat="45.5581271" lon="10.8010905"><ele>184.5</ele><time>2026-04-26T10:48:45.046Z</time></trkpt><trkpt lat="45.5582505" lon="10.8009808"><ele>185.0</ele><time>2026-04-26T10:48:46.046Z</time></trkpt><trkpt lat="45.5583709" lon="10.80086"><ele>185.0</ele><time>2026-04-26T10:48:47.045Z</time></trkpt><trkpt lat="45.5584856" lon="10.8007423"><ele>185.0</ele><time>2026-04-26T10:48:48.045Z</time></trkpt><trkpt lat="45.5586024" lon="10.8006168"><ele>185.0</ele><time>2026-04-26T10:48:49.046Z</time></trkpt><trkpt lat="45.5587178" lon="10.8004864"><ele>185.0</ele><time>2026-04-26T10:48:50.046Z</time></trkpt><trkpt lat="45.5588329" lon="10.8003519"><ele>185.0</ele><time>2026-04-26T10:48:51.046Z</time></trkpt><trkpt lat="45.5589464" lon="10.8002164"><ele>185.0</ele><time>2026-04-26T10:48:52.045Z</time></trkpt><trkpt lat="45.5590725" lon="10.8001155"><ele>185.0</ele><time>2026-04-26T10:48:53.046Z</time></trkpt><trkpt lat="45.5591992" lon="10.8000222"><ele>185.0</ele><time>2026-04-26T10:48:54.046Z</time></trkpt><trkpt lat="45.5593363" lon="10.7999538"><ele>185.0</ele><time>2026-04-26T10:48:55.045Z</time></trkpt><trkpt lat="45.5594775" lon="10.7999115"><ele>185.0</ele><time>2026-04-26T10:48:56.046Z</time></trkpt><trkpt lat="45.5596242" lon="10.7998861"><ele>185.0</ele><time>2026-04-26T10:48:57.045Z</time></trkpt><trkpt lat="45.5597805" lon="10.7998679"><ele>185.0</ele><time>2026-04-26T10:48:58.045Z</time></trkpt><trkpt lat="45.559949" lon="10.7998696"><ele>185.0</ele><time>2026-04-26T10:48:59.045Z</time></trkpt><trkpt lat="45.5601146" lon="10.7998891"><ele>185.0</ele><time>2026-04-26T10:49:00.046Z</time></trkpt><trkpt lat="45.5602871" lon="10.7999122"><ele>185.0</ele><time>2026-04-26T10:49:01.046Z</time></trkpt><trkpt lat="45.5604679" lon="10.7999317"><ele>185.0</ele><time>2026-04-26T10:49:02.046Z</time></trkpt><trkpt lat="45.5606455" lon="10.799962"><ele>185.0</ele><time>2026-04-26T10:49:03.046Z</time></trkpt><trkpt lat="45.560823" lon="10.7999956"><ele>185.0</ele><time>2026-04-26T10:49:04.046Z</time></trkpt><trkpt lat="45.5609922" lon="10.8000219"><ele>185.0</ele><time>2026-04-26T10:49:05.046Z</time></trkpt><trkpt lat="45.5611637" lon="10.8000463"><ele>185.0</ele><time>2026-04-26T10:49:06.045Z</time></trkpt><trkpt lat="45.5613366" lon="10.8000658"><ele>185.0</ele><time>2026-04-26T10:49:07.046Z</time></trkpt><trkpt lat="45.5615119" lon="10.8000915"><ele>185.33333333333331</ele><time>2026-04-26T10:49:08.046Z</time></trkpt><trkpt lat="45.5616915" lon="10.8001113"><ele>185.66666666666666</ele><time>2026-04-26T10:49:09.046Z</time></trkpt><trkpt lat="45.5618713" lon="10.8001398"><ele>186.0</ele><time>2026-04-26T10:49:10.046Z</time></trkpt><trkpt lat="45.5620515" lon="10.8001699"><ele>186.66666666666666</ele><time>2026-04-26T10:49:11.045Z</time></trkpt><trkpt lat="45.5622356" lon="10.8002021"><ele>187.33333333333331</ele><time>2026-04-26T10:49:12.046Z</time></trkpt><trkpt lat="45.562416" lon="10.800243"><ele>188.0</ele><time>2026-04-26T10:49:13.046Z</time></trkpt><trkpt lat="45.5625978" lon="10.8002886"><ele>188.0</ele><time>2026-04-26T10:49:14.046Z</time></trkpt><trkpt lat="45.5627798" lon="10.8003495"><ele>188.0</ele><time>2026-04-26T10:49:15.045Z</time></trkpt><trkpt lat="45.5629628" lon="10.8004184"><ele>188.0</ele><time>2026-04-26T10:49:16.045Z</time></trkpt><trkpt lat="45.5631446" lon="10.8004936"><ele>189.0</ele><time>2026-04-26T10:49:17.045Z</time></trkpt><trkpt lat="45.563322" lon="10.8005876"><ele>190.0</ele><time>2026-04-26T10:49:18.045Z</time></trkpt><trkpt lat="45.5634961" lon="10.800693"><ele>191.0</ele><time>2026-04-26T10:49:19.046Z</time></trkpt><trkpt lat="45.563667" lon="10.8008127"><ele>191.0</ele><time>2026-04-26T10:49:20.045Z</time></trkpt><trkpt lat="45.5638327" lon="10.8009524"><ele>191.0</ele><time>2026-04-26T10:49:21.045Z</time></trkpt><trkpt lat="45.5640022" lon="10.8010933"><ele>191.0</ele><time>2026-04-26T10:49:22.045Z</time></trkpt><trkpt lat="45.5641694" lon="10.8012322"><ele>191.0</ele><time>2026-04-26T10:49:23.045Z</time></trkpt><trkpt lat="45.5643327" lon="10.8013735"><ele>191.0</ele><time>2026-04-26T10:49:24.046Z</time></trkpt><trkpt lat="45.5645061" lon="10.8015075"><ele>191.0</ele><time>2026-04-26T10:49:25.046Z</time></trkpt><trkpt lat="45.5646801" lon="10.8016228"><ele>191.0</ele><time>2026-04-26T10:49:26.046Z</time></trkpt><trkpt lat="45.5648584" lon="10.8017193"><ele>191.0</ele><time>2026-04-26T10:49:27.046Z</time></trkpt><trkpt lat="45.5650366" lon="10.8017954"><ele>191.0</ele><time>2026-04-26T10:49:28.045Z</time></trkpt><trkpt lat="45.565222" lon="10.8018632"><ele>191.0</ele><time>2026-04-26T10:49:29.046Z</time></trkpt><trkpt lat="45.5654134" lon="10.8019186"><ele>191.0</ele><time>2026-04-26T10:49:30.046Z</time></trkpt><trkpt lat="45.5656092" lon="10.801968"><ele>191.0</ele><time>2026-04-26T10:49:31.045Z</time></trkpt><trkpt lat="45.5658145" lon="10.8020127"><ele>191.0</ele><time>2026-04-26T10:49:32.046Z</time></trkpt><trkpt lat="45.5660316" lon="10.8020544"><ele>191.0</ele><time>2026-04-26T10:49:33.046Z</time></trkpt><trkpt lat="45.5662445" lon="10.8021112"><ele>191.0</ele><time>2026-04-26T10:49:34.046Z</time></trkpt><trkpt lat="45.5664477" lon="10.8021641"><ele>190.66666666666666</ele><time>2026-04-26T10:49:35.046Z</time></trkpt><trkpt lat="45.566651" lon="10.8022096"><ele>190.33333333333334</ele><time>2026-04-26T10:49:36.046Z</time></trkpt><trkpt lat="45.5668595" lon="10.8022512"><ele>190.0</ele><time>2026-04-26T10:49:37.046Z</time></trkpt><trkpt lat="45.5670659" lon="10.8022721"><ele>190.66666666666669</ele><time>2026-04-26T10:49:38.045Z</time></trkpt><trkpt lat="45.5672766" lon="10.8022715"><ele>191.33333333333334</ele><time>2026-04-26T10:49:39.046Z</time></trkpt><trkpt lat="45.5674896" lon="10.8022648"><ele>192.0</ele><time>2026-04-26T10:49:40.045Z</time></trkpt><trkpt lat="45.5677066" lon="10.8022549"><ele>191.66666666666666</ele><time>2026-04-26T10:49:41.045Z</time></trkpt><trkpt lat="45.567915" lon="10.8022368"><ele>191.33333333333331</ele><time>2026-04-26T10:49:42.045Z</time></trkpt><trkpt lat="45.5681065" lon="10.8022086"><ele>191.0</ele><time>2026-04-26T10:49:43.046Z</time></trkpt><trkpt lat="45.5682792" lon="10.8021796"><ele>191.0</ele><time>2026-04-26T10:49:44.046Z</time></trkpt><trkpt lat="45.5684355" lon="10.8021503"><ele>191.0</ele><time>2026-04-26T10:49:45.046Z</time></trkpt><trkpt lat="45.5685799" lon="10.802147"><ele>191.0</ele><time>2026-04-26T10:49:46.045Z</time></trkpt><trkpt lat="45.5687052" lon="10.8021414"><ele>191.0</ele><time>2026-04-26T10:49:47.046Z</time></trkpt><trkpt lat="45.5688148" lon="10.8021378"><ele>191.60000000000002</ele><time>2026-04-26T10:49:48.046Z</time></trkpt><trkpt lat="45.5689024" lon="10.8021309"><ele>192.2</ele><time>2026-04-26T10:49:49.045Z</time></trkpt><trkpt lat="45.5689748" lon="10.8021271"><ele>192.8</ele><time>2026-04-26T10:49:50.045Z</time></trkpt><trkpt lat="45.5690713" lon="10.8021175"><ele>193.39999999999998</ele><time>2026-04-26T10:49:52.046Z</time></trkpt><trkpt lat="45.5691696" lon="10.8021318"><ele>194.0</ele><time>2026-04-26T10:49:55.046Z</time></trkpt><trkpt lat="45.5692712" lon="10.8021151"><ele>194.0</ele><time>2026-04-26T10:49:57.046Z</time></trkpt><trkpt lat="45.5693218" lon="10.8020523"><ele>194.0</ele><time>2026-04-26T10:49:58.045Z</time></trkpt><trkpt lat="45.5693635" lon="10.8019433"><ele>194.0</ele><time>2026-04-26T10:49:59.046Z</time></trkpt><trkpt lat="45.569404" lon="10.8018034"><ele>194.0</ele><time>2026-04-26T10:50:00.045Z</time></trkpt><trkpt lat="45.5694443" lon="10.8016482"><ele>194.0</ele><time>2026-04-26T10:50:01.046Z</time></trkpt><trkpt lat="45.5694778" lon="10.8015018"><ele>193.66666666666669</ele><time>2026-04-26T10:50:02.046Z</time></trkpt><trkpt lat="45.5695081" lon="10.8013628"><ele>193.33333333333334</ele><time>2026-04-26T10:50:03.046Z</time></trkpt><trkpt lat="45.5695439" lon="10.8012452"><ele>193.0</ele><time>2026-04-26T10:50:04.046Z</time></trkpt><trkpt lat="45.5695776" lon="10.8011363"><ele>192.66666666666669</ele><time>2026-04-26T10:50:05.046Z</time></trkpt><trkpt lat="45.5696122" lon="10.8010311"><ele>192.33333333333334</ele><time>2026-04-26T10:50:06.045Z</time></trkpt><trkpt lat="45.5696471" lon="10.8009223"><ele>192.0</ele><time>2026-04-26T10:50:07.046Z</time></trkpt><trkpt lat="45.5696783" lon="10.8008099"><ele>192.0</ele><time>2026-04-26T10:50:08.045Z</time></trkpt><trkpt lat="45.5697033" lon="10.8006933"><ele>192.0</ele><time>2026-04-26T10:50:09.045Z</time></trkpt><trkpt lat="45.5697327" lon="10.8005684"><ele>192.0</ele><time>2026-04-26T10:50:10.046Z</time></trkpt><trkpt lat="45.5697652" lon="10.800442"><ele>192.0</ele><time>2026-04-26T10:50:11.045Z</time></trkpt><trkpt lat="45.5697928" lon="10.8003195"><ele>192.0</ele><time>2026-04-26T10:50:12.045Z</time></trkpt><trkpt lat="45.5698275" lon="10.8002017"><ele>192.33333333333334</ele><time>2026-04-26T10:50:13.046Z</time></trkpt><trkpt lat="45.5698657" lon="10.8001042"><ele>192.66666666666669</ele><time>2026-04-26T10:50:14.046Z</time></trkpt><trkpt lat="45.5699082" lon="10.8000346"><ele>193.0</ele><time>2026-04-26T10:50:15.046Z</time></trkpt><trkpt lat="45.5699922" lon="10.7999883"><ele>193.33333333333334</ele><time>2026-04-26T10:50:17.046Z</time></trkpt><trkpt lat="45.5700899" lon="10.7999692"><ele>193.66666666666669</ele><time>2026-04-26T10:50:19.046Z</time></trkpt><trkpt lat="45.5702056" lon="10.7999501"><ele>194.0</ele><time>2026-04-26T10:50:21.045Z</time></trkpt><trkpt lat="45.5702713" lon="10.7999392"><ele>194.00000000000003</ele><time>2026-04-26T10:50:22.046Z</time></trkpt><trkpt lat="45.5703476" lon="10.7999241"><ele>194.0</ele><time>2026-04-26T10:50:23.046Z</time></trkpt><trkpt lat="45.5704351" lon="10.7999136"><ele>194.0</ele><time>2026-04-26T10:50:24.046Z</time></trkpt><trkpt lat="45.5705193" lon="10.7998923"><ele>194.0</ele><time>2026-04-26T10:50:25.045Z</time></trkpt><trkpt lat="45.5706021" lon="10.7998564"><ele>194.00000000000003</ele><time>2026-04-26T10:50:26.046Z</time></trkpt><trkpt lat="45.5706865" lon="10.7997978"><ele>194.0</ele><time>2026-04-26T10:50:27.045Z</time></trkpt><trkpt lat="45.5707623" lon="10.7997416"><ele>194.50000000000003</ele><time>2026-04-26T10:50:28.046Z</time></trkpt><trkpt lat="45.5708346" lon="10.7996874"><ele>195.0</ele><time>2026-04-26T10:50:29.046Z</time></trkpt><trkpt lat="45.5709075" lon="10.7996366"><ele>195.5</ele><time>2026-04-26T10:50:30.046Z</time></trkpt><trkpt lat="45.5709808" lon="10.7995834"><ele>196.0</ele><time>2026-04-26T10:50:31.045Z</time></trkpt><trkpt lat="45.5710503" lon="10.7995397"><ele>196.50000000000003</ele><time>2026-04-26T10:50:32.045Z</time></trkpt><trkpt lat="45.5711189" lon="10.7994893"><ele>197.0</ele><time>2026-04-26T10:50:33.045Z</time></trkpt><trkpt lat="45.5711866" lon="10.7994314"><ele>197.0</ele><time>2026-04-26T10:50:34.046Z</time></trkpt><trkpt lat="45.5712586" lon="10.7993778"><ele>197.0</ele><time>2026-04-26T10:50:35.046Z</time></trkpt><trkpt lat="45.5713382" lon="10.7993182"><ele>197.0</ele><time>2026-04-26T10:50:36.045Z</time></trkpt><trkpt lat="45.571421" lon="10.799249"><ele>197.0</ele><time>2026-04-26T10:50:37.045Z</time></trkpt><trkpt lat="45.5714988" lon="10.7991812"><ele>197.0</ele><time>2026-04-26T10:50:38.045Z</time></trkpt><trkpt lat="45.5715831" lon="10.7991165"><ele>197.8</ele><time>2026-04-26T10:50:39.045Z</time></trkpt><trkpt lat="45.571666" lon="10.7990489"><ele>198.6</ele><time>2026-04-26T10:50:40.045Z</time></trkpt><trkpt lat="45.5717515" lon="10.798983"><ele>199.4</ele><time>2026-04-26T10:50:41.044Z</time></trkpt><trkpt lat="45.5718337" lon="10.7989244"><ele>200.20000000000002</ele><time>2026-04-26T10:50:42.045Z</time></trkpt><trkpt lat="45.5719129" lon="10.7988658"><ele>201.0</ele><time>2026-04-26T10:50:43.045Z</time></trkpt><trkpt lat="45.5719931" lon="10.7988023"><ele>201.0</ele><time>2026-04-26T10:50:44.044Z</time></trkpt><trkpt lat="45.5720716" lon="10.7987281"><ele>201.0</ele><time>2026-04-26T10:50:45.044Z</time></trkpt><trkpt lat="45.5721469" lon="10.7986525"><ele>201.0</ele><time>2026-04-26T10:50:46.044Z</time></trkpt><trkpt lat="45.5722234" lon="10.7985835"><ele>201.0</ele><time>2026-04-26T10:50:47.044Z</time></trkpt><trkpt lat="45.5723078" lon="10.7985286"><ele>201.0</ele><time>2026-04-26T10:50:48.045Z</time></trkpt><trkpt lat="45.5724032" lon="10.7984731"><ele>201.4</ele><time>2026-04-26T10:50:49.045Z</time></trkpt><trkpt lat="45.5724983" lon="10.7984166"><ele>201.8</ele><time>2026-04-26T10:50:50.045Z</time></trkpt><trkpt lat="45.5725986" lon="10.7983518"><ele>202.20000000000002</ele><time>2026-04-26T10:50:51.045Z</time></trkpt><trkpt lat="45.5726974" lon="10.7982883"><ele>202.60000000000002</ele><time>2026-04-26T10:50:52.045Z</time></trkpt><trkpt lat="45.5727967" lon="10.798223"><ele>203.0</ele><time>2026-04-26T10:50:53.045Z</time></trkpt><trkpt lat="45.572902" lon="10.7981648"><ele>203.0</ele><time>2026-04-26T10:50:54.045Z</time></trkpt><trkpt lat="45.573011" lon="10.798117"><ele>203.0</ele><time>2026-04-26T10:50:55.045Z</time></trkpt><trkpt lat="45.5731229" lon="10.7980653"><ele>203.0</ele><time>2026-04-26T10:50:56.045Z</time></trkpt><trkpt lat="45.5732356" lon="10.7980155"><ele>203.0</ele><time>2026-04-26T10:50:57.045Z</time></trkpt><trkpt lat="45.5733444" lon="10.7979604"><ele>203.0</ele><time>2026-04-26T10:50:58.044Z</time></trkpt><trkpt lat="45.5734498" lon="10.7979102"><ele>203.0</ele><time>2026-04-26T10:50:59.044Z</time></trkpt><trkpt lat="45.573552" lon="10.7978661"><ele>203.0</ele><time>2026-04-26T10:51:00.045Z</time></trkpt><trkpt lat="45.5736464" lon="10.7978223"><ele>203.0</ele><time>2026-04-26T10:51:01.045Z</time></trkpt><trkpt lat="45.5737355" lon="10.7977757"><ele>203.0</ele><time>2026-04-26T10:51:02.045Z</time></trkpt><trkpt lat="45.5738265" lon="10.7977275"><ele>202.0</ele><time>2026-04-26T10:51:03.045Z</time></trkpt><trkpt lat="45.573918" lon="10.797669"><ele>201.0</ele><time>2026-04-26T10:51:04.044Z</time></trkpt><trkpt lat="45.5740067" lon="10.7976057"><ele>200.0</ele><time>2026-04-26T10:51:05.045Z</time></trkpt><trkpt lat="45.5740925" lon="10.7975538"><ele>199.0</ele><time>2026-04-26T10:51:06.044Z</time></trkpt><trkpt lat="45.5741798" lon="10.7975009"><ele>198.0</ele><time>2026-04-26T10:51:07.045Z</time></trkpt><trkpt lat="45.5742645" lon="10.7974362"><ele>198.4</ele><time>2026-04-26T10:51:08.045Z</time></trkpt><trkpt lat="45.5743384" lon="10.7973635"><ele>198.8</ele><time>2026-04-26T10:51:09.044Z</time></trkpt><trkpt lat="45.5744091" lon="10.7972724"><ele>199.2</ele><time>2026-04-26T10:51:10.045Z</time></trkpt><trkpt lat="45.5744769" lon="10.7971671"><ele>199.6</ele><time>2026-04-26T10:51:11.044Z</time></trkpt><trkpt lat="45.5745418" lon="10.7970618"><ele>200.0</ele><time>2026-04-26T10:51:12.045Z</time></trkpt><trkpt lat="45.5746236" lon="10.7969604"><ele>200.0</ele><time>2026-04-26T10:51:13.045Z</time></trkpt><trkpt lat="45.5747224" lon="10.796866"><ele>200.0</ele><time>2026-04-26T10:51:14.045Z</time></trkpt><trkpt lat="45.5748325" lon="10.7967749"><ele>200.0</ele><time>2026-04-26T10:51:15.044Z</time></trkpt><trkpt lat="45.5749442" lon="10.7966917"><ele>200.0</ele><time>2026-04-26T10:51:16.044Z</time></trkpt><trkpt lat="45.575056" lon="10.7966081"><ele>199.75</ele><time>2026-04-26T10:51:17.044Z</time></trkpt><trkpt lat="45.5751689" lon="10.7965136"><ele>199.5</ele><time>2026-04-26T10:51:18.045Z</time></trkpt><trkpt lat="45.5752667" lon="10.7964182"><ele>199.25</ele><time>2026-04-26T10:51:19.044Z</time></trkpt><trkpt lat="45.5753543" lon="10.7963104"><ele>199.0</ele><time>2026-04-26T10:51:20.044Z</time></trkpt><trkpt lat="45.5754364" lon="10.7962105"><ele>199.0</ele><time>2026-04-26T10:51:21.044Z</time></trkpt><trkpt lat="45.5755124" lon="10.7961142"><ele>199.0</ele><time>2026-04-26T10:51:22.044Z</time></trkpt><trkpt lat="45.5755887" lon="10.7960061"><ele>199.0</ele><time>2026-04-26T10:51:23.045Z</time></trkpt><trkpt lat="45.5756583" lon="10.7958943"><ele>199.0</ele><time>2026-04-26T10:51:24.045Z</time></trkpt><trkpt lat="45.5757321" lon="10.7957747"><ele>199.0</ele><time>2026-04-26T10:51:25.044Z</time></trkpt><trkpt lat="45.5758055" lon="10.7956509"><ele>200.0</ele><time>2026-04-26T10:51:26.044Z</time></trkpt><trkpt lat="45.5758784" lon="10.7955313"><ele>201.0</ele><time>2026-04-26T10:51:27.044Z</time></trkpt><trkpt lat="45.5759518" lon="10.7954257"><ele>202.0</ele><time>2026-04-26T10:51:28.044Z</time></trkpt><trkpt lat="45.576028" lon="10.7953433"><ele>203.0</ele><time>2026-04-26T10:51:29.045Z</time></trkpt><trkpt lat="45.5760988" lon="10.7952717"><ele>204.0</ele><time>2026-04-26T10:51:30.045Z</time></trkpt><trkpt lat="45.5761709" lon="10.7952209"><ele>203.66666666666666</ele><time>2026-04-26T10:51:31.044Z</time></trkpt><trkpt lat="45.5762306" lon="10.7951734"><ele>203.33333333333331</ele><time>2026-04-26T10:51:32.045Z</time></trkpt><trkpt lat="45.5763209" lon="10.7951073"><ele>203.0</ele><time>2026-04-26T10:51:34.045Z</time></trkpt><trkpt lat="45.5763889" lon="10.7950899"><ele>202.66666666666666</ele><time>2026-04-26T10:51:36.044Z</time></trkpt><trkpt lat="45.576454" lon="10.795073"><ele>202.33333333333331</ele><time>2026-04-26T10:51:41.045Z</time></trkpt><trkpt lat="45.5764877" lon="10.7949441"><ele>202.0</ele><time>2026-04-26T10:51:47.044Z</time></trkpt><trkpt lat="45.5764922" lon="10.7947856"><ele>202.0</ele><time>2026-04-26T10:51:48.045Z</time></trkpt><trkpt lat="45.5764972" lon="10.7945814"><ele>202.0</ele><time>2026-04-26T10:51:49.045Z</time></trkpt><trkpt lat="45.576503" lon="10.7943641"><ele>202.0</ele><time>2026-04-26T10:51:50.044Z</time></trkpt><trkpt lat="45.576515" lon="10.7941278"><ele>202.0</ele><time>2026-04-26T10:51:51.044Z</time></trkpt><trkpt lat="45.57653" lon="10.7938712"><ele>202.0</ele><time>2026-04-26T10:51:52.045Z</time></trkpt><trkpt lat="45.576541" lon="10.7935976"><ele>202.0</ele><time>2026-04-26T10:51:53.045Z</time></trkpt><trkpt lat="45.5765499" lon="10.7933229"><ele>202.0</ele><time>2026-04-26T10:51:54.044Z</time></trkpt><trkpt lat="45.5765578" lon="10.793041"><ele>202.0</ele><time>2026-04-26T10:51:55.044Z</time></trkpt><trkpt lat="45.5765658" lon="10.7927622"><ele>202.0</ele><time>2026-04-26T10:51:56.045Z</time></trkpt><trkpt lat="45.5765697" lon="10.7924997"><ele>202.0</ele><time>2026-04-26T10:51:57.045Z</time></trkpt><trkpt lat="45.5765761" lon="10.7922541"><ele>202.0</ele><time>2026-04-26T10:51:58.044Z</time></trkpt><trkpt lat="45.5765905" lon="10.7920179"><ele>202.0</ele><time>2026-04-26T10:51:59.044Z</time></trkpt><trkpt lat="45.5766054" lon="10.7917932"><ele>202.0</ele><time>2026-04-26T10:52:00.045Z</time></trkpt><trkpt lat="45.5765786" lon="10.7915774"><ele>202.0</ele><time>2026-04-26T10:52:01.044Z</time></trkpt><trkpt lat="45.5765146" lon="10.79137"><ele>202.0</ele><time>2026-04-26T10:52:02.044Z</time></trkpt><trkpt lat="45.5764312" lon="10.7911765"><ele>203.0</ele><time>2026-04-26T10:52:03.045Z</time></trkpt><trkpt lat="45.5763296" lon="10.7909991"><ele>204.0</ele><time>2026-04-26T10:52:04.045Z</time></trkpt><trkpt lat="45.5762129" lon="10.7908292"><ele>205.0</ele><time>2026-04-26T10:52:05.044Z</time></trkpt><trkpt lat="45.5760957" lon="10.790651"><ele>205.0</ele><time>2026-04-26T10:52:06.045Z</time></trkpt><trkpt lat="45.5759869" lon="10.7904576"><ele>205.0</ele><time>2026-04-26T10:52:07.045Z</time></trkpt><trkpt lat="45.5758894" lon="10.790254"><ele>205.0</ele><time>2026-04-26T10:52:08.045Z</time></trkpt><trkpt lat="45.5757922" lon="10.7900374"><ele>206.33333333333331</ele><time>2026-04-26T10:52:09.045Z</time></trkpt><trkpt lat="45.5757027" lon="10.7898099"><ele>207.66666666666669</ele><time>2026-04-26T10:52:10.045Z</time></trkpt><trkpt lat="45.5756244" lon="10.7895851"><ele>209.0</ele><time>2026-04-26T10:52:11.045Z</time></trkpt><trkpt lat="45.5755505" lon="10.789373"><ele>212.66666666666669</ele><time>2026-04-26T10:52:12.045Z</time></trkpt><trkpt lat="45.5754949" lon="10.7891534"><ele>216.33333333333331</ele><time>2026-04-26T10:52:13.045Z</time></trkpt><trkpt lat="45.5754577" lon="10.7889275"><ele>220.0</ele><time>2026-04-26T10:52:14.044Z</time></trkpt><trkpt lat="45.5754331" lon="10.7887177"><ele>219.66666666666666</ele><time>2026-04-26T10:52:15.044Z</time></trkpt><trkpt lat="45.5754437" lon="10.7884796"><ele>219.33333333333331</ele><time>2026-04-26T10:52:16.045Z</time></trkpt><trkpt lat="45.575449" lon="10.7882152"><ele>219.0</ele><time>2026-04-26T10:52:17.045Z</time></trkpt><trkpt lat="45.5754555" lon="10.787934"><ele>218.0</ele><time>2026-04-26T10:52:18.045Z</time></trkpt><trkpt lat="45.5754675" lon="10.7876515"><ele>217.0</ele><time>2026-04-26T10:52:19.044Z</time></trkpt><trkpt lat="45.5754948" lon="10.7873736"><ele>216.0</ele><time>2026-04-26T10:52:20.044Z</time></trkpt><trkpt lat="45.5755325" lon="10.7871205"><ele>216.0</ele><time>2026-04-26T10:52:21.044Z</time></trkpt><trkpt lat="45.5755718" lon="10.7868777"><ele>216.0</ele><time>2026-04-26T10:52:22.045Z</time></trkpt><trkpt lat="45.5756032" lon="10.7866496"><ele>216.0</ele><time>2026-04-26T10:52:23.045Z</time></trkpt><trkpt lat="45.5756244" lon="10.7864138"><ele>217.0</ele><time>2026-04-26T10:52:24.044Z</time></trkpt><trkpt lat="45.5756477" lon="10.7861907"><ele>218.0</ele><time>2026-04-26T10:52:25.044Z</time></trkpt><trkpt lat="45.575666" lon="10.7859609"><ele>219.0</ele><time>2026-04-26T10:52:26.045Z</time></trkpt><trkpt lat="45.5756694" lon="10.7857275"><ele>220.66666666666669</ele><time>2026-04-26T10:52:27.045Z</time></trkpt><trkpt lat="45.5756586" lon="10.7854878"><ele>222.33333333333334</ele><time>2026-04-26T10:52:28.045Z</time></trkpt><trkpt lat="45.575638" lon="10.7852385"><ele>224.0</ele><time>2026-04-26T10:52:29.045Z</time></trkpt><trkpt lat="45.575595" lon="10.7849832"><ele>226.33333333333334</ele><time>2026-04-26T10:52:30.044Z</time></trkpt><trkpt lat="45.5755498" lon="10.7847333"><ele>228.66666666666669</ele><time>2026-04-26T10:52:31.045Z</time></trkpt><trkpt lat="45.5755068" lon="10.7844953"><ele>231.0</ele><time>2026-04-26T10:52:32.045Z</time></trkpt><trkpt lat="45.5754679" lon="10.7842445"><ele>233.33333333333331</ele><time>2026-04-26T10:52:33.045Z</time></trkpt><trkpt lat="45.5754132" lon="10.7840148"><ele>235.66666666666666</ele><time>2026-04-26T10:52:34.044Z</time></trkpt><trkpt lat="45.5753574" lon="10.7837937"><ele>238.0</ele><time>2026-04-26T10:52:35.045Z</time></trkpt><trkpt lat="45.5753295" lon="10.7835752"><ele>233.0</ele><time>2026-04-26T10:52:36.045Z</time></trkpt><trkpt lat="45.5753097" lon="10.7833314"><ele>228.0</ele><time>2026-04-26T10:52:37.045Z</time></trkpt><trkpt lat="45.5752983" lon="10.7830853"><ele>223.0</ele><time>2026-04-26T10:52:38.045Z</time></trkpt><trkpt lat="45.5752913" lon="10.7828307"><ele>224.33333333333331</ele><time>2026-04-26T10:52:39.045Z</time></trkpt><trkpt lat="45.5752785" lon="10.7825875"><ele>225.66666666666669</ele><time>2026-04-26T10:52:40.044Z</time></trkpt><trkpt lat="45.5752734" lon="10.7823753"><ele>227.0</ele><time>2026-04-26T10:52:41.045Z</time></trkpt><trkpt lat="45.575275" lon="10.7821627"><ele>227.0</ele><time>2026-04-26T10:52:42.044Z</time></trkpt><trkpt lat="45.5752835" lon="10.78195"><ele>227.0</ele><time>2026-04-26T10:52:43.045Z</time></trkpt><trkpt lat="45.5753097" lon="10.7817426"><ele>227.0</ele><time>2026-04-26T10:52:44.045Z</time></trkpt><trkpt lat="45.5753617" lon="10.7815391"><ele>227.0</ele><time>2026-04-26T10:52:45.045Z</time></trkpt><trkpt lat="45.5754366" lon="10.7813355"><ele>231.66666666666669</ele><time>2026-04-26T10:52:46.044Z</time></trkpt><trkpt lat="45.5755128" lon="10.7811339"><ele>236.33333333333331</ele><time>2026-04-26T10:52:47.045Z</time></trkpt><trkpt lat="45.5755858" lon="10.7809388"><ele>241.0</ele><time>2026-04-26T10:52:48.045Z</time></trkpt><trkpt lat="45.5756444" lon="10.7807401"><ele>241.0</ele><time>2026-04-26T10:52:49.045Z</time></trkpt><trkpt lat="45.5756911" lon="10.780523"><ele>241.0</ele><time>2026-04-26T10:52:50.045Z</time></trkpt><trkpt lat="45.5757129" lon="10.7803003"><ele>241.0</ele><time>2026-04-26T10:52:51.044Z</time></trkpt><trkpt lat="45.5756988" lon="10.7800732"><ele>238.0</ele><time>2026-04-26T10:52:52.044Z</time></trkpt><trkpt lat="45.5756655" lon="10.7798569"><ele>235.0</ele><time>2026-04-26T10:52:53.044Z</time></trkpt><trkpt lat="45.5756178" lon="10.7796572"><ele>232.0</ele><time>2026-04-26T10:52:54.045Z</time></trkpt><trkpt lat="45.5755414" lon="10.7794594"><ele>232.33333333333331</ele><time>2026-04-26T10:52:55.044Z</time></trkpt><trkpt lat="45.5754238" lon="10.7792754"><ele>232.66666666666669</ele><time>2026-04-26T10:52:56.045Z</time></trkpt><trkpt lat="45.5753014" lon="10.7791114"><ele>233.0</ele><time>2026-04-26T10:52:57.045Z</time></trkpt><trkpt lat="45.5751647" lon="10.7789355"><ele>233.0</ele><time>2026-04-26T10:52:58.045Z</time></trkpt><trkpt lat="45.5750269" lon="10.7787274"><ele>233.0</ele><time>2026-04-26T10:52:59.044Z</time></trkpt><trkpt lat="45.5749055" lon="10.7785122"><ele>233.0</ele><time>2026-04-26T10:53:00.045Z</time></trkpt><trkpt lat="45.5747864" lon="10.7782956"><ele>229.33333333333334</ele><time>2026-04-26T10:53:01.045Z</time></trkpt><trkpt lat="45.574685" lon="10.7780728"><ele>225.66666666666669</ele><time>2026-04-26T10:53:02.045Z</time></trkpt><trkpt lat="45.5745933" lon="10.7778419"><ele>222.0</ele><time>2026-04-26T10:53:03.045Z</time></trkpt><trkpt lat="45.574497" lon="10.7776159"><ele>221.0</ele><time>2026-04-26T10:53:04.045Z</time></trkpt><trkpt lat="45.5744008" lon="10.7773779"><ele>220.0</ele><time>2026-04-26T10:53:05.045Z</time></trkpt><trkpt lat="45.5743122" lon="10.7771421"><ele>219.0</ele><time>2026-04-26T10:53:06.045Z</time></trkpt><trkpt lat="45.5742305" lon="10.7769172"><ele>219.33333333333331</ele><time>2026-04-26T10:53:07.045Z</time></trkpt><trkpt lat="45.5741466" lon="10.7767013"><ele>219.66666666666666</ele><time>2026-04-26T10:53:08.045Z</time></trkpt><trkpt lat="45.5740624" lon="10.7764877"><ele>220.0</ele><time>2026-04-26T10:53:09.044Z</time></trkpt><trkpt lat="45.5739836" lon="10.7762674"><ele>220.0</ele><time>2026-04-26T10:53:10.044Z</time></trkpt><trkpt lat="45.5739017" lon="10.7760634"><ele>220.0</ele><time>2026-04-26T10:53:11.044Z</time></trkpt><trkpt lat="45.5738272" lon="10.7758535"><ele>220.0</ele><time>2026-04-26T10:53:12.043Z</time></trkpt><trkpt lat="45.5737533" lon="10.7756418"><ele>219.66666666666666</ele><time>2026-04-26T10:53:13.043Z</time></trkpt><trkpt lat="45.5736847" lon="10.7754273"><ele>219.33333333333331</ele><time>2026-04-26T10:53:14.044Z</time></trkpt><trkpt lat="45.5736275" lon="10.7752161"><ele>219.0</ele><time>2026-04-26T10:53:15.044Z</time></trkpt><trkpt lat="45.5735758" lon="10.775026"><ele>218.39999999999998</ele><time>2026-04-26T10:53:16.044Z</time></trkpt><trkpt lat="45.5735296" lon="10.7748579"><ele>217.79999999999998</ele><time>2026-04-26T10:53:17.043Z</time></trkpt><trkpt lat="45.5734928" lon="10.7746945"><ele>217.20000000000002</ele><time>2026-04-26T10:53:18.044Z</time></trkpt><trkpt lat="45.5734658" lon="10.7745514"><ele>216.60000000000002</ele><time>2026-04-26T10:53:19.044Z</time></trkpt><trkpt lat="45.5734473" lon="10.7744357"><ele>216.0</ele><time>2026-04-26T10:53:20.043Z</time></trkpt><trkpt lat="45.5734327" lon="10.7743395"><ele>215.4</ele><time>2026-04-26T10:53:21.043Z</time></trkpt><trkpt lat="45.5734026" lon="10.7741923"><ele>214.8</ele><time>2026-04-26T10:53:23.043Z</time></trkpt><trkpt lat="45.5733829" lon="10.7741034"><ele>214.20000000000002</ele><time>2026-04-26T10:53:25.043Z</time></trkpt><trkpt lat="45.5733829" lon="10.773984"><ele>213.60000000000002</ele><time>2026-04-26T10:53:41.044Z</time></trkpt><trkpt lat="45.5734122" lon="10.7738546"><ele>213.0</ele><time>2026-04-26T10:53:43.043Z</time></trkpt><trkpt lat="45.5735085" lon="10.7737492"><ele>213.0</ele><time>2026-04-26T10:53:45.043Z</time></trkpt><trkpt lat="45.5735859" lon="10.7737267"><ele>213.0</ele><time>2026-04-26T10:53:46.043Z</time></trkpt><trkpt lat="45.573689" lon="10.7737243"><ele>213.0</ele><time>2026-04-26T10:53:47.044Z</time></trkpt><trkpt lat="45.5738203" lon="10.773727"><ele>213.0</ele><time>2026-04-26T10:53:48.043Z</time></trkpt><trkpt lat="45.573969" lon="10.7737311"><ele>215.66666666666669</ele><time>2026-04-26T10:53:49.044Z</time></trkpt><trkpt lat="45.5741161" lon="10.7737374"><ele>218.33333333333334</ele><time>2026-04-26T10:53:50.043Z</time></trkpt><trkpt lat="45.5742702" lon="10.7737562"><ele>221.0</ele><time>2026-04-26T10:53:51.044Z</time></trkpt><trkpt lat="45.574429" lon="10.7737592"><ele>219.0</ele><time>2026-04-26T10:53:52.043Z</time></trkpt><trkpt lat="45.5745836" lon="10.7737628"><ele>217.0</ele><time>2026-04-26T10:53:53.043Z</time></trkpt><trkpt lat="45.5747342" lon="10.7737689"><ele>215.0</ele><time>2026-04-26T10:53:54.043Z</time></trkpt><trkpt lat="45.5748836" lon="10.7737753"><ele>215.0</ele><time>2026-04-26T10:53:55.044Z</time></trkpt><trkpt lat="45.575035" lon="10.7738029"><ele>215.0</ele><time>2026-04-26T10:53:56.044Z</time></trkpt><trkpt lat="45.5751903" lon="10.7738414"><ele>215.0</ele><time>2026-04-26T10:53:57.043Z</time></trkpt><trkpt lat="45.5753529" lon="10.7738694"><ele>214.66666666666669</ele><time>2026-04-26T10:53:58.044Z</time></trkpt><trkpt lat="45.5755197" lon="10.7739169"><ele>214.33333333333331</ele><time>2026-04-26T10:53:59.044Z</time></trkpt><trkpt lat="45.5756861" lon="10.7739691"><ele>214.0</ele><time>2026-04-26T10:54:00.044Z</time></trkpt><trkpt lat="45.5758545" lon="10.7740203"><ele>214.0</ele><time>2026-04-26T10:54:01.043Z</time></trkpt><trkpt lat="45.5760309" lon="10.7740663"><ele>214.0</ele><time>2026-04-26T10:54:02.043Z</time></trkpt><trkpt lat="45.5762059" lon="10.7741153"><ele>214.0</ele><time>2026-04-26T10:54:03.043Z</time></trkpt><trkpt lat="45.57638" lon="10.7741572"><ele>215.33333333333331</ele><time>2026-04-26T10:54:04.044Z</time></trkpt><trkpt lat="45.5765501" lon="10.7742063"><ele>216.66666666666669</ele><time>2026-04-26T10:54:05.044Z</time></trkpt><trkpt lat="45.5767235" lon="10.7742561"><ele>218.0</ele><time>2026-04-26T10:54:06.043Z</time></trkpt><trkpt lat="45.5769005" lon="10.7743008"><ele>218.0</ele><time>2026-04-26T10:54:07.044Z</time></trkpt><trkpt lat="45.5770748" lon="10.7743323"><ele>218.0</ele><time>2026-04-26T10:54:08.043Z</time></trkpt><trkpt lat="45.5772512" lon="10.7743779"><ele>218.0</ele><time>2026-04-26T10:54:09.043Z</time></trkpt><trkpt lat="45.57743" lon="10.7744274"><ele>219.66666666666669</ele><time>2026-04-26T10:54:10.044Z</time></trkpt><trkpt lat="45.5776146" lon="10.7744811"><ele>221.33333333333331</ele><time>2026-04-26T10:54:11.044Z</time></trkpt><trkpt lat="45.5778092" lon="10.7745368"><ele>223.0</ele><time>2026-04-26T10:54:12.044Z</time></trkpt><trkpt lat="45.5780036" lon="10.774584"><ele>223.0</ele><time>2026-04-26T10:54:13.043Z</time></trkpt><trkpt lat="45.5782025" lon="10.7746282"><ele>223.0</ele><time>2026-04-26T10:54:14.044Z</time></trkpt><trkpt lat="45.5784022" lon="10.7746818"><ele>223.0</ele><time>2026-04-26T10:54:15.044Z</time></trkpt><trkpt lat="45.5786009" lon="10.7747374"><ele>223.33333333333331</ele><time>2026-04-26T10:54:16.044Z</time></trkpt><trkpt lat="45.578798" lon="10.7747865"><ele>223.66666666666669</ele><time>2026-04-26T10:54:17.043Z</time></trkpt><trkpt lat="45.5789846" lon="10.7748468"><ele>224.0</ele><time>2026-04-26T10:54:18.043Z</time></trkpt><trkpt lat="45.5791722" lon="10.7749072"><ele>224.0</ele><time>2026-04-26T10:54:19.043Z</time></trkpt><trkpt lat="45.5793582" lon="10.7749642"><ele>224.0</ele><time>2026-04-26T10:54:20.043Z</time></trkpt><trkpt lat="45.5795345" lon="10.7750233"><ele>224.0</ele><time>2026-04-26T10:54:21.043Z</time></trkpt><trkpt lat="45.5797132" lon="10.7750662"><ele>224.33333333333334</ele><time>2026-04-26T10:54:22.044Z</time></trkpt><trkpt lat="45.5798943" lon="10.7751237"><ele>224.66666666666669</ele><time>2026-04-26T10:54:23.044Z</time></trkpt><trkpt lat="45.5800773" lon="10.7751791"><ele>225.0</ele><time>2026-04-26T10:54:24.043Z</time></trkpt><trkpt lat="45.5802657" lon="10.775226"><ele>226.33333333333331</ele><time>2026-04-26T10:54:25.044Z</time></trkpt><trkpt lat="45.5804469" lon="10.7752615"><ele>227.66666666666666</ele><time>2026-04-26T10:54:26.044Z</time></trkpt><trkpt lat="45.5806221" lon="10.7753148"><ele>229.0</ele><time>2026-04-26T10:54:27.044Z</time></trkpt><trkpt lat="45.5808005" lon="10.7753685"><ele>229.0</ele><time>2026-04-26T10:54:28.043Z</time></trkpt><trkpt lat="45.580969" lon="10.7754167"><ele>229.0</ele><time>2026-04-26T10:54:29.044Z</time></trkpt><trkpt lat="45.5811337" lon="10.7754511"><ele>229.0</ele><time>2026-04-26T10:54:30.043Z</time></trkpt><trkpt lat="45.5812872" lon="10.7754831"><ele>229.5</ele><time>2026-04-26T10:54:31.044Z</time></trkpt><trkpt lat="45.581427" lon="10.7755226"><ele>230.0</ele><time>2026-04-26T10:54:32.043Z</time></trkpt><trkpt lat="45.5815588" lon="10.7755502"><ele>230.5</ele><time>2026-04-26T10:54:33.044Z</time></trkpt><trkpt lat="45.58168" lon="10.7755783"><ele>231.0</ele><time>2026-04-26T10:54:34.043Z</time></trkpt><trkpt lat="45.5817909" lon="10.7756197"><ele>231.0</ele><time>2026-04-26T10:54:35.044Z</time></trkpt><trkpt lat="45.5818947" lon="10.775663"><ele>231.0</ele><time>2026-04-26T10:54:36.044Z</time></trkpt><trkpt lat="45.581987" lon="10.7756944"><ele>231.0</ele><time>2026-04-26T10:54:37.044Z</time></trkpt><trkpt lat="45.5820687" lon="10.77573"><ele>231.0</ele><time>2026-04-26T10:54:38.044Z</time></trkpt><trkpt lat="45.582142" lon="10.7757757"><ele>231.0</ele><time>2026-04-26T10:54:39.044Z</time></trkpt><trkpt lat="45.5822073" lon="10.775824"><ele>231.0</ele><time>2026-04-26T10:54:40.043Z</time></trkpt><trkpt lat="45.5822667" lon="10.7758682"><ele>230.75</ele><time>2026-04-26T10:54:41.044Z</time></trkpt><trkpt lat="45.5823613" lon="10.7758572"><ele>230.5</ele><time>2026-04-26T10:54:43.043Z</time></trkpt><trkpt lat="45.5824193" lon="10.7756756"><ele>230.25</ele><time>2026-04-26T10:54:45.043Z</time></trkpt><trkpt lat="45.5824355" lon="10.7755265"><ele>230.0</ele><time>2026-04-26T10:54:46.043Z</time></trkpt><trkpt lat="45.5824489" lon="10.7753279"><ele>229.33333333333334</ele><time>2026-04-26T10:54:47.044Z</time></trkpt><trkpt lat="45.5824579" lon="10.7751021"><ele>228.66666666666669</ele><time>2026-04-26T10:54:48.043Z</time></trkpt><trkpt lat="45.5824715" lon="10.7748657"><ele>228.0</ele><time>2026-04-26T10:54:49.043Z</time></trkpt><trkpt lat="45.582488" lon="10.7746293"><ele>228.0</ele><time>2026-04-26T10:54:50.043Z</time></trkpt><trkpt lat="45.5825049" lon="10.7743985"><ele>228.0</ele><time>2026-04-26T10:54:51.044Z</time></trkpt><trkpt lat="45.5825344" lon="10.7741679"><ele>228.0</ele><time>2026-04-26T10:54:52.043Z</time></trkpt><trkpt lat="45.5825826" lon="10.7739444"><ele>227.66666666666669</ele><time>2026-04-26T10:54:53.043Z</time></trkpt><trkpt lat="45.5826578" lon="10.7737394"><ele>227.33333333333334</ele><time>2026-04-26T10:54:54.044Z</time></trkpt><trkpt lat="45.5827524" lon="10.7735549"><ele>227.0</ele><time>2026-04-26T10:54:55.043Z</time></trkpt><trkpt lat="45.5828728" lon="10.7733823"><ele>226.33333333333334</ele><time>2026-04-26T10:54:56.044Z</time></trkpt><trkpt lat="45.5830041" lon="10.773222"><ele>225.66666666666669</ele><time>2026-04-26T10:54:57.044Z</time></trkpt><trkpt lat="45.5831394" lon="10.773072"><ele>225.0</ele><time>2026-04-26T10:54:58.043Z</time></trkpt><trkpt lat="45.5832625" lon="10.7729197"><ele>225.0</ele><time>2026-04-26T10:54:59.043Z</time></trkpt><trkpt lat="45.5833703" lon="10.7727509"><ele>225.0</ele><time>2026-04-26T10:55:00.043Z</time></trkpt><trkpt lat="45.5834558" lon="10.7725698"><ele>225.0</ele><time>2026-04-26T10:55:01.044Z</time></trkpt><trkpt lat="45.5835244" lon="10.7723904"><ele>224.5</ele><time>2026-04-26T10:55:02.044Z</time></trkpt><trkpt lat="45.5835721" lon="10.772193"><ele>224.0</ele><time>2026-04-26T10:55:03.043Z</time></trkpt><trkpt lat="45.5836034" lon="10.7719851"><ele>223.5</ele><time>2026-04-26T10:55:04.044Z</time></trkpt><trkpt lat="45.5836215" lon="10.7717661"><ele>223.0</ele><time>2026-04-26T10:55:05.044Z</time></trkpt><trkpt lat="45.5836407" lon="10.7715357"><ele>222.0</ele><time>2026-04-26T10:55:06.044Z</time></trkpt><trkpt lat="45.5836521" lon="10.7712873"><ele>221.0</ele><time>2026-04-26T10:55:07.044Z</time></trkpt><trkpt lat="45.5836656" lon="10.7710223"><ele>220.0</ele><time>2026-04-26T10:55:08.043Z</time></trkpt><trkpt lat="45.5836786" lon="10.7707547"><ele>219.66666666666666</ele><time>2026-04-26T10:55:09.044Z</time></trkpt><trkpt lat="45.5836994" lon="10.7704763"><ele>219.33333333333331</ele><time>2026-04-26T10:55:10.044Z</time></trkpt><trkpt lat="45.5837225" lon="10.7702094"><ele>219.0</ele><time>2026-04-26T10:55:11.044Z</time></trkpt><trkpt lat="45.5837498" lon="10.7699558"><ele>219.0</ele><time>2026-04-26T10:55:12.043Z</time></trkpt><trkpt lat="45.5837892" lon="10.769714"><ele>219.0</ele><time>2026-04-26T10:55:13.044Z</time></trkpt><trkpt lat="45.5838239" lon="10.7694822"><ele>219.0</ele><time>2026-04-26T10:55:14.044Z</time></trkpt><trkpt lat="45.5838501" lon="10.7692504"><ele>218.0</ele><time>2026-04-26T10:55:15.044Z</time></trkpt><trkpt lat="45.5838679" lon="10.7690259"><ele>217.0</ele><time>2026-04-26T10:55:16.043Z</time></trkpt><trkpt lat="45.5838842" lon="10.7688023"><ele>216.0</ele><time>2026-04-26T10:55:17.043Z</time></trkpt><trkpt lat="45.5838996" lon="10.7685785"><ele>215.25</ele><time>2026-04-26T10:55:18.044Z</time></trkpt><trkpt lat="45.5839192" lon="10.768358"><ele>214.5</ele><time>2026-04-26T10:55:19.043Z</time></trkpt><trkpt lat="45.5839461" lon="10.7681556"><ele>213.75</ele><time>2026-04-26T10:55:20.044Z</time></trkpt><trkpt lat="45.583976" lon="10.767954"><ele>213.0</ele><time>2026-04-26T10:55:21.043Z</time></trkpt><trkpt lat="45.5840067" lon="10.767761"><ele>213.25</ele><time>2026-04-26T10:55:22.044Z</time></trkpt><trkpt lat="45.5840442" lon="10.7675703"><ele>213.5</ele><time>2026-04-26T10:55:23.043Z</time></trkpt><trkpt lat="45.5840797" lon="10.7674047"><ele>213.75</ele><time>2026-04-26T10:55:24.044Z</time></trkpt><trkpt lat="45.5841285" lon="10.7672586"><ele>214.0</ele><time>2026-04-26T10:55:25.044Z</time></trkpt><trkpt lat="45.5841995" lon="10.767123"><ele>214.0</ele><time>2026-04-26T10:55:26.044Z</time></trkpt><trkpt lat="45.5842898" lon="10.7670095"><ele>214.0</ele><time>2026-04-26T10:55:27.044Z</time></trkpt><trkpt lat="45.5843976" lon="10.7668898"><ele>214.0</ele><time>2026-04-26T10:55:28.044Z</time></trkpt><trkpt lat="45.5845155" lon="10.7667568"><ele>214.0</ele><time>2026-04-26T10:55:29.043Z</time></trkpt><trkpt lat="45.5846317" lon="10.7666108"><ele>214.0</ele><time>2026-04-26T10:55:30.044Z</time></trkpt><trkpt lat="45.5847458" lon="10.7664367"><ele>214.0</ele><time>2026-04-26T10:55:31.044Z</time></trkpt><trkpt lat="45.5848565" lon="10.7662492"><ele>214.0</ele><time>2026-04-26T10:55:32.044Z</time></trkpt><trkpt lat="45.5849608" lon="10.7660647"><ele>213.66666666666666</ele><time>2026-04-26T10:55:33.044Z</time></trkpt><trkpt lat="45.5850662" lon="10.7658687"><ele>213.33333333333331</ele><time>2026-04-26T10:55:34.044Z</time></trkpt><trkpt lat="45.5851688" lon="10.7656769"><ele>213.0</ele><time>2026-04-26T10:55:35.044Z</time></trkpt><trkpt lat="45.5852728" lon="10.7654866"><ele>213.0</ele><time>2026-04-26T10:55:36.044Z</time></trkpt><trkpt lat="45.5853761" lon="10.7653009"><ele>213.0</ele><time>2026-04-26T10:55:37.044Z</time></trkpt><trkpt lat="45.5854718" lon="10.7651207"><ele>213.0</ele><time>2026-04-26T10:55:38.043Z</time></trkpt><trkpt lat="45.5855607" lon="10.7649494"><ele>213.0</ele><time>2026-04-26T10:55:39.044Z</time></trkpt><trkpt lat="45.5856482" lon="10.7647659"><ele>213.0</ele><time>2026-04-26T10:55:40.044Z</time></trkpt><trkpt lat="45.5857303" lon="10.7645838"><ele>213.0</ele><time>2026-04-26T10:55:41.043Z</time></trkpt><trkpt lat="45.5858169" lon="10.7644044"><ele>212.75</ele><time>2026-04-26T10:55:42.044Z</time></trkpt><trkpt lat="45.5859047" lon="10.7642474"><ele>212.5</ele><time>2026-04-26T10:55:43.044Z</time></trkpt><trkpt lat="45.5859944" lon="10.764097"><ele>212.25</ele><time>2026-04-26T10:55:44.044Z</time></trkpt><trkpt lat="45.5860904" lon="10.7639464"><ele>212.0</ele><time>2026-04-26T10:55:45.043Z</time></trkpt><trkpt lat="45.5861998" lon="10.7638172"><ele>212.0</ele><time>2026-04-26T10:55:46.043Z</time></trkpt><trkpt lat="45.5863122" lon="10.7636944"><ele>212.0</ele><time>2026-04-26T10:55:47.044Z</time></trkpt><trkpt lat="45.5864152" lon="10.7635606"><ele>212.0</ele><time>2026-04-26T10:55:48.043Z</time></trkpt><trkpt lat="45.5865163" lon="10.7634352"><ele>212.0</ele><time>2026-04-26T10:55:49.043Z</time></trkpt><trkpt lat="45.5866243" lon="10.7633325"><ele>212.0</ele><time>2026-04-26T10:55:50.043Z</time></trkpt><trkpt lat="45.5867272" lon="10.7632431"><ele>212.0</ele><time>2026-04-26T10:55:51.044Z</time></trkpt><trkpt lat="45.5868234" lon="10.7631538"><ele>212.0</ele><time>2026-04-26T10:55:52.043Z</time></trkpt><trkpt lat="45.5869062" lon="10.7630702"><ele>212.0</ele><time>2026-04-26T10:55:53.042Z</time></trkpt><trkpt lat="45.5869715" lon="10.7629876"><ele>212.0</ele><time>2026-04-26T10:55:54.043Z</time></trkpt><trkpt lat="45.5870415" lon="10.7628896"><ele>212.0</ele><time>2026-04-26T10:55:55.043Z</time></trkpt><trkpt lat="45.5871147" lon="10.7627635"><ele>212.0</ele><time>2026-04-26T10:55:56.043Z</time></trkpt><trkpt lat="45.5871957" lon="10.7626147"><ele>212.0</ele><time>2026-04-26T10:55:57.042Z</time></trkpt><trkpt lat="45.5872759" lon="10.7624613"><ele>212.0</ele><time>2026-04-26T10:55:58.042Z</time></trkpt><trkpt lat="45.587341" lon="10.7623065"><ele>212.0</ele><time>2026-04-26T10:55:59.042Z</time></trkpt><trkpt lat="45.5873991" lon="10.7621351"><ele>212.0</ele><time>2026-04-26T10:56:00.042Z</time></trkpt><trkpt lat="45.5874453" lon="10.7619418"><ele>212.0</ele><time>2026-04-26T10:56:01.042Z</time></trkpt><trkpt lat="45.5874853" lon="10.7617443"><ele>212.0</ele><time>2026-04-26T10:56:02.043Z</time></trkpt><trkpt lat="45.587515" lon="10.7615445"><ele>211.75</ele><time>2026-04-26T10:56:03.042Z</time></trkpt><trkpt lat="45.5875306" lon="10.7613378"><ele>211.5</ele><time>2026-04-26T10:56:04.042Z</time></trkpt><trkpt lat="45.5875308" lon="10.7611249"><ele>211.25</ele><time>2026-04-26T10:56:05.043Z</time></trkpt><trkpt lat="45.5875279" lon="10.7609075"><ele>211.0</ele><time>2026-04-26T10:56:06.042Z</time></trkpt><trkpt lat="45.5875268" lon="10.7606907"><ele>210.66666666666666</ele><time>2026-04-26T10:56:07.043Z</time></trkpt><trkpt lat="45.5875252" lon="10.7604662"><ele>210.33333333333331</ele><time>2026-04-26T10:56:08.043Z</time></trkpt><trkpt lat="45.5875293" lon="10.7602507"><ele>210.0</ele><time>2026-04-26T10:56:09.043Z</time></trkpt><trkpt lat="45.5875333" lon="10.7600373"><ele>210.0</ele><time>2026-04-26T10:56:10.043Z</time></trkpt><trkpt lat="45.5875375" lon="10.7598179"><ele>210.0</ele><time>2026-04-26T10:56:11.043Z</time></trkpt><trkpt lat="45.5875423" lon="10.7596087"><ele>210.0</ele><time>2026-04-26T10:56:12.043Z</time></trkpt><trkpt lat="45.587543" lon="10.7594187"><ele>210.0</ele><time>2026-04-26T10:56:13.043Z</time></trkpt><trkpt lat="45.5875491" lon="10.7592311"><ele>210.0</ele><time>2026-04-26T10:56:14.043Z</time></trkpt><trkpt lat="45.5875573" lon="10.759069"><ele>210.0</ele><time>2026-04-26T10:56:15.042Z</time></trkpt><trkpt lat="45.5875673" lon="10.7589284"><ele>210.0</ele><time>2026-04-26T10:56:16.043Z</time></trkpt><trkpt lat="45.5875767" lon="10.7588241"><ele>210.0</ele><time>2026-04-26T10:56:17.042Z</time></trkpt><trkpt lat="45.5876014" lon="10.7586763"><ele>210.0</ele><time>2026-04-26T10:56:19.043Z</time></trkpt><trkpt lat="45.587569" lon="10.7585325"><ele>210.2</ele><time>2026-04-26T10:56:21.043Z</time></trkpt><trkpt lat="45.5875171" lon="10.7584521"><ele>210.4</ele><time>2026-04-26T10:56:22.042Z</time></trkpt><trkpt lat="45.5874452" lon="10.7583746"><ele>210.60000000000002</ele><time>2026-04-26T10:56:23.043Z</time></trkpt><trkpt lat="45.5873698" lon="10.7583128"><ele>210.8</ele><time>2026-04-26T10:56:24.043Z</time></trkpt><trkpt lat="45.5872857" lon="10.7582684"><ele>211.0</ele><time>2026-04-26T10:56:25.042Z</time></trkpt><trkpt lat="45.5871811" lon="10.7582345"><ele>211.0</ele><time>2026-04-26T10:56:26.042Z</time></trkpt><trkpt lat="45.5870587" lon="10.7582051"><ele>211.0</ele><time>2026-04-26T10:56:27.043Z</time></trkpt><trkpt lat="45.5869272" lon="10.7581811"><ele>211.0</ele><time>2026-04-26T10:56:28.042Z</time></trkpt><trkpt lat="45.5867855" lon="10.7581581"><ele>211.0</ele><time>2026-04-26T10:56:29.042Z</time></trkpt><trkpt lat="45.5866445" lon="10.7581292"><ele>210.75</ele><time>2026-04-26T10:56:30.043Z</time></trkpt><trkpt lat="45.5865113" lon="10.7580917"><ele>210.5</ele><time>2026-04-26T10:56:31.043Z</time></trkpt><trkpt lat="45.5863866" lon="10.7580491"><ele>210.25</ele><time>2026-04-26T10:56:32.042Z</time></trkpt><trkpt lat="45.5862552" lon="10.7580129"><ele>210.0</ele><time>2026-04-26T10:56:33.043Z</time></trkpt><trkpt lat="45.5861285" lon="10.7579788"><ele>210.0</ele><time>2026-04-26T10:56:34.042Z</time></trkpt><trkpt lat="45.5860097" lon="10.757951"><ele>210.0</ele><time>2026-04-26T10:56:35.043Z</time></trkpt><trkpt lat="45.5858926" lon="10.7579288"><ele>210.0</ele><time>2026-04-26T10:56:36.043Z</time></trkpt><trkpt lat="45.5857895" lon="10.7578869"><ele>210.0</ele><time>2026-04-26T10:56:37.043Z</time></trkpt><trkpt lat="45.5856906" lon="10.7578178"><ele>210.0</ele><time>2026-04-26T10:56:38.043Z</time></trkpt><trkpt lat="45.5855843" lon="10.7577397"><ele>210.0</ele><time>2026-04-26T10:56:39.042Z</time></trkpt><trkpt lat="45.5854777" lon="10.757641"><ele>210.0</ele><time>2026-04-26T10:56:40.042Z</time></trkpt><trkpt lat="45.5853791" lon="10.7575553"><ele>210.0</ele><time>2026-04-26T10:56:41.042Z</time></trkpt><trkpt lat="45.585279" lon="10.7574842"><ele>209.8</ele><time>2026-04-26T10:56:42.043Z</time></trkpt><trkpt lat="45.5851819" lon="10.7574329"><ele>209.6</ele><time>2026-04-26T10:56:43.042Z</time></trkpt><trkpt lat="45.5850913" lon="10.7573935"><ele>209.39999999999998</ele><time>2026-04-26T10:56:44.043Z</time></trkpt><trkpt lat="45.5850054" lon="10.7573568"><ele>209.2</ele><time>2026-04-26T10:56:45.043Z</time></trkpt><trkpt lat="45.5849252" lon="10.7573038"><ele>209.0</ele><time>2026-04-26T10:56:46.043Z</time></trkpt><trkpt lat="45.5848416" lon="10.7572337"><ele>209.0</ele><time>2026-04-26T10:56:47.043Z</time></trkpt><trkpt lat="45.5847592" lon="10.7571373"><ele>209.0</ele><time>2026-04-26T10:56:48.043Z</time></trkpt><trkpt lat="45.5846828" lon="10.7570325"><ele>209.0</ele><time>2026-04-26T10:56:49.043Z</time></trkpt><trkpt lat="45.5846107" lon="10.7569202"><ele>209.0</ele><time>2026-04-26T10:56:50.042Z</time></trkpt><trkpt lat="45.5845374" lon="10.7568038"><ele>209.0</ele><time>2026-04-26T10:56:51.043Z</time></trkpt><trkpt lat="45.584462" lon="10.7566798"><ele>209.25</ele><time>2026-04-26T10:56:52.042Z</time></trkpt><trkpt lat="45.5843809" lon="10.7565388"><ele>209.5</ele><time>2026-04-26T10:56:53.042Z</time></trkpt><trkpt lat="45.5842948" lon="10.7564038"><ele>209.75</ele><time>2026-04-26T10:56:54.043Z</time></trkpt><trkpt lat="45.5842079" lon="10.7562544"><ele>210.0</ele><time>2026-04-26T10:56:55.042Z</time></trkpt><trkpt lat="45.5841264" lon="10.7561095"><ele>210.25</ele><time>2026-04-26T10:56:56.042Z</time></trkpt><trkpt lat="45.5840483" lon="10.7559733"><ele>210.5</ele><time>2026-04-26T10:56:57.042Z</time></trkpt><trkpt lat="45.5839733" lon="10.7558417"><ele>210.75</ele><time>2026-04-26T10:56:58.042Z</time></trkpt><trkpt lat="45.583906" lon="10.7557173"><ele>211.0</ele><time>2026-04-26T10:56:59.043Z</time></trkpt><trkpt lat="45.5838394" lon="10.7555833"><ele>211.0</ele><time>2026-04-26T10:57:00.043Z</time></trkpt><trkpt lat="45.5837718" lon="10.7554462"><ele>211.0</ele><time>2026-04-26T10:57:01.042Z</time></trkpt><trkpt lat="45.5837083" lon="10.7552884"><ele>211.0</ele><time>2026-04-26T10:57:02.043Z</time></trkpt><trkpt lat="45.5836543" lon="10.7551365"><ele>211.0</ele><time>2026-04-26T10:57:03.042Z</time></trkpt><trkpt lat="45.5835965" lon="10.7549992"><ele>210.75</ele><time>2026-04-26T10:57:04.042Z</time></trkpt><trkpt lat="45.5835354" lon="10.754854"><ele>210.5</ele><time>2026-04-26T10:57:05.043Z</time></trkpt><trkpt lat="45.5834651" lon="10.7546966"><ele>210.25</ele><time>2026-04-26T10:57:06.042Z</time></trkpt><trkpt lat="45.5833898" lon="10.7545525"><ele>210.0</ele><time>2026-04-26T10:57:07.042Z</time></trkpt><trkpt lat="45.5833121" lon="10.7544183"><ele>209.6</ele><time>2026-04-26T10:57:08.042Z</time></trkpt><trkpt lat="45.5832408" lon="10.7542996"><ele>209.2</ele><time>2026-04-26T10:57:09.043Z</time></trkpt><trkpt lat="45.5831715" lon="10.7541856"><ele>208.8</ele><time>2026-04-26T10:57:10.042Z</time></trkpt><trkpt lat="45.5831154" lon="10.754078"><ele>208.4</ele><time>2026-04-26T10:57:11.042Z</time></trkpt><trkpt lat="45.5830606" lon="10.7539743"><ele>208.0</ele><time>2026-04-26T10:57:12.043Z</time></trkpt><trkpt lat="45.5830074" lon="10.7538679"><ele>207.99999999999997</ele><time>2026-04-26T10:57:13.043Z</time></trkpt><trkpt lat="45.5829531" lon="10.7537656"><ele>208.0</ele><time>2026-04-26T10:57:14.042Z</time></trkpt><trkpt lat="45.5828965" lon="10.7536555"><ele>208.0</ele><time>2026-04-26T10:57:15.042Z</time></trkpt><trkpt lat="45.5828404" lon="10.7535551"><ele>208.0</ele><time>2026-04-26T10:57:16.043Z</time></trkpt><trkpt lat="45.5827906" lon="10.7534569"><ele>207.99999999999997</ele><time>2026-04-26T10:57:17.043Z</time></trkpt><trkpt lat="45.5827434" lon="10.753373"><ele>208.0</ele><time>2026-04-26T10:57:18.043Z</time></trkpt><trkpt lat="45.5826997" lon="10.7532941"><ele>208.33333333333331</ele><time>2026-04-26T10:57:19.043Z</time></trkpt><trkpt lat="45.5826569" lon="10.7532235"><ele>208.66666666666666</ele><time>2026-04-26T10:57:20.043Z</time></trkpt><trkpt lat="45.5825919" lon="10.7530916"><ele>209.0</ele><time>2026-04-26T10:57:22.043Z</time></trkpt><trkpt lat="45.5825412" lon="10.7529692"><ele>209.33333333333331</ele><time>2026-04-26T10:57:24.042Z</time></trkpt><trkpt lat="45.5825395" lon="10.7528626"><ele>209.66666666666666</ele><time>2026-04-26T10:57:27.043Z</time></trkpt><trkpt lat="45.5825673" lon="10.7527816"><ele>210.0</ele><time>2026-04-26T10:57:30.042Z</time></trkpt><trkpt lat="45.5826601" lon="10.7526873"><ele>210.0</ele><time>2026-04-26T10:57:32.042Z</time></trkpt><trkpt lat="45.5827352" lon="10.7526221"><ele>210.0</ele><time>2026-04-26T10:57:33.042Z</time></trkpt><trkpt lat="45.582823" lon="10.7525366"><ele>210.0</ele><time>2026-04-26T10:57:34.043Z</time></trkpt><trkpt lat="45.582927" lon="10.7524351"><ele>210.0</ele><time>2026-04-26T10:57:35.043Z</time></trkpt><trkpt lat="45.5830422" lon="10.7523196"><ele>211.33333333333331</ele><time>2026-04-26T10:57:36.042Z</time></trkpt><trkpt lat="45.5831692" lon="10.752196"><ele>212.66666666666666</ele><time>2026-04-26T10:57:37.042Z</time></trkpt><trkpt lat="45.5833067" lon="10.7520495"><ele>214.0</ele><time>2026-04-26T10:57:38.042Z</time></trkpt><trkpt lat="45.5834658" lon="10.7519101"><ele>214.33333333333331</ele><time>2026-04-26T10:57:39.043Z</time></trkpt><trkpt lat="45.5836244" lon="10.7517743"><ele>214.66666666666669</ele><time>2026-04-26T10:57:40.043Z</time></trkpt><trkpt lat="45.5837802" lon="10.7516231"><ele>215.0</ele><time>2026-04-26T10:57:41.043Z</time></trkpt><trkpt lat="45.5839229" lon="10.7514869"><ele>216.33333333333334</ele><time>2026-04-26T10:57:42.042Z</time></trkpt><trkpt lat="45.5840567" lon="10.7513529"><ele>217.66666666666669</ele><time>2026-04-26T10:57:43.043Z</time></trkpt><trkpt lat="45.5841762" lon="10.7512226"><ele>219.0</ele><time>2026-04-26T10:57:44.042Z</time></trkpt><trkpt lat="45.5842803" lon="10.7510906"><ele>219.25</ele><time>2026-04-26T10:57:45.042Z</time></trkpt><trkpt lat="45.5843792" lon="10.7509566"><ele>219.5</ele><time>2026-04-26T10:57:46.043Z</time></trkpt><trkpt lat="45.5844812" lon="10.7508156"><ele>219.75</ele><time>2026-04-26T10:57:47.042Z</time></trkpt><trkpt lat="45.5845873" lon="10.7506689"><ele>220.0</ele><time>2026-04-26T10:57:48.043Z</time></trkpt><trkpt lat="45.5846926" lon="10.7505264"><ele>220.0</ele><time>2026-04-26T10:57:49.042Z</time></trkpt><trkpt lat="45.5847977" lon="10.7503839"><ele>220.0</ele><time>2026-04-26T10:57:50.042Z</time></trkpt><trkpt lat="45.5848977" lon="10.7502505"><ele>220.0</ele><time>2026-04-26T10:57:51.043Z</time></trkpt><trkpt lat="45.5849984" lon="10.7501219"><ele>220.0</ele><time>2026-04-26T10:57:52.042Z</time></trkpt><trkpt lat="45.5850941" lon="10.7499868"><ele>220.0</ele><time>2026-04-26T10:57:53.043Z</time></trkpt><trkpt lat="45.5851847" lon="10.749857"><ele>220.0</ele><time>2026-04-26T10:57:54.043Z</time></trkpt><trkpt lat="45.585273" lon="10.7497379"><ele>220.0</ele><time>2026-04-26T10:57:55.042Z</time></trkpt><trkpt lat="45.5853624" lon="10.7496181"><ele>220.0</ele><time>2026-04-26T10:57:56.043Z</time></trkpt><trkpt lat="45.5854564" lon="10.7494872"><ele>220.25</ele><time>2026-04-26T10:57:57.042Z</time></trkpt><trkpt lat="45.5855531" lon="10.7493597"><ele>220.5</ele><time>2026-04-26T10:57:58.043Z</time></trkpt><trkpt lat="45.5856541" lon="10.7492449"><ele>220.75</ele><time>2026-04-26T10:57:59.043Z</time></trkpt><trkpt lat="45.585761" lon="10.7491336"><ele>221.0</ele><time>2026-04-26T10:58:00.043Z</time></trkpt><trkpt lat="45.5858628" lon="10.7490329"><ele>221.0</ele><time>2026-04-26T10:58:01.042Z</time></trkpt><trkpt lat="45.5859597" lon="10.7489394"><ele>221.00000000000003</ele><time>2026-04-26T10:58:02.042Z</time></trkpt><trkpt lat="45.586053" lon="10.748844"><ele>221.00000000000003</ele><time>2026-04-26T10:58:03.043Z</time></trkpt><trkpt lat="45.5861409" lon="10.7487458"><ele>221.0</ele><time>2026-04-26T10:58:04.043Z</time></trkpt><trkpt lat="45.5862288" lon="10.7486613"><ele>221.0</ele><time>2026-04-26T10:58:05.043Z</time></trkpt><trkpt lat="45.5863182" lon="10.7485645"><ele>221.4</ele><time>2026-04-26T10:58:06.042Z</time></trkpt><trkpt lat="45.5864105" lon="10.7484779"><ele>221.8</ele><time>2026-04-26T10:58:07.043Z</time></trkpt><trkpt lat="45.5864935" lon="10.7484028"><ele>222.20000000000002</ele><time>2026-04-26T10:58:08.042Z</time></trkpt><trkpt lat="45.5865696" lon="10.7483414"><ele>222.60000000000002</ele><time>2026-04-26T10:58:09.042Z</time></trkpt><trkpt lat="45.5866327" lon="10.7482904"><ele>223.0</ele><time>2026-04-26T10:58:10.043Z</time></trkpt><trkpt lat="45.5867112" lon="10.7482347"><ele>223.0</ele><time>2026-04-26T10:58:12.042Z</time></trkpt><trkpt lat="45.5867919" lon="10.7481875"><ele>223.0</ele><time>2026-04-26T10:58:15.043Z</time></trkpt><trkpt lat="45.5869056" lon="10.7481456"><ele>223.0</ele><time>2026-04-26T10:58:17.043Z</time></trkpt><trkpt lat="45.5870006" lon="10.748073"><ele>223.0</ele><time>2026-04-26T10:58:19.043Z</time></trkpt><trkpt lat="45.5869923" lon="10.747961"><ele>223.0</ele><time>2026-04-26T10:58:21.043Z</time></trkpt><trkpt lat="45.5868952" lon="10.7479276"><ele>223.0</ele><time>2026-04-26T10:58:23.042Z</time></trkpt><trkpt lat="45.5868325" lon="10.7479513"><ele>223.0</ele><time>2026-04-26T10:58:24.043Z</time></trkpt><trkpt lat="45.5867509" lon="10.7480247"><ele>223.0</ele><time>2026-04-26T10:58:25.042Z</time></trkpt><trkpt lat="45.5866599" lon="10.7481155"><ele>223.0</ele><time>2026-04-26T10:58:26.042Z</time></trkpt><trkpt lat="45.5865636" lon="10.7482289"><ele>223.0</ele><time>2026-04-26T10:58:27.043Z</time></trkpt><trkpt lat="45.5864566" lon="10.7483518"><ele>223.0</ele><time>2026-04-26T10:58:28.043Z</time></trkpt><trkpt lat="45.5863444" lon="10.7484648"><ele>223.0</ele><time>2026-04-26T10:58:29.043Z</time></trkpt><trkpt lat="45.5862307" lon="10.74858"><ele>223.0</ele><time>2026-04-26T10:58:30.043Z</time></trkpt><trkpt lat="45.5861261" lon="10.7486807"><ele>223.0</ele><time>2026-04-26T10:58:31.042Z</time></trkpt><trkpt lat="45.5860309" lon="10.7487658"><ele>222.60000000000002</ele><time>2026-04-26T10:58:32.043Z</time></trkpt><trkpt lat="45.5859478" lon="10.7488493"><ele>222.20000000000002</ele><time>2026-04-26T10:58:33.043Z</time></trkpt><trkpt lat="45.5858668" lon="10.748928"><ele>221.8</ele><time>2026-04-26T10:58:34.043Z</time></trkpt><trkpt lat="45.5857931" lon="10.7490019"><ele>221.4</ele><time>2026-04-26T10:58:35.042Z</time></trkpt><trkpt lat="45.5857304" lon="10.749065"><ele>221.0</ele><time>2026-04-26T10:58:36.042Z</time></trkpt><trkpt lat="45.585635" lon="10.7491404"><ele>221.00000000000003</ele><time>2026-04-26T10:58:38.041Z</time></trkpt><trkpt lat="45.585553" lon="10.7491352"><ele>221.0</ele><time>2026-04-26T10:58:40.042Z</time></trkpt><trkpt lat="45.585465" lon="10.7490157"><ele>221.0</ele><time>2026-04-26T10:58:42.041Z</time></trkpt><trkpt lat="45.5854045" lon="10.7489493"><ele>221.0</ele><time>2026-04-26T10:58:43.041Z</time></trkpt><trkpt lat="45.5853272" lon="10.7489058"><ele>221.00000000000003</ele><time>2026-04-26T10:58:44.041Z</time></trkpt><trkpt lat="45.5852451" lon="10.748892"><ele>221.0</ele><time>2026-04-26T10:58:45.042Z</time></trkpt><trkpt lat="45.5851546" lon="10.7489096"><ele>221.5</ele><time>2026-04-26T10:58:46.041Z</time></trkpt><trkpt lat="45.585059" lon="10.7489744"><ele>222.0</ele><time>2026-04-26T10:58:47.042Z</time></trkpt><trkpt lat="45.5849629" lon="10.7490696"><ele>222.5</ele><time>2026-04-26T10:58:48.042Z</time></trkpt><trkpt lat="45.584866" lon="10.7491814"><ele>223.0</ele><time>2026-04-26T10:58:49.041Z</time></trkpt><trkpt lat="45.584772" lon="10.7493038"><ele>223.2</ele><time>2026-04-26T10:58:50.042Z</time></trkpt><trkpt lat="45.5846903" lon="10.7494219"><ele>223.4</ele><time>2026-04-26T10:58:51.041Z</time></trkpt><trkpt lat="45.5846148" lon="10.7495109"><ele>223.59999999999997</ele><time>2026-04-26T10:58:52.042Z</time></trkpt><trkpt lat="45.5845458" lon="10.7495888"><ele>223.79999999999998</ele><time>2026-04-26T10:58:53.042Z</time></trkpt><trkpt lat="45.5844779" lon="10.7496365"><ele>224.0</ele><time>2026-04-26T10:58:54.042Z</time></trkpt><trkpt lat="45.584402" lon="10.7496455"><ele>224.0</ele><time>2026-04-26T10:58:55.041Z</time></trkpt><trkpt lat="45.5843045" lon="10.7496414"><ele>224.0</ele><time>2026-04-26T10:58:56.041Z</time></trkpt><trkpt lat="45.5841809" lon="10.749633"><ele>224.0</ele><time>2026-04-26T10:58:57.041Z</time></trkpt><trkpt lat="45.5840308" lon="10.7496301"><ele>224.0</ele><time>2026-04-26T10:58:58.042Z</time></trkpt><trkpt lat="45.5838789" lon="10.7496358"><ele>224.0</ele><time>2026-04-26T10:58:59.041Z</time></trkpt><trkpt lat="45.5837367" lon="10.7496421"><ele>224.0</ele><time>2026-04-26T10:59:00.042Z</time></trkpt><trkpt lat="45.5836024" lon="10.749648"><ele>224.0</ele><time>2026-04-26T10:59:01.042Z</time></trkpt><trkpt lat="45.5834765" lon="10.7496633"><ele>224.0</ele><time>2026-04-26T10:59:02.042Z</time></trkpt><trkpt lat="45.5833545" lon="10.74969"><ele>224.2</ele><time>2026-04-26T10:59:03.041Z</time></trkpt><trkpt lat="45.5832411" lon="10.7497188"><ele>224.39999999999998</ele><time>2026-04-26T10:59:04.042Z</time></trkpt><trkpt lat="45.5831263" lon="10.749742"><ele>224.6</ele><time>2026-04-26T10:59:05.041Z</time></trkpt><trkpt lat="45.583017" lon="10.7497551"><ele>224.8</ele><time>2026-04-26T10:59:06.042Z</time></trkpt><trkpt lat="45.5829166" lon="10.7497452"><ele>225.0</ele><time>2026-04-26T10:59:07.041Z</time></trkpt><trkpt lat="45.5828118" lon="10.7497244"><ele>225.0</ele><time>2026-04-26T10:59:08.042Z</time></trkpt><trkpt lat="45.582698" lon="10.7496942"><ele>225.0</ele><time>2026-04-26T10:59:09.042Z</time></trkpt><trkpt lat="45.5825774" lon="10.7496594"><ele>225.0</ele><time>2026-04-26T10:59:10.041Z</time></trkpt><trkpt lat="45.582455" lon="10.7496131"><ele>225.0</ele><time>2026-04-26T10:59:11.041Z</time></trkpt><trkpt lat="45.582327" lon="10.7495742"><ele>225.0</ele><time>2026-04-26T10:59:12.042Z</time></trkpt><trkpt lat="45.5822078" lon="10.7495387"><ele>225.0</ele><time>2026-04-26T10:59:13.042Z</time></trkpt><trkpt lat="45.5820988" lon="10.7495017"><ele>225.0</ele><time>2026-04-26T10:59:14.042Z</time></trkpt><trkpt lat="45.5819923" lon="10.7494721"><ele>225.0</ele><time>2026-04-26T10:59:15.041Z</time></trkpt><trkpt lat="45.5818783" lon="10.7494507"><ele>224.25</ele><time>2026-04-26T10:59:16.041Z</time></trkpt><trkpt lat="45.5817636" lon="10.7494334"><ele>223.5</ele><time>2026-04-26T10:59:17.042Z</time></trkpt><trkpt lat="45.5816453" lon="10.7494179"><ele>222.75</ele><time>2026-04-26T10:59:18.041Z</time></trkpt><trkpt lat="45.5815316" lon="10.7494034"><ele>222.0</ele><time>2026-04-26T10:59:19.041Z</time></trkpt><trkpt lat="45.5814199" lon="10.7493845"><ele>225.0</ele><time>2026-04-26T10:59:20.041Z</time></trkpt><trkpt lat="45.5813073" lon="10.7493673"><ele>228.0</ele><time>2026-04-26T10:59:21.041Z</time></trkpt><trkpt lat="45.5811897" lon="10.7493338"><ele>231.0</ele><time>2026-04-26T10:59:22.041Z</time></trkpt><trkpt lat="45.5810721" lon="10.7493119"><ele>234.0</ele><time>2026-04-26T10:59:23.041Z</time></trkpt><trkpt lat="45.5809631" lon="10.7493098"><ele>234.0</ele><time>2026-04-26T10:59:24.042Z</time></trkpt><trkpt lat="45.5808649" lon="10.7493395"><ele>234.0</ele><time>2026-04-26T10:59:25.042Z</time></trkpt><trkpt lat="45.5807731" lon="10.7493917"><ele>234.0</ele><time>2026-04-26T10:59:26.041Z</time></trkpt><trkpt lat="45.5806921" lon="10.7494518"><ele>234.0</ele><time>2026-04-26T10:59:27.042Z</time></trkpt><trkpt lat="45.580624" lon="10.7495087"><ele>234.0</ele><time>2026-04-26T10:59:28.042Z</time></trkpt><trkpt lat="45.5805608" lon="10.749557"><ele>234.0</ele><time>2026-04-26T10:59:29.042Z</time></trkpt><trkpt lat="45.5804681" lon="10.7496308"><ele>233.33333333333334</ele><time>2026-04-26T10:59:31.042Z</time></trkpt><trkpt lat="45.5804124" lon="10.7496791"><ele>232.66666666666669</ele><time>2026-04-26T10:59:33.042Z</time></trkpt><trkpt lat="45.5803438" lon="10.7497053"><ele>232.0</ele><time>2026-04-26T10:59:47.042Z</time></trkpt><trkpt lat="45.5802655" lon="10.7497733"><ele>231.33333333333334</ele><time>2026-04-26T10:59:49.041Z</time></trkpt><trkpt lat="45.5801965" lon="10.7498487"><ele>230.66666666666669</ele><time>2026-04-26T10:59:51.041Z</time></trkpt><trkpt lat="45.5801237" lon="10.749918"><ele>230.0</ele><time>2026-04-26T10:59:53.042Z</time></trkpt><trkpt lat="45.5800083" lon="10.7499908"><ele>230.00000000000003</ele><time>2026-04-26T10:59:55.042Z</time></trkpt><trkpt lat="45.5799353" lon="10.7500305"><ele>230.0</ele><time>2026-04-26T10:59:56.042Z</time></trkpt><trkpt lat="45.5798551" lon="10.7500747"><ele>230.0</ele><time>2026-04-26T10:59:57.041Z</time></trkpt><trkpt lat="45.5797671" lon="10.750125"><ele>230.0</ele><time>2026-04-26T10:59:58.042Z</time></trkpt><trkpt lat="45.5796788" lon="10.7501677"><ele>230.00000000000003</ele><time>2026-04-26T10:59:59.041Z</time></trkpt><trkpt lat="45.5795873" lon="10.7502056"><ele>230.0</ele><time>2026-04-26T11:00:00.041Z</time></trkpt><trkpt lat="45.5795015" lon="10.7502486"><ele>229.8</ele><time>2026-04-26T11:00:01.042Z</time></trkpt><trkpt lat="45.5794198" lon="10.7502989"><ele>229.6</ele><time>2026-04-26T11:00:02.041Z</time></trkpt><trkpt lat="45.5793418" lon="10.7503499"><ele>229.39999999999998</ele><time>2026-04-26T11:00:03.042Z</time></trkpt><trkpt lat="45.5792607" lon="10.7504114"><ele>229.2</ele><time>2026-04-26T11:00:04.042Z</time></trkpt><trkpt lat="45.5791761" lon="10.7504802"><ele>229.0</ele><time>2026-04-26T11:00:05.042Z</time></trkpt><trkpt lat="45.5790986" lon="10.7505374"><ele>228.99999999999997</ele><time>2026-04-26T11:00:06.041Z</time></trkpt><trkpt lat="45.5790234" lon="10.7505868"><ele>229.0</ele><time>2026-04-26T11:00:07.041Z</time></trkpt><trkpt lat="45.5789489" lon="10.7506513"><ele>229.0</ele><time>2026-04-26T11:00:08.041Z</time></trkpt><trkpt lat="45.5788797" lon="10.750703"><ele>229.0</ele><time>2026-04-26T11:00:09.042Z</time></trkpt><trkpt lat="45.5788159" lon="10.7507467"><ele>228.99999999999997</ele><time>2026-04-26T11:00:10.041Z</time></trkpt><trkpt lat="45.5787166" lon="10.750822"><ele>229.0</ele><time>2026-04-26T11:00:12.042Z</time></trkpt><trkpt lat="45.5786322" lon="10.7509093"><ele>229.6</ele><time>2026-04-26T11:00:14.041Z</time></trkpt><trkpt lat="45.5785801" lon="10.7510392"><ele>230.2</ele><time>2026-04-26T11:00:16.041Z</time></trkpt><trkpt lat="45.5786065" lon="10.7511969"><ele>230.79999999999998</ele><time>2026-04-26T11:00:18.041Z</time></trkpt><trkpt lat="45.5786503" lon="10.7512961"><ele>231.39999999999998</ele><time>2026-04-26T11:00:19.041Z</time></trkpt><trkpt lat="45.5786964" lon="10.7514011"><ele>232.0</ele><time>2026-04-26T11:00:20.042Z</time></trkpt><trkpt lat="45.578729" lon="10.7515099"><ele>230.2</ele><time>2026-04-26T11:00:21.042Z</time></trkpt><trkpt lat="45.578753" lon="10.7516092"><ele>228.39999999999998</ele><time>2026-04-26T11:00:22.042Z</time></trkpt><trkpt lat="45.5787548" lon="10.7517798"><ele>226.60000000000002</ele><time>2026-04-26T11:00:24.042Z</time></trkpt><trkpt lat="45.5787343" lon="10.7519545"><ele>224.8</ele><time>2026-04-26T11:00:26.042Z</time></trkpt><trkpt lat="45.5787205" lon="10.7520448"><ele>223.0</ele><time>2026-04-26T11:00:27.041Z</time></trkpt><trkpt lat="45.5787033" lon="10.7521401"><ele>222.16666666666666</ele><time>2026-04-26T11:00:28.042Z</time></trkpt><trkpt lat="45.5786906" lon="10.7522508"><ele>221.33333333333331</ele><time>2026-04-26T11:00:29.042Z</time></trkpt><trkpt lat="45.5786774" lon="10.7523571"><ele>220.5</ele><time>2026-04-26T11:00:30.042Z</time></trkpt><trkpt lat="45.5786459" lon="10.7525067"><ele>219.66666666666669</ele><time>2026-04-26T11:00:32.042Z</time></trkpt><trkpt lat="45.5785934" lon="10.7526006"><ele>218.83333333333334</ele><time>2026-04-26T11:00:35.042Z</time></trkpt><trkpt lat="45.578533" lon="10.752648"><ele>218.0</ele><time>2026-04-26T11:00:37.041Z</time></trkpt><trkpt lat="45.5784746" lon="10.7527555"><ele>217.16666666666669</ele><time>2026-04-26T11:00:39.042Z</time></trkpt><trkpt lat="45.5784546" lon="10.7528512"><ele>216.33333333333334</ele><time>2026-04-26T11:00:40.042Z</time></trkpt><trkpt lat="45.5784454" lon="10.7529768"><ele>215.5</ele><time>2026-04-26T11:00:41.041Z</time></trkpt><trkpt lat="45.57844" lon="10.7531092"><ele>214.66666666666669</ele><time>2026-04-26T11:00:42.042Z</time></trkpt><trkpt lat="45.5784457" lon="10.7532482"><ele>213.83333333333334</ele><time>2026-04-26T11:00:43.042Z</time></trkpt><trkpt lat="45.578451" lon="10.7533906"><ele>213.0</ele><time>2026-04-26T11:00:44.042Z</time></trkpt><trkpt lat="45.5784606" lon="10.7535288"><ele>212.33333333333334</ele><time>2026-04-26T11:00:45.041Z</time></trkpt><trkpt lat="45.5784877" lon="10.7536557"><ele>211.66666666666669</ele><time>2026-04-26T11:00:46.041Z</time></trkpt><trkpt lat="45.5785281" lon="10.7537691"><ele>211.0</ele><time>2026-04-26T11:00:47.042Z</time></trkpt><trkpt lat="45.5785634" lon="10.753871"><ele>210.33333333333334</ele><time>2026-04-26T11:00:48.041Z</time></trkpt><trkpt lat="45.5786" lon="10.7540068"><ele>209.66666666666669</ele><time>2026-04-26T11:00:50.042Z</time></trkpt><trkpt lat="45.5786148" lon="10.7541049"><ele>209.0</ele><time>2026-04-26T11:00:53.041Z</time></trkpt><trkpt lat="45.5785727" lon="10.7541737"><ele>209.0</ele><time>2026-04-26T11:00:56.042Z</time></trkpt><trkpt lat="45.5784667" lon="10.7541365"><ele>209.0</ele><time>2026-04-26T11:00:59.042Z</time></trkpt><trkpt lat="45.5783998" lon="10.7540854"><ele>209.0</ele><time>2026-04-26T11:01:00.041Z</time></trkpt><trkpt lat="45.5783144" lon="10.7540134"><ele>209.0</ele><time>2026-04-26T11:01:01.041Z</time></trkpt><trkpt lat="45.5782305" lon="10.7539497"><ele>209.0</ele><time>2026-04-26T11:01:02.041Z</time></trkpt><trkpt lat="45.5781467" lon="10.7538905"><ele>209.00000000000003</ele><time>2026-04-26T11:01:03.042Z</time></trkpt><trkpt lat="45.5780707" lon="10.7538331"><ele>209.0</ele><time>2026-04-26T11:01:04.041Z</time></trkpt><trkpt lat="45.5780103" lon="10.753775"><ele>209.0</ele><time>2026-04-26T11:01:05.042Z</time></trkpt><trkpt lat="45.5779329" lon="10.7536969"><ele>209.0</ele><time>2026-04-26T11:01:07.041Z</time></trkpt><trkpt lat="45.5778627" lon="10.7536777"><ele>209.00000000000003</ele><time>2026-04-26T11:01:11.041Z</time></trkpt><trkpt lat="45.5777852" lon="10.7537262"><ele>209.0</ele><time>2026-04-26T11:01:15.042Z</time></trkpt><trkpt lat="45.5777112" lon="10.7537795"><ele>208.66666666666669</ele><time>2026-04-26T11:01:17.042Z</time></trkpt><trkpt lat="45.5776381" lon="10.753828"><ele>208.33333333333334</ele><time>2026-04-26T11:01:19.04Z</time></trkpt><trkpt lat="45.5775665" lon="10.7538744"><ele>208.0</ele><time>2026-04-26T11:01:21.041Z</time></trkpt><trkpt lat="45.5774716" lon="10.7539364"><ele>207.66666666666669</ele><time>2026-04-26T11:01:23.041Z</time></trkpt><trkpt lat="45.5774116" lon="10.7539677"><ele>207.33333333333334</ele><time>2026-04-26T11:01:24.04Z</time></trkpt><trkpt lat="45.5773507" lon="10.7539971"><ele>207.0</ele><time>2026-04-26T11:01:25.041Z</time></trkpt><trkpt lat="45.577289" lon="10.7540299"><ele>207.0</ele><time>2026-04-26T11:01:26.041Z</time></trkpt><trkpt lat="45.5772307" lon="10.754068"><ele>207.0</ele><time>2026-04-26T11:01:27.041Z</time></trkpt><trkpt lat="45.5771724" lon="10.754105"><ele>207.0</ele><time>2026-04-26T11:01:28.04Z</time></trkpt><trkpt lat="45.5770737" lon="10.7541715"><ele>207.0</ele><time>2026-04-26T11:01:30.041Z</time></trkpt><trkpt lat="45.5770092" lon="10.754244"><ele>207.0</ele><time>2026-04-26T11:01:33.041Z</time></trkpt><trkpt lat="45.5769423" lon="10.7541858"><ele>207.0</ele><time>2026-04-26T11:01:43.04Z</time></trkpt><trkpt lat="45.5768738" lon="10.7542064"><ele>210.0</ele><time>2026-04-26T11:01:46.04Z</time></trkpt><trkpt lat="45.5767984" lon="10.7542499"><ele>210.0</ele><time>2026-04-26T11:01:50.041Z</time></trkpt><trkpt lat="45.576741" lon="10.7542958"><ele>210.0</ele><time>2026-04-26T11:01:53.04Z</time></trkpt><trkpt lat="45.5766799" lon="10.754336"><ele>210.0</ele><time>2026-04-26T11:01:58.041Z</time></trkpt></trkseg></trk></gpx>